﻿<?xml version="1.0" encoding="utf-8"?><gpx creator="Garmin Desktop App" version="1.1" xsi:schemaLocation="http://www.topografix.com/GPX/1/1 http://www.topografix.com/GPX/1/1/gpx.xsd http://www.garmin.com/xmlschemas/WaypointExtension/v1 http://www8.garmin.com/xmlschemas/WaypointExtensionv1.xsd http://www.garmin.com/xmlschemas/TrackPointExtension/v1 http://www.garmin.com/xmlschemas/TrackPointExtensionv1.xsd http://www.garmin.com/xmlschemas/GpxExtensions/v3 http://www8.garmin.com/xmlschemas/GpxExtensionsv3.xsd http://www.garmin.com/xmlschemas/ActivityExtension/v1 http://www8.garmin.com/xmlschemas/ActivityExtensionv1.xsd http://www.garmin.com/xmlschemas/AdventuresExtensions/v1 http://www8.garmin.com/xmlschemas/AdventuresExtensionv1.xsd http://www.garmin.com/xmlschemas/PressureExtension/v1 http://www.garmin.com/xmlschemas/PressureExtensionv1.xsd http://www.garmin.com/xmlschemas/TripExtensions/v1 http://www.garmin.com/xmlschemas/TripExtensionsv1.xsd http://www.garmin.com/xmlschemas/TripMetaDataExtensions/v1 http://www.garmin.com/xmlschemas/TripMetaDataExtensionsv1.xsd http://www.garmin.com/xmlschemas/ViaPointTransportationModeExtensions/v1 http://www.garmin.com/xmlschemas/ViaPointTransportationModeExtensionsv1.xsd http://www.garmin.com/xmlschemas/CreationTimeExtension/v1 http://www.garmin.com/xmlschemas/CreationTimeExtensionsv1.xsd http://www.garmin.com/xmlschemas/AccelerationExtension/v1 http://www.garmin.com/xmlschemas/AccelerationExtensionv1.xsd http://www.garmin.com/xmlschemas/PowerExtension/v1 http://www.garmin.com/xmlschemas/PowerExtensionv1.xsd http://www.garmin.com/xmlschemas/VideoExtension/v1 http://www.garmin.com/xmlschemas/VideoExtensionv1.xsd" xmlns="http://www.topografix.com/GPX/1/1" xmlns:xsi="http://www.w3.org/2001/XMLSchema-instance" xmlns:wptx1="http://www.garmin.com/xmlschemas/WaypointExtension/v1" xmlns:gpxtrx="http://www.garmin.com/xmlschemas/GpxExtensions/v3" xmlns:gpxtpx="http://www.garmin.com/xmlschemas/TrackPointExtension/v1" xmlns:gpxx="http://www.garmin.com/xmlschemas/GpxExtensions/v3" xmlns:trp="http://www.garmin.com/xmlschemas/TripExtensions/v1" xmlns:adv="http://www.garmin.com/xmlschemas/AdventuresExtensions/v1" xmlns:prs="http://www.garmin.com/xmlschemas/PressureExtension/v1" xmlns:tmd="http://www.garmin.com/xmlschemas/TripMetaDataExtensions/v1" xmlns:vptm="http://www.garmin.com/xmlschemas/ViaPointTransportationModeExtensions/v1" xmlns:ctx="http://www.garmin.com/xmlschemas/CreationTimeExtension/v1" xmlns:gpxacc="http://www.garmin.com/xmlschemas/AccelerationExtension/v1" xmlns:gpxpx="http://www.garmin.com/xmlschemas/PowerExtension/v1" xmlns:vidx1="http://www.garmin.com/xmlschemas/VideoExtension/v1">

  <metadata>
    <link href="http://www.garmin.com">
      <text>Garmin International</text>
    </link>
    <time>2017-06-20T17:33:00Z</time>
    <bounds maxlat="62.861347999423742" maxlon="7.789122993126512" minlat="61.229080986231565" minlon="6.462820004671812" />
  </metadata>

  <trk>
    <name>Track vom: 20 JUN 2017 08:36</name>
    <extensions>
      <gpxx:TrackExtension>
        <gpxx:DisplayColor>DarkGray</gpxx:DisplayColor>
      </gpxx:TrackExtension>
    </extensions>
    <trkseg>
      <trkpt lat="61.234500976279378" lon="7.113313023000956">
        <ele>57.340000000000003</ele>
        <time>2017-06-20T06:36:48Z</time>
      </trkpt>
      <trkpt lat="61.234500976279378" lon="7.113314028829336">
        <ele>57.340000000000003</ele>
        <time>2017-06-20T06:37:00Z</time>
      </trkpt>
      <trkpt lat="61.23443802818656" lon="7.113224007189274">
        <ele>57.82</ele>
        <time>2017-06-20T06:37:04Z</time>
      </trkpt>
      <trkpt lat="61.23401097021997" lon="7.112496960908175">
        <ele>55.409999999999997</ele>
        <time>2017-06-20T06:37:19Z</time>
      </trkpt>
      <trkpt lat="61.233606962487102" lon="7.111785002052784">
        <ele>52.049999999999997</ele>
        <time>2017-06-20T06:37:31Z</time>
      </trkpt>
      <trkpt lat="61.233423985540867" lon="7.111617028713226">
        <ele>51.57</ele>
        <time>2017-06-20T06:37:38Z</time>
      </trkpt>
      <trkpt lat="61.233407976105809" lon="7.111659022048116">
        <ele>51.090000000000003</ele>
        <time>2017-06-20T06:37:39Z</time>
      </trkpt>
      <trkpt lat="61.233403030782938" lon="7.111721970140934">
        <ele>50.609999999999999</ele>
        <time>2017-06-20T06:37:40Z</time>
      </trkpt>
      <trkpt lat="61.233404036611319" lon="7.111803023144603">
        <ele>50.130000000000003</ele>
        <time>2017-06-20T06:37:41Z</time>
      </trkpt>
      <trkpt lat="61.233415016904473" lon="7.111891033127904">
        <ele>49.649999999999999</ele>
        <time>2017-06-20T06:37:42Z</time>
      </trkpt>
      <trkpt lat="61.23342901468277" lon="7.111978037282825">
        <ele>49.159999999999997</ele>
        <time>2017-06-20T06:37:43Z</time>
      </trkpt>
      <trkpt lat="61.233729002997279" lon="7.11321503855288">
        <ele>40.030000000000001</ele>
        <time>2017-06-20T06:37:56Z</time>
      </trkpt>
      <trkpt lat="61.23383997939527" lon="7.113704038783908">
        <ele>36.670000000000002</ele>
        <time>2017-06-20T06:38:01Z</time>
      </trkpt>
      <trkpt lat="61.23383897356689" lon="7.114476012066007">
        <ele>33.780000000000001</ele>
        <time>2017-06-20T06:38:11Z</time>
      </trkpt>
      <trkpt lat="61.233693966642022" lon="7.114592017605901">
        <ele>32.82</ele>
        <time>2017-06-20T06:38:15Z</time>
      </trkpt>
      <trkpt lat="61.233647027984262" lon="7.11459000594914">
        <ele>32.340000000000003</ele>
        <time>2017-06-20T06:38:16Z</time>
      </trkpt>
      <trkpt lat="61.233070017769933" lon="7.114154985174537">
        <ele>27.050000000000001</ele>
        <time>2017-06-20T06:38:29Z</time>
      </trkpt>
      <trkpt lat="61.232561990618706" lon="7.113176984712482">
        <ele>21.77</ele>
        <time>2017-06-20T06:38:42Z</time>
      </trkpt>
      <trkpt lat="61.232533995062113" lon="7.113097021356225">
        <ele>21.77</ele>
        <time>2017-06-20T06:38:43Z</time>
      </trkpt>
      <trkpt lat="61.232508011162281" lon="7.112995013594627">
        <ele>21.289999999999999</ele>
        <time>2017-06-20T06:38:44Z</time>
      </trkpt>
      <trkpt lat="61.232484960928559" lon="7.112884037196636">
        <ele>20.809999999999999</ele>
        <time>2017-06-20T06:38:45Z</time>
      </trkpt>
      <trkpt lat="61.232465011999011" lon="7.112781023606658">
        <ele>20.32</ele>
        <time>2017-06-20T06:38:46Z</time>
      </trkpt>
      <trkpt lat="61.232422012835741" lon="7.112438958138228">
        <ele>20.32</ele>
        <time>2017-06-20T06:38:49Z</time>
      </trkpt>
      <trkpt lat="61.232416983693838" lon="7.112323036417365">
        <ele>20.32</ele>
        <time>2017-06-20T06:38:50Z</time>
      </trkpt>
      <trkpt lat="61.232415977865458" lon="7.1122089587152">
        <ele>20.32</ele>
        <time>2017-06-20T06:38:51Z</time>
      </trkpt>
      <trkpt lat="61.232412960380316" lon="7.112090019509196">
        <ele>20.32</ele>
        <time>2017-06-20T06:38:52Z</time>
      </trkpt>
      <trkpt lat="61.232409020885825" lon="7.111972002312541">
        <ele>20.809999999999999</ele>
        <time>2017-06-20T06:38:53Z</time>
      </trkpt>
      <trkpt lat="61.232380019500852" lon="7.111085029318929">
        <ele>22.25</ele>
        <time>2017-06-20T06:39:01Z</time>
      </trkpt>
      <trkpt lat="61.232316987589002" lon="7.110048020258546">
        <ele>22.25</ele>
        <time>2017-06-20T06:39:10Z</time>
      </trkpt>
      <trkpt lat="61.232325034216046" lon="7.109931008890271">
        <ele>21.77</ele>
        <time>2017-06-20T06:39:11Z</time>
      </trkpt>
      <trkpt lat="61.232451014220715" lon="7.108327969908714">
        <ele>16.48</ele>
        <time>2017-06-20T06:39:25Z</time>
      </trkpt>
      <trkpt lat="61.232455037534237" lon="7.108229985460639">
        <ele>16.48</ele>
        <time>2017-06-20T06:39:26Z</time>
      </trkpt>
      <trkpt lat="61.232449002563953" lon="7.10814499296248">
        <ele>16.48</ele>
        <time>2017-06-20T06:39:27Z</time>
      </trkpt>
      <trkpt lat="61.232398962602019" lon="7.107173027470708">
        <ele>14.56</ele>
        <time>2017-06-20T06:39:37Z</time>
      </trkpt>
      <trkpt lat="61.232406003400683" lon="7.107087029144168">
        <ele>14.56</ele>
        <time>2017-06-20T06:39:38Z</time>
      </trkpt>
      <trkpt lat="61.232359986752272" lon="7.106585958972573">
        <ele>15.52</ele>
        <time>2017-06-20T06:39:45Z</time>
      </trkpt>
      <trkpt lat="61.232315981760621" lon="7.106542037799954">
        <ele>15.039999999999999</ele>
        <time>2017-06-20T06:39:46Z</time>
      </trkpt>
      <trkpt lat="61.23226803727448" lon="7.106488980352879">
        <ele>15.039999999999999</ele>
        <time>2017-06-20T06:39:47Z</time>
      </trkpt>
      <trkpt lat="61.232182960957289" lon="7.106343973428011">
        <ele>15.039999999999999</ele>
        <time>2017-06-20T06:39:49Z</time>
      </trkpt>
      <trkpt lat="61.232150020077825" lon="7.106245988979936">
        <ele>15.039999999999999</ele>
        <time>2017-06-20T06:39:50Z</time>
      </trkpt>
      <trkpt lat="61.232116995379329" lon="7.106131995096803">
        <ele>15.039999999999999</ele>
        <time>2017-06-20T06:39:51Z</time>
      </trkpt>
      <trkpt lat="61.231821030378342" lon="7.104504983872175">
        <ele>16</ele>
        <time>2017-06-20T06:40:02Z</time>
      </trkpt>
      <trkpt lat="61.231426997110248" lon="7.102232985198498">
        <ele>16.48</ele>
        <time>2017-06-20T06:40:20Z</time>
      </trkpt>
      <trkpt lat="61.230918969959021" lon="7.09946502931416">
        <ele>17.920000000000002</ele>
        <time>2017-06-20T06:40:39Z</time>
      </trkpt>
      <trkpt lat="61.230871025472879" lon="7.099332008510828">
        <ele>17.440000000000001</ele>
        <time>2017-06-20T06:40:40Z</time>
      </trkpt>
      <trkpt lat="61.230812016874552" lon="7.099208040162921">
        <ele>17.440000000000001</ele>
        <time>2017-06-20T06:40:41Z</time>
      </trkpt>
      <trkpt lat="61.230021016672254" lon="7.097551021724939">
        <ele>9.75</ele>
        <time>2017-06-20T06:40:55Z</time>
      </trkpt>
      <trkpt lat="61.229829993098974" lon="7.097217002883554">
        <ele>8.789999999999999</ele>
        <time>2017-06-20T06:40:58Z</time>
      </trkpt>
      <trkpt lat="61.229740977287292" lon="7.097096974030137">
        <ele>8.789999999999999</ele>
        <time>2017-06-20T06:40:59Z</time>
      </trkpt>
      <trkpt lat="61.229654978960752" lon="7.097007958218455">
        <ele>8.789999999999999</ele>
        <time>2017-06-20T06:41:00Z</time>
      </trkpt>
      <trkpt lat="61.229578033089638" lon="7.096950961276889">
        <ele>8.789999999999999</ele>
        <time>2017-06-20T06:41:01Z</time>
      </trkpt>
      <trkpt lat="61.229505026713014" lon="7.096906034275889">
        <ele>8.789999999999999</ele>
        <time>2017-06-20T06:41:02Z</time>
      </trkpt>
      <trkpt lat="61.229144018143415" lon="7.096701012924314">
        <ele>7.83</ele>
        <time>2017-06-20T06:41:08Z</time>
      </trkpt>
      <trkpt lat="61.229104958474636" lon="7.096620965749025">
        <ele>7.83</ele>
        <time>2017-06-20T06:41:09Z</time>
      </trkpt>
      <trkpt lat="61.229082997888327" lon="7.096503032371402">
        <ele>7.35</ele>
        <time>2017-06-20T06:41:10Z</time>
      </trkpt>
      <trkpt lat="61.229080986231565" lon="7.096362970769405">
        <ele>7.35</ele>
        <time>2017-06-20T06:41:11Z</time>
      </trkpt>
      <trkpt lat="61.229095989838243" lon="7.096214024350047">
        <ele>7.35</ele>
        <time>2017-06-20T06:41:12Z</time>
      </trkpt>
      <trkpt lat="61.229116022586823" lon="7.096058037132025">
        <ele>7.35</ele>
        <time>2017-06-20T06:41:13Z</time>
      </trkpt>
      <trkpt lat="61.229166984558105" lon="7.095546992495656">
        <ele>7.83</ele>
        <time>2017-06-20T06:41:16Z</time>
      </trkpt>
      <trkpt lat="61.22917402535677" lon="7.095356974750757">
        <ele>7.83</ele>
        <time>2017-06-20T06:41:17Z</time>
      </trkpt>
      <trkpt lat="61.229090038686991" lon="7.092894036322832">
        <ele>9.75</ele>
        <time>2017-06-20T06:41:28Z</time>
      </trkpt>
      <trkpt lat="61.229086015373468" lon="7.090263962745667">
        <ele>16.48</ele>
        <time>2017-06-20T06:41:37Z</time>
      </trkpt>
      <trkpt lat="61.229419028386474" lon="7.086026994511485">
        <ele>28.5</ele>
        <time>2017-06-20T06:41:51Z</time>
      </trkpt>
      <trkpt lat="61.229694960638881" lon="7.082809014245868">
        <ele>37.630000000000003</ele>
        <time>2017-06-20T06:42:01Z</time>
      </trkpt>
      <trkpt lat="61.230076001957059" lon="7.079502018168569">
        <ele>45.799999999999997</ele>
        <time>2017-06-20T06:42:11Z</time>
      </trkpt>
      <trkpt lat="61.230689976364374" lon="7.074576979503036">
        <ele>57.340000000000003</ele>
        <time>2017-06-20T06:42:25Z</time>
      </trkpt>
      <trkpt lat="61.230885023251176" lon="7.071378026157618">
        <ele>66.950000000000003</ele>
        <time>2017-06-20T06:42:33Z</time>
      </trkpt>
      <trkpt lat="61.231220969930291" lon="7.067825021222234">
        <ele>78.969999999999999</ele>
        <time>2017-06-20T06:42:42Z</time>
      </trkpt>
      <trkpt lat="61.231140000745654" lon="7.062646010890603">
        <ele>95.790000000000006</ele>
        <time>2017-06-20T06:42:55Z</time>
      </trkpt>
      <trkpt lat="61.230984013527632" lon="7.059904960915446">
        <ele>104.92</ele>
        <time>2017-06-20T06:43:02Z</time>
      </trkpt>
      <trkpt lat="61.230763988569379" lon="7.057977961376309">
        <ele>110.20999999999999</ele>
        <time>2017-06-20T06:43:07Z</time>
      </trkpt>
      <trkpt lat="61.230758037418127" lon="7.057587029412389">
        <ele>111.17</ele>
        <time>2017-06-20T06:43:08Z</time>
      </trkpt>
      <trkpt lat="61.230792989954352" lon="7.056778008118272">
        <ele>113.56999999999999</ele>
        <time>2017-06-20T06:43:10Z</time>
      </trkpt>
      <trkpt lat="61.231085015460849" lon="7.053471012040973">
        <ele>123.67</ele>
        <time>2017-06-20T06:43:18Z</time>
      </trkpt>
      <trkpt lat="61.231256006285548" lon="7.051519034430385">
        <ele>127.98999999999999</ele>
        <time>2017-06-20T06:43:23Z</time>
      </trkpt>
      <trkpt lat="61.231336975470185" lon="7.051175041124225">
        <ele>128.94999999999999</ele>
        <time>2017-06-20T06:43:24Z</time>
      </trkpt>
      <trkpt lat="61.231445018202066" lon="7.050836998969317">
        <ele>129.91999999999999</ele>
        <time>2017-06-20T06:43:25Z</time>
      </trkpt>
      <trkpt lat="61.231551971286535" lon="7.050502980127931">
        <ele>130.40000000000001</ele>
        <time>2017-06-20T06:43:26Z</time>
      </trkpt>
      <trkpt lat="61.231676023453474" lon="7.050171978771687">
        <ele>131.36000000000001</ele>
        <time>2017-06-20T06:43:27Z</time>
      </trkpt>
      <trkpt lat="61.232546987012029" lon="7.046987023204565">
        <ele>140.00999999999999</ele>
        <time>2017-06-20T06:43:36Z</time>
      </trkpt>
      <trkpt lat="61.233082003891468" lon="7.042693980038166">
        <ele>144.34</ele>
        <time>2017-06-20T06:43:47Z</time>
      </trkpt>
      <trkpt lat="61.23388297855854" lon="7.040465986356139">
        <ele>148.66</ele>
        <time>2017-06-20T06:43:54Z</time>
      </trkpt>
      <trkpt lat="61.234817979857326" lon="7.039316995069385">
        <ele>154.43000000000001</ele>
        <time>2017-06-20T06:44:00Z</time>
      </trkpt>
      <trkpt lat="61.236167969182134" lon="7.038731016218662">
        <ele>161.16</ele>
        <time>2017-06-20T06:44:08Z</time>
      </trkpt>
      <trkpt lat="61.236725030466914" lon="7.038404960185289">
        <ele>165.47999999999999</ele>
        <time>2017-06-20T06:44:11Z</time>
      </trkpt>
      <trkpt lat="61.236899960786104" lon="7.038217037916184">
        <ele>166.44999999999999</ele>
        <time>2017-06-20T06:44:12Z</time>
      </trkpt>
      <trkpt lat="61.237065000459552" lon="7.038001958280802">
        <ele>167.41</ele>
        <time>2017-06-20T06:44:13Z</time>
      </trkpt>
      <trkpt lat="61.238216003403068" lon="7.036396991461515">
        <ele>176.53999999999999</ele>
        <time>2017-06-20T06:44:20Z</time>
      </trkpt>
      <trkpt lat="61.238401997834444" lon="7.036267993971705">
        <ele>177.97999999999999</ele>
        <time>2017-06-20T06:44:21Z</time>
      </trkpt>
      <trkpt lat="61.238595033064485" lon="7.036163974553347">
        <ele>179.41999999999999</ele>
        <time>2017-06-20T06:44:22Z</time>
      </trkpt>
      <trkpt lat="61.238792007789016" lon="7.036120975390077">
        <ele>180.87</ele>
        <time>2017-06-20T06:44:23Z</time>
      </trkpt>
      <trkpt lat="61.238988982513547" lon="7.036099014803767">
        <ele>182.31</ele>
        <time>2017-06-20T06:44:24Z</time>
      </trkpt>
      <trkpt lat="61.240549022331834" lon="7.036405960097909">
        <ele>194.31999999999999</ele>
        <time>2017-06-20T06:44:32Z</time>
      </trkpt>
      <trkpt lat="61.240744991227984" lon="7.036415012553334">
        <ele>195.77000000000001</ele>
        <time>2017-06-20T06:44:33Z</time>
      </trkpt>
      <trkpt lat="61.240938026458025" lon="7.036386011168361">
        <ele>197.69</ele>
        <time>2017-06-20T06:44:34Z</time>
      </trkpt>
      <trkpt lat="61.241129972040653" lon="7.036317028105259">
        <ele>198.65000000000001</ele>
        <time>2017-06-20T06:44:35Z</time>
      </trkpt>
      <trkpt lat="61.241322001442313" lon="7.036219965666533">
        <ele>200.09</ele>
        <time>2017-06-20T06:44:36Z</time>
      </trkpt>
      <trkpt lat="61.241514030843973" lon="7.036093985661864">
        <ele>201.53</ele>
        <time>2017-06-20T06:44:37Z</time>
      </trkpt>
      <trkpt lat="61.241692984476686" lon="7.035907991230488">
        <ele>202.97999999999999</ele>
        <time>2017-06-20T06:44:38Z</time>
      </trkpt>
      <trkpt lat="61.241866992786527" lon="7.035700958222151">
        <ele>203.94</ele>
        <time>2017-06-20T06:44:39Z</time>
      </trkpt>
      <trkpt lat="61.242032032459974" lon="7.035450004041195">
        <ele>205.86000000000001</ele>
        <time>2017-06-20T06:44:40Z</time>
      </trkpt>
      <trkpt lat="61.242186008021235" lon="7.035173987969756">
        <ele>207.30000000000001</ele>
        <time>2017-06-20T06:44:41Z</time>
      </trkpt>
      <trkpt lat="61.242332020774484" lon="7.034875005483627">
        <ele>208.74000000000001</ele>
        <time>2017-06-20T06:44:42Z</time>
      </trkpt>
      <trkpt lat="61.242473004385829" lon="7.034554984420538">
        <ele>210.66999999999999</ele>
        <time>2017-06-20T06:44:43Z</time>
      </trkpt>
      <trkpt lat="61.243340028449893" lon="7.032853960990906">
        <ele>216.43000000000001</ele>
        <time>2017-06-20T06:44:49Z</time>
      </trkpt>
      <trkpt lat="61.243514958769083" lon="7.032657992094755">
        <ele>217.40000000000001</ele>
        <time>2017-06-20T06:44:50Z</time>
      </trkpt>
      <trkpt lat="61.243705982342362" lon="7.032516002655029">
        <ele>219.31999999999999</ele>
        <time>2017-06-20T06:44:51Z</time>
      </trkpt>
      <trkpt lat="61.243894994258881" lon="7.032392034307122">
        <ele>219.80000000000001</ele>
        <time>2017-06-20T06:44:52Z</time>
      </trkpt>
      <trkpt lat="61.244080988690257" lon="7.032301006838679">
        <ele>219.80000000000001</ele>
        <time>2017-06-20T06:44:53Z</time>
      </trkpt>
      <trkpt lat="61.244276035577059" lon="7.032246021553874">
        <ele>219.80000000000001</ele>
        <time>2017-06-20T06:44:54Z</time>
      </trkpt>
      <trkpt lat="61.244496982544661" lon="7.032312992960215">
        <ele>221.72</ele>
        <time>2017-06-20T06:44:55Z</time>
      </trkpt>
      <trkpt lat="61.244706027209759" lon="7.032365966588259">
        <ele>222.68000000000001</ele>
        <time>2017-06-20T06:44:56Z</time>
      </trkpt>
      <trkpt lat="61.246187025681138" lon="7.032663021236658">
        <ele>229.88999999999999</ele>
        <time>2017-06-20T06:45:03Z</time>
      </trkpt>
      <trkpt lat="61.246400009840727" lon="7.032613987103105">
        <ele>230.84999999999999</ele>
        <time>2017-06-20T06:45:04Z</time>
      </trkpt>
      <trkpt lat="61.248434968292713" lon="7.031467007473111">
        <ele>235.66</ele>
        <time>2017-06-20T06:45:14Z</time>
      </trkpt>
      <trkpt lat="61.249139970168471" lon="7.030730992555618">
        <ele>234.69999999999999</ele>
        <time>2017-06-20T06:45:18Z</time>
      </trkpt>
      <trkpt lat="61.249293023720384" lon="7.030480960384011">
        <ele>233.74000000000001</ele>
        <time>2017-06-20T06:45:19Z</time>
      </trkpt>
      <trkpt lat="61.249429984018207" lon="7.030193964019418">
        <ele>233.25999999999999</ele>
        <time>2017-06-20T06:45:20Z</time>
      </trkpt>
      <trkpt lat="61.249553030356765" lon="7.029884001240134">
        <ele>232.78</ele>
        <time>2017-06-20T06:45:21Z</time>
      </trkpt>
      <trkpt lat="61.249665012583137" lon="7.029550988227129">
        <ele>232.30000000000001</ele>
        <time>2017-06-20T06:45:22Z</time>
      </trkpt>
      <trkpt lat="61.249770959839225" lon="7.029213029891253">
        <ele>231.81</ele>
        <time>2017-06-20T06:45:23Z</time>
      </trkpt>
      <trkpt lat="61.250169016420841" lon="7.027802020311356">
        <ele>229.41</ele>
        <time>2017-06-20T06:45:27Z</time>
      </trkpt>
      <trkpt lat="61.25023297034204" lon="7.02740203589201">
        <ele>228.93000000000001</ele>
        <time>2017-06-20T06:45:28Z</time>
      </trkpt>
      <trkpt lat="61.250282004475594" lon="7.026989981532097">
        <ele>228.44999999999999</ele>
        <time>2017-06-20T06:45:29Z</time>
      </trkpt>
      <trkpt lat="61.25031603500247" lon="7.026580022647977">
        <ele>228.44999999999999</ele>
        <time>2017-06-20T06:45:30Z</time>
      </trkpt>
      <trkpt lat="61.250332966446877" lon="7.026156987994909">
        <ele>228.93000000000001</ele>
        <time>2017-06-20T06:45:31Z</time>
      </trkpt>
      <trkpt lat="61.250331960618496" lon="7.025734959170222">
        <ele>228.93000000000001</ele>
        <time>2017-06-20T06:45:32Z</time>
      </trkpt>
      <trkpt lat="61.250323997810483" lon="7.025321982800961">
        <ele>229.41</ele>
        <time>2017-06-20T06:45:33Z</time>
      </trkpt>
      <trkpt lat="61.250438997521996" lon="7.022644970566034">
        <ele>236.62</ele>
        <time>2017-06-20T06:45:40Z</time>
      </trkpt>
      <trkpt lat="61.251107035204768" lon="7.019077967852354">
        <ele>248.63999999999999</ele>
        <time>2017-06-20T06:45:50Z</time>
      </trkpt>
      <trkpt lat="61.252173967659473" lon="7.014509998261929">
        <ele>263.54000000000002</ele>
        <time>2017-06-20T06:46:03Z</time>
      </trkpt>
      <trkpt lat="61.252373037859797" lon="7.013841038569808">
        <ele>265.94</ele>
        <time>2017-06-20T06:46:05Z</time>
      </trkpt>
      <trkpt lat="61.252496000379324" lon="7.013531997799873">
        <ele>266.89999999999998</ele>
        <time>2017-06-20T06:46:06Z</time>
      </trkpt>
      <trkpt lat="61.252627009525895" lon="7.013243995606899">
        <ele>268.35000000000002</ele>
        <time>2017-06-20T06:46:07Z</time>
      </trkpt>
      <trkpt lat="61.252771010622382" lon="7.01298700645566">
        <ele>269.31</ele>
        <time>2017-06-20T06:46:08Z</time>
      </trkpt>
      <trkpt lat="61.252925992012024" lon="7.012757007032633">
        <ele>269.79000000000002</ele>
        <time>2017-06-20T06:46:09Z</time>
      </trkpt>
      <trkpt lat="61.253092959523201" lon="7.012558020651341">
        <ele>270.75</ele>
        <time>2017-06-20T06:46:10Z</time>
      </trkpt>
      <trkpt lat="61.253270991146564" lon="7.012392980977893">
        <ele>271.70999999999998</ele>
        <time>2017-06-20T06:46:11Z</time>
      </trkpt>
      <trkpt lat="61.253453968092799" lon="7.012265995144844">
        <ele>273.14999999999998</ele>
        <time>2017-06-20T06:46:12Z</time>
      </trkpt>
      <trkpt lat="61.253641974180937" lon="7.012183014303446">
        <ele>274.58999999999997</ele>
        <time>2017-06-20T06:46:13Z</time>
      </trkpt>
      <trkpt lat="61.253832997754216" lon="7.012135991826654">
        <ele>275.56</ele>
        <time>2017-06-20T06:46:14Z</time>
      </trkpt>
      <trkpt lat="61.254024021327496" lon="7.012133980169892">
        <ele>277</ele>
        <time>2017-06-20T06:46:15Z</time>
      </trkpt>
      <trkpt lat="61.254216972738504" lon="7.012163987383246">
        <ele>278.92000000000002</ele>
        <time>2017-06-20T06:46:16Z</time>
      </trkpt>
      <trkpt lat="61.254406990483403" lon="7.012226013466716">
        <ele>280.36000000000001</ele>
        <time>2017-06-20T06:46:17Z</time>
      </trkpt>
      <trkpt lat="61.254588039591908" lon="7.012323997914791">
        <ele>281.80000000000001</ele>
        <time>2017-06-20T06:46:18Z</time>
      </trkpt>
      <trkpt lat="61.254766993224621" lon="7.012458024546504">
        <ele>283.25</ele>
        <time>2017-06-20T06:46:19Z</time>
      </trkpt>
      <trkpt lat="61.254942007362843" lon="7.012618035078049">
        <ele>284.69</ele>
        <time>2017-06-20T06:46:20Z</time>
      </trkpt>
      <trkpt lat="61.255118027329445" lon="7.012797994539142">
        <ele>286.13</ele>
        <time>2017-06-20T06:46:21Z</time>
      </trkpt>
      <trkpt lat="61.255808025598526" lon="7.013430995866656">
        <ele>290.45999999999998</ele>
        <time>2017-06-20T06:46:25Z</time>
      </trkpt>
      <trkpt lat="61.256172973662615" lon="7.013608021661639">
        <ele>292.86000000000001</ele>
        <time>2017-06-20T06:46:27Z</time>
      </trkpt>
      <trkpt lat="61.257778024300933" lon="7.014331966638565">
        <ele>304.88</ele>
        <time>2017-06-20T06:46:36Z</time>
      </trkpt>
      <trkpt lat="61.258580004796386" lon="7.015292029827833">
        <ele>312.08999999999997</ele>
        <time>2017-06-20T06:46:43Z</time>
      </trkpt>
      <trkpt lat="61.258913017809391" lon="7.015786981210113">
        <ele>315.93000000000001</ele>
        <time>2017-06-20T06:46:48Z</time>
      </trkpt>
      <trkpt lat="61.259066993370652" lon="7.015955038368702">
        <ele>316.41000000000003</ele>
        <time>2017-06-20T06:46:51Z</time>
      </trkpt>
      <trkpt lat="61.25919003970921" lon="7.0161899831146">
        <ele>318.32999999999998</ele>
        <time>2017-06-20T06:47:00Z</time>
      </trkpt>
      <trkpt lat="61.259325994178653" lon="7.016482008621097">
        <ele>320.74000000000001</ele>
        <time>2017-06-20T06:47:07Z</time>
      </trkpt>
      <trkpt lat="61.259425990283489" lon="7.016531964763999">
        <ele>320.74000000000001</ele>
        <time>2017-06-20T06:47:13Z</time>
      </trkpt>
      <trkpt lat="61.259434036910534" lon="7.016559960320592">
        <ele>320.74000000000001</ele>
        <time>2017-06-20T06:47:14Z</time>
      </trkpt>
      <trkpt lat="61.259439988061786" lon="7.016598014160991">
        <ele>321.22000000000003</ele>
        <time>2017-06-20T06:47:15Z</time>
      </trkpt>
      <trkpt lat="61.259434958919883" lon="7.016606982797384">
        <ele>319.30000000000001</ele>
        <time>2017-06-20T06:47:28Z</time>
      </trkpt>
      <trkpt lat="61.259437976405025" lon="7.016607988625765">
        <ele>319.30000000000001</ele>
        <time>2017-06-20T06:49:35Z</time>
      </trkpt>
      <trkpt lat="61.259437976405025" lon="7.016608994454145">
        <ele>319.30000000000001</ele>
        <time>2017-06-20T06:51:15Z</time>
      </trkpt>
      <trkpt lat="61.259464966133237" lon="7.016766993328929">
        <ele>319.77999999999997</ele>
        <time>2017-06-20T06:51:34Z</time>
      </trkpt>
      <trkpt lat="61.25951400026679" lon="7.016876041889191">
        <ele>321.69999999999999</ele>
        <time>2017-06-20T06:51:35Z</time>
      </trkpt>
      <trkpt lat="61.259587006643414" lon="7.016990035772324">
        <ele>322.18000000000001</ele>
        <time>2017-06-20T06:51:36Z</time>
      </trkpt>
      <trkpt lat="61.259664036333561" lon="7.017085002735257">
        <ele>322.66000000000003</ele>
        <time>2017-06-20T06:51:37Z</time>
      </trkpt>
      <trkpt lat="61.259737964719534" lon="7.017169995233417">
        <ele>323.13999999999999</ele>
        <time>2017-06-20T06:51:38Z</time>
      </trkpt>
      <trkpt lat="61.260601971298456" lon="7.017762009054422">
        <ele>328.91000000000003</ele>
        <time>2017-06-20T06:51:47Z</time>
      </trkpt>
      <trkpt lat="61.261408980935812" lon="7.017691014334559">
        <ele>330.35000000000002</ele>
        <time>2017-06-20T06:51:53Z</time>
      </trkpt>
      <trkpt lat="61.261562034487724" lon="7.017595963552594">
        <ele>331.31</ele>
        <time>2017-06-20T06:51:54Z</time>
      </trkpt>
      <trkpt lat="61.263254005461931" lon="7.016471028327942">
        <ele>340.44</ele>
        <time>2017-06-20T06:52:04Z</time>
      </trkpt>
      <trkpt lat="61.264897026121616" lon="7.014989024028182">
        <ele>350.54000000000002</ele>
        <time>2017-06-20T06:52:13Z</time>
      </trkpt>
      <trkpt lat="61.267177993431687" lon="7.012243028730154">
        <ele>366.39999999999998</ele>
        <time>2017-06-20T06:52:26Z</time>
      </trkpt>
      <trkpt lat="61.26870702020824" lon="7.011344991624355">
        <ele>376.97000000000003</ele>
        <time>2017-06-20T06:52:34Z</time>
      </trkpt>
      <trkpt lat="61.270205033943057" lon="7.010009000077844">
        <ele>387.06999999999999</ele>
        <time>2017-06-20T06:52:42Z</time>
      </trkpt>
      <trkpt lat="61.271703969687223" lon="7.008533030748367">
        <ele>389.94999999999999</ele>
        <time>2017-06-20T06:52:50Z</time>
      </trkpt>
      <trkpt lat="61.273227967321873" lon="7.007728032767773">
        <ele>386.58999999999997</ele>
        <time>2017-06-20T06:52:58Z</time>
      </trkpt>
      <trkpt lat="61.274357009679079" lon="7.006151983514428">
        <ele>384.66000000000003</ele>
        <time>2017-06-20T06:53:05Z</time>
      </trkpt>
      <trkpt lat="61.275705993175507" lon="7.004964016377926">
        <ele>381.30000000000001</ele>
        <time>2017-06-20T06:53:13Z</time>
      </trkpt>
      <trkpt lat="61.276908041909337" lon="7.003431972116232">
        <ele>379.86000000000001</ele>
        <time>2017-06-20T06:53:21Z</time>
      </trkpt>
      <trkpt lat="61.278214026242495" lon="7.002046024426818">
        <ele>381.30000000000001</ele>
        <time>2017-06-20T06:53:29Z</time>
      </trkpt>
      <trkpt lat="61.279576001688838" lon="7.001876961439848">
        <ele>381.77999999999997</ele>
        <time>2017-06-20T06:53:37Z</time>
      </trkpt>
      <trkpt lat="61.280241021886468" lon="7.00194301083684">
        <ele>383.22000000000003</ele>
        <time>2017-06-20T06:53:41Z</time>
      </trkpt>
      <trkpt lat="61.280411006882787" lon="7.001907974481583">
        <ele>383.69999999999999</ele>
        <time>2017-06-20T06:53:42Z</time>
      </trkpt>
      <trkpt lat="61.281637027859688" lon="7.001182017847896">
        <ele>386.11000000000001</ele>
        <time>2017-06-20T06:53:49Z</time>
      </trkpt>
      <trkpt lat="61.282898001372814" lon="7.000845987349749">
        <ele>392.36000000000001</ele>
        <time>2017-06-20T06:53:56Z</time>
      </trkpt>
      <trkpt lat="61.284512020647526" lon="7.000738028436899">
        <ele>397.63999999999999</ele>
        <time>2017-06-20T06:54:05Z</time>
      </trkpt>
      <trkpt lat="61.285656988620758" lon="6.999456016346812">
        <ele>401.00999999999999</ele>
        <time>2017-06-20T06:54:12Z</time>
      </trkpt>
      <trkpt lat="61.286839004606009" lon="6.997140012681484">
        <ele>401.00999999999999</ele>
        <time>2017-06-20T06:54:21Z</time>
      </trkpt>
      <trkpt lat="61.288051027804613" lon="6.996253961697221">
        <ele>404.85000000000002</ele>
        <time>2017-06-20T06:54:28Z</time>
      </trkpt>
      <trkpt lat="61.289322981610894" lon="6.996618993580341">
        <ele>410.13999999999999</ele>
        <time>2017-06-20T06:54:35Z</time>
      </trkpt>
      <trkpt lat="61.290401984006166" lon="6.998063027858734">
        <ele>416.87</ele>
        <time>2017-06-20T06:54:42Z</time>
      </trkpt>
      <trkpt lat="61.291994964703918" lon="7.000929974019527">
        <ele>419.75</ele>
        <time>2017-06-20T06:54:53Z</time>
      </trkpt>
      <trkpt lat="61.293409997597337" lon="7.002234030514956">
        <ele>414.94999999999999</ele>
        <time>2017-06-20T06:55:01Z</time>
      </trkpt>
      <trkpt lat="61.295663975179195" lon="7.003024024888873">
        <ele>411.10000000000002</ele>
        <time>2017-06-20T06:55:13Z</time>
      </trkpt>
      <trkpt lat="61.297762971371412" lon="7.002762006595731">
        <ele>412.54000000000002</ele>
        <time>2017-06-20T06:55:24Z</time>
      </trkpt>
      <trkpt lat="61.29979801364243" lon="7.001549983397126">
        <ele>418.31</ele>
        <time>2017-06-20T06:55:35Z</time>
      </trkpt>
      <trkpt lat="61.302316021174192" lon="6.999209001660347">
        <ele>426.95999999999998</ele>
        <time>2017-06-20T06:55:49Z</time>
      </trkpt>
      <trkpt lat="61.305339960381389" lon="6.997082009911537">
        <ele>430.32999999999998</ele>
        <time>2017-06-20T06:56:05Z</time>
      </trkpt>
      <trkpt lat="61.309174010530114" lon="6.995086027309299">
        <ele>429.85000000000002</ele>
        <time>2017-06-20T06:56:25Z</time>
      </trkpt>
      <trkpt lat="61.31221697665751" lon="6.992978984490037">
        <ele>428.88999999999999</ele>
        <time>2017-06-20T06:56:42Z</time>
      </trkpt>
      <trkpt lat="61.314520994201303" lon="6.990561978891492">
        <ele>426.95999999999998</ele>
        <time>2017-06-20T06:56:56Z</time>
      </trkpt>
      <trkpt lat="61.315426994115114" lon="6.989365965127945">
        <ele>426</ele>
        <time>2017-06-20T06:57:04Z</time>
      </trkpt>
      <trkpt lat="61.31672702729702" lon="6.987396972253919">
        <ele>425.04000000000002</ele>
        <time>2017-06-20T06:57:14Z</time>
      </trkpt>
      <trkpt lat="61.317333960905671" lon="6.986362980678678">
        <ele>423.60000000000002</ele>
        <time>2017-06-20T06:57:21Z</time>
      </trkpt>
      <trkpt lat="61.3183409627527" lon="6.984534971415997">
        <ele>419.26999999999998</ele>
        <time>2017-06-20T06:57:30Z</time>
      </trkpt>
      <trkpt lat="61.319841993972659" lon="6.981523018330336">
        <ele>412.06</ele>
        <time>2017-06-20T06:57:42Z</time>
      </trkpt>
      <trkpt lat="61.320356978103518" lon="6.980180991813541">
        <ele>409.18000000000001</ele>
        <time>2017-06-20T06:57:48Z</time>
      </trkpt>
      <trkpt lat="61.320642968639731" lon="6.979086985811591">
        <ele>405.81</ele>
        <time>2017-06-20T06:57:56Z</time>
      </trkpt>
      <trkpt lat="61.321084024384618" lon="6.977055966854096">
        <ele>405.81</ele>
        <time>2017-06-20T06:58:04Z</time>
      </trkpt>
      <trkpt lat="61.32149700075388" lon="6.973435990512371">
        <ele>405.81</ele>
        <time>2017-06-20T06:58:15Z</time>
      </trkpt>
      <trkpt lat="61.321831019595265" lon="6.968816975131631">
        <ele>402.44999999999999</ele>
        <time>2017-06-20T06:58:28Z</time>
      </trkpt>
      <trkpt lat="61.322139976546168" lon="6.964234001934528">
        <ele>403.88999999999999</ele>
        <time>2017-06-20T06:58:40Z</time>
      </trkpt>
      <trkpt lat="61.322136037051678" lon="6.956413015723229">
        <ele>412.54000000000002</ele>
        <time>2017-06-20T06:58:59Z</time>
      </trkpt>
      <trkpt lat="61.321868989616632" lon="6.951353028416634">
        <ele>420.23000000000002</ele>
        <time>2017-06-20T06:59:11Z</time>
      </trkpt>
      <trkpt lat="61.321959011256695" lon="6.944294041022658">
        <ele>430.32999999999998</ele>
        <time>2017-06-20T06:59:28Z</time>
      </trkpt>
      <trkpt lat="61.32240098901093" lon="6.93974400870502">
        <ele>431.76999999999998</ele>
        <time>2017-06-20T06:59:39Z</time>
      </trkpt>
      <trkpt lat="61.323141027241945" lon="6.934630963951349">
        <ele>429.37</ele>
        <time>2017-06-20T06:59:52Z</time>
      </trkpt>
      <trkpt lat="61.323307994753122" lon="6.93052601069212">
        <ele>424.56</ele>
        <time>2017-06-20T07:00:02Z</time>
      </trkpt>
      <trkpt lat="61.323621980845928" lon="6.928182011470199">
        <ele>420.70999999999998</ele>
        <time>2017-06-20T07:00:08Z</time>
      </trkpt>
      <trkpt lat="61.324310973286629" lon="6.926393983885646">
        <ele>421.19</ele>
        <time>2017-06-20T07:00:14Z</time>
      </trkpt>
      <trkpt lat="61.325435992330313" lon="6.925151031464338">
        <ele>425.04000000000002</ele>
        <time>2017-06-20T07:00:21Z</time>
      </trkpt>
      <trkpt lat="61.326812971383333" lon="6.925077019259334">
        <ele>430.32999999999998</ele>
        <time>2017-06-20T07:00:28Z</time>
      </trkpt>
      <trkpt lat="61.329290997236967" lon="6.925449008122087">
        <ele>435.61000000000001</ele>
        <time>2017-06-20T07:00:40Z</time>
      </trkpt>
      <trkpt lat="61.330725979059935" lon="6.924411999061704">
        <ele>429.37</ele>
        <time>2017-06-20T07:00:47Z</time>
      </trkpt>
      <trkpt lat="61.332274032756686" lon="6.923986030742526">
        <ele>422.63999999999999</ele>
        <time>2017-06-20T07:00:54Z</time>
      </trkpt>
      <trkpt lat="61.334652984514832" lon="6.923067038878799">
        <ele>413.01999999999998</ele>
        <time>2017-06-20T07:01:05Z</time>
      </trkpt>
      <trkpt lat="61.336627006530762" lon="6.921129981055856">
        <ele>405.81</ele>
        <time>2017-06-20T07:01:15Z</time>
      </trkpt>
      <trkpt lat="61.338678980246186" lon="6.91875396296382">
        <ele>401.97000000000003</ele>
        <time>2017-06-20T07:01:26Z</time>
      </trkpt>
      <trkpt lat="61.340674040839076" lon="6.91748502664268">
        <ele>414.94999999999999</ele>
        <time>2017-06-20T07:01:36Z</time>
      </trkpt>
      <trkpt lat="61.341936020180583" lon="6.916077034547925">
        <ele>425.51999999999998</ele>
        <time>2017-06-20T07:01:43Z</time>
      </trkpt>
      <trkpt lat="61.342830033972859" lon="6.914068982005119">
        <ele>434.64999999999998</ele>
        <time>2017-06-20T07:01:50Z</time>
      </trkpt>
      <trkpt lat="61.343426993116736" lon="6.911356011405587">
        <ele>445.23000000000002</ele>
        <time>2017-06-20T07:01:58Z</time>
      </trkpt>
      <trkpt lat="61.343937031924725" lon="6.908406000584364">
        <ele>454.36000000000001</ele>
        <time>2017-06-20T07:02:08Z</time>
      </trkpt>
      <trkpt lat="61.344683021306992" lon="6.906385039910674">
        <ele>463.49000000000001</ele>
        <time>2017-06-20T07:02:17Z</time>
      </trkpt>
      <trkpt lat="61.345709972083569" lon="6.903693024069071">
        <ele>474.06999999999999</ele>
        <time>2017-06-20T07:02:28Z</time>
      </trkpt>
      <trkpt lat="61.346192015334964" lon="6.901020035147667">
        <ele>477.43000000000001</ele>
        <time>2017-06-20T07:02:37Z</time>
      </trkpt>
      <trkpt lat="61.346494015306234" lon="6.898808972910047">
        <ele>476.47000000000003</ele>
        <time>2017-06-20T07:02:47Z</time>
      </trkpt>
      <trkpt lat="61.346746981143951" lon="6.89726603217423">
        <ele>478.87</ele>
        <time>2017-06-20T07:02:58Z</time>
      </trkpt>
      <trkpt lat="61.346843959763646" lon="6.896777031943202">
        <ele>481.75999999999999</ele>
        <time>2017-06-20T07:03:07Z</time>
      </trkpt>
      <trkpt lat="61.346838008612394" lon="6.896783988922834">
        <ele>481.75999999999999</ele>
        <time>2017-06-20T07:04:56Z</time>
      </trkpt>
      <trkpt lat="61.346837002784014" lon="6.896745013073087">
        <ele>481.75999999999999</ele>
        <time>2017-06-20T07:05:10Z</time>
      </trkpt>
      <trkpt lat="61.346862986683846" lon="6.896281996741891">
        <ele>482.72000000000003</ele>
        <time>2017-06-20T07:05:14Z</time>
      </trkpt>
      <trkpt lat="61.347034983336926" lon="6.894085016101599">
        <ele>488.00999999999999</ele>
        <time>2017-06-20T07:05:26Z</time>
      </trkpt>
      <trkpt lat="61.346941022202373" lon="6.891716960817576">
        <ele>493.29000000000002</ele>
        <time>2017-06-20T07:05:39Z</time>
      </trkpt>
      <trkpt lat="61.346858041360974" lon="6.890161028131843">
        <ele>496.18000000000001</ele>
        <time>2017-06-20T07:05:49Z</time>
      </trkpt>
      <trkpt lat="61.346896011382341" lon="6.887501031160355">
        <ele>501.45999999999998</ele>
        <time>2017-06-20T07:05:59Z</time>
      </trkpt>
      <trkpt lat="61.34712902829051" lon="6.88373495824635">
        <ele>508.19</ele>
        <time>2017-06-20T07:06:10Z</time>
      </trkpt>
      <trkpt lat="61.347197005525231" lon="6.878644963726401">
        <ele>516.85000000000002</ele>
        <time>2017-06-20T07:06:24Z</time>
      </trkpt>
      <trkpt lat="61.347410995513201" lon="6.874286960810423">
        <ele>522.13</ele>
        <time>2017-06-20T07:06:37Z</time>
      </trkpt>
      <trkpt lat="61.379742007702589" lon="6.767148971557617">
        <ele>219.80000000000001</ele>
        <time>2017-06-20T07:11:58Z</time>
      </trkpt>
      <trkpt lat="61.379752987995744" lon="6.767017040401697">
        <ele>214.99000000000001</ele>
        <time>2017-06-20T07:11:59Z</time>
      </trkpt>
      <trkpt lat="61.379770003259182" lon="6.766799027100205">
        <ele>213.55000000000001</ele>
        <time>2017-06-20T07:12:00Z</time>
      </trkpt>
      <trkpt lat="61.379753993824124" lon="6.764656025916338">
        <ele>199.13</ele>
        <time>2017-06-20T07:12:12Z</time>
      </trkpt>
      <trkpt lat="61.379721974954009" lon="6.763310981914401">
        <ele>197.69</ele>
        <time>2017-06-20T07:12:24Z</time>
      </trkpt>
      <trkpt lat="61.379752987995744" lon="6.762489974498749">
        <ele>195.77000000000001</ele>
        <time>2017-06-20T07:12:32Z</time>
      </trkpt>
      <trkpt lat="61.379819959402084" lon="6.761984964832664">
        <ele>194.80000000000001</ele>
        <time>2017-06-20T07:12:36Z</time>
      </trkpt>
      <trkpt lat="61.379986004903913" lon="6.760924989357591">
        <ele>192.88</ele>
        <time>2017-06-20T07:12:46Z</time>
      </trkpt>
      <trkpt lat="61.380398981273174" lon="6.759507022798061">
        <ele>189.03999999999999</ele>
        <time>2017-06-20T07:12:55Z</time>
      </trkpt>
      <trkpt lat="61.381307998672128" lon="6.758000962436199">
        <ele>182.78999999999999</ele>
        <time>2017-06-20T07:13:05Z</time>
      </trkpt>
      <trkpt lat="61.382492026314139" lon="6.757365027442575">
        <ele>175.58000000000001</ele>
        <time>2017-06-20T07:13:13Z</time>
      </trkpt>
      <trkpt lat="61.383645962923765" lon="6.757684964686632">
        <ele>168.37</ele>
        <time>2017-06-20T07:13:21Z</time>
      </trkpt>
      <trkpt lat="61.40664397738874" lon="6.759643983095884">
        <ele>97.709999999999994</ele>
        <time>2017-06-20T07:15:12Z</time>
      </trkpt>
      <trkpt lat="61.408411972224712" lon="6.759486990049481">
        <ele>63.579999999999998</ele>
        <time>2017-06-20T07:15:21Z</time>
      </trkpt>
      <trkpt lat="61.410692017525434" lon="6.759940031915903">
        <ele>25.609999999999999</ele>
        <time>2017-06-20T07:15:32Z</time>
      </trkpt>
      <trkpt lat="61.412663022056222" lon="6.76094301044941">
        <ele>14.56</ele>
        <time>2017-06-20T07:15:42Z</time>
      </trkpt>
      <trkpt lat="61.414667973294854" lon="6.762194009497762">
        <ele>10.23</ele>
        <time>2017-06-20T07:15:53Z</time>
      </trkpt>
      <trkpt lat="61.414849022403359" lon="6.762225022539496">
        <ele>10.23</ele>
        <time>2017-06-20T07:15:54Z</time>
      </trkpt>
      <trkpt lat="61.41637503169477" lon="6.761984964832664">
        <ele>9.75</ele>
        <time>2017-06-20T07:16:02Z</time>
      </trkpt>
      <trkpt lat="61.418744008988142" lon="6.761511974036694">
        <ele>1.58</ele>
        <time>2017-06-20T07:16:14Z</time>
      </trkpt>
      <trkpt lat="61.419862993061543" lon="6.762317977845669">
        <ele>0.14</ele>
        <time>2017-06-20T07:16:20Z</time>
      </trkpt>
      <trkpt lat="61.421095971018076" lon="6.764342961832881">
        <ele>1.1</ele>
        <time>2017-06-20T07:16:28Z</time>
      </trkpt>
      <trkpt lat="61.422287039458752" lon="6.765334960073233">
        <ele>1.58</ele>
        <time>2017-06-20T07:16:35Z</time>
      </trkpt>
      <trkpt lat="61.423927964642644" lon="6.765515003353357">
        <ele>1.58</ele>
        <time>2017-06-20T07:16:44Z</time>
      </trkpt>
      <trkpt lat="61.426003994420171" lon="6.764835985377431">
        <ele>3.02</ele>
        <time>2017-06-20T07:16:55Z</time>
      </trkpt>
      <trkpt lat="61.427912972867489" lon="6.76416702568531">
        <ele>4.46</ele>
        <time>2017-06-20T07:17:05Z</time>
      </trkpt>
      <trkpt lat="61.430312963202596" lon="6.764952996745706">
        <ele>4.94</ele>
        <time>2017-06-20T07:17:17Z</time>
      </trkpt>
      <trkpt lat="61.432321015745401" lon="6.764885019510984">
        <ele>4.94</ele>
        <time>2017-06-20T07:17:27Z</time>
      </trkpt>
      <trkpt lat="61.435355013236403" lon="6.764845959842205">
        <ele>7.35</ele>
        <time>2017-06-20T07:17:42Z</time>
      </trkpt>
      <trkpt lat="61.436696033924818" lon="6.764178005978465">
        <ele>7.83</ele>
        <time>2017-06-20T07:17:49Z</time>
      </trkpt>
      <trkpt lat="61.437827004119754" lon="6.762399030849338">
        <ele>9.27</ele>
        <time>2017-06-20T07:17:56Z</time>
      </trkpt>
      <trkpt lat="61.437943009659648" lon="6.762060988694429">
        <ele>8.789999999999999</ele>
        <time>2017-06-20T07:17:57Z</time>
      </trkpt>
      <trkpt lat="61.438041999936104" lon="6.761699980124831">
        <ele>9.27</ele>
        <time>2017-06-20T07:17:58Z</time>
      </trkpt>
      <trkpt lat="61.438123974949121" lon="6.761326985433698">
        <ele>9.27</ele>
        <time>2017-06-20T07:17:59Z</time>
      </trkpt>
      <trkpt lat="61.438192036002874" lon="6.760939992964268">
        <ele>9.75</ele>
        <time>2017-06-20T07:18:00Z</time>
      </trkpt>
      <trkpt lat="61.438254984095693" lon="6.760541014373303">
        <ele>9.75</ele>
        <time>2017-06-20T07:18:01Z</time>
      </trkpt>
      <trkpt lat="61.439104992896318" lon="6.755862990394235">
        <ele>11.19</ele>
        <time>2017-06-20T07:18:13Z</time>
      </trkpt>
      <trkpt lat="61.439766995608807" lon="6.753829037770629">
        <ele>12.15</ele>
        <time>2017-06-20T07:18:19Z</time>
      </trkpt>
      <trkpt lat="61.439898004755378" lon="6.753524020314217">
        <ele>12.630000000000001</ele>
        <time>2017-06-20T07:18:20Z</time>
      </trkpt>
      <trkpt lat="61.440046029165387" lon="6.753253033384681">
        <ele>12.630000000000001</ele>
        <time>2017-06-20T07:18:21Z</time>
      </trkpt>
      <trkpt lat="61.441978979855776" lon="6.750515000894666">
        <ele>14.56</ele>
        <time>2017-06-20T07:18:33Z</time>
      </trkpt>
      <trkpt lat="61.443255040794611" lon="6.749841012060642">
        <ele>17.440000000000001</ele>
        <time>2017-06-20T07:18:40Z</time>
      </trkpt>
      <trkpt lat="61.444616010412574" lon="6.748697971925139">
        <ele>23.210000000000001</ele>
        <time>2017-06-20T07:18:48Z</time>
      </trkpt>
      <trkpt lat="61.445762990042567" lon="6.746503002941608">
        <ele>25.129999999999999</ele>
        <time>2017-06-20T07:18:56Z</time>
      </trkpt>
      <trkpt lat="61.446935031563044" lon="6.743975020945072">
        <ele>32.340000000000003</ele>
        <time>2017-06-20T07:19:05Z</time>
      </trkpt>
      <trkpt lat="61.448268005624413" lon="6.74270398914814">
        <ele>39.07</ele>
        <time>2017-06-20T07:19:13Z</time>
      </trkpt>
      <trkpt lat="61.44952897913754" lon="6.741507975384593">
        <ele>45.799999999999997</ele>
        <time>2017-06-20T07:19:21Z</time>
      </trkpt>
      <trkpt lat="61.449686978012323" lon="6.74141300842166">
        <ele>47.240000000000002</ele>
        <time>2017-06-20T07:19:22Z</time>
      </trkpt>
      <trkpt lat="61.449844976887107" lon="6.741353999823332">
        <ele>48.200000000000003</ele>
        <time>2017-06-20T07:19:23Z</time>
      </trkpt>
      <trkpt lat="61.450004987418652" lon="6.741332039237022">
        <ele>49.159999999999997</ele>
        <time>2017-06-20T07:19:24Z</time>
      </trkpt>
      <trkpt lat="61.450161980465055" lon="6.741348970681429">
        <ele>50.609999999999999</ele>
        <time>2017-06-20T07:19:25Z</time>
      </trkpt>
      <trkpt lat="61.450321990996599" lon="6.741386018693447">
        <ele>51.57</ele>
        <time>2017-06-20T07:19:26Z</time>
      </trkpt>
      <trkpt lat="61.450484013184905" lon="6.741433041170239">
        <ele>52.049999999999997</ele>
        <time>2017-06-20T07:19:27Z</time>
      </trkpt>
      <trkpt lat="61.451279958710074" lon="6.741718025878072">
        <ele>55.890000000000001</ele>
        <time>2017-06-20T07:19:32Z</time>
      </trkpt>
      <trkpt lat="61.451437035575509" lon="6.741721965372562">
        <ele>56.859999999999999</ele>
        <time>2017-06-20T07:19:33Z</time>
      </trkpt>
      <trkpt lat="61.45159101113677" lon="6.74169497564435">
        <ele>57.340000000000003</ele>
        <time>2017-06-20T07:19:34Z</time>
      </trkpt>
      <trkpt lat="61.451745992526412" lon="6.741635967046022">
        <ele>57.82</ele>
        <time>2017-06-20T07:19:35Z</time>
      </trkpt>
      <trkpt lat="61.451897034421563" lon="6.741554997861385">
        <ele>58.299999999999997</ele>
        <time>2017-06-20T07:19:36Z</time>
      </trkpt>
      <trkpt lat="61.45204396918416" lon="6.741458019241691">
        <ele>59.259999999999998</ele>
        <time>2017-06-20T07:19:37Z</time>
      </trkpt>
      <trkpt lat="61.452185958623886" lon="6.741342013701797">
        <ele>60.219999999999999</ele>
        <time>2017-06-20T07:19:38Z</time>
      </trkpt>
      <trkpt lat="61.453784974291921" lon="6.740223029628396">
        <ele>64.549999999999997</ele>
        <time>2017-06-20T07:19:49Z</time>
      </trkpt>
      <trkpt lat="61.455605020746589" lon="6.73986503854394">
        <ele>71.760000000000005</ele>
        <time>2017-06-20T07:20:00Z</time>
      </trkpt>
      <trkpt lat="61.456114975735545" lon="6.739894039928913">
        <ele>73.200000000000003</ele>
        <time>2017-06-20T07:20:03Z</time>
      </trkpt>
      <trkpt lat="61.458106013014913" lon="6.740423021838069">
        <ele>75.120000000000005</ele>
        <time>2017-06-20T07:20:14Z</time>
      </trkpt>
      <trkpt lat="61.460050027817488" lon="6.741014029830694">
        <ele>78.969999999999999</ele>
        <time>2017-06-20T07:20:24Z</time>
      </trkpt>
      <trkpt lat="61.461835037916899" lon="6.740804985165596">
        <ele>86.180000000000007</ele>
        <time>2017-06-20T07:20:34Z</time>
      </trkpt>
      <trkpt lat="61.462837010622025" lon="6.73995497636497">
        <ele>90.980000000000004</ele>
        <time>2017-06-20T07:20:39Z</time>
      </trkpt>
      <trkpt lat="61.463566990569234" lon="6.739408979192376">
        <ele>92.900000000000006</ele>
        <time>2017-06-20T07:20:43Z</time>
      </trkpt>
      <trkpt lat="61.463749967515469" lon="6.739359023049474">
        <ele>93.390000000000001</ele>
        <time>2017-06-20T07:20:44Z</time>
      </trkpt>
      <trkpt lat="61.463935039937496" lon="6.739339996129274">
        <ele>94.349999999999994</ele>
        <time>2017-06-20T07:20:45Z</time>
      </trkpt>
      <trkpt lat="61.46411600522697" lon="6.739375032484531">
        <ele>95.310000000000002</ele>
        <time>2017-06-20T07:20:46Z</time>
      </trkpt>
      <trkpt lat="61.464294036850333" lon="6.739451978355646">
        <ele>95.790000000000006</ele>
        <time>2017-06-20T07:20:47Z</time>
      </trkpt>
      <trkpt lat="61.464467961341143" lon="6.739552980288863">
        <ele>96.75</ele>
        <time>2017-06-20T07:20:48Z</time>
      </trkpt>
      <trkpt lat="61.46463199518621" lon="6.739693963900209">
        <ele>97.709999999999994</ele>
        <time>2017-06-20T07:20:49Z</time>
      </trkpt>
      <trkpt lat="61.464789994060993" lon="6.739862021058798">
        <ele>98.189999999999998</ele>
        <time>2017-06-20T07:20:50Z</time>
      </trkpt>
      <trkpt lat="61.464943969622254" lon="6.740058995783329">
        <ele>98.670000000000002</ele>
        <time>2017-06-20T07:20:51Z</time>
      </trkpt>
      <trkpt lat="61.465096017345786" lon="6.740269968286157">
        <ele>99.629999999999995</ele>
        <time>2017-06-20T07:20:52Z</time>
      </trkpt>
      <trkpt lat="61.466197986155748" lon="6.741730011999607">
        <ele>103.95999999999999</ele>
        <time>2017-06-20T07:20:59Z</time>
      </trkpt>
      <trkpt lat="61.467340020462871" lon="6.742106024175882">
        <ele>108.77</ele>
        <time>2017-06-20T07:21:05Z</time>
      </trkpt>
      <trkpt lat="61.468861000612378" lon="6.741513004526496">
        <ele>113.09</ele>
        <time>2017-06-20T07:21:13Z</time>
      </trkpt>
      <trkpt lat="61.471297033131123" lon="6.740409024059773">
        <ele>124.15000000000001</ele>
        <time>2017-06-20T07:21:26Z</time>
      </trkpt>
      <trkpt lat="61.472439989447594" lon="6.74029603600502">
        <ele>131.36000000000001</ele>
        <time>2017-06-20T07:21:33Z</time>
      </trkpt>
      <trkpt lat="61.4737209957093" lon="6.740729967132211">
        <ele>138.09</ele>
        <time>2017-06-20T07:21:42Z</time>
      </trkpt>
      <trkpt lat="61.473861979320645" lon="6.74087698571384">
        <ele>139.05000000000001</ele>
        <time>2017-06-20T07:21:43Z</time>
      </trkpt>
      <trkpt lat="61.474002962931991" lon="6.741044037044048">
        <ele>139.53</ele>
        <time>2017-06-20T07:21:44Z</time>
      </trkpt>
      <trkpt lat="61.474136989563704" lon="6.741251992061734">
        <ele>140.00999999999999</ele>
        <time>2017-06-20T07:21:45Z</time>
      </trkpt>
      <trkpt lat="61.47533199749887" lon="6.743677966296673">
        <ele>142.88999999999999</ele>
        <time>2017-06-20T07:21:54Z</time>
      </trkpt>
      <trkpt lat="61.476604035124183" lon="6.74536800943315">
        <ele>140.97</ele>
        <time>2017-06-20T07:22:02Z</time>
      </trkpt>
      <trkpt lat="61.477826032787561" lon="6.745924986898899">
        <ele>140.00999999999999</ele>
        <time>2017-06-20T07:22:09Z</time>
      </trkpt>
      <trkpt lat="61.479024980217218" lon="6.745484014973044">
        <ele>140.97</ele>
        <time>2017-06-20T07:22:16Z</time>
      </trkpt>
      <trkpt lat="61.479633003473282" lon="6.744837015867233">
        <ele>142.88999999999999</ele>
        <time>2017-06-20T07:22:22Z</time>
      </trkpt>
      <trkpt lat="61.479752026498318" lon="6.744696032255888">
        <ele>143.37</ele>
        <time>2017-06-20T07:22:24Z</time>
      </trkpt>
      <trkpt lat="61.479798965156078" lon="6.744663007557392">
        <ele>143.37</ele>
        <time>2017-06-20T07:22:25Z</time>
      </trkpt>
      <trkpt lat="61.479836013168097" lon="6.744655966758728">
        <ele>143.84999999999999</ele>
        <time>2017-06-20T07:22:26Z</time>
      </trkpt>
      <trkpt lat="61.479866020381451" lon="6.74468002282083">
        <ele>144.34</ele>
        <time>2017-06-20T07:22:27Z</time>
      </trkpt>
      <trkpt lat="61.479888986796141" lon="6.744698965921998">
        <ele>144.34</ele>
        <time>2017-06-20T07:22:28Z</time>
      </trkpt>
      <trkpt lat="61.479906002059579" lon="6.744725033640862">
        <ele>144.81999999999999</ele>
        <time>2017-06-20T07:22:29Z</time>
      </trkpt>
      <trkpt lat="61.479926034808159" lon="6.744764009490609">
        <ele>144.81999999999999</ele>
        <time>2017-06-20T07:22:39Z</time>
      </trkpt>
      <trkpt lat="61.479943972080946" lon="6.744785970076919">
        <ele>145.78</ele>
        <time>2017-06-20T07:23:19Z</time>
      </trkpt>
      <trkpt lat="61.479937015101314" lon="6.744760992005467">
        <ele>145.30000000000001</ele>
        <time>2017-06-20T07:23:42Z</time>
      </trkpt>
      <trkpt lat="61.479981020092964" lon="6.744782030582428">
        <ele>146.25999999999999</ele>
        <time>2017-06-20T07:24:01Z</time>
      </trkpt>
      <trkpt lat="61.479985965415835" lon="6.744783036410809">
        <ele>146.25999999999999</ele>
        <time>2017-06-20T07:24:36Z</time>
      </trkpt>
      <trkpt lat="61.480017984285951" lon="6.744826035574079">
        <ele>144.81999999999999</ele>
        <time>2017-06-20T07:26:02Z</time>
      </trkpt>
      <trkpt lat="61.480018990114331" lon="6.744822012260556">
        <ele>143.84999999999999</ele>
        <time>2017-06-20T07:27:18Z</time>
      </trkpt>
      <trkpt lat="61.479961993172765" lon="6.744868028908968">
        <ele>144.34</ele>
        <time>2017-06-20T07:27:30Z</time>
      </trkpt>
      <trkpt lat="61.479945983737707" lon="6.744847996160388">
        <ele>144.34</ele>
        <time>2017-06-20T07:27:31Z</time>
      </trkpt>
      <trkpt lat="61.479925028979778" lon="6.744807008653879">
        <ele>144.34</ele>
        <time>2017-06-20T07:27:32Z</time>
      </trkpt>
      <trkpt lat="61.479902984574437" lon="6.744748000055552">
        <ele>144.34</ele>
        <time>2017-06-20T07:27:33Z</time>
      </trkpt>
      <trkpt lat="61.479884041473269" lon="6.744684968143702">
        <ele>144.81999999999999</ele>
        <time>2017-06-20T07:27:34Z</time>
      </trkpt>
      <trkpt lat="61.479871971532702" lon="6.744611961767077">
        <ele>144.81999999999999</ele>
        <time>2017-06-20T07:27:35Z</time>
      </trkpt>
      <trkpt lat="61.479869037866592" lon="6.744526969268918">
        <ele>144.81999999999999</ele>
        <time>2017-06-20T07:27:36Z</time>
      </trkpt>
      <trkpt lat="61.479878006502986" lon="6.744451029226184">
        <ele>144.81999999999999</ele>
        <time>2017-06-20T07:27:37Z</time>
      </trkpt>
      <trkpt lat="61.479910025373101" lon="6.74438196234405">
        <ele>145.30000000000001</ele>
        <time>2017-06-20T07:27:38Z</time>
      </trkpt>
      <trkpt lat="61.479952018707991" lon="6.744307028129697">
        <ele>145.30000000000001</ele>
        <time>2017-06-20T07:27:39Z</time>
      </trkpt>
      <trkpt lat="61.480010021477938" lon="6.744218012318015">
        <ele>145.30000000000001</ele>
        <time>2017-06-20T07:27:40Z</time>
      </trkpt>
      <trkpt lat="61.480644028633833" lon="6.742857964709401">
        <ele>148.66</ele>
        <time>2017-06-20T07:27:49Z</time>
      </trkpt>
      <trkpt lat="61.522823022678494" lon="6.657587019726634">
        <ele>244.78999999999999</ele>
        <time>2017-06-20T07:32:32Z</time>
      </trkpt>
      <trkpt lat="61.5172069799155" lon="6.654286980628967">
        <ele>335.63999999999999</ele>
        <time>2017-06-20T07:32:46Z</time>
      </trkpt>
      <trkpt lat="61.517714001238346" lon="6.651341998949647">
        <ele>323.13999999999999</ele>
        <time>2017-06-20T07:32:55Z</time>
      </trkpt>
      <trkpt lat="61.517720958217978" lon="6.648027962073684">
        <ele>311.12</ele>
        <time>2017-06-20T07:33:04Z</time>
      </trkpt>
      <trkpt lat="61.517496993765235" lon="6.644523991271853">
        <ele>298.63</ele>
        <time>2017-06-20T07:33:14Z</time>
      </trkpt>
      <trkpt lat="61.517890021204948" lon="6.642012018710375">
        <ele>289.49000000000001</ele>
        <time>2017-06-20T07:33:21Z</time>
      </trkpt>
      <trkpt lat="61.518687978386879" lon="6.638150978833437">
        <ele>278.44</ele>
        <time>2017-06-20T07:33:32Z</time>
      </trkpt>
      <trkpt lat="61.518718991428614" lon="6.637821989133954">
        <ele>275.56</ele>
        <time>2017-06-20T07:33:33Z</time>
      </trkpt>
      <trkpt lat="61.519212014973164" lon="6.634743986651301">
        <ele>264.5</ele>
        <time>2017-06-20T07:33:42Z</time>
      </trkpt>
      <trkpt lat="61.520238965749741" lon="6.63177696056664">
        <ele>256.81</ele>
        <time>2017-06-20T07:33:51Z</time>
      </trkpt>
      <trkpt lat="61.520817987620831" lon="6.628644978627563">
        <ele>243.83000000000001</ele>
        <time>2017-06-20T07:33:59Z</time>
      </trkpt>
      <trkpt lat="61.520927036181092" lon="6.625531017780304">
        <ele>237.58000000000001</ele>
        <time>2017-06-20T07:34:07Z</time>
      </trkpt>
      <trkpt lat="61.521347975358367" lon="6.623200010508299">
        <ele>229.41</ele>
        <time>2017-06-20T07:34:14Z</time>
      </trkpt>
      <trkpt lat="61.522153979167342" lon="6.621364960446954">
        <ele>223.16</ele>
        <time>2017-06-20T07:34:21Z</time>
      </trkpt>
      <trkpt lat="61.523397015407681" lon="6.62000298500061">
        <ele>221.24000000000001</ele>
        <time>2017-06-20T07:34:29Z</time>
      </trkpt>
      <trkpt lat="61.531555959954858" lon="6.573200030252338">
        <ele>215.47</ele>
        <time>2017-06-20T07:36:27Z</time>
      </trkpt>
      <trkpt lat="61.533124968409538" lon="6.563897039741278">
        <ele>218.36000000000001</ele>
        <time>2017-06-20T07:36:51Z</time>
      </trkpt>
      <trkpt lat="61.533813960850239" lon="6.560390973463655">
        <ele>214.50999999999999</ele>
        <time>2017-06-20T07:37:00Z</time>
      </trkpt>
      <trkpt lat="61.535031013190746" lon="6.556286020204425">
        <ele>217.40000000000001</ele>
        <time>2017-06-20T07:37:11Z</time>
      </trkpt>
      <trkpt lat="61.536053018644452" lon="6.552953962236643">
        <ele>218.84</ele>
        <time>2017-06-20T07:37:20Z</time>
      </trkpt>
      <trkpt lat="61.536910990253091" lon="6.550880027934909">
        <ele>217.88</ele>
        <time>2017-06-20T07:37:27Z</time>
      </trkpt>
      <trkpt lat="61.539539974182844" lon="6.543977027758956">
        <ele>212.11000000000001</ele>
        <time>2017-06-20T07:37:51Z</time>
      </trkpt>
      <trkpt lat="61.539613986387849" lon="6.543570002540946">
        <ele>213.55000000000001</ele>
        <time>2017-06-20T07:37:52Z</time>
      </trkpt>
      <trkpt lat="61.53968196362257" lon="6.543221985921264">
        <ele>212.59</ele>
        <time>2017-06-20T07:37:53Z</time>
      </trkpt>
      <trkpt lat="61.541607035323977" lon="6.536303982138634">
        <ele>216.91</ele>
        <time>2017-06-20T07:38:12Z</time>
      </trkpt>
      <trkpt lat="61.541667971760035" lon="6.535954037681222">
        <ele>216.91</ele>
        <time>2017-06-20T07:38:13Z</time>
      </trkpt>
      <trkpt lat="61.541725974529982" lon="6.535635022446513">
        <ele>217.40000000000001</ele>
        <time>2017-06-20T07:38:14Z</time>
      </trkpt>
      <trkpt lat="61.541753970086575" lon="6.535330004990101">
        <ele>217.88</ele>
        <time>2017-06-20T07:38:15Z</time>
      </trkpt>
      <trkpt lat="61.541768973693252" lon="6.535056000575423">
        <ele>217.40000000000001</ele>
        <time>2017-06-20T07:38:16Z</time>
      </trkpt>
      <trkpt lat="61.541813984513283" lon="6.534094009548426">
        <ele>217.40000000000001</ele>
        <time>2017-06-20T07:38:20Z</time>
      </trkpt>
      <trkpt lat="61.541841980069876" lon="6.533872978761792">
        <ele>217.40000000000001</ele>
        <time>2017-06-20T07:38:21Z</time>
      </trkpt>
      <trkpt lat="61.542339026927948" lon="6.532096015289426">
        <ele>215.47</ele>
        <time>2017-06-20T07:38:29Z</time>
      </trkpt>
      <trkpt lat="61.542619988322258" lon="6.53113603591919">
        <ele>213.55000000000001</ele>
        <time>2017-06-20T07:38:33Z</time>
      </trkpt>
      <trkpt lat="61.542663993313909" lon="6.530851973220706">
        <ele>213.55000000000001</ele>
        <time>2017-06-20T07:38:34Z</time>
      </trkpt>
      <trkpt lat="61.542696012184024" lon="6.53055801987648">
        <ele>213.06999999999999</ele>
        <time>2017-06-20T07:38:35Z</time>
      </trkpt>
      <trkpt lat="61.542733982205391" lon="6.530262976884842">
        <ele>214.03</ele>
        <time>2017-06-20T07:38:36Z</time>
      </trkpt>
      <trkpt lat="61.542748985812068" lon="6.529957037419081">
        <ele>214.03</ele>
        <time>2017-06-20T07:38:37Z</time>
      </trkpt>
      <trkpt lat="61.543106976896524" lon="6.527176005765796">
        <ele>213.06999999999999</ele>
        <time>2017-06-20T07:38:46Z</time>
      </trkpt>
      <trkpt lat="61.543278973549604" lon="6.525771031156182">
        <ele>211.63</ele>
        <time>2017-06-20T07:38:50Z</time>
      </trkpt>
      <trkpt lat="61.54328903183341" lon="6.525411028414965">
        <ele>212.11000000000001</ele>
        <time>2017-06-20T07:38:51Z</time>
      </trkpt>
      <trkpt lat="61.543573010712862" lon="6.52271599508822">
        <ele>212.11000000000001</ele>
        <time>2017-06-20T07:38:59Z</time>
      </trkpt>
      <trkpt lat="61.543616009876132" lon="6.522401003167033">
        <ele>212.11000000000001</ele>
        <time>2017-06-20T07:39:00Z</time>
      </trkpt>
      <trkpt lat="61.543640987947583" lon="6.522076036781073">
        <ele>211.63</ele>
        <time>2017-06-20T07:39:01Z</time>
      </trkpt>
      <trkpt lat="61.543648028746247" lon="6.521748974919319">
        <ele>212.11000000000001</ele>
        <time>2017-06-20T07:39:02Z</time>
      </trkpt>
      <trkpt lat="61.54363595880568" lon="6.521419985219836">
        <ele>212.11000000000001</ele>
        <time>2017-06-20T07:39:03Z</time>
      </trkpt>
      <trkpt lat="61.543607041239738" lon="6.521093007177115">
        <ele>212.11000000000001</ele>
        <time>2017-06-20T07:39:04Z</time>
      </trkpt>
      <trkpt lat="61.543558007106185" lon="6.520773991942406">
        <ele>212.59</ele>
        <time>2017-06-20T07:39:05Z</time>
      </trkpt>
      <trkpt lat="61.543502015992999" lon="6.520455982536078">
        <ele>213.06999999999999</ele>
        <time>2017-06-20T07:39:06Z</time>
      </trkpt>
      <trkpt lat="61.543434960767627" lon="6.520152976736426">
        <ele>214.03</ele>
        <time>2017-06-20T07:39:07Z</time>
      </trkpt>
      <trkpt lat="61.543098008260131" lon="6.517674028873444">
        <ele>217.40000000000001</ele>
        <time>2017-06-20T07:39:15Z</time>
      </trkpt>
      <trkpt lat="61.543141007423401" lon="6.515145963057876">
        <ele>214.99000000000001</ele>
        <time>2017-06-20T07:39:23Z</time>
      </trkpt>
      <trkpt lat="61.543106976896524" lon="6.514867013320327">
        <ele>214.50999999999999</ele>
        <time>2017-06-20T07:39:24Z</time>
      </trkpt>
      <trkpt lat="61.543060960248113" lon="6.514607006683946">
        <ele>214.50999999999999</ele>
        <time>2017-06-20T07:39:25Z</time>
      </trkpt>
      <trkpt lat="61.542830960825086" lon="6.513127014040947">
        <ele>213.06999999999999</ele>
        <time>2017-06-20T07:39:31Z</time>
      </trkpt>
      <trkpt lat="61.542824003845453" lon="6.512853009626269">
        <ele>213.06999999999999</ele>
        <time>2017-06-20T07:39:32Z</time>
      </trkpt>
      <trkpt lat="61.542826015502214" lon="6.512571964412928">
        <ele>212.59</ele>
        <time>2017-06-20T07:39:33Z</time>
      </trkpt>
      <trkpt lat="61.542835989966989" lon="6.512283040210605">
        <ele>212.11000000000001</ele>
        <time>2017-06-20T07:39:34Z</time>
      </trkpt>
      <trkpt lat="61.542853005230427" lon="6.511993026360869">
        <ele>211.63</ele>
        <time>2017-06-20T07:39:35Z</time>
      </trkpt>
      <trkpt lat="61.542841019108891" lon="6.509291036054492">
        <ele>209.69999999999999</ele>
        <time>2017-06-20T07:39:44Z</time>
      </trkpt>
      <trkpt lat="61.546183973550797" lon="6.489188969135284">
        <ele>206.34</ele>
        <time>2017-06-20T07:40:46Z</time>
      </trkpt>
      <trkpt lat="61.546236025169492" lon="6.488842964172363">
        <ele>206.81999999999999</ele>
        <time>2017-06-20T07:40:47Z</time>
      </trkpt>
      <trkpt lat="61.546275001019239" lon="6.488457983359695">
        <ele>208.25999999999999</ele>
        <time>2017-06-20T07:40:48Z</time>
      </trkpt>
      <trkpt lat="61.546282963827252" lon="6.488033020868897">
        <ele>209.69999999999999</ele>
        <time>2017-06-20T07:40:49Z</time>
      </trkpt>
      <trkpt lat="61.546294027939439" lon="6.487636975944042">
        <ele>211.63</ele>
        <time>2017-06-20T07:40:50Z</time>
      </trkpt>
      <trkpt lat="61.546342978253961" lon="6.486555961892009">
        <ele>213.55000000000001</ele>
        <time>2017-06-20T07:40:53Z</time>
      </trkpt>
      <trkpt lat="61.546493014320731" lon="6.485529011115432">
        <ele>214.99000000000001</ele>
        <time>2017-06-20T07:40:56Z</time>
      </trkpt>
      <trkpt lat="61.547124003991485" lon="6.482865996658802">
        <ele>214.50999999999999</ele>
        <time>2017-06-20T07:41:04Z</time>
      </trkpt>
      <trkpt lat="61.547905029729009" lon="6.479826970025897">
        <ele>213.55000000000001</ele>
        <time>2017-06-20T07:41:14Z</time>
      </trkpt>
      <trkpt lat="61.548629980534315" lon="6.478404980152845">
        <ele>214.50999999999999</ele>
        <time>2017-06-20T07:41:20Z</time>
      </trkpt>
      <trkpt lat="61.550081977620721" lon="6.476935967803001">
        <ele>217.88</ele>
        <time>2017-06-20T07:41:28Z</time>
      </trkpt>
      <trkpt lat="61.552352970466018" lon="6.474586017429829">
        <ele>232.30000000000001</ele>
        <time>2017-06-20T07:41:41Z</time>
      </trkpt>
      <trkpt lat="61.554021975025535" lon="6.472384007647634">
        <ele>239.50999999999999</ele>
        <time>2017-06-20T07:41:51Z</time>
      </trkpt>
      <trkpt lat="61.55600999481976" lon="6.470408979803324">
        <ele>242.87</ele>
        <time>2017-06-20T07:42:02Z</time>
      </trkpt>
      <trkpt lat="61.557691991329193" lon="6.469309022650123">
        <ele>243.34999999999999</ele>
        <time>2017-06-20T07:42:11Z</time>
      </trkpt>
      <trkpt lat="61.558903008699417" lon="6.469701966270804">
        <ele>242.38999999999999</ele>
        <time>2017-06-20T07:42:17Z</time>
      </trkpt>
      <trkpt lat="61.559282960370183" lon="6.470057023689151">
        <ele>242.87</ele>
        <time>2017-06-20T07:42:19Z</time>
      </trkpt>
      <trkpt lat="61.560855992138386" lon="6.472188960760832">
        <ele>241.43000000000001</ele>
        <time>2017-06-20T07:42:28Z</time>
      </trkpt>
      <trkpt lat="61.562978038564324" lon="6.473784036934376">
        <ele>226.05000000000001</ele>
        <time>2017-06-20T07:42:39Z</time>
      </trkpt>
      <trkpt lat="61.564398016780615" lon="6.475308034569025">
        <ele>213.06999999999999</ele>
        <time>2017-06-20T07:42:47Z</time>
      </trkpt>
      <trkpt lat="61.565364031121135" lon="6.477394038811326">
        <ele>210.19</ele>
        <time>2017-06-20T07:42:54Z</time>
      </trkpt>
      <trkpt lat="61.566550992429256" lon="6.479140995070338">
        <ele>209.22</ele>
        <time>2017-06-20T07:43:02Z</time>
      </trkpt>
      <trkpt lat="61.567878015339375" lon="6.480445973575115">
        <ele>209.69999999999999</ele>
        <time>2017-06-20T07:43:11Z</time>
      </trkpt>
      <trkpt lat="61.569075034931302" lon="6.481858994811773">
        <ele>207.30000000000001</ele>
        <time>2017-06-20T07:43:21Z</time>
      </trkpt>
      <trkpt lat="61.569209983572364" lon="6.481938036158681">
        <ele>206.81999999999999</ele>
        <time>2017-06-20T07:43:22Z</time>
      </trkpt>
      <trkpt lat="61.569345016032457" lon="6.481995033100247">
        <ele>207.30000000000001</ele>
        <time>2017-06-20T07:43:23Z</time>
      </trkpt>
      <trkpt lat="61.569477031007409" lon="6.482028979808092">
        <ele>206.81999999999999</ele>
        <time>2017-06-20T07:43:24Z</time>
      </trkpt>
      <trkpt lat="61.569613991305232" lon="6.482043983414769">
        <ele>207.30000000000001</ele>
        <time>2017-06-20T07:43:25Z</time>
      </trkpt>
      <trkpt lat="61.569748017936945" lon="6.482030991464853">
        <ele>206.81999999999999</ele>
        <time>2017-06-20T07:43:26Z</time>
      </trkpt>
      <trkpt lat="61.569880032911897" lon="6.481991009786725">
        <ele>206.81999999999999</ele>
        <time>2017-06-20T07:43:27Z</time>
      </trkpt>
      <trkpt lat="61.570006012916565" lon="6.481930995360017">
        <ele>206.34</ele>
        <time>2017-06-20T07:43:28Z</time>
      </trkpt>
      <trkpt lat="61.570132998749614" lon="6.48185295984149">
        <ele>205.38</ele>
        <time>2017-06-20T07:43:29Z</time>
      </trkpt>
      <trkpt lat="61.570259984582663" lon="6.48176402784884">
        <ele>204.90000000000001</ele>
        <time>2017-06-20T07:43:30Z</time>
      </trkpt>
      <trkpt lat="61.571052996441722" lon="6.48092701099813">
        <ele>204.41999999999999</ele>
        <time>2017-06-20T07:43:37Z</time>
      </trkpt>
      <trkpt lat="61.571141006425023" lon="6.480760965496302">
        <ele>203.94</ele>
        <time>2017-06-20T07:43:38Z</time>
      </trkpt>
      <trkpt lat="61.57121803611517" lon="6.480589974671602">
        <ele>202.97999999999999</ele>
        <time>2017-06-20T07:43:39Z</time>
      </trkpt>
      <trkpt lat="61.57128400169313" lon="6.480414038524032">
        <ele>202.49000000000001</ele>
        <time>2017-06-20T07:43:40Z</time>
      </trkpt>
      <trkpt lat="61.571338986977935" lon="6.480236006900668">
        <ele>202.49000000000001</ele>
        <time>2017-06-20T07:43:41Z</time>
      </trkpt>
      <trkpt lat="61.571389026939869" lon="6.480045989155769">
        <ele>202.49000000000001</ele>
        <time>2017-06-20T07:43:42Z</time>
      </trkpt>
      <trkpt lat="61.571431020274758" lon="6.479862006381154">
        <ele>202.49000000000001</ele>
        <time>2017-06-20T07:43:43Z</time>
      </trkpt>
      <trkpt lat="61.571464966982603" lon="6.479695038869977">
        <ele>202.49000000000001</ele>
        <time>2017-06-20T07:43:44Z</time>
      </trkpt>
      <trkpt lat="61.571503020823002" lon="6.479560006409884">
        <ele>202.49000000000001</ele>
        <time>2017-06-20T07:43:45Z</time>
      </trkpt>
      <trkpt lat="61.571557000279427" lon="6.47946797311306">
        <ele>202.00999999999999</ele>
        <time>2017-06-20T07:43:46Z</time>
      </trkpt>
      <trkpt lat="61.571621960029006" lon="6.479419022798538">
        <ele>202.00999999999999</ele>
        <time>2017-06-20T07:43:47Z</time>
      </trkpt>
      <trkpt lat="61.571689015254378" lon="6.479418016970158">
        <ele>202.00999999999999</ele>
        <time>2017-06-20T07:43:48Z</time>
      </trkpt>
      <trkpt lat="61.571764033287764" lon="6.479463027790189">
        <ele>202.00999999999999</ele>
        <time>2017-06-20T07:43:49Z</time>
      </trkpt>
      <trkpt lat="61.571837039664388" lon="6.479545002803206">
        <ele>202.00999999999999</ele>
        <time>2017-06-20T07:43:50Z</time>
      </trkpt>
      <trkpt lat="61.57190996222198" lon="6.479652039706707">
        <ele>202.00999999999999</ele>
        <time>2017-06-20T07:43:51Z</time>
      </trkpt>
      <trkpt lat="61.571983974426985" lon="6.479779025539756">
        <ele>202.49000000000001</ele>
        <time>2017-06-20T07:43:52Z</time>
      </trkpt>
      <trkpt lat="61.573033975437284" lon="6.481226999312639">
        <ele>199.61000000000001</ele>
        <time>2017-06-20T07:44:04Z</time>
      </trkpt>
      <trkpt lat="61.574022034183145" lon="6.482466012239456">
        <ele>196.25</ele>
        <time>2017-06-20T07:44:16Z</time>
      </trkpt>
      <trkpt lat="61.57523799687624" lon="6.483146036043763">
        <ele>197.21000000000001</ele>
        <time>2017-06-20T07:44:26Z</time>
      </trkpt>
      <trkpt lat="61.576020028442144" lon="6.48363302461803">
        <ele>199.13</ele>
        <time>2017-06-20T07:44:32Z</time>
      </trkpt>
      <trkpt lat="61.576134022325277" lon="6.48378599435091">
        <ele>199.13</ele>
        <time>2017-06-20T07:44:33Z</time>
      </trkpt>
      <trkpt lat="61.576244998723269" lon="6.483972994610667">
        <ele>199.13</ele>
        <time>2017-06-20T07:44:34Z</time>
      </trkpt>
      <trkpt lat="61.57635304145515" lon="6.484182039275765">
        <ele>199.61000000000001</ele>
        <time>2017-06-20T07:44:35Z</time>
      </trkpt>
      <trkpt lat="61.576450020074844" lon="6.484409021213651">
        <ele>200.09</ele>
        <time>2017-06-20T07:44:36Z</time>
      </trkpt>
      <trkpt lat="61.577890031039715" lon="6.488049030303955">
        <ele>202.97999999999999</ele>
        <time>2017-06-20T07:44:50Z</time>
      </trkpt>
      <trkpt lat="61.579348985105753" lon="6.491621984168887">
        <ele>204.41999999999999</ele>
        <time>2017-06-20T07:45:04Z</time>
      </trkpt>
      <trkpt lat="61.580212991684675" lon="6.492614988237619">
        <ele>202.97999999999999</ele>
        <time>2017-06-20T07:45:10Z</time>
      </trkpt>
      <trkpt lat="61.580370990559459" lon="6.492681037634611">
        <ele>202.49000000000001</ele>
        <time>2017-06-20T07:45:11Z</time>
      </trkpt>
      <trkpt lat="61.580533012747765" lon="6.492715990170836">
        <ele>202.00999999999999</ele>
        <time>2017-06-20T07:45:12Z</time>
      </trkpt>
      <trkpt lat="61.58299301750958" lon="6.492876000702381">
        <ele>203.94</ele>
        <time>2017-06-20T07:45:26Z</time>
      </trkpt>
      <trkpt lat="61.584409978240728" lon="6.493509002029896">
        <ele>202.49000000000001</ele>
        <time>2017-06-20T07:45:34Z</time>
      </trkpt>
      <trkpt lat="61.585784023627639" lon="6.495212959125638">
        <ele>206.34</ele>
        <time>2017-06-20T07:45:43Z</time>
      </trkpt>
      <trkpt lat="61.588625991716981" lon="6.499054972082377">
        <ele>206.34</ele>
        <time>2017-06-20T07:46:01Z</time>
      </trkpt>
      <trkpt lat="61.591407023370266" lon="6.503106029704213">
        <ele>207.30000000000001</ele>
        <time>2017-06-20T07:46:19Z</time>
      </trkpt>
      <trkpt lat="61.592911994084716" lon="6.506578987464309">
        <ele>209.22</ele>
        <time>2017-06-20T07:46:31Z</time>
      </trkpt>
      <trkpt lat="61.593049038201571" lon="6.506789037957788">
        <ele>209.22</ele>
        <time>2017-06-20T07:46:32Z</time>
      </trkpt>
      <trkpt lat="61.593201002106071" lon="6.506961034610868">
        <ele>209.22</ele>
        <time>2017-06-20T07:46:33Z</time>
      </trkpt>
      <trkpt lat="61.593362018465996" lon="6.507097994908691">
        <ele>209.69999999999999</ele>
        <time>2017-06-20T07:46:34Z</time>
      </trkpt>
      <trkpt lat="61.593537032604218" lon="6.507221041247249">
        <ele>209.22</ele>
        <time>2017-06-20T07:46:35Z</time>
      </trkpt>
      <trkpt lat="61.593724032863975" lon="6.507330005988479">
        <ele>209.22</ele>
        <time>2017-06-20T07:46:36Z</time>
      </trkpt>
      <trkpt lat="61.595151973888278" lon="6.508176997303963">
        <ele>208.74000000000001</ele>
        <time>2017-06-20T07:46:43Z</time>
      </trkpt>
      <trkpt lat="61.595321036875248" lon="6.508397022262216">
        <ele>208.25999999999999</ele>
        <time>2017-06-20T07:46:44Z</time>
      </trkpt>
      <trkpt lat="61.595466965809464" lon="6.508650993928313">
        <ele>207.78</ele>
        <time>2017-06-20T07:46:45Z</time>
      </trkpt>
      <trkpt lat="61.595592023804784" lon="6.508935978636146">
        <ele>207.30000000000001</ele>
        <time>2017-06-20T07:46:46Z</time>
      </trkpt>
      <trkpt lat="61.595699982717633" lon="6.50924501940608">
        <ele>207.30000000000001</ele>
        <time>2017-06-20T07:46:47Z</time>
      </trkpt>
      <trkpt lat="61.595794027671218" lon="6.509575014933944">
        <ele>208.25999999999999</ele>
        <time>2017-06-20T07:46:48Z</time>
      </trkpt>
      <trkpt lat="61.595877008512616" lon="6.509926971048117">
        <ele>208.25999999999999</ele>
        <time>2017-06-20T07:46:49Z</time>
      </trkpt>
      <trkpt lat="61.595941968262196" lon="6.510286973789334">
        <ele>208.25999999999999</ele>
        <time>2017-06-20T07:46:50Z</time>
      </trkpt>
      <trkpt lat="61.595981027930975" lon="6.510647982358933">
        <ele>207.78</ele>
        <time>2017-06-20T07:46:51Z</time>
      </trkpt>
      <trkpt lat="61.596007011830807" lon="6.511009996756911">
        <ele>207.78</ele>
        <time>2017-06-20T07:46:52Z</time>
      </trkpt>
      <trkpt lat="61.596024027094245" lon="6.511356001719832">
        <ele>208.25999999999999</ele>
        <time>2017-06-20T07:46:53Z</time>
      </trkpt>
      <trkpt lat="61.596132991835475" lon="6.512698028236628">
        <ele>208.74000000000001</ele>
        <time>2017-06-20T07:46:57Z</time>
      </trkpt>
      <trkpt lat="61.596195017918944" lon="6.513006985187531">
        <ele>208.74000000000001</ele>
        <time>2017-06-20T07:46:58Z</time>
      </trkpt>
      <trkpt lat="61.596275987103581" lon="6.513310996815562">
        <ele>208.25999999999999</ele>
        <time>2017-06-20T07:46:59Z</time>
      </trkpt>
      <trkpt lat="61.596377994865179" lon="6.513594975695014">
        <ele>207.78</ele>
        <time>2017-06-20T07:47:00Z</time>
      </trkpt>
      <trkpt lat="61.596497017890215" lon="6.513859005644918">
        <ele>206.81999999999999</ele>
        <time>2017-06-20T07:47:01Z</time>
      </trkpt>
      <trkpt lat="61.596630038693547" lon="6.51408196426928">
        <ele>205.38</ele>
        <time>2017-06-20T07:47:02Z</time>
      </trkpt>
      <trkpt lat="61.596776973456144" lon="6.514271982014179">
        <ele>203.94</ele>
        <time>2017-06-20T07:47:03Z</time>
      </trkpt>
      <trkpt lat="61.596940001472831" lon="6.514417994767427">
        <ele>202.97999999999999</ele>
        <time>2017-06-20T07:47:04Z</time>
      </trkpt>
      <trkpt lat="61.597114009782672" lon="6.514524025842547">
        <ele>201.53</ele>
        <time>2017-06-20T07:47:05Z</time>
      </trkpt>
      <trkpt lat="61.597297992557287" lon="6.51457398198545">
        <ele>200.09</ele>
        <time>2017-06-20T07:47:06Z</time>
      </trkpt>
      <trkpt lat="61.597492033615708" lon="6.51457398198545">
        <ele>199.61000000000001</ele>
        <time>2017-06-20T07:47:07Z</time>
      </trkpt>
      <trkpt lat="61.597683979198337" lon="6.514528971165419">
        <ele>199.13</ele>
        <time>2017-06-20T07:47:08Z</time>
      </trkpt>
      <trkpt lat="61.597870979458094" lon="6.514463005587459">
        <ele>199.13</ele>
        <time>2017-06-20T07:47:09Z</time>
      </trkpt>
      <trkpt lat="61.598437009379268" lon="6.514291008934379">
        <ele>198.16999999999999</ele>
        <time>2017-06-20T07:47:12Z</time>
      </trkpt>
      <trkpt lat="61.598628032952547" lon="6.514301989227533">
        <ele>198.16999999999999</ele>
        <time>2017-06-20T07:47:13Z</time>
      </trkpt>
      <trkpt lat="61.598814027383924" lon="6.514344988390803">
        <ele>198.16999999999999</ele>
        <time>2017-06-20T07:47:14Z</time>
      </trkpt>
      <trkpt lat="61.598999015986919" lon="6.514411959797144">
        <ele>198.16999999999999</ele>
        <time>2017-06-20T07:47:15Z</time>
      </trkpt>
      <trkpt lat="61.599176041781902" lon="6.514527965337038">
        <ele>197.69</ele>
        <time>2017-06-20T07:47:16Z</time>
      </trkpt>
      <trkpt lat="61.599346026778221" lon="6.514689987525344">
        <ele>197.69</ele>
        <time>2017-06-20T07:47:17Z</time>
      </trkpt>
      <trkpt lat="61.599503019824624" lon="6.51491797529161">
        <ele>197.69</ele>
        <time>2017-06-20T07:47:18Z</time>
      </trkpt>
      <trkpt lat="61.599650038406253" lon="6.515159960836172">
        <ele>197.69</ele>
        <time>2017-06-20T07:47:19Z</time>
      </trkpt>
      <trkpt lat="61.599786998704076" lon="6.515450980514288">
        <ele>197.21000000000001</ele>
        <time>2017-06-20T07:47:20Z</time>
      </trkpt>
      <trkpt lat="61.599910967051983" lon="6.515766978263855">
        <ele>196.72999999999999</ele>
        <time>2017-06-20T07:47:21Z</time>
      </trkpt>
      <trkpt lat="61.600029990077019" lon="6.516081970185041">
        <ele>195.77000000000001</ele>
        <time>2017-06-20T07:47:22Z</time>
      </trkpt>
      <trkpt lat="61.601070016622543" lon="6.518171997740865">
        <ele>196.25</ele>
        <time>2017-06-20T07:47:30Z</time>
      </trkpt>
      <trkpt lat="61.602314980700612" lon="6.519081015139818">
        <ele>198.65000000000001</ele>
        <time>2017-06-20T07:47:37Z</time>
      </trkpt>
      <trkpt lat="61.604002006351948" lon="6.519816024228931">
        <ele>204.41999999999999</ele>
        <time>2017-06-20T07:47:46Z</time>
      </trkpt>
      <trkpt lat="61.605943003669381" lon="6.520860996097326">
        <ele>203.94</ele>
        <time>2017-06-20T07:47:56Z</time>
      </trkpt>
      <trkpt lat="61.607232978567481" lon="6.522956974804401">
        <ele>203.94</ele>
        <time>2017-06-20T07:48:04Z</time>
      </trkpt>
      <trkpt lat="61.608322039246559" lon="6.525949984788895">
        <ele>216.43000000000001</ele>
        <time>2017-06-20T07:48:13Z</time>
      </trkpt>
      <trkpt lat="61.609644033014774" lon="6.529428977519274">
        <ele>227.49000000000001</ele>
        <time>2017-06-20T07:48:24Z</time>
      </trkpt>
      <trkpt lat="61.611097035929561" lon="6.531539959833026">
        <ele>227.49000000000001</ele>
        <time>2017-06-20T07:48:33Z</time>
      </trkpt>
      <trkpt lat="61.611460978165269" lon="6.531771970912814">
        <ele>227.97</ele>
        <time>2017-06-20T07:48:35Z</time>
      </trkpt>
      <trkpt lat="61.611646972596645" lon="6.531831985339522">
        <ele>228.44999999999999</ele>
        <time>2017-06-20T07:48:36Z</time>
      </trkpt>
      <trkpt lat="61.611834978684783" lon="6.531846988946199">
        <ele>227.97</ele>
        <time>2017-06-20T07:48:37Z</time>
      </trkpt>
      <trkpt lat="61.61202197894454" lon="6.531817987561226">
        <ele>227.97</ele>
        <time>2017-06-20T07:48:38Z</time>
      </trkpt>
      <trkpt lat="61.612209985032678" lon="6.531746992841363">
        <ele>227.49000000000001</ele>
        <time>2017-06-20T07:48:39Z</time>
      </trkpt>
      <trkpt lat="61.612395979464054" lon="6.531648002564907">
        <ele>227.00999999999999</ele>
        <time>2017-06-20T07:48:40Z</time>
      </trkpt>
      <trkpt lat="61.612579040229321" lon="6.531523028388619">
        <ele>226.53</ele>
        <time>2017-06-20T07:48:41Z</time>
      </trkpt>
      <trkpt lat="61.614209990948439" lon="6.530839987099171">
        <ele>217.88</ele>
        <time>2017-06-20T07:48:50Z</time>
      </trkpt>
      <trkpt lat="61.616047974675894" lon="6.53045198880136">
        <ele>213.55000000000001</ele>
        <time>2017-06-20T07:49:00Z</time>
      </trkpt>
      <trkpt lat="61.61805703304708" lon="6.5296780038625">
        <ele>212.11000000000001</ele>
        <time>2017-06-20T07:49:11Z</time>
      </trkpt>
      <trkpt lat="61.619381960481405" lon="6.530288038775325">
        <ele>212.11000000000001</ele>
        <time>2017-06-20T07:49:18Z</time>
      </trkpt>
      <trkpt lat="61.621076026931405" lon="6.530374959111214">
        <ele>212.59</ele>
        <time>2017-06-20T07:49:27Z</time>
      </trkpt>
      <trkpt lat="61.62259298376739" lon="6.529508018866181">
        <ele>214.03</ele>
        <time>2017-06-20T07:49:35Z</time>
      </trkpt>
      <trkpt lat="61.624706983566284" lon="6.52830102480948">
        <ele>217.88</ele>
        <time>2017-06-20T07:49:46Z</time>
      </trkpt>
      <trkpt lat="61.626054961234331" lon="6.527526034042239">
        <ele>221.24000000000001</ele>
        <time>2017-06-20T07:49:54Z</time>
      </trkpt>
      <trkpt lat="61.628045998513699" lon="6.52626296505332">
        <ele>227.97</ele>
        <time>2017-06-20T07:50:05Z</time>
      </trkpt>
      <trkpt lat="61.630639024078846" lon="6.525039961561561">
        <ele>238.06</ele>
        <time>2017-06-20T07:50:19Z</time>
      </trkpt>
      <trkpt lat="61.632295036688447" lon="6.524351974949241">
        <ele>245.75</ele>
        <time>2017-06-20T07:50:28Z</time>
      </trkpt>
      <trkpt lat="61.632462004199624" lon="6.524362033233047">
        <ele>246.22999999999999</ele>
        <time>2017-06-20T07:50:29Z</time>
      </trkpt>
      <trkpt lat="61.632614973932505" lon="6.524416012689471">
        <ele>247.19999999999999</ele>
        <time>2017-06-20T07:50:30Z</time>
      </trkpt>
      <trkpt lat="61.632770039141178" lon="6.524526989087462">
        <ele>248.16</ele>
        <time>2017-06-20T07:50:31Z</time>
      </trkpt>
      <trkpt lat="61.632914040237665" lon="6.52467099018395">
        <ele>248.63999999999999</ele>
        <time>2017-06-20T07:50:32Z</time>
      </trkpt>
      <trkpt lat="61.63305502384901" lon="6.524851033464074">
        <ele>249.59999999999999</ele>
        <time>2017-06-20T07:50:33Z</time>
      </trkpt>
      <trkpt lat="61.633191984146833" lon="6.525025963783264">
        <ele>250.08000000000001</ele>
        <time>2017-06-20T07:50:34Z</time>
      </trkpt>
      <trkpt lat="61.633714009076357" lon="6.525574978441">
        <ele>249.12</ele>
        <time>2017-06-20T07:50:38Z</time>
      </trkpt>
      <trkpt lat="61.633880976587534" lon="6.525573972612619">
        <ele>249.59999999999999</ele>
        <time>2017-06-20T07:50:39Z</time>
      </trkpt>
      <trkpt lat="61.634040987119079" lon="6.525528961792588">
        <ele>249.59999999999999</ele>
        <time>2017-06-20T07:50:40Z</time>
      </trkpt>
      <trkpt lat="61.634199991822243" lon="6.525439023971558">
        <ele>250.08000000000001</ele>
        <time>2017-06-20T07:50:41Z</time>
      </trkpt>
      <trkpt lat="61.634353967383504" lon="6.525317989289761">
        <ele>250.56</ele>
        <time>2017-06-20T07:50:42Z</time>
      </trkpt>
      <trkpt lat="61.635949965566397" lon="6.523957019671798">
        <ele>255.84999999999999</ele>
        <time>2017-06-20T07:50:52Z</time>
      </trkpt>
      <trkpt lat="61.637392994016409" lon="6.523514958098531">
        <ele>259.69</ele>
        <time>2017-06-20T07:51:00Z</time>
      </trkpt>
      <trkpt lat="61.639171969145536" lon="6.522695040330291">
        <ele>264.5</ele>
        <time>2017-06-20T07:51:09Z</time>
      </trkpt>
      <trkpt lat="61.641251016408205" lon="6.521177999675274">
        <ele>273.14999999999998</ele>
        <time>2017-06-20T07:51:20Z</time>
      </trkpt>
      <trkpt lat="61.644028024747968" lon="6.520893014967442">
        <ele>263.06</ele>
        <time>2017-06-20T07:51:30Z</time>
      </trkpt>
      <trkpt lat="61.645457977429032" lon="6.521312026306987">
        <ele>253.93000000000001</ele>
        <time>2017-06-20T07:51:38Z</time>
      </trkpt>
      <trkpt lat="61.646832022815943" lon="6.520638037472963">
        <ele>252.47999999999999</ele>
        <time>2017-06-20T07:51:45Z</time>
      </trkpt>
      <trkpt lat="61.649371990934014" lon="6.519540008157492">
        <ele>260.64999999999998</ele>
        <time>2017-06-20T07:51:57Z</time>
      </trkpt>
      <trkpt lat="61.652243966236711" lon="6.518947994336486">
        <ele>265.45999999999998</ele>
        <time>2017-06-20T07:52:11Z</time>
      </trkpt>
      <trkpt lat="61.65524996817112" lon="6.518051968887448">
        <ele>252.96000000000001</ele>
        <time>2017-06-20T07:52:24Z</time>
      </trkpt>
      <trkpt lat="61.656930036842823" lon="6.517518041655421">
        <ele>248.16</ele>
        <time>2017-06-20T07:52:33Z</time>
      </trkpt>
      <trkpt lat="61.658561993390322" lon="6.517331963405013">
        <ele>250.08000000000001</ele>
        <time>2017-06-20T07:52:41Z</time>
      </trkpt>
      <trkpt lat="61.660285983234644" lon="6.517734965309501">
        <ele>236.62</ele>
        <time>2017-06-20T07:52:49Z</time>
      </trkpt>
      <trkpt lat="61.661749966442585" lon="6.5172169636935">
        <ele>208.74000000000001</ele>
        <time>2017-06-20T07:52:56Z</time>
      </trkpt>
      <trkpt lat="61.663885004818439" lon="6.51657298207283">
        <ele>202.00999999999999</ele>
        <time>2017-06-20T07:53:06Z</time>
      </trkpt>
      <trkpt lat="61.665856009349227" lon="6.517112022265792">
        <ele>195.77000000000001</ele>
        <time>2017-06-20T07:53:15Z</time>
      </trkpt>
      <trkpt lat="61.66895697824657" lon="6.517981979995966">
        <ele>183.75</ele>
        <time>2017-06-20T07:53:29Z</time>
      </trkpt>
      <trkpt lat="61.671131998300552" lon="6.518511967733502">
        <ele>179.90000000000001</ele>
        <time>2017-06-20T07:53:39Z</time>
      </trkpt>
      <trkpt lat="61.673181960359216" lon="6.520061027258635">
        <ele>177.97999999999999</ele>
        <time>2017-06-20T07:53:49Z</time>
      </trkpt>
      <trkpt lat="61.674847025424242" lon="6.520480960607529">
        <ele>176.53999999999999</ele>
        <time>2017-06-20T07:53:57Z</time>
      </trkpt>
      <trkpt lat="61.678469013422728" lon="6.52065203525126">
        <ele>175.58000000000001</ele>
        <time>2017-06-20T07:54:14Z</time>
      </trkpt>
      <trkpt lat="61.681326990947127" lon="6.520094973966479">
        <ele>175.58000000000001</ele>
        <time>2017-06-20T07:54:28Z</time>
      </trkpt>
      <trkpt lat="61.683958992362022" lon="6.519499020650983">
        <ele>175.58000000000001</ele>
        <time>2017-06-20T07:54:41Z</time>
      </trkpt>
      <trkpt lat="61.685366984456778" lon="6.51981501840055">
        <ele>176.53999999999999</ele>
        <time>2017-06-20T07:54:48Z</time>
      </trkpt>
      <trkpt lat="61.68681101873517" lon="6.521159978583455">
        <ele>174.62</ele>
        <time>2017-06-20T07:54:56Z</time>
      </trkpt>
      <trkpt lat="61.688168970867991" lon="6.521545965224505">
        <ele>175.09999999999999</ele>
        <time>2017-06-20T07:55:03Z</time>
      </trkpt>
      <trkpt lat="61.68872301466763" lon="6.521895993500948">
        <ele>177.02000000000001</ele>
        <time>2017-06-20T07:55:06Z</time>
      </trkpt>
      <trkpt lat="61.688899034634233" lon="6.522076958790422">
        <ele>177.97999999999999</ele>
        <time>2017-06-20T07:55:07Z</time>
      </trkpt>
      <trkpt lat="61.690433006733656" lon="6.523848976939917">
        <ele>183.75</ele>
        <time>2017-06-20T07:55:16Z</time>
      </trkpt>
      <trkpt lat="61.693401960656047" lon="6.526834024116397">
        <ele>183.75</ele>
        <time>2017-06-20T07:55:32Z</time>
      </trkpt>
      <trkpt lat="61.694997036829591" lon="6.528791030868888">
        <ele>175.09999999999999</ele>
        <time>2017-06-20T07:55:41Z</time>
      </trkpt>
      <trkpt lat="61.696429001167417" lon="6.530370013788343">
        <ele>168.84999999999999</ele>
        <time>2017-06-20T07:55:49Z</time>
      </trkpt>
      <trkpt lat="61.697313040494919" lon="6.531380033120513">
        <ele>164.52000000000001</ele>
        <time>2017-06-20T07:55:54Z</time>
      </trkpt>
      <trkpt lat="61.697512026876211" lon="6.53148296289146">
        <ele>164.03999999999999</ele>
        <time>2017-06-20T07:55:55Z</time>
      </trkpt>
      <trkpt lat="61.697714030742645" lon="6.531553035601974">
        <ele>163.56</ele>
        <time>2017-06-20T07:55:56Z</time>
      </trkpt>
      <trkpt lat="61.69791997410357" lon="6.531592011451721">
        <ele>162.59999999999999</ele>
        <time>2017-06-20T07:55:57Z</time>
      </trkpt>
      <trkpt lat="61.698127007111907" lon="6.531602991744876">
        <ele>162.12</ele>
        <time>2017-06-20T07:55:58Z</time>
      </trkpt>
      <trkpt lat="61.698332028463483" lon="6.531591005623341">
        <ele>161.16</ele>
        <time>2017-06-20T07:55:59Z</time>
      </trkpt>
      <trkpt lat="61.69907902367413" lon="6.531543983146548">
        <ele>159.24000000000001</ele>
        <time>2017-06-20T07:56:03Z</time>
      </trkpt>
      <trkpt lat="61.700490033254027" lon="6.532353004440665">
        <ele>154.43000000000001</ele>
        <time>2017-06-20T07:56:11Z</time>
      </trkpt>
      <trkpt lat="61.702071027830243" lon="6.532948035746813">
        <ele>152.03</ele>
        <time>2017-06-20T07:56:19Z</time>
      </trkpt>
      <trkpt lat="61.705104019492865" lon="6.533928969874978">
        <ele>152.03</ele>
        <time>2017-06-20T07:56:35Z</time>
      </trkpt>
      <trkpt lat="61.706490973010659" lon="6.53483203612268">
        <ele>152.03</ele>
        <time>2017-06-20T07:56:43Z</time>
      </trkpt>
      <trkpt lat="61.706675039604306" lon="6.534826001152396">
        <ele>152.03</ele>
        <time>2017-06-20T07:56:44Z</time>
      </trkpt>
      <trkpt lat="61.706854999065399" lon="6.534786019474268">
        <ele>151.53999999999999</ele>
        <time>2017-06-20T07:56:45Z</time>
      </trkpt>
      <trkpt lat="61.707041999325156" lon="6.534715024754405">
        <ele>151.53999999999999</ele>
        <time>2017-06-20T07:56:46Z</time>
      </trkpt>
      <trkpt lat="61.707226987928152" lon="6.534618968144059">
        <ele>151.53999999999999</ele>
        <time>2017-06-20T07:56:47Z</time>
      </trkpt>
      <trkpt lat="61.707412982359529" lon="6.534500028938055">
        <ele>151.06</ele>
        <time>2017-06-20T07:56:48Z</time>
      </trkpt>
      <trkpt lat="61.709293965250254" lon="6.53352303430438">
        <ele>150.58000000000001</ele>
        <time>2017-06-20T07:56:58Z</time>
      </trkpt>
      <trkpt lat="61.711780037730932" lon="6.532079000025988">
        <ele>152.03</ele>
        <time>2017-06-20T07:57:11Z</time>
      </trkpt>
      <trkpt lat="61.711950022727251" lon="6.531883031129837">
        <ele>152.50999999999999</ele>
        <time>2017-06-20T07:57:12Z</time>
      </trkpt>
      <trkpt lat="61.712110033258796" lon="6.531657977029681">
        <ele>152.03</ele>
        <time>2017-06-20T07:57:13Z</time>
      </trkpt>
      <trkpt lat="61.712267026305199" lon="6.531401993706822">
        <ele>152.03</ele>
        <time>2017-06-20T07:57:14Z</time>
      </trkpt>
      <trkpt lat="61.71368901617825" lon="6.529064029455185">
        <ele>150.09999999999999</ele>
        <time>2017-06-20T07:57:23Z</time>
      </trkpt>
      <trkpt lat="61.715035988017917" lon="6.528251990675926">
        <ele>150.58000000000001</ele>
        <time>2017-06-20T07:57:30Z</time>
      </trkpt>
      <trkpt lat="61.717402031645179" lon="6.527455961331725">
        <ele>155.38999999999999</ele>
        <time>2017-06-20T07:57:42Z</time>
      </trkpt>
      <trkpt lat="61.717580985277891" lon="6.527242977172136">
        <ele>155.38999999999999</ele>
        <time>2017-06-20T07:57:43Z</time>
      </trkpt>
      <trkpt lat="61.717752981930971" lon="6.527003003284335">
        <ele>155.38999999999999</ele>
        <time>2017-06-20T07:57:44Z</time>
      </trkpt>
      <trkpt lat="61.717919027432799" lon="6.526739979162812">
        <ele>155.87</ele>
        <time>2017-06-20T07:57:45Z</time>
      </trkpt>
      <trkpt lat="61.718076020479202" lon="6.526456000283361">
        <ele>155.87</ele>
        <time>2017-06-20T07:57:46Z</time>
      </trkpt>
      <trkpt lat="61.71948803588748" lon="6.523762978613377">
        <ele>154.43000000000001</ele>
        <time>2017-06-20T07:57:56Z</time>
      </trkpt>
      <trkpt lat="61.720846993848681" lon="6.521789962425828">
        <ele>150.09999999999999</ele>
        <time>2017-06-20T07:58:04Z</time>
      </trkpt>
      <trkpt lat="61.722499988973141" lon="6.519310008734465">
        <ele>145.78</ele>
        <time>2017-06-20T07:58:14Z</time>
      </trkpt>
      <trkpt lat="61.725551001727581" lon="6.514279022812843">
        <ele>144.81999999999999</ele>
        <time>2017-06-20T07:58:34Z</time>
      </trkpt>
      <trkpt lat="61.727186981588602" lon="6.512013981118798">
        <ele>142.88999999999999</ele>
        <time>2017-06-20T07:58:44Z</time>
      </trkpt>
      <trkpt lat="61.728732017800212" lon="6.510551003739238">
        <ele>139.53</ele>
        <time>2017-06-20T07:58:53Z</time>
      </trkpt>
      <trkpt lat="61.729794004932046" lon="6.509565962478519">
        <ele>139.05000000000001</ele>
        <time>2017-06-20T07:59:02Z</time>
      </trkpt>
      <trkpt lat="61.73171698115766" lon="6.507739964872599">
        <ele>139.53</ele>
        <time>2017-06-20T07:59:22Z</time>
      </trkpt>
      <trkpt lat="61.732661034911871" lon="6.506651993840933">
        <ele>142.88999999999999</ele>
        <time>2017-06-20T07:59:33Z</time>
      </trkpt>
      <trkpt lat="61.732721971347928" lon="6.506522996351123">
        <ele>142.88999999999999</ele>
        <time>2017-06-20T07:59:34Z</time>
      </trkpt>
      <trkpt lat="61.73276899382472" lon="6.506378995254636">
        <ele>142.88999999999999</ele>
        <time>2017-06-20T07:59:35Z</time>
      </trkpt>
      <trkpt lat="61.732806041836739" lon="6.506223008036614">
        <ele>143.37</ele>
        <time>2017-06-20T07:59:36Z</time>
      </trkpt>
      <trkpt lat="61.732833031564951" lon="6.506073977798224">
        <ele>143.84999999999999</ele>
        <time>2017-06-20T07:59:37Z</time>
      </trkpt>
      <trkpt lat="61.732850968837738" lon="6.505931988358498">
        <ele>143.37</ele>
        <time>2017-06-20T07:59:38Z</time>
      </trkpt>
      <trkpt lat="61.732898997142911" lon="6.505663013085723">
        <ele>143.37</ele>
        <time>2017-06-20T07:59:40Z</time>
      </trkpt>
      <trkpt lat="61.732938978821039" lon="6.505543990060687">
        <ele>143.37</ele>
        <time>2017-06-20T07:59:41Z</time>
      </trkpt>
      <trkpt lat="61.732995975762606" lon="6.505455980077386">
        <ele>143.37</ele>
        <time>2017-06-20T07:59:42Z</time>
      </trkpt>
      <trkpt lat="61.73306998796761" lon="6.505415998399258">
        <ele>143.37</ele>
        <time>2017-06-20T07:59:43Z</time>
      </trkpt>
      <trkpt lat="61.733163027092814" lon="6.505443993955851">
        <ele>143.37</ele>
        <time>2017-06-20T07:59:44Z</time>
      </trkpt>
      <trkpt lat="61.733255982398987" lon="6.505490010604262">
        <ele>143.37</ele>
        <time>2017-06-20T07:59:45Z</time>
      </trkpt>
      <trkpt lat="61.733352039009333" lon="6.505527980625629">
        <ele>144.34</ele>
        <time>2017-06-20T07:59:46Z</time>
      </trkpt>
      <trkpt lat="61.734753996133804" lon="6.506359968334436">
        <ele>150.09999999999999</ele>
        <time>2017-06-20T07:59:59Z</time>
      </trkpt>
      <trkpt lat="61.736015975475311" lon="6.507632005959749">
        <ele>155.87</ele>
        <time>2017-06-20T08:00:10Z</time>
      </trkpt>
      <trkpt lat="61.736745033413172" lon="6.509584989398718">
        <ele>165</ele>
        <time>2017-06-20T08:00:18Z</time>
      </trkpt>
      <trkpt lat="61.73695701174438" lon="6.510356040671468">
        <ele>168.37</ele>
        <time>2017-06-20T08:00:21Z</time>
      </trkpt>
      <trkpt lat="61.737034041434526" lon="6.510551003739238">
        <ele>169.33000000000001</ele>
        <time>2017-06-20T08:00:22Z</time>
      </trkpt>
      <trkpt lat="61.737121967598796" lon="6.510715037584305">
        <ele>170.28999999999999</ele>
        <time>2017-06-20T08:00:23Z</time>
      </trkpt>
      <trkpt lat="61.737221041694283" lon="6.510850992053747">
        <ele>171.72999999999999</ele>
        <time>2017-06-20T08:00:24Z</time>
      </trkpt>
      <trkpt lat="61.737329000607133" lon="6.510949982330203">
        <ele>172.69</ele>
        <time>2017-06-20T08:00:25Z</time>
      </trkpt>
      <trkpt lat="61.737451963126659" lon="6.511003039777279">
        <ele>173.66</ele>
        <time>2017-06-20T08:00:26Z</time>
      </trkpt>
      <trkpt lat="61.737582972273231" lon="6.511005973443389">
        <ele>175.09999999999999</ele>
        <time>2017-06-20T08:00:27Z</time>
      </trkpt>
      <trkpt lat="61.73770803026855" lon="6.510968003422022">
        <ele>176.06</ele>
        <time>2017-06-20T08:00:28Z</time>
      </trkpt>
      <trkpt lat="61.737828981131315" lon="6.51087798178196">
        <ele>177.5</ele>
        <time>2017-06-20T08:00:29Z</time>
      </trkpt>
      <trkpt lat="61.737943980842829" lon="6.510730041190982">
        <ele>178.94</ele>
        <time>2017-06-20T08:00:30Z</time>
      </trkpt>
      <trkpt lat="61.738042971119285" lon="6.510543040931225">
        <ele>180.38</ele>
        <time>2017-06-20T08:00:31Z</time>
      </trkpt>
      <trkpt lat="61.738127963617444" lon="6.510328967124224">
        <ele>181.34999999999999</ele>
        <time>2017-06-20T08:00:32Z</time>
      </trkpt>
      <trkpt lat="61.738209016621113" lon="6.510100979357958">
        <ele>182.31</ele>
        <time>2017-06-20T08:00:33Z</time>
      </trkpt>
      <trkpt lat="61.738298032432795" lon="6.509881038218737">
        <ele>183.75</ele>
        <time>2017-06-20T08:00:34Z</time>
      </trkpt>
      <trkpt lat="61.738400962203741" lon="6.509688002988696">
        <ele>184.71000000000001</ele>
        <time>2017-06-20T08:00:35Z</time>
      </trkpt>
      <trkpt lat="61.738516967743635" lon="6.50952497497201">
        <ele>186.15000000000001</ele>
        <time>2017-06-20T08:00:36Z</time>
      </trkpt>
      <trkpt lat="61.738644037395716" lon="6.509405029937625">
        <ele>187.59</ele>
        <time>2017-06-20T08:00:37Z</time>
      </trkpt>
      <trkpt lat="61.738773034885526" lon="6.509336968883872">
        <ele>188.56</ele>
        <time>2017-06-20T08:00:38Z</time>
      </trkpt>
      <trkpt lat="61.738905971869826" lon="6.509308973327279">
        <ele>190</ele>
        <time>2017-06-20T08:00:39Z</time>
      </trkpt>
      <trkpt lat="61.739033963531256" lon="6.509292963892222">
        <ele>190.96000000000001</ele>
        <time>2017-06-20T08:00:40Z</time>
      </trkpt>
      <trkpt lat="61.739293970167637" lon="6.509253988042474">
        <ele>193.36000000000001</ele>
        <time>2017-06-20T08:00:42Z</time>
      </trkpt>
      <trkpt lat="61.739418022334576" lon="6.509183999150991">
        <ele>194.31999999999999</ele>
        <time>2017-06-20T08:00:43Z</time>
      </trkpt>
      <trkpt lat="61.73953696154058" lon="6.509075034409761">
        <ele>195.28</ele>
        <time>2017-06-20T08:00:44Z</time>
      </trkpt>
      <trkpt lat="61.73964399844408" lon="6.508924998342991">
        <ele>196.72999999999999</ele>
        <time>2017-06-20T08:00:45Z</time>
      </trkpt>
      <trkpt lat="61.739736031740904" lon="6.508735986426473">
        <ele>197.69</ele>
        <time>2017-06-20T08:00:46Z</time>
      </trkpt>
      <trkpt lat="61.73981498926878" lon="6.508512021973729">
        <ele>198.65000000000001</ele>
        <time>2017-06-20T08:00:47Z</time>
      </trkpt>
      <trkpt lat="61.739877015352249" lon="6.508260983973742">
        <ele>200.09</ele>
        <time>2017-06-20T08:00:48Z</time>
      </trkpt>
      <trkpt lat="61.739933006465435" lon="6.507994020357728">
        <ele>201.53</ele>
        <time>2017-06-20T08:00:49Z</time>
      </trkpt>
      <trkpt lat="61.740240035578609" lon="6.506535988301039">
        <ele>207.30000000000001</ele>
        <time>2017-06-20T08:00:54Z</time>
      </trkpt>
      <trkpt lat="61.7403319850564" lon="6.506251003593206">
        <ele>208.25999999999999</ele>
        <time>2017-06-20T08:00:55Z</time>
      </trkpt>
      <trkpt lat="61.740442039445043" lon="6.505993008613586">
        <ele>209.69999999999999</ele>
        <time>2017-06-20T08:00:56Z</time>
      </trkpt>
      <trkpt lat="61.740792989730835" lon="6.505212988704443">
        <ele>214.99000000000001</ele>
        <time>2017-06-20T08:00:59Z</time>
      </trkpt>
      <trkpt lat="61.740884017199278" lon="6.504908977076411">
        <ele>216.43000000000001</ele>
        <time>2017-06-20T08:01:00Z</time>
      </trkpt>
      <trkpt lat="61.741587007418275" lon="6.502679977566004">
        <ele>228.44999999999999</ele>
        <time>2017-06-20T08:01:08Z</time>
      </trkpt>
      <trkpt lat="61.74176998436451" lon="6.502087963744998">
        <ele>231.81</ele>
        <time>2017-06-20T08:01:10Z</time>
      </trkpt>
      <trkpt lat="61.741845002397895" lon="6.501751011237502">
        <ele>233.25999999999999</ele>
        <time>2017-06-20T08:01:11Z</time>
      </trkpt>
      <trkpt lat="61.741904010996222" lon="6.501392014324665">
        <ele>234.69999999999999</ele>
        <time>2017-06-20T08:01:12Z</time>
      </trkpt>
      <trkpt lat="61.741949021816254" lon="6.50101600214839">
        <ele>236.13999999999999</ele>
        <time>2017-06-20T08:01:13Z</time>
      </trkpt>
      <trkpt lat="61.741987997666001" lon="6.500646024942398">
        <ele>237.58000000000001</ele>
        <time>2017-06-20T08:01:14Z</time>
      </trkpt>
      <trkpt lat="61.742223026230931" lon="6.499177012592554">
        <ele>242.87</ele>
        <time>2017-06-20T08:01:18Z</time>
      </trkpt>
      <trkpt lat="61.742324028164148" lon="6.49882597848773">
        <ele>244.31</ele>
        <time>2017-06-20T08:01:19Z</time>
      </trkpt>
      <trkpt lat="61.742446990683675" lon="6.498487014323473">
        <ele>245.27000000000001</ele>
        <time>2017-06-20T08:01:20Z</time>
      </trkpt>
      <trkpt lat="61.743221981450915" lon="6.49600999429822">
        <ele>256.81</ele>
        <time>2017-06-20T08:01:27Z</time>
      </trkpt>
      <trkpt lat="61.743347961455584" lon="6.495693996548653">
        <ele>258.73000000000002</ele>
        <time>2017-06-20T08:01:28Z</time>
      </trkpt>
      <trkpt lat="61.743721039965749" lon="6.494767041876912">
        <ele>264.5</ele>
        <time>2017-06-20T08:01:31Z</time>
      </trkpt>
      <trkpt lat="61.743813995271921" lon="6.49439999833703">
        <ele>266.89999999999998</ele>
        <time>2017-06-20T08:01:32Z</time>
      </trkpt>
      <trkpt lat="61.743884989991784" lon="6.494017029181123">
        <ele>268.82999999999998</ele>
        <time>2017-06-20T08:01:33Z</time>
      </trkpt>
      <trkpt lat="61.744115995243192" lon="6.492031021043658">
        <ele>275.56</ele>
        <time>2017-06-20T08:01:38Z</time>
      </trkpt>
      <trkpt lat="61.744077019393444" lon="6.488402998074889">
        <ele>286.13</ele>
        <time>2017-06-20T08:01:47Z</time>
      </trkpt>
      <trkpt lat="61.74411297775805" lon="6.483857994899154">
        <ele>298.14999999999998</ele>
        <time>2017-06-20T08:01:58Z</time>
      </trkpt>
      <trkpt lat="61.744233006611466" lon="6.480543036013842">
        <ele>310.16000000000003</ele>
        <time>2017-06-20T08:02:07Z</time>
      </trkpt>
      <trkpt lat="61.744234012439847" lon="6.478833965957165">
        <ele>313.52999999999997</ele>
        <time>2017-06-20T08:02:13Z</time>
      </trkpt>
      <trkpt lat="61.744200987741351" lon="6.478575970977545">
        <ele>314.49000000000001</ele>
        <time>2017-06-20T08:02:14Z</time>
      </trkpt>
      <trkpt lat="61.743773007765412" lon="6.475524036213756">
        <ele>323.62</ele>
        <time>2017-06-20T08:02:24Z</time>
      </trkpt>
      <trkpt lat="61.743696983903646" lon="6.474170023575425">
        <ele>327.94999999999999</ele>
        <time>2017-06-20T08:02:28Z</time>
      </trkpt>
      <trkpt lat="61.743715004995465" lon="6.473822006955743">
        <ele>328.43000000000001</ele>
        <time>2017-06-20T08:02:29Z</time>
      </trkpt>
      <trkpt lat="61.743748029693961" lon="6.473497040569782">
        <ele>328.43000000000001</ele>
        <time>2017-06-20T08:02:30Z</time>
      </trkpt>
      <trkpt lat="61.743787005543709" lon="6.473199985921383">
        <ele>328.43000000000001</ele>
        <time>2017-06-20T08:02:31Z</time>
      </trkpt>
      <trkpt lat="61.743834028020501" lon="6.472920030355454">
        <ele>328.43000000000001</ele>
        <time>2017-06-20T08:02:32Z</time>
      </trkpt>
      <trkpt lat="61.743903011083603" lon="6.472360035404563">
        <ele>329.38999999999999</ele>
        <time>2017-06-20T08:02:34Z</time>
      </trkpt>
      <trkpt lat="61.743914997205138" lon="6.472111009061337">
        <ele>330.35000000000002</ele>
        <time>2017-06-20T08:02:35Z</time>
      </trkpt>
      <trkpt lat="61.74391801469028" lon="6.471896013244987">
        <ele>331.31</ele>
        <time>2017-06-20T08:02:36Z</time>
      </trkpt>
      <trkpt lat="61.7438979819417" lon="6.471070982515812">
        <ele>335.63999999999999</ele>
        <time>2017-06-20T08:02:42Z</time>
      </trkpt>
      <trkpt lat="61.743955984711647" lon="6.469138031825423">
        <ele>340.92000000000002</ele>
        <time>2017-06-20T08:02:50Z</time>
      </trkpt>
      <trkpt lat="61.744200987741351" lon="6.465660966932774">
        <ele>351.98000000000002</ele>
        <time>2017-06-20T08:03:00Z</time>
      </trkpt>
      <trkpt lat="61.744316993281245" lon="6.463990034535527">
        <ele>358.70999999999998</ele>
        <time>2017-06-20T08:03:06Z</time>
      </trkpt>
      <trkpt lat="61.744358986616135" lon="6.46343800239265">
        <ele>361.58999999999997</ele>
        <time>2017-06-20T08:03:09Z</time>
      </trkpt>
      <trkpt lat="61.744387988001108" lon="6.46326701156795">
        <ele>362.06999999999999</ele>
        <time>2017-06-20T08:03:10Z</time>
      </trkpt>
      <trkpt lat="61.744432998821139" lon="6.463107001036406">
        <ele>363.04000000000002</ele>
        <time>2017-06-20T08:03:11Z</time>
      </trkpt>
      <trkpt lat="61.744500976055861" lon="6.46296601742506">
        <ele>364</ele>
        <time>2017-06-20T08:03:12Z</time>
      </trkpt>
      <trkpt lat="61.744587980210781" lon="6.462872978299856">
        <ele>364.95999999999998</ele>
        <time>2017-06-20T08:03:13Z</time>
      </trkpt>
      <trkpt lat="61.744683030992746" lon="6.462820004671812">
        <ele>365.44</ele>
        <time>2017-06-20T08:03:14Z</time>
      </trkpt>
      <trkpt lat="61.744785960763693" lon="6.462838025763631">
        <ele>366.88</ele>
        <time>2017-06-20T08:03:15Z</time>
      </trkpt>
      <trkpt lat="61.74488796852529" lon="6.462918994948268">
        <ele>367.83999999999997</ele>
        <time>2017-06-20T08:03:16Z</time>
      </trkpt>
      <trkpt lat="61.744984025135636" lon="6.463056039065123">
        <ele>368.80000000000001</ele>
        <time>2017-06-20T08:03:17Z</time>
      </trkpt>
      <trkpt lat="61.745073040947318" lon="6.463242033496499">
        <ele>369.75999999999999</ele>
        <time>2017-06-20T08:03:18Z</time>
      </trkpt>
      <trkpt lat="61.745158033445477" lon="6.463465997949243">
        <ele>370.73000000000002</ele>
        <time>2017-06-20T08:03:19Z</time>
      </trkpt>
      <trkpt lat="61.745246965438128" lon="6.463715024292469">
        <ele>372.17000000000002</ele>
        <time>2017-06-20T08:03:20Z</time>
      </trkpt>
      <trkpt lat="61.746167968958616" lon="6.466287011280656">
        <ele>384.66000000000003</ele>
        <time>2017-06-20T08:03:29Z</time>
      </trkpt>
      <trkpt lat="61.74720598384738" lon="6.468590022996068">
        <ele>398.12</ele>
        <time>2017-06-20T08:03:37Z</time>
      </trkpt>
      <trkpt lat="61.747486023232341" lon="6.469034012407064">
        <ele>400.52999999999997</ele>
        <time>2017-06-20T08:03:39Z</time>
      </trkpt>
      <trkpt lat="61.747642010450363" lon="6.46921799518168">
        <ele>401.97000000000003</ele>
        <time>2017-06-20T08:03:40Z</time>
      </trkpt>
      <trkpt lat="61.748912958428264" lon="6.470952965319157">
        <ele>415.91000000000003</ele>
        <time>2017-06-20T08:03:48Z</time>
      </trkpt>
      <trkpt lat="61.749695995822549" lon="6.473312973976135">
        <ele>429.37</ele>
        <time>2017-06-20T08:03:55Z</time>
      </trkpt>
      <trkpt lat="61.75047199241817" lon="6.476529026404023">
        <ele>444.75</ele>
        <time>2017-06-20T08:04:04Z</time>
      </trkpt>
      <trkpt lat="61.750571988523006" lon="6.476743016391993">
        <ele>446.19</ele>
        <time>2017-06-20T08:04:05Z</time>
      </trkpt>
      <trkpt lat="61.750684976577759" lon="6.476936973631382">
        <ele>447.63</ele>
        <time>2017-06-20T08:04:06Z</time>
      </trkpt>
      <trkpt lat="61.750812968239188" lon="6.477107964456081">
        <ele>448.58999999999997</ele>
        <time>2017-06-20T08:04:07Z</time>
      </trkpt>
      <trkpt lat="61.750951018184423" lon="6.477262023836374">
        <ele>450.02999999999997</ele>
        <time>2017-06-20T08:04:08Z</time>
      </trkpt>
      <trkpt lat="61.752179972827435" lon="6.478055035695434">
        <ele>462.52999999999997</ele>
        <time>2017-06-20T08:04:15Z</time>
      </trkpt>
      <trkpt lat="61.752549028024077" lon="6.478328034281731">
        <ele>466.38</ele>
        <time>2017-06-20T08:04:17Z</time>
      </trkpt>
      <trkpt lat="61.752723958343267" lon="6.478513022884727">
        <ele>467.81999999999999</ele>
        <time>2017-06-20T08:04:18Z</time>
      </trkpt>
      <trkpt lat="61.752885980531573" lon="6.478734975680709">
        <ele>470.22000000000003</ele>
        <time>2017-06-20T08:04:19Z</time>
      </trkpt>
      <trkpt lat="61.753038028255105" lon="6.478993976488709">
        <ele>472.13999999999999</ele>
        <time>2017-06-20T08:04:20Z</time>
      </trkpt>
      <trkpt lat="61.753175994381309" lon="6.479284996166825">
        <ele>473.58999999999997</ele>
        <time>2017-06-20T08:04:21Z</time>
      </trkpt>
      <trkpt lat="61.753311026841402" lon="6.479597976431251">
        <ele>476.47000000000003</ele>
        <time>2017-06-20T08:04:22Z</time>
      </trkpt>
      <trkpt lat="61.75343600101769" lon="6.479929983615875">
        <ele>478.38999999999999</ele>
        <time>2017-06-20T08:04:23Z</time>
      </trkpt>
      <trkpt lat="61.753845037892461" lon="6.480893986299634">
        <ele>483.68000000000001</ele>
        <time>2017-06-20T08:04:26Z</time>
      </trkpt>
      <trkpt lat="61.754010999575257" lon="6.481162961572409">
        <ele>486.07999999999998</ele>
        <time>2017-06-20T08:04:27Z</time>
      </trkpt>
      <trkpt lat="61.75418802537024" lon="6.481403019279242">
        <ele>488.00999999999999</ele>
        <time>2017-06-20T08:04:28Z</time>
      </trkpt>
      <trkpt lat="61.7558219935745" lon="6.483196998015046">
        <ele>505.31</ele>
        <time>2017-06-20T08:04:37Z</time>
      </trkpt>
      <trkpt lat="61.756094992160797" lon="6.483595976606011">
        <ele>508.67000000000002</ele>
        <time>2017-06-20T08:04:39Z</time>
      </trkpt>
      <trkpt lat="61.756214015185833" lon="6.483821030706167">
        <ele>510.12</ele>
        <time>2017-06-20T08:04:40Z</time>
      </trkpt>
      <trkpt lat="61.756645012646914" lon="6.484696017578244">
        <ele>515.39999999999998</ele>
        <time>2017-06-20T08:04:44Z</time>
      </trkpt>
      <trkpt lat="61.756727993488312" lon="6.484925011172891">
        <ele>516.37</ele>
        <time>2017-06-20T08:04:45Z</time>
      </trkpt>
      <trkpt lat="61.756799994036555" lon="6.485174037516117">
        <ele>517.80999999999995</ele>
        <time>2017-06-20T08:04:46Z</time>
      </trkpt>
      <trkpt lat="61.757489992305636" lon="6.487081004306674">
        <ele>527.41999999999996</ele>
        <time>2017-06-20T08:04:53Z</time>
      </trkpt>
      <trkpt lat="61.757595017552376" lon="6.487397002056241">
        <ele>529.34000000000003</ele>
        <time>2017-06-20T08:04:54Z</time>
      </trkpt>
      <trkpt lat="61.757679004222155" lon="6.48773998953402">
        <ele>530.78999999999996</ele>
        <time>2017-06-20T08:04:55Z</time>
      </trkpt>
      <trkpt lat="61.757912021130323" lon="6.488828966394067">
        <ele>535.59000000000003</ele>
        <time>2017-06-20T08:04:58Z</time>
      </trkpt>
      <trkpt lat="61.758016040548682" lon="6.489166002720594">
        <ele>537.02999999999997</ele>
        <time>2017-06-20T08:04:59Z</time>
      </trkpt>
      <trkpt lat="61.758412001654506" lon="6.490826038643718">
        <ele>544.24000000000001</ele>
        <time>2017-06-20T08:05:04Z</time>
      </trkpt>
      <trkpt lat="61.758427005261183" lon="6.491148993372917">
        <ele>545.69000000000005</ele>
        <time>2017-06-20T08:05:05Z</time>
      </trkpt>
      <trkpt lat="61.758410995826125" lon="6.491484018042684">
        <ele>547.61000000000001</ele>
        <time>2017-06-20T08:05:06Z</time>
      </trkpt>
      <trkpt lat="61.758334971964359" lon="6.492728982120752">
        <ele>552.89999999999998</ele>
        <time>2017-06-20T08:05:10Z</time>
      </trkpt>
      <trkpt lat="61.758327009156346" lon="6.495038028806448">
        <ele>559.62</ele>
        <time>2017-06-20T08:05:17Z</time>
      </trkpt>
      <trkpt lat="61.758289039134979" lon="6.495313961058855">
        <ele>560.11000000000001</ele>
        <time>2017-06-20T08:05:18Z</time>
      </trkpt>
      <trkpt lat="61.758232964202762" lon="6.495544966310263">
        <ele>561.07000000000005</ele>
        <time>2017-06-20T08:05:19Z</time>
      </trkpt>
      <trkpt lat="61.758155012503266" lon="6.495741019025445">
        <ele>562.50999999999999</ele>
        <time>2017-06-20T08:05:20Z</time>
      </trkpt>
      <trkpt lat="61.758049987256527" lon="6.495914021506906">
        <ele>563.95000000000005</ele>
        <time>2017-06-20T08:05:21Z</time>
      </trkpt>
      <trkpt lat="61.757935993373394" lon="6.496079983189702">
        <ele>565.38999999999999</ele>
        <time>2017-06-20T08:05:22Z</time>
      </trkpt>
      <trkpt lat="61.757610021159053" lon="6.496637966483831">
        <ele>568.75999999999999</ele>
        <time>2017-06-20T08:05:25Z</time>
      </trkpt>
      <trkpt lat="61.757530979812145" lon="6.496870983392">
        <ele>570.20000000000005</ele>
        <time>2017-06-20T08:05:26Z</time>
      </trkpt>
      <trkpt lat="61.757469037547708" lon="6.497133001685143">
        <ele>571.15999999999997</ele>
        <time>2017-06-20T08:05:27Z</time>
      </trkpt>
      <trkpt lat="61.757426038384438" lon="6.497414968907833">
        <ele>572.60000000000002</ele>
        <time>2017-06-20T08:05:28Z</time>
      </trkpt>
      <trkpt lat="61.757408017292619" lon="6.49770699441433">
        <ele>573.55999999999995</ele>
        <time>2017-06-20T08:05:29Z</time>
      </trkpt>
      <trkpt lat="61.757421009242535" lon="6.497987033799291">
        <ele>575.00999999999999</ele>
        <time>2017-06-20T08:05:30Z</time>
      </trkpt>
      <trkpt lat="61.757458979263902" lon="6.498255003243685">
        <ele>575.97000000000003</ele>
        <time>2017-06-20T08:05:31Z</time>
      </trkpt>
      <trkpt lat="61.757528968155384" lon="6.498494977131486">
        <ele>576.92999999999995</ele>
        <time>2017-06-20T08:05:32Z</time>
      </trkpt>
      <trkpt lat="61.75762502476573" lon="6.498703015968204">
        <ele>577.88999999999999</ele>
        <time>2017-06-20T08:05:33Z</time>
      </trkpt>
      <trkpt lat="61.75773499533534" lon="6.498891022056341">
        <ele>579.33000000000004</ele>
        <time>2017-06-20T08:05:34Z</time>
      </trkpt>
      <trkpt lat="61.757859969511628" lon="6.499065030366182">
        <ele>580.28999999999996</ele>
        <time>2017-06-20T08:05:35Z</time>
      </trkpt>
      <trkpt lat="61.757990978658199" lon="6.499239038676024">
        <ele>581.73000000000002</ele>
        <time>2017-06-20T08:05:36Z</time>
      </trkpt>
      <trkpt lat="61.758791031315923" lon="6.500223996117711">
        <ele>588.95000000000005</ele>
        <time>2017-06-20T08:05:42Z</time>
      </trkpt>
      <trkpt lat="61.758928997442126" lon="6.500308988615871">
        <ele>589.90999999999997</ele>
        <time>2017-06-20T08:05:43Z</time>
      </trkpt>
      <trkpt lat="61.759077021852136" lon="6.500375038012862">
        <ele>590.87</ele>
        <time>2017-06-20T08:05:44Z</time>
      </trkpt>
      <trkpt lat="61.760622980073094" lon="6.501092026010156">
        <ele>603.36000000000001</ele>
        <time>2017-06-20T08:05:53Z</time>
      </trkpt>
      <trkpt lat="61.76222300156951" lon="6.502577969804406">
        <ele>618.25999999999999</ele>
        <time>2017-06-20T08:06:02Z</time>
      </trkpt>
      <trkpt lat="61.763849006965756" lon="6.503957966342568">
        <ele>630.27999999999997</ele>
        <time>2017-06-20T08:06:12Z</time>
      </trkpt>
      <trkpt lat="61.765738958492875" lon="6.504295002669096">
        <ele>635.09000000000003</ele>
        <time>2017-06-20T08:06:25Z</time>
      </trkpt>
      <trkpt lat="61.767532015219331" lon="6.504701022058725">
        <ele>637.49000000000001</ele>
        <time>2017-06-20T08:06:36Z</time>
      </trkpt>
      <trkpt lat="61.769670993089676" lon="6.504807975143194">
        <ele>631.72000000000003</ele>
        <time>2017-06-20T08:06:48Z</time>
      </trkpt>
      <trkpt lat="61.77092500962317" lon="6.503797033801675">
        <ele>624.02999999999997</ele>
        <time>2017-06-20T08:06:55Z</time>
      </trkpt>
      <trkpt lat="61.772315986454487" lon="6.502355011180043">
        <ele>613.94000000000005</ele>
        <time>2017-06-20T08:07:03Z</time>
      </trkpt>
      <trkpt lat="61.772446995601058" lon="6.502136997878552">
        <ele>612.98000000000002</ele>
        <time>2017-06-20T08:07:04Z</time>
      </trkpt>
      <trkpt lat="61.772554032504559" lon="6.501883026212454">
        <ele>611.53999999999996</ele>
        <time>2017-06-20T08:07:05Z</time>
      </trkpt>
      <trkpt lat="61.77264497615397" lon="6.501588989049196">
        <ele>610.57000000000005</ele>
        <time>2017-06-20T08:07:06Z</time>
      </trkpt>
      <trkpt lat="61.7727280408144" lon="6.501261005178094">
        <ele>608.64999999999998</ele>
        <time>2017-06-20T08:07:07Z</time>
      </trkpt>
      <trkpt lat="61.773295998573303" lon="6.499655032530427">
        <ele>602.88</ele>
        <time>2017-06-20T08:07:12Z</time>
      </trkpt>
      <trkpt lat="61.773450979962945" lon="6.499411035329104">
        <ele>602.39999999999998</ele>
        <time>2017-06-20T08:07:13Z</time>
      </trkpt>
      <trkpt lat="61.773618031293154" lon="6.499205008149147">
        <ele>601.44000000000005</ele>
        <time>2017-06-20T08:07:14Z</time>
      </trkpt>
      <trkpt lat="61.773795979097486" lon="6.499025970697403">
        <ele>601.44000000000005</ele>
        <time>2017-06-20T08:07:15Z</time>
      </trkpt>
      <trkpt lat="61.773979039862752" lon="6.498868977651">
        <ele>601.44000000000005</ele>
        <time>2017-06-20T08:07:16Z</time>
      </trkpt>
      <trkpt lat="61.775377979502082" lon="6.49749199859798">
        <ele>599.03999999999996</ele>
        <time>2017-06-20T08:07:24Z</time>
      </trkpt>
      <trkpt lat="61.776587991043925" lon="6.496190959587693">
        <ele>588.46000000000004</ele>
        <time>2017-06-20T08:07:31Z</time>
      </trkpt>
      <trkpt lat="61.776924021542072" lon="6.495784018188715">
        <ele>584.62</ele>
        <time>2017-06-20T08:07:33Z</time>
      </trkpt>
      <trkpt lat="61.777089983224869" lon="6.495671030133963">
        <ele>583.17999999999995</ele>
        <time>2017-06-20T08:07:34Z</time>
      </trkpt>
      <trkpt lat="61.777253011241555" lon="6.495625013485551">
        <ele>582.22000000000003</ele>
        <time>2017-06-20T08:07:35Z</time>
      </trkpt>
      <trkpt lat="61.7774130217731" lon="6.49564404040575">
        <ele>581.73000000000002</ele>
        <time>2017-06-20T08:07:36Z</time>
      </trkpt>
      <trkpt lat="61.777579989284277" lon="6.495722997933626">
        <ele>581.73000000000002</ele>
        <time>2017-06-20T08:07:37Z</time>
      </trkpt>
      <trkpt lat="61.777744023129344" lon="6.495862975716591">
        <ele>581.73000000000002</ele>
        <time>2017-06-20T08:07:38Z</time>
      </trkpt>
      <trkpt lat="61.777905039489269" lon="6.496046036481857">
        <ele>581.73000000000002</ele>
        <time>2017-06-20T08:07:39Z</time>
      </trkpt>
      <trkpt lat="61.778063960373402" lon="6.496264971792698">
        <ele>582.22000000000003</ele>
        <time>2017-06-20T08:07:40Z</time>
      </trkpt>
      <trkpt lat="61.779835978522897" lon="6.498745009303093">
        <ele>572.12</ele>
        <time>2017-06-20T08:07:50Z</time>
      </trkpt>
      <trkpt lat="61.780863013118505" lon="6.500174961984158">
        <ele>563.95000000000005</ele>
        <time>2017-06-20T08:07:56Z</time>
      </trkpt>
      <trkpt lat="61.781019000336528" lon="6.500306976959109">
        <ele>563.47000000000003</ele>
        <time>2017-06-20T08:07:57Z</time>
      </trkpt>
      <trkpt lat="61.782389022409916" lon="6.500911982730031">
        <ele>556.25999999999999</ele>
        <time>2017-06-20T08:08:05Z</time>
      </trkpt>
      <trkpt lat="61.78255096077919" lon="6.501022037118673">
        <ele>555.29999999999995</ele>
        <time>2017-06-20T08:08:06Z</time>
      </trkpt>
      <trkpt lat="61.782704014331102" lon="6.501163020730019">
        <ele>554.34000000000003</ele>
        <time>2017-06-20T08:08:07Z</time>
      </trkpt>
      <trkpt lat="61.782848015427589" lon="6.501335017383099">
        <ele>553.38</ele>
        <time>2017-06-20T08:08:08Z</time>
      </trkpt>
      <trkpt lat="61.783352019265294" lon="6.502058040350676">
        <ele>549.04999999999995</ele>
        <time>2017-06-20T08:08:12Z</time>
      </trkpt>
      <trkpt lat="61.783471964299679" lon="6.502171028405428">
        <ele>548.57000000000005</ele>
        <time>2017-06-20T08:08:13Z</time>
      </trkpt>
      <trkpt lat="61.78360003978014" lon="6.502235988155007">
        <ele>547.61000000000001</ele>
        <time>2017-06-20T08:08:14Z</time>
      </trkpt>
      <trkpt lat="61.783734988421202" lon="6.502260966226459">
        <ele>546.64999999999998</ele>
        <time>2017-06-20T08:08:15Z</time>
      </trkpt>
      <trkpt lat="61.783870020881295" lon="6.502242023125291">
        <ele>545.20000000000005</ele>
        <time>2017-06-20T08:08:16Z</time>
      </trkpt>
      <trkpt lat="61.783997006714344" lon="6.502145966514945">
        <ele>543.27999999999997</ele>
        <time>2017-06-20T08:08:17Z</time>
      </trkpt>
      <trkpt lat="61.784113012254238" lon="6.502006994560361">
        <ele>542.32000000000005</ele>
        <time>2017-06-20T08:08:18Z</time>
      </trkpt>
      <trkpt lat="61.784215020015836" lon="6.501813037320972">
        <ele>541.36000000000001</ele>
        <time>2017-06-20T08:08:19Z</time>
      </trkpt>
      <trkpt lat="61.784305041655898" lon="6.501578008756042">
        <ele>538.96000000000004</ele>
        <time>2017-06-20T08:08:20Z</time>
      </trkpt>
      <trkpt lat="61.784382993355393" lon="6.501325964927673">
        <ele>537.50999999999999</ele>
        <time>2017-06-20T08:08:21Z</time>
      </trkpt>
      <trkpt lat="61.784457005560398" lon="6.501067969948053">
        <ele>535.11000000000001</ele>
        <time>2017-06-20T08:08:22Z</time>
      </trkpt>
      <trkpt lat="61.784539986401796" lon="6.500817015767098">
        <ele>534.14999999999998</ele>
        <time>2017-06-20T08:08:23Z</time>
      </trkpt>
      <trkpt lat="61.784640988335013" lon="6.500616017729044">
        <ele>533.66999999999996</ele>
        <time>2017-06-20T08:08:24Z</time>
      </trkpt>
      <trkpt lat="61.784750036895275" lon="6.500468999147415">
        <ele>532.23000000000002</ele>
        <time>2017-06-20T08:08:25Z</time>
      </trkpt>
      <trkpt lat="61.784871993586421" lon="6.500364979729056">
        <ele>532.23000000000002</ele>
        <time>2017-06-20T08:08:26Z</time>
      </trkpt>
      <trkpt lat="61.785000991076231" lon="6.500291973352432">
        <ele>531.75</ele>
        <time>2017-06-20T08:08:27Z</time>
      </trkpt>
      <trkpt lat="61.785135017707944" lon="6.500247968360782">
        <ele>531.26999999999998</ele>
        <time>2017-06-20T08:08:28Z</time>
      </trkpt>
      <trkpt lat="61.785274995490909" lon="6.500227013602853">
        <ele>530.78999999999996</ele>
        <time>2017-06-20T08:08:29Z</time>
      </trkpt>
      <trkpt lat="61.785416984930634" lon="6.500227013602853">
        <ele>529.82000000000005</ele>
        <time>2017-06-20T08:08:30Z</time>
      </trkpt>
      <trkpt lat="61.785568026825786" lon="6.500233970582485">
        <ele>528.86000000000001</ele>
        <time>2017-06-20T08:08:31Z</time>
      </trkpt>
      <trkpt lat="61.787760984152555" lon="6.500374032184482">
        <ele>513.96000000000004</ele>
        <time>2017-06-20T08:08:45Z</time>
      </trkpt>
      <trkpt lat="61.788767985999584" lon="6.500039007514715">
        <ele>507.23000000000002</ele>
        <time>2017-06-20T08:08:53Z</time>
      </trkpt>
      <trkpt lat="61.788865970447659" lon="6.499924007803202">
        <ele>506.75</ele>
        <time>2017-06-20T08:08:54Z</time>
      </trkpt>
      <trkpt lat="61.788965966552496" lon="6.499772965908051">
        <ele>506.26999999999998</ele>
        <time>2017-06-20T08:08:55Z</time>
      </trkpt>
      <trkpt lat="61.789584970101714" lon="6.49880301207304">
        <ele>500.98000000000002</ele>
        <time>2017-06-20T08:09:01Z</time>
      </trkpt>
      <trkpt lat="61.78968102671206" lon="6.498718019574881">
        <ele>500.01999999999998</ele>
        <time>2017-06-20T08:09:02Z</time>
      </trkpt>
      <trkpt lat="61.78976995870471" lon="6.498664962127805">
        <ele>499.06</ele>
        <time>2017-06-20T08:09:03Z</time>
      </trkpt>
      <trkpt lat="61.789852017536759" lon="6.498634032905102">
        <ele>498.57999999999998</ele>
        <time>2017-06-20T08:09:04Z</time>
      </trkpt>
      <trkpt lat="61.789928963407874" lon="6.498619029298425">
        <ele>497.62</ele>
        <time>2017-06-20T08:09:05Z</time>
      </trkpt>
      <trkpt lat="61.79000498726964" lon="6.498612994328141">
        <ele>497.13999999999999</ele>
        <time>2017-06-20T08:09:06Z</time>
      </trkpt>
      <trkpt lat="61.790811996906996" lon="6.498202029615641">
        <ele>489.44999999999999</ele>
        <time>2017-06-20T08:09:15Z</time>
      </trkpt>
      <trkpt lat="61.790901012718678" lon="6.498087029904127">
        <ele>488.49000000000001</ele>
        <time>2017-06-20T08:09:16Z</time>
      </trkpt>
      <trkpt lat="61.790989022701979" lon="6.49794596247375">
        <ele>488.00999999999999</ele>
        <time>2017-06-20T08:09:17Z</time>
      </trkpt>
      <trkpt lat="61.791068986058235" lon="6.497787963598967">
        <ele>487.05000000000001</ele>
        <time>2017-06-20T08:09:18Z</time>
      </trkpt>
      <trkpt lat="61.792013039812446" lon="6.495641022920609">
        <ele>473.58999999999997</ele>
        <time>2017-06-20T08:09:32Z</time>
      </trkpt>
      <trkpt lat="61.792229041457176" lon="6.495144981890917">
        <ele>470.69999999999999</ele>
        <time>2017-06-20T08:09:41Z</time>
      </trkpt>
      <trkpt lat="61.792318979278207" lon="6.495069041848183">
        <ele>471.18000000000001</ele>
        <time>2017-06-20T08:09:53Z</time>
      </trkpt>
      <trkpt lat="61.792328031733632" lon="6.495051020756364">
        <ele>471.66000000000003</ele>
        <time>2017-06-20T08:10:24Z</time>
      </trkpt>
      <trkpt lat="61.792329037562013" lon="6.495051020756364">
        <ele>471.66000000000003</ele>
        <time>2017-06-20T08:12:25Z</time>
      </trkpt>
      <trkpt lat="61.792330965399742" lon="6.495054038241506">
        <ele>471.66000000000003</ele>
        <time>2017-06-20T08:14:39Z</time>
      </trkpt>
      <trkpt lat="61.792340017855167" lon="6.495016990229487">
        <ele>472.63</ele>
        <time>2017-06-20T08:15:04Z</time>
      </trkpt>
      <trkpt lat="61.792344963178039" lon="6.494982959702611">
        <ele>472.13999999999999</ele>
        <time>2017-06-20T08:15:05Z</time>
      </trkpt>
      <trkpt lat="61.792344963178039" lon="6.494939960539341">
        <ele>472.13999999999999</ele>
        <time>2017-06-20T08:15:06Z</time>
      </trkpt>
      <trkpt lat="61.792340017855167" lon="6.494894027709961">
        <ele>472.13999999999999</ele>
        <time>2017-06-20T08:15:07Z</time>
      </trkpt>
      <trkpt lat="61.792334988713264" lon="6.49485002271831">
        <ele>472.13999999999999</ele>
        <time>2017-06-20T08:15:08Z</time>
      </trkpt>
      <trkpt lat="61.792327025905252" lon="6.494651036337018">
        <ele>471.66000000000003</ele>
        <time>2017-06-20T08:15:11Z</time>
      </trkpt>
      <trkpt lat="61.792330965399742" lon="6.494584986940026">
        <ele>471.18000000000001</ele>
        <time>2017-06-20T08:15:12Z</time>
      </trkpt>
      <trkpt lat="61.792350998148322" lon="6.494368985295296">
        <ele>470.22000000000003</ele>
        <time>2017-06-20T08:15:15Z</time>
      </trkpt>
      <trkpt lat="61.792374970391393" lon="6.49431299418211">
        <ele>469.74000000000001</ele>
        <time>2017-06-20T08:15:16Z</time>
      </trkpt>
      <trkpt lat="61.792406989261508" lon="6.494284998625517">
        <ele>468.77999999999997</ele>
        <time>2017-06-20T08:15:17Z</time>
      </trkpt>
      <trkpt lat="61.792435990646482" lon="6.494309976696968">
        <ele>467.81999999999999</ele>
        <time>2017-06-20T08:15:18Z</time>
      </trkpt>
      <trkpt lat="61.792460968717933" lon="6.494365967810154">
        <ele>466.38</ele>
        <time>2017-06-20T08:15:19Z</time>
      </trkpt>
      <trkpt lat="61.792489970102906" lon="6.494456995278597">
        <ele>467.33999999999997</ele>
        <time>2017-06-20T08:15:20Z</time>
      </trkpt>
      <trkpt lat="61.792502040043473" lon="6.494583981111646">
        <ele>466.86000000000001</ele>
        <time>2017-06-20T08:15:21Z</time>
      </trkpt>
      <trkpt lat="61.792499022558331" lon="6.49474298581481">
        <ele>465.89999999999998</ele>
        <time>2017-06-20T08:15:22Z</time>
      </trkpt>
      <trkpt lat="61.792486030608416" lon="6.494907019659877">
        <ele>464.93000000000001</ele>
        <time>2017-06-20T08:15:23Z</time>
      </trkpt>
      <trkpt lat="61.792468009516597" lon="6.495074992999435">
        <ele>463.97000000000003</ele>
        <time>2017-06-20T08:15:24Z</time>
      </trkpt>
      <trkpt lat="61.792299030348659" lon="6.496770987287164">
        <ele>453.88</ele>
        <time>2017-06-20T08:15:31Z</time>
      </trkpt>
      <trkpt lat="61.792287966236472" lon="6.499312967061997">
        <ele>438.01999999999998</ele>
        <time>2017-06-20T08:15:39Z</time>
      </trkpt>
      <trkpt lat="61.792268017306924" lon="6.499615972861648">
        <ele>435.61000000000001</ele>
        <time>2017-06-20T08:15:40Z</time>
      </trkpt>
      <trkpt lat="61.792058972641826" lon="6.501959972083569">
        <ele>421.19</ele>
        <time>2017-06-20T08:15:47Z</time>
      </trkpt>
      <trkpt lat="61.792010022327304" lon="6.502995975315571">
        <ele>416.38999999999999</ele>
        <time>2017-06-20T08:15:50Z</time>
      </trkpt>
      <trkpt lat="61.792022008448839" lon="6.50333502329886">
        <ele>415.43000000000001</ele>
        <time>2017-06-20T08:15:51Z</time>
      </trkpt>
      <trkpt lat="61.792188975960016" lon="6.506577981635928">
        <ele>397.16000000000003</ele>
        <time>2017-06-20T08:16:00Z</time>
      </trkpt>
      <trkpt lat="61.792100965976715" lon="6.508233994245529">
        <ele>388.02999999999997</ele>
        <time>2017-06-20T08:16:05Z</time>
      </trkpt>
      <trkpt lat="61.792125022038817" lon="6.508544040843844">
        <ele>387.06999999999999</ele>
        <time>2017-06-20T08:16:06Z</time>
      </trkpt>
      <trkpt lat="61.792169027030468" lon="6.50885702110827">
        <ele>386.58999999999997</ele>
        <time>2017-06-20T08:16:07Z</time>
      </trkpt>
      <trkpt lat="61.792219989001751" lon="6.509177964180708">
        <ele>384.66000000000003</ele>
        <time>2017-06-20T08:16:08Z</time>
      </trkpt>
      <trkpt lat="61.792297018691897" lon="6.509493039920926">
        <ele>384.66000000000003</ele>
        <time>2017-06-20T08:16:09Z</time>
      </trkpt>
      <trkpt lat="61.79239097982645" lon="6.509801996871829">
        <ele>385.14999999999998</ele>
        <time>2017-06-20T08:16:10Z</time>
      </trkpt>
      <trkpt lat="61.792488964274526" lon="6.510096034035087">
        <ele>385.14999999999998</ele>
        <time>2017-06-20T08:16:11Z</time>
      </trkpt>
      <trkpt lat="61.79258200339973" lon="6.510384036228061">
        <ele>383.69999999999999</ele>
        <time>2017-06-20T08:16:12Z</time>
      </trkpt>
      <trkpt lat="61.792815020307899" lon="6.511223986744881">
        <ele>382.25999999999999</ele>
        <time>2017-06-20T08:16:15Z</time>
      </trkpt>
      <trkpt lat="61.792849972844124" lon="6.511503020301461">
        <ele>381.77999999999997</ele>
        <time>2017-06-20T08:16:16Z</time>
      </trkpt>
      <trkpt lat="61.792859025299549" lon="6.511770989745855">
        <ele>380.33999999999997</ele>
        <time>2017-06-20T08:16:17Z</time>
      </trkpt>
      <trkpt lat="61.792849972844124" lon="6.512026973068714">
        <ele>379.38</ele>
        <time>2017-06-20T08:16:18Z</time>
      </trkpt>
      <trkpt lat="61.792809991165996" lon="6.512278011068702">
        <ele>377.44999999999999</ele>
        <time>2017-06-20T08:16:19Z</time>
      </trkpt>
      <trkpt lat="61.792765986174345" lon="6.512538017705083">
        <ele>376.49000000000001</ele>
        <time>2017-06-20T08:16:20Z</time>
      </trkpt>
      <trkpt lat="61.79273103363812" lon="6.51281101629138">
        <ele>376.00999999999999</ele>
        <time>2017-06-20T08:16:21Z</time>
      </trkpt>
      <trkpt lat="61.792718963697553" lon="6.513087032362819">
        <ele>376.00999999999999</ele>
        <time>2017-06-20T08:16:22Z</time>
      </trkpt>
      <trkpt lat="61.792728016152978" lon="6.513361958786845">
        <ele>375.52999999999997</ele>
        <time>2017-06-20T08:16:23Z</time>
      </trkpt>
      <trkpt lat="61.792750982567668" lon="6.513641998171806">
        <ele>374.08999999999997</ele>
        <time>2017-06-20T08:16:24Z</time>
      </trkpt>
      <trkpt lat="61.792784007266164" lon="6.513936035335064">
        <ele>373.61000000000001</ele>
        <time>2017-06-20T08:16:25Z</time>
      </trkpt>
      <trkpt lat="61.793093970045447" lon="6.517378985881805">
        <ele>368.31999999999999</ele>
        <time>2017-06-20T08:16:35Z</time>
      </trkpt>
      <trkpt lat="61.793048959225416" lon="6.520622028037906">
        <ele>354.86000000000001</ele>
        <time>2017-06-20T08:16:44Z</time>
      </trkpt>
      <trkpt lat="61.793037978932261" lon="6.520952023565769">
        <ele>353.42000000000002</ele>
        <time>2017-06-20T08:16:45Z</time>
      </trkpt>
      <trkpt lat="61.793030016124249" lon="6.521315965801477">
        <ele>351.98000000000002</ele>
        <time>2017-06-20T08:16:46Z</time>
      </trkpt>
      <trkpt lat="61.793052982538939" lon="6.521651996299624">
        <ele>350.06</ele>
        <time>2017-06-20T08:16:47Z</time>
      </trkpt>
      <trkpt lat="61.793385995551944" lon="6.525739012286067">
        <ele>344.76999999999998</ele>
        <time>2017-06-20T08:16:58Z</time>
      </trkpt>
      <trkpt lat="61.79382998496294" lon="6.530250990763307">
        <ele>337.56</ele>
        <time>2017-06-20T08:17:10Z</time>
      </trkpt>
      <trkpt lat="61.794254025444388" lon="6.532634971663356">
        <ele>331.79000000000002</ele>
        <time>2017-06-20T08:17:18Z</time>
      </trkpt>
      <trkpt lat="61.794329965487123" lon="6.532974019646645">
        <ele>328.43000000000001</ele>
        <time>2017-06-20T08:17:20Z</time>
      </trkpt>
      <trkpt lat="61.794376987963915" lon="6.533102011308074">
        <ele>326.99000000000001</ele>
        <time>2017-06-20T08:17:21Z</time>
      </trkpt>
      <trkpt lat="61.794386962428689" lon="6.533169988542795">
        <ele>314.49000000000001</ele>
        <time>2017-06-20T08:17:22Z</time>
      </trkpt>
      <trkpt lat="61.794440019875765" lon="6.533185997977853">
        <ele>307.75999999999999</ele>
        <time>2017-06-20T08:17:23Z</time>
      </trkpt>
      <trkpt lat="61.794520989060402" lon="6.533150039613247">
        <ele>306.80000000000001</ele>
        <time>2017-06-20T08:17:24Z</time>
      </trkpt>
      <trkpt lat="61.794588966295123" lon="6.533043002709746">
        <ele>305.83999999999997</ele>
        <time>2017-06-20T08:17:25Z</time>
      </trkpt>
      <trkpt lat="61.794634982943535" lon="6.532871006056666">
        <ele>303.91000000000003</ele>
        <time>2017-06-20T08:17:26Z</time>
      </trkpt>
      <trkpt lat="61.794635988771915" lon="6.532643018290401">
        <ele>298.63</ele>
        <time>2017-06-20T08:17:27Z</time>
      </trkpt>
      <trkpt lat="61.794632971286774" lon="6.532388040795922">
        <ele>295.25999999999999</ele>
        <time>2017-06-20T08:17:28Z</time>
      </trkpt>
      <trkpt lat="61.794606987386942" lon="6.531494027003646">
        <ele>284.69</ele>
        <time>2017-06-20T08:17:31Z</time>
      </trkpt>
      <trkpt lat="61.794635988771915" lon="6.531164031475782">
        <ele>283.25</ele>
        <time>2017-06-20T08:17:32Z</time>
      </trkpt>
      <trkpt lat="61.79468896239996" lon="6.530829006806016">
        <ele>283.25</ele>
        <time>2017-06-20T08:17:33Z</time>
      </trkpt>
      <trkpt lat="61.794754005968571" lon="6.530489036813378">
        <ele>282.76999999999998</ele>
        <time>2017-06-20T08:17:34Z</time>
      </trkpt>
      <trkpt lat="61.794836986809969" lon="6.530156023800373">
        <ele>283.25</ele>
        <time>2017-06-20T08:17:35Z</time>
      </trkpt>
      <trkpt lat="61.794899012893438" lon="6.529809013009071">
        <ele>283.25</ele>
        <time>2017-06-20T08:17:36Z</time>
      </trkpt>
      <trkpt lat="61.795721026137471" lon="6.526569994166493">
        <ele>267.86000000000001</ele>
        <time>2017-06-20T08:17:46Z</time>
      </trkpt>
      <trkpt lat="61.795953959226608" lon="6.525839008390904">
        <ele>264.01999999999998</ele>
        <time>2017-06-20T08:17:49Z</time>
      </trkpt>
      <trkpt lat="61.796036018058658" lon="6.525661982595921">
        <ele>262.10000000000002</ele>
        <time>2017-06-20T08:17:50Z</time>
      </trkpt>
      <trkpt lat="61.796121010556817" lon="6.525502977892757">
        <ele>260.64999999999998</ele>
        <time>2017-06-20T08:17:51Z</time>
      </trkpt>
      <trkpt lat="61.796202985569835" lon="6.525373980402947">
        <ele>259.20999999999998</ele>
        <time>2017-06-20T08:17:52Z</time>
      </trkpt>
      <trkpt lat="61.796280015259981" lon="6.525256969034672">
        <ele>258.73000000000002</ele>
        <time>2017-06-20T08:17:53Z</time>
      </trkpt>
      <trkpt lat="61.796419993042946" lon="6.525034010410309">
        <ele>257.29000000000002</ele>
        <time>2017-06-20T08:17:55Z</time>
      </trkpt>
      <trkpt lat="61.796485036611557" lon="6.524897972121835">
        <ele>256.32999999999998</ele>
        <time>2017-06-20T08:17:56Z</time>
      </trkpt>
      <trkpt lat="61.796532981097698" lon="6.524734022095799">
        <ele>254.41</ele>
        <time>2017-06-20T08:17:57Z</time>
      </trkpt>
      <trkpt lat="61.796568017452955" lon="6.524540986865759">
        <ele>252.47999999999999</ele>
        <time>2017-06-20T08:17:58Z</time>
      </trkpt>
      <trkpt lat="61.796594001352787" lon="6.524319034069777">
        <ele>252</ele>
        <time>2017-06-20T08:17:59Z</time>
      </trkpt>
      <trkpt lat="61.796604981645942" lon="6.524072019383311">
        <ele>251.03999999999999</ele>
        <time>2017-06-20T08:18:00Z</time>
      </trkpt>
      <trkpt lat="61.796615961939096" lon="6.523823998868465">
        <ele>250.08000000000001</ele>
        <time>2017-06-20T08:18:01Z</time>
      </trkpt>
      <trkpt lat="61.796699026599526" lon="6.522589009255171">
        <ele>244.31</ele>
        <time>2017-06-20T08:18:06Z</time>
      </trkpt>
      <trkpt lat="61.796759041026235" lon="6.52235196903348">
        <ele>243.83000000000001</ele>
        <time>2017-06-20T08:18:07Z</time>
      </trkpt>
      <trkpt lat="61.797308977693319" lon="6.520255990326405">
        <ele>236.62</ele>
        <time>2017-06-20T08:18:15Z</time>
      </trkpt>
      <trkpt lat="61.797742992639542" lon="6.518270988017321">
        <ele>226.05000000000001</ele>
        <time>2017-06-20T08:18:22Z</time>
      </trkpt>
      <trkpt lat="61.797856986522675" lon="6.517642010003328">
        <ele>222.19999999999999</ele>
        <time>2017-06-20T08:18:26Z</time>
      </trkpt>
      <trkpt lat="61.797891017049551" lon="6.51753899641335">
        <ele>221.24000000000001</ele>
        <time>2017-06-20T08:18:27Z</time>
      </trkpt>
      <trkpt lat="61.797934016212821" lon="6.517465990036726">
        <ele>221.24000000000001</ele>
        <time>2017-06-20T08:18:28Z</time>
      </trkpt>
      <trkpt lat="61.797981038689613" lon="6.51743296533823">
        <ele>221.24000000000001</ele>
        <time>2017-06-20T08:18:29Z</time>
      </trkpt>
      <trkpt lat="61.798037029802799" lon="6.517448974773288">
        <ele>220.75999999999999</ele>
        <time>2017-06-20T08:18:30Z</time>
      </trkpt>
      <trkpt lat="61.798094026744366" lon="6.517514018341899">
        <ele>220.28</ele>
        <time>2017-06-20T08:18:31Z</time>
      </trkpt>
      <trkpt lat="61.798144988715649" lon="6.517646033316851">
        <ele>220.28</ele>
        <time>2017-06-20T08:18:32Z</time>
      </trkpt>
      <trkpt lat="61.798181030899286" lon="6.517842002213001">
        <ele>220.28</ele>
        <time>2017-06-20T08:18:33Z</time>
      </trkpt>
      <trkpt lat="61.798203997313976" lon="6.518102008849382">
        <ele>219.80000000000001</ele>
        <time>2017-06-20T08:18:34Z</time>
      </trkpt>
      <trkpt lat="61.798215983435512" lon="6.518414989113808">
        <ele>218.36000000000001</ele>
        <time>2017-06-20T08:18:35Z</time>
      </trkpt>
      <trkpt lat="61.798312962055206" lon="6.521124020218849">
        <ele>206.34</ele>
        <time>2017-06-20T08:18:43Z</time>
      </trkpt>
      <trkpt lat="61.798390997573733" lon="6.522613987326622">
        <ele>198.16999999999999</ele>
        <time>2017-06-20T08:18:48Z</time>
      </trkpt>
      <trkpt lat="61.798438020050526" lon="6.522873993963003">
        <ele>197.21000000000001</ele>
        <time>2017-06-20T08:18:49Z</time>
      </trkpt>
      <trkpt lat="61.798484958708286" lon="6.523112962022424">
        <ele>193.84</ele>
        <time>2017-06-20T08:18:50Z</time>
      </trkpt>
      <trkpt lat="61.79853499867022" lon="6.523352013900876">
        <ele>191.44</ele>
        <time>2017-06-20T08:18:51Z</time>
      </trkpt>
      <trkpt lat="61.798583026975393" lon="6.523607997223735">
        <ele>190</ele>
        <time>2017-06-20T08:18:52Z</time>
      </trkpt>
      <trkpt lat="61.798622002825141" lon="6.523873033002019">
        <ele>190</ele>
        <time>2017-06-20T08:18:53Z</time>
      </trkpt>
      <trkpt lat="61.798642035573721" lon="6.52413597330451">
        <ele>188.56</ele>
        <time>2017-06-20T08:18:54Z</time>
      </trkpt>
      <trkpt lat="61.798656033352017" lon="6.524397991597652">
        <ele>187.59</ele>
        <time>2017-06-20T08:18:55Z</time>
      </trkpt>
      <trkpt lat="61.798667013645172" lon="6.524665039032698">
        <ele>185.66999999999999</ele>
        <time>2017-06-20T08:18:56Z</time>
      </trkpt>
      <trkpt lat="61.798709006980062" lon="6.525162002071738">
        <ele>183.27000000000001</ele>
        <time>2017-06-20T08:18:58Z</time>
      </trkpt>
      <trkpt lat="61.79874999448657" lon="6.525386972352862">
        <ele>181.34999999999999</ele>
        <time>2017-06-20T08:18:59Z</time>
      </trkpt>
      <trkpt lat="61.79881596006453" lon="6.525604985654354">
        <ele>181.34999999999999</ele>
        <time>2017-06-20T08:19:00Z</time>
      </trkpt>
      <trkpt lat="61.799037996679544" lon="6.526277968659997">
        <ele>177.02000000000001</ele>
        <time>2017-06-20T08:19:03Z</time>
      </trkpt>
      <trkpt lat="61.799088036641479" lon="6.526537975296378">
        <ele>174.13999999999999</ele>
        <time>2017-06-20T08:19:04Z</time>
      </trkpt>
      <trkpt lat="61.799128018319607" lon="6.526808040216565">
        <ele>172.21000000000001</ele>
        <time>2017-06-20T08:19:05Z</time>
      </trkpt>
      <trkpt lat="61.7994150146842" lon="6.529717985540628">
        <ele>155.38999999999999</ele>
        <time>2017-06-20T08:19:16Z</time>
      </trkpt>
      <trkpt lat="61.799444016069174" lon="6.529909009113908">
        <ele>155.38999999999999</ele>
        <time>2017-06-20T08:19:17Z</time>
      </trkpt>
      <trkpt lat="61.799477962777019" lon="6.530071031302214">
        <ele>153.94999999999999</ele>
        <time>2017-06-20T08:19:18Z</time>
      </trkpt>
      <trkpt lat="61.79952397942543" lon="6.530194999650121">
        <ele>152.99000000000001</ele>
        <time>2017-06-20T08:19:19Z</time>
      </trkpt>
      <trkpt lat="61.799589022994041" lon="6.53027999214828">
        <ele>152.03</ele>
        <time>2017-06-20T08:19:20Z</time>
      </trkpt>
      <trkpt lat="61.799664041027427" lon="6.530304970219731">
        <ele>152.03</ele>
        <time>2017-06-20T08:19:21Z</time>
      </trkpt>
      <trkpt lat="61.799745010212064" lon="6.530285021290183">
        <ele>152.50999999999999</ele>
        <time>2017-06-20T08:19:22Z</time>
      </trkpt>
      <trkpt lat="61.799826985225081" lon="6.530203968286514">
        <ele>152.50999999999999</ele>
        <time>2017-06-20T08:19:23Z</time>
      </trkpt>
      <trkpt lat="61.799905020743608" lon="6.530078994110227">
        <ele>152.99000000000001</ele>
        <time>2017-06-20T08:19:24Z</time>
      </trkpt>
      <trkpt lat="61.799967968836427" lon="6.529902974143624">
        <ele>152.03</ele>
        <time>2017-06-20T08:19:25Z</time>
      </trkpt>
      <trkpt lat="61.8000159971416" lon="6.529683033004403">
        <ele>151.53999999999999</ele>
        <time>2017-06-20T08:19:26Z</time>
      </trkpt>
      <trkpt lat="61.800067964941263" lon="6.52943903580308">
        <ele>151.53999999999999</ele>
        <time>2017-06-20T08:19:27Z</time>
      </trkpt>
      <trkpt lat="61.800495022907853" lon="6.527110962197185">
        <ele>139.05000000000001</ele>
        <time>2017-06-20T08:19:35Z</time>
      </trkpt>
      <trkpt lat="61.801174962893128" lon="6.523994989693165">
        <ele>123.19</ele>
        <time>2017-06-20T08:19:47Z</time>
      </trkpt>
      <trkpt lat="61.801866972818971" lon="6.520998040214181">
        <ele>106.84</ele>
        <time>2017-06-20T08:20:00Z</time>
      </trkpt>
      <trkpt lat="61.801956994459033" lon="6.519931023940444">
        <ele>102.04000000000001</ele>
        <time>2017-06-20T08:20:05Z</time>
      </trkpt>
      <trkpt lat="61.801979960873723" lon="6.519779982045293">
        <ele>101.08</ele>
        <time>2017-06-20T08:20:06Z</time>
      </trkpt>
      <trkpt lat="61.80201499722898" lon="6.519674034789205">
        <ele>100.59999999999999</ele>
        <time>2017-06-20T08:20:07Z</time>
      </trkpt>
      <trkpt lat="61.802060008049011" lon="6.519604967907071">
        <ele>100.11</ele>
        <time>2017-06-20T08:20:08Z</time>
      </trkpt>
      <trkpt lat="61.802108958363533" lon="6.519584013149142">
        <ele>100.11</ele>
        <time>2017-06-20T08:20:09Z</time>
      </trkpt>
      <trkpt lat="61.802160004153848" lon="6.519614020362496">
        <ele>99.629999999999995</ele>
        <time>2017-06-20T08:20:10Z</time>
      </trkpt>
      <trkpt lat="61.802208032459021" lon="6.519702030345798">
        <ele>99.150000000000006</ele>
        <time>2017-06-20T08:20:11Z</time>
      </trkpt>
      <trkpt lat="61.802241979166865" lon="6.519844019785523">
        <ele>98.670000000000002</ele>
        <time>2017-06-20T08:20:12Z</time>
      </trkpt>
      <trkpt lat="61.802267041057348" lon="6.520033031702042">
        <ele>97.709999999999994</ele>
        <time>2017-06-20T08:20:13Z</time>
      </trkpt>
      <trkpt lat="61.802289001643658" lon="6.520248027518392">
        <ele>97.230000000000004</ele>
        <time>2017-06-20T08:20:14Z</time>
      </trkpt>
      <trkpt lat="61.802657973021269" lon="6.523052025586367">
        <ele>88.099999999999994</ele>
        <time>2017-06-20T08:20:26Z</time>
      </trkpt>
      <trkpt lat="61.803134987130761" lon="6.525845965370536">
        <ele>75.599999999999994</ele>
        <time>2017-06-20T08:20:38Z</time>
      </trkpt>
      <trkpt lat="61.803557015955448" lon="6.527326963841915">
        <ele>69.349999999999994</ele>
        <time>2017-06-20T08:20:47Z</time>
      </trkpt>
      <trkpt lat="61.803665980696678" lon="6.527532991021872">
        <ele>65.510000000000005</ele>
        <time>2017-06-20T08:20:49Z</time>
      </trkpt>
      <trkpt lat="61.803729012608528" lon="6.527609014883637">
        <ele>64.069999999999993</ele>
        <time>2017-06-20T08:20:50Z</time>
      </trkpt>
      <trkpt lat="61.803796989843249" lon="6.527668023481965">
        <ele>63.100000000000001</ele>
        <time>2017-06-20T08:20:51Z</time>
      </trkpt>
      <trkpt lat="61.803874019533396" lon="6.52770297601819">
        <ele>62.619999999999997</ele>
        <time>2017-06-20T08:20:52Z</time>
      </trkpt>
      <trkpt lat="61.803955994546413" lon="6.527706999331713">
        <ele>61.18</ele>
        <time>2017-06-20T08:20:53Z</time>
      </trkpt>
      <trkpt lat="61.804046016186476" lon="6.527683027088642">
        <ele>60.700000000000003</ele>
        <time>2017-06-20T08:20:54Z</time>
      </trkpt>
      <trkpt lat="61.804136959835887" lon="6.527626030147076">
        <ele>60.219999999999999</ele>
        <time>2017-06-20T08:20:55Z</time>
      </trkpt>
      <trkpt lat="61.804211977869272" lon="6.527536008507013">
        <ele>58.299999999999997</ele>
        <time>2017-06-20T08:20:56Z</time>
      </trkpt>
      <trkpt lat="61.804286995902658" lon="6.52742201462388">
        <ele>57.82</ele>
        <time>2017-06-20T08:20:57Z</time>
      </trkpt>
      <trkpt lat="61.804354973137379" lon="6.527296034619212">
        <ele>58.299999999999997</ele>
        <time>2017-06-20T08:20:58Z</time>
      </trkpt>
      <trkpt lat="61.804396966472268" lon="6.527169970795512">
        <ele>57.340000000000003</ele>
        <time>2017-06-20T08:20:59Z</time>
      </trkpt>
      <trkpt lat="61.804422028362751" lon="6.527072992175818">
        <ele>57.340000000000003</ele>
        <time>2017-06-20T08:21:00Z</time>
      </trkpt>
      <trkpt lat="61.804432002827525" lon="6.526978025212884">
        <ele>56.369999999999997</ele>
        <time>2017-06-20T08:21:01Z</time>
      </trkpt>
      <trkpt lat="61.804441977292299" lon="6.526876017451286">
        <ele>55.890000000000001</ele>
        <time>2017-06-20T08:21:02Z</time>
      </trkpt>
      <trkpt lat="61.804450023919344" lon="6.526742996647954">
        <ele>54.93</ele>
        <time>2017-06-20T08:21:03Z</time>
      </trkpt>
      <trkpt lat="61.804461004212499" lon="6.526582986116409">
        <ele>54.450000000000003</ele>
        <time>2017-06-20T08:21:04Z</time>
      </trkpt>
      <trkpt lat="61.804404007270932" lon="6.52484298683703">
        <ele>44.840000000000003</ele>
        <time>2017-06-20T08:21:12Z</time>
      </trkpt>
      <trkpt lat="61.804338963702321" lon="6.52342401444912">
        <ele>38.590000000000003</ele>
        <time>2017-06-20T08:21:19Z</time>
      </trkpt>
      <trkpt lat="61.804343992844224" lon="6.523240031674504">
        <ele>37.630000000000003</ele>
        <time>2017-06-20T08:21:20Z</time>
      </trkpt>
      <trkpt lat="61.804363019764423" lon="6.523052025586367">
        <ele>36.670000000000002</ele>
        <time>2017-06-20T08:21:21Z</time>
      </trkpt>
      <trkpt lat="61.804395038634539" lon="6.522872988134623">
        <ele>35.710000000000001</ele>
        <time>2017-06-20T08:21:22Z</time>
      </trkpt>
      <trkpt lat="61.804441977292299" lon="6.522709038108587">
        <ele>35.229999999999997</ele>
        <time>2017-06-20T08:21:23Z</time>
      </trkpt>
      <trkpt lat="61.804502997547388" lon="6.52256696484983">
        <ele>34.740000000000002</ele>
        <time>2017-06-20T08:21:24Z</time>
      </trkpt>
      <trkpt lat="61.804576003924012" lon="6.52245900593698">
        <ele>33.780000000000001</ele>
        <time>2017-06-20T08:21:25Z</time>
      </trkpt>
      <trkpt lat="61.80465797893703" lon="6.522383987903595">
        <ele>32.82</ele>
        <time>2017-06-20T08:21:26Z</time>
      </trkpt>
      <trkpt lat="61.804742971435189" lon="6.52234903536737">
        <ele>32.340000000000003</ele>
        <time>2017-06-20T08:21:27Z</time>
      </trkpt>
      <trkpt lat="61.804826958104968" lon="6.522354986518621">
        <ele>31.859999999999999</ele>
        <time>2017-06-20T08:21:28Z</time>
      </trkpt>
      <trkpt lat="61.804905999451876" lon="6.522390022873879">
        <ele>31.379999999999999</ele>
        <time>2017-06-20T08:21:29Z</time>
      </trkpt>
      <trkpt lat="61.804984034970403" lon="6.52245900593698">
        <ele>31.859999999999999</ele>
        <time>2017-06-20T08:21:30Z</time>
      </trkpt>
      <trkpt lat="61.80504597723484" lon="6.522552967071533">
        <ele>31.859999999999999</ele>
        <time>2017-06-20T08:21:31Z</time>
      </trkpt>
      <trkpt lat="61.805099034681916" lon="6.522661009803414">
        <ele>31.859999999999999</ele>
        <time>2017-06-20T08:21:32Z</time>
      </trkpt>
      <trkpt lat="61.805141028016806" lon="6.522775003686547">
        <ele>31.379999999999999</ele>
        <time>2017-06-20T08:21:33Z</time>
      </trkpt>
      <trkpt lat="61.805178998038173" lon="6.522885980084539">
        <ele>31.379999999999999</ele>
        <time>2017-06-20T08:21:34Z</time>
      </trkpt>
      <trkpt lat="61.80521696805954" lon="6.522988993674517">
        <ele>31.379999999999999</ele>
        <time>2017-06-20T08:21:35Z</time>
      </trkpt>
      <trkpt lat="61.805266002193093" lon="6.523089995607734">
        <ele>31.379999999999999</ele>
        <time>2017-06-20T08:21:36Z</time>
      </trkpt>
      <trkpt lat="61.805317969992757" lon="6.523176999762654">
        <ele>31.379999999999999</ele>
        <time>2017-06-20T08:21:37Z</time>
      </trkpt>
      <trkpt lat="61.805377984419465" lon="6.523251011967659">
        <ele>30.899999999999999</ele>
        <time>2017-06-20T08:21:38Z</time>
      </trkpt>
      <trkpt lat="61.805437998846173" lon="6.523285964503884">
        <ele>30.420000000000002</ele>
        <time>2017-06-20T08:21:39Z</time>
      </trkpt>
      <trkpt lat="61.805492984130979" lon="6.523291999474168">
        <ele>28.5</ele>
        <time>2017-06-20T08:21:40Z</time>
      </trkpt>
      <trkpt lat="61.8055609613657" lon="6.523270038887858">
        <ele>28.02</ele>
        <time>2017-06-20T08:21:41Z</time>
      </trkpt>
      <trkpt lat="61.805635979399085" lon="6.523215975612402">
        <ele>27.530000000000001</ele>
        <time>2017-06-20T08:21:42Z</time>
      </trkpt>
      <trkpt lat="61.805717032402754" lon="6.523129977285862">
        <ele>27.050000000000001</ele>
        <time>2017-06-20T08:21:43Z</time>
      </trkpt>
      <trkpt lat="61.805794984102249" lon="6.52301698923111">
        <ele>26.09</ele>
        <time>2017-06-20T08:21:44Z</time>
      </trkpt>
      <trkpt lat="61.805867990478873" lon="6.522896038368344">
        <ele>25.129999999999999</ele>
        <time>2017-06-20T08:21:45Z</time>
      </trkpt>
    </trkseg>
  </trk>

  <trk>
    <name>Track vom: 20 JUN 2017 10:22</name>
    <extensions>
      <gpxx:TrackExtension>
        <gpxx:DisplayColor>DarkGray</gpxx:DisplayColor>
      </gpxx:TrackExtension>
    </extensions>
    <trkseg>
      <trkpt lat="61.806363025680184" lon="6.519738994538784">
        <ele>13.6</ele>
        <time>2017-06-20T08:22:28Z</time>
      </trkpt>
      <trkpt lat="61.806390015408397" lon="6.519598010927439">
        <ele>13.119999999999999</ele>
        <time>2017-06-20T08:22:40Z</time>
      </trkpt>
      <trkpt lat="61.806425973773003" lon="6.519528022035956">
        <ele>13.119999999999999</ele>
        <time>2017-06-20T08:22:41Z</time>
      </trkpt>
      <trkpt lat="61.806467967107892" lon="6.519475970417261">
        <ele>13.119999999999999</ele>
        <time>2017-06-20T08:22:42Z</time>
      </trkpt>
      <trkpt lat="61.806510966271162" lon="6.519442023709416">
        <ele>13.119999999999999</ele>
        <time>2017-06-20T08:22:43Z</time>
      </trkpt>
      <trkpt lat="61.806558994576335" lon="6.519416039809585">
        <ele>13.6</ele>
        <time>2017-06-20T08:22:44Z</time>
      </trkpt>
      <trkpt lat="61.80661397986114" lon="6.519400030374527">
        <ele>13.119999999999999</ele>
        <time>2017-06-20T08:22:45Z</time>
      </trkpt>
      <trkpt lat="61.806668965145946" lon="6.519395001232624">
        <ele>13.6</ele>
        <time>2017-06-20T08:22:46Z</time>
      </trkpt>
      <trkpt lat="61.806724034249783" lon="6.519397012889385">
        <ele>13.6</ele>
        <time>2017-06-20T08:22:47Z</time>
      </trkpt>
      <trkpt lat="61.806779019534588" lon="6.519416961818934">
        <ele>13.6</ele>
        <time>2017-06-20T08:22:48Z</time>
      </trkpt>
      <trkpt lat="61.806834004819393" lon="6.519456021487713">
        <ele>14.08</ele>
        <time>2017-06-20T08:22:49Z</time>
      </trkpt>
      <trkpt lat="61.806888990104198" lon="6.519511006772518">
        <ele>14.08</ele>
        <time>2017-06-20T08:22:50Z</time>
      </trkpt>
      <trkpt lat="61.806942969560623" lon="6.519578984007239">
        <ele>14.08</ele>
        <time>2017-06-20T08:22:51Z</time>
      </trkpt>
      <trkpt lat="61.806988986209035" lon="6.519657019525766">
        <ele>13.6</ele>
        <time>2017-06-20T08:22:52Z</time>
      </trkpt>
      <trkpt lat="61.807039026170969" lon="6.5197519864887">
        <ele>14.08</ele>
        <time>2017-06-20T08:22:53Z</time>
      </trkpt>
      <trkpt lat="61.807693988084793" lon="6.521432977169752">
        <ele>13.6</ele>
        <time>2017-06-20T08:23:06Z</time>
      </trkpt>
      <trkpt lat="61.807985007762909" lon="6.523604979738593">
        <ele>13.6</ele>
        <time>2017-06-20T08:23:16Z</time>
      </trkpt>
      <trkpt lat="61.808595964685082" lon="6.528684999793768">
        <ele>13.6</ele>
        <time>2017-06-20T08:23:37Z</time>
      </trkpt>
      <trkpt lat="61.809406997635961" lon="6.531048025935888">
        <ele>14.08</ele>
        <time>2017-06-20T08:23:47Z</time>
      </trkpt>
      <trkpt lat="61.810934012755752" lon="6.53375999070704">
        <ele>14.56</ele>
        <time>2017-06-20T08:24:01Z</time>
      </trkpt>
      <trkpt lat="61.812718017026782" lon="6.536006005480886">
        <ele>13.119999999999999</ele>
        <time>2017-06-20T08:24:15Z</time>
      </trkpt>
      <trkpt lat="61.814365983009338" lon="6.538547985255718">
        <ele>13.6</ele>
        <time>2017-06-20T08:24:28Z</time>
      </trkpt>
      <trkpt lat="61.816997984424233" lon="6.541854981333017">
        <ele>14.56</ele>
        <time>2017-06-20T08:24:48Z</time>
      </trkpt>
      <trkpt lat="61.818655002862215" lon="6.54463198967278">
        <ele>15.52</ele>
        <time>2017-06-20T08:25:01Z</time>
      </trkpt>
      <trkpt lat="61.820968994870782" lon="6.54875697568059">
        <ele>13.6</ele>
        <time>2017-06-20T08:25:17Z</time>
      </trkpt>
      <trkpt lat="61.822616038843989" lon="6.551278000697494">
        <ele>15.52</ele>
        <time>2017-06-20T08:25:28Z</time>
      </trkpt>
      <trkpt lat="61.823818003758788" lon="6.553775975480676">
        <ele>17.440000000000001</ele>
        <time>2017-06-20T08:25:37Z</time>
      </trkpt>
      <trkpt lat="61.826095031574368" lon="6.557805994525552">
        <ele>17.440000000000001</ele>
        <time>2017-06-20T08:25:52Z</time>
      </trkpt>
      <trkpt lat="61.828324031084776" lon="6.562047991901636">
        <ele>17.440000000000001</ele>
        <time>2017-06-20T08:26:07Z</time>
      </trkpt>
      <trkpt lat="61.829804023727775" lon="6.565384995192289">
        <ele>16.960000000000001</ele>
        <time>2017-06-20T08:26:18Z</time>
      </trkpt>
      <trkpt lat="61.83140798471868" lon="6.569504030048847">
        <ele>17.920000000000002</ele>
        <time>2017-06-20T08:26:31Z</time>
      </trkpt>
      <trkpt lat="61.833191988989711" lon="6.574415992945433">
        <ele>16.960000000000001</ele>
        <time>2017-06-20T08:26:46Z</time>
      </trkpt>
      <trkpt lat="61.834955038502812" lon="6.580432020127773">
        <ele>13.6</ele>
        <time>2017-06-20T08:27:03Z</time>
      </trkpt>
      <trkpt lat="61.836114004254341" lon="6.583657963201404">
        <ele>11.19</ele>
        <time>2017-06-20T08:27:13Z</time>
      </trkpt>
      <trkpt lat="61.837398028001189" lon="6.586991026997566">
        <ele>11.19</ele>
        <time>2017-06-20T08:27:24Z</time>
      </trkpt>
      <trkpt lat="61.838971981778741" lon="6.59146998077631">
        <ele>9.75</ele>
        <time>2017-06-20T08:27:39Z</time>
      </trkpt>
      <trkpt lat="61.840070011094213" lon="6.594145987182856">
        <ele>9.27</ele>
        <time>2017-06-20T08:27:49Z</time>
      </trkpt>
      <trkpt lat="61.841374989598989" lon="6.597343012690544">
        <ele>7.35</ele>
        <time>2017-06-20T08:28:01Z</time>
      </trkpt>
      <trkpt lat="61.842705029994249" lon="6.600482035428286">
        <ele>6.39</ele>
        <time>2017-06-20T08:28:14Z</time>
      </trkpt>
      <trkpt lat="61.84406197629869" lon="6.603983994573355">
        <ele>8.310000000000001</ele>
        <time>2017-06-20T08:28:29Z</time>
      </trkpt>
      <trkpt lat="61.844690032303333" lon="6.605691974982619">
        <ele>7.35</ele>
        <time>2017-06-20T08:28:39Z</time>
      </trkpt>
      <trkpt lat="61.8457589764148" lon="6.609233999624848">
        <ele>5.42</ele>
        <time>2017-06-20T08:28:56Z</time>
      </trkpt>
      <trkpt lat="61.846475964412093" lon="6.610608967021108">
        <ele>5.91</ele>
        <time>2017-06-20T08:29:05Z</time>
      </trkpt>
      <trkpt lat="61.847610035911202" lon="6.611584033817053">
        <ele>4.46</ele>
        <time>2017-06-20T08:29:16Z</time>
      </trkpt>
      <trkpt lat="61.847880017012358" lon="6.611807998269796">
        <ele>3.98</ele>
        <time>2017-06-20T08:29:22Z</time>
      </trkpt>
      <trkpt lat="61.847898960113525" lon="6.611846974119544">
        <ele>3.98</ele>
        <time>2017-06-20T08:29:24Z</time>
      </trkpt>
      <trkpt lat="61.847895020619035" lon="6.611834987998009">
        <ele>2.54</ele>
        <time>2017-06-20T08:29:38Z</time>
      </trkpt>
      <trkpt lat="61.847909018397331" lon="6.611841022968292">
        <ele>3.02</ele>
        <time>2017-06-20T08:29:42Z</time>
      </trkpt>
      <trkpt lat="61.847931984812021" lon="6.611835993826389">
        <ele>3.5</ele>
        <time>2017-06-20T08:29:43Z</time>
      </trkpt>
      <trkpt lat="61.847961992025375" lon="6.611835993826389">
        <ele>3.5</ele>
        <time>2017-06-20T08:29:44Z</time>
      </trkpt>
      <trkpt lat="61.84805897064507" lon="6.611886033788323">
        <ele>3.5</ele>
        <time>2017-06-20T08:29:46Z</time>
      </trkpt>
      <trkpt lat="61.848673028871417" lon="6.612351983785629">
        <ele>4.46</ele>
        <time>2017-06-20T08:29:53Z</time>
      </trkpt>
      <trkpt lat="61.850214041769505" lon="6.613541962578893">
        <ele>8.310000000000001</ele>
        <time>2017-06-20T08:30:07Z</time>
      </trkpt>
      <trkpt lat="61.850869003683329" lon="6.614056024700403">
        <ele>8.310000000000001</ele>
        <time>2017-06-20T08:30:18Z</time>
      </trkpt>
      <trkpt lat="61.85170903801918" lon="6.614725990220904">
        <ele>7.83</ele>
        <time>2017-06-20T08:30:29Z</time>
      </trkpt>
      <trkpt lat="61.852155961096287" lon="6.614956995472312">
        <ele>8.789999999999999</ele>
        <time>2017-06-20T08:30:38Z</time>
      </trkpt>
      <trkpt lat="61.852926006540656" lon="6.614731019362807">
        <ele>8.789999999999999</ele>
        <time>2017-06-20T08:30:46Z</time>
      </trkpt>
      <trkpt lat="61.854193015024066" lon="6.61355797201395">
        <ele>7.83</ele>
        <time>2017-06-20T08:30:56Z</time>
      </trkpt>
      <trkpt lat="61.855667978525162" lon="6.611492000520229">
        <ele>9.27</ele>
        <time>2017-06-20T08:31:09Z</time>
      </trkpt>
      <trkpt lat="61.856474988162518" lon="6.609290996566415">
        <ele>11.19</ele>
        <time>2017-06-20T08:31:19Z</time>
      </trkpt>
      <trkpt lat="61.857292978093028" lon="6.606275020167232">
        <ele>13.6</ele>
        <time>2017-06-20T08:31:30Z</time>
      </trkpt>
      <trkpt lat="61.858636010438204" lon="6.599813997745514">
        <ele>13.119999999999999</ele>
        <time>2017-06-20T08:31:50Z</time>
      </trkpt>
      <trkpt lat="61.859641000628471" lon="6.596033005043864">
        <ele>13.119999999999999</ele>
        <time>2017-06-20T08:32:01Z</time>
      </trkpt>
      <trkpt lat="61.860779011622071" lon="6.592538002878428">
        <ele>16.960000000000001</ele>
        <time>2017-06-20T08:32:12Z</time>
      </trkpt>
      <trkpt lat="61.861235992982984" lon="6.59131801687181">
        <ele>17.920000000000002</ele>
        <time>2017-06-20T08:32:16Z</time>
      </trkpt>
      <trkpt lat="61.861325008794665" lon="6.590968994423747">
        <ele>17.920000000000002</ele>
        <time>2017-06-20T08:32:17Z</time>
      </trkpt>
      <trkpt lat="61.861842004582286" lon="6.588921966031194">
        <ele>20.809999999999999</ele>
        <time>2017-06-20T08:32:22Z</time>
      </trkpt>
      <trkpt lat="61.862541977316141" lon="6.586621971800923">
        <ele>24.170000000000002</ele>
        <time>2017-06-20T08:32:29Z</time>
      </trkpt>
      <trkpt lat="61.86262403614819" lon="6.586284013465047">
        <ele>24.649999999999999</ele>
        <time>2017-06-20T08:32:30Z</time>
      </trkpt>
      <trkpt lat="61.862695030868053" lon="6.585941025987268">
        <ele>25.129999999999999</ele>
        <time>2017-06-20T08:32:31Z</time>
      </trkpt>
      <trkpt lat="61.863317973911762" lon="6.583001995459199">
        <ele>25.129999999999999</ele>
        <time>2017-06-20T08:32:39Z</time>
      </trkpt>
      <trkpt lat="61.863681999966502" lon="6.581725012511015">
        <ele>27.050000000000001</ele>
        <time>2017-06-20T08:32:43Z</time>
      </trkpt>
      <trkpt lat="61.864030016586185" lon="6.580934012308717">
        <ele>26.57</ele>
        <time>2017-06-20T08:32:46Z</time>
      </trkpt>
      <trkpt lat="61.864169994369149" lon="6.580737959593535">
        <ele>26.57</ele>
        <time>2017-06-20T08:32:47Z</time>
      </trkpt>
      <trkpt lat="61.864321958273649" lon="6.580580966547132">
        <ele>26.57</ele>
        <time>2017-06-20T08:32:48Z</time>
      </trkpt>
      <trkpt lat="61.864480962976813" lon="6.580455992370844">
        <ele>26.09</ele>
        <time>2017-06-20T08:32:49Z</time>
      </trkpt>
      <trkpt lat="61.864646002650261" lon="6.580359013751149">
        <ele>25.609999999999999</ele>
        <time>2017-06-20T08:32:50Z</time>
      </trkpt>
      <trkpt lat="61.864811964333057" lon="6.580290030688047">
        <ele>24.649999999999999</ele>
        <time>2017-06-20T08:32:51Z</time>
      </trkpt>
      <trkpt lat="61.864981027320027" lon="6.580260023474693">
        <ele>23.690000000000001</ele>
        <time>2017-06-20T08:32:52Z</time>
      </trkpt>
      <trkpt lat="61.865153023973107" lon="6.580262035131455">
        <ele>23.210000000000001</ele>
        <time>2017-06-20T08:32:53Z</time>
      </trkpt>
      <trkpt lat="61.865329965949059" lon="6.580303022637963">
        <ele>22.73</ele>
        <time>2017-06-20T08:32:54Z</time>
      </trkpt>
      <trkpt lat="61.865511015057564" lon="6.580398995429277">
        <ele>22.25</ele>
        <time>2017-06-20T08:32:55Z</time>
      </trkpt>
      <trkpt lat="61.865689968690276" lon="6.580503014847636">
        <ele>21.77</ele>
        <time>2017-06-20T08:32:56Z</time>
      </trkpt>
      <trkpt lat="61.867036018520594" lon="6.581962974742055">
        <ele>19.84</ele>
        <time>2017-06-20T08:33:04Z</time>
      </trkpt>
      <trkpt lat="61.867170967161655" lon="6.582234967499971">
        <ele>19.84</ele>
        <time>2017-06-20T08:33:05Z</time>
      </trkpt>
      <trkpt lat="61.867300970479846" lon="6.582533027976751">
        <ele>19.84</ele>
        <time>2017-06-20T08:33:06Z</time>
      </trkpt>
      <trkpt lat="61.868258016183972" lon="6.585790989920497">
        <ele>17.440000000000001</ele>
        <time>2017-06-20T08:33:15Z</time>
      </trkpt>
      <trkpt lat="61.869185976684093" lon="6.590396007522941">
        <ele>14.08</ele>
        <time>2017-06-20T08:33:27Z</time>
      </trkpt>
      <trkpt lat="61.869572969153523" lon="6.594447987154126">
        <ele>19.84</ele>
        <time>2017-06-20T08:33:37Z</time>
      </trkpt>
      <trkpt lat="61.869545979425311" lon="6.598977986723185">
        <ele>24.170000000000002</ele>
        <time>2017-06-20T08:33:48Z</time>
      </trkpt>
      <trkpt lat="61.869438020512462" lon="6.604835009202361">
        <ele>23.210000000000001</ele>
        <time>2017-06-20T08:34:02Z</time>
      </trkpt>
      <trkpt lat="61.869488982483745" lon="6.610869979485869">
        <ele>25.609999999999999</ele>
        <time>2017-06-20T08:34:16Z</time>
      </trkpt>
      <trkpt lat="61.870145034044981" lon="6.617808016017079">
        <ele>20.32</ele>
        <time>2017-06-20T08:34:32Z</time>
      </trkpt>
      <trkpt lat="61.870765965431929" lon="6.620571026578546">
        <ele>22.25</ele>
        <time>2017-06-20T08:34:39Z</time>
      </trkpt>
      <trkpt lat="61.871640030294657" lon="6.62412797100842">
        <ele>16.960000000000001</ele>
        <time>2017-06-20T08:34:48Z</time>
      </trkpt>
      <trkpt lat="61.871757041662931" lon="6.624480010941625">
        <ele>16</ele>
        <time>2017-06-20T08:34:49Z</time>
      </trkpt>
      <trkpt lat="61.871891990303993" lon="6.624818975105882">
        <ele>16</ele>
        <time>2017-06-20T08:34:50Z</time>
      </trkpt>
      <trkpt lat="61.87203599140048" lon="6.625126004219055">
        <ele>16</ele>
        <time>2017-06-20T08:34:51Z</time>
      </trkpt>
      <trkpt lat="61.872188961133361" lon="6.625421969220042">
        <ele>16</ele>
        <time>2017-06-20T08:34:52Z</time>
      </trkpt>
      <trkpt lat="61.872346037998796" lon="6.625693961977959">
        <ele>16.48</ele>
        <time>2017-06-20T08:34:53Z</time>
      </trkpt>
      <trkpt lat="61.872771000489593" lon="6.6265759896487">
        <ele>16.48</ele>
        <time>2017-06-20T08:34:56Z</time>
      </trkpt>
      <trkpt lat="61.872881976887584" lon="6.626909002661705">
        <ele>16.48</ele>
        <time>2017-06-20T08:34:57Z</time>
      </trkpt>
      <trkpt lat="61.872973004356027" lon="6.627275040373206">
        <ele>16</ele>
        <time>2017-06-20T08:34:58Z</time>
      </trkpt>
      <trkpt lat="61.873037964105606" lon="6.627676030620933">
        <ele>15.52</ele>
        <time>2017-06-20T08:34:59Z</time>
      </trkpt>
      <trkpt lat="61.873082974925637" lon="6.62807802669704">
        <ele>15.52</ele>
        <time>2017-06-20T08:35:00Z</time>
      </trkpt>
      <trkpt lat="61.873103007674217" lon="6.628498965874314">
        <ele>15.039999999999999</ele>
        <time>2017-06-20T08:35:01Z</time>
      </trkpt>
      <trkpt lat="61.873094961047173" lon="6.628929963335395">
        <ele>14.08</ele>
        <time>2017-06-20T08:35:02Z</time>
      </trkpt>
      <trkpt lat="61.87306403182447" lon="6.629358027130365">
        <ele>13.6</ele>
        <time>2017-06-20T08:35:03Z</time>
      </trkpt>
      <trkpt lat="61.87302203848958" lon="6.629785001277924">
        <ele>14.08</ele>
        <time>2017-06-20T08:35:04Z</time>
      </trkpt>
      <trkpt lat="61.872962024062872" lon="6.630208035930991">
        <ele>14.56</ele>
        <time>2017-06-20T08:35:05Z</time>
      </trkpt>
      <trkpt lat="61.872875019907951" lon="6.631442019715905">
        <ele>16.48</ele>
        <time>2017-06-20T08:35:08Z</time>
      </trkpt>
      <trkpt lat="61.872886000201106" lon="6.631848961114883">
        <ele>16.960000000000001</ele>
        <time>2017-06-20T08:35:09Z</time>
      </trkpt>
      <trkpt lat="61.872909972444177" lon="6.632252968847752">
        <ele>17.920000000000002</ele>
        <time>2017-06-20T08:35:10Z</time>
      </trkpt>
      <trkpt lat="61.873445995151997" lon="6.636332022026181">
        <ele>16.960000000000001</ele>
        <time>2017-06-20T08:35:20Z</time>
      </trkpt>
      <trkpt lat="61.873652022331953" lon="6.639623008668423">
        <ele>16.48</ele>
        <time>2017-06-20T08:35:28Z</time>
      </trkpt>
      <trkpt lat="61.873572980985045" lon="6.643896019086242">
        <ele>14.56</ele>
        <time>2017-06-20T08:35:38Z</time>
      </trkpt>
      <trkpt lat="61.8734510242939" lon="6.649044016376138">
        <ele>21.289999999999999</ele>
        <time>2017-06-20T08:35:50Z</time>
      </trkpt>
      <trkpt lat="61.872919024899602" lon="6.652803970500827">
        <ele>18.879999999999999</ele>
        <time>2017-06-20T08:35:59Z</time>
      </trkpt>
      <trkpt lat="61.87188402749598" lon="6.656967010349035">
        <ele>19.84</ele>
        <time>2017-06-20T08:36:10Z</time>
      </trkpt>
      <trkpt lat="61.871221018955112" lon="6.660400992259383">
        <ele>20.809999999999999</ele>
        <time>2017-06-20T08:36:19Z</time>
      </trkpt>
      <trkpt lat="61.870419960469007" lon="6.664401004090905">
        <ele>18.879999999999999</ele>
        <time>2017-06-20T08:36:29Z</time>
      </trkpt>
      <trkpt lat="61.870336979627609" lon="6.667337017133832">
        <ele>18.399999999999999</ele>
        <time>2017-06-20T08:36:36Z</time>
      </trkpt>
      <trkpt lat="61.870736964046955" lon="6.670128023251891">
        <ele>19.84</ele>
        <time>2017-06-20T08:36:43Z</time>
      </trkpt>
      <trkpt lat="61.872435975819826" lon="6.676794989034534">
        <ele>26.57</ele>
        <time>2017-06-20T08:37:01Z</time>
      </trkpt>
      <trkpt lat="61.872479980811477" lon="6.677214000374079">
        <ele>23.210000000000001</ele>
        <time>2017-06-20T08:37:02Z</time>
      </trkpt>
      <trkpt lat="61.872541001066566" lon="6.677621025592089">
        <ele>26.09</ele>
        <time>2017-06-20T08:37:03Z</time>
      </trkpt>
      <trkpt lat="61.872557010501623" lon="6.678052023053169">
        <ele>26.57</ele>
        <time>2017-06-20T08:37:04Z</time>
      </trkpt>
      <trkpt lat="61.872578971087933" lon="6.67848696000874">
        <ele>24.649999999999999</ele>
        <time>2017-06-20T08:37:05Z</time>
      </trkpt>
      <trkpt lat="61.872681984677911" lon="6.685500014573336">
        <ele>23.690000000000001</ele>
        <time>2017-06-20T08:37:21Z</time>
      </trkpt>
      <trkpt lat="61.872504036873579" lon="6.690850015729666">
        <ele>25.129999999999999</ele>
        <time>2017-06-20T08:37:33Z</time>
      </trkpt>
      <trkpt lat="61.871939012780786" lon="6.694175032898784">
        <ele>25.609999999999999</ele>
        <time>2017-06-20T08:37:41Z</time>
      </trkpt>
      <trkpt lat="61.869138032197952" lon="6.711810976266861">
        <ele>21.77</ele>
        <time>2017-06-20T08:38:24Z</time>
      </trkpt>
      <trkpt lat="61.869096038863063" lon="6.712264018133283">
        <ele>25.129999999999999</ele>
        <time>2017-06-20T08:38:25Z</time>
      </trkpt>
      <trkpt lat="61.868445016443729" lon="6.716666026040912">
        <ele>17.920000000000002</ele>
        <time>2017-06-20T08:38:36Z</time>
      </trkpt>
      <trkpt lat="61.867596013471484" lon="6.719718966633081">
        <ele>19.84</ele>
        <time>2017-06-20T08:38:44Z</time>
      </trkpt>
      <trkpt lat="61.867519989609718" lon="6.720136972144246">
        <ele>19.359999999999999</ele>
        <time>2017-06-20T08:38:45Z</time>
      </trkpt>
      <trkpt lat="61.86745997518301" lon="6.720562018454075">
        <ele>18.879999999999999</ele>
        <time>2017-06-20T08:38:46Z</time>
      </trkpt>
      <trkpt lat="61.866719014942646" lon="6.726811984553933">
        <ele>19.359999999999999</ele>
        <time>2017-06-20T08:39:00Z</time>
      </trkpt>
      <trkpt lat="61.866030022501945" lon="6.730074975639582">
        <ele>23.690000000000001</ele>
        <time>2017-06-20T08:39:08Z</time>
      </trkpt>
      <trkpt lat="61.865797005593777" lon="6.734030982479453">
        <ele>24.649999999999999</ele>
        <time>2017-06-20T08:39:17Z</time>
      </trkpt>
      <trkpt lat="61.865495005622506" lon="6.737262960523367">
        <ele>21.77</ele>
        <time>2017-06-20T08:39:26Z</time>
      </trkpt>
      <trkpt lat="61.865147994831204" lon="6.739273024722934">
        <ele>19.359999999999999</ele>
        <time>2017-06-20T08:39:32Z</time>
      </trkpt>
      <trkpt lat="61.865127040073276" lon="6.739561026915908">
        <ele>19.359999999999999</ele>
        <time>2017-06-20T08:39:33Z</time>
      </trkpt>
      <trkpt lat="61.865125028416514" lon="6.739857997745276">
        <ele>19.84</ele>
        <time>2017-06-20T08:39:34Z</time>
      </trkpt>
      <trkpt lat="61.865112036466599" lon="6.740487981587648">
        <ele>19.84</ele>
        <time>2017-06-20T08:39:36Z</time>
      </trkpt>
      <trkpt lat="61.865084040910006" lon="6.740814037621021">
        <ele>19.84</ele>
        <time>2017-06-20T08:39:37Z</time>
      </trkpt>
      <trkpt lat="61.864775000140071" lon="6.744153974577785">
        <ele>20.809999999999999</ele>
        <time>2017-06-20T08:39:46Z</time>
      </trkpt>
      <trkpt lat="61.864527985453606" lon="6.746342992410064">
        <ele>19.84</ele>
        <time>2017-06-20T08:39:52Z</time>
      </trkpt>
      <trkpt lat="61.864497978240252" lon="6.746810032054782">
        <ele>20.809999999999999</ele>
        <time>2017-06-20T08:39:54Z</time>
      </trkpt>
      <trkpt lat="61.864289017394185" lon="6.747355023398995">
        <ele>22.25</ele>
        <time>2017-06-20T08:40:00Z</time>
      </trkpt>
      <trkpt lat="61.864212993532419" lon="6.748668970540166">
        <ele>20.809999999999999</ele>
        <time>2017-06-20T08:40:06Z</time>
      </trkpt>
      <trkpt lat="61.86423797160387" lon="6.750178970396519">
        <ele>21.77</ele>
        <time>2017-06-20T08:40:14Z</time>
      </trkpt>
      <trkpt lat="61.864211987704039" lon="6.751760970801115">
        <ele>23.210000000000001</ele>
        <time>2017-06-20T08:40:21Z</time>
      </trkpt>
      <trkpt lat="61.864196984097362" lon="6.75202801823616">
        <ele>23.690000000000001</ele>
        <time>2017-06-20T08:40:22Z</time>
      </trkpt>
      <trkpt lat="61.864178963005543" lon="6.752282995730639">
        <ele>23.210000000000001</ele>
        <time>2017-06-20T08:40:23Z</time>
      </trkpt>
      <trkpt lat="61.864076033234596" lon="6.755189001560211">
        <ele>20.809999999999999</ele>
        <time>2017-06-20T08:40:34Z</time>
      </trkpt>
      <trkpt lat="61.864067986607552" lon="6.756742000579834">
        <ele>18.879999999999999</ele>
        <time>2017-06-20T08:40:41Z</time>
      </trkpt>
      <trkpt lat="61.86404200270772" lon="6.756931012496352">
        <ele>18.399999999999999</ele>
        <time>2017-06-20T08:40:42Z</time>
      </trkpt>
      <trkpt lat="61.864002021029592" lon="6.757105020806193">
        <ele>17.920000000000002</ele>
        <time>2017-06-20T08:40:43Z</time>
      </trkpt>
      <trkpt lat="61.86393697746098" lon="6.757276011630893">
        <ele>18.399999999999999</ele>
        <time>2017-06-20T08:40:44Z</time>
      </trkpt>
      <trkpt lat="61.863851984962821" lon="6.757436022162437">
        <ele>18.879999999999999</ele>
        <time>2017-06-20T08:40:45Z</time>
      </trkpt>
      <trkpt lat="61.863766992464662" lon="6.757595026865602">
        <ele>19.359999999999999</ele>
        <time>2017-06-20T08:40:46Z</time>
      </trkpt>
      <trkpt lat="61.862941961735487" lon="6.759284986183047">
        <ele>16</ele>
        <time>2017-06-20T08:40:57Z</time>
      </trkpt>
      <trkpt lat="61.862513981759548" lon="6.760615026578307">
        <ele>16</ele>
        <time>2017-06-20T08:41:06Z</time>
      </trkpt>
      <trkpt lat="61.862477017566562" lon="6.760691972449422">
        <ele>16</ele>
        <time>2017-06-20T08:41:07Z</time>
      </trkpt>
      <trkpt lat="61.862198989838362" lon="6.761307036504149">
        <ele>16</ele>
        <time>2017-06-20T08:41:15Z</time>
      </trkpt>
      <trkpt lat="61.861957004293799" lon="6.762051014229655">
        <ele>16</ele>
        <time>2017-06-20T08:41:24Z</time>
      </trkpt>
      <trkpt lat="61.861834041774273" lon="6.762531967833638">
        <ele>16.48</ele>
        <time>2017-06-20T08:41:27Z</time>
      </trkpt>
      <trkpt lat="61.861784001812339" lon="6.762685021385551">
        <ele>16.960000000000001</ele>
        <time>2017-06-20T08:41:28Z</time>
      </trkpt>
      <trkpt lat="61.861663972958922" lon="6.762947961688042">
        <ele>16.48</ele>
        <time>2017-06-20T08:41:30Z</time>
      </trkpt>
      <trkpt lat="61.861111018806696" lon="6.763819009065628">
        <ele>16.48</ele>
        <time>2017-06-20T08:41:41Z</time>
      </trkpt>
      <trkpt lat="61.861086040735245" lon="6.76386502571404">
        <ele>16.960000000000001</ele>
        <time>2017-06-20T08:41:51Z</time>
      </trkpt>
      <trkpt lat="61.860951008275151" lon="6.764115979894996">
        <ele>17.920000000000002</ele>
        <time>2017-06-20T08:42:08Z</time>
      </trkpt>
      <trkpt lat="61.860745986923575" lon="6.764482017606497">
        <ele>18.399999999999999</ele>
        <time>2017-06-20T08:42:20Z</time>
      </trkpt>
      <trkpt lat="61.860509030520916" lon="6.764946039766073">
        <ele>17.920000000000002</ele>
        <time>2017-06-20T08:42:31Z</time>
      </trkpt>
      <trkpt lat="61.860137963667512" lon="6.765824966132641">
        <ele>18.879999999999999</ele>
        <time>2017-06-20T08:42:43Z</time>
      </trkpt>
      <trkpt lat="61.859822971746325" lon="6.766741024330258">
        <ele>19.84</ele>
        <time>2017-06-20T08:42:52Z</time>
      </trkpt>
      <trkpt lat="61.859432961791754" lon="6.768329981714487">
        <ele>20.32</ele>
        <time>2017-06-20T08:43:00Z</time>
      </trkpt>
      <trkpt lat="61.858645984902978" lon="6.771374037489295">
        <ele>21.289999999999999</ele>
        <time>2017-06-20T08:43:12Z</time>
      </trkpt>
      <trkpt lat="61.85740596614778" lon="6.774592017754912">
        <ele>20.809999999999999</ele>
        <time>2017-06-20T08:43:25Z</time>
      </trkpt>
      <trkpt lat="61.856407010927796" lon="6.778271002694964">
        <ele>18.399999999999999</ele>
        <time>2017-06-20T08:43:38Z</time>
      </trkpt>
      <trkpt lat="61.855654986575246" lon="6.781174996867776">
        <ele>16.960000000000001</ele>
        <time>2017-06-20T08:43:47Z</time>
      </trkpt>
      <trkpt lat="61.854755021631718" lon="6.784953977912664">
        <ele>16.960000000000001</ele>
        <time>2017-06-20T08:43:58Z</time>
      </trkpt>
      <trkpt lat="61.853873999789357" lon="6.787342987954617">
        <ele>18.879999999999999</ele>
        <time>2017-06-20T08:44:06Z</time>
      </trkpt>
      <trkpt lat="61.851811967790127" lon="6.79242099635303">
        <ele>19.359999999999999</ele>
        <time>2017-06-20T08:44:24Z</time>
      </trkpt>
      <trkpt lat="61.850518975406885" lon="6.794423013925552">
        <ele>18.399999999999999</ele>
        <time>2017-06-20T08:44:33Z</time>
      </trkpt>
      <trkpt lat="61.849357997998595" lon="6.795860007405281">
        <ele>17.440000000000001</ele>
        <time>2017-06-20T08:44:42Z</time>
      </trkpt>
      <trkpt lat="61.847780020907521" lon="6.797591038048267">
        <ele>16.960000000000001</ele>
        <time>2017-06-20T08:44:55Z</time>
      </trkpt>
      <trkpt lat="61.846075979992747" lon="6.798616982996464">
        <ele>16.960000000000001</ele>
        <time>2017-06-20T08:45:07Z</time>
      </trkpt>
      <trkpt lat="61.844605039805174" lon="6.799372024834156">
        <ele>18.399999999999999</ele>
        <time>2017-06-20T08:45:19Z</time>
      </trkpt>
      <trkpt lat="61.843376001343131" lon="6.79987502284348">
        <ele>19.359999999999999</ele>
        <time>2017-06-20T08:45:31Z</time>
      </trkpt>
      <trkpt lat="61.841593002900481" lon="6.800447003915906">
        <ele>19.84</ele>
        <time>2017-06-20T08:45:45Z</time>
      </trkpt>
      <trkpt lat="61.84088196605444" lon="6.800602991133928">
        <ele>20.32</ele>
        <time>2017-06-20T08:45:52Z</time>
      </trkpt>
      <trkpt lat="61.84019397944212" lon="6.800581030547619">
        <ele>19.84</ele>
        <time>2017-06-20T08:46:02Z</time>
      </trkpt>
      <trkpt lat="61.839122017845511" lon="6.800565021112561">
        <ele>19.84</ele>
        <time>2017-06-20T08:46:14Z</time>
      </trkpt>
      <trkpt lat="61.837764987722039" lon="6.800741963088512">
        <ele>20.32</ele>
        <time>2017-06-20T08:46:27Z</time>
      </trkpt>
      <trkpt lat="61.836651032790542" lon="6.800613971427083">
        <ele>19.84</ele>
        <time>2017-06-20T08:46:36Z</time>
      </trkpt>
      <trkpt lat="61.836145017296076" lon="6.80045697838068">
        <ele>20.809999999999999</ele>
        <time>2017-06-20T08:46:40Z</time>
      </trkpt>
      <trkpt lat="61.836021970957518" lon="6.800473993644118">
        <ele>20.809999999999999</ele>
        <time>2017-06-20T08:46:41Z</time>
      </trkpt>
      <trkpt lat="61.835902025923133" lon="6.800514981150627">
        <ele>20.809999999999999</ele>
        <time>2017-06-20T08:46:42Z</time>
      </trkpt>
      <trkpt lat="61.835783002898097" lon="6.800576001405716">
        <ele>20.809999999999999</ele>
        <time>2017-06-20T08:46:43Z</time>
      </trkpt>
      <trkpt lat="61.835668003186584" lon="6.800660993903875">
        <ele>20.32</ele>
        <time>2017-06-20T08:46:44Z</time>
      </trkpt>
      <trkpt lat="61.835557026788592" lon="6.800774987787008">
        <ele>20.32</ele>
        <time>2017-06-20T08:46:45Z</time>
      </trkpt>
      <trkpt lat="61.835455019026995" lon="6.800902979448438">
        <ele>20.32</ele>
        <time>2017-06-20T08:46:46Z</time>
      </trkpt>
      <trkpt lat="61.835358962416649" lon="6.801043041050434">
        <ele>19.84</ele>
        <time>2017-06-20T08:46:47Z</time>
      </trkpt>
      <trkpt lat="61.835271036252379" lon="6.801198022440076">
        <ele>20.32</ele>
        <time>2017-06-20T08:46:48Z</time>
      </trkpt>
      <trkpt lat="61.83518897742033" lon="6.801360966637731">
        <ele>19.84</ele>
        <time>2017-06-20T08:46:49Z</time>
      </trkpt>
      <trkpt lat="61.835112031549215" lon="6.801544027402997">
        <ele>19.84</ele>
        <time>2017-06-20T08:46:50Z</time>
      </trkpt>
      <trkpt lat="61.835041958838701" lon="6.801747037097812">
        <ele>19.84</ele>
        <time>2017-06-20T08:46:51Z</time>
      </trkpt>
      <trkpt lat="61.834979010745883" lon="6.801964966580272">
        <ele>19.84</ele>
        <time>2017-06-20T08:46:52Z</time>
      </trkpt>
      <trkpt lat="61.834924025461078" lon="6.802189014852047">
        <ele>20.32</ele>
        <time>2017-06-20T08:46:53Z</time>
      </trkpt>
      <trkpt lat="61.834882032126188" lon="6.802423037588596">
        <ele>20.32</ele>
        <time>2017-06-20T08:46:54Z</time>
      </trkpt>
      <trkpt lat="61.834849007427692" lon="6.802657982334495">
        <ele>20.809999999999999</ele>
        <time>2017-06-20T08:46:55Z</time>
      </trkpt>
      <trkpt lat="61.834829980507493" lon="6.80290600284934">
        <ele>21.289999999999999</ele>
        <time>2017-06-20T08:46:56Z</time>
      </trkpt>
      <trkpt lat="61.834823023527861" lon="6.803148994222283">
        <ele>21.289999999999999</ele>
        <time>2017-06-20T08:46:57Z</time>
      </trkpt>
      <trkpt lat="61.83482201769948" lon="6.803388968110085">
        <ele>21.77</ele>
        <time>2017-06-20T08:46:58Z</time>
      </trkpt>
      <trkpt lat="61.834827968850732" lon="6.803607987239957">
        <ele>21.77</ele>
        <time>2017-06-20T08:46:59Z</time>
      </trkpt>
      <trkpt lat="61.834915978834033" lon="6.80576004087925">
        <ele>20.809999999999999</ele>
        <time>2017-06-20T08:47:11Z</time>
      </trkpt>
      <trkpt lat="61.83538100682199" lon="6.807557037100196">
        <ele>21.289999999999999</ele>
        <time>2017-06-20T08:47:21Z</time>
      </trkpt>
      <trkpt lat="61.836122972890735" lon="6.809032000601292">
        <ele>23.690000000000001</ele>
        <time>2017-06-20T08:47:31Z</time>
      </trkpt>
      <trkpt lat="61.837045988067985" lon="6.810100022703409">
        <ele>24.170000000000002</ele>
        <time>2017-06-20T08:47:39Z</time>
      </trkpt>
      <trkpt lat="61.838919008150697" lon="6.811278015375137">
        <ele>22.25</ele>
        <time>2017-06-20T08:47:53Z</time>
      </trkpt>
      <trkpt lat="61.84006598778069" lon="6.811094032600522">
        <ele>21.289999999999999</ele>
        <time>2017-06-20T08:48:01Z</time>
      </trkpt>
      <trkpt lat="61.841550003737211" lon="6.810692958533764">
        <ele>20.32</ele>
        <time>2017-06-20T08:48:14Z</time>
      </trkpt>
      <trkpt lat="61.842528004199266" lon="6.810946008190513">
        <ele>19.84</ele>
        <time>2017-06-20T08:48:23Z</time>
      </trkpt>
      <trkpt lat="61.843930967152119" lon="6.812097011134028">
        <ele>20.32</ele>
        <time>2017-06-20T08:48:35Z</time>
      </trkpt>
      <trkpt lat="61.845298977568746" lon="6.812864961102605">
        <ele>19.84</ele>
        <time>2017-06-20T08:48:45Z</time>
      </trkpt>
      <trkpt lat="61.848141029477119" lon="6.813751012086868">
        <ele>19.84</ele>
        <time>2017-06-20T08:49:03Z</time>
      </trkpt>
      <trkpt lat="61.850435994565487" lon="6.814782992005348">
        <ele>18.399999999999999</ele>
        <time>2017-06-20T08:49:18Z</time>
      </trkpt>
      <trkpt lat="61.852932963520288" lon="6.815756969153881">
        <ele>20.809999999999999</ele>
        <time>2017-06-20T08:49:34Z</time>
      </trkpt>
      <trkpt lat="61.854630969464779" lon="6.815846990793943">
        <ele>19.359999999999999</ele>
        <time>2017-06-20T08:49:44Z</time>
      </trkpt>
      <trkpt lat="61.856771958991885" lon="6.815490005537868">
        <ele>18.399999999999999</ele>
        <time>2017-06-20T08:49:57Z</time>
      </trkpt>
      <trkpt lat="61.858799960464239" lon="6.814759019762278">
        <ele>21.289999999999999</ele>
        <time>2017-06-20T08:50:10Z</time>
      </trkpt>
      <trkpt lat="61.859687017276883" lon="6.814916012808681">
        <ele>22.25</ele>
        <time>2017-06-20T08:50:16Z</time>
      </trkpt>
      <trkpt lat="61.859820960089564" lon="6.815031012520194">
        <ele>22.25</ele>
        <time>2017-06-20T08:50:17Z</time>
      </trkpt>
      <trkpt lat="61.85996001586318" lon="6.815188005566597">
        <ele>22.25</ele>
        <time>2017-06-20T08:50:18Z</time>
      </trkpt>
      <trkpt lat="61.860091025009751" lon="6.815358996391296">
        <ele>22.73</ele>
        <time>2017-06-20T08:50:19Z</time>
      </trkpt>
      <trkpt lat="61.860223961994052" lon="6.815576003864408">
        <ele>22.73</ele>
        <time>2017-06-20T08:50:20Z</time>
      </trkpt>
      <trkpt lat="61.860336028039455" lon="6.81579502299428">
        <ele>22.25</ele>
        <time>2017-06-20T08:50:21Z</time>
      </trkpt>
      <trkpt lat="61.860445998609066" lon="6.816048994660378">
        <ele>22.25</ele>
        <time>2017-06-20T08:50:22Z</time>
      </trkpt>
      <trkpt lat="61.86054197140038" lon="6.816327022388578">
        <ele>22.25</ele>
        <time>2017-06-20T08:50:23Z</time>
      </trkpt>
      <trkpt lat="61.860638028010726" lon="6.816624999046326">
        <ele>22.25</ele>
        <time>2017-06-20T08:50:24Z</time>
      </trkpt>
      <trkpt lat="61.860708016902208" lon="6.816943008452654">
        <ele>22.25</ele>
        <time>2017-06-20T08:50:25Z</time>
      </trkpt>
      <trkpt lat="61.860778005793691" lon="6.817273003980517">
        <ele>21.289999999999999</ele>
        <time>2017-06-20T08:50:26Z</time>
      </trkpt>
      <trkpt lat="61.86155098490417" lon="6.819772990420461">
        <ele>19.84</ele>
        <time>2017-06-20T08:50:34Z</time>
      </trkpt>
      <trkpt lat="61.863344041630626" lon="6.823741989210248">
        <ele>19.84</ele>
        <time>2017-06-20T08:50:48Z</time>
      </trkpt>
      <trkpt lat="61.863602958619595" lon="6.82424096390605">
        <ele>19.84</ele>
        <time>2017-06-20T08:50:50Z</time>
      </trkpt>
      <trkpt lat="61.863748971372843" lon="6.824443973600864">
        <ele>19.84</ele>
        <time>2017-06-20T08:50:51Z</time>
      </trkpt>
      <trkpt lat="61.863902024924755" lon="6.824603984132409">
        <ele>19.84</ele>
        <time>2017-06-20T08:50:52Z</time>
      </trkpt>
      <trkpt lat="61.8640620354563" lon="6.824716972187161">
        <ele>19.84</ele>
        <time>2017-06-20T08:50:53Z</time>
      </trkpt>
      <trkpt lat="61.864227997139096" lon="6.824765000492334">
        <ele>20.32</ele>
        <time>2017-06-20T08:50:54Z</time>
      </trkpt>
      <trkpt lat="61.864390019327402" lon="6.824769023805857">
        <ele>20.809999999999999</ele>
        <time>2017-06-20T08:50:55Z</time>
      </trkpt>
      <trkpt lat="61.864560004323721" lon="6.824720995500684">
        <ele>20.809999999999999</ele>
        <time>2017-06-20T08:50:56Z</time>
      </trkpt>
      <trkpt lat="61.864721020683646" lon="6.824639020487666">
        <ele>21.289999999999999</ele>
        <time>2017-06-20T08:50:57Z</time>
      </trkpt>
      <trkpt lat="61.864885976538062" lon="6.824535001069307">
        <ele>21.77</ele>
        <time>2017-06-20T08:50:58Z</time>
      </trkpt>
      <trkpt lat="61.868202025070786" lon="6.830430999398232">
        <ele>18.399999999999999</ele>
        <time>2017-06-20T08:51:32Z</time>
      </trkpt>
      <trkpt lat="61.868138993158937" lon="6.833397019654512">
        <ele>16.960000000000001</ele>
        <time>2017-06-20T08:51:40Z</time>
      </trkpt>
      <trkpt lat="61.868089959025383" lon="6.833760961890221">
        <ele>16.960000000000001</ele>
        <time>2017-06-20T08:51:41Z</time>
      </trkpt>
      <trkpt lat="61.867688968777657" lon="6.837081033736467">
        <ele>17.920000000000002</ele>
        <time>2017-06-20T08:51:50Z</time>
      </trkpt>
      <trkpt lat="61.867570029571652" lon="6.838895967230201">
        <ele>18.399999999999999</ele>
        <time>2017-06-20T08:51:55Z</time>
      </trkpt>
      <trkpt lat="61.867517977952957" lon="6.839211964979768">
        <ele>18.879999999999999</ele>
        <time>2017-06-20T08:51:56Z</time>
      </trkpt>
      <trkpt lat="61.867451006546617" lon="6.839529974386096">
        <ele>18.879999999999999</ele>
        <time>2017-06-20T08:51:57Z</time>
      </trkpt>
      <trkpt lat="61.866651037707925" lon="6.84291198849678">
        <ele>17.440000000000001</ele>
        <time>2017-06-20T08:52:07Z</time>
      </trkpt>
      <trkpt lat="61.865879986435175" lon="6.845519011840224">
        <ele>17.440000000000001</ele>
        <time>2017-06-20T08:52:16Z</time>
      </trkpt>
      <trkpt lat="61.865681000053883" lon="6.847310978919268">
        <ele>18.879999999999999</ele>
        <time>2017-06-20T08:52:24Z</time>
      </trkpt>
      <trkpt lat="61.865813015028834" lon="6.84838998131454">
        <ele>19.84</ele>
        <time>2017-06-20T08:52:29Z</time>
      </trkpt>
      <trkpt lat="61.865874035283923" lon="6.848609000444412">
        <ele>19.84</ele>
        <time>2017-06-20T08:52:30Z</time>
      </trkpt>
      <trkpt lat="61.865943018347025" lon="6.848814021795988">
        <ele>19.84</ele>
        <time>2017-06-20T08:52:31Z</time>
      </trkpt>
      <trkpt lat="61.86602097004652" lon="6.849019965156913">
        <ele>19.84</ele>
        <time>2017-06-20T08:52:32Z</time>
      </trkpt>
      <trkpt lat="61.86610696837306" lon="6.849220041185617">
        <ele>19.84</ele>
        <time>2017-06-20T08:52:33Z</time>
      </trkpt>
      <trkpt lat="61.866195984184742" lon="6.849407041445375">
        <ele>19.84</ele>
        <time>2017-06-20T08:52:34Z</time>
      </trkpt>
      <trkpt lat="61.866289023309946" lon="6.849574008956552">
        <ele>19.84</ele>
        <time>2017-06-20T08:52:35Z</time>
      </trkpt>
      <trkpt lat="61.866391031071544" lon="6.849724967032671">
        <ele>19.359999999999999</ele>
        <time>2017-06-20T08:52:36Z</time>
      </trkpt>
      <trkpt lat="61.866503013297915" lon="6.849852036684752">
        <ele>19.84</ele>
        <time>2017-06-20T08:52:37Z</time>
      </trkpt>
      <trkpt lat="61.866622036322951" lon="6.849949015304446">
        <ele>19.84</ele>
        <time>2017-06-20T08:52:38Z</time>
      </trkpt>
      <trkpt lat="61.866746004670858" lon="6.850031996145845">
        <ele>19.84</ele>
        <time>2017-06-20T08:52:39Z</time>
      </trkpt>
      <trkpt lat="61.866869973018765" lon="6.850096033886075">
        <ele>19.84</ele>
        <time>2017-06-20T08:52:40Z</time>
      </trkpt>
      <trkpt lat="61.869016997516155" lon="6.850979989394546">
        <ele>20.809999999999999</ele>
        <time>2017-06-20T08:52:56Z</time>
      </trkpt>
      <trkpt lat="61.869967002421618" lon="6.85120303183794">
        <ele>20.809999999999999</ele>
        <time>2017-06-20T08:53:03Z</time>
      </trkpt>
      <trkpt lat="61.870108991861343" lon="6.851147040724754">
        <ele>20.809999999999999</ele>
        <time>2017-06-20T08:53:04Z</time>
      </trkpt>
      <trkpt lat="61.870246035978198" lon="6.851071016862989">
        <ele>20.809999999999999</ele>
        <time>2017-06-20T08:53:05Z</time>
      </trkpt>
      <trkpt lat="61.87038199044764" lon="6.850954005494714">
        <ele>20.32</ele>
        <time>2017-06-20T08:53:06Z</time>
      </trkpt>
      <trkpt lat="61.870515011250973" lon="6.850802963599563">
        <ele>20.32</ele>
        <time>2017-06-20T08:53:07Z</time>
      </trkpt>
      <trkpt lat="61.870644008740783" lon="6.850616969168186">
        <ele>19.84</ele>
        <time>2017-06-20T08:53:08Z</time>
      </trkpt>
      <trkpt lat="61.870763031765819" lon="6.850403985008597">
        <ele>19.84</ele>
        <time>2017-06-20T08:53:09Z</time>
      </trkpt>
      <trkpt lat="61.870870990678668" lon="6.850171973928809">
        <ele>19.359999999999999</ele>
        <time>2017-06-20T08:53:10Z</time>
      </trkpt>
      <trkpt lat="61.870966963469982" lon="6.849928982555866">
        <ele>18.879999999999999</ele>
        <time>2017-06-20T08:53:11Z</time>
      </trkpt>
      <trkpt lat="61.871060002595186" lon="6.849688002839685">
        <ele>18.399999999999999</ele>
        <time>2017-06-20T08:53:12Z</time>
      </trkpt>
      <trkpt lat="61.871225964277983" lon="6.849191961809993">
        <ele>17.920000000000002</ele>
        <time>2017-06-20T08:53:14Z</time>
      </trkpt>
      <trkpt lat="61.871285978704691" lon="6.848920974880457">
        <ele>17.920000000000002</ele>
        <time>2017-06-20T08:53:15Z</time>
      </trkpt>
      <trkpt lat="61.871334007009864" lon="6.848631966859102">
        <ele>17.920000000000002</ele>
        <time>2017-06-20T08:53:16Z</time>
      </trkpt>
      <trkpt lat="61.871357979252934" lon="6.848338013514876">
        <ele>17.440000000000001</ele>
        <time>2017-06-20T08:53:17Z</time>
      </trkpt>
      <trkpt lat="61.871371977031231" lon="6.848040958866477">
        <ele>17.440000000000001</ele>
        <time>2017-06-20T08:53:18Z</time>
      </trkpt>
      <trkpt lat="61.871377006173134" lon="6.847738036885858">
        <ele>17.440000000000001</ele>
        <time>2017-06-20T08:53:19Z</time>
      </trkpt>
      <trkpt lat="61.871445989236236" lon="6.846324009820819">
        <ele>17.440000000000001</ele>
        <time>2017-06-20T08:53:24Z</time>
      </trkpt>
      <trkpt lat="61.871484965085983" lon="6.846056040376425">
        <ele>16.960000000000001</ele>
        <time>2017-06-20T08:53:25Z</time>
      </trkpt>
      <trkpt lat="61.871737008914351" lon="6.845005033537746">
        <ele>16.960000000000001</ele>
        <time>2017-06-20T08:53:29Z</time>
      </trkpt>
      <trkpt lat="61.871828958392143" lon="6.844761958345771">
        <ele>17.440000000000001</ele>
        <time>2017-06-20T08:53:30Z</time>
      </trkpt>
      <trkpt lat="61.871930966153741" lon="6.844532964751124">
        <ele>17.440000000000001</ele>
        <time>2017-06-20T08:53:31Z</time>
      </trkpt>
      <trkpt lat="61.872042026370764" lon="6.844319980591536">
        <ele>17.440000000000001</ele>
        <time>2017-06-20T08:53:32Z</time>
      </trkpt>
      <trkpt lat="61.872162977233529" lon="6.84411495923996">
        <ele>17.440000000000001</ele>
        <time>2017-06-20T08:53:33Z</time>
      </trkpt>
      <trkpt lat="61.872291974723339" lon="6.843927036970854">
        <ele>17.440000000000001</ele>
        <time>2017-06-20T08:53:34Z</time>
      </trkpt>
      <trkpt lat="61.872420972213149" lon="6.843761997297406">
        <ele>17.440000000000001</ele>
        <time>2017-06-20T08:53:35Z</time>
      </trkpt>
      <trkpt lat="61.87255097553134" lon="6.843611961230636">
        <ele>17.440000000000001</ele>
        <time>2017-06-20T08:53:36Z</time>
      </trkpt>
      <trkpt lat="61.87392502091825" lon="6.841800967231393">
        <ele>20.809999999999999</ele>
        <time>2017-06-20T08:53:47Z</time>
      </trkpt>
      <trkpt lat="61.874927999451756" lon="6.839255969971418">
        <ele>17.920000000000002</ele>
        <time>2017-06-20T08:53:58Z</time>
      </trkpt>
      <trkpt lat="61.875599976629019" lon="6.837106011807919">
        <ele>18.879999999999999</ele>
        <time>2017-06-20T08:54:06Z</time>
      </trkpt>
      <trkpt lat="61.875641969963908" lon="6.836781967431307">
        <ele>18.879999999999999</ele>
        <time>2017-06-20T08:54:07Z</time>
      </trkpt>
      <trkpt lat="61.875674994662404" lon="6.836445014923811">
        <ele>18.399999999999999</ele>
        <time>2017-06-20T08:54:08Z</time>
      </trkpt>
      <trkpt lat="61.875696033239365" lon="6.836095992475748">
        <ele>18.879999999999999</ele>
        <time>2017-06-20T08:54:09Z</time>
      </trkpt>
      <trkpt lat="61.875705001875758" lon="6.835746970027685">
        <ele>18.879999999999999</ele>
        <time>2017-06-20T08:54:10Z</time>
      </trkpt>
      <trkpt lat="61.875700978562236" lon="6.835385039448738">
        <ele>18.879999999999999</ele>
        <time>2017-06-20T08:54:11Z</time>
      </trkpt>
      <trkpt lat="61.875686980783939" lon="6.835021013393998">
        <ele>18.879999999999999</ele>
        <time>2017-06-20T08:54:12Z</time>
      </trkpt>
      <trkpt lat="61.875596037134528" lon="6.830705003812909">
        <ele>18.879999999999999</ele>
        <time>2017-06-20T08:54:25Z</time>
      </trkpt>
      <trkpt lat="61.875444995239377" lon="6.827638987451792">
        <ele>17.920000000000002</ele>
        <time>2017-06-20T08:54:34Z</time>
      </trkpt>
      <trkpt lat="61.875167973339558" lon="6.824892992153764">
        <ele>18.879999999999999</ele>
        <time>2017-06-20T08:54:41Z</time>
      </trkpt>
      <trkpt lat="61.8751519639045" lon="6.824524020776153">
        <ele>19.359999999999999</ele>
        <time>2017-06-20T08:54:42Z</time>
      </trkpt>
      <trkpt lat="61.875152969732881" lon="6.824149014428258">
        <ele>19.359999999999999</ele>
        <time>2017-06-20T08:54:43Z</time>
      </trkpt>
      <trkpt lat="61.875247014686465" lon="6.821405030786991">
        <ele>21.289999999999999</ele>
        <time>2017-06-20T08:54:50Z</time>
      </trkpt>
      <trkpt lat="61.875222036615014" lon="6.821003034710884">
        <ele>21.289999999999999</ele>
        <time>2017-06-20T08:54:51Z</time>
      </trkpt>
      <trkpt lat="61.87467897310853" lon="6.816632961854339">
        <ele>22.25</ele>
        <time>2017-06-20T08:55:02Z</time>
      </trkpt>
      <trkpt lat="61.874176980927587" lon="6.814452996477485">
        <ele>20.809999999999999</ele>
        <time>2017-06-20T08:55:09Z</time>
      </trkpt>
      <trkpt lat="61.872718026861548" lon="6.80969400331378">
        <ele>19.84</ele>
        <time>2017-06-20T08:55:26Z</time>
      </trkpt>
      <trkpt lat="61.872106986120343" lon="6.806592028588057">
        <ele>21.289999999999999</ele>
        <time>2017-06-20T08:55:36Z</time>
      </trkpt>
      <trkpt lat="61.87106997705996" lon="6.803348986431956">
        <ele>26.09</ele>
        <time>2017-06-20T08:55:48Z</time>
      </trkpt>
      <trkpt lat="61.870608972385526" lon="6.800997024402022">
        <ele>27.050000000000001</ele>
        <time>2017-06-20T08:55:56Z</time>
      </trkpt>
      <trkpt lat="61.870083007961512" lon="6.797011010348797">
        <ele>23.210000000000001</ele>
        <time>2017-06-20T08:56:08Z</time>
      </trkpt>
      <trkpt lat="61.869912017136812" lon="6.793350968509913">
        <ele>22.25</ele>
        <time>2017-06-20T08:56:19Z</time>
      </trkpt>
      <trkpt lat="61.870245030149817" lon="6.789063960313797">
        <ele>28.02</ele>
        <time>2017-06-20T08:56:32Z</time>
      </trkpt>
      <trkpt lat="61.870317030698061" lon="6.788772018626332">
        <ele>28.5</ele>
        <time>2017-06-20T08:56:33Z</time>
      </trkpt>
      <trkpt lat="61.870405040681362" lon="6.788500025868416">
        <ele>28.5</ele>
        <time>2017-06-20T08:56:34Z</time>
      </trkpt>
      <trkpt lat="61.870508976280689" lon="6.788254017010331">
        <ele>28.02</ele>
        <time>2017-06-20T08:56:35Z</time>
      </trkpt>
      <trkpt lat="61.870627999305725" lon="6.788027035072446">
        <ele>27.530000000000001</ele>
        <time>2017-06-20T08:56:36Z</time>
      </trkpt>
      <trkpt lat="61.870752973482013" lon="6.787806004285812">
        <ele>26.57</ele>
        <time>2017-06-20T08:56:37Z</time>
      </trkpt>
      <trkpt lat="61.871085986495018" lon="6.787064038217068">
        <ele>25.129999999999999</ele>
        <time>2017-06-20T08:56:40Z</time>
      </trkpt>
      <trkpt lat="61.871168967336416" lon="6.786771006882191">
        <ele>25.129999999999999</ele>
        <time>2017-06-20T08:56:41Z</time>
      </trkpt>
      <trkpt lat="61.871236022561789" lon="6.786461966112256">
        <ele>25.609999999999999</ele>
        <time>2017-06-20T08:56:42Z</time>
      </trkpt>
      <trkpt lat="61.871294025331736" lon="6.786138005554676">
        <ele>25.609999999999999</ele>
        <time>2017-06-20T08:56:43Z</time>
      </trkpt>
      <trkpt lat="61.871345993131399" lon="6.785801975056529">
        <ele>25.609999999999999</ele>
        <time>2017-06-20T08:56:44Z</time>
      </trkpt>
      <trkpt lat="61.872015036642551" lon="6.782627999782562">
        <ele>28.5</ele>
        <time>2017-06-20T08:56:54Z</time>
      </trkpt>
      <trkpt lat="61.872492972761393" lon="6.781269041821361">
        <ele>29.460000000000001</ele>
        <time>2017-06-20T08:56:59Z</time>
      </trkpt>
      <trkpt lat="61.872558016330004" lon="6.780962012708187">
        <ele>29.940000000000001</ele>
        <time>2017-06-20T08:57:00Z</time>
      </trkpt>
      <trkpt lat="61.873137038201094" lon="6.777773033827543">
        <ele>27.050000000000001</ele>
        <time>2017-06-20T08:57:10Z</time>
      </trkpt>
      <trkpt lat="61.873226976022124" lon="6.777520989999175">
        <ele>26.57</ele>
        <time>2017-06-20T08:57:11Z</time>
      </trkpt>
      <trkpt lat="61.873337030410767" lon="6.777303982526064">
        <ele>26.57</ele>
        <time>2017-06-20T08:57:12Z</time>
      </trkpt>
      <trkpt lat="61.873463010415435" lon="6.777112036943436">
        <ele>26.09</ele>
        <time>2017-06-20T08:57:13Z</time>
      </trkpt>
      <trkpt lat="61.873597037047148" lon="6.776927970349789">
        <ele>25.129999999999999</ele>
        <time>2017-06-20T08:57:14Z</time>
      </trkpt>
      <trkpt lat="61.874861028045416" lon="6.774714980274439">
        <ele>19.359999999999999</ele>
        <time>2017-06-20T08:57:24Z</time>
      </trkpt>
      <trkpt lat="61.874949960038066" lon="6.774425972253084">
        <ele>19.359999999999999</ele>
        <time>2017-06-20T08:57:25Z</time>
      </trkpt>
      <trkpt lat="61.875540968030691" lon="6.772844977676868">
        <ele>20.32</ele>
        <time>2017-06-20T08:57:31Z</time>
      </trkpt>
      <trkpt lat="61.875671977177262" lon="6.77263199351728">
        <ele>20.32</ele>
        <time>2017-06-20T08:57:32Z</time>
      </trkpt>
      <trkpt lat="61.875812038779259" lon="6.77243803627789">
        <ele>20.32</ele>
        <time>2017-06-20T08:57:33Z</time>
      </trkpt>
      <trkpt lat="61.875954028218985" lon="6.772271990776062">
        <ele>20.809999999999999</ele>
        <time>2017-06-20T08:57:34Z</time>
      </trkpt>
      <trkpt lat="61.876105992123485" lon="6.772121032699943">
        <ele>20.809999999999999</ele>
        <time>2017-06-20T08:57:35Z</time>
      </trkpt>
      <trkpt lat="61.876991037279367" lon="6.771162981167436">
        <ele>22.73</ele>
        <time>2017-06-20T08:57:41Z</time>
      </trkpt>
      <trkpt lat="61.877116011455655" lon="6.770914038643241">
        <ele>23.210000000000001</ele>
        <time>2017-06-20T08:57:42Z</time>
      </trkpt>
      <trkpt lat="61.877226987853646" lon="6.770639028400183">
        <ele>24.170000000000002</ele>
        <time>2017-06-20T08:57:43Z</time>
      </trkpt>
      <trkpt lat="61.877317009493709" lon="6.770344991236925">
        <ele>24.649999999999999</ele>
        <time>2017-06-20T08:57:44Z</time>
      </trkpt>
      <trkpt lat="61.877386998385191" lon="6.770024970173836">
        <ele>25.609999999999999</ele>
        <time>2017-06-20T08:57:45Z</time>
      </trkpt>
      <trkpt lat="61.877440977841616" lon="6.769683994352818">
        <ele>26.09</ele>
        <time>2017-06-20T08:57:46Z</time>
      </trkpt>
      <trkpt lat="61.877489006146789" lon="6.769338995218277">
        <ele>27.050000000000001</ele>
        <time>2017-06-20T08:57:47Z</time>
      </trkpt>
      <trkpt lat="61.877719005569816" lon="6.767543004825711">
        <ele>28.98</ele>
        <time>2017-06-20T08:57:52Z</time>
      </trkpt>
      <trkpt lat="61.877791006118059" lon="6.767220972105861">
        <ele>28.98</ele>
        <time>2017-06-20T08:57:53Z</time>
      </trkpt>
      <trkpt lat="61.877881027758121" lon="6.766921989619732">
        <ele>28.5</ele>
        <time>2017-06-20T08:57:54Z</time>
      </trkpt>
      <trkpt lat="61.877997033298016" lon="6.766657959669828">
        <ele>27.530000000000001</ele>
        <time>2017-06-20T08:57:55Z</time>
      </trkpt>
      <trkpt lat="61.878126030787826" lon="6.766413962468505">
        <ele>27.050000000000001</ele>
        <time>2017-06-20T08:57:56Z</time>
      </trkpt>
      <trkpt lat="61.878268020227551" lon="6.766184968873859">
        <ele>26.57</ele>
        <time>2017-06-20T08:57:57Z</time>
      </trkpt>
      <trkpt lat="61.878677979111671" lon="6.765490025281906">
        <ele>25.129999999999999</ele>
        <time>2017-06-20T08:58:00Z</time>
      </trkpt>
      <trkpt lat="61.878795996308327" lon="6.76521903835237">
        <ele>24.170000000000002</ele>
        <time>2017-06-20T08:58:01Z</time>
      </trkpt>
      <trkpt lat="61.878898004069924" lon="6.764927012845874">
        <ele>24.170000000000002</ele>
        <time>2017-06-20T08:58:02Z</time>
      </trkpt>
      <trkpt lat="61.878985008224845" lon="6.764609003439546">
        <ele>23.210000000000001</ele>
        <time>2017-06-20T08:58:03Z</time>
      </trkpt>
      <trkpt lat="61.879050973802805" lon="6.764255035668612">
        <ele>22.73</ele>
        <time>2017-06-20T08:58:04Z</time>
      </trkpt>
      <trkpt lat="61.879100007936358" lon="6.763877011835575">
        <ele>22.25</ele>
        <time>2017-06-20T08:58:05Z</time>
      </trkpt>
      <trkpt lat="61.879134960472584" lon="6.763483984395862">
        <ele>22.25</ele>
        <time>2017-06-20T08:58:06Z</time>
      </trkpt>
      <trkpt lat="61.879160022363067" lon="6.7630710080266">
        <ele>21.77</ele>
        <time>2017-06-20T08:58:07Z</time>
      </trkpt>
      <trkpt lat="61.879402007907629" lon="6.757902977988124">
        <ele>21.77</ele>
        <time>2017-06-20T08:58:19Z</time>
      </trkpt>
      <trkpt lat="61.879565035924315" lon="6.750565962865949">
        <ele>27.050000000000001</ele>
        <time>2017-06-20T08:58:36Z</time>
      </trkpt>
      <trkpt lat="61.879970971494913" lon="6.744118016213179">
        <ele>27.050000000000001</ele>
        <time>2017-06-20T08:58:51Z</time>
      </trkpt>
      <trkpt lat="61.880080020055175" lon="6.73920102417469">
        <ele>31.859999999999999</ele>
        <time>2017-06-20T08:59:02Z</time>
      </trkpt>
      <trkpt lat="61.880222009494901" lon="6.734540015459061">
        <ele>35.229999999999997</ele>
        <time>2017-06-20T08:59:13Z</time>
      </trkpt>
      <trkpt lat="61.880120001733303" lon="6.731312982738018">
        <ele>33.780000000000001</ele>
        <time>2017-06-20T08:59:21Z</time>
      </trkpt>
      <trkpt lat="61.880275988951325" lon="6.725934986025095">
        <ele>29.460000000000001</ele>
        <time>2017-06-20T08:59:34Z</time>
      </trkpt>
      <trkpt lat="61.880354024469852" lon="6.722318027168512">
        <ele>30.420000000000002</ele>
        <time>2017-06-20T08:59:44Z</time>
      </trkpt>
      <trkpt lat="61.880559967830777" lon="6.719850981608033">
        <ele>28.5</ele>
        <time>2017-06-20T08:59:52Z</time>
      </trkpt>
      <trkpt lat="61.880974033847451" lon="6.71664297580719">
        <ele>26.09</ele>
        <time>2017-06-20T09:00:00Z</time>
      </trkpt>
      <trkpt lat="61.881322972476482" lon="6.71412798576057">
        <ele>29.460000000000001</ele>
        <time>2017-06-20T09:00:07Z</time>
      </trkpt>
      <trkpt lat="61.881413999944925" lon="6.713615013286471">
        <ele>29.940000000000001</ele>
        <time>2017-06-20T09:00:09Z</time>
      </trkpt>
      <trkpt lat="61.881472002714872" lon="6.713383002206683">
        <ele>30.420000000000002</ele>
        <time>2017-06-20T09:00:10Z</time>
      </trkpt>
      <trkpt lat="61.881536040455103" lon="6.713155014440417">
        <ele>30.420000000000002</ele>
        <time>2017-06-20T09:00:11Z</time>
      </trkpt>
      <trkpt lat="61.88172304071486" lon="6.712412964552641">
        <ele>30.899999999999999</ele>
        <time>2017-06-20T09:00:14Z</time>
      </trkpt>
      <trkpt lat="61.881764028221369" lon="6.712157987058163">
        <ele>30.899999999999999</ele>
        <time>2017-06-20T09:00:15Z</time>
      </trkpt>
      <trkpt lat="61.8825429584831" lon="6.710922997444868">
        <ele>31.859999999999999</ele>
        <time>2017-06-20T09:00:22Z</time>
      </trkpt>
      <trkpt lat="61.882779998704791" lon="6.71101301908493">
        <ele>31.859999999999999</ele>
        <time>2017-06-20T09:00:23Z</time>
      </trkpt>
      <trkpt lat="61.88451798632741" lon="6.710891984403133">
        <ele>27.530000000000001</ele>
        <time>2017-06-20T09:00:31Z</time>
      </trkpt>
      <trkpt lat="61.885433960705996" lon="6.710327966138721">
        <ele>25.129999999999999</ele>
        <time>2017-06-20T09:00:36Z</time>
      </trkpt>
      <trkpt lat="61.885622972622514" lon="6.710130991414189">
        <ele>24.170000000000002</ele>
        <time>2017-06-20T09:00:37Z</time>
      </trkpt>
      <trkpt lat="61.886854022741318" lon="6.708761975169182">
        <ele>21.289999999999999</ele>
        <time>2017-06-20T09:00:44Z</time>
      </trkpt>
      <trkpt lat="61.888203006237745" lon="6.707545006647706">
        <ele>19.359999999999999</ele>
        <time>2017-06-20T09:00:53Z</time>
      </trkpt>
      <trkpt lat="61.889747958630323" lon="6.707221968099475">
        <ele>18.879999999999999</ele>
        <time>2017-06-20T09:01:03Z</time>
      </trkpt>
      <trkpt lat="61.89128402620554" lon="6.707404023036361">
        <ele>17.440000000000001</ele>
        <time>2017-06-20T09:01:13Z</time>
      </trkpt>
      <trkpt lat="61.892220033332705" lon="6.707115015015006">
        <ele>16.48</ele>
        <time>2017-06-20T09:01:20Z</time>
      </trkpt>
      <trkpt lat="61.893475977703929" lon="6.706831036135554">
        <ele>16.48</ele>
        <time>2017-06-20T09:01:30Z</time>
      </trkpt>
      <trkpt lat="61.895179012790322" lon="6.706656021997333">
        <ele>16.960000000000001</ele>
        <time>2017-06-20T09:01:44Z</time>
      </trkpt>
      <trkpt lat="61.89706401899457" lon="6.706532975658774">
        <ele>17.440000000000001</ele>
        <time>2017-06-20T09:01:58Z</time>
      </trkpt>
      <trkpt lat="61.897303992882371" lon="6.706621991470456">
        <ele>17.920000000000002</ele>
        <time>2017-06-20T09:02:00Z</time>
      </trkpt>
      <trkpt lat="61.898040007799864" lon="6.707420032471418">
        <ele>20.32</ele>
        <time>2017-06-20T09:02:07Z</time>
      </trkpt>
      <trkpt lat="61.89811896532774" lon="6.707588005810976">
        <ele>20.32</ele>
        <time>2017-06-20T09:02:08Z</time>
      </trkpt>
      <trkpt lat="61.898192977532744" lon="6.707752039656043">
        <ele>20.32</ele>
        <time>2017-06-20T09:02:09Z</time>
      </trkpt>
      <trkpt lat="61.898960005491972" lon="6.710083968937397">
        <ele>23.690000000000001</ele>
        <time>2017-06-20T09:02:20Z</time>
      </trkpt>
      <trkpt lat="61.899703983217478" lon="6.712530981749296">
        <ele>23.690000000000001</ele>
        <time>2017-06-20T09:02:33Z</time>
      </trkpt>
      <trkpt lat="61.900408985093236" lon="6.714774984866381">
        <ele>21.289999999999999</ele>
        <time>2017-06-20T09:02:46Z</time>
      </trkpt>
      <trkpt lat="61.901155980303884" lon="6.716501992195845">
        <ele>18.879999999999999</ele>
        <time>2017-06-20T09:02:58Z</time>
      </trkpt>
      <trkpt lat="61.901297969743609" lon="6.716736014932394">
        <ele>18.879999999999999</ele>
        <time>2017-06-20T09:03:01Z</time>
      </trkpt>
      <trkpt lat="61.901318002492189" lon="6.716812960803509">
        <ele>18.879999999999999</ele>
        <time>2017-06-20T09:03:02Z</time>
      </trkpt>
      <trkpt lat="61.901323031634092" lon="6.716889990493655">
        <ele>18.879999999999999</ele>
        <time>2017-06-20T09:03:03Z</time>
      </trkpt>
      <trkpt lat="61.901313979178667" lon="6.716952016577125">
        <ele>18.879999999999999</ele>
        <time>2017-06-20T09:03:04Z</time>
      </trkpt>
      <trkpt lat="61.901192022487521" lon="6.716952016577125">
        <ele>19.84</ele>
        <time>2017-06-20T09:03:09Z</time>
      </trkpt>
      <trkpt lat="61.901078028604388" lon="6.716823019087315">
        <ele>17.440000000000001</ele>
        <time>2017-06-20T09:03:25Z</time>
      </trkpt>
      <trkpt lat="61.901068976148963" lon="6.716810027137399">
        <ele>16.960000000000001</ele>
        <time>2017-06-20T09:04:00Z</time>
      </trkpt>
      <trkpt lat="61.901067970320582" lon="6.716817989945412">
        <ele>16.48</ele>
        <time>2017-06-20T09:04:48Z</time>
      </trkpt>
      <trkpt lat="61.901070987805724" lon="6.716780019924045">
        <ele>16</ele>
        <time>2017-06-20T09:05:19Z</time>
      </trkpt>
      <trkpt lat="61.90134197473526" lon="6.716737020760775">
        <ele>81.849999999999994</ele>
        <time>2017-06-20T09:20:22Z</time>
      </trkpt>
      <trkpt lat="61.901092026382685" lon="6.716639958322048">
        <ele>17.920000000000002</ele>
        <time>2017-06-20T09:21:55Z</time>
      </trkpt>
      <trkpt lat="61.901095965877175" lon="6.716686980798841">
        <ele>17.920000000000002</ele>
        <time>2017-06-20T09:22:37Z</time>
      </trkpt>
      <trkpt lat="61.901092026382685" lon="6.716684969142079">
        <ele>17.920000000000002</ele>
        <time>2017-06-20T09:24:01Z</time>
      </trkpt>
      <trkpt lat="61.901090014725924" lon="6.716679017990828">
        <ele>17.440000000000001</ele>
        <time>2017-06-20T09:25:48Z</time>
      </trkpt>
      <trkpt lat="61.901089008897543" lon="6.716678012162447">
        <ele>17.440000000000001</ele>
        <time>2017-06-20T09:27:19Z</time>
      </trkpt>
      <trkpt lat="61.90108397975564" lon="6.716677006334066">
        <ele>16.960000000000001</ele>
        <time>2017-06-20T09:27:52Z</time>
      </trkpt>
      <trkpt lat="61.901209037750959" lon="6.716754036024213">
        <ele>16.48</ele>
        <time>2017-06-20T09:27:59Z</time>
      </trkpt>
      <trkpt lat="61.901244996115565" lon="6.716799968853593">
        <ele>16.960000000000001</ele>
        <time>2017-06-20T09:28:00Z</time>
      </trkpt>
      <trkpt lat="61.901286989450455" lon="6.716824024915695">
        <ele>16.960000000000001</ele>
        <time>2017-06-20T09:28:01Z</time>
      </trkpt>
      <trkpt lat="61.901325965300202" lon="6.716838022693992">
        <ele>16.48</ele>
        <time>2017-06-20T09:28:02Z</time>
      </trkpt>
      <trkpt lat="61.901358989998698" lon="6.716837016865611">
        <ele>16.48</ele>
        <time>2017-06-20T09:28:03Z</time>
      </trkpt>
      <trkpt lat="61.901392014697194" lon="6.716820001602173">
        <ele>16</ele>
        <time>2017-06-20T09:28:04Z</time>
      </trkpt>
      <trkpt lat="61.901433002203703" lon="6.716804997995496">
        <ele>15.52</ele>
        <time>2017-06-20T09:28:05Z</time>
      </trkpt>
      <trkpt lat="61.901486981660128" lon="6.716825030744076">
        <ele>15.52</ele>
        <time>2017-06-20T09:28:06Z</time>
      </trkpt>
      <trkpt lat="61.901545990258455" lon="6.716884039342403">
        <ele>15.52</ele>
        <time>2017-06-20T09:28:07Z</time>
      </trkpt>
      <trkpt lat="61.901607010513544" lon="6.716944975778461">
        <ele>15.039999999999999</ele>
        <time>2017-06-20T09:28:08Z</time>
      </trkpt>
      <trkpt lat="61.902456013485789" lon="6.717906966805458">
        <ele>14.56</ele>
        <time>2017-06-20T09:28:20Z</time>
      </trkpt>
      <trkpt lat="61.902588028460741" lon="6.718092039227486">
        <ele>15.039999999999999</ele>
        <time>2017-06-20T09:28:23Z</time>
      </trkpt>
      <trkpt lat="61.902637984603643" lon="6.718133026733995">
        <ele>15.039999999999999</ele>
        <time>2017-06-20T09:28:24Z</time>
      </trkpt>
      <trkpt lat="61.902822973206639" lon="6.718262024223805">
        <ele>14.56</ele>
        <time>2017-06-20T09:28:27Z</time>
      </trkpt>
      <trkpt lat="61.902877036482096" lon="6.718332013115287">
        <ele>14.08</ele>
        <time>2017-06-20T09:28:28Z</time>
      </trkpt>
      <trkpt lat="61.902926992624998" lon="6.71840401366353">
        <ele>14.08</ele>
        <time>2017-06-20T09:28:29Z</time>
      </trkpt>
      <trkpt lat="61.902972003445029" lon="6.718484982848167">
        <ele>14.08</ele>
        <time>2017-06-20T09:28:30Z</time>
      </trkpt>
      <trkpt lat="61.903015002608299" lon="6.718571987003088">
        <ele>14.08</ele>
        <time>2017-06-20T09:28:31Z</time>
      </trkpt>
      <trkpt lat="61.903582038357854" lon="6.720211990177631">
        <ele>15.039999999999999</ele>
        <time>2017-06-20T09:28:44Z</time>
      </trkpt>
      <trkpt lat="61.904071038588881" lon="6.721767000854015">
        <ele>15.52</ele>
        <time>2017-06-20T09:28:57Z</time>
      </trkpt>
      <trkpt lat="61.90456498414278" lon="6.723252022638917">
        <ele>15.039999999999999</ele>
        <time>2017-06-20T09:29:11Z</time>
      </trkpt>
      <trkpt lat="61.904808981344104" lon="6.724046962335706">
        <ele>13.6</ele>
        <time>2017-06-20T09:29:21Z</time>
      </trkpt>
      <trkpt lat="61.905278032645583" lon="6.725384965538979">
        <ele>14.08</ele>
        <time>2017-06-20T09:29:37Z</time>
      </trkpt>
      <trkpt lat="61.905799973756075" lon="6.727013988420367">
        <ele>15.52</ele>
        <time>2017-06-20T09:29:52Z</time>
      </trkpt>
      <trkpt lat="61.906355023384094" lon="6.729346001520753">
        <ele>17.440000000000001</ele>
        <time>2017-06-20T09:30:05Z</time>
      </trkpt>
      <trkpt lat="61.906462982296944" lon="6.731347013264895">
        <ele>17.920000000000002</ele>
        <time>2017-06-20T09:30:13Z</time>
      </trkpt>
      <trkpt lat="61.906664986163378" lon="6.733972979709506">
        <ele>17.920000000000002</ele>
        <time>2017-06-20T09:30:22Z</time>
      </trkpt>
      <trkpt lat="61.907394966110587" lon="6.736302981153131">
        <ele>17.920000000000002</ele>
        <time>2017-06-20T09:30:31Z</time>
      </trkpt>
      <trkpt lat="61.907722027972341" lon="6.738090002909303">
        <ele>16.960000000000001</ele>
        <time>2017-06-20T09:30:37Z</time>
      </trkpt>
      <trkpt lat="61.9078070204705" lon="6.738361995667219">
        <ele>16.960000000000001</ele>
        <time>2017-06-20T09:30:38Z</time>
      </trkpt>
      <trkpt lat="61.907906010746956" lon="6.738618984818459">
        <ele>16.48</ele>
        <time>2017-06-20T09:30:39Z</time>
      </trkpt>
      <trkpt lat="61.908018998801708" lon="6.738855019211769">
        <ele>16</ele>
        <time>2017-06-20T09:30:40Z</time>
      </trkpt>
      <trkpt lat="61.908145984634757" lon="6.739066997542977">
        <ele>16</ele>
        <time>2017-06-20T09:30:41Z</time>
      </trkpt>
      <trkpt lat="61.908277999609709" lon="6.739264978095889">
        <ele>15.52</ele>
        <time>2017-06-20T09:30:42Z</time>
      </trkpt>
      <trkpt lat="61.91042804159224" lon="6.742401989176869">
        <ele>12.15</ele>
        <time>2017-06-20T09:30:57Z</time>
      </trkpt>
      <trkpt lat="61.911192974075675" lon="6.744806002825499">
        <ele>11.67</ele>
        <time>2017-06-20T09:31:04Z</time>
      </trkpt>
      <trkpt lat="61.912292009219527" lon="6.75058901309967">
        <ele>8.310000000000001</ele>
        <time>2017-06-20T09:31:19Z</time>
      </trkpt>
      <trkpt lat="61.913192979991436" lon="6.75421703606844">
        <ele>5.91</ele>
        <time>2017-06-20T09:31:29Z</time>
      </trkpt>
      <trkpt lat="61.914920993149281" lon="6.760048996657133">
        <ele>7.35</ele>
        <time>2017-06-20T09:31:45Z</time>
      </trkpt>
      <trkpt lat="61.916082976385951" lon="6.763014011085033">
        <ele>7.83</ele>
        <time>2017-06-20T09:31:54Z</time>
      </trkpt>
      <trkpt lat="61.916492013260722" lon="6.765891015529633">
        <ele>9.27</ele>
        <time>2017-06-20T09:32:01Z</time>
      </trkpt>
      <trkpt lat="61.91717597655952" lon="6.769914999604225">
        <ele>11.19</ele>
        <time>2017-06-20T09:32:11Z</time>
      </trkpt>
      <trkpt lat="61.91803595982492" lon="6.772091025486589">
        <ele>13.6</ele>
        <time>2017-06-20T09:32:18Z</time>
      </trkpt>
      <trkpt lat="61.91812195815146" lon="6.772445999085903">
        <ele>14.08</ele>
        <time>2017-06-20T09:32:19Z</time>
      </trkpt>
      <trkpt lat="61.918190019205213" lon="6.772815976291895">
        <ele>14.08</ele>
        <time>2017-06-20T09:32:20Z</time>
      </trkpt>
      <trkpt lat="61.918245004490018" lon="6.773198023438454">
        <ele>14.08</ele>
        <time>2017-06-20T09:32:21Z</time>
      </trkpt>
      <trkpt lat="61.91829102113843" lon="6.773588033393025">
        <ele>13.6</ele>
        <time>2017-06-20T09:32:22Z</time>
      </trkpt>
      <trkpt lat="61.918328991159797" lon="6.773992041125894">
        <ele>13.6</ele>
        <time>2017-06-20T09:32:23Z</time>
      </trkpt>
      <trkpt lat="61.918771974742413" lon="6.77757304161787">
        <ele>16</ele>
        <time>2017-06-20T09:32:32Z</time>
      </trkpt>
      <trkpt lat="61.919632041826844" lon="6.781359985470772">
        <ele>16.960000000000001</ele>
        <time>2017-06-20T09:32:42Z</time>
      </trkpt>
      <trkpt lat="61.920435028150678" lon="6.787035958841443">
        <ele>22.73</ele>
        <time>2017-06-20T09:32:56Z</time>
      </trkpt>
      <trkpt lat="61.920417007058859" lon="6.793684987351298">
        <ele>33.780000000000001</ele>
        <time>2017-06-20T09:33:12Z</time>
      </trkpt>
      <trkpt lat="61.920695034787059" lon="6.796662993729115">
        <ele>30.420000000000002</ele>
        <time>2017-06-20T09:33:19Z</time>
      </trkpt>
      <trkpt lat="61.921369023621082" lon="6.800830978900194">
        <ele>25.609999999999999</ele>
        <time>2017-06-20T09:33:29Z</time>
      </trkpt>
      <trkpt lat="61.921347985044122" lon="6.804871978238225">
        <ele>17.920000000000002</ele>
        <time>2017-06-20T09:33:38Z</time>
      </trkpt>
      <trkpt lat="61.921121003106236" lon="6.811272986233234">
        <ele>16.48</ele>
        <time>2017-06-20T09:33:53Z</time>
      </trkpt>
      <trkpt lat="61.921142041683197" lon="6.811696020886302">
        <ele>16</ele>
        <time>2017-06-20T09:33:54Z</time>
      </trkpt>
      <trkpt lat="61.921179005876184" lon="6.812112014740706">
        <ele>16</ele>
        <time>2017-06-20T09:33:55Z</time>
      </trkpt>
      <trkpt lat="61.921485029160976" lon="6.815825030207634">
        <ele>16.960000000000001</ele>
        <time>2017-06-20T09:34:04Z</time>
      </trkpt>
      <trkpt lat="61.921630036085844" lon="6.817018026486039">
        <ele>17.920000000000002</ele>
        <time>2017-06-20T09:34:07Z</time>
      </trkpt>
      <trkpt lat="61.921709999442101" lon="6.817392027005553">
        <ele>18.399999999999999</ele>
        <time>2017-06-20T09:34:08Z</time>
      </trkpt>
      <trkpt lat="61.921803038567305" lon="6.817754041403532">
        <ele>18.879999999999999</ele>
        <time>2017-06-20T09:34:09Z</time>
      </trkpt>
      <trkpt lat="61.921905968338251" lon="6.818104991689324">
        <ele>18.879999999999999</ele>
        <time>2017-06-20T09:34:10Z</time>
      </trkpt>
      <trkpt lat="61.922022979706526" lon="6.818445967510343">
        <ele>19.359999999999999</ele>
        <time>2017-06-20T09:34:11Z</time>
      </trkpt>
      <trkpt lat="61.922142002731562" lon="6.818776968866587">
        <ele>19.359999999999999</ele>
        <time>2017-06-20T09:34:12Z</time>
      </trkpt>
      <trkpt lat="61.922561014071107" lon="6.82020197622478">
        <ele>20.32</ele>
        <time>2017-06-20T09:34:16Z</time>
      </trkpt>
      <trkpt lat="61.922624967992306" lon="6.820598021149635">
        <ele>20.809999999999999</ele>
        <time>2017-06-20T09:34:17Z</time>
      </trkpt>
      <trkpt lat="61.922677019611001" lon="6.821004962548614">
        <ele>21.289999999999999</ele>
        <time>2017-06-20T09:34:18Z</time>
      </trkpt>
      <trkpt lat="61.923069041222334" lon="6.823699995875359">
        <ele>23.210000000000001</ele>
        <time>2017-06-20T09:34:25Z</time>
      </trkpt>
      <trkpt lat="61.9231709651649" lon="6.824034014716744">
        <ele>23.210000000000001</ele>
        <time>2017-06-20T09:34:26Z</time>
      </trkpt>
      <trkpt lat="61.924446020275354" lon="6.827352996915579">
        <ele>22.25</ele>
        <time>2017-06-20T09:34:36Z</time>
      </trkpt>
      <trkpt lat="61.925908997654915" lon="6.831056037917733">
        <ele>25.129999999999999</ele>
        <time>2017-06-20T09:34:47Z</time>
      </trkpt>
      <trkpt lat="61.925989966839552" lon="6.831464990973473">
        <ele>25.609999999999999</ele>
        <time>2017-06-20T09:34:48Z</time>
      </trkpt>
      <trkpt lat="61.92604998126626" lon="6.831891965121031">
        <ele>25.609999999999999</ele>
        <time>2017-06-20T09:34:49Z</time>
      </trkpt>
      <trkpt lat="61.926506040617824" lon="6.83588401414454">
        <ele>30.420000000000002</ele>
        <time>2017-06-20T09:34:59Z</time>
      </trkpt>
      <trkpt lat="61.926976013928652" lon="6.838467987254262">
        <ele>32.82</ele>
        <time>2017-06-20T09:35:07Z</time>
      </trkpt>
      <trkpt lat="61.927341967821121" lon="6.840535970404744">
        <ele>35.710000000000001</ele>
        <time>2017-06-20T09:35:14Z</time>
      </trkpt>
      <trkpt lat="61.927469959482551" lon="6.842634966596961">
        <ele>38.109999999999999</ele>
        <time>2017-06-20T09:35:22Z</time>
      </trkpt>
      <trkpt lat="61.927575990557671" lon="6.845329999923706">
        <ele>38.590000000000003</ele>
        <time>2017-06-20T09:35:30Z</time>
      </trkpt>
      <trkpt lat="61.928007993847132" lon="6.848827013745904">
        <ele>39.07</ele>
        <time>2017-06-20T09:35:40Z</time>
      </trkpt>
      <trkpt lat="61.928881974890828" lon="6.851735031232238">
        <ele>38.109999999999999</ele>
        <time>2017-06-20T09:35:49Z</time>
      </trkpt>
      <trkpt lat="61.929927030578256" lon="6.853347960859537">
        <ele>37.630000000000003</ele>
        <time>2017-06-20T09:35:56Z</time>
      </trkpt>
      <trkpt lat="61.930994968861341" lon="6.854596026241779">
        <ele>39.07</ele>
        <time>2017-06-20T09:36:04Z</time>
      </trkpt>
      <trkpt lat="61.931823017075658" lon="6.856123963370919">
        <ele>39.07</ele>
        <time>2017-06-20T09:36:13Z</time>
      </trkpt>
      <trkpt lat="61.93277302198112" lon="6.858596038073301">
        <ele>38.109999999999999</ele>
        <time>2017-06-20T09:36:22Z</time>
      </trkpt>
      <trkpt lat="61.933342991396785" lon="6.862000012770295">
        <ele>36.670000000000002</ele>
        <time>2017-06-20T09:36:31Z</time>
      </trkpt>
      <trkpt lat="61.934150001034141" lon="6.863998007029295">
        <ele>35.710000000000001</ele>
        <time>2017-06-20T09:36:38Z</time>
      </trkpt>
      <trkpt lat="61.934614023193717" lon="6.865668017417193">
        <ele>35.229999999999997</ele>
        <time>2017-06-20T09:36:43Z</time>
      </trkpt>
      <trkpt lat="61.934661967679858" lon="6.866065990179777">
        <ele>35.229999999999997</ele>
        <time>2017-06-20T09:36:44Z</time>
      </trkpt>
      <trkpt lat="61.934692980721593" lon="6.866475027054548">
        <ele>35.229999999999997</ele>
        <time>2017-06-20T09:36:45Z</time>
      </trkpt>
      <trkpt lat="61.934701027348638" lon="6.866883980110288">
        <ele>35.229999999999997</ele>
        <time>2017-06-20T09:36:46Z</time>
      </trkpt>
      <trkpt lat="61.934693986549973" lon="6.867301985621452">
        <ele>35.229999999999997</ele>
        <time>2017-06-20T09:36:47Z</time>
      </trkpt>
      <trkpt lat="61.934671020135283" lon="6.867714961990714">
        <ele>35.229999999999997</ele>
        <time>2017-06-20T09:36:48Z</time>
      </trkpt>
      <trkpt lat="61.934634977951646" lon="6.868127016350627">
        <ele>35.229999999999997</ele>
        <time>2017-06-20T09:36:49Z</time>
      </trkpt>
      <trkpt lat="61.934587033465505" lon="6.868537981063128">
        <ele>35.710000000000001</ele>
        <time>2017-06-20T09:36:50Z</time>
      </trkpt>
      <trkpt lat="61.934338007122278" lon="6.871450021862984">
        <ele>35.229999999999997</ele>
        <time>2017-06-20T09:36:57Z</time>
      </trkpt>
      <trkpt lat="61.934359967708588" lon="6.871865009889007">
        <ele>34.740000000000002</ele>
        <time>2017-06-20T09:36:58Z</time>
      </trkpt>
      <trkpt lat="61.934618968516588" lon="6.876392997801304">
        <ele>34.740000000000002</ele>
        <time>2017-06-20T09:37:09Z</time>
      </trkpt>
      <trkpt lat="61.934268018230796" lon="6.882536010816693">
        <ele>35.710000000000001</ele>
        <time>2017-06-20T09:37:24Z</time>
      </trkpt>
      <trkpt lat="61.933607021346688" lon="6.885176980867982">
        <ele>37.630000000000003</ele>
        <time>2017-06-20T09:37:31Z</time>
      </trkpt>
      <trkpt lat="61.932404972612858" lon="6.888499986380339">
        <ele>36.189999999999998</ele>
        <time>2017-06-20T09:37:41Z</time>
      </trkpt>
      <trkpt lat="61.931874984875321" lon="6.88970304094255">
        <ele>35.229999999999997</ele>
        <time>2017-06-20T09:37:45Z</time>
      </trkpt>
      <trkpt lat="61.931777000427246" lon="6.89004804007709">
        <ele>35.229999999999997</ele>
        <time>2017-06-20T09:37:46Z</time>
      </trkpt>
      <trkpt lat="61.931694019585848" lon="6.890416005626321">
        <ele>35.229999999999997</ele>
        <time>2017-06-20T09:37:47Z</time>
      </trkpt>
      <trkpt lat="61.931628976017237" lon="6.890796041116118">
        <ele>35.229999999999997</ele>
        <time>2017-06-20T09:37:48Z</time>
      </trkpt>
      <trkpt lat="61.931580025702715" lon="6.8911889847368">
        <ele>35.229999999999997</ele>
        <time>2017-06-20T09:37:49Z</time>
      </trkpt>
      <trkpt lat="61.931547001004219" lon="6.891590980812907">
        <ele>35.229999999999997</ele>
        <time>2017-06-20T09:37:50Z</time>
      </trkpt>
      <trkpt lat="61.931524034589529" lon="6.89200303517282">
        <ele>35.229999999999997</ele>
        <time>2017-06-20T09:37:51Z</time>
      </trkpt>
      <trkpt lat="61.931565022096038" lon="6.896993033587933">
        <ele>35.229999999999997</ele>
        <time>2017-06-20T09:38:03Z</time>
      </trkpt>
      <trkpt lat="61.931496961042285" lon="6.901591010391712">
        <ele>34.740000000000002</ele>
        <time>2017-06-20T09:38:14Z</time>
      </trkpt>
      <trkpt lat="61.931736012920737" lon="6.905301008373499">
        <ele>35.710000000000001</ele>
        <time>2017-06-20T09:38:23Z</time>
      </trkpt>
      <trkpt lat="61.931728972122073" lon="6.905721025541425">
        <ele>35.710000000000001</ele>
        <time>2017-06-20T09:38:24Z</time>
      </trkpt>
      <trkpt lat="61.931698964908719" lon="6.906137019395828">
        <ele>35.710000000000001</ele>
        <time>2017-06-20T09:38:25Z</time>
      </trkpt>
      <trkpt lat="61.931649008765817" lon="6.906546978279948">
        <ele>35.710000000000001</ele>
        <time>2017-06-20T09:38:26Z</time>
      </trkpt>
      <trkpt lat="61.931582037359476" lon="6.906954003497958">
        <ele>35.229999999999997</ele>
        <time>2017-06-20T09:38:27Z</time>
      </trkpt>
      <trkpt lat="61.931498972699046" lon="6.907347030937672">
        <ele>35.229999999999997</ele>
        <time>2017-06-20T09:38:28Z</time>
      </trkpt>
      <trkpt lat="61.931407023221254" lon="6.907742992043495">
        <ele>34.740000000000002</ele>
        <time>2017-06-20T09:38:29Z</time>
      </trkpt>
      <trkpt lat="61.931020030751824" lon="6.910568028688431">
        <ele>34.740000000000002</ele>
        <time>2017-06-20T09:38:36Z</time>
      </trkpt>
      <trkpt lat="61.931174006313086" lon="6.913823978975415">
        <ele>36.189999999999998</ele>
        <time>2017-06-20T09:38:44Z</time>
      </trkpt>
      <trkpt lat="61.931251036003232" lon="6.914197979494929">
        <ele>37.149999999999999</ele>
        <time>2017-06-20T09:38:45Z</time>
      </trkpt>
      <trkpt lat="61.93200096487999" lon="6.918593030422926">
        <ele>39.549999999999997</ele>
        <time>2017-06-20T09:38:56Z</time>
      </trkpt>
      <trkpt lat="61.932067014276981" lon="6.921970015391707">
        <ele>35.710000000000001</ele>
        <time>2017-06-20T09:39:04Z</time>
      </trkpt>
      <trkpt lat="61.931659989058971" lon="6.928214030340314">
        <ele>35.229999999999997</ele>
        <time>2017-06-20T09:39:19Z</time>
      </trkpt>
      <trkpt lat="61.931925024837255" lon="6.931576011702418">
        <ele>35.710000000000001</ele>
        <time>2017-06-20T09:39:27Z</time>
      </trkpt>
      <trkpt lat="61.932497005909681" lon="6.936207013204694">
        <ele>36.189999999999998</ele>
        <time>2017-06-20T09:39:38Z</time>
      </trkpt>
      <trkpt lat="61.932517038658261" lon="6.936635999009013">
        <ele>36.189999999999998</ele>
        <time>2017-06-20T09:39:39Z</time>
      </trkpt>
      <trkpt lat="61.932775033637881" lon="6.940019018948078">
        <ele>38.109999999999999</ele>
        <time>2017-06-20T09:39:47Z</time>
      </trkpt>
      <trkpt lat="61.933532003313303" lon="6.94586799480021">
        <ele>38.590000000000003</ele>
        <time>2017-06-20T09:40:01Z</time>
      </trkpt>
      <trkpt lat="61.934340018779039" lon="6.948203025385737">
        <ele>40.509999999999998</ele>
        <time>2017-06-20T09:40:08Z</time>
      </trkpt>
      <trkpt lat="61.934662973508239" lon="6.949224025011063">
        <ele>40.990000000000002</ele>
        <time>2017-06-20T09:40:11Z</time>
      </trkpt>
      <trkpt lat="61.934743020683527" lon="6.949604982510209">
        <ele>40.990000000000002</ele>
        <time>2017-06-20T09:40:12Z</time>
      </trkpt>
      <trkpt lat="61.934805968776345" lon="6.950008990243077">
        <ele>40.509999999999998</ele>
        <time>2017-06-20T09:40:13Z</time>
      </trkpt>
      <trkpt lat="61.934848967939615" lon="6.95042297244072">
        <ele>40.509999999999998</ele>
        <time>2017-06-20T09:40:14Z</time>
      </trkpt>
      <trkpt lat="61.934873024001718" lon="6.950839972123504">
        <ele>40.509999999999998</ele>
        <time>2017-06-20T09:40:15Z</time>
      </trkpt>
      <trkpt lat="61.934882998466492" lon="6.951265018433332">
        <ele>40.509999999999998</ele>
        <time>2017-06-20T09:40:16Z</time>
      </trkpt>
      <trkpt lat="61.934882998466492" lon="6.951697021722794">
        <ele>40.030000000000001</ele>
        <time>2017-06-20T09:40:17Z</time>
      </trkpt>
      <trkpt lat="61.935083996504545" lon="6.955035030841827">
        <ele>39.549999999999997</ele>
        <time>2017-06-20T09:40:25Z</time>
      </trkpt>
      <trkpt lat="61.935489010065794" lon="6.959427986294031">
        <ele>40.030000000000001</ele>
        <time>2017-06-20T09:40:36Z</time>
      </trkpt>
      <trkpt lat="61.935537038370967" lon="6.959777008742094">
        <ele>40.509999999999998</ele>
        <time>2017-06-20T09:40:37Z</time>
      </trkpt>
      <trkpt lat="61.935600992292166" lon="6.960108010098338">
        <ele>40.509999999999998</ele>
        <time>2017-06-20T09:40:38Z</time>
      </trkpt>
      <trkpt lat="61.935682967305183" lon="6.960407998412848">
        <ele>40.990000000000002</ele>
        <time>2017-06-20T09:40:39Z</time>
      </trkpt>
      <trkpt lat="61.93578103557229" lon="6.96067001670599">
        <ele>41.469999999999999</ele>
        <time>2017-06-20T09:40:40Z</time>
      </trkpt>
      <trkpt lat="61.935887988656759" lon="6.960893981158733">
        <ele>41.469999999999999</ele>
        <time>2017-06-20T09:40:41Z</time>
      </trkpt>
      <trkpt lat="61.936006005853415" lon="6.961086010560393">
        <ele>41.950000000000003</ele>
        <time>2017-06-20T09:40:42Z</time>
      </trkpt>
      <trkpt lat="61.936131985858083" lon="6.961259013041854">
        <ele>41.950000000000003</ele>
        <time>2017-06-20T09:40:43Z</time>
      </trkpt>
      <trkpt lat="61.936260983347893" lon="6.961397984996438">
        <ele>41.950000000000003</ele>
        <time>2017-06-20T09:40:44Z</time>
      </trkpt>
      <trkpt lat="61.936395009979606" lon="6.961527988314629">
        <ele>41.950000000000003</ele>
        <time>2017-06-20T09:40:45Z</time>
      </trkpt>
      <trkpt lat="61.937343003228307" lon="6.962914019823074">
        <ele>42.439999999999998</ele>
        <time>2017-06-20T09:40:52Z</time>
      </trkpt>
      <trkpt lat="61.937483986839652" lon="6.96312197484076">
        <ele>42.439999999999998</ele>
        <time>2017-06-20T09:40:53Z</time>
      </trkpt>
      <trkpt lat="61.937632011249661" lon="6.963291959837079">
        <ele>42.439999999999998</ele>
        <time>2017-06-20T09:40:54Z</time>
      </trkpt>
      <trkpt lat="61.9377819634974" lon="6.963433027267456">
        <ele>42.439999999999998</ele>
        <time>2017-06-20T09:40:55Z</time>
      </trkpt>
      <trkpt lat="61.938229976221919" lon="6.963937031105161">
        <ele>42.439999999999998</ele>
        <time>2017-06-20T09:40:58Z</time>
      </trkpt>
      <trkpt lat="61.938365008682013" lon="6.964175999164581">
        <ele>41.950000000000003</ele>
        <time>2017-06-20T09:40:59Z</time>
      </trkpt>
      <trkpt lat="61.938485037535429" lon="6.964445980265737">
        <ele>42.439999999999998</ele>
        <time>2017-06-20T09:41:00Z</time>
      </trkpt>
      <trkpt lat="61.938589978963137" lon="6.964746974408627">
        <ele>42.439999999999998</ele>
        <time>2017-06-20T09:41:01Z</time>
      </trkpt>
      <trkpt lat="61.938675977289677" lon="6.965074958279729">
        <ele>42.439999999999998</ele>
        <time>2017-06-20T09:41:02Z</time>
      </trkpt>
      <trkpt lat="61.938742026686668" lon="6.965422974899411">
        <ele>42.439999999999998</ele>
        <time>2017-06-20T09:41:03Z</time>
      </trkpt>
      <trkpt lat="61.938784020021558" lon="6.965783983469009">
        <ele>42.439999999999998</ele>
        <time>2017-06-20T09:41:04Z</time>
      </trkpt>
      <trkpt lat="61.938803968951106" lon="6.966161001473665">
        <ele>42.439999999999998</ele>
        <time>2017-06-20T09:41:05Z</time>
      </trkpt>
      <trkpt lat="61.938802041113377" lon="6.966539025306702">
        <ele>42.920000000000002</ele>
        <time>2017-06-20T09:41:06Z</time>
      </trkpt>
      <trkpt lat="61.938782008364797" lon="6.966930041089654">
        <ele>43.399999999999999</ele>
        <time>2017-06-20T09:41:07Z</time>
      </trkpt>
      <trkpt lat="61.938739009201527" lon="6.967323990538716">
        <ele>43.399999999999999</ele>
        <time>2017-06-20T09:41:08Z</time>
      </trkpt>
      <trkpt lat="61.938684023916721" lon="6.967723974958062">
        <ele>43.399999999999999</ele>
        <time>2017-06-20T09:41:09Z</time>
      </trkpt>
      <trkpt lat="61.938069965690374" lon="6.972257997840643">
        <ele>42.920000000000002</ele>
        <time>2017-06-20T09:41:20Z</time>
      </trkpt>
      <trkpt lat="61.937775006517768" lon="6.974521027877927">
        <ele>40.509999999999998</ele>
        <time>2017-06-20T09:41:26Z</time>
      </trkpt>
      <trkpt lat="61.937784980982542" lon="6.974880024790764">
        <ele>40.030000000000001</ele>
        <time>2017-06-20T09:41:27Z</time>
      </trkpt>
      <trkpt lat="61.937816999852657" lon="6.975233992561698">
        <ele>40.030000000000001</ele>
        <time>2017-06-20T09:41:28Z</time>
      </trkpt>
      <trkpt lat="61.937866033986211" lon="6.97558200918138">
        <ele>39.549999999999997</ele>
        <time>2017-06-20T09:41:29Z</time>
      </trkpt>
      <trkpt lat="61.93792998790741" lon="6.975929019972682">
        <ele>39.549999999999997</ele>
        <time>2017-06-20T09:41:30Z</time>
      </trkpt>
      <trkpt lat="61.938092010095716" lon="6.977003999054432">
        <ele>39.07</ele>
        <time>2017-06-20T09:41:33Z</time>
      </trkpt>
      <trkpt lat="61.938115982338786" lon="6.977383028715849">
        <ele>38.590000000000003</ele>
        <time>2017-06-20T09:41:34Z</time>
      </trkpt>
      <trkpt lat="61.938117993995547" lon="6.97777102701366">
        <ele>38.590000000000003</ele>
        <time>2017-06-20T09:41:35Z</time>
      </trkpt>
      <trkpt lat="61.938098967075348" lon="6.978163970634341">
        <ele>38.590000000000003</ele>
        <time>2017-06-20T09:41:36Z</time>
      </trkpt>
      <trkpt lat="61.93805898539722" lon="6.978545011952519">
        <ele>38.590000000000003</ele>
        <time>2017-06-20T09:41:37Z</time>
      </trkpt>
      <trkpt lat="61.937997965142131" lon="6.978925969451666">
        <ele>38.109999999999999</ele>
        <time>2017-06-20T09:41:38Z</time>
      </trkpt>
      <trkpt lat="61.937918001785874" lon="6.979288989678025">
        <ele>37.630000000000003</ele>
        <time>2017-06-20T09:41:39Z</time>
      </trkpt>
      <trkpt lat="61.93782202899456" lon="6.979637006297708">
        <ele>37.149999999999999</ele>
        <time>2017-06-20T09:41:40Z</time>
      </trkpt>
      <trkpt lat="61.937705017626286" lon="6.979976976290345">
        <ele>36.670000000000002</ele>
        <time>2017-06-20T09:41:41Z</time>
      </trkpt>
      <trkpt lat="61.936024026945233" lon="6.984979966655374">
        <ele>36.189999999999998</ele>
        <time>2017-06-20T09:41:56Z</time>
      </trkpt>
      <trkpt lat="61.935944985598326" lon="6.985343992710114">
        <ele>36.670000000000002</ele>
        <time>2017-06-20T09:41:57Z</time>
      </trkpt>
      <trkpt lat="61.935873990878463" lon="6.985724028199911">
        <ele>37.149999999999999</ele>
        <time>2017-06-20T09:41:58Z</time>
      </trkpt>
      <trkpt lat="61.935811964794993" lon="6.986118983477354">
        <ele>37.149999999999999</ele>
        <time>2017-06-20T09:41:59Z</time>
      </trkpt>
      <trkpt lat="61.935276025906205" lon="6.989700989797711">
        <ele>36.670000000000002</ele>
        <time>2017-06-20T09:42:08Z</time>
      </trkpt>
      <trkpt lat="61.934695998206735" lon="6.991752041503787">
        <ele>36.189999999999998</ele>
        <time>2017-06-20T09:42:14Z</time>
      </trkpt>
      <trkpt lat="61.934648975729942" lon="6.99208396486938">
        <ele>36.670000000000002</ele>
        <time>2017-06-20T09:42:15Z</time>
      </trkpt>
      <trkpt lat="61.934625003486872" lon="6.992419995367527">
        <ele>36.670000000000002</ele>
        <time>2017-06-20T09:42:16Z</time>
      </trkpt>
      <trkpt lat="61.934619974344969" lon="6.992773963138461">
        <ele>36.670000000000002</ele>
        <time>2017-06-20T09:42:17Z</time>
      </trkpt>
      <trkpt lat="61.934651993215084" lon="6.993132038041949">
        <ele>37.149999999999999</ele>
        <time>2017-06-20T09:42:18Z</time>
      </trkpt>
      <trkpt lat="61.934702033177018" lon="6.993483994156122">
        <ele>37.630000000000003</ele>
        <time>2017-06-20T09:42:19Z</time>
      </trkpt>
      <trkpt lat="61.934770010411739" lon="6.993832010775805">
        <ele>37.630000000000003</ele>
        <time>2017-06-20T09:42:20Z</time>
      </trkpt>
      <trkpt lat="61.934853997081518" lon="6.994158988818526">
        <ele>37.630000000000003</ele>
        <time>2017-06-20T09:42:21Z</time>
      </trkpt>
      <trkpt lat="61.934947036206722" lon="6.994482027366757">
        <ele>37.630000000000003</ele>
        <time>2017-06-20T09:42:22Z</time>
      </trkpt>
      <trkpt lat="61.935536032542586" lon="6.997265992686153">
        <ele>38.590000000000003</ele>
        <time>2017-06-20T09:42:30Z</time>
      </trkpt>
      <trkpt lat="61.935564028099179" lon="6.997640999034047">
        <ele>39.07</ele>
        <time>2017-06-20T09:42:31Z</time>
      </trkpt>
      <trkpt lat="61.935575008392334" lon="6.998018017038703">
        <ele>38.590000000000003</ele>
        <time>2017-06-20T09:42:32Z</time>
      </trkpt>
      <trkpt lat="61.935553969815373" lon="6.998384976759553">
        <ele>39.07</ele>
        <time>2017-06-20T09:42:33Z</time>
      </trkpt>
      <trkpt lat="61.935510970652103" lon="6.998740034177899">
        <ele>39.07</ele>
        <time>2017-06-20T09:42:34Z</time>
      </trkpt>
      <trkpt lat="61.935451040044427" lon="6.999099031090736">
        <ele>39.07</ele>
        <time>2017-06-20T09:42:35Z</time>
      </trkpt>
      <trkpt lat="61.935383984819055" lon="6.999458028003573">
        <ele>39.07</ele>
        <time>2017-06-20T09:42:36Z</time>
      </trkpt>
      <trkpt lat="61.935074022039771" lon="7.000855039805174">
        <ele>38.590000000000003</ele>
        <time>2017-06-20T09:42:40Z</time>
      </trkpt>
      <trkpt lat="61.934962961822748" lon="7.001165002584457">
        <ele>38.590000000000003</ele>
        <time>2017-06-20T09:42:41Z</time>
      </trkpt>
      <trkpt lat="61.934832958504558" lon="7.001439006999135">
        <ele>38.590000000000003</ele>
        <time>2017-06-20T09:42:42Z</time>
      </trkpt>
      <trkpt lat="61.934691974893212" lon="7.001669006422162">
        <ele>38.590000000000003</ele>
        <time>2017-06-20T09:42:43Z</time>
      </trkpt>
      <trkpt lat="61.934532970190048" lon="7.001839997246862">
        <ele>38.590000000000003</ele>
        <time>2017-06-20T09:42:44Z</time>
      </trkpt>
      <trkpt lat="61.934370025992393" lon="7.001976035535336">
        <ele>38.590000000000003</ele>
        <time>2017-06-20T09:42:45Z</time>
      </trkpt>
      <trkpt lat="61.934199035167694" lon="7.002066979184747">
        <ele>38.590000000000003</ele>
        <time>2017-06-20T09:42:46Z</time>
      </trkpt>
      <trkpt lat="61.934021003544331" lon="7.00213797390461">
        <ele>39.07</ele>
        <time>2017-06-20T09:42:47Z</time>
      </trkpt>
      <trkpt lat="61.933279959484935" lon="7.002368979156017">
        <ele>36.189999999999998</ele>
        <time>2017-06-20T09:42:51Z</time>
      </trkpt>
      <trkpt lat="61.933101005852222" lon="7.002512980252504">
        <ele>36.189999999999998</ele>
        <time>2017-06-20T09:42:52Z</time>
      </trkpt>
      <trkpt lat="61.932926997542381" lon="7.002676008269191">
        <ele>35.710000000000001</ele>
        <time>2017-06-20T09:42:53Z</time>
      </trkpt>
      <trkpt lat="61.932133985683322" lon="7.003675969317555">
        <ele>33.299999999999997</ele>
        <time>2017-06-20T09:42:58Z</time>
      </trkpt>
      <trkpt lat="61.93202200345695" lon="7.003947962075472">
        <ele>33.299999999999997</ele>
        <time>2017-06-20T09:42:59Z</time>
      </trkpt>
      <trkpt lat="61.931930975988507" lon="7.004246022552252">
        <ele>33.299999999999997</ele>
        <time>2017-06-20T09:43:00Z</time>
      </trkpt>
      <trkpt lat="61.931867022067308" lon="7.004579035565257">
        <ele>32.82</ele>
        <time>2017-06-20T09:43:01Z</time>
      </trkpt>
      <trkpt lat="61.931813964620233" lon="7.004929985851049">
        <ele>32.82</ele>
        <time>2017-06-20T09:43:02Z</time>
      </trkpt>
      <trkpt lat="61.931297974660993" lon="7.008993029594421">
        <ele>36.189999999999998</ele>
        <time>2017-06-20T09:43:13Z</time>
      </trkpt>
      <trkpt lat="61.93120501935482" lon="7.009324030950666">
        <ele>36.189999999999998</ele>
        <time>2017-06-20T09:43:14Z</time>
      </trkpt>
      <trkpt lat="61.931089013814926" lon="7.009642962366343">
        <ele>36.670000000000002</ele>
        <time>2017-06-20T09:43:15Z</time>
      </trkpt>
      <trkpt lat="61.930953981354833" lon="7.009940017014742">
        <ele>36.670000000000002</ele>
        <time>2017-06-20T09:43:16Z</time>
      </trkpt>
      <trkpt lat="61.930804029107094" lon="7.0102150272578">
        <ele>37.149999999999999</ele>
        <time>2017-06-20T09:43:17Z</time>
      </trkpt>
      <trkpt lat="61.930649969726801" lon="7.010488025844097">
        <ele>37.630000000000003</ele>
        <time>2017-06-20T09:43:18Z</time>
      </trkpt>
      <trkpt lat="61.929055983200669" lon="7.013255981728435">
        <ele>37.630000000000003</ele>
        <time>2017-06-20T09:43:28Z</time>
      </trkpt>
      <trkpt lat="61.928926985710859" lon="7.01356602832675">
        <ele>37.630000000000003</ele>
        <time>2017-06-20T09:43:29Z</time>
      </trkpt>
      <trkpt lat="61.928821038454771" lon="7.013901975005865">
        <ele>37.149999999999999</ele>
        <time>2017-06-20T09:43:30Z</time>
      </trkpt>
      <trkpt lat="61.928736967965961" lon="7.014259966090322">
        <ele>37.149999999999999</ele>
        <time>2017-06-20T09:43:31Z</time>
      </trkpt>
      <trkpt lat="61.928674019873142" lon="7.014631032943726">
        <ele>36.670000000000002</ele>
        <time>2017-06-20T09:43:32Z</time>
      </trkpt>
      <trkpt lat="61.928617022931576" lon="7.015017019584775">
        <ele>36.670000000000002</ele>
        <time>2017-06-20T09:43:33Z</time>
      </trkpt>
      <trkpt lat="61.92847503349185" lon="7.015794022008777">
        <ele>35.229999999999997</ele>
        <time>2017-06-20T09:43:35Z</time>
      </trkpt>
      <trkpt lat="61.928378976881504" lon="7.016185959801078">
        <ele>34.740000000000002</ele>
        <time>2017-06-20T09:43:36Z</time>
      </trkpt>
      <trkpt lat="61.928258026018739" lon="7.016569012776017">
        <ele>34.259999999999998</ele>
        <time>2017-06-20T09:43:37Z</time>
      </trkpt>
      <trkpt lat="61.927643967792392" lon="7.017984967678785">
        <ele>31.859999999999999</ele>
        <time>2017-06-20T09:43:41Z</time>
      </trkpt>
      <trkpt lat="61.927455039694905" lon="7.018254026770592">
        <ele>31.379999999999999</ele>
        <time>2017-06-20T09:43:42Z</time>
      </trkpt>
      <trkpt lat="61.927253035828471" lon="7.018460975959897">
        <ele>30.420000000000002</ele>
        <time>2017-06-20T09:43:43Z</time>
      </trkpt>
      <trkpt lat="61.927044996991754" lon="7.018654011189938">
        <ele>29.940000000000001</ele>
        <time>2017-06-20T09:43:44Z</time>
      </trkpt>
      <trkpt lat="61.926828995347023" lon="7.018816033378243">
        <ele>29.460000000000001</ele>
        <time>2017-06-20T09:43:45Z</time>
      </trkpt>
      <trkpt lat="61.9252759963274" lon="7.020615041255951">
        <ele>30.899999999999999</ele>
        <time>2017-06-20T09:43:53Z</time>
      </trkpt>
      <trkpt lat="61.92321396432817" lon="7.023332035169005">
        <ele>28.98</ele>
        <time>2017-06-20T09:44:04Z</time>
      </trkpt>
      <trkpt lat="61.922308970242739" lon="7.024613041430712">
        <ele>29.940000000000001</ele>
        <time>2017-06-20T09:44:09Z</time>
      </trkpt>
      <trkpt lat="61.922109983861446" lon="7.02480498701334">
        <ele>29.940000000000001</ele>
        <time>2017-06-20T09:44:10Z</time>
      </trkpt>
      <trkpt lat="61.920542987063527" lon="7.026509027928114">
        <ele>31.859999999999999</ele>
        <time>2017-06-20T09:44:18Z</time>
      </trkpt>
      <trkpt lat="61.91912803798914" lon="7.02774703502655">
        <ele>33.299999999999997</ele>
        <time>2017-06-20T09:44:25Z</time>
      </trkpt>
      <trkpt lat="61.918947994709015" lon="7.027980973944068">
        <ele>33.299999999999997</ele>
        <time>2017-06-20T09:44:26Z</time>
      </trkpt>
      <trkpt lat="61.918778009712696" lon="7.028252966701984">
        <ele>33.299999999999997</ele>
        <time>2017-06-20T09:44:27Z</time>
      </trkpt>
      <trkpt lat="61.918621016666293" lon="7.028557984158397">
        <ele>33.299999999999997</ele>
        <time>2017-06-20T09:44:28Z</time>
      </trkpt>
      <trkpt lat="61.918479027226567" lon="7.028889991343021">
        <ele>33.780000000000001</ele>
        <time>2017-06-20T09:44:29Z</time>
      </trkpt>
      <trkpt lat="61.918352041393518" lon="7.029257034882903">
        <ele>33.780000000000001</ele>
        <time>2017-06-20T09:44:30Z</time>
      </trkpt>
      <trkpt lat="61.918239975348115" lon="7.029646039009094">
        <ele>34.259999999999998</ele>
        <time>2017-06-20T09:44:31Z</time>
      </trkpt>
      <trkpt lat="61.918140985071659" lon="7.030052980408073">
        <ele>35.229999999999997</ele>
        <time>2017-06-20T09:44:32Z</time>
      </trkpt>
      <trkpt lat="61.91805699840188" lon="7.030467968434095">
        <ele>35.710000000000001</ele>
        <time>2017-06-20T09:44:33Z</time>
      </trkpt>
      <trkpt lat="61.917255017906427" lon="7.033107010647655">
        <ele>37.630000000000003</ele>
        <time>2017-06-20T09:44:40Z</time>
      </trkpt>
      <trkpt lat="61.916042994707823" lon="7.035007020458579">
        <ele>39.07</ele>
        <time>2017-06-20T09:44:47Z</time>
      </trkpt>
      <trkpt lat="61.915102964267135" lon="7.036131033673883">
        <ele>38.109999999999999</ele>
        <time>2017-06-20T09:44:53Z</time>
      </trkpt>
      <trkpt lat="61.913998983800411" lon="7.037872038781643">
        <ele>35.229999999999997</ele>
        <time>2017-06-20T09:45:01Z</time>
      </trkpt>
      <trkpt lat="61.912526031956077" lon="7.040136996656656">
        <ele>35.229999999999997</ele>
        <time>2017-06-20T09:45:11Z</time>
      </trkpt>
      <trkpt lat="61.911850031465292" lon="7.040902012959123">
        <ele>35.229999999999997</ele>
        <time>2017-06-20T09:45:15Z</time>
      </trkpt>
      <trkpt lat="61.911702007055283" lon="7.041157996281982">
        <ele>35.229999999999997</ele>
        <time>2017-06-20T09:45:16Z</time>
      </trkpt>
      <trkpt lat="61.911565968766809" lon="7.041438035666943">
        <ele>35.229999999999997</ele>
        <time>2017-06-20T09:45:17Z</time>
      </trkpt>
      <trkpt lat="61.911442000418901" lon="7.041741041466594">
        <ele>35.229999999999997</ele>
        <time>2017-06-20T09:45:18Z</time>
      </trkpt>
      <trkpt lat="61.911334963515401" lon="7.042062990367413">
        <ele>35.229999999999997</ele>
        <time>2017-06-20T09:45:19Z</time>
      </trkpt>
      <trkpt lat="61.911236979067326" lon="7.042410001158714">
        <ele>35.229999999999997</ele>
        <time>2017-06-20T09:45:20Z</time>
      </trkpt>
      <trkpt lat="61.911156009882689" lon="7.042763968929648">
        <ele>35.229999999999997</ele>
        <time>2017-06-20T09:45:21Z</time>
      </trkpt>
      <trkpt lat="61.911086020991206" lon="7.043138975277543">
        <ele>35.710000000000001</ele>
        <time>2017-06-20T09:45:22Z</time>
      </trkpt>
      <trkpt lat="61.911031035706401" lon="7.043532002717257">
        <ele>36.189999999999998</ele>
        <time>2017-06-20T09:45:23Z</time>
      </trkpt>
      <trkpt lat="61.910982001572847" lon="7.043926035985351">
        <ele>36.670000000000002</ele>
        <time>2017-06-20T09:45:24Z</time>
      </trkpt>
      <trkpt lat="61.910404991358519" lon="7.049242006614804">
        <ele>42.439999999999998</ele>
        <time>2017-06-20T09:45:38Z</time>
      </trkpt>
      <trkpt lat="61.909915991127491" lon="7.053564973175526">
        <ele>43.399999999999999</ele>
        <time>2017-06-20T09:45:49Z</time>
      </trkpt>
      <trkpt lat="61.909352978691459" lon="7.056075017899275">
        <ele>41.950000000000003</ele>
        <time>2017-06-20T09:45:56Z</time>
      </trkpt>
      <trkpt lat="61.90845200791955" lon="7.058039987459779">
        <ele>41.950000000000003</ele>
        <time>2017-06-20T09:46:04Z</time>
      </trkpt>
      <trkpt lat="61.907079974189401" lon="7.0600610319525">
        <ele>40.030000000000001</ele>
        <time>2017-06-20T09:46:14Z</time>
      </trkpt>
      <trkpt lat="61.906289979815483" lon="7.061012964695692">
        <ele>39.549999999999997</ele>
        <time>2017-06-20T09:46:19Z</time>
      </trkpt>
      <trkpt lat="61.906156037002802" lon="7.061285963281989">
        <ele>39.549999999999997</ele>
        <time>2017-06-20T09:46:20Z</time>
      </trkpt>
      <trkpt lat="61.906033996492624" lon="7.061582012102008">
        <ele>39.549999999999997</ele>
        <time>2017-06-20T09:46:21Z</time>
      </trkpt>
      <trkpt lat="61.905928971245885" lon="7.061901027336717">
        <ele>39.07</ele>
        <time>2017-06-20T09:46:22Z</time>
      </trkpt>
      <trkpt lat="61.905835010111332" lon="7.062246026471257">
        <ele>39.07</ele>
        <time>2017-06-20T09:46:23Z</time>
      </trkpt>
      <trkpt lat="61.905753035098314" lon="7.062607035040855">
        <ele>39.07</ele>
        <time>2017-06-20T09:46:24Z</time>
      </trkpt>
      <trkpt lat="61.905682040378451" lon="7.062992015853524">
        <ele>39.07</ele>
        <time>2017-06-20T09:46:25Z</time>
      </trkpt>
      <trkpt lat="61.90561699680984" lon="7.063387976959348">
        <ele>39.07</ele>
        <time>2017-06-20T09:46:26Z</time>
      </trkpt>
      <trkpt lat="61.904776962473989" lon="7.068086033686996">
        <ele>38.590000000000003</ele>
        <time>2017-06-20T09:46:38Z</time>
      </trkpt>
      <trkpt lat="61.903633000329137" lon="7.071419013664126">
        <ele>37.630000000000003</ele>
        <time>2017-06-20T09:46:48Z</time>
      </trkpt>
      <trkpt lat="61.902916012331843" lon="7.073649019002914">
        <ele>36.670000000000002</ele>
        <time>2017-06-20T09:46:56Z</time>
      </trkpt>
      <trkpt lat="61.901919990777969" lon="7.076760968193412">
        <ele>36.189999999999998</ele>
        <time>2017-06-20T09:47:06Z</time>
      </trkpt>
      <trkpt lat="61.900718025863171" lon="7.079895967617631">
        <ele>36.670000000000002</ele>
        <time>2017-06-20T09:47:16Z</time>
      </trkpt>
      <trkpt lat="61.899043992161751" lon="7.08309299312532">
        <ele>36.670000000000002</ele>
        <time>2017-06-20T09:47:27Z</time>
      </trkpt>
      <trkpt lat="61.897410023957491" lon="7.085747960954905">
        <ele>37.630000000000003</ele>
        <time>2017-06-20T09:47:35Z</time>
      </trkpt>
      <trkpt lat="61.89641903154552" lon="7.088196985423565">
        <ele>37.630000000000003</ele>
        <time>2017-06-20T09:47:42Z</time>
      </trkpt>
      <trkpt lat="61.895790975540876" lon="7.089917035773397">
        <ele>36.189999999999998</ele>
        <time>2017-06-20T09:47:47Z</time>
      </trkpt>
      <trkpt lat="61.895629037171602" lon="7.090186011046171">
        <ele>36.189999999999998</ele>
        <time>2017-06-20T09:47:48Z</time>
      </trkpt>
      <trkpt lat="61.895458968356252" lon="7.090434031561017">
        <ele>36.189999999999998</ele>
        <time>2017-06-20T09:47:49Z</time>
      </trkpt>
      <trkpt lat="61.894781040027738" lon="7.091329973191023">
        <ele>35.710000000000001</ele>
        <time>2017-06-20T09:47:53Z</time>
      </trkpt>
      <trkpt lat="61.894653970375657" lon="7.091597020626068">
        <ele>35.710000000000001</ele>
        <time>2017-06-20T09:47:54Z</time>
      </trkpt>
      <trkpt lat="61.894548023119569" lon="7.091884016990662">
        <ele>36.670000000000002</ele>
        <time>2017-06-20T09:47:55Z</time>
      </trkpt>
      <trkpt lat="61.894465964287519" lon="7.092179981991649">
        <ele>36.670000000000002</ele>
        <time>2017-06-20T09:47:56Z</time>
      </trkpt>
      <trkpt lat="61.89440100453794" lon="7.092496985569596">
        <ele>37.149999999999999</ele>
        <time>2017-06-20T09:47:57Z</time>
      </trkpt>
      <trkpt lat="61.894353982061148" lon="7.09282798692584">
        <ele>38.109999999999999</ele>
        <time>2017-06-20T09:47:58Z</time>
      </trkpt>
      <trkpt lat="61.894319029524922" lon="7.09316804073751">
        <ele>38.590000000000003</ele>
        <time>2017-06-20T09:47:59Z</time>
      </trkpt>
      <trkpt lat="61.89429203979671" lon="7.093500969931483">
        <ele>39.07</ele>
        <time>2017-06-20T09:48:00Z</time>
      </trkpt>
      <trkpt lat="61.894010994583368" lon="7.096949033439159">
        <ele>37.149999999999999</ele>
        <time>2017-06-20T09:48:09Z</time>
      </trkpt>
      <trkpt lat="61.893774038180709" lon="7.099441979080439">
        <ele>36.670000000000002</ele>
        <time>2017-06-20T09:48:16Z</time>
      </trkpt>
      <trkpt lat="61.893643029034138" lon="7.102339016273618">
        <ele>38.590000000000003</ele>
        <time>2017-06-20T09:48:26Z</time>
      </trkpt>
      <trkpt lat="61.894010994583368" lon="7.104059988632798">
        <ele>38.590000000000003</ele>
        <time>2017-06-20T09:48:33Z</time>
      </trkpt>
      <trkpt lat="61.894196989014745" lon="7.104477994143963">
        <ele>38.109999999999999</ele>
        <time>2017-06-20T09:48:35Z</time>
      </trkpt>
      <trkpt lat="61.894303020089865" lon="7.104661976918578">
        <ele>37.630000000000003</ele>
        <time>2017-06-20T09:48:36Z</time>
      </trkpt>
      <trkpt lat="61.894408967345953" lon="7.104821987450123">
        <ele>37.630000000000003</ele>
        <time>2017-06-20T09:48:37Z</time>
      </trkpt>
      <trkpt lat="61.894970973953605" lon="7.105491030961275">
        <ele>36.670000000000002</ele>
        <time>2017-06-20T09:48:44Z</time>
      </trkpt>
      <trkpt lat="61.895295018330216" lon="7.105865031480789">
        <ele>37.149999999999999</ele>
        <time>2017-06-20T09:48:53Z</time>
      </trkpt>
      <trkpt lat="61.895365007221699" lon="7.105949018150568">
        <ele>37.149999999999999</ele>
        <time>2017-06-20T09:49:07Z</time>
      </trkpt>
      <trkpt lat="61.895402977243066" lon="7.105979025363922">
        <ele>37.149999999999999</ele>
        <time>2017-06-20T09:49:40Z</time>
      </trkpt>
      <trkpt lat="61.895502973347902" lon="7.106071980670095">
        <ele>36.670000000000002</ele>
        <time>2017-06-20T09:49:42Z</time>
      </trkpt>
      <trkpt lat="61.895687039941549" lon="7.10631899535656">
        <ele>37.630000000000003</ele>
        <time>2017-06-20T09:49:49Z</time>
      </trkpt>
      <trkpt lat="61.895684022456408" lon="7.106307009235025">
        <ele>37.630000000000003</ele>
        <time>2017-06-20T09:51:13Z</time>
      </trkpt>
      <trkpt lat="61.895834980532527" lon="7.106453021988273">
        <ele>37.630000000000003</ele>
        <time>2017-06-20T09:51:44Z</time>
      </trkpt>
      <trkpt lat="61.896558003500104" lon="7.106980998069048">
        <ele>42.439999999999998</ele>
        <time>2017-06-20T09:51:55Z</time>
      </trkpt>
      <trkpt lat="61.897205002605915" lon="7.10735097527504">
        <ele>41.950000000000003</ele>
        <time>2017-06-20T09:52:05Z</time>
      </trkpt>
      <trkpt lat="61.917531033977866" lon="7.133844997733831">
        <ele>42.920000000000002</ele>
        <time>2017-06-20T09:55:53Z</time>
      </trkpt>
      <trkpt lat="61.918262019753456" lon="7.135727992281318">
        <ele>56.859999999999999</ele>
        <time>2017-06-20T09:56:02Z</time>
      </trkpt>
      <trkpt lat="61.918539963662624" lon="7.137998985126615">
        <ele>61.659999999999997</ele>
        <time>2017-06-20T09:56:09Z</time>
      </trkpt>
      <trkpt lat="61.918524038046598" lon="7.138368962332606">
        <ele>61.18</ele>
        <time>2017-06-20T09:56:10Z</time>
      </trkpt>
      <trkpt lat="61.918480033054948" lon="7.141518965363503">
        <ele>56.859999999999999</ele>
        <time>2017-06-20T09:56:18Z</time>
      </trkpt>
      <trkpt lat="61.918993005529046" lon="7.145265005528927">
        <ele>56.859999999999999</ele>
        <time>2017-06-20T09:56:27Z</time>
      </trkpt>
      <trkpt lat="61.919146981090307" lon="7.149384962394834">
        <ele>57.340000000000003</ele>
        <time>2017-06-20T09:56:36Z</time>
      </trkpt>
      <trkpt lat="61.918826960027218" lon="7.157094972208142">
        <ele>59.259999999999998</ele>
        <time>2017-06-20T09:56:53Z</time>
      </trkpt>
      <trkpt lat="61.918746996670961" lon="7.16000902466476">
        <ele>60.700000000000003</ele>
        <time>2017-06-20T09:57:01Z</time>
      </trkpt>
      <trkpt lat="61.918753031641245" lon="7.164580011740327">
        <ele>63.100000000000001</ele>
        <time>2017-06-20T09:57:14Z</time>
      </trkpt>
      <trkpt lat="61.918295966461301" lon="7.169563975185156">
        <ele>65.989999999999995</ele>
        <time>2017-06-20T09:57:28Z</time>
      </trkpt>
      <trkpt lat="61.918040988966823" lon="7.174751032143831">
        <ele>71.269999999999996</ele>
        <time>2017-06-20T09:57:43Z</time>
      </trkpt>
      <trkpt lat="61.918000001460314" lon="7.177933976054192">
        <ele>76.079999999999998</ele>
        <time>2017-06-20T09:57:51Z</time>
      </trkpt>
      <trkpt lat="61.918044006451964" lon="7.178292972967029">
        <ele>77.040000000000006</ele>
        <time>2017-06-20T09:57:52Z</time>
      </trkpt>
      <trkpt lat="61.918102009221911" lon="7.178645012900233">
        <ele>78</ele>
        <time>2017-06-20T09:57:53Z</time>
      </trkpt>
      <trkpt lat="61.918174009770155" lon="7.178988000378013">
        <ele>78.969999999999999</ele>
        <time>2017-06-20T09:57:54Z</time>
      </trkpt>
      <trkpt lat="61.918253973126411" lon="7.17932696454227">
        <ele>80.409999999999997</ele>
        <time>2017-06-20T09:57:55Z</time>
      </trkpt>
      <trkpt lat="61.919119991362095" lon="7.181791998445988">
        <ele>88.579999999999998</ele>
        <time>2017-06-20T09:58:03Z</time>
      </trkpt>
      <trkpt lat="61.920402003452182" lon="7.184903025627136">
        <ele>98.189999999999998</ele>
        <time>2017-06-20T09:58:14Z</time>
      </trkpt>
      <trkpt lat="61.920464029535651" lon="7.185244001448154">
        <ele>99.150000000000006</ele>
        <time>2017-06-20T09:58:15Z</time>
      </trkpt>
      <trkpt lat="61.920509040355682" lon="7.185607021674514">
        <ele>99.629999999999995</ele>
        <time>2017-06-20T09:58:16Z</time>
      </trkpt>
      <trkpt lat="61.920536030083895" lon="7.185989990830421">
        <ele>100.11</ele>
        <time>2017-06-20T09:58:17Z</time>
      </trkpt>
      <trkpt lat="61.920616999268532" lon="7.187507031485438">
        <ele>103.48</ele>
        <time>2017-06-20T09:58:21Z</time>
      </trkpt>
      <trkpt lat="61.920676007866859" lon="7.187868040055037">
        <ele>104.44</ele>
        <time>2017-06-20T09:58:22Z</time>
      </trkpt>
      <trkpt lat="61.92076301202178" lon="7.188216978684068">
        <ele>107.31999999999999</ele>
        <time>2017-06-20T09:58:23Z</time>
      </trkpt>
      <trkpt lat="61.920852027833462" lon="7.188555020838976">
        <ele>108.29000000000001</ele>
        <time>2017-06-20T09:58:24Z</time>
      </trkpt>
      <trkpt lat="61.920948000624776" lon="7.188889039680362">
        <ele>108.77</ele>
        <time>2017-06-20T09:58:25Z</time>
      </trkpt>
      <trkpt lat="61.921216975897551" lon="7.189928982406855">
        <ele>112.13</ele>
        <time>2017-06-20T09:58:28Z</time>
      </trkpt>
      <trkpt lat="61.921285958960652" lon="7.190302982926369">
        <ele>113.56999999999999</ele>
        <time>2017-06-20T09:58:29Z</time>
      </trkpt>
      <trkpt lat="61.921334993094206" lon="7.19069198705256">
        <ele>115.5</ele>
        <time>2017-06-20T09:58:30Z</time>
      </trkpt>
      <trkpt lat="61.921356031671166" lon="7.191089959815145">
        <ele>115.98</ele>
        <time>2017-06-20T09:58:31Z</time>
      </trkpt>
      <trkpt lat="61.921359971165657" lon="7.191492961719632">
        <ele>116.94</ele>
        <time>2017-06-20T09:58:32Z</time>
      </trkpt>
      <trkpt lat="61.921357959508896" lon="7.19189302995801">
        <ele>118.38</ele>
        <time>2017-06-20T09:58:33Z</time>
      </trkpt>
      <trkpt lat="61.921352008357644" lon="7.192285973578692">
        <ele>119.34</ele>
        <time>2017-06-20T09:58:34Z</time>
      </trkpt>
      <trkpt lat="61.921528028324246" lon="7.19464598223567">
        <ele>123.67</ele>
        <time>2017-06-20T09:58:40Z</time>
      </trkpt>
      <trkpt lat="61.922229006886482" lon="7.197564980015159">
        <ele>131.84</ele>
        <time>2017-06-20T09:58:48Z</time>
      </trkpt>
      <trkpt lat="61.922750025987625" lon="7.199261980131269">
        <ele>136.16</ele>
        <time>2017-06-20T09:58:53Z</time>
      </trkpt>
      <trkpt lat="61.922813979908824" lon="7.199632963165641">
        <ele>136.16</ele>
        <time>2017-06-20T09:58:54Z</time>
      </trkpt>
      <trkpt lat="61.923461984843016" lon="7.204238986596465">
        <ele>141.44999999999999</ele>
        <time>2017-06-20T09:59:05Z</time>
      </trkpt>
      <trkpt lat="61.923902034759521" lon="7.208315022289753">
        <ele>145.30000000000001</ele>
        <time>2017-06-20T09:59:14Z</time>
      </trkpt>
      <trkpt lat="61.924549033865333" lon="7.21206902526319">
        <ele>148.66</ele>
        <time>2017-06-20T09:59:23Z</time>
      </trkpt>
      <trkpt lat="61.925358977168798" lon="7.215692019090056">
        <ele>152.50999999999999</ele>
        <time>2017-06-20T09:59:32Z</time>
      </trkpt>
      <trkpt lat="61.925977980718017" lon="7.219080990180373">
        <ele>153.94999999999999</ele>
        <time>2017-06-20T09:59:40Z</time>
      </trkpt>
      <trkpt lat="61.927138036116958" lon="7.221792032942176">
        <ele>158.75</ele>
        <time>2017-06-20T09:59:48Z</time>
      </trkpt>
      <trkpt lat="61.928717019036412" lon="7.225479986518621">
        <ele>163.56</ele>
        <time>2017-06-20T09:59:59Z</time>
      </trkpt>
      <trkpt lat="61.929688984528184" lon="7.227191990241408">
        <ele>168.37</ele>
        <time>2017-06-20T10:00:06Z</time>
      </trkpt>
      <trkpt lat="61.929837008938193" lon="7.22732400521636">
        <ele>168.84999999999999</ele>
        <time>2017-06-20T10:00:07Z</time>
      </trkpt>
      <trkpt lat="61.929996013641357" lon="7.2274100035429">
        <ele>168.84999999999999</ele>
        <time>2017-06-20T10:00:08Z</time>
      </trkpt>
      <trkpt lat="61.93017303943634" lon="7.227446967735887">
        <ele>169.33000000000001</ele>
        <time>2017-06-20T10:00:09Z</time>
      </trkpt>
      <trkpt lat="61.930354004725814" lon="7.227459037676454">
        <ele>169.81</ele>
        <time>2017-06-20T10:00:10Z</time>
      </trkpt>
      <trkpt lat="61.930521978065372" lon="7.227508993819356">
        <ele>170.28999999999999</ele>
        <time>2017-06-20T10:00:11Z</time>
      </trkpt>
      <trkpt lat="61.930676959455013" lon="7.227609995752573">
        <ele>170.28999999999999</ele>
        <time>2017-06-20T10:00:12Z</time>
      </trkpt>
      <trkpt lat="61.930815009400249" lon="7.227763971313834">
        <ele>170.28999999999999</ele>
        <time>2017-06-20T10:00:13Z</time>
      </trkpt>
      <trkpt lat="61.9309470243752" lon="7.227951977401972">
        <ele>170.77000000000001</ele>
        <time>2017-06-20T10:00:14Z</time>
      </trkpt>
      <trkpt lat="61.931069986894727" lon="7.228143000975251">
        <ele>171.72999999999999</ele>
        <time>2017-06-20T10:00:15Z</time>
      </trkpt>
      <trkpt lat="61.931194961071014" lon="7.22831298597157">
        <ele>171.72999999999999</ele>
        <time>2017-06-20T10:00:16Z</time>
      </trkpt>
      <trkpt lat="61.931325970217586" lon="7.228450030088425">
        <ele>172.21000000000001</ele>
        <time>2017-06-20T10:00:17Z</time>
      </trkpt>
      <trkpt lat="61.931456979364157" lon="7.228539967909455">
        <ele>172.21000000000001</ele>
        <time>2017-06-20T10:00:18Z</time>
      </trkpt>
      <trkpt lat="61.931596035137773" lon="7.228568969294429">
        <ele>171.72999999999999</ele>
        <time>2017-06-20T10:00:19Z</time>
      </trkpt>
      <trkpt lat="61.931726960465312" lon="7.228532005101442">
        <ele>171.25</ele>
        <time>2017-06-20T10:00:20Z</time>
      </trkpt>
      <trkpt lat="61.931867022067308" lon="7.228438965976238">
        <ele>171.72999999999999</ele>
        <time>2017-06-20T10:00:21Z</time>
      </trkpt>
      <trkpt lat="61.931997025385499" lon="7.228314997628331">
        <ele>172.21000000000001</ele>
        <time>2017-06-20T10:00:22Z</time>
      </trkpt>
      <trkpt lat="61.932125017046928" lon="7.228189017623663">
        <ele>172.69</ele>
        <time>2017-06-20T10:00:23Z</time>
      </trkpt>
      <trkpt lat="61.932244040071964" lon="7.228104025125504">
        <ele>173.16999999999999</ele>
        <time>2017-06-20T10:00:24Z</time>
      </trkpt>
      <trkpt lat="61.932369014248252" lon="7.228076029568911">
        <ele>173.66</ele>
        <time>2017-06-20T10:00:25Z</time>
      </trkpt>
      <trkpt lat="61.932502035051584" lon="7.228091033175588">
        <ele>174.13999999999999</ele>
        <time>2017-06-20T10:00:26Z</time>
      </trkpt>
      <trkpt lat="61.932621980085969" lon="7.228170996531844">
        <ele>175.09999999999999</ele>
        <time>2017-06-20T10:00:27Z</time>
      </trkpt>
      <trkpt lat="61.932747960090637" lon="7.228280967101455">
        <ele>176.06</ele>
        <time>2017-06-20T10:00:28Z</time>
      </trkpt>
      <trkpt lat="61.932854996994138" lon="7.228434020653367">
        <ele>176.53999999999999</ele>
        <time>2017-06-20T10:00:29Z</time>
      </trkpt>
      <trkpt lat="61.932959016412497" lon="7.228652033954859">
        <ele>177.97999999999999</ele>
        <time>2017-06-20T10:00:30Z</time>
      </trkpt>
      <trkpt lat="61.933047026395798" lon="7.22889200784266">
        <ele>179.90000000000001</ele>
        <time>2017-06-20T10:00:31Z</time>
      </trkpt>
      <trkpt lat="61.933109974488616" lon="7.229159977287054">
        <ele>181.34999999999999</ele>
        <time>2017-06-20T10:00:32Z</time>
      </trkpt>
      <trkpt lat="61.933145010843873" lon="7.229458037763834">
        <ele>182.78999999999999</ele>
        <time>2017-06-20T10:00:33Z</time>
      </trkpt>
      <trkpt lat="61.933158002793789" lon="7.229766994714737">
        <ele>184.22999999999999</ele>
        <time>2017-06-20T10:00:34Z</time>
      </trkpt>
      <trkpt lat="61.933165965601802" lon="7.230068994686008">
        <ele>186.15000000000001</ele>
        <time>2017-06-20T10:00:35Z</time>
      </trkpt>
      <trkpt lat="61.933401999995112" lon="7.232473008334637">
        <ele>195.77000000000001</ele>
        <time>2017-06-20T10:00:42Z</time>
      </trkpt>
      <trkpt lat="61.933682039380074" lon="7.234632018953562">
        <ele>203.46000000000001</ele>
        <time>2017-06-20T10:00:50Z</time>
      </trkpt>
      <trkpt lat="61.933726966381073" lon="7.234829999506474">
        <ele>203.94</ele>
        <time>2017-06-20T10:00:51Z</time>
      </trkpt>
      <trkpt lat="61.933792009949684" lon="7.234998978674412">
        <ele>204.41999999999999</ele>
        <time>2017-06-20T10:00:52Z</time>
      </trkpt>
      <trkpt lat="61.933869961649179" lon="7.235109033063054">
        <ele>204.41999999999999</ele>
        <time>2017-06-20T10:00:53Z</time>
      </trkpt>
      <trkpt lat="61.933963000774384" lon="7.235139962285757">
        <ele>204.90000000000001</ele>
        <time>2017-06-20T10:00:54Z</time>
      </trkpt>
      <trkpt lat="61.934067020192742" lon="7.235071985051036">
        <ele>205.38</ele>
        <time>2017-06-20T10:00:55Z</time>
      </trkpt>
      <trkpt lat="61.934155030176044" lon="7.234927983954549">
        <ele>206.34</ele>
        <time>2017-06-20T10:00:56Z</time>
      </trkpt>
      <trkpt lat="61.934210015460849" lon="7.234706031158567">
        <ele>206.34</ele>
        <time>2017-06-20T10:00:57Z</time>
      </trkpt>
      <trkpt lat="61.934256032109261" lon="7.234432026743889">
        <ele>206.81999999999999</ele>
        <time>2017-06-20T10:00:58Z</time>
      </trkpt>
      <trkpt lat="61.93430095911026" lon="7.234126003459096">
        <ele>207.78</ele>
        <time>2017-06-20T10:00:59Z</time>
      </trkpt>
      <trkpt lat="61.934546967968345" lon="7.232565963640809">
        <ele>213.06999999999999</ele>
        <time>2017-06-20T10:01:04Z</time>
      </trkpt>
      <trkpt lat="61.934603964909911" lon="7.232360020279884">
        <ele>213.06999999999999</ele>
        <time>2017-06-20T10:01:05Z</time>
      </trkpt>
      <trkpt lat="61.934684012085199" lon="7.232232028618455">
        <ele>213.55000000000001</ele>
        <time>2017-06-20T10:01:06Z</time>
      </trkpt>
      <trkpt lat="61.934770010411739" lon="7.232168996706605">
        <ele>214.03</ele>
        <time>2017-06-20T10:01:07Z</time>
      </trkpt>
      <trkpt lat="61.934844022616744" lon="7.232205960899591">
        <ele>214.50999999999999</ele>
        <time>2017-06-20T10:01:08Z</time>
      </trkpt>
      <trkpt lat="61.934919962659478" lon="7.232315009459853">
        <ele>215.47</ele>
        <time>2017-06-20T10:01:09Z</time>
      </trkpt>
      <trkpt lat="61.934971008449793" lon="7.232468985021114">
        <ele>215.94999999999999</ele>
        <time>2017-06-20T10:01:10Z</time>
      </trkpt>
      <trkpt lat="61.935002021491528" lon="7.232663026079536">
        <ele>215.94999999999999</ele>
        <time>2017-06-20T10:01:11Z</time>
      </trkpt>
      <trkpt lat="61.934985006228089" lon="7.23286896944046">
        <ele>215.94999999999999</ele>
        <time>2017-06-20T10:01:12Z</time>
      </trkpt>
      <trkpt lat="61.934936977922916" lon="7.233086982741952">
        <ele>216.43000000000001</ele>
        <time>2017-06-20T10:01:13Z</time>
      </trkpt>
      <trkpt lat="61.934890039265156" lon="7.233303990215063">
        <ele>217.88</ele>
        <time>2017-06-20T10:01:14Z</time>
      </trkpt>
      <trkpt lat="61.934774033725262" lon="7.233793996274471">
        <ele>220.28</ele>
        <time>2017-06-20T10:01:16Z</time>
      </trkpt>
      <trkpt lat="61.934738997370005" lon="7.234075041487813">
        <ele>221.24000000000001</ele>
        <time>2017-06-20T10:01:17Z</time>
      </trkpt>
      <trkpt lat="61.934722987934947" lon="7.234375029802322">
        <ele>222.19999999999999</ele>
        <time>2017-06-20T10:01:18Z</time>
      </trkpt>
      <trkpt lat="61.934731034561992" lon="7.23469203338027">
        <ele>223.16</ele>
        <time>2017-06-20T10:01:19Z</time>
      </trkpt>
      <trkpt lat="61.934763975441456" lon="7.23501599393785">
        <ele>224.12</ele>
        <time>2017-06-20T10:01:20Z</time>
      </trkpt>
      <trkpt lat="61.934826001524925" lon="7.235335009172559">
        <ele>225.56999999999999</ele>
        <time>2017-06-20T10:01:21Z</time>
      </trkpt>
      <trkpt lat="61.934907976537943" lon="7.235652012750506">
        <ele>227.49000000000001</ele>
        <time>2017-06-20T10:01:22Z</time>
      </trkpt>
      <trkpt lat="61.934995986521244" lon="7.235963987186551">
        <ele>228.93000000000001</ele>
        <time>2017-06-20T10:01:23Z</time>
      </trkpt>
      <trkpt lat="61.935370992869139" lon="7.238332964479923">
        <ele>238.06</ele>
        <time>2017-06-20T10:01:30Z</time>
      </trkpt>
      <trkpt lat="61.935676010325551" lon="7.241101004183292">
        <ele>250.08000000000001</ele>
        <time>2017-06-20T10:01:38Z</time>
      </trkpt>
      <trkpt lat="61.935748010873795" lon="7.241428988054395">
        <ele>251.52000000000001</ele>
        <time>2017-06-20T10:01:39Z</time>
      </trkpt>
      <trkpt lat="61.935891006141901" lon="7.242084033787251">
        <ele>255.84999999999999</ele>
        <time>2017-06-20T10:01:41Z</time>
      </trkpt>
      <trkpt lat="61.935939034447074" lon="7.242421992123127">
        <ele>257.76999999999998</ele>
        <time>2017-06-20T10:01:42Z</time>
      </trkpt>
      <trkpt lat="61.935970969498158" lon="7.242763973772526">
        <ele>259.69</ele>
        <time>2017-06-20T10:01:43Z</time>
      </trkpt>
      <trkpt lat="61.93599502556026" lon="7.243104027584195">
        <ele>261.13999999999999</ele>
        <time>2017-06-20T10:01:44Z</time>
      </trkpt>
      <trkpt lat="61.936011034995317" lon="7.243440980091691">
        <ele>262.10000000000002</ele>
        <time>2017-06-20T10:01:45Z</time>
      </trkpt>
      <trkpt lat="61.936026960611343" lon="7.243772987276316">
        <ele>262.57999999999998</ele>
        <time>2017-06-20T10:01:46Z</time>
      </trkpt>
      <trkpt lat="61.936119999736547" lon="7.245005965232849">
        <ele>263.54000000000002</ele>
        <time>2017-06-20T10:01:51Z</time>
      </trkpt>
      <trkpt lat="61.936106001958251" lon="7.245169999077916">
        <ele>264.01999999999998</ele>
        <time>2017-06-20T10:01:52Z</time>
      </trkpt>
      <trkpt lat="61.9360619969666" lon="7.24530503153801">
        <ele>264.01999999999998</ele>
        <time>2017-06-20T10:01:53Z</time>
      </trkpt>
      <trkpt lat="61.936006005853415" lon="7.24539102986455">
        <ele>264.01999999999998</ele>
        <time>2017-06-20T10:01:54Z</time>
      </trkpt>
      <trkpt lat="61.935958983376622" lon="7.245408967137337">
        <ele>264.01999999999998</ele>
        <time>2017-06-20T10:01:55Z</time>
      </trkpt>
      <trkpt lat="61.935884971171618" lon="7.245365967974067">
        <ele>264.01999999999998</ele>
        <time>2017-06-20T10:01:56Z</time>
      </trkpt>
      <trkpt lat="61.935806013643742" lon="7.245247028768063">
        <ele>264.01999999999998</ele>
        <time>2017-06-20T10:01:57Z</time>
      </trkpt>
      <trkpt lat="61.935738958418369" lon="7.245084000751376">
        <ele>264.01999999999998</ele>
        <time>2017-06-20T10:01:58Z</time>
      </trkpt>
      <trkpt lat="61.935684978961945" lon="7.244866993278265">
        <ele>264.5</ele>
        <time>2017-06-20T10:01:59Z</time>
      </trkpt>
      <trkpt lat="61.935639968141913" lon="7.244595000520349">
        <ele>266.89999999999998</ele>
        <time>2017-06-20T10:02:00Z</time>
      </trkpt>
      <trkpt lat="61.935582971200347" lon="7.244312027469277">
        <ele>268.82999999999998</ele>
        <time>2017-06-20T10:02:01Z</time>
      </trkpt>
      <trkpt lat="61.935254987329245" lon="7.242807978764176">
        <ele>276.04000000000002</ele>
        <time>2017-06-20T10:02:06Z</time>
      </trkpt>
      <trkpt lat="61.935163959860802" lon="7.242543026804924">
        <ele>277</ele>
        <time>2017-06-20T10:02:07Z</time>
      </trkpt>
      <trkpt lat="61.935048038139939" lon="7.242297017946839">
        <ele>278.44</ele>
        <time>2017-06-20T10:02:08Z</time>
      </trkpt>
      <trkpt lat="61.93492298014462" lon="7.242084033787251">
        <ele>279.88</ele>
        <time>2017-06-20T10:02:09Z</time>
      </trkpt>
      <trkpt lat="61.934781996533275" lon="7.241893010213971">
        <ele>280.83999999999997</ele>
        <time>2017-06-20T10:02:10Z</time>
      </trkpt>
      <trkpt lat="61.934637995436788" lon="7.241740040481091">
        <ele>281.80000000000001</ele>
        <time>2017-06-20T10:02:11Z</time>
      </trkpt>
      <trkpt lat="61.934499023482203" lon="7.241631997749209">
        <ele>282.27999999999997</ele>
        <time>2017-06-20T10:02:12Z</time>
      </trkpt>
      <trkpt lat="61.934371031820774" lon="7.241582041606307">
        <ele>282.27999999999997</ele>
        <time>2017-06-20T10:02:13Z</time>
      </trkpt>
      <trkpt lat="61.934263994917274" lon="7.241586986929178">
        <ele>282.27999999999997</ele>
        <time>2017-06-20T10:02:14Z</time>
      </trkpt>
      <trkpt lat="61.934176990762353" lon="7.241648007184267">
        <ele>282.76999999999998</ele>
        <time>2017-06-20T10:02:15Z</time>
      </trkpt>
      <trkpt lat="61.934116976335645" lon="7.241740962490439">
        <ele>283.25</ele>
        <time>2017-06-20T10:02:16Z</time>
      </trkpt>
      <trkpt lat="61.934079006314278" lon="7.241879012435675">
        <ele>283.25</ele>
        <time>2017-06-20T10:02:17Z</time>
      </trkpt>
      <trkpt lat="61.934067020192742" lon="7.242058971896768">
        <ele>284.20999999999998</ele>
        <time>2017-06-20T10:02:18Z</time>
      </trkpt>
      <trkpt lat="61.934088980779052" lon="7.242245972156525">
        <ele>284.69</ele>
        <time>2017-06-20T10:02:19Z</time>
      </trkpt>
      <trkpt lat="61.934142038226128" lon="7.242420986294746">
        <ele>285.17000000000002</ele>
        <time>2017-06-20T10:02:20Z</time>
      </trkpt>
      <trkpt lat="61.934220995754004" lon="7.242559036239982">
        <ele>285.64999999999998</ele>
        <time>2017-06-20T10:02:21Z</time>
      </trkpt>
      <trkpt lat="61.93432099185884" lon="7.242681998759508">
        <ele>286.61000000000001</ele>
        <time>2017-06-20T10:02:22Z</time>
      </trkpt>
      <trkpt lat="61.934434985741973" lon="7.242808984592557">
        <ele>287.08999999999997</ele>
        <time>2017-06-20T10:02:23Z</time>
      </trkpt>
      <trkpt lat="61.934678982943296" lon="7.243095980957151">
        <ele>288.52999999999997</ele>
        <time>2017-06-20T10:02:25Z</time>
      </trkpt>
      <trkpt lat="61.934791970998049" lon="7.243264960125089">
        <ele>289.49000000000001</ele>
        <time>2017-06-20T10:02:26Z</time>
      </trkpt>
      <trkpt lat="61.934893978759646" lon="7.24348003976047">
        <ele>290.45999999999998</ele>
        <time>2017-06-20T10:02:27Z</time>
      </trkpt>
      <trkpt lat="61.934988023713231" lon="7.243727976456285">
        <ele>291.42000000000002</ele>
        <time>2017-06-20T10:02:28Z</time>
      </trkpt>
      <trkpt lat="61.935063041746616" lon="7.244012039154768">
        <ele>292.38</ele>
        <time>2017-06-20T10:02:29Z</time>
      </trkpt>
      <trkpt lat="61.935120038688183" lon="7.24434002302587">
        <ele>293.33999999999997</ele>
        <time>2017-06-20T10:02:30Z</time>
      </trkpt>
      <trkpt lat="61.935172006487846" lon="7.244687033817172">
        <ele>294.77999999999997</ele>
        <time>2017-06-20T10:02:31Z</time>
      </trkpt>
      <trkpt lat="61.935277031734586" lon="7.2457579895854">
        <ele>299.11000000000001</ele>
        <time>2017-06-20T10:02:34Z</time>
      </trkpt>
      <trkpt lat="61.935280971229076" lon="7.246115980669856">
        <ele>300.55000000000001</ele>
        <time>2017-06-20T10:02:35Z</time>
      </trkpt>
      <trkpt lat="61.935274014249444" lon="7.246475983411074">
        <ele>301.99000000000001</ele>
        <time>2017-06-20T10:02:36Z</time>
      </trkpt>
      <trkpt lat="61.934988023713231" lon="7.248830040916801">
        <ele>314.49000000000001</ele>
        <time>2017-06-20T10:02:43Z</time>
      </trkpt>
      <trkpt lat="61.934326021000743" lon="7.250826023519039">
        <ele>324.57999999999998</ele>
        <time>2017-06-20T10:02:50Z</time>
      </trkpt>
      <trkpt lat="61.933986973017454" lon="7.251572012901306">
        <ele>326.99000000000001</ele>
        <time>2017-06-20T10:02:54Z</time>
      </trkpt>
      <trkpt lat="61.933966018259525" lon="7.251749038696289">
        <ele>327.47000000000003</ele>
        <time>2017-06-20T10:02:55Z</time>
      </trkpt>
      <trkpt lat="61.933968029916286" lon="7.251930003985763">
        <ele>327.94999999999999</ele>
        <time>2017-06-20T10:02:56Z</time>
      </trkpt>
      <trkpt lat="61.933998959138989" lon="7.252094959840179">
        <ele>327.94999999999999</ele>
        <time>2017-06-20T10:02:57Z</time>
      </trkpt>
      <trkpt lat="61.934056961908937" lon="7.252207025885582">
        <ele>327.94999999999999</ele>
        <time>2017-06-20T10:02:58Z</time>
      </trkpt>
      <trkpt lat="61.934142960235476" lon="7.252232003957033">
        <ele>328.91000000000003</ele>
        <time>2017-06-20T10:02:59Z</time>
      </trkpt>
      <trkpt lat="61.934237005189061" lon="7.252176012843847">
        <ele>329.38999999999999</ele>
        <time>2017-06-20T10:03:00Z</time>
      </trkpt>
      <trkpt lat="61.934318980202079" lon="7.252052966505289">
        <ele>329.87</ele>
        <time>2017-06-20T10:03:01Z</time>
      </trkpt>
      <trkpt lat="61.934401961043477" lon="7.251864038407803">
        <ele>330.35000000000002</ele>
        <time>2017-06-20T10:03:02Z</time>
      </trkpt>
      <trkpt lat="61.934487037360668" lon="7.251643007621169">
        <ele>330.82999999999998</ele>
        <time>2017-06-20T10:03:03Z</time>
      </trkpt>
      <trkpt lat="61.93515800870955" lon="7.249985989183188">
        <ele>337.07999999999998</ele>
        <time>2017-06-20T10:03:09Z</time>
      </trkpt>
      <trkpt lat="61.935291029512882" lon="7.249765964224935">
        <ele>338.51999999999998</ele>
        <time>2017-06-20T10:03:10Z</time>
      </trkpt>
      <trkpt lat="61.935424972325563" lon="7.249601008370519">
        <ele>339.48000000000002</ele>
        <time>2017-06-20T10:03:11Z</time>
      </trkpt>
      <trkpt lat="61.935566961765289" lon="7.249491959810257">
        <ele>340.92000000000002</ele>
        <time>2017-06-20T10:03:12Z</time>
      </trkpt>
      <trkpt lat="61.935722026973963" lon="7.249434040859342">
        <ele>341.88999999999999</ele>
        <time>2017-06-20T10:03:13Z</time>
      </trkpt>
      <trkpt lat="61.935886982828379" lon="7.249405039474368">
        <ele>343.32999999999998</ele>
        <time>2017-06-20T10:03:14Z</time>
      </trkpt>
      <trkpt lat="61.936047999188304" lon="7.249401016160846">
        <ele>344.29000000000002</ele>
        <time>2017-06-20T10:03:15Z</time>
      </trkpt>
      <trkpt lat="61.936200968921185" lon="7.249407973140478">
        <ele>345.73000000000002</ele>
        <time>2017-06-20T10:03:16Z</time>
      </trkpt>
      <trkpt lat="61.936691980808973" lon="7.249485002830625">
        <ele>349.57999999999998</ele>
        <time>2017-06-20T10:03:20Z</time>
      </trkpt>
      <trkpt lat="61.936786025762558" lon="7.249551974236965">
        <ele>350.06</ele>
        <time>2017-06-20T10:03:21Z</time>
      </trkpt>
      <trkpt lat="61.936852997168899" lon="7.249639984220266">
        <ele>350.54000000000002</ele>
        <time>2017-06-20T10:03:22Z</time>
      </trkpt>
      <trkpt lat="61.936904964968562" lon="7.24975598976016">
        <ele>351.01999999999998</ele>
        <time>2017-06-20T10:03:23Z</time>
      </trkpt>
      <trkpt lat="61.936931032687426" lon="7.249893033877015">
        <ele>351.5</ele>
        <time>2017-06-20T10:03:24Z</time>
      </trkpt>
      <trkpt lat="61.936928015202284" lon="7.250036029145122">
        <ele>351.5</ele>
        <time>2017-06-20T10:03:25Z</time>
      </trkpt>
      <trkpt lat="61.936860959976912" lon="7.25014298222959">
        <ele>351.5</ele>
        <time>2017-06-20T10:03:26Z</time>
      </trkpt>
      <trkpt lat="61.936785019934177" lon="7.250224035233259">
        <ele>351.98000000000002</ele>
        <time>2017-06-20T10:03:27Z</time>
      </trkpt>
      <trkpt lat="61.936696004122496" lon="7.250254964455962">
        <ele>351.98000000000002</ele>
        <time>2017-06-20T10:03:28Z</time>
      </trkpt>
      <trkpt lat="61.936596008017659" lon="7.250239960849285">
        <ele>351.98000000000002</ele>
        <time>2017-06-20T10:03:29Z</time>
      </trkpt>
      <trkpt lat="61.936504980549216" lon="7.250208025798202">
        <ele>351.98000000000002</ele>
        <time>2017-06-20T10:03:30Z</time>
      </trkpt>
      <trkpt lat="61.936399033293128" lon="7.250151028856635">
        <ele>352.45999999999998</ele>
        <time>2017-06-20T10:03:31Z</time>
      </trkpt>
      <trkpt lat="61.936280010268092" lon="7.250105012208223">
        <ele>352.45999999999998</ele>
        <time>2017-06-20T10:03:32Z</time>
      </trkpt>
      <trkpt lat="61.936155036091805" lon="7.250082967802882">
        <ele>352.94</ele>
        <time>2017-06-20T10:03:33Z</time>
      </trkpt>
      <trkpt lat="61.936026960611343" lon="7.250089002773166">
        <ele>352.94</ele>
        <time>2017-06-20T10:03:34Z</time>
      </trkpt>
      <trkpt lat="61.935902992263436" lon="7.250121021643281">
        <ele>353.42000000000002</ele>
        <time>2017-06-20T10:03:35Z</time>
      </trkpt>
      <trkpt lat="61.935779023915529" lon="7.250197967514396">
        <ele>354.38</ele>
        <time>2017-06-20T10:03:36Z</time>
      </trkpt>
      <trkpt lat="61.935660000890493" lon="7.250306010246277">
        <ele>355.33999999999997</ele>
        <time>2017-06-20T10:03:37Z</time>
      </trkpt>
      <trkpt lat="61.935539972037077" lon="7.25044397637248">
        <ele>356.79000000000002</ele>
        <time>2017-06-20T10:03:38Z</time>
      </trkpt>
      <trkpt lat="61.935435030609369" lon="7.250630976632237">
        <ele>357.75</ele>
        <time>2017-06-20T10:03:39Z</time>
      </trkpt>
      <trkpt lat="61.935340985655785" lon="7.250855024904013">
        <ele>358.70999999999998</ele>
        <time>2017-06-20T10:03:40Z</time>
      </trkpt>
      <trkpt lat="61.935259010642767" lon="7.251121988520026">
        <ele>360.14999999999998</ele>
        <time>2017-06-20T10:03:41Z</time>
      </trkpt>
      <trkpt lat="61.935186004266143" lon="7.251407979056239">
        <ele>361.11000000000001</ele>
        <time>2017-06-20T10:03:42Z</time>
      </trkpt>
      <trkpt lat="61.935121966525912" lon="7.251702016219497">
        <ele>362.55000000000001</ele>
        <time>2017-06-20T10:03:43Z</time>
      </trkpt>
      <trkpt lat="61.935066981241107" lon="7.251987000927329">
        <ele>364.48000000000002</ele>
        <time>2017-06-20T10:03:44Z</time>
      </trkpt>
      <trkpt lat="61.93503001704812" lon="7.252282965928316">
        <ele>365.44</ele>
        <time>2017-06-20T10:03:45Z</time>
      </trkpt>
      <trkpt lat="61.93496597930789" lon="7.253393987193704">
        <ele>369.27999999999997</ele>
        <time>2017-06-20T10:03:49Z</time>
      </trkpt>
      <trkpt lat="61.934984000399709" lon="7.25361904129386">
        <ele>369.75999999999999</ele>
        <time>2017-06-20T10:03:50Z</time>
      </trkpt>
      <trkpt lat="61.935026999562979" lon="7.25379397161305">
        <ele>369.75999999999999</ele>
        <time>2017-06-20T10:03:51Z</time>
      </trkpt>
      <trkpt lat="61.935092965140939" lon="7.253896985203028">
        <ele>370.24000000000001</ele>
        <time>2017-06-20T10:03:52Z</time>
      </trkpt>
      <trkpt lat="61.93518097512424" lon="7.253906037658453">
        <ele>370.73000000000002</ele>
        <time>2017-06-20T10:03:53Z</time>
      </trkpt>
      <trkpt lat="61.935274014249444" lon="7.253843005746603">
        <ele>371.20999999999998</ele>
        <time>2017-06-20T10:03:54Z</time>
      </trkpt>
      <trkpt lat="61.935350960120559" lon="7.253717025741935">
        <ele>371.69</ele>
        <time>2017-06-20T10:03:55Z</time>
      </trkpt>
      <trkpt lat="61.935391025617719" lon="7.253533964976668">
        <ele>372.17000000000002</ele>
        <time>2017-06-20T10:03:56Z</time>
      </trkpt>
      <trkpt lat="61.935413992032409" lon="7.253314023837447">
        <ele>372.17000000000002</ele>
        <time>2017-06-20T10:03:57Z</time>
      </trkpt>
      <trkpt lat="61.935420027002692" lon="7.253072038292885">
        <ele>372.64999999999998</ele>
        <time>2017-06-20T10:03:58Z</time>
      </trkpt>
      <trkpt lat="61.935425978153944" lon="7.252816976979375">
        <ele>373.13</ele>
        <time>2017-06-20T10:03:59Z</time>
      </trkpt>
      <trkpt lat="61.93543603643775" lon="7.252566022798419">
        <ele>373.61000000000001</ele>
        <time>2017-06-20T10:04:00Z</time>
      </trkpt>
      <trkpt lat="61.935469983145595" lon="7.252310961484909">
        <ele>374.08999999999997</ele>
        <time>2017-06-20T10:04:01Z</time>
      </trkpt>
      <trkpt lat="61.935523962602019" lon="7.252066964283586">
        <ele>375.05000000000001</ele>
        <time>2017-06-20T10:04:02Z</time>
      </trkpt>
      <trkpt lat="61.935603003948927" lon="7.251848028972745">
        <ele>375.52999999999997</ele>
        <time>2017-06-20T10:04:03Z</time>
      </trkpt>
      <trkpt lat="61.935698976740241" lon="7.25166798569262">
        <ele>376.49000000000001</ele>
        <time>2017-06-20T10:04:04Z</time>
      </trkpt>
      <trkpt lat="61.935810036957264" lon="7.251525996252894">
        <ele>377.44999999999999</ele>
        <time>2017-06-20T10:04:05Z</time>
      </trkpt>
      <trkpt lat="61.93593299947679" lon="7.251428011804819">
        <ele>378.42000000000002</ele>
        <time>2017-06-20T10:04:06Z</time>
      </trkpt>
      <trkpt lat="61.936071971431375" lon="7.251375038176775">
        <ele>379.86000000000001</ele>
        <time>2017-06-20T10:04:07Z</time>
      </trkpt>
      <trkpt lat="61.936214966699481" lon="7.25136699154973">
        <ele>380.81999999999999</ele>
        <time>2017-06-20T10:04:08Z</time>
      </trkpt>
      <trkpt lat="61.93636299110949" lon="7.251378977671266">
        <ele>381.77999999999997</ele>
        <time>2017-06-20T10:04:09Z</time>
      </trkpt>
      <trkpt lat="61.936762975528836" lon="7.251378977671266">
        <ele>385.14999999999998</ele>
        <time>2017-06-20T10:04:12Z</time>
      </trkpt>
      <trkpt lat="61.937258010730147" lon="7.251321980729699">
        <ele>389.94999999999999</ele>
        <time>2017-06-20T10:04:17Z</time>
      </trkpt>
      <trkpt lat="61.937347026541829" lon="7.251369003206492">
        <ele>390.91000000000003</ele>
        <time>2017-06-20T10:04:18Z</time>
      </trkpt>
      <trkpt lat="61.937418021261692" lon="7.251458019018173">
        <ele>391.38999999999999</ele>
        <time>2017-06-20T10:04:19Z</time>
      </trkpt>
      <trkpt lat="61.937461020424962" lon="7.251566983759403">
        <ele>392.36000000000001</ele>
        <time>2017-06-20T10:04:20Z</time>
      </trkpt>
      <trkpt lat="61.93747996352613" lon="7.251720959320664">
        <ele>392.83999999999997</ele>
        <time>2017-06-20T10:04:21Z</time>
      </trkpt>
      <trkpt lat="61.937452973797917" lon="7.251873007044196">
        <ele>392.83999999999997</ele>
        <time>2017-06-20T10:04:22Z</time>
      </trkpt>
      <trkpt lat="61.937384996563196" lon="7.251994041725993">
        <ele>393.31999999999999</ele>
        <time>2017-06-20T10:04:23Z</time>
      </trkpt>
      <trkpt lat="61.937291035428643" lon="7.252068975940347">
        <ele>393.31999999999999</ele>
        <time>2017-06-20T10:04:24Z</time>
      </trkpt>
      <trkpt lat="61.937180981040001" lon="7.252125972881913">
        <ele>393.80000000000001</ele>
        <time>2017-06-20T10:04:25Z</time>
      </trkpt>
      <trkpt lat="61.937057012692094" lon="7.252167966216803">
        <ele>394.27999999999997</ele>
        <time>2017-06-20T10:04:26Z</time>
      </trkpt>
      <trkpt lat="61.936797006055713" lon="7.252300987020135">
        <ele>395.24000000000001</ele>
        <time>2017-06-20T10:04:28Z</time>
      </trkpt>
      <trkpt lat="61.936671026051044" lon="7.252411041408777">
        <ele>396.19999999999999</ele>
        <time>2017-06-20T10:04:29Z</time>
      </trkpt>
      <trkpt lat="61.936552003026009" lon="7.252560993656516">
        <ele>396.68000000000001</ele>
        <time>2017-06-20T10:04:30Z</time>
      </trkpt>
      <trkpt lat="61.936449995264411" lon="7.252751011401415">
        <ele>398.12</ele>
        <time>2017-06-20T10:04:31Z</time>
      </trkpt>
      <trkpt lat="61.936357961967587" lon="7.25297698751092">
        <ele>398.60000000000002</ele>
        <time>2017-06-20T10:04:32Z</time>
      </trkpt>
      <trkpt lat="61.93627699278295" lon="7.253230959177017">
        <ele>400.52999999999997</ele>
        <time>2017-06-20T10:04:33Z</time>
      </trkpt>
      <trkpt lat="61.936218990013003" lon="7.253520973026753">
        <ele>401.49000000000001</ele>
        <time>2017-06-20T10:04:34Z</time>
      </trkpt>
      <trkpt lat="61.936185965314507" lon="7.253835964947939">
        <ele>402.93000000000001</ele>
        <time>2017-06-20T10:04:35Z</time>
      </trkpt>
      <trkpt lat="61.936183031648397" lon="7.254167972132564">
        <ele>404.85000000000002</ele>
        <time>2017-06-20T10:04:36Z</time>
      </trkpt>
      <trkpt lat="61.936199963092804" lon="7.254511965438724">
        <ele>406.29000000000002</ele>
        <time>2017-06-20T10:04:37Z</time>
      </trkpt>
      <trkpt lat="61.936241034418344" lon="7.254858976230025">
        <ele>408.22000000000003</ele>
        <time>2017-06-20T10:04:38Z</time>
      </trkpt>
      <trkpt lat="61.936294008046389" lon="7.255209004506469">
        <ele>409.66000000000003</ele>
        <time>2017-06-20T10:04:39Z</time>
      </trkpt>
      <trkpt lat="61.936558037996292" lon="7.257605977356434">
        <ele>421.19</ele>
        <time>2017-06-20T10:04:47Z</time>
      </trkpt>
      <trkpt lat="61.936642024666071" lon="7.25935603491962">
        <ele>430.32999999999998</ele>
        <time>2017-06-20T10:04:55Z</time>
      </trkpt>
      <trkpt lat="61.936696004122496" lon="7.259605983272195">
        <ele>432.25</ele>
        <time>2017-06-20T10:04:57Z</time>
      </trkpt>
      <trkpt lat="61.936728022992611" lon="7.259707991033793">
        <ele>433.20999999999998</ele>
        <time>2017-06-20T10:04:58Z</time>
      </trkpt>
      <trkpt lat="61.936764987185597" lon="7.259798012673855">
        <ele>433.69</ele>
        <time>2017-06-20T10:04:59Z</time>
      </trkpt>
      <trkpt lat="61.93713303655386" lon="7.260587001219392">
        <ele>438.5</ele>
        <time>2017-06-20T10:05:06Z</time>
      </trkpt>
      <trkpt lat="61.93717896938324" lon="7.260727984830737">
        <ele>439.45999999999998</ele>
        <time>2017-06-20T10:05:07Z</time>
      </trkpt>
      <trkpt lat="61.937215011566877" lon="7.26088497787714">
        <ele>439.94</ele>
        <time>2017-06-20T10:05:08Z</time>
      </trkpt>
      <trkpt lat="61.937237977981567" lon="7.261054962873459">
        <ele>440.89999999999998</ele>
        <time>2017-06-20T10:05:09Z</time>
      </trkpt>
      <trkpt lat="61.937249964103103" lon="7.2612289711833">
        <ele>441.86000000000001</ele>
        <time>2017-06-20T10:05:10Z</time>
      </trkpt>
      <trkpt lat="61.937248958274722" lon="7.26140096783638">
        <ele>442.33999999999997</ele>
        <time>2017-06-20T10:05:11Z</time>
      </trkpt>
      <trkpt lat="61.93724200129509" lon="7.261571036651731">
        <ele>443.31</ele>
        <time>2017-06-20T10:05:12Z</time>
      </trkpt>
      <trkpt lat="61.937231021001935" lon="7.261754013597965">
        <ele>444.26999999999998</ele>
        <time>2017-06-20T10:05:13Z</time>
      </trkpt>
      <trkpt lat="61.937206964939833" lon="7.261946965008974">
        <ele>445.23000000000002</ele>
        <time>2017-06-20T10:05:14Z</time>
      </trkpt>
      <trkpt lat="61.93717704154551" lon="7.262145029380918">
        <ele>446.67000000000002</ele>
        <time>2017-06-20T10:05:15Z</time>
      </trkpt>
      <trkpt lat="61.936644036322832" lon="7.263952000066638">
        <ele>457.24000000000001</ele>
        <time>2017-06-20T10:05:24Z</time>
      </trkpt>
      <trkpt lat="61.936518978327513" lon="7.264294987544417">
        <ele>458.69</ele>
        <time>2017-06-20T10:05:26Z</time>
      </trkpt>
      <trkpt lat="61.936481008306146" lon="7.264464972540736">
        <ele>459.17000000000002</ele>
        <time>2017-06-20T10:05:27Z</time>
      </trkpt>
      <trkpt lat="61.936456030234694" lon="7.264648033306003">
        <ele>459.17000000000002</ele>
        <time>2017-06-20T10:05:28Z</time>
      </trkpt>
      <trkpt lat="61.936461981385946" lon="7.264819024130702">
        <ele>459.64999999999998</ele>
        <time>2017-06-20T10:05:29Z</time>
      </trkpt>
      <trkpt lat="61.936501041054726" lon="7.264968976378441">
        <ele>460.13</ele>
        <time>2017-06-20T10:05:30Z</time>
      </trkpt>
      <trkpt lat="61.936561977490783" lon="7.265066038817167">
        <ele>460.13</ele>
        <time>2017-06-20T10:05:31Z</time>
      </trkpt>
      <trkpt lat="61.936635989695787" lon="7.265101997181773">
        <ele>460.13</ele>
        <time>2017-06-20T10:05:32Z</time>
      </trkpt>
      <trkpt lat="61.936725005507469" lon="7.265061009675264">
        <ele>460.61000000000001</ele>
        <time>2017-06-20T10:05:33Z</time>
      </trkpt>
      <trkpt lat="61.936807986348867" lon="7.26496696472168">
        <ele>460.61000000000001</ele>
        <time>2017-06-20T10:05:34Z</time>
      </trkpt>
      <trkpt lat="61.93687797524035" lon="7.264833021908999">
        <ele>461.08999999999997</ele>
        <time>2017-06-20T10:05:35Z</time>
      </trkpt>
      <trkpt lat="61.936936983838677" lon="7.264663958922029">
        <ele>461.56999999999999</ele>
        <time>2017-06-20T10:05:36Z</time>
      </trkpt>
      <trkpt lat="61.936988029628992" lon="7.264464972540736">
        <ele>462.05000000000001</ele>
        <time>2017-06-20T10:05:37Z</time>
      </trkpt>
      <trkpt lat="61.937281982973218" lon="7.263602977618575">
        <ele>464.44999999999999</ele>
        <time>2017-06-20T10:05:41Z</time>
      </trkpt>
      <trkpt lat="61.937379967421293" lon="7.263402985408902">
        <ele>465.42000000000002</ele>
        <time>2017-06-20T10:05:42Z</time>
      </trkpt>
      <trkpt lat="61.937489015981555" lon="7.263222020119429">
        <ele>466.38</ele>
        <time>2017-06-20T10:05:43Z</time>
      </trkpt>
      <trkpt lat="61.937604015693069" lon="7.263059997931123">
        <ele>466.86000000000001</ele>
        <time>2017-06-20T10:05:44Z</time>
      </trkpt>
      <trkpt lat="61.937727984040976" lon="7.262922031804919">
        <ele>467.81999999999999</ele>
        <time>2017-06-20T10:05:45Z</time>
      </trkpt>
      <trkpt lat="61.937849018722773" lon="7.262803008779883">
        <ele>468.30000000000001</ele>
        <time>2017-06-20T10:05:46Z</time>
      </trkpt>
      <trkpt lat="61.937967035919428" lon="7.262706030160189">
        <ele>468.77999999999997</ele>
        <time>2017-06-20T10:05:47Z</time>
      </trkpt>
      <trkpt lat="61.961192032322288" lon="7.251928998157382">
        <ele>564.42999999999995</ele>
        <time>2017-06-20T10:08:00Z</time>
      </trkpt>
      <trkpt lat="61.962335994467139" lon="7.252243990078569">
        <ele>573.08000000000004</ele>
        <time>2017-06-20T10:08:06Z</time>
      </trkpt>
      <trkpt lat="61.963611971586943" lon="7.253724988549948">
        <ele>582.22000000000003</ele>
        <time>2017-06-20T10:08:13Z</time>
      </trkpt>
      <trkpt lat="61.964863976463675" lon="7.254982022568584">
        <ele>592.78999999999996</ele>
        <time>2017-06-20T10:08:20Z</time>
      </trkpt>
      <trkpt lat="61.965046031400561" lon="7.255037007853389">
        <ele>594.23000000000002</ele>
        <time>2017-06-20T10:08:21Z</time>
      </trkpt>
      <trkpt lat="61.965232025831938" lon="7.255051005631685">
        <ele>595.19000000000005</ele>
        <time>2017-06-20T10:08:22Z</time>
      </trkpt>
      <trkpt lat="61.965420031920075" lon="7.255014041438699">
        <ele>596.63999999999999</ele>
        <time>2017-06-20T10:08:23Z</time>
      </trkpt>
      <trkpt lat="61.965600997209549" lon="7.254935000091791">
        <ele>598.08000000000004</ele>
        <time>2017-06-20T10:08:24Z</time>
      </trkpt>
      <trkpt lat="61.96577500551939" lon="7.254828969016671">
        <ele>599.51999999999998</ele>
        <time>2017-06-20T10:08:25Z</time>
      </trkpt>
      <trkpt lat="61.965940967202187" lon="7.254685973748565">
        <ele>600.96000000000004</ele>
        <time>2017-06-20T10:08:26Z</time>
      </trkpt>
      <trkpt lat="61.966099971905351" lon="7.254512971267104">
        <ele>602.39999999999998</ele>
        <time>2017-06-20T10:08:27Z</time>
      </trkpt>
      <trkpt lat="61.966251013800502" lon="7.254303004592657">
        <ele>603.85000000000002</ele>
        <time>2017-06-20T10:08:28Z</time>
      </trkpt>
      <trkpt lat="61.966388979926705" lon="7.254056995734572">
        <ele>605.76999999999998</ele>
        <time>2017-06-20T10:08:29Z</time>
      </trkpt>
      <trkpt lat="61.966522000730038" lon="7.253779973834753">
        <ele>607.69000000000005</ele>
        <time>2017-06-20T10:08:30Z</time>
      </trkpt>
      <trkpt lat="61.966640017926693" lon="7.253480991348624">
        <ele>608.64999999999998</ele>
        <time>2017-06-20T10:08:31Z</time>
      </trkpt>
      <trkpt lat="61.966744959354401" lon="7.253156024962664">
        <ele>609.61000000000001</ele>
        <time>2017-06-20T10:08:32Z</time>
      </trkpt>
      <trkpt lat="61.966840010136366" lon="7.252812031656504">
        <ele>611.05999999999995</ele>
        <time>2017-06-20T10:08:33Z</time>
      </trkpt>
      <trkpt lat="61.966920979321003" lon="7.252451023086906">
        <ele>612.5</ele>
        <time>2017-06-20T10:08:34Z</time>
      </trkpt>
      <trkpt lat="61.966989040374756" lon="7.252076016739011">
        <ele>613.94000000000005</ele>
        <time>2017-06-20T10:08:35Z</time>
      </trkpt>
      <trkpt lat="61.967043019831181" lon="7.2516880184412">
        <ele>615.38</ele>
        <time>2017-06-20T10:08:36Z</time>
      </trkpt>
      <trkpt lat="61.967669986188412" lon="7.249177973717451">
        <ele>626.44000000000005</ele>
        <time>2017-06-20T10:08:43Z</time>
      </trkpt>
      <trkpt lat="61.968830963596702" lon="7.24738902412355">
        <ele>639.88999999999999</ele>
        <time>2017-06-20T10:08:50Z</time>
      </trkpt>
      <trkpt lat="61.970421010628343" lon="7.246307004243136">
        <ele>653.35000000000002</ele>
        <time>2017-06-20T10:08:58Z</time>
      </trkpt>
      <trkpt lat="61.986457016319036" lon="7.307505961507559">
        <ele>844.65999999999997</ele>
        <time>2017-06-20T10:12:05Z</time>
      </trkpt>
      <trkpt lat="61.987510034814477" lon="7.309648040682077">
        <ele>854.75</ele>
        <time>2017-06-20T10:12:13Z</time>
      </trkpt>
      <trkpt lat="61.988543020561337" lon="7.310808012261987">
        <ele>862.44000000000005</ele>
        <time>2017-06-20T10:12:20Z</time>
      </trkpt>
      <trkpt lat="61.99024697765708" lon="7.31176296249032">
        <ele>876.38</ele>
        <time>2017-06-20T10:12:30Z</time>
      </trkpt>
      <trkpt lat="61.991984965279698" lon="7.3126429785043">
        <ele>886.95000000000005</ele>
        <time>2017-06-20T10:12:41Z</time>
      </trkpt>
      <trkpt lat="61.992333987727761" lon="7.312937015667558">
        <ele>886.47000000000003</ele>
        <time>2017-06-20T10:12:46Z</time>
      </trkpt>
      <trkpt lat="61.992341028526425" lon="7.312939027324319">
        <ele>884.07000000000005</ele>
        <time>2017-06-20T10:12:54Z</time>
      </trkpt>
      <trkpt lat="61.992328036576509" lon="7.312969034537673">
        <ele>884.07000000000005</ele>
        <time>2017-06-20T10:13:09Z</time>
      </trkpt>
      <trkpt lat="61.992333987727761" lon="7.312995018437505">
        <ele>884.54999999999995</ele>
        <time>2017-06-20T10:13:38Z</time>
      </trkpt>
      <trkpt lat="61.992358965799212" lon="7.313017984852195">
        <ele>885.02999999999997</ele>
        <time>2017-06-20T10:13:55Z</time>
      </trkpt>
      <trkpt lat="61.992356032133102" lon="7.31300700455904">
        <ele>885.02999999999997</ele>
        <time>2017-06-20T10:16:03Z</time>
      </trkpt>
      <trkpt lat="61.992370029911399" lon="7.312999041751027">
        <ele>885.02999999999997</ele>
        <time>2017-06-20T10:17:25Z</time>
      </trkpt>
      <trkpt lat="61.992400037124753" lon="7.313002981245518">
        <ele>885.50999999999999</ele>
        <time>2017-06-20T10:17:26Z</time>
      </trkpt>
      <trkpt lat="61.992495004087687" lon="7.31307003647089">
        <ele>885.99000000000001</ele>
        <time>2017-06-20T10:17:28Z</time>
      </trkpt>
      <trkpt lat="61.993191037327051" lon="7.313835974782705">
        <ele>889.36000000000001</ele>
        <time>2017-06-20T10:17:37Z</time>
      </trkpt>
      <trkpt lat="61.994097959250212" lon="7.315191999077797">
        <ele>893.20000000000005</ele>
        <time>2017-06-20T10:17:47Z</time>
      </trkpt>
      <trkpt lat="62.010946003720164" lon="7.392693003639579">
        <ele>930.21000000000004</ele>
        <time>2017-06-20T10:21:27Z</time>
      </trkpt>
      <trkpt lat="62.012363970279694" lon="7.394946981221438">
        <ele>937.89999999999998</ele>
        <time>2017-06-20T10:21:42Z</time>
      </trkpt>
      <trkpt lat="62.012986997142434" lon="7.396528981626034">
        <ele>940.78999999999996</ele>
        <time>2017-06-20T10:21:52Z</time>
      </trkpt>
      <trkpt lat="62.013103002682328" lon="7.397045977413654">
        <ele>942.23000000000002</ele>
        <time>2017-06-20T10:22:02Z</time>
      </trkpt>
      <trkpt lat="62.013103002682328" lon="7.397029967978597">
        <ele>940.78999999999996</ele>
        <time>2017-06-20T10:23:54Z</time>
      </trkpt>
      <trkpt lat="62.013099985197186" lon="7.397028962150216">
        <ele>940.78999999999996</ele>
        <time>2017-06-20T10:25:37Z</time>
      </trkpt>
      <trkpt lat="62.013098979368806" lon="7.397028962150216">
        <ele>940.78999999999996</ele>
        <time>2017-06-20T10:26:47Z</time>
      </trkpt>
      <trkpt lat="62.013245997950435" lon="7.397266002371907">
        <ele>940.30999999999995</ele>
        <time>2017-06-20T10:26:51Z</time>
      </trkpt>
      <trkpt lat="62.013304000720382" lon="7.397290980443358">
        <ele>940.30999999999995</ele>
        <time>2017-06-20T10:26:52Z</time>
      </trkpt>
      <trkpt lat="62.013374995440245" lon="7.39727002568543">
        <ele>940.78999999999996</ele>
        <time>2017-06-20T10:26:53Z</time>
      </trkpt>
      <trkpt lat="62.013444984331727" lon="7.397211017087102">
        <ele>940.78999999999996</ele>
        <time>2017-06-20T10:26:54Z</time>
      </trkpt>
      <trkpt lat="62.013522014021873" lon="7.397129964083433">
        <ele>940.78999999999996</ele>
        <time>2017-06-20T10:26:55Z</time>
      </trkpt>
      <trkpt lat="62.01360197737813" lon="7.397011024877429">
        <ele>941.26999999999998</ele>
        <time>2017-06-20T10:26:56Z</time>
      </trkpt>
      <trkpt lat="62.013684036210179" lon="7.396867023780942">
        <ele>941.75</ele>
        <time>2017-06-20T10:26:57Z</time>
      </trkpt>
      <trkpt lat="62.013766011223197" lon="7.396685974672437">
        <ele>942.71000000000004</ele>
        <time>2017-06-20T10:26:58Z</time>
      </trkpt>
      <trkpt lat="62.013843040913343" lon="7.396482964977622">
        <ele>943.19000000000005</ele>
        <time>2017-06-20T10:26:59Z</time>
      </trkpt>
      <trkpt lat="62.013917975127697" lon="7.39626201801002">
        <ele>944.14999999999998</ele>
        <time>2017-06-20T10:27:00Z</time>
      </trkpt>
      <trkpt lat="62.014054013416171" lon="7.395751979202032">
        <ele>946.55999999999995</ele>
        <time>2017-06-20T10:27:02Z</time>
      </trkpt>
      <trkpt lat="62.014112016186118" lon="7.3954669944942">
        <ele>947.51999999999998</ele>
        <time>2017-06-20T10:27:03Z</time>
      </trkpt>
      <trkpt lat="62.014162978157401" lon="7.395164994522929">
        <ele>948.96000000000004</ele>
        <time>2017-06-20T10:27:04Z</time>
      </trkpt>
      <trkpt lat="62.0142010319978" lon="7.394852014258504">
        <ele>949.91999999999996</ele>
        <time>2017-06-20T10:27:05Z</time>
      </trkpt>
      <trkpt lat="62.01422500424087" lon="7.394534004852176">
        <ele>950.39999999999998</ele>
        <time>2017-06-20T10:27:06Z</time>
      </trkpt>
      <trkpt lat="62.014232967048883" lon="7.394218007102609">
        <ele>951.36000000000001</ele>
        <time>2017-06-20T10:27:07Z</time>
      </trkpt>
      <trkpt lat="62.014231039211154" lon="7.393909972161055">
        <ele>951.84000000000003</ele>
        <time>2017-06-20T10:27:08Z</time>
      </trkpt>
      <trkpt lat="62.014222992584109" lon="7.393613001331687">
        <ele>951.84000000000003</ele>
        <time>2017-06-20T10:27:09Z</time>
      </trkpt>
      <trkpt lat="62.014202959835529" lon="7.393328016623855">
        <ele>952.32000000000005</ele>
        <time>2017-06-20T10:27:10Z</time>
      </trkpt>
      <trkpt lat="62.014173958450556" lon="7.393046971410513">
        <ele>951.84000000000003</ele>
        <time>2017-06-20T10:27:11Z</time>
      </trkpt>
      <trkpt lat="62.013702979311347" lon="7.390219001099467">
        <ele>950.88</ele>
        <time>2017-06-20T10:27:21Z</time>
      </trkpt>
      <trkpt lat="62.013325039297342" lon="7.386665996164084">
        <ele>948</ele>
        <time>2017-06-20T10:27:33Z</time>
      </trkpt>
      <trkpt lat="62.013388993218541" lon="7.384154023602605">
        <ele>948.96000000000004</ele>
        <time>2017-06-20T10:27:41Z</time>
      </trkpt>
      <trkpt lat="62.013357980176806" lon="7.383855041116476">
        <ele>948.96000000000004</ele>
        <time>2017-06-20T10:27:42Z</time>
      </trkpt>
      <trkpt lat="62.013317998498678" lon="7.383555974811316">
        <ele>949.44000000000005</ele>
        <time>2017-06-20T10:27:43Z</time>
      </trkpt>
      <trkpt lat="62.013182966038585" lon="7.382287038490176">
        <ele>950.88</ele>
        <time>2017-06-20T10:27:47Z</time>
      </trkpt>
      <trkpt lat="62.013179026544094" lon="7.381941033527255">
        <ele>951.36000000000001</ele>
        <time>2017-06-20T10:27:48Z</time>
      </trkpt>
      <trkpt lat="62.013189001008868" lon="7.381593016907573">
        <ele>951.84000000000003</ele>
        <time>2017-06-20T10:27:49Z</time>
      </trkpt>
      <trkpt lat="62.013234011828899" lon="7.378500010818243">
        <ele>954.25</ele>
        <time>2017-06-20T10:27:58Z</time>
      </trkpt>
      <trkpt lat="62.013373989611864" lon="7.375686038285494">
        <ele>958.09000000000003</ele>
        <time>2017-06-20T10:28:06Z</time>
      </trkpt>
      <trkpt lat="62.013413971289992" lon="7.375338021665812">
        <ele>958.57000000000005</ele>
        <time>2017-06-20T10:28:07Z</time>
      </trkpt>
      <trkpt lat="62.013875981792808" lon="7.371697006747127">
        <ele>964.34000000000003</ele>
        <time>2017-06-20T10:28:17Z</time>
      </trkpt>
      <trkpt lat="62.014327012002468" lon="7.368635013699532">
        <ele>967.22000000000003</ele>
        <time>2017-06-20T10:28:26Z</time>
      </trkpt>
      <trkpt lat="62.014936963096261" lon="7.365545025095344">
        <ele>971.54999999999995</ele>
        <time>2017-06-20T10:28:35Z</time>
      </trkpt>
      <trkpt lat="62.015553032979369" lon="7.362899025902152">
        <ele>975.38999999999999</ele>
        <time>2017-06-20T10:28:43Z</time>
      </trkpt>
      <trkpt lat="62.016269015148282" lon="7.35924300737679">
        <ele>980.20000000000005</ele>
        <time>2017-06-20T10:28:53Z</time>
      </trkpt>
      <trkpt lat="62.017090022563934" lon="7.354316040873528">
        <ele>988.37</ele>
        <time>2017-06-20T10:29:06Z</time>
      </trkpt>
      <trkpt lat="62.0175960380584" lon="7.351954020559788">
        <ele>992.22000000000003</ele>
        <time>2017-06-20T10:29:13Z</time>
      </trkpt>
      <trkpt lat="62.017695028334856" lon="7.351692002266645">
        <ele>992.70000000000005</ele>
        <time>2017-06-20T10:29:14Z</time>
      </trkpt>
      <trkpt lat="62.017800975590944" lon="7.351449010893703">
        <ele>993.17999999999995</ele>
        <time>2017-06-20T10:29:15Z</time>
      </trkpt>
      <trkpt lat="62.019023979082704" lon="7.349279019981623">
        <ele>997.99000000000001</ele>
        <time>2017-06-20T10:29:25Z</time>
      </trkpt>
      <trkpt lat="62.019930984824896" lon="7.348447032272816">
        <ele>1000.87</ele>
        <time>2017-06-20T10:29:31Z</time>
      </trkpt>
      <trkpt lat="62.020057970657945" lon="7.348226001486182">
        <ele>1001.35</ele>
        <time>2017-06-20T10:29:32Z</time>
      </trkpt>
      <trkpt lat="62.020179005339742" lon="7.347977980971336">
        <ele>1001.83</ele>
        <time>2017-06-20T10:29:33Z</time>
      </trkpt>
      <trkpt lat="62.021591020748019" lon="7.344685988500714">
        <ele>1006.64</ele>
        <time>2017-06-20T10:29:45Z</time>
      </trkpt>
      <trkpt lat="62.022749986499548" lon="7.342638038098812">
        <ele>1009.52</ele>
        <time>2017-06-20T10:29:54Z</time>
      </trkpt>
      <trkpt lat="62.024237019941211" lon="7.339992960914969">
        <ele>1011.4400000000001</ele>
        <time>2017-06-20T10:30:05Z</time>
      </trkpt>
      <trkpt lat="62.025358015671372" lon="7.337098019197583">
        <ele>1015.77</ele>
        <time>2017-06-20T10:30:14Z</time>
      </trkpt>
      <trkpt lat="62.026860974729061" lon="7.333243014290929">
        <ele>1024.9000000000001</ele>
        <time>2017-06-20T10:30:26Z</time>
      </trkpt>
      <trkpt lat="62.027507973834872" lon="7.331796968355775">
        <ele>1027.79</ele>
        <time>2017-06-20T10:30:32Z</time>
      </trkpt>
      <trkpt lat="62.027815002948046" lon="7.331109987571836">
        <ele>1028.27</ele>
        <time>2017-06-20T10:30:35Z</time>
      </trkpt>
      <trkpt lat="62.027891026809812" lon="7.330830032005906">
        <ele>1029.23</ele>
        <time>2017-06-20T10:30:36Z</time>
      </trkpt>
      <trkpt lat="62.027950035408139" lon="7.330537000671029">
        <ele>1029.23</ele>
        <time>2017-06-20T10:30:37Z</time>
      </trkpt>
      <trkpt lat="62.027994962409139" lon="7.330226032063365">
        <ele>1029.23</ele>
        <time>2017-06-20T10:30:38Z</time>
      </trkpt>
      <trkpt lat="62.028026981279254" lon="7.329898970201612">
        <ele>1029.23</ele>
        <time>2017-06-20T10:30:39Z</time>
      </trkpt>
      <trkpt lat="62.028049025684595" lon="7.3295490257442">
        <ele>1029.71</ele>
        <time>2017-06-20T10:30:40Z</time>
      </trkpt>
      <trkpt lat="62.028051959350705" lon="7.329190028831363">
        <ele>1030.1900000000001</ele>
        <time>2017-06-20T10:30:41Z</time>
      </trkpt>
      <trkpt lat="62.028035027906299" lon="7.328831031918526">
        <ele>1030.6700000000001</ele>
        <time>2017-06-20T10:30:42Z</time>
      </trkpt>
      <trkpt lat="62.028005020692945" lon="7.328464994207025">
        <ele>1030.1900000000001</ele>
        <time>2017-06-20T10:30:43Z</time>
      </trkpt>
      <trkpt lat="62.027698997408152" lon="7.325821006670594">
        <ele>1030.1900000000001</ele>
        <time>2017-06-20T10:30:51Z</time>
      </trkpt>
      <trkpt lat="62.027635965496302" lon="7.325601987540722">
        <ele>1030.1900000000001</ele>
        <time>2017-06-20T10:30:52Z</time>
      </trkpt>
      <trkpt lat="62.027561031281948" lon="7.325394032523036">
        <ele>1030.6700000000001</ele>
        <time>2017-06-20T10:30:53Z</time>
      </trkpt>
      <trkpt lat="62.027208991348743" lon="7.324317041784525">
        <ele>1032.5899999999999</ele>
        <time>2017-06-20T10:30:59Z</time>
      </trkpt>
      <trkpt lat="62.027190970256925" lon="7.324147978797555">
        <ele>1033.0699999999999</ele>
        <time>2017-06-20T10:31:00Z</time>
      </trkpt>
      <trkpt lat="62.027187030762434" lon="7.323970030993223">
        <ele>1033.0699999999999</ele>
        <time>2017-06-20T10:31:01Z</time>
      </trkpt>
      <trkpt lat="62.027202034369111" lon="7.323799040168524">
        <ele>1033.55</ele>
        <time>2017-06-20T10:31:02Z</time>
      </trkpt>
      <trkpt lat="62.027232963591814" lon="7.323623020201922">
        <ele>1033.55</ele>
        <time>2017-06-20T10:31:03Z</time>
      </trkpt>
      <trkpt lat="62.027271017432213" lon="7.32344901189208">
        <ele>1034.04</ele>
        <time>2017-06-20T10:31:04Z</time>
      </trkpt>
      <trkpt lat="62.027318039909005" lon="7.323273997753859">
        <ele>1034.52</ele>
        <time>2017-06-20T10:31:05Z</time>
      </trkpt>
      <trkpt lat="62.0275669824332" lon="7.32254502363503">
        <ele>1036.4400000000001</ele>
        <time>2017-06-20T10:31:09Z</time>
      </trkpt>
      <trkpt lat="62.027648035436869" lon="7.322408985346556">
        <ele>1036.4400000000001</ele>
        <time>2017-06-20T10:31:10Z</time>
      </trkpt>
      <trkpt lat="62.027732022106647" lon="7.322289040312171">
        <ele>1036.9200000000001</ele>
        <time>2017-06-20T10:31:11Z</time>
      </trkpt>
      <trkpt lat="62.027822965756059" lon="7.322188960388303">
        <ele>1036.4400000000001</ele>
        <time>2017-06-20T10:31:12Z</time>
      </trkpt>
      <trkpt lat="62.027921034023166" lon="7.322114026173949">
        <ele>1036.4400000000001</ele>
        <time>2017-06-20T10:31:13Z</time>
      </trkpt>
      <trkpt lat="62.028027987107635" lon="7.322055017575622">
        <ele>1036.4400000000001</ele>
        <time>2017-06-20T10:31:14Z</time>
      </trkpt>
      <trkpt lat="62.028139969334006" lon="7.322003971785307">
        <ele>1036.4400000000001</ele>
        <time>2017-06-20T10:31:15Z</time>
      </trkpt>
      <trkpt lat="62.028257986530662" lon="7.321962984278798">
        <ele>1036.4400000000001</ele>
        <time>2017-06-20T10:31:16Z</time>
      </trkpt>
      <trkpt lat="62.02907002530992" lon="7.321621002629399">
        <ele>1036.4400000000001</ele>
        <time>2017-06-20T10:31:23Z</time>
      </trkpt>
      <trkpt lat="62.029153006151319" lon="7.321518994867802">
        <ele>1036.4400000000001</ele>
        <time>2017-06-20T10:31:24Z</time>
      </trkpt>
      <trkpt lat="62.029489958658814" lon="7.321056984364986">
        <ele>1038.3599999999999</ele>
        <time>2017-06-20T10:31:31Z</time>
      </trkpt>
      <trkpt lat="62.029548967257142" lon="7.320935027673841">
        <ele>1039.8</ele>
        <time>2017-06-20T10:31:40Z</time>
      </trkpt>
      <trkpt lat="62.029547961428761" lon="7.320939972996712">
        <ele>1040.28</ele>
        <time>2017-06-20T10:33:54Z</time>
      </trkpt>
      <trkpt lat="62.029548967257142" lon="7.320949025452137">
        <ele>1040.76</ele>
        <time>2017-06-20T10:35:09Z</time>
      </trkpt>
      <trkpt lat="62.029617028310895" lon="7.320920024067164">
        <ele>1041.73</ele>
        <time>2017-06-20T10:35:12Z</time>
      </trkpt>
      <trkpt lat="62.03018800355494" lon="7.320432029664516">
        <ele>1044.1300000000001</ele>
        <time>2017-06-20T10:35:19Z</time>
      </trkpt>
      <trkpt lat="62.03115301206708" lon="7.318856986239553">
        <ele>1047.49</ele>
        <time>2017-06-20T10:35:28Z</time>
      </trkpt>
      <trkpt lat="62.031792970374227" lon="7.317681005224586">
        <ele>1048.45</ele>
        <time>2017-06-20T10:35:34Z</time>
      </trkpt>
      <trkpt lat="62.031865976750851" lon="7.317486964166164">
        <ele>1048.9400000000001</ele>
        <time>2017-06-20T10:35:35Z</time>
      </trkpt>
      <trkpt lat="62.031923979520798" lon="7.317279009148479">
        <ele>1048.9400000000001</ele>
        <time>2017-06-20T10:35:36Z</time>
      </trkpt>
      <trkpt lat="62.031961027532816" lon="7.317054960876703">
        <ele>1048.45</ele>
        <time>2017-06-20T10:35:37Z</time>
      </trkpt>
      <trkpt lat="62.031975025311112" lon="7.316815992817283">
        <ele>1048.45</ele>
        <time>2017-06-20T10:35:38Z</time>
      </trkpt>
      <trkpt lat="62.031966978684068" lon="7.316567972302437">
        <ele>1047.97</ele>
        <time>2017-06-20T10:35:39Z</time>
      </trkpt>
      <trkpt lat="62.031935965642333" lon="7.316323975101113">
        <ele>1047.97</ele>
        <time>2017-06-20T10:35:40Z</time>
      </trkpt>
      <trkpt lat="62.031891038641334" lon="7.31608098372817">
        <ele>1047.97</ele>
        <time>2017-06-20T10:35:41Z</time>
      </trkpt>
      <trkpt lat="62.031663972884417" lon="7.314779022708535">
        <ele>1046.05</ele>
        <time>2017-06-20T10:35:46Z</time>
      </trkpt>
      <trkpt lat="62.031643018126488" lon="7.314515998587012">
        <ele>1046.05</ele>
        <time>2017-06-20T10:35:47Z</time>
      </trkpt>
      <trkpt lat="62.031642012298107" lon="7.314250040799379">
        <ele>1046.05</ele>
        <time>2017-06-20T10:35:48Z</time>
      </trkpt>
      <trkpt lat="62.031748965382576" lon="7.311912998557091">
        <ele>1044.1300000000001</ele>
        <time>2017-06-20T10:35:56Z</time>
      </trkpt>
      <trkpt lat="62.031741002574563" lon="7.311644023284316">
        <ele>1044.1300000000001</ele>
        <time>2017-06-20T10:35:57Z</time>
      </trkpt>
      <trkpt lat="62.031718036159873" lon="7.31137597002089">
        <ele>1044.1300000000001</ele>
        <time>2017-06-20T10:35:58Z</time>
      </trkpt>
      <trkpt lat="62.03162700869143" lon="7.310396963730454">
        <ele>1043.6500000000001</ele>
        <time>2017-06-20T10:36:02Z</time>
      </trkpt>
      <trkpt lat="62.031628014519811" lon="7.310147015377879">
        <ele>1043.1700000000001</ele>
        <time>2017-06-20T10:36:03Z</time>
      </trkpt>
      <trkpt lat="62.03164704144001" lon="7.309900000691414">
        <ele>1042.6900000000001</ele>
        <time>2017-06-20T10:36:04Z</time>
      </trkpt>
      <trkpt lat="62.031685011461377" lon="7.309664972126484">
        <ele>1041.73</ele>
        <time>2017-06-20T10:36:05Z</time>
      </trkpt>
      <trkpt lat="62.031741002574563" lon="7.309432961046696">
        <ele>1041.25</ele>
        <time>2017-06-20T10:36:06Z</time>
      </trkpt>
      <trkpt lat="62.031808979809284" lon="7.30920597910881">
        <ele>1040.28</ele>
        <time>2017-06-20T10:36:07Z</time>
      </trkpt>
      <trkpt lat="62.032262021675706" lon="7.306872038170695">
        <ele>1039.3199999999999</ele>
        <time>2017-06-20T10:36:15Z</time>
      </trkpt>
      <trkpt lat="62.032511970028281" lon="7.30284403078258">
        <ele>1035.48</ele>
        <time>2017-06-20T10:36:26Z</time>
      </trkpt>
      <trkpt lat="62.033037012442946" lon="7.299049962311983">
        <ele>1035.96</ele>
        <time>2017-06-20T10:36:37Z</time>
      </trkpt>
      <trkpt lat="62.033051010221243" lon="7.298746034502983">
        <ele>1035.96</ele>
        <time>2017-06-20T10:36:38Z</time>
      </trkpt>
      <trkpt lat="62.03304598107934" lon="7.298442022874951">
        <ele>1035.96</ele>
        <time>2017-06-20T10:36:39Z</time>
      </trkpt>
      <trkpt lat="62.033014968037605" lon="7.298128958791494">
        <ele>1035.96</ele>
        <time>2017-06-20T10:36:40Z</time>
      </trkpt>
      <trkpt lat="62.032961994409561" lon="7.297801980748773">
        <ele>1035.48</ele>
        <time>2017-06-20T10:36:41Z</time>
      </trkpt>
      <trkpt lat="62.032898962497711" lon="7.297483971342444">
        <ele>1035.48</ele>
        <time>2017-06-20T10:36:42Z</time>
      </trkpt>
      <trkpt lat="62.032289011403918" lon="7.294129030779004">
        <ele>1035</ele>
        <time>2017-06-20T10:36:52Z</time>
      </trkpt>
      <trkpt lat="62.031986005604267" lon="7.291484959423542">
        <ele>1036.4400000000001</ele>
        <time>2017-06-20T10:37:00Z</time>
      </trkpt>
      <trkpt lat="62.03173303976655" lon="7.288721026852727">
        <ele>1036.4400000000001</ele>
        <time>2017-06-20T10:37:09Z</time>
      </trkpt>
      <trkpt lat="62.031675036996603" lon="7.288511982187629">
        <ele>1036.4400000000001</ele>
        <time>2017-06-20T10:37:10Z</time>
      </trkpt>
      <trkpt lat="62.031600018963218" lon="7.288348032161593">
        <ele>1036.4400000000001</ele>
        <time>2017-06-20T10:37:11Z</time>
      </trkpt>
      <trkpt lat="62.03151997178793" lon="7.288202019408345">
        <ele>1036.4400000000001</ele>
        <time>2017-06-20T10:37:12Z</time>
      </trkpt>
      <trkpt lat="62.031445959582925" lon="7.288078973069787">
        <ele>1036.4400000000001</ele>
        <time>2017-06-20T10:37:13Z</time>
      </trkpt>
      <trkpt lat="62.031331965699792" lon="7.287812009453774">
        <ele>1036.4400000000001</ele>
        <time>2017-06-20T10:37:15Z</time>
      </trkpt>
      <trkpt lat="62.031298018991947" lon="7.287671025842428">
        <ele>1036.4400000000001</ele>
        <time>2017-06-20T10:37:16Z</time>
      </trkpt>
      <trkpt lat="62.031274968758225" lon="7.287524007260799">
        <ele>1036.4400000000001</ele>
        <time>2017-06-20T10:37:17Z</time>
      </trkpt>
      <trkpt lat="62.031260970979929" lon="7.287371959537268">
        <ele>1036.4400000000001</ele>
        <time>2017-06-20T10:37:18Z</time>
      </trkpt>
      <trkpt lat="62.03126197680831" lon="7.28720398619771">
        <ele>1036.4400000000001</ele>
        <time>2017-06-20T10:37:19Z</time>
      </trkpt>
      <trkpt lat="62.031275974586606" lon="7.287028972059488">
        <ele>1036.4400000000001</ele>
        <time>2017-06-20T10:37:20Z</time>
      </trkpt>
      <trkpt lat="62.031298018991947" lon="7.286839038133621">
        <ele>1036.4400000000001</ele>
        <time>2017-06-20T10:37:21Z</time>
      </trkpt>
      <trkpt lat="62.031324002891779" lon="7.286630999296904">
        <ele>1036.4400000000001</ele>
        <time>2017-06-20T10:37:22Z</time>
      </trkpt>
      <trkpt lat="62.031361972913146" lon="7.28619497269392">
        <ele>1036.4400000000001</ele>
        <time>2017-06-20T10:37:24Z</time>
      </trkpt>
      <trkpt lat="62.031359961256385" lon="7.285963967442513">
        <ele>1035.48</ele>
        <time>2017-06-20T10:37:25Z</time>
      </trkpt>
      <trkpt lat="62.031336994841695" lon="7.285731034353375">
        <ele>1035.96</ele>
        <time>2017-06-20T10:37:26Z</time>
      </trkpt>
      <trkpt lat="62.031291984021664" lon="7.2855069860816">
        <ele>1036.9200000000001</ele>
        <time>2017-06-20T10:37:27Z</time>
      </trkpt>
      <trkpt lat="62.031244039535522" lon="7.28529098443687">
        <ele>1036.9200000000001</ele>
        <time>2017-06-20T10:37:28Z</time>
      </trkpt>
      <trkpt lat="62.031040024012327" lon="7.284288005903363">
        <ele>1037.8800000000001</ele>
        <time>2017-06-20T10:37:33Z</time>
      </trkpt>
      <trkpt lat="62.031022002920508" lon="7.284089019522071">
        <ele>1037.8800000000001</ele>
        <time>2017-06-20T10:37:34Z</time>
      </trkpt>
      <trkpt lat="62.031014040112495" lon="7.283887015655637">
        <ele>1037.8800000000001</ele>
        <time>2017-06-20T10:37:35Z</time>
      </trkpt>
      <trkpt lat="62.030998030677438" lon="7.283204980194569">
        <ele>1037.4000000000001</ele>
        <time>2017-06-20T10:37:38Z</time>
      </trkpt>
      <trkpt lat="62.030975986272097" lon="7.282971041277051">
        <ele>1037.4000000000001</ele>
        <time>2017-06-20T10:37:39Z</time>
      </trkpt>
      <trkpt lat="62.030910020694137" lon="7.282296968623996">
        <ele>1037.4000000000001</ele>
        <time>2017-06-20T10:37:42Z</time>
      </trkpt>
      <trkpt lat="62.030899040400982" lon="7.282062023878098">
        <ele>1037.8800000000001</ele>
        <time>2017-06-20T10:37:43Z</time>
      </trkpt>
      <trkpt lat="62.030898034572601" lon="7.281829006969929">
        <ele>1037.8800000000001</ele>
        <time>2017-06-20T10:37:44Z</time>
      </trkpt>
      <trkpt lat="62.031125016510487" lon="7.279357016086578">
        <ele>1039.3199999999999</ele>
        <time>2017-06-20T10:37:55Z</time>
      </trkpt>
      <trkpt lat="62.031269017606974" lon="7.277922034263611">
        <ele>1036.9200000000001</ele>
        <time>2017-06-20T10:38:03Z</time>
      </trkpt>
      <trkpt lat="62.031264994293451" lon="7.277755988761783">
        <ele>1036.9200000000001</ele>
        <time>2017-06-20T10:38:04Z</time>
      </trkpt>
      <trkpt lat="62.031244961544871" lon="7.277217032387853">
        <ele>1037.4000000000001</ele>
        <time>2017-06-20T10:38:07Z</time>
      </trkpt>
      <trkpt lat="62.031256025657058" lon="7.276687966659665">
        <ele>1039.8</ele>
        <time>2017-06-20T10:38:10Z</time>
      </trkpt>
      <trkpt lat="62.031247979030013" lon="7.276528039947152">
        <ele>1039.3199999999999</ele>
        <time>2017-06-20T10:38:11Z</time>
      </trkpt>
      <trkpt lat="62.03121897764504" lon="7.276403987780213">
        <ele>1038.8399999999999</ele>
        <time>2017-06-20T10:38:12Z</time>
      </trkpt>
      <trkpt lat="62.031173966825008" lon="7.276321006938815">
        <ele>1038.3599999999999</ele>
        <time>2017-06-20T10:38:13Z</time>
      </trkpt>
      <trkpt lat="62.031125016510487" lon="7.276270966976881">
        <ele>1038.8399999999999</ele>
        <time>2017-06-20T10:38:14Z</time>
      </trkpt>
      <trkpt lat="62.031078999862075" lon="7.276225034147501">
        <ele>1039.8</ele>
        <time>2017-06-20T10:38:15Z</time>
      </trkpt>
      <trkpt lat="62.031034994870424" lon="7.276145992800593">
        <ele>1040.28</ele>
        <time>2017-06-20T10:38:16Z</time>
      </trkpt>
      <trkpt lat="62.030999036505818" lon="7.276039039716125">
        <ele>1041.25</ele>
        <time>2017-06-20T10:38:17Z</time>
      </trkpt>
      <trkpt lat="62.030970035120845" lon="7.275904007256031">
        <ele>1042.21</ele>
        <time>2017-06-20T10:38:18Z</time>
      </trkpt>
      <trkpt lat="62.030948996543884" lon="7.275756988674402">
        <ele>1042.6900000000001</ele>
        <time>2017-06-20T10:38:19Z</time>
      </trkpt>
      <trkpt lat="62.030931981280446" lon="7.275604018941522">
        <ele>1043.1700000000001</ele>
        <time>2017-06-20T10:38:20Z</time>
      </trkpt>
      <trkpt lat="62.030919995158911" lon="7.275466974824667">
        <ele>1044.1300000000001</ele>
        <time>2017-06-20T10:38:21Z</time>
      </trkpt>
      <trkpt lat="62.030916977673769" lon="7.275349963456392">
        <ele>1045.0899999999999</ele>
        <time>2017-06-20T10:38:22Z</time>
      </trkpt>
      <trkpt lat="62.030925024300814" lon="7.275264970958233">
        <ele>1045.5699999999999</ele>
        <time>2017-06-20T10:38:23Z</time>
      </trkpt>
      <trkpt lat="62.030942039564252" lon="7.275211997330189">
        <ele>1046.53</ele>
        <time>2017-06-20T10:38:24Z</time>
      </trkpt>
      <trkpt lat="62.0309619884938" lon="7.275172015652061">
        <ele>1047.49</ele>
        <time>2017-06-20T10:38:25Z</time>
      </trkpt>
      <trkpt lat="62.030985038727522" lon="7.275137985125184">
        <ele>1047.49</ele>
        <time>2017-06-20T10:38:26Z</time>
      </trkpt>
      <trkpt lat="62.031002976000309" lon="7.275106972083449">
        <ele>1047.49</ele>
        <time>2017-06-20T10:38:27Z</time>
      </trkpt>
      <trkpt lat="62.031086962670088" lon="7.275072019547224">
        <ele>1048.45</ele>
        <time>2017-06-20T10:38:35Z</time>
      </trkpt>
      <trkpt lat="62.031206991523504" lon="7.275004964321852">
        <ele>1048.9400000000001</ele>
        <time>2017-06-20T10:38:50Z</time>
      </trkpt>
      <trkpt lat="62.031207997351885" lon="7.274976968765259">
        <ele>1047.97</ele>
        <time>2017-06-20T10:40:18Z</time>
      </trkpt>
      <trkpt lat="62.031232975423336" lon="7.274947967380285">
        <ele>1048.45</ele>
        <time>2017-06-20T10:41:07Z</time>
      </trkpt>
      <trkpt lat="62.031228030100465" lon="7.274929024279118">
        <ele>1047.97</ele>
        <time>2017-06-20T10:42:05Z</time>
      </trkpt>
      <trkpt lat="62.031215960159898" lon="7.274844031780958">
        <ele>1046.53</ele>
        <time>2017-06-20T10:42:55Z</time>
      </trkpt>
      <trkpt lat="62.031201040372252" lon="7.274811007082462">
        <ele>1044.1300000000001</ele>
        <time>2017-06-20T10:43:45Z</time>
      </trkpt>
      <trkpt lat="62.031359961256385" lon="7.274663988500834">
        <ele>1044.6099999999999</ele>
        <time>2017-06-20T10:43:57Z</time>
      </trkpt>
      <trkpt lat="62.031521983444691" lon="7.27435695938766">
        <ele>1045.0899999999999</ele>
        <time>2017-06-20T10:44:00Z</time>
      </trkpt>
      <trkpt lat="62.03158300369978" lon="7.274293005466461">
        <ele>1045.5699999999999</ele>
        <time>2017-06-20T10:44:01Z</time>
      </trkpt>
      <trkpt lat="62.03164896927774" lon="7.274284958839417">
        <ele>1046.05</ele>
        <time>2017-06-20T10:44:02Z</time>
      </trkpt>
      <trkpt lat="62.031715018674731" lon="7.274342039600015">
        <ele>1046.53</ele>
        <time>2017-06-20T10:44:03Z</time>
      </trkpt>
      <trkpt lat="62.03177897259593" lon="7.274453015998006">
        <ele>1048.9400000000001</ele>
        <time>2017-06-20T10:44:04Z</time>
      </trkpt>
      <trkpt lat="62.031825995072722" lon="7.274615960195661">
        <ele>1049.9000000000001</ele>
        <time>2017-06-20T10:44:05Z</time>
      </trkpt>
      <trkpt lat="62.031858013942838" lon="7.274816036224365">
        <ele>1051.8199999999999</ele>
        <time>2017-06-20T10:44:06Z</time>
      </trkpt>
      <trkpt lat="62.031883997842669" lon="7.275047041475773">
        <ele>1053.74</ele>
        <time>2017-06-20T10:44:07Z</time>
      </trkpt>
      <trkpt lat="62.031902018934488" lon="7.275302018970251">
        <ele>1055.1800000000001</ele>
        <time>2017-06-20T10:44:08Z</time>
      </trkpt>
      <trkpt lat="62.031908975914121" lon="7.275583986192942">
        <ele>1056.1500000000001</ele>
        <time>2017-06-20T10:44:09Z</time>
      </trkpt>
      <trkpt lat="62.03190696425736" lon="7.275871988385916">
        <ele>1057.1099999999999</ele>
        <time>2017-06-20T10:44:10Z</time>
      </trkpt>
      <trkpt lat="62.031902018934488" lon="7.276162002235651">
        <ele>1059.03</ele>
        <time>2017-06-20T10:44:11Z</time>
      </trkpt>
      <trkpt lat="62.031940994784236" lon="7.279487019404769">
        <ele>1074.4100000000001</ele>
        <time>2017-06-20T10:44:21Z</time>
      </trkpt>
      <trkpt lat="62.031938983127475" lon="7.281470010057092">
        <ele>1083.54</ele>
        <time>2017-06-20T10:44:27Z</time>
      </trkpt>
      <trkpt lat="62.031964967027307" lon="7.281750971451402">
        <ele>1084.5</ele>
        <time>2017-06-20T10:44:28Z</time>
      </trkpt>
      <trkpt lat="62.032006960362196" lon="7.282024975866079">
        <ele>1086.4300000000001</ele>
        <time>2017-06-20T10:44:29Z</time>
      </trkpt>
      <trkpt lat="62.032060017809272" lon="7.282292023301125">
        <ele>1087.3900000000001</ele>
        <time>2017-06-20T10:44:30Z</time>
      </trkpt>
      <trkpt lat="62.032121038064361" lon="7.282542977482081">
        <ele>1088.3499999999999</ele>
        <time>2017-06-20T10:44:31Z</time>
      </trkpt>
      <trkpt lat="62.032193038612604" lon="7.282790997996926">
        <ele>1089.79</ele>
        <time>2017-06-20T10:44:32Z</time>
      </trkpt>
      <trkpt lat="62.032277025282383" lon="7.283028960227966">
        <ele>1091.23</ele>
        <time>2017-06-20T10:44:33Z</time>
      </trkpt>
      <trkpt lat="62.032374003902078" lon="7.28325099684298">
        <ele>1092.6800000000001</ele>
        <time>2017-06-20T10:44:34Z</time>
      </trkpt>
      <trkpt lat="62.032475005835295" lon="7.283456018194556">
        <ele>1094.1199999999999</ele>
        <time>2017-06-20T10:44:35Z</time>
      </trkpt>
      <trkpt lat="62.032671980559826" lon="7.283848039805889">
        <ele>1097</ele>
        <time>2017-06-20T10:44:37Z</time>
      </trkpt>
      <trkpt lat="62.032755967229605" lon="7.284064963459969">
        <ele>1098.4400000000001</ele>
        <time>2017-06-20T10:44:38Z</time>
      </trkpt>
      <trkpt lat="62.032826961949468" lon="7.284309966489673">
        <ele>1100.3699999999999</ele>
        <time>2017-06-20T10:44:39Z</time>
      </trkpt>
      <trkpt lat="62.032886976376176" lon="7.284575002267957">
        <ele>1101.8099999999999</ele>
        <time>2017-06-20T10:44:40Z</time>
      </trkpt>
      <trkpt lat="62.032941039651632" lon="7.284850012511015">
        <ele>1103.25</ele>
        <time>2017-06-20T10:44:41Z</time>
      </trkpt>
      <trkpt lat="62.033154023811221" lon="7.285867994651198">
        <ele>1108.0599999999999</ele>
        <time>2017-06-20T10:44:45Z</time>
      </trkpt>
      <trkpt lat="62.033230969682336" lon="7.286073016002774">
        <ele>1109.5</ele>
        <time>2017-06-20T10:44:46Z</time>
      </trkpt>
      <trkpt lat="62.033321997150779" lon="7.286272002384067">
        <ele>1110.9400000000001</ele>
        <time>2017-06-20T10:44:47Z</time>
      </trkpt>
      <trkpt lat="62.034509964287281" lon="7.288652965798974">
        <ele>1129.21</ele>
        <time>2017-06-20T10:44:58Z</time>
      </trkpt>
      <trkpt lat="62.034815987572074" lon="7.28941798210144">
        <ele>1134.49</ele>
        <time>2017-06-20T10:45:01Z</time>
      </trkpt>
      <trkpt lat="62.034897962585092" lon="7.289692992344499">
        <ele>1136.4200000000001</ele>
        <time>2017-06-20T10:45:02Z</time>
      </trkpt>
      <trkpt lat="62.035788958892226" lon="7.292357012629509">
        <ele>1152.28</ele>
        <time>2017-06-20T10:45:12Z</time>
      </trkpt>
      <trkpt lat="62.035854002460837" lon="7.292627999559045">
        <ele>1153.72</ele>
        <time>2017-06-20T10:45:13Z</time>
      </trkpt>
      <trkpt lat="62.035903036594391" lon="7.292904015630484">
        <ele>1155.1600000000001</ele>
        <time>2017-06-20T10:45:14Z</time>
      </trkpt>
      <trkpt lat="62.035935977473855" lon="7.293156981468201">
        <ele>1155.6400000000001</ele>
        <time>2017-06-20T10:45:15Z</time>
      </trkpt>
      <trkpt lat="62.035955004394054" lon="7.293354962021112">
        <ele>1156.5999999999999</ele>
        <time>2017-06-20T10:45:16Z</time>
      </trkpt>
      <trkpt lat="62.035969002172351" lon="7.293480020016432">
        <ele>1157.0799999999999</ele>
        <time>2017-06-20T10:45:17Z</time>
      </trkpt>
      <trkpt lat="62.035984005779028" lon="7.293556965887547">
        <ele>1157.5599999999999</ele>
        <time>2017-06-20T10:45:18Z</time>
      </trkpt>
      <trkpt lat="62.036003032699227" lon="7.293596025556326">
        <ele>1157.5599999999999</ele>
        <time>2017-06-20T10:45:19Z</time>
      </trkpt>
      <trkpt lat="62.036058017984033" lon="7.293639024719596">
        <ele>1159.49</ele>
        <time>2017-06-20T10:45:28Z</time>
      </trkpt>
      <trkpt lat="62.036087019369006" lon="7.293600970879197">
        <ele>1159.49</ele>
        <time>2017-06-20T10:45:29Z</time>
      </trkpt>
      <trkpt lat="62.036114009097219" lon="7.293501980602741">
        <ele>1159.97</ele>
        <time>2017-06-20T10:45:30Z</time>
      </trkpt>
      <trkpt lat="62.036120966076851" lon="7.293331995606422">
        <ele>1160.9300000000001</ele>
        <time>2017-06-20T10:45:31Z</time>
      </trkpt>
      <trkpt lat="62.036127001047134" lon="7.293135020881891">
        <ele>1161.4100000000001</ele>
        <time>2017-06-20T10:45:32Z</time>
      </trkpt>
      <trkpt lat="62.036134963855147" lon="7.291654022410512">
        <ele>1170.54</ele>
        <time>2017-06-20T10:45:38Z</time>
      </trkpt>
      <trkpt lat="62.036102022975683" lon="7.291398961097002">
        <ele>1171.98</ele>
        <time>2017-06-20T10:45:39Z</time>
      </trkpt>
      <trkpt lat="62.036055000498891" lon="7.291144989430904">
        <ele>1173.4300000000001</ele>
        <time>2017-06-20T10:45:40Z</time>
      </trkpt>
      <trkpt lat="62.035905970260501" lon="7.290381984785199">
        <ele>1177.75</ele>
        <time>2017-06-20T10:45:43Z</time>
      </trkpt>
      <trkpt lat="62.035875041037798" lon="7.290099011734128">
        <ele>1179.1900000000001</ele>
        <time>2017-06-20T10:45:44Z</time>
      </trkpt>
      <trkpt lat="62.035674965009093" lon="7.288264967501164">
        <ele>1189.77</ele>
        <time>2017-06-20T10:45:51Z</time>
      </trkpt>
      <trkpt lat="62.035658033564687" lon="7.288119038566947">
        <ele>1191.21</ele>
        <time>2017-06-20T10:45:52Z</time>
      </trkpt>
      <trkpt lat="62.035662978887558" lon="7.287989035248756">
        <ele>1192.1700000000001</ele>
        <time>2017-06-20T10:45:53Z</time>
      </trkpt>
      <trkpt lat="62.035698015242815" lon="7.28788903914392">
        <ele>1192.6500000000001</ele>
        <time>2017-06-20T10:45:54Z</time>
      </trkpt>
      <trkpt lat="62.035755012184381" lon="7.287846961989999">
        <ele>1193.6099999999999</ele>
        <time>2017-06-20T10:45:55Z</time>
      </trkpt>
      <trkpt lat="62.035825001075864" lon="7.287868000566959">
        <ele>1194.5799999999999</ele>
        <time>2017-06-20T10:45:56Z</time>
      </trkpt>
      <trkpt lat="62.035895995795727" lon="7.287949975579977">
        <ele>1195.54</ele>
        <time>2017-06-20T10:45:57Z</time>
      </trkpt>
      <trkpt lat="62.035958021879196" lon="7.288075033575296">
        <ele>1196.98</ele>
        <time>2017-06-20T10:45:58Z</time>
      </trkpt>
      <trkpt lat="62.036015018820763" lon="7.2882129997015">
        <ele>1197.9400000000001</ele>
        <time>2017-06-20T10:45:59Z</time>
      </trkpt>
      <trkpt lat="62.03607402741909" lon="7.288315007463098">
        <ele>1198.4200000000001</ele>
        <time>2017-06-20T10:46:00Z</time>
      </trkpt>
      <trkpt lat="62.036136975511909" lon="7.288368986919522">
        <ele>1198.9000000000001</ele>
        <time>2017-06-20T10:46:01Z</time>
      </trkpt>
      <trkpt lat="62.036195984110236" lon="7.288349959999323">
        <ele>1199.8599999999999</ele>
        <time>2017-06-20T10:46:02Z</time>
      </trkpt>
      <trkpt lat="62.036242000758648" lon="7.288288017734885">
        <ele>1200.8199999999999</ele>
        <time>2017-06-20T10:46:03Z</time>
      </trkpt>
      <trkpt lat="62.036266978830099" lon="7.288166983053088">
        <ele>1201.3</ele>
        <time>2017-06-20T10:46:04Z</time>
      </trkpt>
      <trkpt lat="62.036266978830099" lon="7.288007978349924">
        <ele>1201.79</ele>
        <time>2017-06-20T10:46:05Z</time>
      </trkpt>
      <trkpt lat="62.036240994930267" lon="7.287829024717212">
        <ele>1202.75</ele>
        <time>2017-06-20T10:46:06Z</time>
      </trkpt>
      <trkpt lat="62.03620595857501" lon="7.287644958123565">
        <ele>1203.71</ele>
        <time>2017-06-20T10:46:07Z</time>
      </trkpt>
      <trkpt lat="62.036165976896882" lon="7.287452006712556">
        <ele>1204.6700000000001</ele>
        <time>2017-06-20T10:46:08Z</time>
      </trkpt>
      <trkpt lat="62.03599096275866" lon="7.286826968193054">
        <ele>1208.51</ele>
        <time>2017-06-20T10:46:11Z</time>
      </trkpt>
      <trkpt lat="62.035908987745643" lon="7.286623036488891">
        <ele>1209.48</ele>
        <time>2017-06-20T10:46:12Z</time>
      </trkpt>
      <trkpt lat="62.035548985004425" lon="7.28580697439611">
        <ele>1214.76</ele>
        <time>2017-06-20T10:46:16Z</time>
      </trkpt>
      <trkpt lat="62.03547497279942" lon="7.285561971366406">
        <ele>1216.21</ele>
        <time>2017-06-20T10:46:17Z</time>
      </trkpt>
      <trkpt lat="62.035413030534983" lon="7.285300958901644">
        <ele>1217.6500000000001</ele>
        <time>2017-06-20T10:46:18Z</time>
      </trkpt>
      <trkpt lat="62.035195017233491" lon="7.284192033112049">
        <ele>1224.3800000000001</ele>
        <time>2017-06-20T10:46:22Z</time>
      </trkpt>
      <trkpt lat="62.035132991150022" lon="7.283973013982177">
        <ele>1225.3399999999999</ele>
        <time>2017-06-20T10:46:23Z</time>
      </trkpt>
      <trkpt lat="62.035072976723313" lon="7.283804034814239">
        <ele>1226.78</ele>
        <time>2017-06-20T10:46:24Z</time>
      </trkpt>
      <trkpt lat="62.034985972568393" lon="7.283559031784535">
        <ele>1228.7</ele>
        <time>2017-06-20T10:46:26Z</time>
      </trkpt>
      <trkpt lat="62.034969041123986" lon="7.283482002094388">
        <ele>1229.1800000000001</ele>
        <time>2017-06-20T10:46:27Z</time>
      </trkpt>
      <trkpt lat="62.034967029467225" lon="7.283367002382875">
        <ele>1230.6199999999999</ele>
        <time>2017-06-20T10:46:31Z</time>
      </trkpt>
      <trkpt lat="62.035045986995101" lon="7.283295001834631">
        <ele>1232.55</ele>
        <time>2017-06-20T10:46:34Z</time>
      </trkpt>
      <trkpt lat="62.035097032785416" lon="7.283326014876366">
        <ele>1233.03</ele>
        <time>2017-06-20T10:46:35Z</time>
      </trkpt>
      <trkpt lat="62.035153023898602" lon="7.283403966575861">
        <ele>1233.99</ele>
        <time>2017-06-20T10:46:36Z</time>
      </trkpt>
      <trkpt lat="62.035210020840168" lon="7.283514020964503">
        <ele>1234.47</ele>
        <time>2017-06-20T10:46:37Z</time>
      </trkpt>
      <trkpt lat="62.035275986418128" lon="7.283632960170507">
        <ele>1235.4300000000001</ele>
        <time>2017-06-20T10:46:38Z</time>
      </trkpt>
      <trkpt lat="62.035400038585067" lon="7.283833036199212">
        <ele>1237.3499999999999</ele>
        <time>2017-06-20T10:46:40Z</time>
      </trkpt>
      <trkpt lat="62.035460975021124" lon="7.283900007605553">
        <ele>1238.8</ele>
        <time>2017-06-20T10:46:41Z</time>
      </trkpt>
      <trkpt lat="62.035524006932974" lon="7.283909982070327">
        <ele>1239.76</ele>
        <time>2017-06-20T10:46:42Z</time>
      </trkpt>
      <trkpt lat="62.035576980561018" lon="7.283880980685353">
        <ele>1239.28</ele>
        <time>2017-06-20T10:46:43Z</time>
      </trkpt>
      <trkpt lat="62.035615034401417" lon="7.283806968480349">
        <ele>1239.76</ele>
        <time>2017-06-20T10:46:44Z</time>
      </trkpt>
      <trkpt lat="62.035629032179713" lon="7.283698003739119">
        <ele>1240.72</ele>
        <time>2017-06-20T10:46:45Z</time>
      </trkpt>
      <trkpt lat="62.035607993602753" lon="7.283568000420928">
        <ele>1241.2</ele>
        <time>2017-06-20T10:46:46Z</time>
      </trkpt>
      <trkpt lat="62.03555703163147" lon="7.283458029851317">
        <ele>1241.6800000000001</ele>
        <time>2017-06-20T10:46:47Z</time>
      </trkpt>
      <trkpt lat="62.035498023033142" lon="7.283365996554494">
        <ele>1242.6400000000001</ele>
        <time>2017-06-20T10:46:48Z</time>
      </trkpt>
      <trkpt lat="62.03542903997004" lon="7.283256025984883">
        <ele>1243.5999999999999</ele>
        <time>2017-06-20T10:46:49Z</time>
      </trkpt>
      <trkpt lat="62.035324014723301" lon="7.282960982993245">
        <ele>1246.49</ele>
        <time>2017-06-20T10:46:51Z</time>
      </trkpt>
      <trkpt lat="62.035290990024805" lon="7.282788986340165">
        <ele>1247.45</ele>
        <time>2017-06-20T10:46:52Z</time>
      </trkpt>
      <trkpt lat="62.035268023610115" lon="7.282610032707453">
        <ele>1247.9300000000001</ele>
        <time>2017-06-20T10:46:53Z</time>
      </trkpt>
      <trkpt lat="62.035257965326309" lon="7.282413979992271">
        <ele>1249.3699999999999</ele>
        <time>2017-06-20T10:46:54Z</time>
      </trkpt>
      <trkpt lat="62.035256959497929" lon="7.282219016924501">
        <ele>1250.8099999999999</ele>
        <time>2017-06-20T10:46:55Z</time>
      </trkpt>
      <trkpt lat="62.03525603748858" lon="7.282020030543208">
        <ele>1251.77</ele>
        <time>2017-06-20T10:46:56Z</time>
      </trkpt>
      <trkpt lat="62.035306999459863" lon="7.279736967757344">
        <ele>1266.1900000000001</ele>
        <time>2017-06-20T10:47:05Z</time>
      </trkpt>
      <trkpt lat="62.035352010279894" lon="7.278097970411181">
        <ele>1277.73</ele>
        <time>2017-06-20T10:47:12Z</time>
      </trkpt>
      <trkpt lat="62.035371037200093" lon="7.278022030368447">
        <ele>1278.21</ele>
        <time>2017-06-20T10:47:13Z</time>
      </trkpt>
      <trkpt lat="62.035392997786403" lon="7.277980959042907">
        <ele>1279.1700000000001</ele>
        <time>2017-06-20T10:47:14Z</time>
      </trkpt>
      <trkpt lat="62.035427028313279" lon="7.277981964871287">
        <ele>1279.6500000000001</ele>
        <time>2017-06-20T10:47:15Z</time>
      </trkpt>
      <trkpt lat="62.035467009991407" lon="7.278025969862938">
        <ele>1280.6099999999999</ele>
        <time>2017-06-20T10:47:16Z</time>
      </trkpt>
      <trkpt lat="62.035513026639819" lon="7.27811498567462">
        <ele>1281.0899999999999</ele>
        <time>2017-06-20T10:47:17Z</time>
      </trkpt>
      <trkpt lat="62.03555803745985" lon="7.278238032013178">
        <ele>1281.5699999999999</ele>
        <time>2017-06-20T10:47:18Z</time>
      </trkpt>
      <trkpt lat="62.035601958632469" lon="7.278385972604156">
        <ele>1282.0599999999999</ele>
        <time>2017-06-20T10:47:19Z</time>
      </trkpt>
      <trkpt lat="62.0356469694525" lon="7.278553023934364">
        <ele>1283.02</ele>
        <time>2017-06-20T10:47:20Z</time>
      </trkpt>
      <trkpt lat="62.03568996861577" lon="7.278736000880599">
        <ele>1283.98</ele>
        <time>2017-06-20T10:47:21Z</time>
      </trkpt>
      <trkpt lat="62.035727016627789" lon="7.278928030282259">
        <ele>1284.46</ele>
        <time>2017-06-20T10:47:22Z</time>
      </trkpt>
      <trkpt lat="62.035756018012762" lon="7.27912500500679">
        <ele>1285.4200000000001</ele>
        <time>2017-06-20T10:47:23Z</time>
      </trkpt>
      <trkpt lat="62.035785019397736" lon="7.279323991388083">
        <ele>1285.4200000000001</ele>
        <time>2017-06-20T10:47:24Z</time>
      </trkpt>
      <trkpt lat="62.035850984975696" lon="7.279780972748995">
        <ele>1286.3800000000001</ele>
        <time>2017-06-20T10:47:27Z</time>
      </trkpt>
      <trkpt lat="62.035889038816094" lon="7.279870994389057">
        <ele>1286.8599999999999</ele>
        <time>2017-06-20T10:47:28Z</time>
      </trkpt>
      <trkpt lat="62.035930026322603" lon="7.279907958582044">
        <ele>1287.3399999999999</ele>
        <time>2017-06-20T10:47:29Z</time>
      </trkpt>
      <trkpt lat="62.035975037142634" lon="7.279894966632128">
        <ele>1287.8199999999999</ele>
        <time>2017-06-20T10:47:30Z</time>
      </trkpt>
      <trkpt lat="62.03600998967886" lon="7.279813997447491">
        <ele>1288.3</ele>
        <time>2017-06-20T10:47:31Z</time>
      </trkpt>
      <trkpt lat="62.036024993285537" lon="7.279692040756345">
        <ele>1289.27</ele>
        <time>2017-06-20T10:47:32Z</time>
      </trkpt>
      <trkpt lat="62.036015018820763" lon="7.279548961669207">
        <ele>1290.23</ele>
        <time>2017-06-20T10:47:33Z</time>
      </trkpt>
      <trkpt lat="62.035995991900563" lon="7.279386017471552">
        <ele>1291.1900000000001</ele>
        <time>2017-06-20T10:47:34Z</time>
      </trkpt>
      <trkpt lat="62.03596799634397" lon="7.278987960889936">
        <ele>1293.1099999999999</ele>
        <time>2017-06-20T10:47:36Z</time>
      </trkpt>
      <trkpt lat="62.035965984687209" lon="7.27876097895205">
        <ele>1294.55</ele>
        <time>2017-06-20T10:47:37Z</time>
      </trkpt>
      <trkpt lat="62.035917034372687" lon="7.277524983510375">
        <ele>1304.1700000000001</ele>
        <time>2017-06-20T10:47:44Z</time>
      </trkpt>
      <trkpt lat="62.035934971645474" lon="7.277437979355454">
        <ele>1304.6500000000001</ele>
        <time>2017-06-20T10:47:45Z</time>
      </trkpt>
      <trkpt lat="62.035970008000731" lon="7.277366984635592">
        <ele>1305.1300000000001</ele>
        <time>2017-06-20T10:47:46Z</time>
      </trkpt>
      <trkpt lat="62.036016024649143" lon="7.277348963543773">
        <ele>1306.0899999999999</ele>
        <time>2017-06-20T10:47:47Z</time>
      </trkpt>
      <trkpt lat="62.036063969135284" lon="7.277394980192184">
        <ele>1307.05</ele>
        <time>2017-06-20T10:47:48Z</time>
      </trkpt>
      <trkpt lat="62.036110991612077" lon="7.277478966861963">
        <ele>1308.01</ele>
        <time>2017-06-20T10:47:49Z</time>
      </trkpt>
      <trkpt lat="62.03615901991725" lon="7.277584997937083">
        <ele>1308.49</ele>
        <time>2017-06-20T10:47:50Z</time>
      </trkpt>
      <trkpt lat="62.036293968558311" lon="7.277852967381477">
        <ele>1310.4100000000001</ele>
        <time>2017-06-20T10:47:53Z</time>
      </trkpt>
      <trkpt lat="62.036341996863484" lon="7.277896972373128">
        <ele>1310.9000000000001</ele>
        <time>2017-06-20T10:47:54Z</time>
      </trkpt>
      <trkpt lat="62.036388013511896" lon="7.277891021221876">
        <ele>1311.3800000000001</ele>
        <time>2017-06-20T10:47:55Z</time>
      </trkpt>
      <trkpt lat="62.036423971876502" lon="7.277832012623549">
        <ele>1312.3399999999999</ele>
        <time>2017-06-20T10:47:56Z</time>
      </trkpt>
      <trkpt lat="62.03643998131156" lon="7.277736961841583">
        <ele>1312.8199999999999</ele>
        <time>2017-06-20T10:47:57Z</time>
      </trkpt>
      <trkpt lat="62.036435035988688" lon="7.277623973786831">
        <ele>1313.3</ele>
        <time>2017-06-20T10:47:58Z</time>
      </trkpt>
      <trkpt lat="62.036412991583347" lon="7.277508974075317">
        <ele>1313.78</ele>
        <time>2017-06-20T10:47:59Z</time>
      </trkpt>
      <trkpt lat="62.036383990198374" lon="7.277391962707043">
        <ele>1314.26</ele>
        <time>2017-06-20T10:48:00Z</time>
      </trkpt>
      <trkpt lat="62.036348031833768" lon="7.277259025722742">
        <ele>1314.74</ele>
        <time>2017-06-20T10:48:01Z</time>
      </trkpt>
      <trkpt lat="62.036152984946966" lon="7.276470959186554">
        <ele>1320.51</ele>
        <time>2017-06-20T10:48:06Z</time>
      </trkpt>
      <trkpt lat="62.036132030189037" lon="7.276285970583558">
        <ele>1321.95</ele>
        <time>2017-06-20T10:48:07Z</time>
      </trkpt>
      <trkpt lat="62.03611996024847" lon="7.276106011122465">
        <ele>1322.9100000000001</ele>
        <time>2017-06-20T10:48:08Z</time>
      </trkpt>
      <trkpt lat="62.036136975511909" lon="7.275651041418314">
        <ele>1325.8</ele>
        <time>2017-06-20T10:48:12Z</time>
      </trkpt>
      <trkpt lat="62.036168994382024" lon="7.275602007284761">
        <ele>1326.76</ele>
        <time>2017-06-20T10:48:13Z</time>
      </trkpt>
      <trkpt lat="62.03620595857501" lon="7.275614999234676">
        <ele>1327.72</ele>
        <time>2017-06-20T10:48:14Z</time>
      </trkpt>
      <trkpt lat="62.036240994930267" lon="7.275673002004623">
        <ele>1328.2</ele>
        <time>2017-06-20T10:48:15Z</time>
      </trkpt>
      <trkpt lat="62.036260021850467" lon="7.275771992281079">
        <ele>1328.2</ele>
        <time>2017-06-20T10:48:16Z</time>
      </trkpt>
      <trkpt lat="62.036265973001719" lon="7.275894032791257">
        <ele>1328.6800000000001</ele>
        <time>2017-06-20T10:48:17Z</time>
      </trkpt>
      <trkpt lat="62.036273013800383" lon="7.276027975603938">
        <ele>1328.2</ele>
        <time>2017-06-20T10:48:18Z</time>
      </trkpt>
      <trkpt lat="62.03631198965013" lon="7.276238026097417">
        <ele>1328.2</ele>
        <time>2017-06-20T10:48:20Z</time>
      </trkpt>
      <trkpt lat="62.036341996863484" lon="7.2762889880687">
        <ele>1328.6800000000001</ele>
        <time>2017-06-20T10:48:21Z</time>
      </trkpt>
      <trkpt lat="62.036379966884851" lon="7.276294017210603">
        <ele>1329.1600000000001</ele>
        <time>2017-06-20T10:48:22Z</time>
      </trkpt>
      <trkpt lat="62.036412991583347" lon="7.276238026097417">
        <ele>1330.1199999999999</ele>
        <time>2017-06-20T10:48:23Z</time>
      </trkpt>
      <trkpt lat="62.036426989361644" lon="7.276151021942496">
        <ele>1330.5999999999999</ele>
        <time>2017-06-20T10:48:24Z</time>
      </trkpt>
      <trkpt lat="62.036433024331927" lon="7.27603199891746">
        <ele>1331.0799999999999</ele>
        <time>2017-06-20T10:48:25Z</time>
      </trkpt>
      <trkpt lat="62.036436963826418" lon="7.27588003501296">
        <ele>1331.5599999999999</ele>
        <time>2017-06-20T10:48:26Z</time>
      </trkpt>
      <trkpt lat="62.036419026553631" lon="7.275722958147526">
        <ele>1331.5599999999999</ele>
        <time>2017-06-20T10:48:27Z</time>
      </trkpt>
      <trkpt lat="62.036402011290193" lon="7.275554984807968">
        <ele>1332.04</ele>
        <time>2017-06-20T10:48:28Z</time>
      </trkpt>
      <trkpt lat="62.0363740157336" lon="7.275179978460074">
        <ele>1335.8900000000001</ele>
        <time>2017-06-20T10:48:30Z</time>
      </trkpt>
      <trkpt lat="62.036379966884851" lon="7.274984009563923">
        <ele>1336.8499999999999</ele>
        <time>2017-06-20T10:48:31Z</time>
      </trkpt>
      <trkpt lat="62.03639698214829" lon="7.27478401735425">
        <ele>1337.8099999999999</ele>
        <time>2017-06-20T10:48:32Z</time>
      </trkpt>
      <trkpt lat="62.036423971876502" lon="7.274590982124209">
        <ele>1339.25</ele>
        <time>2017-06-20T10:48:33Z</time>
      </trkpt>
      <trkpt lat="62.036456996574998" lon="7.274393001571298">
        <ele>1340.7</ele>
        <time>2017-06-20T10:48:34Z</time>
      </trkpt>
      <trkpt lat="62.036497984081507" lon="7.274196026846767">
        <ele>1341.6600000000001</ele>
        <time>2017-06-20T10:48:35Z</time>
      </trkpt>
      <trkpt lat="62.036772994324565" lon="7.272848971188068">
        <ele>1350.79</ele>
        <time>2017-06-20T10:48:42Z</time>
      </trkpt>
      <trkpt lat="62.036822028458118" lon="7.272694995626807">
        <ele>1352.23</ele>
        <time>2017-06-20T10:48:43Z</time>
      </trkpt>
      <trkpt lat="62.036876007914543" lon="7.272554012015462">
        <ele>1353.6700000000001</ele>
        <time>2017-06-20T10:48:44Z</time>
      </trkpt>
      <trkpt lat="62.036941973492503" lon="7.272427026182413">
        <ele>1354.6300000000001</ele>
        <time>2017-06-20T10:48:45Z</time>
      </trkpt>
      <trkpt lat="62.037007017061114" lon="7.272325018420816">
        <ele>1356.5599999999999</ele>
        <time>2017-06-20T10:48:46Z</time>
      </trkpt>
      <trkpt lat="62.0370820350945" lon="7.272217981517315">
        <ele>1357.52</ele>
        <time>2017-06-20T10:48:47Z</time>
      </trkpt>
      <trkpt lat="62.03772802837193" lon="7.271280968561769">
        <ele>1365.21</ele>
        <time>2017-06-20T10:48:55Z</time>
      </trkpt>
      <trkpt lat="62.037817966192961" lon="7.271187007427216">
        <ele>1366.6500000000001</ele>
        <time>2017-06-20T10:48:56Z</time>
      </trkpt>
      <trkpt lat="62.037913016974926" lon="7.271104026585817">
        <ele>1367.6099999999999</ele>
        <time>2017-06-20T10:48:57Z</time>
      </trkpt>
      <trkpt lat="62.039219001308084" lon="7.269860990345478">
        <ele>1383.96</ele>
        <time>2017-06-20T10:49:10Z</time>
      </trkpt>
      <trkpt lat="62.040334967896342" lon="7.268910985440016">
        <ele>1396.9300000000001</ele>
        <time>2017-06-20T10:49:21Z</time>
      </trkpt>
      <trkpt lat="62.040433958172798" lon="7.268837979063392">
        <ele>1397.8900000000001</ele>
        <time>2017-06-20T10:49:22Z</time>
      </trkpt>
      <trkpt lat="62.040533032268286" lon="7.268794979900122">
        <ele>1398.8599999999999</ele>
        <time>2017-06-20T10:49:23Z</time>
      </trkpt>
      <trkpt lat="62.040631016716361" lon="7.268807971850038">
        <ele>1400.3</ele>
        <time>2017-06-20T10:49:24Z</time>
      </trkpt>
      <trkpt lat="62.040726989507675" lon="7.268863040953875">
        <ele>1401.74</ele>
        <time>2017-06-20T10:49:25Z</time>
      </trkpt>
      <trkpt lat="62.040822962298989" lon="7.268938980996609">
        <ele>1404.1400000000001</ele>
        <time>2017-06-20T10:49:26Z</time>
      </trkpt>
      <trkpt lat="62.04099303111434" lon="7.269036965444684">
        <ele>1403.6600000000001</ele>
        <time>2017-06-20T10:49:28Z</time>
      </trkpt>
      <trkpt lat="62.041078023612499" lon="7.269055992364883">
        <ele>1405.0999999999999</ele>
        <time>2017-06-20T10:49:29Z</time>
      </trkpt>
      <trkpt lat="62.041163016110659" lon="7.269041994586587">
        <ele>1406.0699999999999</ele>
        <time>2017-06-20T10:49:30Z</time>
      </trkpt>
      <trkpt lat="62.041245996952057" lon="7.269007964059711">
        <ele>1407.51</ele>
        <time>2017-06-20T10:49:31Z</time>
      </trkpt>
      <trkpt lat="62.041330989450216" lon="7.268967982381582">
        <ele>1408.47</ele>
        <time>2017-06-20T10:49:32Z</time>
      </trkpt>
      <trkpt lat="62.042565979063511" lon="7.268322994932532">
        <ele>1422.8900000000001</ele>
        <time>2017-06-20T10:49:45Z</time>
      </trkpt>
      <trkpt lat="62.043724022805691" lon="7.2681899741292">
        <ele>1437.3099999999999</ele>
        <time>2017-06-20T10:49:56Z</time>
      </trkpt>
      <trkpt lat="62.045251037925482" lon="7.268281001597643">
        <ele>1455.5699999999999</ele>
        <time>2017-06-20T10:50:10Z</time>
      </trkpt>
      <trkpt lat="62.045309962704778" lon="7.268317965790629">
        <ele>1456.53</ele>
        <time>2017-06-20T10:50:11Z</time>
      </trkpt>
      <trkpt lat="62.045366959646344" lon="7.268374962732196">
        <ele>1457.5</ele>
        <time>2017-06-20T10:50:12Z</time>
      </trkpt>
      <trkpt lat="62.046046983450651" lon="7.269107960164547">
        <ele>1449.3199999999999</ele>
        <time>2017-06-20T10:50:23Z</time>
      </trkpt>
      <trkpt lat="62.046598009765148" lon="7.269384982064366">
        <ele>1450.29</ele>
        <time>2017-06-20T10:50:32Z</time>
      </trkpt>
      <trkpt lat="62.047452041879296" lon="7.269753031432629">
        <ele>1455.0899999999999</ele>
        <time>2017-06-20T10:50:42Z</time>
      </trkpt>
      <trkpt lat="62.048032991588116" lon="7.270354013890028">
        <ele>1463.74</ele>
        <time>2017-06-20T10:50:50Z</time>
      </trkpt>
      <trkpt lat="62.048072973266244" lon="7.270451998338103">
        <ele>1464.71</ele>
        <time>2017-06-20T10:50:51Z</time>
      </trkpt>
      <trkpt lat="62.048099962994456" lon="7.270569009706378">
        <ele>1464.71</ele>
        <time>2017-06-20T10:50:52Z</time>
      </trkpt>
      <trkpt lat="62.048118989914656" lon="7.270688032731414">
        <ele>1464.71</ele>
        <time>2017-06-20T10:50:53Z</time>
      </trkpt>
      <trkpt lat="62.048140028491616" lon="7.270814012736082">
        <ele>1465.1900000000001</ele>
        <time>2017-06-20T10:50:54Z</time>
      </trkpt>
      <trkpt lat="62.048161989077926" lon="7.27093898691237">
        <ele>1465.6700000000001</ele>
        <time>2017-06-20T10:50:55Z</time>
      </trkpt>
      <trkpt lat="62.04819300211966" lon="7.271053986623883">
        <ele>1466.1500000000001</ele>
        <time>2017-06-20T10:50:56Z</time>
      </trkpt>
      <trkpt lat="62.048231977969408" lon="7.271147025749087">
        <ele>1466.6300000000001</ele>
        <time>2017-06-20T10:50:57Z</time>
      </trkpt>
      <trkpt lat="62.048280006274581" lon="7.271206034347415">
        <ele>1467.1099999999999</ele>
        <time>2017-06-20T10:50:58Z</time>
      </trkpt>
      <trkpt lat="62.048337003216147" lon="7.271231012418866">
        <ele>1467.5899999999999</ele>
        <time>2017-06-20T10:50:59Z</time>
      </trkpt>
      <trkpt lat="62.048400035127997" lon="7.27119798772037">
        <ele>1469.03</ele>
        <time>2017-06-20T10:51:00Z</time>
      </trkpt>
      <trkpt lat="62.048460971564054" lon="7.271121041849256">
        <ele>1469.99</ele>
        <time>2017-06-20T10:51:01Z</time>
      </trkpt>
      <trkpt lat="62.048507994040847" lon="7.271018028259277">
        <ele>1470.95</ele>
        <time>2017-06-20T10:51:02Z</time>
      </trkpt>
      <trkpt lat="62.048545964062214" lon="7.270889030769467">
        <ele>1471.9200000000001</ele>
        <time>2017-06-20T10:51:03Z</time>
      </trkpt>
      <trkpt lat="62.048573959618807" lon="7.27076799608767">
        <ele>1472.4000000000001</ele>
        <time>2017-06-20T10:51:04Z</time>
      </trkpt>
      <trkpt lat="62.048596004024148" lon="7.270650984719396">
        <ele>1473.3599999999999</ele>
        <time>2017-06-20T10:51:05Z</time>
      </trkpt>
      <trkpt lat="62.04862198792398" lon="7.270556017756462">
        <ele>1474.3199999999999</ele>
        <time>2017-06-20T10:51:06Z</time>
      </trkpt>
      <trkpt lat="62.048852993175387" lon="7.26984104141593">
        <ele>1481.53</ele>
        <time>2017-06-20T10:51:14Z</time>
      </trkpt>
      <trkpt lat="62.048865985125303" lon="7.269745990633965">
        <ele>1482.01</ele>
        <time>2017-06-20T10:51:15Z</time>
      </trkpt>
      <trkpt lat="62.048866990953684" lon="7.269647000357509">
        <ele>1482.49</ele>
        <time>2017-06-20T10:51:16Z</time>
      </trkpt>
      <trkpt lat="62.048752997070551" lon="7.269285991787911">
        <ele>1482.97</ele>
        <time>2017-06-20T10:51:24Z</time>
      </trkpt>
      <trkpt lat="62.04872902482748" lon="7.269300995394588">
        <ele>1483.9300000000001</ele>
        <time>2017-06-20T10:51:37Z</time>
      </trkpt>
      <trkpt lat="62.048731036484241" lon="7.269296972081065">
        <ele>1483.9300000000001</ele>
        <time>2017-06-20T10:53:40Z</time>
      </trkpt>
      <trkpt lat="62.04873195849359" lon="7.269294960424304">
        <ele>1483.45</ele>
        <time>2017-06-20T10:55:56Z</time>
      </trkpt>
      <trkpt lat="62.048746040090919" lon="7.269328990951181">
        <ele>1481.53</ele>
        <time>2017-06-20T10:58:49Z</time>
      </trkpt>
      <trkpt lat="62.048732964321971" lon="7.269314993172884">
        <ele>1481.53</ele>
        <time>2017-06-20T11:00:22Z</time>
      </trkpt>
      <trkpt lat="62.048706980422139" lon="7.269360003992915">
        <ele>1481.53</ele>
        <time>2017-06-20T11:00:24Z</time>
      </trkpt>
      <trkpt lat="62.048679990693927" lon="7.269424041733146">
        <ele>1481.05</ele>
        <time>2017-06-20T11:00:25Z</time>
      </trkpt>
      <trkpt lat="62.048656018450856" lon="7.269495958462358">
        <ele>1481.05</ele>
        <time>2017-06-20T11:00:26Z</time>
      </trkpt>
      <trkpt lat="62.048637997359037" lon="7.26956401951611">
        <ele>1481.05</ele>
        <time>2017-06-20T11:00:27Z</time>
      </trkpt>
      <trkpt lat="62.048619976267219" lon="7.269645994529128">
        <ele>1480.5699999999999</ele>
        <time>2017-06-20T11:00:28Z</time>
      </trkpt>
      <trkpt lat="62.048602038994431" lon="7.269732998684049">
        <ele>1480.0899999999999</ele>
        <time>2017-06-20T11:00:29Z</time>
      </trkpt>
      <trkpt lat="62.048577982932329" lon="7.269925028085709">
        <ele>1479.1300000000001</ele>
        <time>2017-06-20T11:00:31Z</time>
      </trkpt>
      <trkpt lat="62.048573959618807" lon="7.270028041675687">
        <ele>1478.1600000000001</ele>
        <time>2017-06-20T11:00:32Z</time>
      </trkpt>
      <trkpt lat="62.048573959618807" lon="7.270133988931775">
        <ele>1477.6800000000001</ele>
        <time>2017-06-20T11:00:33Z</time>
      </trkpt>
      <trkpt lat="62.04857898876071" lon="7.270348984748125">
        <ele>1476.72</ele>
        <time>2017-06-20T11:00:35Z</time>
      </trkpt>
      <trkpt lat="62.048577982932329" lon="7.270447975024581">
        <ele>1475.76</ele>
        <time>2017-06-20T11:00:36Z</time>
      </trkpt>
      <trkpt lat="62.048574965447187" lon="7.270557023584843">
        <ele>1475.28</ele>
        <time>2017-06-20T11:00:37Z</time>
      </trkpt>
      <trkpt lat="62.048565996810794" lon="7.270665988326073">
        <ele>1474.3199999999999</ele>
        <time>2017-06-20T11:00:38Z</time>
      </trkpt>
      <trkpt lat="62.048545964062214" lon="7.270776964724064">
        <ele>1473.8399999999999</ele>
        <time>2017-06-20T11:00:39Z</time>
      </trkpt>
      <trkpt lat="62.048522997647524" lon="7.270876038819552">
        <ele>1473.3599999999999</ele>
        <time>2017-06-20T11:00:40Z</time>
      </trkpt>
      <trkpt lat="62.04849399626255" lon="7.27096295915544">
        <ele>1472.4000000000001</ele>
        <time>2017-06-20T11:00:41Z</time>
      </trkpt>
      <trkpt lat="62.048457032069564" lon="7.271044012159109">
        <ele>1471.9200000000001</ele>
        <time>2017-06-20T11:00:42Z</time>
      </trkpt>
      <trkpt lat="62.048415038734674" lon="7.27111198939383">
        <ele>1470.95</ele>
        <time>2017-06-20T11:00:43Z</time>
      </trkpt>
      <trkpt lat="62.048372961580753" lon="7.271152976900339">
        <ele>1470.47</ele>
        <time>2017-06-20T11:00:44Z</time>
      </trkpt>
      <trkpt lat="62.048327028751373" lon="7.271157000213862">
        <ele>1469.99</ele>
        <time>2017-06-20T11:00:45Z</time>
      </trkpt>
      <trkpt lat="62.048281012102962" lon="7.271122969686985">
        <ele>1469.51</ele>
        <time>2017-06-20T11:00:46Z</time>
      </trkpt>
      <trkpt lat="62.048237007111311" lon="7.271065972745419">
        <ele>1469.03</ele>
        <time>2017-06-20T11:00:47Z</time>
      </trkpt>
      <trkpt lat="62.048198031261563" lon="7.270985003560782">
        <ele>1468.0699999999999</ele>
        <time>2017-06-20T11:00:48Z</time>
      </trkpt>
      <trkpt lat="62.048164000734687" lon="7.270885007455945">
        <ele>1467.5899999999999</ele>
        <time>2017-06-20T11:00:49Z</time>
      </trkpt>
      <trkpt lat="62.048137011006474" lon="7.270775958895683">
        <ele>1466.6300000000001</ele>
        <time>2017-06-20T11:00:50Z</time>
      </trkpt>
      <trkpt lat="62.048118989914656" lon="7.270669005811214">
        <ele>1466.1500000000001</ele>
        <time>2017-06-20T11:00:51Z</time>
      </trkpt>
      <trkpt lat="62.048070039600134" lon="7.270457027480006">
        <ele>1465.1900000000001</ele>
        <time>2017-06-20T11:00:53Z</time>
      </trkpt>
      <trkpt lat="62.048032991588116" lon="7.270346973091364">
        <ele>1464.23</ele>
        <time>2017-06-20T11:00:54Z</time>
      </trkpt>
      <trkpt lat="62.047984963282943" lon="7.27025100030005">
        <ele>1463.26</ele>
        <time>2017-06-20T11:00:55Z</time>
      </trkpt>
      <trkpt lat="62.047931989654899" lon="7.270157039165497">
        <ele>1462.3</ele>
        <time>2017-06-20T11:00:56Z</time>
      </trkpt>
      <trkpt lat="62.047873986884952" lon="7.270065005868673">
        <ele>1461.8199999999999</ele>
        <time>2017-06-20T11:00:57Z</time>
      </trkpt>
      <trkpt lat="62.047808021306992" lon="7.26997397840023">
        <ele>1460.8599999999999</ele>
        <time>2017-06-20T11:00:58Z</time>
      </trkpt>
      <trkpt lat="62.047736020758748" lon="7.269897032529116">
        <ele>1459.4200000000001</ele>
        <time>2017-06-20T11:00:59Z</time>
      </trkpt>
      <trkpt lat="62.04765697941184" lon="7.269829977303743">
        <ele>1458.46</ele>
        <time>2017-06-20T11:01:00Z</time>
      </trkpt>
      <trkpt lat="62.04756997525692" lon="7.269765017554164">
        <ele>1457.02</ele>
        <time>2017-06-20T11:01:01Z</time>
      </trkpt>
      <trkpt lat="62.047479031607509" lon="7.269707014784217">
        <ele>1455.5699999999999</ele>
        <time>2017-06-20T11:01:02Z</time>
      </trkpt>
      <trkpt lat="62.046392988413572" lon="7.269232012331486">
        <ele>1448.8399999999999</ele>
        <time>2017-06-20T11:01:15Z</time>
      </trkpt>
      <trkpt lat="62.04533401876688" lon="7.268357025459409">
        <ele>1454.6099999999999</ele>
        <time>2017-06-20T11:01:28Z</time>
      </trkpt>
      <trkpt lat="62.045259000733495" lon="7.268288964405656">
        <ele>1454.1300000000001</ele>
        <time>2017-06-20T11:01:29Z</time>
      </trkpt>
      <trkpt lat="62.045191023498774" lon="7.268252000212669">
        <ele>1453.6500000000001</ele>
        <time>2017-06-20T11:01:30Z</time>
      </trkpt>
      <trkpt lat="62.045122040435672" lon="7.268234984949231">
        <ele>1452.6900000000001</ele>
        <time>2017-06-20T11:01:31Z</time>
      </trkpt>
      <trkpt lat="62.044159965589643" lon="7.268198020756245">
        <ele>1440.1900000000001</ele>
        <time>2017-06-20T11:01:42Z</time>
      </trkpt>
      <trkpt lat="62.04329201951623" lon="7.268242025747895">
        <ele>1429.6199999999999</ele>
        <time>2017-06-20T11:01:54Z</time>
      </trkpt>
      <trkpt lat="62.043114993721247" lon="7.268277984112501">
        <ele>1427.21</ele>
        <time>2017-06-20T11:02:03Z</time>
      </trkpt>
      <trkpt lat="62.043108036741614" lon="7.268264992162585">
        <ele>1428.1800000000001</ele>
        <time>2017-06-20T11:03:27Z</time>
      </trkpt>
      <trkpt lat="62.043107030913234" lon="7.268255017697811">
        <ele>1428.1800000000001</ele>
        <time>2017-06-20T11:04:33Z</time>
      </trkpt>
      <trkpt lat="62.043073000386357" lon="7.268246971070766">
        <ele>1428.1800000000001</ele>
        <time>2017-06-20T11:04:34Z</time>
      </trkpt>
      <trkpt lat="62.042661029845476" lon="7.268213024362922">
        <ele>1424.3299999999999</ele>
        <time>2017-06-20T11:04:41Z</time>
      </trkpt>
      <trkpt lat="62.042581988498569" lon="7.268248982727528">
        <ele>1423.8499999999999</ele>
        <time>2017-06-20T11:04:42Z</time>
      </trkpt>
      <trkpt lat="62.042495990172029" lon="7.268298016861081">
        <ele>1422.8900000000001</ele>
        <time>2017-06-20T11:04:43Z</time>
      </trkpt>
      <trkpt lat="62.041345993056893" lon="7.268826998770237">
        <ele>1408.47</ele>
        <time>2017-06-20T11:04:55Z</time>
      </trkpt>
      <trkpt lat="62.041004011407495" lon="7.268954990431666">
        <ele>1404.6199999999999</ele>
        <time>2017-06-20T11:04:59Z</time>
      </trkpt>
      <trkpt lat="62.040925975888968" lon="7.268935963511467">
        <ele>1403.1800000000001</ele>
        <time>2017-06-20T11:05:00Z</time>
      </trkpt>
      <trkpt lat="62.040851963683963" lon="7.268892964348197">
        <ele>1402.22</ele>
        <time>2017-06-20T11:05:01Z</time>
      </trkpt>
      <trkpt lat="62.040788009762764" lon="7.26883202791214">
        <ele>1401.74</ele>
        <time>2017-06-20T11:05:02Z</time>
      </trkpt>
      <trkpt lat="62.040729001164436" lon="7.268781987950206">
        <ele>1400.78</ele>
        <time>2017-06-20T11:05:03Z</time>
      </trkpt>
      <trkpt lat="62.040606960654259" lon="7.26870596408844">
        <ele>1399.3399999999999</ele>
        <time>2017-06-20T11:05:05Z</time>
      </trkpt>
      <trkpt lat="62.040535965934396" lon="7.268689032644033">
        <ele>1398.3699999999999</ele>
        <time>2017-06-20T11:05:06Z</time>
      </trkpt>
      <trkpt lat="62.040459020063281" lon="7.268696995452046">
        <ele>1397.4100000000001</ele>
        <time>2017-06-20T11:05:07Z</time>
      </trkpt>
      <trkpt lat="62.040378972887993" lon="7.268743012100458">
        <ele>1395.97</ele>
        <time>2017-06-20T11:05:08Z</time>
      </trkpt>
      <trkpt lat="62.040300015360117" lon="7.268808977678418">
        <ele>1395.01</ele>
        <time>2017-06-20T11:05:09Z</time>
      </trkpt>
      <trkpt lat="62.04022197984159" lon="7.268891958519816">
        <ele>1394.05</ele>
        <time>2017-06-20T11:05:10Z</time>
      </trkpt>
      <trkpt lat="62.040142016485333" lon="7.268995977938175">
        <ele>1392.6099999999999</ele>
        <time>2017-06-20T11:05:11Z</time>
      </trkpt>
      <trkpt lat="62.039084974676371" lon="7.269942965358496">
        <ele>1379.6300000000001</ele>
        <time>2017-06-20T11:05:23Z</time>
      </trkpt>
      <trkpt lat="62.038104962557554" lon="7.270947033539414">
        <ele>1366.6500000000001</ele>
        <time>2017-06-20T11:05:34Z</time>
      </trkpt>
      <trkpt lat="62.037202985957265" lon="7.272064005956054">
        <ele>1355.5999999999999</ele>
        <time>2017-06-20T11:05:45Z</time>
      </trkpt>
      <trkpt lat="62.036837032064795" lon="7.272644033655524">
        <ele>1350.3099999999999</ele>
        <time>2017-06-20T11:05:50Z</time>
      </trkpt>
      <trkpt lat="62.036779029294848" lon="7.272792980074883">
        <ele>1348.8699999999999</ele>
        <time>2017-06-20T11:05:51Z</time>
      </trkpt>
      <trkpt lat="62.036725971847773" lon="7.272971011698246">
        <ele>1347.4300000000001</ele>
        <time>2017-06-20T11:05:52Z</time>
      </trkpt>
      <trkpt lat="62.036679033190012" lon="7.273174021393061">
        <ele>1346.46</ele>
        <time>2017-06-20T11:05:53Z</time>
      </trkpt>
      <trkpt lat="62.036636034026742" lon="7.273391028866172">
        <ele>1344.54</ele>
        <time>2017-06-20T11:05:54Z</time>
      </trkpt>
      <trkpt lat="62.036349959671497" lon="7.275118958204985">
        <ele>1333.01</ele>
        <time>2017-06-20T11:06:02Z</time>
      </trkpt>
      <trkpt lat="62.036344008520246" lon="7.275325991213322">
        <ele>1331.5599999999999</ele>
        <time>2017-06-20T11:06:03Z</time>
      </trkpt>
      <trkpt lat="62.036349959671497" lon="7.275512991473079">
        <ele>1330.5999999999999</ele>
        <time>2017-06-20T11:06:04Z</time>
      </trkpt>
      <trkpt lat="62.036365969106555" lon="7.27568699978292">
        <ele>1329.6400000000001</ele>
        <time>2017-06-20T11:06:05Z</time>
      </trkpt>
      <trkpt lat="62.036386001855135" lon="7.275826977565885">
        <ele>1328.6800000000001</ele>
        <time>2017-06-20T11:06:06Z</time>
      </trkpt>
      <trkpt lat="62.036415003240108" lon="7.276043985038996">
        <ele>1326.76</ele>
        <time>2017-06-20T11:06:08Z</time>
      </trkpt>
      <trkpt lat="62.036410979926586" lon="7.276139035820961">
        <ele>1326.76</ele>
        <time>2017-06-20T11:06:09Z</time>
      </trkpt>
      <trkpt lat="62.036402011290193" lon="7.276217993348837">
        <ele>1326.28</ele>
        <time>2017-06-20T11:06:10Z</time>
      </trkpt>
      <trkpt lat="62.036376027390361" lon="7.276272978633642">
        <ele>1324.8299999999999</ele>
        <time>2017-06-20T11:06:11Z</time>
      </trkpt>
      <trkpt lat="62.036334034055471" lon="7.276292005553842">
        <ele>1324.3499999999999</ele>
        <time>2017-06-20T11:06:12Z</time>
      </trkpt>
      <trkpt lat="62.036304026842117" lon="7.276236014440656">
        <ele>1323.8699999999999</ele>
        <time>2017-06-20T11:06:13Z</time>
      </trkpt>
      <trkpt lat="62.036278964951634" lon="7.27616099640727">
        <ele>1322.9100000000001</ele>
        <time>2017-06-20T11:06:14Z</time>
      </trkpt>
      <trkpt lat="62.03626798465848" lon="7.276056976988912">
        <ele>1322.4300000000001</ele>
        <time>2017-06-20T11:06:15Z</time>
      </trkpt>
      <trkpt lat="62.036271002143621" lon="7.27594600059092">
        <ele>1322.4300000000001</ele>
        <time>2017-06-20T11:06:16Z</time>
      </trkpt>
      <trkpt lat="62.036274019628763" lon="7.275839969515801">
        <ele>1321.95</ele>
        <time>2017-06-20T11:06:17Z</time>
      </trkpt>
      <trkpt lat="62.036260021850467" lon="7.275673002004623">
        <ele>1321.47</ele>
        <time>2017-06-20T11:06:19Z</time>
      </trkpt>
      <trkpt lat="62.036235965788364" lon="7.275620028376579">
        <ele>1321.47</ele>
        <time>2017-06-20T11:06:20Z</time>
      </trkpt>
      <trkpt lat="62.036197995766997" lon="7.275606030598283">
        <ele>1320.99</ele>
        <time>2017-06-20T11:06:21Z</time>
      </trkpt>
      <trkpt lat="62.036156002432108" lon="7.275636037811637">
        <ele>1320.03</ele>
        <time>2017-06-20T11:06:22Z</time>
      </trkpt>
      <trkpt lat="62.036119038239121" lon="7.275724969804287">
        <ele>1319.0699999999999</ele>
        <time>2017-06-20T11:06:23Z</time>
      </trkpt>
      <trkpt lat="62.036102022975683" lon="7.275851033627987">
        <ele>1318.5899999999999</ele>
        <time>2017-06-20T11:06:24Z</time>
      </trkpt>
      <trkpt lat="62.036094982177019" lon="7.275999980047345">
        <ele>1317.6199999999999</ele>
        <time>2017-06-20T11:06:25Z</time>
      </trkpt>
      <trkpt lat="62.036093976348639" lon="7.276165019720793">
        <ele>1316.6600000000001</ele>
        <time>2017-06-20T11:06:26Z</time>
      </trkpt>
      <trkpt lat="62.036099005490541" lon="7.276336010545492">
        <ele>1315.7</ele>
        <time>2017-06-20T11:06:27Z</time>
      </trkpt>
      <trkpt lat="62.036109985783696" lon="7.276505995541811">
        <ele>1314.74</ele>
        <time>2017-06-20T11:06:28Z</time>
      </trkpt>
      <trkpt lat="62.036131024360657" lon="7.276658965274692">
        <ele>1313.3</ele>
        <time>2017-06-20T11:06:29Z</time>
      </trkpt>
      <trkpt lat="62.036158014088869" lon="7.276810007169843">
        <ele>1312.3399999999999</ele>
        <time>2017-06-20T11:06:30Z</time>
      </trkpt>
      <trkpt lat="62.036191960796714" lon="7.276944033801556">
        <ele>1311.3800000000001</ele>
        <time>2017-06-20T11:06:31Z</time>
      </trkpt>
      <trkpt lat="62.036228002980351" lon="7.277076970785856">
        <ele>1310.4100000000001</ele>
        <time>2017-06-20T11:06:32Z</time>
      </trkpt>
      <trkpt lat="62.03639798797667" lon="7.277672002092004">
        <ele>1306.5699999999999</ele>
        <time>2017-06-20T11:06:37Z</time>
      </trkpt>
      <trkpt lat="62.036403017118573" lon="7.277780966833234">
        <ele>1306.0899999999999</ele>
        <time>2017-06-20T11:06:38Z</time>
      </trkpt>
      <trkpt lat="62.036387007683516" lon="7.277865037322044">
        <ele>1305.6099999999999</ele>
        <time>2017-06-20T11:06:39Z</time>
      </trkpt>
      <trkpt lat="62.036345014348626" lon="7.277891021221876">
        <ele>1305.1300000000001</ele>
        <time>2017-06-20T11:06:40Z</time>
      </trkpt>
      <trkpt lat="62.036301009356976" lon="7.27787702344358">
        <ele>1304.1700000000001</ele>
        <time>2017-06-20T11:06:41Z</time>
      </trkpt>
      <trkpt lat="62.036260021850467" lon="7.277841987088323">
        <ele>1303.6900000000001</ele>
        <time>2017-06-20T11:06:42Z</time>
      </trkpt>
      <trkpt lat="62.036217022687197" lon="7.277769986540079">
        <ele>1303.2</ele>
        <time>2017-06-20T11:06:43Z</time>
      </trkpt>
      <trkpt lat="62.036175029352307" lon="7.277666972950101">
        <ele>1302.72</ele>
        <time>2017-06-20T11:06:44Z</time>
      </trkpt>
      <trkpt lat="62.03613898716867" lon="7.277563037350774">
        <ele>1302.24</ele>
        <time>2017-06-20T11:06:45Z</time>
      </trkpt>
      <trkpt lat="62.036015018820763" lon="7.277358015999198">
        <ele>1301.28</ele>
        <time>2017-06-20T11:06:48Z</time>
      </trkpt>
      <trkpt lat="62.035974031314254" lon="7.27736203931272">
        <ele>1300.8</ele>
        <time>2017-06-20T11:06:49Z</time>
      </trkpt>
      <trkpt lat="62.035942012444139" lon="7.277413001284003">
        <ele>1299.8399999999999</ele>
        <time>2017-06-20T11:06:50Z</time>
      </trkpt>
      <trkpt lat="62.035919968038797" lon="7.277515009045601">
        <ele>1299.3599999999999</ele>
        <time>2017-06-20T11:06:51Z</time>
      </trkpt>
      <trkpt lat="62.035913011059165" lon="7.277644006535411">
        <ele>1298.4000000000001</ele>
        <time>2017-06-20T11:06:52Z</time>
      </trkpt>
      <trkpt lat="62.0359249971807" lon="7.27779395878315">
        <ele>1297.4400000000001</ele>
        <time>2017-06-20T11:06:53Z</time>
      </trkpt>
      <trkpt lat="62.035936983302236" lon="7.277962015941739">
        <ele>1296.48</ele>
        <time>2017-06-20T11:06:54Z</time>
      </trkpt>
      <trkpt lat="62.035951986908913" lon="7.278313972055912">
        <ele>1294.0699999999999</ele>
        <time>2017-06-20T11:06:56Z</time>
      </trkpt>
      <trkpt lat="62.035950981080532" lon="7.278478005900979">
        <ele>1293.1099999999999</ele>
        <time>2017-06-20T11:06:57Z</time>
      </trkpt>
      <trkpt lat="62.035940000787377" lon="7.279202034696937">
        <ele>1288.3</ele>
        <time>2017-06-20T11:07:02Z</time>
      </trkpt>
      <trkpt lat="62.035951986908913" lon="7.27931996807456">
        <ele>1287.8199999999999</ele>
        <time>2017-06-20T11:07:03Z</time>
      </trkpt>
      <trkpt lat="62.035964978858829" lon="7.279433961957693">
        <ele>1287.3399999999999</ele>
        <time>2017-06-20T11:07:04Z</time>
      </trkpt>
      <trkpt lat="62.03598802909255" lon="7.279638983309269">
        <ele>1285.9000000000001</ele>
        <time>2017-06-20T11:07:06Z</time>
      </trkpt>
      <trkpt lat="62.03599096275866" lon="7.279735039919615">
        <ele>1284.9400000000001</ele>
        <time>2017-06-20T11:07:07Z</time>
      </trkpt>
      <trkpt lat="62.035976964980364" lon="7.279827995225787">
        <ele>1284.46</ele>
        <time>2017-06-20T11:07:08Z</time>
      </trkpt>
      <trkpt lat="62.035950981080532" lon="7.279889015480876">
        <ele>1283.5</ele>
        <time>2017-06-20T11:07:09Z</time>
      </trkpt>
      <trkpt lat="62.035905970260501" lon="7.279913993552327">
        <ele>1283.02</ele>
        <time>2017-06-20T11:07:10Z</time>
      </trkpt>
      <trkpt lat="62.035862971097231" lon="7.27987501770258">
        <ele>1282.54</ele>
        <time>2017-06-20T11:07:11Z</time>
      </trkpt>
      <trkpt lat="62.035826006904244" lon="7.279794970527291">
        <ele>1281.5699999999999</ele>
        <time>2017-06-20T11:07:12Z</time>
      </trkpt>
      <trkpt lat="62.035802034661174" lon="7.279659016057849">
        <ele>1280.1300000000001</ele>
        <time>2017-06-20T11:07:13Z</time>
      </trkpt>
      <trkpt lat="62.035779990255833" lon="7.279507974162698">
        <ele>1280.1300000000001</ele>
        <time>2017-06-20T11:07:14Z</time>
      </trkpt>
      <trkpt lat="62.035763980820775" lon="7.279346035793424">
        <ele>1279.1700000000001</ele>
        <time>2017-06-20T11:07:15Z</time>
      </trkpt>
      <trkpt lat="62.035690974444151" lon="7.278874972835183">
        <ele>1278.21</ele>
        <time>2017-06-20T11:07:18Z</time>
      </trkpt>
      <trkpt lat="62.035659961402416" lon="7.278740024194121">
        <ele>1277.73</ele>
        <time>2017-06-20T11:07:19Z</time>
      </trkpt>
      <trkpt lat="62.035490982234478" lon="7.278108028694987">
        <ele>1276.77</ele>
        <time>2017-06-20T11:07:25Z</time>
      </trkpt>
      <trkpt lat="62.035469021648169" lon="7.278043990954757">
        <ele>1275.3299999999999</ele>
        <time>2017-06-20T11:07:26Z</time>
      </trkpt>
      <trkpt lat="62.03543096780777" lon="7.278000991791487">
        <ele>1275.3299999999999</ele>
        <time>2017-06-20T11:07:27Z</time>
      </trkpt>
      <trkpt lat="62.035397021099925" lon="7.27798699401319">
        <ele>1273.8800000000001</ele>
        <time>2017-06-20T11:07:28Z</time>
      </trkpt>
      <trkpt lat="62.035353016108274" lon="7.278040973469615">
        <ele>1273.4000000000001</ele>
        <time>2017-06-20T11:07:29Z</time>
      </trkpt>
      <trkpt lat="62.035329965874553" lon="7.2781350184232">
        <ele>1272.4400000000001</ele>
        <time>2017-06-20T11:07:30Z</time>
      </trkpt>
      <trkpt lat="62.035319991409779" lon="7.27826502174139">
        <ele>1271.48</ele>
        <time>2017-06-20T11:07:31Z</time>
      </trkpt>
      <trkpt lat="62.03532300889492" lon="7.278412040323019">
        <ele>1270.04</ele>
        <time>2017-06-20T11:07:32Z</time>
      </trkpt>
      <trkpt lat="62.03532300889492" lon="7.278591999784112">
        <ele>1269.0799999999999</ele>
        <time>2017-06-20T11:07:33Z</time>
      </trkpt>
      <trkpt lat="62.035251008346677" lon="7.281082011759281">
        <ele>1252.74</ele>
        <time>2017-06-20T11:07:45Z</time>
      </trkpt>
      <trkpt lat="62.035284033045173" lon="7.282915972173214">
        <ele>1242.1600000000001</ele>
        <time>2017-06-20T11:07:54Z</time>
      </trkpt>
      <trkpt lat="62.035305993631482" lon="7.283070031553507">
        <ele>1241.6800000000001</ele>
        <time>2017-06-20T11:07:55Z</time>
      </trkpt>
      <trkpt lat="62.035341029986739" lon="7.283200034871697">
        <ele>1240.72</ele>
        <time>2017-06-20T11:07:56Z</time>
      </trkpt>
      <trkpt lat="62.03538897447288" lon="7.283301958814263">
        <ele>1240.24</ele>
        <time>2017-06-20T11:07:57Z</time>
      </trkpt>
      <trkpt lat="62.035435996949673" lon="7.283389968797565">
        <ele>1239.76</ele>
        <time>2017-06-20T11:07:58Z</time>
      </trkpt>
      <trkpt lat="62.035527024418116" lon="7.283561965450645">
        <ele>1238.3199999999999</ele>
        <time>2017-06-20T11:08:00Z</time>
      </trkpt>
      <trkpt lat="62.03555996529758" lon="7.283652992919087">
        <ele>1237.8299999999999</ele>
        <time>2017-06-20T11:08:01Z</time>
      </trkpt>
      <trkpt lat="62.035582009702921" lon="7.283752989023924">
        <ele>1237.3499999999999</ele>
        <time>2017-06-20T11:08:02Z</time>
      </trkpt>
      <trkpt lat="62.035582009702921" lon="7.283850973471999">
        <ele>1236.3900000000001</ele>
        <time>2017-06-20T11:08:03Z</time>
      </trkpt>
      <trkpt lat="62.035552002489567" lon="7.283919034525752">
        <ele>1235.9100000000001</ele>
        <time>2017-06-20T11:08:04Z</time>
      </trkpt>
      <trkpt lat="62.035504980012774" lon="7.283936971798539">
        <ele>1235.4300000000001</ele>
        <time>2017-06-20T11:08:05Z</time>
      </trkpt>
      <trkpt lat="62.035455023869872" lon="7.283912999555469">
        <ele>1234.47</ele>
        <time>2017-06-20T11:08:06Z</time>
      </trkpt>
      <trkpt lat="62.035400960594416" lon="7.283848039805889">
        <ele>1233.99</ele>
        <time>2017-06-20T11:08:07Z</time>
      </trkpt>
      <trkpt lat="62.035346981137991" lon="7.283774027600884">
        <ele>1233.51</ele>
        <time>2017-06-20T11:08:08Z</time>
      </trkpt>
      <trkpt lat="62.035294007509947" lon="7.283699009567499">
        <ele>1233.03</ele>
        <time>2017-06-20T11:08:09Z</time>
      </trkpt>
      <trkpt lat="62.03508697450161" lon="7.283376976847649">
        <ele>1230.6199999999999</ele>
        <time>2017-06-20T11:08:13Z</time>
      </trkpt>
      <trkpt lat="62.035042969509959" lon="7.283354010432959">
        <ele>1230.6199999999999</ele>
        <time>2017-06-20T11:08:14Z</time>
      </trkpt>
      <trkpt lat="62.035006005316973" lon="7.283362979069352">
        <ele>1230.6199999999999</ele>
        <time>2017-06-20T11:08:15Z</time>
      </trkpt>
      <trkpt lat="62.034974992275238" lon="7.283405978232622">
        <ele>1230.1400000000001</ele>
        <time>2017-06-20T11:08:16Z</time>
      </trkpt>
      <trkpt lat="62.034954959526658" lon="7.283484013751149">
        <ele>1229.1800000000001</ele>
        <time>2017-06-20T11:08:17Z</time>
      </trkpt>
      <trkpt lat="62.034954037517309" lon="7.283583004027605">
        <ele>1228.22</ele>
        <time>2017-06-20T11:08:18Z</time>
      </trkpt>
      <trkpt lat="62.034972980618477" lon="7.283698003739119">
        <ele>1227.74</ele>
        <time>2017-06-20T11:08:19Z</time>
      </trkpt>
      <trkpt lat="62.035008016973734" lon="7.283805040642619">
        <ele>1226.78</ele>
        <time>2017-06-20T11:08:20Z</time>
      </trkpt>
      <trkpt lat="62.035051016137004" lon="7.283914005383849">
        <ele>1225.8199999999999</ele>
        <time>2017-06-20T11:08:21Z</time>
      </trkpt>
      <trkpt lat="62.035137014463544" lon="7.284158002585173">
        <ele>1224.3800000000001</ele>
        <time>2017-06-20T11:08:23Z</time>
      </trkpt>
      <trkpt lat="62.03517397865653" lon="7.284304015338421">
        <ele>1223.4200000000001</ele>
        <time>2017-06-20T11:08:24Z</time>
      </trkpt>
      <trkpt lat="62.035209015011787" lon="7.284460002556443">
        <ele>1222.45</ele>
        <time>2017-06-20T11:08:25Z</time>
      </trkpt>
      <trkpt lat="62.035442031919956" lon="7.285746959969401">
        <ele>1213.8</ele>
        <time>2017-06-20T11:08:32Z</time>
      </trkpt>
      <trkpt lat="62.035497017204762" lon="7.285906970500946">
        <ele>1212.3599999999999</ele>
        <time>2017-06-20T11:08:33Z</time>
      </trkpt>
      <trkpt lat="62.035558959469199" lon="7.286069998517633">
        <ele>1211.4000000000001</ele>
        <time>2017-06-20T11:08:34Z</time>
      </trkpt>
      <trkpt lat="62.036144016310573" lon="7.287604976445437">
        <ele>1201.79</ele>
        <time>2017-06-20T11:08:44Z</time>
      </trkpt>
      <trkpt lat="62.036230014637113" lon="7.288039997220039">
        <ele>1199.3800000000001</ele>
        <time>2017-06-20T11:08:47Z</time>
      </trkpt>
      <trkpt lat="62.036234037950635" lon="7.288165977224708">
        <ele>1198.9000000000001</ele>
        <time>2017-06-20T11:08:48Z</time>
      </trkpt>
      <trkpt lat="62.036220962181687" lon="7.28827603161335">
        <ele>1198.4200000000001</ele>
        <time>2017-06-20T11:08:49Z</time>
      </trkpt>
      <trkpt lat="62.036189027130604" lon="7.288343003019691">
        <ele>1197.9400000000001</ele>
        <time>2017-06-20T11:08:50Z</time>
      </trkpt>
      <trkpt lat="62.03613898716867" lon="7.288360018283129">
        <ele>1196.98</ele>
        <time>2017-06-20T11:08:51Z</time>
      </trkpt>
      <trkpt lat="62.03609699383378" lon="7.28831903077662">
        <ele>1196.5</ele>
        <time>2017-06-20T11:08:52Z</time>
      </trkpt>
      <trkpt lat="62.036044020205736" lon="7.288247030228376">
        <ele>1196.02</ele>
        <time>2017-06-20T11:08:53Z</time>
      </trkpt>
      <trkpt lat="62.03598802909255" lon="7.288153991103172">
        <ele>1195.0599999999999</ele>
        <time>2017-06-20T11:08:54Z</time>
      </trkpt>
      <trkpt lat="62.035934971645474" lon="7.288057012483478">
        <ele>1194.0899999999999</ele>
        <time>2017-06-20T11:08:55Z</time>
      </trkpt>
      <trkpt lat="62.035844027996063" lon="7.287883004173636">
        <ele>1193.1300000000001</ele>
        <time>2017-06-20T11:08:57Z</time>
      </trkpt>
      <trkpt lat="62.035793988034129" lon="7.287845034152269">
        <ele>1192.6500000000001</ele>
        <time>2017-06-20T11:08:58Z</time>
      </trkpt>
      <trkpt lat="62.035746965557337" lon="7.28784603998065">
        <ele>1192.1700000000001</ele>
        <time>2017-06-20T11:08:59Z</time>
      </trkpt>
      <trkpt lat="62.035703966394067" lon="7.287887027487159">
        <ele>1191.6900000000001</ele>
        <time>2017-06-20T11:09:00Z</time>
      </trkpt>
      <trkpt lat="62.035677982494235" lon="7.287963973358274">
        <ele>1190.73</ele>
        <time>2017-06-20T11:09:01Z</time>
      </trkpt>
      <trkpt lat="62.03566700220108" lon="7.288058018311858">
        <ele>1190.25</ele>
        <time>2017-06-20T11:09:02Z</time>
      </trkpt>
      <trkpt lat="62.035659961402416" lon="7.288177963346243">
        <ele>1189.77</ele>
        <time>2017-06-20T11:09:03Z</time>
      </trkpt>
      <trkpt lat="62.035673037171364" lon="7.288316013291478">
        <ele>1189.29</ele>
        <time>2017-06-20T11:09:04Z</time>
      </trkpt>
      <trkpt lat="62.035692986100912" lon="7.288483986631036">
        <ele>1188.3299999999999</ele>
        <time>2017-06-20T11:09:05Z</time>
      </trkpt>
      <trkpt lat="62.035863976925611" lon="7.290375027805567">
        <ele>1178.23</ele>
        <time>2017-06-20T11:09:15Z</time>
      </trkpt>
      <trkpt lat="62.035894989967346" lon="7.290558004751802">
        <ele>1177.27</ele>
        <time>2017-06-20T11:09:16Z</time>
      </trkpt>
      <trkpt lat="62.035932037979364" lon="7.290722038596869">
        <ele>1175.8299999999999</ele>
        <time>2017-06-20T11:09:17Z</time>
      </trkpt>
      <trkpt lat="62.036142004653811" lon="7.291752006858587">
        <ele>1169.5799999999999</ele>
        <time>2017-06-20T11:09:23Z</time>
      </trkpt>
      <trkpt lat="62.036157008260489" lon="7.291933977976441">
        <ele>1168.6199999999999</ele>
        <time>2017-06-20T11:09:24Z</time>
      </trkpt>
      <trkpt lat="62.036163965240121" lon="7.292126007378101">
        <ele>1166.7</ele>
        <time>2017-06-20T11:09:25Z</time>
      </trkpt>
      <trkpt lat="62.036166982725263" lon="7.292303033173084">
        <ele>1165.74</ele>
        <time>2017-06-20T11:09:26Z</time>
      </trkpt>
      <trkpt lat="62.03616295941174" lon="7.292477963492274">
        <ele>1164.77</ele>
        <time>2017-06-20T11:09:27Z</time>
      </trkpt>
      <trkpt lat="62.03616002574563" lon="7.293356973677874">
        <ele>1159.49</ele>
        <time>2017-06-20T11:09:33Z</time>
      </trkpt>
      <trkpt lat="62.036144016310573" lon="7.293459987267852">
        <ele>1159.01</ele>
        <time>2017-06-20T11:09:34Z</time>
      </trkpt>
      <trkpt lat="62.036118032410741" lon="7.293528970330954">
        <ele>1158.53</ele>
        <time>2017-06-20T11:09:35Z</time>
      </trkpt>
      <trkpt lat="62.036085007712245" lon="7.293559983372688">
        <ele>1158.05</ele>
        <time>2017-06-20T11:09:36Z</time>
      </trkpt>
      <trkpt lat="62.036055000498891" lon="7.293549003079534">
        <ele>1157.5599999999999</ele>
        <time>2017-06-20T11:09:37Z</time>
      </trkpt>
      <trkpt lat="62.03603002242744" lon="7.293484965339303">
        <ele>1157.0799999999999</ele>
        <time>2017-06-20T11:09:38Z</time>
      </trkpt>
      <trkpt lat="62.036012001335621" lon="7.293368959799409">
        <ele>1156.1199999999999</ele>
        <time>2017-06-20T11:09:39Z</time>
      </trkpt>
      <trkpt lat="62.036001021042466" lon="7.293242979794741">
        <ele>1155.6400000000001</ele>
        <time>2017-06-20T11:09:40Z</time>
      </trkpt>
      <trkpt lat="62.03599096275866" lon="7.293100990355015">
        <ele>1155.1600000000001</ele>
        <time>2017-06-20T11:09:41Z</time>
      </trkpt>
      <trkpt lat="62.035976964980364" lon="7.292937962338328">
        <ele>1154.2</ele>
        <time>2017-06-20T11:09:42Z</time>
      </trkpt>
      <trkpt lat="62.035951986908913" lon="7.292758002877235">
        <ele>1153.24</ele>
        <time>2017-06-20T11:09:43Z</time>
      </trkpt>
      <trkpt lat="62.035910999402404" lon="7.292563039809465">
        <ele>1153.24</ele>
        <time>2017-06-20T11:09:44Z</time>
      </trkpt>
      <trkpt lat="62.03586196526885" lon="7.292349971830845">
        <ele>1153.24</ele>
        <time>2017-06-20T11:09:45Z</time>
      </trkpt>
      <trkpt lat="62.035798011347651" lon="7.29212399572134">
        <ele>1152.76</ele>
        <time>2017-06-20T11:09:46Z</time>
      </trkpt>
      <trkpt lat="62.035718970000744" lon="7.29190899990499">
        <ele>1152.28</ele>
        <time>2017-06-20T11:09:47Z</time>
      </trkpt>
      <trkpt lat="62.03564596362412" lon="7.291691992431879">
        <ele>1149.8699999999999</ele>
        <time>2017-06-20T11:09:48Z</time>
      </trkpt>
      <trkpt lat="62.034945990890265" lon="7.289568018168211">
        <ele>1138.8199999999999</ele>
        <time>2017-06-20T11:09:58Z</time>
      </trkpt>
      <trkpt lat="62.034182986244559" lon="7.287716036662459">
        <ele>1127.76</ele>
        <time>2017-06-20T11:10:07Z</time>
      </trkpt>
      <trkpt lat="62.033240022137761" lon="7.285863971337676">
        <ele>1114.3099999999999</ele>
        <time>2017-06-20T11:10:17Z</time>
      </trkpt>
      <trkpt lat="62.033175984397531" lon="7.285690968856216">
        <ele>1113.3399999999999</ele>
        <time>2017-06-20T11:10:18Z</time>
      </trkpt>
      <trkpt lat="62.033120999112725" lon="7.285513021051884">
        <ele>1112.8599999999999</ele>
        <time>2017-06-20T11:10:19Z</time>
      </trkpt>
      <trkpt lat="62.033075988292694" lon="7.285325014963746">
        <ele>1111.9000000000001</ele>
        <time>2017-06-20T11:10:20Z</time>
      </trkpt>
      <trkpt lat="62.033037012442946" lon="7.285100966691971">
        <ele>1110.9400000000001</ele>
        <time>2017-06-20T11:10:21Z</time>
      </trkpt>
      <trkpt lat="62.032990995794535" lon="7.284865016117692">
        <ele>1110.46</ele>
        <time>2017-06-20T11:10:22Z</time>
      </trkpt>
      <trkpt lat="62.032771976664662" lon="7.283955998718739">
        <ele>1106.6099999999999</ele>
        <time>2017-06-20T11:10:26Z</time>
      </trkpt>
      <trkpt lat="62.032697964459658" lon="7.283767992630601">
        <ele>1105.6500000000001</ele>
        <time>2017-06-20T11:10:27Z</time>
      </trkpt>
      <trkpt lat="62.032609032467008" lon="7.283592978492379">
        <ele>1105.1700000000001</ele>
        <time>2017-06-20T11:10:28Z</time>
      </trkpt>
      <trkpt lat="62.03235799446702" lon="7.283097021281719">
        <ele>1102.77</ele>
        <time>2017-06-20T11:10:31Z</time>
      </trkpt>
      <trkpt lat="62.032010983675718" lon="7.28191701695323">
        <ele>1097</ele>
        <time>2017-06-20T11:10:37Z</time>
      </trkpt>
      <trkpt lat="62.031979970633984" lon="7.281719958409667">
        <ele>1095.5599999999999</ele>
        <time>2017-06-20T11:10:38Z</time>
      </trkpt>
      <trkpt lat="62.031955998390913" lon="7.28150999173522">
        <ele>1094.1199999999999</ele>
        <time>2017-06-20T11:10:39Z</time>
      </trkpt>
      <trkpt lat="62.031940994784236" lon="7.281296001747251">
        <ele>1093.1600000000001</ele>
        <time>2017-06-20T11:10:40Z</time>
      </trkpt>
      <trkpt lat="62.031929008662701" lon="7.281061979010701">
        <ele>1091.71</ele>
        <time>2017-06-20T11:10:41Z</time>
      </trkpt>
      <trkpt lat="62.031893972307444" lon="7.278370968997479">
        <ele>1081.1400000000001</ele>
        <time>2017-06-20T11:10:50Z</time>
      </trkpt>
      <trkpt lat="62.031891038641334" lon="7.275536041706801">
        <ele>1065.28</ele>
        <time>2017-06-20T11:11:00Z</time>
      </trkpt>
      <trkpt lat="62.031833035871387" lon="7.274455027654767">
        <ele>1058.0699999999999</ele>
        <time>2017-06-20T11:11:06Z</time>
      </trkpt>
      <trkpt lat="62.031803028658032" lon="7.274355031549931">
        <ele>1057.5899999999999</ele>
        <time>2017-06-20T11:11:07Z</time>
      </trkpt>
      <trkpt lat="62.031752988696098" lon="7.274284036830068">
        <ele>1057.5899999999999</ele>
        <time>2017-06-20T11:11:08Z</time>
      </trkpt>
      <trkpt lat="62.031703032553196" lon="7.274249000474811">
        <ele>1056.6300000000001</ele>
        <time>2017-06-20T11:11:09Z</time>
      </trkpt>
      <trkpt lat="62.03164997510612" lon="7.274259980767965">
        <ele>1055.6700000000001</ele>
        <time>2017-06-20T11:11:10Z</time>
      </trkpt>
      <trkpt lat="62.031602030619979" lon="7.274301974102855">
        <ele>1054.22</ele>
        <time>2017-06-20T11:11:11Z</time>
      </trkpt>
      <trkpt lat="62.031545033678412" lon="7.274379003793001">
        <ele>1052.78</ele>
        <time>2017-06-20T11:11:12Z</time>
      </trkpt>
      <trkpt lat="62.031491976231337" lon="7.274468019604683">
        <ele>1050.8599999999999</ele>
        <time>2017-06-20T11:11:13Z</time>
      </trkpt>
      <trkpt lat="62.0309619884938" lon="7.275081994011998">
        <ele>1043.1700000000001</ele>
        <time>2017-06-20T11:11:23Z</time>
      </trkpt>
      <trkpt lat="62.030921000987291" lon="7.275135973468423">
        <ele>1042.21</ele>
        <time>2017-06-20T11:11:24Z</time>
      </trkpt>
      <trkpt lat="62.030887976288795" lon="7.275208979845047">
        <ele>1041.25</ele>
        <time>2017-06-20T11:11:25Z</time>
      </trkpt>
      <trkpt lat="62.030867021530867" lon="7.275289027020335">
        <ele>1040.28</ele>
        <time>2017-06-20T11:11:26Z</time>
      </trkpt>
      <trkpt lat="62.030854029580951" lon="7.275375025346875">
        <ele>1039.3199999999999</ele>
        <time>2017-06-20T11:11:27Z</time>
      </trkpt>
      <trkpt lat="62.030856041237712" lon="7.275470998138189">
        <ele>1038.3599999999999</ele>
        <time>2017-06-20T11:11:28Z</time>
      </trkpt>
      <trkpt lat="62.030862998217344" lon="7.275569988414645">
        <ele>1037.4000000000001</ele>
        <time>2017-06-20T11:11:29Z</time>
      </trkpt>
      <trkpt lat="62.03087599016726" lon="7.275665961205959">
        <ele>1036.9200000000001</ele>
        <time>2017-06-20T11:11:30Z</time>
      </trkpt>
      <trkpt lat="62.030890993773937" lon="7.27575296536088">
        <ele>1036.4400000000001</ele>
        <time>2017-06-20T11:11:31Z</time>
      </trkpt>
      <trkpt lat="62.030954025685787" lon="7.276152027770877">
        <ele>1032.5899999999999</ele>
        <time>2017-06-20T11:11:36Z</time>
      </trkpt>
      <trkpt lat="62.03098202124238" lon="7.276231991127133">
        <ele>1032.1099999999999</ele>
        <time>2017-06-20T11:11:37Z</time>
      </trkpt>
      <trkpt lat="62.03102502040565" lon="7.276304997503758">
        <ele>1031.1500000000001</ele>
        <time>2017-06-20T11:11:38Z</time>
      </trkpt>
      <trkpt lat="62.031076988205314" lon="7.276360988616943">
        <ele>1030.1900000000001</ele>
        <time>2017-06-20T11:11:39Z</time>
      </trkpt>
      <trkpt lat="62.031119987368584" lon="7.276398036628962">
        <ele>1029.71</ele>
        <time>2017-06-20T11:11:40Z</time>
      </trkpt>
      <trkpt lat="62.031162986531854" lon="7.276441035792232">
        <ele>1029.23</ele>
        <time>2017-06-20T11:11:41Z</time>
      </trkpt>
      <trkpt lat="62.031201962381601" lon="7.276502978056669">
        <ele>1028.75</ele>
        <time>2017-06-20T11:11:42Z</time>
      </trkpt>
      <trkpt lat="62.031227024272084" lon="7.276599034667015">
        <ele>1028.27</ele>
        <time>2017-06-20T11:11:43Z</time>
      </trkpt>
      <trkpt lat="62.03123901039362" lon="7.276703976094723">
        <ele>1027.3099999999999</ele>
        <time>2017-06-20T11:11:44Z</time>
      </trkpt>
      <trkpt lat="62.031241022050381" lon="7.276811012998223">
        <ele>1026.3399999999999</ele>
        <time>2017-06-20T11:11:45Z</time>
      </trkpt>
      <trkpt lat="62.031234987080097" lon="7.276903968304396">
        <ele>1025.3800000000001</ele>
        <time>2017-06-20T11:11:46Z</time>
      </trkpt>
      <trkpt lat="62.031221995130181" lon="7.276983009651303">
        <ele>1024.4200000000001</ele>
        <time>2017-06-20T11:11:47Z</time>
      </trkpt>
      <trkpt lat="62.031206991523504" lon="7.27706397883594">
        <ele>1023.9400000000001</ele>
        <time>2017-06-20T11:11:48Z</time>
      </trkpt>
      <trkpt lat="62.031189976260066" lon="7.277130028232932">
        <ele>1023.9400000000001</ele>
        <time>2017-06-20T11:11:49Z</time>
      </trkpt>
      <trkpt lat="62.031163992360234" lon="7.277187025174499">
        <ele>1023.46</ele>
        <time>2017-06-20T11:11:50Z</time>
      </trkpt>
      <trkpt lat="62.031121999025345" lon="7.27723304182291">
        <ele>1022.98</ele>
        <time>2017-06-20T11:11:51Z</time>
      </trkpt>
      <trkpt lat="62.031076988205314" lon="7.277247961610556">
        <ele>1022.98</ele>
        <time>2017-06-20T11:11:52Z</time>
      </trkpt>
      <trkpt lat="62.031028037890792" lon="7.277222983539105">
        <ele>1023.46</ele>
        <time>2017-06-20T11:11:53Z</time>
      </trkpt>
      <trkpt lat="62.030986966565251" lon="7.277184007689357">
        <ele>1023.9400000000001</ele>
        <time>2017-06-20T11:11:54Z</time>
      </trkpt>
      <trkpt lat="62.030952014029026" lon="7.277137991040945">
        <ele>1023.9400000000001</ele>
        <time>2017-06-20T11:11:55Z</time>
      </trkpt>
      <trkpt lat="62.030916977673769" lon="7.277077976614237">
        <ele>1024.4200000000001</ele>
        <time>2017-06-20T11:11:56Z</time>
      </trkpt>
      <trkpt lat="62.030876995995641" lon="7.277012011036277">
        <ele>1024.9000000000001</ele>
        <time>2017-06-20T11:11:57Z</time>
      </trkpt>
      <trkpt lat="62.030568961054087" lon="7.276283958926797">
        <ele>1026.3399999999999</ele>
        <time>2017-06-20T11:12:08Z</time>
      </trkpt>
      <trkpt lat="62.030447004362941" lon="7.275938959792256">
        <ele>1026.8299999999999</ele>
        <time>2017-06-20T11:12:11Z</time>
      </trkpt>
      <trkpt lat="62.030225973576307" lon="7.275291960686445">
        <ele>1028.27</ele>
        <time>2017-06-20T11:12:16Z</time>
      </trkpt>
      <trkpt lat="62.030163025483489" lon="7.275177966803312">
        <ele>1028.75</ele>
        <time>2017-06-20T11:12:17Z</time>
      </trkpt>
      <trkpt lat="62.030087001621723" lon="7.275074031203985">
        <ele>1028.75</ele>
        <time>2017-06-20T11:12:18Z</time>
      </trkpt>
      <trkpt lat="62.030006032437086" lon="7.274962970986962">
        <ele>1029.23</ele>
        <time>2017-06-20T11:12:19Z</time>
      </trkpt>
      <trkpt lat="62.029919028282166" lon="7.274850988760591">
        <ele>1029.71</ele>
        <time>2017-06-20T11:12:20Z</time>
      </trkpt>
      <trkpt lat="62.029829006642103" lon="7.274750992655754">
        <ele>1030.1900000000001</ele>
        <time>2017-06-20T11:12:21Z</time>
      </trkpt>
      <trkpt lat="62.029661033302546" lon="7.274551000446081">
        <ele>1031.1500000000001</ele>
        <time>2017-06-20T11:12:23Z</time>
      </trkpt>
      <trkpt lat="62.029584003612399" lon="7.274428959935904">
        <ele>1031.6300000000001</ele>
        <time>2017-06-20T11:12:24Z</time>
      </trkpt>
      <trkpt lat="62.029513008892536" lon="7.274285964667797">
        <ele>1031.6300000000001</ele>
        <time>2017-06-20T11:12:25Z</time>
      </trkpt>
      <trkpt lat="62.029447965323925" lon="7.274112962186337">
        <ele>1033.0699999999999</ele>
        <time>2017-06-20T11:12:26Z</time>
      </trkpt>
      <trkpt lat="62.029394991695881" lon="7.273920010775328">
        <ele>1033.55</ele>
        <time>2017-06-20T11:12:27Z</time>
      </trkpt>
      <trkpt lat="62.029358027502894" lon="7.273690011352301">
        <ele>1034.52</ele>
        <time>2017-06-20T11:12:28Z</time>
      </trkpt>
      <trkpt lat="62.029342018067837" lon="7.273437967523933">
        <ele>1035.48</ele>
        <time>2017-06-20T11:12:29Z</time>
      </trkpt>
      <trkpt lat="62.029343023896217" lon="7.273163963109255">
        <ele>1035.96</ele>
        <time>2017-06-20T11:12:30Z</time>
      </trkpt>
      <trkpt lat="62.029366996139288" lon="7.272887025028467">
        <ele>1036.4400000000001</ele>
        <time>2017-06-20T11:12:31Z</time>
      </trkpt>
      <trkpt lat="62.0294130127877" lon="7.272639004513621">
        <ele>1036.4400000000001</ele>
        <time>2017-06-20T11:12:32Z</time>
      </trkpt>
      <trkpt lat="62.029475038871169" lon="7.272449992597103">
        <ele>1036.4400000000001</ele>
        <time>2017-06-20T11:12:33Z</time>
      </trkpt>
      <trkpt lat="62.029560031369328" lon="7.2723120264709">
        <ele>1036.4400000000001</ele>
        <time>2017-06-20T11:12:34Z</time>
      </trkpt>
      <trkpt lat="62.029658015817404" lon="7.272188980132341">
        <ele>1036.9200000000001</ele>
        <time>2017-06-20T11:12:35Z</time>
      </trkpt>
      <trkpt lat="62.029857002198696" lon="7.271901983767748">
        <ele>1036.4400000000001</ele>
        <time>2017-06-20T11:12:37Z</time>
      </trkpt>
      <trkpt lat="62.029953980818391" lon="7.271726969629526">
        <ele>1036.4400000000001</ele>
        <time>2017-06-20T11:12:38Z</time>
      </trkpt>
      <trkpt lat="62.030042996630073" lon="7.271521026268601">
        <ele>1036.4400000000001</ele>
        <time>2017-06-20T11:12:39Z</time>
      </trkpt>
      <trkpt lat="62.030128994956613" lon="7.27128298021853">
        <ele>1036.4400000000001</ele>
        <time>2017-06-20T11:12:40Z</time>
      </trkpt>
      <trkpt lat="62.030214993283153" lon="7.271034037694335">
        <ele>1036.4400000000001</ele>
        <time>2017-06-20T11:12:41Z</time>
      </trkpt>
      <trkpt lat="62.031084029003978" lon="7.268515024334192">
        <ele>1035.96</ele>
        <time>2017-06-20T11:12:51Z</time>
      </trkpt>
      <trkpt lat="62.031230963766575" lon="7.268191985785961">
        <ele>1035.96</ele>
        <time>2017-06-20T11:12:53Z</time>
      </trkpt>
      <trkpt lat="62.031312016770244" lon="7.268056031316519">
        <ele>1035.96</ele>
        <time>2017-06-20T11:12:54Z</time>
      </trkpt>
      <trkpt lat="62.031401032581925" lon="7.267950000241399">
        <ele>1035.96</ele>
        <time>2017-06-20T11:12:55Z</time>
      </trkpt>
      <trkpt lat="62.031495999544859" lon="7.267874982208014">
        <ele>1035.48</ele>
        <time>2017-06-20T11:12:56Z</time>
      </trkpt>
      <trkpt lat="62.031602030619979" lon="7.267821002751589">
        <ele>1035.96</ele>
        <time>2017-06-20T11:12:57Z</time>
      </trkpt>
      <trkpt lat="62.03171300701797" lon="7.267774986103177">
        <ele>1035.96</ele>
        <time>2017-06-20T11:12:58Z</time>
      </trkpt>
      <trkpt lat="62.032489003613591" lon="7.267507016658783">
        <ele>1034.52</ele>
        <time>2017-06-20T11:13:05Z</time>
      </trkpt>
      <trkpt lat="62.032571984454989" lon="7.267416995018721">
        <ele>1034.52</ele>
        <time>2017-06-20T11:13:06Z</time>
      </trkpt>
      <trkpt lat="62.032645996659994" lon="7.267293026670814">
        <ele>1034.52</ele>
        <time>2017-06-20T11:13:07Z</time>
      </trkpt>
      <trkpt lat="62.032711040228605" lon="7.26713502779603">
        <ele>1034.52</ele>
        <time>2017-06-20T11:13:08Z</time>
      </trkpt>
      <trkpt lat="62.03276501968503" lon="7.266952972859144">
        <ele>1034.04</ele>
        <time>2017-06-20T11:13:09Z</time>
      </trkpt>
      <trkpt lat="62.032816987484694" lon="7.26674996316433">
        <ele>1033.55</ele>
        <time>2017-06-20T11:13:10Z</time>
      </trkpt>
      <trkpt lat="62.032867027446628" lon="7.26653597317636">
        <ele>1033.0699999999999</ele>
        <time>2017-06-20T11:13:11Z</time>
      </trkpt>
      <trkpt lat="62.03317497856915" lon="7.265220014378429">
        <ele>1030.1900000000001</ele>
        <time>2017-06-20T11:13:18Z</time>
      </trkpt>
      <trkpt lat="62.033235998824239" lon="7.265068972483277">
        <ele>1029.71</ele>
        <time>2017-06-20T11:13:19Z</time>
      </trkpt>
      <trkpt lat="62.033305987715721" lon="7.264937041327357">
        <ele>1028.75</ele>
        <time>2017-06-20T11:13:20Z</time>
      </trkpt>
      <trkpt lat="62.033387962728739" lon="7.264827992767096">
        <ele>1028.27</ele>
        <time>2017-06-20T11:13:21Z</time>
      </trkpt>
      <trkpt lat="62.033476978540421" lon="7.264738976955414">
        <ele>1027.79</ele>
        <time>2017-06-20T11:13:22Z</time>
      </trkpt>
      <trkpt lat="62.033565994352102" lon="7.264657001942396">
        <ele>1027.3099999999999</ele>
        <time>2017-06-20T11:13:23Z</time>
      </trkpt>
      <trkpt lat="62.03416395932436" lon="7.264089966192842">
        <ele>1024.9000000000001</ele>
        <time>2017-06-20T11:13:30Z</time>
      </trkpt>
      <trkpt lat="62.034233026206493" lon="7.263971026986837">
        <ele>1024.9000000000001</ele>
        <time>2017-06-20T11:13:31Z</time>
      </trkpt>
      <trkpt lat="62.034293040633202" lon="7.263852003961802">
        <ele>1024.9000000000001</ele>
        <time>2017-06-20T11:13:32Z</time>
      </trkpt>
      <trkpt lat="62.034345008432865" lon="7.263714037835598">
        <ele>1024.4200000000001</ele>
        <time>2017-06-20T11:13:33Z</time>
      </trkpt>
      <trkpt lat="62.034383984282613" lon="7.263552015647292">
        <ele>1023.9400000000001</ele>
        <time>2017-06-20T11:13:34Z</time>
      </trkpt>
      <trkpt lat="62.034411979839206" lon="7.263368032872677">
        <ele>1023.46</ele>
        <time>2017-06-20T11:13:35Z</time>
      </trkpt>
      <trkpt lat="62.034430000931025" lon="7.263165023177862">
        <ele>1022.98</ele>
        <time>2017-06-20T11:13:36Z</time>
      </trkpt>
      <trkpt lat="62.034443998709321" lon="7.262970982119441">
        <ele>1022.98</ele>
        <time>2017-06-20T11:13:37Z</time>
      </trkpt>
      <trkpt lat="62.034710962325335" lon="7.260953038930893">
        <ele>1018.65</ele>
        <time>2017-06-20T11:13:46Z</time>
      </trkpt>
      <trkpt lat="62.035291995853186" lon="7.259457036852837">
        <ele>1014.33</ele>
        <time>2017-06-20T11:13:54Z</time>
      </trkpt>
      <trkpt lat="62.036129012703896" lon="7.258577020838857">
        <ele>1010.48</ele>
        <time>2017-06-20T11:14:02Z</time>
      </trkpt>
      <trkpt lat="62.036242000758648" lon="7.258524969220161">
        <ele>1010</ele>
        <time>2017-06-20T11:14:03Z</time>
      </trkpt>
      <trkpt lat="62.03747196123004" lon="7.258246019482613">
        <ele>1001.35</ele>
        <time>2017-06-20T11:14:13Z</time>
      </trkpt>
      <trkpt lat="62.037595007568598" lon="7.258278038352728">
        <ele>1000.39</ele>
        <time>2017-06-20T11:14:14Z</time>
      </trkpt>
      <trkpt lat="62.037914022803307" lon="7.258380968123674">
        <ele>997.99000000000001</ele>
        <time>2017-06-20T11:14:17Z</time>
      </trkpt>
      <trkpt lat="62.038006978109479" lon="7.258356995880604">
        <ele>997.50999999999999</ele>
        <time>2017-06-20T11:14:18Z</time>
      </trkpt>
      <trkpt lat="62.038102028891444" lon="7.258280972018838">
        <ele>996.53999999999996</ele>
        <time>2017-06-20T11:14:19Z</time>
      </trkpt>
      <trkpt lat="62.038194984197617" lon="7.258164966478944">
        <ele>996.05999999999995</ele>
        <time>2017-06-20T11:14:20Z</time>
      </trkpt>
      <trkpt lat="62.038289029151201" lon="7.258033035323024">
        <ele>995.10000000000002</ele>
        <time>2017-06-20T11:14:21Z</time>
      </trkpt>
      <trkpt lat="62.038493966683745" lon="7.257838994264603">
        <ele>993.65999999999997</ele>
        <time>2017-06-20T11:14:23Z</time>
      </trkpt>
      <trkpt lat="62.038611983880401" lon="7.25779197178781">
        <ele>992.70000000000005</ele>
        <time>2017-06-20T11:14:24Z</time>
      </trkpt>
      <trkpt lat="62.038737963885069" lon="7.257778979837894">
        <ele>991.74000000000001</ele>
        <time>2017-06-20T11:14:25Z</time>
      </trkpt>
      <trkpt lat="62.038982966914773" lon="7.257756013423204">
        <ele>990.29999999999995</ele>
        <time>2017-06-20T11:14:27Z</time>
      </trkpt>
      <trkpt lat="62.039097966626287" lon="7.25770496763289">
        <ele>989.80999999999995</ele>
        <time>2017-06-20T11:14:28Z</time>
      </trkpt>
      <trkpt lat="62.039208021014929" lon="7.257610000669956">
        <ele>988.85000000000002</ele>
        <time>2017-06-20T11:14:29Z</time>
      </trkpt>
      <trkpt lat="62.039313968271017" lon="7.25746801123023">
        <ele>988.37</ele>
        <time>2017-06-20T11:14:30Z</time>
      </trkpt>
      <trkpt lat="62.039421005174518" lon="7.257282016798854">
        <ele>987.40999999999997</ele>
        <time>2017-06-20T11:14:31Z</time>
      </trkpt>
      <trkpt lat="62.039528964087367" lon="7.257072972133756">
        <ele>986.45000000000005</ele>
        <time>2017-06-20T11:14:32Z</time>
      </trkpt>
      <trkpt lat="62.040702011436224" lon="7.255008006468415">
        <ele>981.63999999999999</ele>
        <time>2017-06-20T11:14:42Z</time>
      </trkpt>
      <trkpt lat="62.040826985612512" lon="7.254914967343211">
        <ele>981.63999999999999</ele>
        <time>2017-06-20T11:14:43Z</time>
      </trkpt>
      <trkpt lat="62.040951959788799" lon="7.25484699010849">
        <ele>981.63999999999999</ele>
        <time>2017-06-20T11:14:44Z</time>
      </trkpt>
      <trkpt lat="62.04150902107358" lon="7.254556976258755">
        <ele>980.20000000000005</ele>
        <time>2017-06-20T11:14:49Z</time>
      </trkpt>
      <trkpt lat="62.041604993864894" lon="7.254553958773613">
        <ele>980.20000000000005</ele>
        <time>2017-06-20T11:14:50Z</time>
      </trkpt>
      <trkpt lat="62.041697027161717" lon="7.254574997350574">
        <ele>979.72000000000003</ele>
        <time>2017-06-20T11:14:51Z</time>
      </trkpt>
      <trkpt lat="62.042775023728609" lon="7.254835003986955">
        <ele>977.79999999999995</ele>
        <time>2017-06-20T11:15:00Z</time>
      </trkpt>
      <trkpt lat="62.043277015909553" lon="7.254815977066755">
        <ele>977.32000000000005</ele>
        <time>2017-06-20T11:15:04Z</time>
      </trkpt>
      <trkpt lat="62.043391009792686" lon="7.254758980125189">
        <ele>977.32000000000005</ele>
        <time>2017-06-20T11:15:05Z</time>
      </trkpt>
      <trkpt lat="62.043499974533916" lon="7.254663007333875">
        <ele>976.84000000000003</ele>
        <time>2017-06-20T11:15:06Z</time>
      </trkpt>
      <trkpt lat="62.043602988123894" lon="7.254530992358923">
        <ele>976.84000000000003</ele>
        <time>2017-06-20T11:15:07Z</time>
      </trkpt>
      <trkpt lat="62.043706001713872" lon="7.254377016797662">
        <ele>976.36000000000001</ele>
        <time>2017-06-20T11:15:08Z</time>
      </trkpt>
      <trkpt lat="62.044276976957917" lon="7.253653993830085">
        <ele>972.50999999999999</ele>
        <time>2017-06-20T11:15:13Z</time>
      </trkpt>
      <trkpt lat="62.044398011639714" lon="7.253604037687182">
        <ele>972.50999999999999</ele>
        <time>2017-06-20T11:15:14Z</time>
      </trkpt>
      <trkpt lat="62.044518040493131" lon="7.253575958311558">
        <ele>972.02999999999997</ele>
        <time>2017-06-20T11:15:15Z</time>
      </trkpt>
      <trkpt lat="62.044639997184277" lon="7.253545029088855">
        <ele>971.54999999999995</ele>
        <time>2017-06-20T11:15:16Z</time>
      </trkpt>
      <trkpt lat="62.044765977188945" lon="7.253490965813398">
        <ele>971.07000000000005</ele>
        <time>2017-06-20T11:15:17Z</time>
      </trkpt>
      <trkpt lat="62.044891035184264" lon="7.253407984972">
        <ele>970.59000000000003</ele>
        <time>2017-06-20T11:15:18Z</time>
      </trkpt>
      <trkpt lat="62.045016009360552" lon="7.253304971382022">
        <ele>970.59000000000003</ele>
        <time>2017-06-20T11:15:19Z</time>
      </trkpt>
      <trkpt lat="62.045580027624965" lon="7.252960978075862">
        <ele>969.63</ele>
        <time>2017-06-20T11:15:24Z</time>
      </trkpt>
      <trkpt lat="62.045680023729801" lon="7.252982016652823">
        <ele>969.63</ele>
        <time>2017-06-20T11:15:25Z</time>
      </trkpt>
      <trkpt lat="62.045774990692735" lon="7.25304395891726">
        <ele>969.63</ele>
        <time>2017-06-20T11:15:26Z</time>
      </trkpt>
      <trkpt lat="62.045868029817939" lon="7.253142027184367">
        <ele>969.63</ele>
        <time>2017-06-20T11:15:27Z</time>
      </trkpt>
      <trkpt lat="62.045956961810589" lon="7.253257026895881">
        <ele>969.14999999999998</ele>
        <time>2017-06-20T11:15:28Z</time>
      </trkpt>
      <trkpt lat="62.046205988153815" lon="7.253562966361642">
        <ele>968.17999999999995</ele>
        <time>2017-06-20T11:15:31Z</time>
      </trkpt>
      <trkpt lat="62.046292992308736" lon="7.253617029637098">
        <ele>968.17999999999995</ele>
        <time>2017-06-20T11:15:32Z</time>
      </trkpt>
      <trkpt lat="62.046385025605559" lon="7.253658017143607">
        <ele>967.70000000000005</ele>
        <time>2017-06-20T11:15:33Z</time>
      </trkpt>
      <trkpt lat="62.046483010053635" lon="7.253677966073155">
        <ele>966.74000000000001</ele>
        <time>2017-06-20T11:15:34Z</time>
      </trkpt>
      <trkpt lat="62.046590968966484" lon="7.253672014921904">
        <ele>966.25999999999999</ele>
        <time>2017-06-20T11:15:35Z</time>
      </trkpt>
      <trkpt lat="62.046702029183507" lon="7.253647958859801">
        <ele>965.29999999999995</ele>
        <time>2017-06-20T11:15:36Z</time>
      </trkpt>
      <trkpt lat="62.04681602306664" lon="7.253596996888518">
        <ele>964.82000000000005</ele>
        <time>2017-06-20T11:15:37Z</time>
      </trkpt>
      <trkpt lat="62.046929011121392" lon="7.253533964976668">
        <ele>963.38</ele>
        <time>2017-06-20T11:15:38Z</time>
      </trkpt>
      <trkpt lat="62.047036970034242" lon="7.253446960821748">
        <ele>962.41999999999996</ele>
        <time>2017-06-20T11:15:39Z</time>
      </trkpt>
      <trkpt lat="62.047450030222535" lon="7.253101961687207">
        <ele>959.04999999999995</ele>
        <time>2017-06-20T11:15:43Z</time>
      </trkpt>
      <trkpt lat="62.047551032155752" lon="7.253052005544305">
        <ele>958.57000000000005</ele>
        <time>2017-06-20T11:15:44Z</time>
      </trkpt>
      <trkpt lat="62.047855965793133" lon="7.252927031368017">
        <ele>955.69000000000005</ele>
        <time>2017-06-20T11:15:47Z</time>
      </trkpt>
      <trkpt lat="62.047950010746717" lon="7.252852013334632">
        <ele>954.73000000000002</ele>
        <time>2017-06-20T11:15:48Z</time>
      </trkpt>
      <trkpt lat="62.048039026558399" lon="7.252748999744654">
        <ele>954.25</ele>
        <time>2017-06-20T11:15:49Z</time>
      </trkpt>
      <trkpt lat="62.048351000994444" lon="7.252383967861533">
        <ele>951.36000000000001</ele>
        <time>2017-06-20T11:15:53Z</time>
      </trkpt>
      <trkpt lat="62.04842995852232" lon="7.252366030588746">
        <ele>950.39999999999998</ele>
        <time>2017-06-20T11:15:54Z</time>
      </trkpt>
      <trkpt lat="62.04851302318275" lon="7.252387991175056">
        <ele>949.44000000000005</ele>
        <time>2017-06-20T11:15:55Z</time>
      </trkpt>
      <trkpt lat="62.04860002733767" lon="7.252446999773383">
        <ele>948.48000000000002</ele>
        <time>2017-06-20T11:15:56Z</time>
      </trkpt>
      <trkpt lat="62.048683008179069" lon="7.252511959522963">
        <ele>947.03999999999996</ele>
        <time>2017-06-20T11:15:57Z</time>
      </trkpt>
      <trkpt lat="62.048851987347007" lon="7.252581026405096">
        <ele>945.11000000000001</ele>
        <time>2017-06-20T11:15:59Z</time>
      </trkpt>
      <trkpt lat="62.048939997330308" lon="7.252552025020123">
        <ele>944.14999999999998</ele>
        <time>2017-06-20T11:16:00Z</time>
      </trkpt>
      <trkpt lat="62.049033958464861" lon="7.252478012815118">
        <ele>943.66999999999996</ele>
        <time>2017-06-20T11:16:01Z</time>
      </trkpt>
      <trkpt lat="62.049129009246826" lon="7.252353960648179">
        <ele>942.71000000000004</ele>
        <time>2017-06-20T11:16:02Z</time>
      </trkpt>
      <trkpt lat="62.049225987866521" lon="7.252205014228821">
        <ele>941.75</ele>
        <time>2017-06-20T11:16:03Z</time>
      </trkpt>
      <trkpt lat="62.049509966745973" lon="7.25181601010263">
        <ele>938.38</ele>
        <time>2017-06-20T11:16:06Z</time>
      </trkpt>
      <trkpt lat="62.04960803501308" lon="7.25173101760447">
        <ele>937.41999999999996</ele>
        <time>2017-06-20T11:16:07Z</time>
      </trkpt>
      <trkpt lat="62.049709036946297" lon="7.251664968207479">
        <ele>937.41999999999996</ele>
        <time>2017-06-20T11:16:08Z</time>
      </trkpt>
      <trkpt lat="62.049808027222753" lon="7.251618029549718">
        <ele>936.46000000000004</ele>
        <time>2017-06-20T11:16:09Z</time>
      </trkpt>
      <trkpt lat="62.049902994185686" lon="7.251582993194461">
        <ele>935.5</ele>
        <time>2017-06-20T11:16:10Z</time>
      </trkpt>
      <trkpt lat="62.04999796114862" lon="7.251557009294629">
        <ele>935.01999999999998</ele>
        <time>2017-06-20T11:16:11Z</time>
      </trkpt>
      <trkpt lat="62.050539012998343" lon="7.251475034281611">
        <ele>929.73000000000002</ele>
        <time>2017-06-20T11:16:19Z</time>
      </trkpt>
      <trkpt lat="62.050604978576303" lon="7.251424994319677">
        <ele>928.28999999999996</ele>
        <time>2017-06-20T11:16:27Z</time>
      </trkpt>
      <trkpt lat="62.050603972747922" lon="7.251419965177774">
        <ele>928.76999999999998</ele>
        <time>2017-06-20T11:17:26Z</time>
      </trkpt>
      <trkpt lat="62.050720984116197" lon="7.251185020431876">
        <ele>927.33000000000004</ele>
        <time>2017-06-20T11:18:44Z</time>
      </trkpt>
      <trkpt lat="62.051086015999317" lon="7.250625025480986">
        <ele>923.48000000000002</ele>
        <time>2017-06-20T11:18:50Z</time>
      </trkpt>
      <trkpt lat="62.051175031810999" lon="7.250553024932742">
        <ele>922.51999999999998</ele>
        <time>2017-06-20T11:18:51Z</time>
      </trkpt>
      <trkpt lat="62.051271004602313" lon="7.250500973314047">
        <ele>921.55999999999995</ele>
        <time>2017-06-20T11:18:52Z</time>
      </trkpt>
      <trkpt lat="62.051368989050388" lon="7.25046400912106">
        <ele>920.60000000000002</ele>
        <time>2017-06-20T11:18:53Z</time>
      </trkpt>
      <trkpt lat="62.051470996811986" lon="7.250447999686003">
        <ele>920.12</ele>
        <time>2017-06-20T11:18:54Z</time>
      </trkpt>
      <trkpt lat="62.051578033715487" lon="7.250449005514383">
        <ele>919.15999999999997</ele>
        <time>2017-06-20T11:18:55Z</time>
      </trkpt>
      <trkpt lat="62.051685992628336" lon="7.25046300329268">
        <ele>918.67999999999995</ele>
        <time>2017-06-20T11:18:56Z</time>
      </trkpt>
      <trkpt lat="62.051889002323151" lon="7.250469038262963">
        <ele>916.75</ele>
        <time>2017-06-20T11:18:58Z</time>
      </trkpt>
      <trkpt lat="62.051995033398271" lon="7.250437019392848">
        <ele>915.78999999999996</ele>
        <time>2017-06-20T11:18:59Z</time>
      </trkpt>
      <trkpt lat="62.052107015624642" lon="7.250373987480998">
        <ele>914.35000000000002</ele>
        <time>2017-06-20T11:19:00Z</time>
      </trkpt>
      <trkpt lat="62.053244020789862" lon="7.249810975044966">
        <ele>906.65999999999997</ele>
        <time>2017-06-20T11:19:09Z</time>
      </trkpt>
      <trkpt lat="62.053342005237937" lon="7.24975498393178">
        <ele>905.22000000000003</ele>
        <time>2017-06-20T11:19:10Z</time>
      </trkpt>
      <trkpt lat="62.053428003564477" lon="7.249670997262001">
        <ele>904.74000000000001</ele>
        <time>2017-06-20T11:19:11Z</time>
      </trkpt>
      <trkpt lat="62.053494974970818" lon="7.249547028914094">
        <ele>904.25999999999999</ele>
        <time>2017-06-20T11:19:12Z</time>
      </trkpt>
      <trkpt lat="62.053546020761132" lon="7.249382995069027">
        <ele>903.77999999999997</ele>
        <time>2017-06-20T11:19:13Z</time>
      </trkpt>
      <trkpt lat="62.053578961640596" lon="7.249202029779553">
        <ele>902.82000000000005</ele>
        <time>2017-06-20T11:19:14Z</time>
      </trkpt>
      <trkpt lat="62.053600000217557" lon="7.249030033126473">
        <ele>901.85000000000002</ele>
        <time>2017-06-20T11:19:15Z</time>
      </trkpt>
      <trkpt lat="62.053691027686" lon="7.248692996799946">
        <ele>899.92999999999995</ele>
        <time>2017-06-20T11:19:18Z</time>
      </trkpt>
      <trkpt lat="62.05373503267765" lon="7.248674975708127">
        <ele>899.45000000000005</ele>
        <time>2017-06-20T11:19:19Z</time>
      </trkpt>
      <trkpt lat="62.053767973557115" lon="7.248729960992932">
        <ele>898.00999999999999</ele>
        <time>2017-06-20T11:19:20Z</time>
      </trkpt>
      <trkpt lat="62.05379999242723" lon="7.248844960704446">
        <ele>897.04999999999995</ele>
        <time>2017-06-20T11:19:21Z</time>
      </trkpt>
      <trkpt lat="62.053819019347429" lon="7.249019974842668">
        <ele>895.61000000000001</ele>
        <time>2017-06-20T11:19:22Z</time>
      </trkpt>
      <trkpt lat="62.053833017125726" lon="7.249247962608933">
        <ele>894.15999999999997</ele>
        <time>2017-06-20T11:19:23Z</time>
      </trkpt>
      <trkpt lat="62.053840979933739" lon="7.249505035579205">
        <ele>892.24000000000001</ele>
        <time>2017-06-20T11:19:24Z</time>
      </trkpt>
      <trkpt lat="62.0538239646703" lon="7.250632988288999">
        <ele>887.42999999999995</ele>
        <time>2017-06-20T11:19:28Z</time>
      </trkpt>
      <trkpt lat="62.053791023790836" lon="7.250882014632225">
        <ele>886.47000000000003</ele>
        <time>2017-06-20T11:19:29Z</time>
      </trkpt>
      <trkpt lat="62.053744001314044" lon="7.251102039590478">
        <ele>885.02999999999997</ele>
        <time>2017-06-20T11:19:30Z</time>
      </trkpt>
      <trkpt lat="62.0536720007658" lon="7.251285016536713">
        <ele>883.59000000000003</ele>
        <time>2017-06-20T11:19:31Z</time>
      </trkpt>
      <trkpt lat="62.053587008267641" lon="7.251434968784452">
        <ele>882.63</ele>
        <time>2017-06-20T11:19:32Z</time>
      </trkpt>
      <trkpt lat="62.053485000506043" lon="7.251550974324346">
        <ele>881.66999999999996</ele>
        <time>2017-06-20T11:19:33Z</time>
      </trkpt>
      <trkpt lat="62.05337000079453" lon="7.25160101428628">
        <ele>880.71000000000004</ele>
        <time>2017-06-20T11:19:34Z</time>
      </trkpt>
      <trkpt lat="62.053252989426255" lon="7.251600008457899">
        <ele>880.22000000000003</ele>
        <time>2017-06-20T11:19:35Z</time>
      </trkpt>
      <trkpt lat="62.053133966401219" lon="7.251588022336364">
        <ele>879.74000000000001</ele>
        <time>2017-06-20T11:19:36Z</time>
      </trkpt>
      <trkpt lat="62.052913019433618" lon="7.251605037599802">
        <ele>879.25999999999999</ele>
        <time>2017-06-20T11:19:38Z</time>
      </trkpt>
      <trkpt lat="62.052806988358498" lon="7.251650970429182">
        <ele>878.29999999999995</ele>
        <time>2017-06-20T11:19:39Z</time>
      </trkpt>
      <trkpt lat="62.052703974768519" lon="7.251718025654554">
        <ele>877.82000000000005</ele>
        <time>2017-06-20T11:19:40Z</time>
      </trkpt>
      <trkpt lat="62.052601967006922" lon="7.251813998445869">
        <ele>877.34000000000003</ele>
        <time>2017-06-20T11:19:41Z</time>
      </trkpt>
      <trkpt lat="62.052511023357511" lon="7.251926986500621">
        <ele>876.38</ele>
        <time>2017-06-20T11:19:42Z</time>
      </trkpt>
      <trkpt lat="62.052254034206271" lon="7.252254970371723">
        <ele>874.46000000000004</ele>
        <time>2017-06-20T11:19:45Z</time>
      </trkpt>
      <trkpt lat="62.052196031436324" lon="7.252411041408777">
        <ele>872.04999999999995</ele>
        <time>2017-06-20T11:19:46Z</time>
      </trkpt>
      <trkpt lat="62.05216602422297" lon="7.252564011141658">
        <ele>870.61000000000001</ele>
        <time>2017-06-20T11:19:47Z</time>
      </trkpt>
      <trkpt lat="62.052163006737828" lon="7.252714969217777">
        <ele>870.61000000000001</ele>
        <time>2017-06-20T11:19:48Z</time>
      </trkpt>
      <trkpt lat="62.052189996466041" lon="7.252858970314264">
        <ele>870.61000000000001</ele>
        <time>2017-06-20T11:19:49Z</time>
      </trkpt>
      <trkpt lat="62.052235007286072" lon="7.252972964197397">
        <ele>869.64999999999998</ele>
        <time>2017-06-20T11:19:50Z</time>
      </trkpt>
      <trkpt lat="62.052298039197922" lon="7.253076983615756">
        <ele>868.21000000000004</ele>
        <time>2017-06-20T11:19:51Z</time>
      </trkpt>
      <trkpt lat="62.052378002554178" lon="7.25314998999238">
        <ele>867.25</ele>
        <time>2017-06-20T11:19:52Z</time>
      </trkpt>
      <trkpt lat="62.052465006709099" lon="7.253221990540624">
        <ele>866.28999999999996</ele>
        <time>2017-06-20T11:19:53Z</time>
      </trkpt>
      <trkpt lat="62.052634991705418" lon="7.253389963880181">
        <ele>864.36000000000001</ele>
        <time>2017-06-20T11:19:55Z</time>
      </trkpt>
      <trkpt lat="62.052706992253661" lon="7.253490965813398">
        <ele>863.39999999999998</ele>
        <time>2017-06-20T11:19:56Z</time>
      </trkpt>
      <trkpt lat="62.052763989195228" lon="7.253607977181673">
        <ele>862.44000000000005</ele>
        <time>2017-06-20T11:19:57Z</time>
      </trkpt>
      <trkpt lat="62.052797013893723" lon="7.253757007420063">
        <ele>861.48000000000002</ele>
        <time>2017-06-20T11:19:58Z</time>
      </trkpt>
      <trkpt lat="62.052793996408582" lon="7.253905031830072">
        <ele>860.03999999999996</ele>
        <time>2017-06-20T11:19:59Z</time>
      </trkpt>
      <trkpt lat="62.052761977538466" lon="7.254032017663121">
        <ele>859.55999999999995</ele>
        <time>2017-06-20T11:20:00Z</time>
      </trkpt>
      <trkpt lat="62.052715038880706" lon="7.254167972132564">
        <ele>859.08000000000004</ele>
        <time>2017-06-20T11:20:01Z</time>
      </trkpt>
      <trkpt lat="62.052651001140475" lon="7.254309039562941">
        <ele>858.11000000000001</ele>
        <time>2017-06-20T11:20:02Z</time>
      </trkpt>
      <trkpt lat="62.052580006420612" lon="7.25445999763906">
        <ele>857.14999999999998</ele>
        <time>2017-06-20T11:20:03Z</time>
      </trkpt>
      <trkpt lat="62.052169963717461" lon="7.255210010334849">
        <ele>852.35000000000002</ele>
        <time>2017-06-20T11:20:09Z</time>
      </trkpt>
      <trkpt lat="62.052134005352855" lon="7.255361974239349">
        <ele>851.38</ele>
        <time>2017-06-20T11:20:10Z</time>
      </trkpt>
      <trkpt lat="62.052131993696094" lon="7.255514021962881">
        <ele>850.89999999999998</ele>
        <time>2017-06-20T11:20:11Z</time>
      </trkpt>
      <trkpt lat="62.052164012566209" lon="7.255652993917465">
        <ele>849.94000000000005</ele>
        <time>2017-06-20T11:20:12Z</time>
      </trkpt>
      <trkpt lat="62.052222015336156" lon="7.255760030820966">
        <ele>848.5</ele>
        <time>2017-06-20T11:20:13Z</time>
      </trkpt>
      <trkpt lat="62.052298961207271" lon="7.255834965035319">
        <ele>846.58000000000004</ele>
        <time>2017-06-20T11:20:14Z</time>
      </trkpt>
      <trkpt lat="62.052399963140488" lon="7.255879975855351">
        <ele>846.10000000000002</ele>
        <time>2017-06-20T11:20:15Z</time>
      </trkpt>
      <trkpt lat="62.052511023357511" lon="7.25592196919024">
        <ele>844.65999999999997</ele>
        <time>2017-06-20T11:20:16Z</time>
      </trkpt>
      <trkpt lat="62.052744040265679" lon="7.256044009700418">
        <ele>841.76999999999998</ele>
        <time>2017-06-20T11:20:18Z</time>
      </trkpt>
      <trkpt lat="62.052861973643303" lon="7.256135959178209">
        <ele>840.33000000000004</ele>
        <time>2017-06-20T11:20:19Z</time>
      </trkpt>
      <trkpt lat="62.052978985011578" lon="7.256245007738471">
        <ele>838.88999999999999</ele>
        <time>2017-06-20T11:20:20Z</time>
      </trkpt>
      <trkpt lat="62.054082965478301" lon="7.257354017347097">
        <ele>828.78999999999996</ele>
        <time>2017-06-20T11:20:29Z</time>
      </trkpt>
      <trkpt lat="62.05500497482717" lon="7.257749978452921">
        <ele>820.13999999999999</ele>
        <time>2017-06-20T11:20:37Z</time>
      </trkpt>
      <trkpt lat="62.055103965103626" lon="7.25781200453639">
        <ele>819.65999999999997</ele>
        <time>2017-06-20T11:20:38Z</time>
      </trkpt>
      <trkpt lat="62.055198010057211" lon="7.257894985377789">
        <ele>819.17999999999995</ele>
        <time>2017-06-20T11:20:39Z</time>
      </trkpt>
      <trkpt lat="62.056236024945974" lon="7.25920801050961">
        <ele>809.09000000000003</ele>
        <time>2017-06-20T11:20:48Z</time>
      </trkpt>
      <trkpt lat="62.05717496573925" lon="7.260374017059803">
        <ele>799.47000000000003</ele>
        <time>2017-06-20T11:20:55Z</time>
      </trkpt>
      <trkpt lat="62.057304969057441" lon="7.260477030649781">
        <ele>798.02999999999997</ele>
        <time>2017-06-20T11:20:56Z</time>
      </trkpt>
      <trkpt lat="62.057432038709521" lon="7.260555988177657">
        <ele>796.59000000000003</ele>
        <time>2017-06-20T11:20:57Z</time>
      </trkpt>
      <trkpt lat="62.057648040354252" lon="7.260698983445764">
        <ele>794.19000000000005</ele>
        <time>2017-06-20T11:20:59Z</time>
      </trkpt>
      <trkpt lat="62.057728003710508" lon="7.260814988985658">
        <ele>793.22000000000003</ele>
        <time>2017-06-20T11:21:00Z</time>
      </trkpt>
      <trkpt lat="62.05779598094523" lon="7.260973993688822">
        <ele>791.77999999999997</ele>
        <time>2017-06-20T11:21:01Z</time>
      </trkpt>
      <trkpt lat="62.057858007028699" lon="7.261169040575624">
        <ele>790.34000000000003</ele>
        <time>2017-06-20T11:21:02Z</time>
      </trkpt>
      <trkpt lat="62.057917015627027" lon="7.261382024735212">
        <ele>788.89999999999998</ele>
        <time>2017-06-20T11:21:03Z</time>
      </trkpt>
      <trkpt lat="62.057970995083451" lon="7.261609006673098">
        <ele>787.46000000000004</ele>
        <time>2017-06-20T11:21:04Z</time>
      </trkpt>
      <trkpt lat="62.058151038363576" lon="7.262543002143502">
        <ele>783.61000000000001</ele>
        <time>2017-06-20T11:21:09Z</time>
      </trkpt>
      <trkpt lat="62.058189008384943" lon="7.262642998248339">
        <ele>783.13</ele>
        <time>2017-06-20T11:21:10Z</time>
      </trkpt>
      <trkpt lat="62.058236030861735" lon="7.262676022946835">
        <ele>782.64999999999998</ele>
        <time>2017-06-20T11:21:11Z</time>
      </trkpt>
      <trkpt lat="62.058281041681767" lon="7.262647021561861">
        <ele>782.64999999999998</ele>
        <time>2017-06-20T11:21:12Z</time>
      </trkpt>
      <trkpt lat="62.058307025581598" lon="7.262558005750179">
        <ele>782.16999999999996</ele>
        <time>2017-06-20T11:21:13Z</time>
      </trkpt>
      <trkpt lat="62.058300990611315" lon="7.262422973290086">
        <ele>780.25</ele>
        <time>2017-06-20T11:21:14Z</time>
      </trkpt>
      <trkpt lat="62.058283975347877" lon="7.262263968586922">
        <ele>780.25</ele>
        <time>2017-06-20T11:21:15Z</time>
      </trkpt>
      <trkpt lat="62.058246005326509" lon="7.261874964460731">
        <ele>778.80999999999995</ele>
        <time>2017-06-20T11:21:17Z</time>
      </trkpt>
      <trkpt lat="62.058203006163239" lon="7.261165017262101">
        <ele>775.44000000000005</ele>
        <time>2017-06-20T11:21:20Z</time>
      </trkpt>
      <trkpt lat="62.058171993121505" lon="7.260935017839074">
        <ele>774.48000000000002</ele>
        <time>2017-06-20T11:21:21Z</time>
      </trkpt>
      <trkpt lat="62.058122958987951" lon="7.260702000930905">
        <ele>773.51999999999998</ele>
        <time>2017-06-20T11:21:22Z</time>
      </trkpt>
      <trkpt lat="62.058055987581611" lon="7.260488010942936">
        <ele>773.03999999999996</ele>
        <time>2017-06-20T11:21:23Z</time>
      </trkpt>
      <trkpt lat="62.05796898342669" lon="7.260306961834431">
        <ele>772.08000000000004</ele>
        <time>2017-06-20T11:21:24Z</time>
      </trkpt>
      <trkpt lat="62.057870998978615" lon="7.260147035121918">
        <ele>771.11000000000001</ele>
        <time>2017-06-20T11:21:25Z</time>
      </trkpt>
      <trkpt lat="62.057771002873778" lon="7.259995993226767">
        <ele>769.66999999999996</ele>
        <time>2017-06-20T11:21:26Z</time>
      </trkpt>
      <trkpt lat="62.057605041190982" lon="7.259654011577368">
        <ele>768.23000000000002</ele>
        <time>2017-06-20T11:21:28Z</time>
      </trkpt>
      <trkpt lat="62.057539997622371" lon="7.259456031024456">
        <ele>767.26999999999998</ele>
        <time>2017-06-20T11:21:29Z</time>
      </trkpt>
      <trkpt lat="62.057487023994327" lon="7.259246986359358">
        <ele>766.78999999999996</ele>
        <time>2017-06-20T11:21:30Z</time>
      </trkpt>
      <trkpt lat="62.057346040382981" lon="7.258469983935356">
        <ele>763.89999999999998</ele>
        <time>2017-06-20T11:21:34Z</time>
      </trkpt>
      <trkpt lat="62.057334976270795" lon="7.258288012817502">
        <ele>762.94000000000005</ele>
        <time>2017-06-20T11:21:35Z</time>
      </trkpt>
      <trkpt lat="62.057348974049091" lon="7.25813303142786">
        <ele>761.98000000000002</ele>
        <time>2017-06-20T11:21:36Z</time>
      </trkpt>
      <trkpt lat="62.057397002354264" lon="7.258019037544727">
        <ele>761.5</ele>
        <time>2017-06-20T11:21:37Z</time>
      </trkpt>
      <trkpt lat="62.057466991245747" lon="7.257958017289639">
        <ele>761.01999999999998</ele>
        <time>2017-06-20T11:21:38Z</time>
      </trkpt>
      <trkpt lat="62.057550977915525" lon="7.25791803561151">
        <ele>760.53999999999996</ele>
        <time>2017-06-20T11:21:39Z</time>
      </trkpt>
      <trkpt lat="62.05764502286911" lon="7.25791702978313">
        <ele>760.05999999999995</ele>
        <time>2017-06-20T11:21:40Z</time>
      </trkpt>
      <trkpt lat="62.05773001536727" lon="7.257950976490974">
        <ele>759.10000000000002</ele>
        <time>2017-06-20T11:21:41Z</time>
      </trkpt>
      <trkpt lat="62.057797992601991" lon="7.258030017837882">
        <ele>758.13999999999999</ele>
        <time>2017-06-20T11:21:42Z</time>
      </trkpt>
      <trkpt lat="62.057851972058415" lon="7.258147029206157">
        <ele>757.17999999999995</ele>
        <time>2017-06-20T11:21:43Z</time>
      </trkpt>
      <trkpt lat="62.057901006191969" lon="7.258299998939037">
        <ele>756.21000000000004</ele>
        <time>2017-06-20T11:21:44Z</time>
      </trkpt>
      <trkpt lat="62.057939982041717" lon="7.258461015298963">
        <ele>755.25</ele>
        <time>2017-06-20T11:21:45Z</time>
      </trkpt>
      <trkpt lat="62.058063028380275" lon="7.258712975308299">
        <ele>752.85000000000002</ele>
        <time>2017-06-20T11:21:47Z</time>
      </trkpt>
      <trkpt lat="62.058151960372925" lon="7.25875798612833">
        <ele>751.40999999999997</ele>
        <time>2017-06-20T11:21:48Z</time>
      </trkpt>
      <trkpt lat="62.058252040296793" lon="7.258751029148698">
        <ele>750.45000000000005</ele>
        <time>2017-06-20T11:21:49Z</time>
      </trkpt>
      <trkpt lat="62.058352958410978" lon="7.258694032207131">
        <ele>749.49000000000001</ele>
        <time>2017-06-20T11:21:50Z</time>
      </trkpt>
      <trkpt lat="62.058454966172576" lon="7.258594036102295">
        <ele>748.51999999999998</ele>
        <time>2017-06-20T11:21:51Z</time>
      </trkpt>
      <trkpt lat="62.058554040268064" lon="7.258494962006807">
        <ele>747.55999999999995</ele>
        <time>2017-06-20T11:21:52Z</time>
      </trkpt>
      <trkpt lat="62.058750009164214" lon="7.25834702141583">
        <ele>745.15999999999997</ele>
        <time>2017-06-20T11:21:54Z</time>
      </trkpt>
      <trkpt lat="62.058855034410954" lon="7.258329000324011">
        <ele>743.72000000000003</ele>
        <time>2017-06-20T11:21:55Z</time>
      </trkpt>
      <trkpt lat="62.058961987495422" lon="7.258359007537365">
        <ele>741.78999999999996</ele>
        <time>2017-06-20T11:21:56Z</time>
      </trkpt>
      <trkpt lat="62.059074975550175" lon="7.258418016135693">
        <ele>741.30999999999995</ele>
        <time>2017-06-20T11:21:57Z</time>
      </trkpt>
      <trkpt lat="62.059189975261688" lon="7.258495967835188">
        <ele>740.35000000000002</ele>
        <time>2017-06-20T11:21:58Z</time>
      </trkpt>
      <trkpt lat="62.059736978262663" lon="7.258967030793428">
        <ele>735.07000000000005</ele>
        <time>2017-06-20T11:22:03Z</time>
      </trkpt>
      <trkpt lat="62.059814007952809" lon="7.259088987484574">
        <ele>734.10000000000002</ele>
        <time>2017-06-20T11:22:04Z</time>
      </trkpt>
      <trkpt lat="62.059877039864659" lon="7.259215973317623">
        <ele>733.13999999999999</ele>
        <time>2017-06-20T11:22:05Z</time>
      </trkpt>
      <trkpt lat="62.060029003769159" lon="7.259471034631133">
        <ele>731.70000000000005</ele>
        <time>2017-06-20T11:22:08Z</time>
      </trkpt>
      <trkpt lat="62.06007300876081" lon="7.259459970518947">
        <ele>731.70000000000005</ele>
        <time>2017-06-20T11:22:09Z</time>
      </trkpt>
      <trkpt lat="62.060099998489022" lon="7.259397022426128">
        <ele>730.74000000000001</ele>
        <time>2017-06-20T11:22:10Z</time>
      </trkpt>
      <trkpt lat="62.060106033459306" lon="7.259295014664531">
        <ele>730.25999999999999</ele>
        <time>2017-06-20T11:22:11Z</time>
      </trkpt>
      <trkpt lat="62.060094969347119" lon="7.259154031053186">
        <ele>730.25999999999999</ele>
        <time>2017-06-20T11:22:12Z</time>
      </trkpt>
      <trkpt lat="62.060053981840611" lon="7.259008018299937">
        <ele>729.29999999999995</ele>
        <time>2017-06-20T11:22:13Z</time>
      </trkpt>
      <trkpt lat="62.059995979070663" lon="7.258862005546689">
        <ele>728.82000000000005</ele>
        <time>2017-06-20T11:22:14Z</time>
      </trkpt>
      <trkpt lat="62.059926996007562" lon="7.258704006671906">
        <ele>727.86000000000001</ele>
        <time>2017-06-20T11:22:15Z</time>
      </trkpt>
      <trkpt lat="62.059589037671685" lon="7.258042003959417">
        <ele>724.97000000000003</ele>
        <time>2017-06-20T11:22:20Z</time>
      </trkpt>
      <trkpt lat="62.059560958296061" lon="7.257933039218187">
        <ele>724.49000000000001</ele>
        <time>2017-06-20T11:22:21Z</time>
      </trkpt>
      <trkpt lat="62.059562969952822" lon="7.257830025628209">
        <ele>724.00999999999999</ele>
        <time>2017-06-20T11:22:22Z</time>
      </trkpt>
      <trkpt lat="62.059589959681034" lon="7.257750984281302">
        <ele>723.52999999999997</ele>
        <time>2017-06-20T11:22:23Z</time>
      </trkpt>
      <trkpt lat="62.059631031006575" lon="7.257718965411186">
        <ele>723.04999999999995</ele>
        <time>2017-06-20T11:22:24Z</time>
      </trkpt>
      <trkpt lat="62.059676963835955" lon="7.257740003988147">
        <ele>722.57000000000005</ele>
        <time>2017-06-20T11:22:25Z</time>
      </trkpt>
      <trkpt lat="62.059716023504734" lon="7.257797000929713">
        <ele>722.09000000000003</ele>
        <time>2017-06-20T11:22:26Z</time>
      </trkpt>
      <trkpt lat="62.059761034324765" lon="7.257886016741395">
        <ele>721.61000000000001</ele>
        <time>2017-06-20T11:22:27Z</time>
      </trkpt>
      <trkpt lat="62.059813002124429" lon="7.257986012846232">
        <ele>720.15999999999997</ele>
        <time>2017-06-20T11:22:28Z</time>
      </trkpt>
      <trkpt lat="62.060273000970483" lon="7.258719010278583">
        <ele>714.88</ele>
        <time>2017-06-20T11:22:34Z</time>
      </trkpt>
      <trkpt lat="62.060340978205204" lon="7.258901987224817">
        <ele>713.44000000000005</ele>
        <time>2017-06-20T11:22:35Z</time>
      </trkpt>
      <trkpt lat="62.060391018167138" lon="7.259104996919632">
        <ele>711.99000000000001</ele>
        <time>2017-06-20T11:22:36Z</time>
      </trkpt>
      <trkpt lat="62.060419013723731" lon="7.259324016049504">
        <ele>711.02999999999997</ele>
        <time>2017-06-20T11:22:37Z</time>
      </trkpt>
      <trkpt lat="62.060430999845266" lon="7.259543035179377">
        <ele>710.54999999999995</ele>
        <time>2017-06-20T11:22:38Z</time>
      </trkpt>
      <trkpt lat="62.060425970703363" lon="7.25976599380374">
        <ele>710.07000000000005</ele>
        <time>2017-06-20T11:22:39Z</time>
      </trkpt>
      <trkpt lat="62.060415996238589" lon="7.259983001276851">
        <ele>709.11000000000001</ele>
        <time>2017-06-20T11:22:40Z</time>
      </trkpt>
      <trkpt lat="62.060409039258957" lon="7.260424979031086">
        <ele>707.19000000000005</ele>
        <time>2017-06-20T11:22:42Z</time>
      </trkpt>
      <trkpt lat="62.060425970703363" lon="7.260653972625732">
        <ele>706.23000000000002</ele>
        <time>2017-06-20T11:22:43Z</time>
      </trkpt>
      <trkpt lat="62.060452960431576" lon="7.260870980098844">
        <ele>705.25999999999999</ele>
        <time>2017-06-20T11:22:44Z</time>
      </trkpt>
      <trkpt lat="62.060565026476979" lon="7.261778991669416">
        <ele>701.89999999999998</ele>
        <time>2017-06-20T11:22:48Z</time>
      </trkpt>
      <trkpt lat="62.060572989284992" lon="7.262012008577585">
        <ele>700.94000000000005</ele>
        <time>2017-06-20T11:22:49Z</time>
      </trkpt>
      <trkpt lat="62.06056703813374" lon="7.262233039364219">
        <ele>700.46000000000004</ele>
        <time>2017-06-20T11:22:50Z</time>
      </trkpt>
      <trkpt lat="62.060552034527063" lon="7.262440994381905">
        <ele>699.01999999999998</ele>
        <time>2017-06-20T11:22:51Z</time>
      </trkpt>
      <trkpt lat="62.060527978464961" lon="7.262635035440326">
        <ele>698.52999999999997</ele>
        <time>2017-06-20T11:22:52Z</time>
      </trkpt>
      <trkpt lat="62.060498977079988" lon="7.262812983244658">
        <ele>697.57000000000005</ele>
        <time>2017-06-20T11:22:53Z</time>
      </trkpt>
      <trkpt lat="62.06046000123024" lon="7.262970982119441">
        <ele>697.09000000000003</ele>
        <time>2017-06-20T11:22:54Z</time>
      </trkpt>
      <trkpt lat="62.060412978753448" lon="7.263127975165844">
        <ele>696.61000000000001</ele>
        <time>2017-06-20T11:22:55Z</time>
      </trkpt>
      <trkpt lat="62.060355981811881" lon="7.263285974040628">
        <ele>695.64999999999998</ele>
        <time>2017-06-20T11:22:56Z</time>
      </trkpt>
      <trkpt lat="62.060285992920399" lon="7.263443972915411">
        <ele>695.16999999999996</ele>
        <time>2017-06-20T11:22:57Z</time>
      </trkpt>
      <trkpt lat="62.060207035392523" lon="7.263601971790195">
        <ele>694.21000000000004</ele>
        <time>2017-06-20T11:22:58Z</time>
      </trkpt>
      <trkpt lat="62.059571016579866" lon="7.264660019427538">
        <ele>687.96000000000004</ele>
        <time>2017-06-20T11:23:05Z</time>
      </trkpt>
      <trkpt lat="62.059501027688384" lon="7.264830004423857">
        <ele>686.51999999999998</ele>
        <time>2017-06-20T11:23:06Z</time>
      </trkpt>
      <trkpt lat="62.059443024918437" lon="7.26501096971333">
        <ele>685.55999999999995</ele>
        <time>2017-06-20T11:23:07Z</time>
      </trkpt>
      <trkpt lat="62.059396002441645" lon="7.265195958316326">
        <ele>684.60000000000002</ele>
        <time>2017-06-20T11:23:08Z</time>
      </trkpt>
      <trkpt lat="62.059354009106755" lon="7.26537499576807">
        <ele>683.63</ele>
        <time>2017-06-20T11:23:09Z</time>
      </trkpt>
      <trkpt lat="62.058987971395254" lon="7.267738021910191">
        <ele>672.58000000000004</ele>
        <time>2017-06-20T11:23:21Z</time>
      </trkpt>
      <trkpt lat="62.05848203971982" lon="7.270326018333435">
        <ele>662.97000000000003</ele>
        <time>2017-06-20T11:23:34Z</time>
      </trkpt>
      <trkpt lat="62.058373996987939" lon="7.271279040724039">
        <ele>660.08000000000004</ele>
        <time>2017-06-20T11:23:40Z</time>
      </trkpt>
      <trkpt lat="62.058379026129842" lon="7.271394040435553">
        <ele>660.08000000000004</ele>
        <time>2017-06-20T11:23:41Z</time>
      </trkpt>
      <trkpt lat="62.05839897505939" lon="7.271471992135048">
        <ele>659.60000000000002</ele>
        <time>2017-06-20T11:23:42Z</time>
      </trkpt>
      <trkpt lat="62.058425964787602" lon="7.271513985469937">
        <ele>659.60000000000002</ele>
        <time>2017-06-20T11:23:43Z</time>
      </trkpt>
      <trkpt lat="62.058454966172576" lon="7.271522032096982">
        <ele>659.12</ele>
        <time>2017-06-20T11:23:44Z</time>
      </trkpt>
      <trkpt lat="62.058487990871072" lon="7.271510967984796">
        <ele>658.63999999999999</ele>
        <time>2017-06-20T11:23:45Z</time>
      </trkpt>
      <trkpt lat="62.058522021397948" lon="7.271464029327035">
        <ele>658.63999999999999</ele>
        <time>2017-06-20T11:23:46Z</time>
      </trkpt>
      <trkpt lat="62.058553034439683" lon="7.271376019343734">
        <ele>657.67999999999995</ele>
        <time>2017-06-20T11:23:47Z</time>
      </trkpt>
      <trkpt lat="62.05859100446105" lon="7.271247021853924">
        <ele>657.20000000000005</ele>
        <time>2017-06-20T11:23:48Z</time>
      </trkpt>
      <trkpt lat="62.058975985273719" lon="7.269682036712766">
        <ele>650.47000000000003</ele>
        <time>2017-06-20T11:23:56Z</time>
      </trkpt>
      <trkpt lat="62.059354009106755" lon="7.268727002665401">
        <ele>645.17999999999995</ele>
        <time>2017-06-20T11:24:01Z</time>
      </trkpt>
      <trkpt lat="62.059992961585522" lon="7.266913997009397">
        <ele>637.49000000000001</ele>
        <time>2017-06-20T11:24:12Z</time>
      </trkpt>
      <trkpt lat="62.060799971222878" lon="7.265307018533349">
        <ele>631.24000000000001</ele>
        <time>2017-06-20T11:24:23Z</time>
      </trkpt>
      <trkpt lat="62.061787024140358" lon="7.263807998970151">
        <ele>623.54999999999995</ele>
        <time>2017-06-20T11:24:35Z</time>
      </trkpt>
      <trkpt lat="62.062227996066213" lon="7.262793034315109">
        <ele>617.29999999999995</ele>
        <time>2017-06-20T11:24:43Z</time>
      </trkpt>
      <trkpt lat="62.062261020764709" lon="7.262621959671378">
        <ele>616.34000000000003</ele>
        <time>2017-06-20T11:24:44Z</time>
      </trkpt>
      <trkpt lat="62.062292033806443" lon="7.262450968846679">
        <ele>615.38</ele>
        <time>2017-06-20T11:24:45Z</time>
      </trkpt>
      <trkpt lat="62.062298990786076" lon="7.262289030477405">
        <ele>612.98000000000002</ele>
        <time>2017-06-20T11:24:46Z</time>
      </trkpt>
      <trkpt lat="62.062303014099598" lon="7.262114016339183">
        <ele>612.98000000000002</ele>
        <time>2017-06-20T11:24:47Z</time>
      </trkpt>
      <trkpt lat="62.062301002442837" lon="7.261960962787271">
        <ele>611.53999999999996</ele>
        <time>2017-06-20T11:24:48Z</time>
      </trkpt>
      <trkpt lat="62.062303014099598" lon="7.261743033304811">
        <ele>608.64999999999998</ele>
        <time>2017-06-20T11:24:50Z</time>
      </trkpt>
      <trkpt lat="62.062345007434487" lon="7.261682013049722">
        <ele>608.16999999999996</ele>
        <time>2017-06-20T11:24:51Z</time>
      </trkpt>
      <trkpt lat="62.062388006597757" lon="7.261663991957903">
        <ele>607.69000000000005</ele>
        <time>2017-06-20T11:24:52Z</time>
      </trkpt>
      <trkpt lat="62.062418013811111" lon="7.26170196197927">
        <ele>607.21000000000004</ele>
        <time>2017-06-20T11:24:53Z</time>
      </trkpt>
      <trkpt lat="62.062451960518956" lon="7.261798018589616">
        <ele>605.76999999999998</ele>
        <time>2017-06-20T11:24:54Z</time>
      </trkpt>
      <trkpt lat="62.062475010752678" lon="7.261920981109142">
        <ele>604.80999999999995</ele>
        <time>2017-06-20T11:24:55Z</time>
      </trkpt>
      <trkpt lat="62.062494959682226" lon="7.262069005519152">
        <ele>603.36000000000001</ele>
        <time>2017-06-20T11:24:56Z</time>
      </trkpt>
      <trkpt lat="62.062509041279554" lon="7.262238990515471">
        <ele>602.39999999999998</ele>
        <time>2017-06-20T11:24:57Z</time>
      </trkpt>
      <trkpt lat="62.062514992430806" lon="7.262410987168551">
        <ele>601.44000000000005</ele>
        <time>2017-06-20T11:24:58Z</time>
      </trkpt>
      <trkpt lat="62.062510969117284" lon="7.262587007135153">
        <ele>600.48000000000002</ele>
        <time>2017-06-20T11:24:59Z</time>
      </trkpt>
      <trkpt lat="62.062498982995749" lon="7.262764032930136">
        <ele>599.51999999999998</ele>
        <time>2017-06-20T11:25:00Z</time>
      </trkpt>
      <trkpt lat="62.0624790340662" lon="7.262934017926455">
        <ele>599.03999999999996</ele>
        <time>2017-06-20T11:25:01Z</time>
      </trkpt>
      <trkpt lat="62.062453972175717" lon="7.263090005144477">
        <ele>598.55999999999995</ele>
        <time>2017-06-20T11:25:02Z</time>
      </trkpt>
      <trkpt lat="62.062422959133983" lon="7.263229982927442">
        <ele>597.60000000000002</ele>
        <time>2017-06-20T11:25:03Z</time>
      </trkpt>
      <trkpt lat="62.06239202991128" lon="7.263358980417252">
        <ele>597.12</ele>
        <time>2017-06-20T11:25:04Z</time>
      </trkpt>
      <trkpt lat="62.062320029363036" lon="7.263684030622244">
        <ele>595.66999999999996</ele>
        <time>2017-06-20T11:25:07Z</time>
      </trkpt>
      <trkpt lat="62.062217015773058" lon="7.263931967318058">
        <ele>594.71000000000004</ele>
        <time>2017-06-20T11:25:10Z</time>
      </trkpt>
      <trkpt lat="62.062169993296266" lon="7.263992987573147">
        <ele>594.23000000000002</ele>
        <time>2017-06-20T11:25:11Z</time>
      </trkpt>
      <trkpt lat="62.062048958614469" lon="7.264247965067625">
        <ele>593.26999999999998</ele>
        <time>2017-06-20T11:25:15Z</time>
      </trkpt>
      <trkpt lat="62.0620939694345" lon="7.264402024447918">
        <ele>592.78999999999996</ele>
        <time>2017-06-20T11:25:17Z</time>
      </trkpt>
      <trkpt lat="62.062141997739673" lon="7.26440898142755">
        <ele>592.30999999999995</ele>
        <time>2017-06-20T11:25:18Z</time>
      </trkpt>
      <trkpt lat="62.062194971367717" lon="7.264367993921042">
        <ele>591.83000000000004</ele>
        <time>2017-06-20T11:25:19Z</time>
      </trkpt>
      <trkpt lat="62.062253979966044" lon="7.264286018908024">
        <ele>591.35000000000002</ele>
        <time>2017-06-20T11:25:20Z</time>
      </trkpt>
      <trkpt lat="62.062317011877894" lon="7.264189040288329">
        <ele>590.87</ele>
        <time>2017-06-20T11:25:21Z</time>
      </trkpt>
      <trkpt lat="62.062646001577377" lon="7.263727029785514">
        <ele>589.90999999999997</ele>
        <time>2017-06-20T11:25:25Z</time>
      </trkpt>
      <trkpt lat="62.062764018774033" lon="7.263630973175168">
        <ele>589.42999999999995</ele>
        <time>2017-06-20T11:25:26Z</time>
      </trkpt>
      <trkpt lat="62.062884969636798" lon="7.263559978455305">
        <ele>588.46000000000004</ele>
        <time>2017-06-20T11:25:27Z</time>
      </trkpt>
      <trkpt lat="62.063334994018078" lon="7.263359986245632">
        <ele>585.58000000000004</ele>
        <time>2017-06-20T11:25:31Z</time>
      </trkpt>
      <trkpt lat="62.063414035364985" lon="7.263253033161163">
        <ele>585.10000000000002</ele>
        <time>2017-06-20T11:25:32Z</time>
      </trkpt>
      <trkpt lat="62.063496010378003" lon="7.26309604011476">
        <ele>584.13999999999999</ele>
        <time>2017-06-20T11:25:33Z</time>
      </trkpt>
      <trkpt lat="62.063570022583008" lon="7.262924965471029">
        <ele>583.65999999999997</ele>
        <time>2017-06-20T11:25:34Z</time>
      </trkpt>
      <trkpt lat="62.063628025352955" lon="7.262740982696414">
        <ele>582.22000000000003</ele>
        <time>2017-06-20T11:25:35Z</time>
      </trkpt>
      <trkpt lat="62.063668007031083" lon="7.262544007971883">
        <ele>580.76999999999998</ele>
        <time>2017-06-20T11:25:36Z</time>
      </trkpt>
      <trkpt lat="62.063697008416057" lon="7.262357007712126">
        <ele>579.80999999999995</ele>
        <time>2017-06-20T11:25:37Z</time>
      </trkpt>
      <trkpt lat="62.063711006194353" lon="7.262176964432001">
        <ele>578.85000000000002</ele>
        <time>2017-06-20T11:25:38Z</time>
      </trkpt>
      <trkpt lat="62.063677981495857" lon="7.262007985264063">
        <ele>576.92999999999995</ele>
        <time>2017-06-20T11:25:39Z</time>
      </trkpt>
      <trkpt lat="62.06364001147449" lon="7.261834982782602">
        <ele>575.49000000000001</ele>
        <time>2017-06-20T11:25:40Z</time>
      </trkpt>
      <trkpt lat="62.06357597373426" lon="7.261663991957903">
        <ele>574.03999999999996</ele>
        <time>2017-06-20T11:25:41Z</time>
      </trkpt>
      <trkpt lat="62.063519982621074" lon="7.261494006961584">
        <ele>573.08000000000004</ele>
        <time>2017-06-20T11:25:42Z</time>
      </trkpt>
      <trkpt lat="62.063438007608056" lon="7.261193012818694">
        <ele>570.67999999999995</ele>
        <time>2017-06-20T11:25:44Z</time>
      </trkpt>
      <trkpt lat="62.063443958759308" lon="7.261082958430052">
        <ele>569.72000000000003</ele>
        <time>2017-06-20T11:25:45Z</time>
      </trkpt>
      <trkpt lat="62.063482012599707" lon="7.26101296953857">
        <ele>569.24000000000001</ele>
        <time>2017-06-20T11:25:46Z</time>
      </trkpt>
      <trkpt lat="62.063548984006047" lon="7.261021016165614">
        <ele>568.75999999999999</ele>
        <time>2017-06-20T11:25:47Z</time>
      </trkpt>
      <trkpt lat="62.063608998432755" lon="7.261081030592322">
        <ele>568.27999999999997</ele>
        <time>2017-06-20T11:25:48Z</time>
      </trkpt>
      <trkpt lat="62.063678987324238" lon="7.261194018647075">
        <ele>567.32000000000005</ele>
        <time>2017-06-20T11:25:49Z</time>
      </trkpt>
      <trkpt lat="62.063742019236088" lon="7.261344976723194">
        <ele>566.35000000000002</ele>
        <time>2017-06-20T11:25:50Z</time>
      </trkpt>
      <trkpt lat="62.063808990642428" lon="7.261531976982951">
        <ele>565.38999999999999</ele>
        <time>2017-06-20T11:25:51Z</time>
      </trkpt>
      <trkpt lat="62.063852995634079" lon="7.261782009154558">
        <ele>563.95000000000005</ele>
        <time>2017-06-20T11:25:52Z</time>
      </trkpt>
      <trkpt lat="62.063932958990335" lon="7.261989964172244">
        <ele>562.99000000000001</ele>
        <time>2017-06-20T11:25:53Z</time>
      </trkpt>
      <trkpt lat="62.06402700394392" lon="7.262152992188931">
        <ele>562.99000000000001</ele>
        <time>2017-06-20T11:25:54Z</time>
      </trkpt>
      <trkpt lat="62.064120965078473" lon="7.262284001335502">
        <ele>562.50999999999999</ele>
        <time>2017-06-20T11:25:55Z</time>
      </trkpt>
      <trkpt lat="62.064220039173961" lon="7.262396989390254">
        <ele>561.54999999999995</ele>
        <time>2017-06-20T11:25:56Z</time>
      </trkpt>
      <trkpt lat="62.064398992806673" lon="7.26255901157856">
        <ele>559.62</ele>
        <time>2017-06-20T11:25:58Z</time>
      </trkpt>
      <trkpt lat="62.064479039981961" lon="7.262564040720463">
        <ele>558.65999999999997</ele>
        <time>2017-06-20T11:25:59Z</time>
      </trkpt>
      <trkpt lat="62.064553974196315" lon="7.262518024072051">
        <ele>558.17999999999995</ele>
        <time>2017-06-20T11:26:00Z</time>
      </trkpt>
      <trkpt lat="62.064635027199984" lon="7.262426996603608">
        <ele>557.70000000000005</ele>
        <time>2017-06-20T11:26:01Z</time>
      </trkpt>
      <trkpt lat="62.064720019698143" lon="7.262334041297436">
        <ele>556.74000000000001</ele>
        <time>2017-06-20T11:26:02Z</time>
      </trkpt>
      <trkpt lat="62.064824961125851" lon="7.262238990515471">
        <ele>556.25999999999999</ele>
        <time>2017-06-20T11:26:03Z</time>
      </trkpt>
      <trkpt lat="62.06495001912117" lon="7.262153998017311">
        <ele>555.29999999999995</ele>
        <time>2017-06-20T11:26:04Z</time>
      </trkpt>
      <trkpt lat="62.065068958327174" lon="7.262101024389267">
        <ele>554.34000000000003</ele>
        <time>2017-06-20T11:26:05Z</time>
      </trkpt>
      <trkpt lat="62.065192004665732" lon="7.262084009125829">
        <ele>552.89999999999998</ele>
        <time>2017-06-20T11:26:06Z</time>
      </trkpt>
      <trkpt lat="62.065319996327162" lon="7.262098006904125">
        <ele>551.92999999999995</ele>
        <time>2017-06-20T11:26:07Z</time>
      </trkpt>
      <trkpt lat="62.065440025180578" lon="7.262107981368899">
        <ele>550.49000000000001</ele>
        <time>2017-06-20T11:26:08Z</time>
      </trkpt>
      <trkpt lat="62.065675975754857" lon="7.262132959440351">
        <ele>548.09000000000003</ele>
        <time>2017-06-20T11:26:10Z</time>
      </trkpt>
      <trkpt lat="62.066914988681674" lon="7.262113010510802">
        <ele>533.66999999999996</ele>
        <time>2017-06-20T11:26:21Z</time>
      </trkpt>
      <trkpt lat="62.066998975351453" lon="7.262128014117479">
        <ele>533.66999999999996</ele>
        <time>2017-06-20T11:26:22Z</time>
      </trkpt>
      <trkpt lat="62.067052032798529" lon="7.262110998854041">
        <ele>534.14999999999998</ele>
        <time>2017-06-20T11:26:23Z</time>
      </trkpt>
      <trkpt lat="62.067045997828245" lon="7.262037992477417">
        <ele>532.71000000000004</ele>
        <time>2017-06-20T11:26:24Z</time>
      </trkpt>
      <trkpt lat="62.06701397895813" lon="7.261974038556218">
        <ele>533.66999999999996</ele>
        <time>2017-06-20T11:26:25Z</time>
      </trkpt>
      <trkpt lat="62.066947007551789" lon="7.261874964460731">
        <ele>533.19000000000005</ele>
        <time>2017-06-20T11:26:26Z</time>
      </trkpt>
      <trkpt lat="62.066895961761475" lon="7.261836994439364">
        <ele>532.71000000000004</ele>
        <time>2017-06-20T11:26:27Z</time>
      </trkpt>
      <trkpt lat="62.06682002171874" lon="7.261841017752886">
        <ele>532.71000000000004</ele>
        <time>2017-06-20T11:26:28Z</time>
      </trkpt>
      <trkpt lat="62.066738968715072" lon="7.26185099221766">
        <ele>532.71000000000004</ele>
        <time>2017-06-20T11:26:29Z</time>
      </trkpt>
      <trkpt lat="62.066313000395894" lon="7.261677989736199">
        <ele>532.23000000000002</ele>
        <time>2017-06-20T11:26:33Z</time>
      </trkpt>
      <trkpt lat="62.065917961299419" lon="7.261413959786296">
        <ele>531.26999999999998</ele>
        <time>2017-06-20T11:26:37Z</time>
      </trkpt>
      <trkpt lat="62.065821988508105" lon="7.261387975886464">
        <ele>530.29999999999995</ele>
        <time>2017-06-20T11:26:38Z</time>
      </trkpt>
      <trkpt lat="62.065728027373552" lon="7.261388981714845">
        <ele>529.34000000000003</ele>
        <time>2017-06-20T11:26:39Z</time>
      </trkpt>
      <trkpt lat="62.06563800573349" lon="7.261413037776947">
        <ele>528.38</ele>
        <time>2017-06-20T11:26:40Z</time>
      </trkpt>
      <trkpt lat="62.065555024892092" lon="7.261437010020018">
        <ele>527.89999999999998</ele>
        <time>2017-06-20T11:26:41Z</time>
      </trkpt>
      <trkpt lat="62.065474977716804" lon="7.261475985869765">
        <ele>526.94000000000005</ele>
        <time>2017-06-20T11:26:42Z</time>
      </trkpt>
      <trkpt lat="62.065404988825321" lon="7.261489983648062">
        <ele>525.98000000000002</ele>
        <time>2017-06-20T11:26:43Z</time>
      </trkpt>
      <trkpt lat="62.0653370115906" lon="7.26146399974823">
        <ele>525.5</ele>
        <time>2017-06-20T11:26:44Z</time>
      </trkpt>
      <trkpt lat="62.065284959971905" lon="7.261417983099818">
        <ele>525.01999999999998</ele>
        <time>2017-06-20T11:26:45Z</time>
      </trkpt>
      <trkpt lat="62.065261993557215" lon="7.261367021128535">
        <ele>524.05999999999995</ele>
        <time>2017-06-20T11:26:46Z</time>
      </trkpt>
      <trkpt lat="62.065253024920821" lon="7.261274987831712">
        <ele>523.58000000000004</ele>
        <time>2017-06-20T11:26:47Z</time>
      </trkpt>
      <trkpt lat="62.065281020477414" lon="7.261209022253752">
        <ele>523.09000000000003</ele>
        <time>2017-06-20T11:26:48Z</time>
      </trkpt>
      <trkpt lat="62.065367018803954" lon="7.261160993948579">
        <ele>523.09000000000003</ele>
        <time>2017-06-20T11:26:49Z</time>
      </trkpt>
      <trkpt lat="62.065451005473733" lon="7.261128975078464">
        <ele>522.13</ele>
        <time>2017-06-20T11:26:50Z</time>
      </trkpt>
      <trkpt lat="62.065541027113795" lon="7.26109997369349">
        <ele>521.16999999999996</ele>
        <time>2017-06-20T11:26:51Z</time>
      </trkpt>
      <trkpt lat="62.06563800573349" lon="7.261073989793658">
        <ele>520.69000000000005</ele>
        <time>2017-06-20T11:26:52Z</time>
      </trkpt>
      <trkpt lat="62.066175034269691" lon="7.261045994237065">
        <ele>517.33000000000004</ele>
        <time>2017-06-20T11:26:56Z</time>
      </trkpt>
      <trkpt lat="62.066655987873673" lon="7.260995032265782">
        <ele>513.96000000000004</ele>
        <time>2017-06-20T11:26:59Z</time>
      </trkpt>
      <trkpt lat="62.068335972726345" lon="7.260695965960622">
        <ele>504.82999999999998</ele>
        <time>2017-06-20T11:27:09Z</time>
      </trkpt>
      <trkpt lat="62.068493971601129" lon="7.260555988177657">
        <ele>503.87</ele>
        <time>2017-06-20T11:27:10Z</time>
      </trkpt>
      <trkpt lat="62.06965796649456" lon="7.259482014924288">
        <ele>496.18000000000001</ele>
        <time>2017-06-20T11:27:18Z</time>
      </trkpt>
      <trkpt lat="62.069803979247808" lon="7.259459970518947">
        <ele>495.22000000000003</ele>
        <time>2017-06-20T11:27:19Z</time>
      </trkpt>
      <trkpt lat="62.070208992809057" lon="7.259387969970703">
        <ele>492.32999999999998</ele>
        <time>2017-06-20T11:27:22Z</time>
      </trkpt>
      <trkpt lat="62.070344025269151" lon="7.259307000786066">
        <ele>491.37</ele>
        <time>2017-06-20T11:27:23Z</time>
      </trkpt>
      <trkpt lat="62.070461958646774" lon="7.259182026609778">
        <ele>490.88999999999999</ele>
        <time>2017-06-20T11:27:24Z</time>
      </trkpt>
      <trkpt lat="62.070581987500191" lon="7.259026961401105">
        <ele>489.93000000000001</ele>
        <time>2017-06-20T11:27:25Z</time>
      </trkpt>
      <trkpt lat="62.070707967504859" lon="7.258840966969729">
        <ele>488.97000000000003</ele>
        <time>2017-06-20T11:27:26Z</time>
      </trkpt>
      <trkpt lat="62.071807002648711" lon="7.256934000179172">
        <ele>479.35000000000002</ele>
        <time>2017-06-20T11:27:35Z</time>
      </trkpt>
      <trkpt lat="62.072989018633962" lon="7.254612967371941">
        <ele>467.81999999999999</ele>
        <time>2017-06-20T11:27:45Z</time>
      </trkpt>
      <trkpt lat="62.073324965313077" lon="7.253561960533261">
        <ele>461.56999999999999</ele>
        <time>2017-06-20T11:27:49Z</time>
      </trkpt>
      <trkpt lat="62.073386991396546" lon="7.253274964168668">
        <ele>460.61000000000001</ele>
        <time>2017-06-20T11:27:50Z</time>
      </trkpt>
      <trkpt lat="62.073432002216578" lon="7.252968018874526">
        <ele>460.13</ele>
        <time>2017-06-20T11:27:51Z</time>
      </trkpt>
      <trkpt lat="62.073464021086693" lon="7.252670964226127">
        <ele>459.17000000000002</ele>
        <time>2017-06-20T11:27:52Z</time>
      </trkpt>
      <trkpt lat="62.073494028300047" lon="7.252394026145339">
        <ele>458.20999999999998</ele>
        <time>2017-06-20T11:27:53Z</time>
      </trkpt>
      <trkpt lat="62.073531998321414" lon="7.252133013680577">
        <ele>458.20999999999998</ele>
        <time>2017-06-20T11:27:54Z</time>
      </trkpt>
      <trkpt lat="62.073560999706388" lon="7.251888010650873">
        <ele>458.20999999999998</ele>
        <time>2017-06-20T11:27:55Z</time>
      </trkpt>
      <trkpt lat="62.073605004698038" lon="7.251650970429182">
        <ele>457.24000000000001</ele>
        <time>2017-06-20T11:27:56Z</time>
      </trkpt>
      <trkpt lat="62.073657978326082" lon="7.251419965177774">
        <ele>456.75999999999999</ele>
        <time>2017-06-20T11:27:57Z</time>
      </trkpt>
      <trkpt lat="62.073714975267649" lon="7.251206981018186">
        <ele>456.27999999999997</ele>
        <time>2017-06-20T11:27:58Z</time>
      </trkpt>
      <trkpt lat="62.073765015229583" lon="7.251027021557093">
        <ele>455.80000000000001</ele>
        <time>2017-06-20T11:27:59Z</time>
      </trkpt>
      <trkpt lat="62.073775995522738" lon="7.250859970226884">
        <ele>455.31999999999999</ele>
        <time>2017-06-20T11:28:00Z</time>
      </trkpt>
      <trkpt lat="62.073783036321402" lon="7.250716974958777">
        <ele>454.36000000000001</ele>
        <time>2017-06-20T11:28:01Z</time>
      </trkpt>
      <trkpt lat="62.073688991367817" lon="7.250538021326065">
        <ele>451.48000000000002</ele>
        <time>2017-06-20T11:28:02Z</time>
      </trkpt>
      <trkpt lat="62.073640041053295" lon="7.250417992472649">
        <ele>450.51999999999998</ele>
        <time>2017-06-20T11:28:03Z</time>
      </trkpt>
      <trkpt lat="62.073562005534768" lon="7.250338029116392">
        <ele>449.55000000000001</ele>
        <time>2017-06-20T11:28:04Z</time>
      </trkpt>
      <trkpt lat="62.073463015258312" lon="7.250309027731419">
        <ele>448.11000000000001</ele>
        <time>2017-06-20T11:28:05Z</time>
      </trkpt>
      <trkpt lat="62.073332006111741" lon="7.25031497888267">
        <ele>446.67000000000002</ele>
        <time>2017-06-20T11:28:06Z</time>
      </trkpt>
      <trkpt lat="62.073183981701732" lon="7.250344986096025">
        <ele>445.23000000000002</ele>
        <time>2017-06-20T11:28:07Z</time>
      </trkpt>
      <trkpt lat="62.072562966495752" lon="7.250284971669316">
        <ele>441.86000000000001</ele>
        <time>2017-06-20T11:28:11Z</time>
      </trkpt>
      <trkpt lat="62.072489038109779" lon="7.250200984999538">
        <ele>440.89999999999998</ele>
        <time>2017-06-20T11:28:12Z</time>
      </trkpt>
      <trkpt lat="62.072374960407615" lon="7.250049021095038">
        <ele>440.42000000000002</ele>
        <time>2017-06-20T11:28:13Z</time>
      </trkpt>
      <trkpt lat="62.072303965687752" lon="7.249911976978183">
        <ele>439.94</ele>
        <time>2017-06-20T11:28:14Z</time>
      </trkpt>
      <trkpt lat="62.072250992059708" lon="7.249721959233284">
        <ele>438.98000000000002</ele>
        <time>2017-06-20T11:28:15Z</time>
      </trkpt>
      <trkpt lat="62.072230037301779" lon="7.249512998387218">
        <ele>438.5</ele>
        <time>2017-06-20T11:28:16Z</time>
      </trkpt>
      <trkpt lat="62.072221990674734" lon="7.249275036156178">
        <ele>438.01999999999998</ele>
        <time>2017-06-20T11:28:17Z</time>
      </trkpt>
      <trkpt lat="62.072291979566216" lon="7.249091975390911">
        <ele>437.06</ele>
        <time>2017-06-20T11:28:18Z</time>
      </trkpt>
      <trkpt lat="62.072302037850022" lon="7.248771032318473">
        <ele>436.57999999999998</ele>
        <time>2017-06-20T11:28:19Z</time>
      </trkpt>
      <trkpt lat="62.072351993992925" lon="7.248433995991945">
        <ele>436.10000000000002</ele>
        <time>2017-06-20T11:28:20Z</time>
      </trkpt>
      <trkpt lat="62.072452995926142" lon="7.248087991029024">
        <ele>435.61000000000001</ele>
        <time>2017-06-20T11:28:21Z</time>
      </trkpt>
      <trkpt lat="62.073024976998568" lon="7.24618898704648">
        <ele>437.54000000000002</ele>
        <time>2017-06-20T11:28:27Z</time>
      </trkpt>
      <trkpt lat="62.073091026395559" lon="7.245940966531634">
        <ele>438.5</ele>
        <time>2017-06-20T11:28:28Z</time>
      </trkpt>
      <trkpt lat="62.073166966438293" lon="7.245711972936988">
        <ele>438.98000000000002</ele>
        <time>2017-06-20T11:28:29Z</time>
      </trkpt>
      <trkpt lat="62.073290012776852" lon="7.245507035404444">
        <ele>440.42000000000002</ele>
        <time>2017-06-20T11:28:30Z</time>
      </trkpt>
      <trkpt lat="62.07455400377512" lon="7.243383983150125">
        <ele>446.19</ele>
        <time>2017-06-20T11:28:40Z</time>
      </trkpt>
      <trkpt lat="62.076384024694562" lon="7.240808978676796">
        <ele>442.81999999999999</ele>
        <time>2017-06-20T11:28:54Z</time>
      </trkpt>
      <trkpt lat="62.076720977202058" lon="7.240345040336251">
        <ele>437.06</ele>
        <time>2017-06-20T11:28:57Z</time>
      </trkpt>
      <trkpt lat="62.076816027984023" lon="7.240140018984675">
        <ele>436.57999999999998</ele>
        <time>2017-06-20T11:28:58Z</time>
      </trkpt>
      <trkpt lat="62.076904959976673" lon="7.239907002076507">
        <ele>436.10000000000002</ele>
        <time>2017-06-20T11:28:59Z</time>
      </trkpt>
      <trkpt lat="62.076985007151961" lon="7.239650012925267">
        <ele>435.13</ele>
        <time>2017-06-20T11:29:00Z</time>
      </trkpt>
      <trkpt lat="62.077059019356966" lon="7.239370979368687">
        <ele>434.64999999999998</ele>
        <time>2017-06-20T11:29:01Z</time>
      </trkpt>
      <trkpt lat="62.077124984934926" lon="7.239088006317616">
        <ele>434.64999999999998</ele>
        <time>2017-06-20T11:29:02Z</time>
      </trkpt>
      <trkpt lat="62.07721802406013" lon="7.238557012751699">
        <ele>433.69</ele>
        <time>2017-06-20T11:29:04Z</time>
      </trkpt>
      <trkpt lat="62.077235961332917" lon="7.238298011943698">
        <ele>433.69</ele>
        <time>2017-06-20T11:29:05Z</time>
      </trkpt>
      <trkpt lat="62.077244007959962" lon="7.238028030842543">
        <ele>433.69</ele>
        <time>2017-06-20T11:29:06Z</time>
      </trkpt>
      <trkpt lat="62.077299999073148" lon="7.235486973077059">
        <ele>429.37</ele>
        <time>2017-06-20T11:29:15Z</time>
      </trkpt>
      <trkpt lat="62.077348027378321" lon="7.235217997804284">
        <ele>428.39999999999998</ele>
        <time>2017-06-20T11:29:16Z</time>
      </trkpt>
      <trkpt lat="62.077421033754945" lon="7.234961008653045">
        <ele>426.95999999999998</ele>
        <time>2017-06-20T11:29:17Z</time>
      </trkpt>
      <trkpt lat="62.077503008767962" lon="7.234706031158567">
        <ele>425.51999999999998</ele>
        <time>2017-06-20T11:29:18Z</time>
      </trkpt>
      <trkpt lat="62.077619014307857" lon="7.234497992321849">
        <ele>424.56</ele>
        <time>2017-06-20T11:29:19Z</time>
      </trkpt>
      <trkpt lat="62.077752035111189" lon="7.234333036467433">
        <ele>423.60000000000002</ele>
        <time>2017-06-20T11:29:20Z</time>
      </trkpt>
      <trkpt lat="62.077897964045405" lon="7.234194986522198">
        <ele>422.16000000000003</ele>
        <time>2017-06-20T11:29:21Z</time>
      </trkpt>
      <trkpt lat="62.078063003718853" lon="7.234073029831052">
        <ele>420.70999999999998</ele>
        <time>2017-06-20T11:29:22Z</time>
      </trkpt>
      <trkpt lat="62.079349961131811" lon="7.232843991369009">
        <ele>411.57999999999998</ele>
        <time>2017-06-20T11:29:29Z</time>
      </trkpt>
      <trkpt lat="62.080685030668974" lon="7.230935012921691">
        <ele>402.44999999999999</ele>
        <time>2017-06-20T11:29:38Z</time>
      </trkpt>
      <trkpt lat="62.081337980926037" lon="7.228961996734142">
        <ele>399.07999999999998</ele>
        <time>2017-06-20T11:29:45Z</time>
      </trkpt>
      <trkpt lat="62.081404030323029" lon="7.228715987876058">
        <ele>399.07999999999998</ele>
        <time>2017-06-20T11:29:46Z</time>
      </trkpt>
      <trkpt lat="62.081480976194143" lon="7.228512978181243">
        <ele>399.07999999999998</ele>
        <time>2017-06-20T11:29:47Z</time>
      </trkpt>
      <trkpt lat="62.08157803863287" lon="7.228361014276743">
        <ele>399.56999999999999</ele>
        <time>2017-06-20T11:29:48Z</time>
      </trkpt>
      <trkpt lat="62.081695972010493" lon="7.228234028443694">
        <ele>399.07999999999998</ele>
        <time>2017-06-20T11:29:49Z</time>
      </trkpt>
      <trkpt lat="62.081823963671923" lon="7.228121962398291">
        <ele>399.07999999999998</ele>
        <time>2017-06-20T11:29:50Z</time>
      </trkpt>
      <trkpt lat="62.081962013617158" lon="7.228017020970583">
        <ele>398.60000000000002</ele>
        <time>2017-06-20T11:29:51Z</time>
      </trkpt>
      <trkpt lat="62.082433998584747" lon="7.22779699601233">
        <ele>397.63999999999999</ele>
        <time>2017-06-20T11:29:54Z</time>
      </trkpt>
      <trkpt lat="62.082560984417796" lon="7.227784004062414">
        <ele>396.68000000000001</ele>
        <time>2017-06-20T11:29:55Z</time>
      </trkpt>
      <trkpt lat="62.082673972472548" lon="7.227837983518839">
        <ele>397.16000000000003</ele>
        <time>2017-06-20T11:29:56Z</time>
      </trkpt>
      <trkpt lat="62.08278302103281" lon="7.227918030694127">
        <ele>396.19999999999999</ele>
        <time>2017-06-20T11:29:57Z</time>
      </trkpt>
      <trkpt lat="62.082898020744324" lon="7.228017020970583">
        <ele>395.72000000000003</ele>
        <time>2017-06-20T11:29:58Z</time>
      </trkpt>
      <trkpt lat="62.083031041547656" lon="7.228108970448375">
        <ele>395.24000000000001</ele>
        <time>2017-06-20T11:29:59Z</time>
      </trkpt>
      <trkpt lat="62.083296999335289" lon="7.228203015401959">
        <ele>394.75999999999999</ele>
        <time>2017-06-20T11:30:01Z</time>
      </trkpt>
      <trkpt lat="62.083437982946634" lon="7.228177031502128">
        <ele>394.27999999999997</ele>
        <time>2017-06-20T11:30:02Z</time>
      </trkpt>
      <trkpt lat="62.083961013704538" lon="7.227960024029017">
        <ele>392.36000000000001</ele>
        <time>2017-06-20T11:30:06Z</time>
      </trkpt>
      <trkpt lat="62.083993032574654" lon="7.227720972150564">
        <ele>390.91000000000003</ele>
        <time>2017-06-20T11:30:07Z</time>
      </trkpt>
      <trkpt lat="62.084109038114548" lon="7.227605972439051">
        <ele>389.94999999999999</ele>
        <time>2017-06-20T11:30:08Z</time>
      </trkpt>
      <trkpt lat="62.084298972040415" lon="7.227321993559599">
        <ele>389.47000000000003</ele>
        <time>2017-06-20T11:30:10Z</time>
      </trkpt>
      <trkpt lat="62.084391005337238" lon="7.227181009948254">
        <ele>389.47000000000003</ele>
        <time>2017-06-20T11:30:11Z</time>
      </trkpt>
      <trkpt lat="62.084561996161938" lon="7.226824024692178">
        <ele>387.55000000000001</ele>
        <time>2017-06-20T11:30:13Z</time>
      </trkpt>
      <trkpt lat="62.084676995873451" lon="7.226666025817394">
        <ele>386.58999999999997</ele>
        <time>2017-06-20T11:30:14Z</time>
      </trkpt>
      <trkpt lat="62.085590958595276" lon="7.225680984556675">
        <ele>379.86000000000001</ele>
        <time>2017-06-20T11:30:21Z</time>
      </trkpt>
      <trkpt lat="62.085696989670396" lon="7.22564703784883">
        <ele>377.94</ele>
        <time>2017-06-20T11:30:22Z</time>
      </trkpt>
      <trkpt lat="62.085810983553529" lon="7.22567000426352">
        <ele>376.49000000000001</ele>
        <time>2017-06-20T11:30:23Z</time>
      </trkpt>
      <trkpt lat="62.085932018235326" lon="7.225730018690229">
        <ele>375.05000000000001</ele>
        <time>2017-06-20T11:30:24Z</time>
      </trkpt>
      <trkpt lat="62.086033020168543" lon="7.22581903450191">
        <ele>374.56999999999999</ele>
        <time>2017-06-20T11:30:25Z</time>
      </trkpt>
      <trkpt lat="62.086280034855008" lon="7.225919030606747">
        <ele>372.17000000000002</ele>
        <time>2017-06-20T11:30:27Z</time>
      </trkpt>
      <trkpt lat="62.086421018466353" lon="7.225868990644813">
        <ele>370.73000000000002</ele>
        <time>2017-06-20T11:30:28Z</time>
      </trkpt>
      <trkpt lat="62.086573988199234" lon="7.225794978439808">
        <ele>369.27999999999997</ele>
        <time>2017-06-20T11:30:29Z</time>
      </trkpt>
      <trkpt lat="62.086695022881031" lon="7.225656006485224">
        <ele>368.31999999999999</ele>
        <time>2017-06-20T11:30:30Z</time>
      </trkpt>
      <trkpt lat="62.086841035634279" lon="7.225529020652175">
        <ele>367.36000000000001</ele>
        <time>2017-06-20T11:30:31Z</time>
      </trkpt>
      <trkpt lat="62.087952978909016" lon="7.224471978843212">
        <ele>358.70999999999998</ele>
        <time>2017-06-20T11:30:40Z</time>
      </trkpt>
      <trkpt lat="62.088289009407163" lon="7.224236028268933">
        <ele>355.82999999999998</ele>
        <time>2017-06-20T11:30:43Z</time>
      </trkpt>
      <trkpt lat="62.088395040482283" lon="7.224221024662256">
        <ele>354.38</ele>
        <time>2017-06-20T11:30:44Z</time>
      </trkpt>
      <trkpt lat="62.088530994951725" lon="7.224241979420185">
        <ele>353.89999999999998</ele>
        <time>2017-06-20T11:30:45Z</time>
      </trkpt>
      <trkpt lat="62.08892703987658" lon="7.224196968600154">
        <ele>351.5</ele>
        <time>2017-06-20T11:30:48Z</time>
      </trkpt>
      <trkpt lat="62.089029969647527" lon="7.22412102855742">
        <ele>348.13</ele>
        <time>2017-06-20T11:30:49Z</time>
      </trkpt>
      <trkpt lat="62.089115967974067" lon="7.224028995260596">
        <ele>346.20999999999998</ele>
        <time>2017-06-20T11:30:50Z</time>
      </trkpt>
      <trkpt lat="62.089197020977736" lon="7.223913995549083">
        <ele>344.76999999999998</ele>
        <time>2017-06-20T11:30:51Z</time>
      </trkpt>
      <trkpt lat="62.089275978505611" lon="7.22380000166595">
        <ele>344.76999999999998</ele>
        <time>2017-06-20T11:30:52Z</time>
      </trkpt>
      <trkpt lat="62.089632041752338" lon="7.223321981728077">
        <ele>339</ele>
        <time>2017-06-20T11:31:00Z</time>
      </trkpt>
      <trkpt lat="62.089664982631803" lon="7.223260039463639">
        <ele>336.60000000000002</ele>
        <time>2017-06-20T11:31:02Z</time>
      </trkpt>
      <trkpt lat="62.089899005368352" lon="7.222832981497049">
        <ele>337.56</ele>
        <time>2017-06-20T11:31:13Z</time>
      </trkpt>
      <trkpt lat="62.089944016188383" lon="7.222801968455315">
        <ele>338.51999999999998</ele>
        <time>2017-06-20T11:31:28Z</time>
      </trkpt>
      <trkpt lat="62.089948039501905" lon="7.222804985940456">
        <ele>339.95999999999998</ele>
        <time>2017-06-20T11:32:45Z</time>
      </trkpt>
      <trkpt lat="62.090118024498224" lon="7.222740026190877">
        <ele>389.47000000000003</ele>
        <time>2017-06-20T11:34:06Z</time>
      </trkpt>
      <trkpt lat="62.090005036443472" lon="7.222852008417249">
        <ele>360.14999999999998</ele>
        <time>2017-06-20T11:35:04Z</time>
      </trkpt>
      <trkpt lat="62.090012999251485" lon="7.222842033952475">
        <ele>359.67000000000002</ele>
        <time>2017-06-20T11:35:25Z</time>
      </trkpt>
      <trkpt lat="62.090230006724596" lon="7.223031967878342">
        <ele>359.67000000000002</ele>
        <time>2017-06-20T11:35:34Z</time>
      </trkpt>
      <trkpt lat="62.090472998097539" lon="7.223317036405206">
        <ele>356.79000000000002</ele>
        <time>2017-06-20T11:35:41Z</time>
      </trkpt>
      <trkpt lat="62.090555978938937" lon="7.223332962021232">
        <ele>356.31</ele>
        <time>2017-06-20T11:35:42Z</time>
      </trkpt>
      <trkpt lat="62.090654969215393" lon="7.223324999213219">
        <ele>355.33999999999997</ele>
        <time>2017-06-20T11:35:43Z</time>
      </trkpt>
      <trkpt lat="62.091546971350908" lon="7.223196001723409">
        <ele>344.29000000000002</ele>
        <time>2017-06-20T11:35:51Z</time>
      </trkpt>
      <trkpt lat="62.09165601991117" lon="7.223257021978498">
        <ele>342.37</ele>
        <time>2017-06-20T11:35:52Z</time>
      </trkpt>
      <trkpt lat="62.091745035722852" lon="7.223378978669643">
        <ele>339.48000000000002</ele>
        <time>2017-06-20T11:35:53Z</time>
      </trkpt>
      <trkpt lat="62.091831034049392" lon="7.223504958674312">
        <ele>337.07999999999998</ele>
        <time>2017-06-20T11:35:54Z</time>
      </trkpt>
      <trkpt lat="62.091881996020675" lon="7.223619958385825">
        <ele>336.12</ele>
        <time>2017-06-20T11:35:55Z</time>
      </trkpt>
      <trkpt lat="62.091959025710821" lon="7.223749961704016">
        <ele>339.48000000000002</ele>
        <time>2017-06-20T11:35:57Z</time>
      </trkpt>
      <trkpt lat="62.092017028480768" lon="7.223878037184477">
        <ele>339.95999999999998</ele>
        <time>2017-06-20T11:35:58Z</time>
      </trkpt>
      <trkpt lat="62.092106966301799" lon="7.224160004407167">
        <ele>337.07999999999998</ele>
        <time>2017-06-20T11:36:00Z</time>
      </trkpt>
      <trkpt lat="62.092190030962229" lon="7.224411964416504">
        <ele>332.75</ele>
        <time>2017-06-20T11:36:02Z</time>
      </trkpt>
      <trkpt lat="62.092245016247034" lon="7.224437026306987">
        <ele>330.35000000000002</ele>
        <time>2017-06-20T11:36:03Z</time>
      </trkpt>
      <trkpt lat="62.092292038723826" lon="7.224425040185452">
        <ele>329.38999999999999</ele>
        <time>2017-06-20T11:36:04Z</time>
      </trkpt>
      <trkpt lat="62.092345012351871" lon="7.224334012717009">
        <ele>326.5</ele>
        <time>2017-06-20T11:36:05Z</time>
      </trkpt>
      <trkpt lat="62.092404020950198" lon="7.22420702688396">
        <ele>326.5</ele>
        <time>2017-06-20T11:36:06Z</time>
      </trkpt>
      <trkpt lat="62.092446014285088" lon="7.224064031615853">
        <ele>325.54000000000002</ele>
        <time>2017-06-20T11:36:07Z</time>
      </trkpt>
      <trkpt lat="62.092484990134835" lon="7.223755996674299">
        <ele>326.5</ele>
        <time>2017-06-20T11:36:09Z</time>
      </trkpt>
      <trkpt lat="62.092560008168221" lon="7.223664969205856">
        <ele>327.94999999999999</ele>
        <time>2017-06-20T11:36:10Z</time>
      </trkpt>
      <trkpt lat="62.092619016766548" lon="7.223620964214206">
        <ele>327.47000000000003</ele>
        <time>2017-06-20T11:36:11Z</time>
      </trkpt>
      <trkpt lat="62.09268799982965" lon="7.223617024719715">
        <ele>326.99000000000001</ele>
        <time>2017-06-20T11:36:12Z</time>
      </trkpt>
      <trkpt lat="62.09277399815619" lon="7.223652983084321">
        <ele>326.99000000000001</ele>
        <time>2017-06-20T11:36:13Z</time>
      </trkpt>
      <trkpt lat="62.092852033674717" lon="7.2237369697541">
        <ele>325.54000000000002</ele>
        <time>2017-06-20T11:36:14Z</time>
      </trkpt>
      <trkpt lat="62.092914981767535" lon="7.223841995000839">
        <ele>325.06</ele>
        <time>2017-06-20T11:36:15Z</time>
      </trkpt>
      <trkpt lat="62.092962004244328" lon="7.223962023854256">
        <ele>324.57999999999998</ele>
        <time>2017-06-20T11:36:16Z</time>
      </trkpt>
      <trkpt lat="62.092973990365863" lon="7.224099989980459">
        <ele>324.57999999999998</ele>
        <time>2017-06-20T11:36:17Z</time>
      </trkpt>
      <trkpt lat="62.09296703338623" lon="7.224232004955411">
        <ele>324.57999999999998</ele>
        <time>2017-06-20T11:36:18Z</time>
      </trkpt>
      <trkpt lat="62.092939037829638" lon="7.224365025758743">
        <ele>324.57999999999998</ele>
        <time>2017-06-20T11:36:19Z</time>
      </trkpt>
      <trkpt lat="62.092883968725801" lon="7.224491005763412">
        <ele>324.10000000000002</ele>
        <time>2017-06-20T11:36:20Z</time>
      </trkpt>
      <trkpt lat="62.092825965955853" lon="7.224622014909983">
        <ele>323.13999999999999</ele>
        <time>2017-06-20T11:36:21Z</time>
      </trkpt>
      <trkpt lat="62.092717001214623" lon="7.224887972697616">
        <ele>321.69999999999999</ele>
        <time>2017-06-20T11:36:23Z</time>
      </trkpt>
      <trkpt lat="62.092693028971553" lon="7.225039014592767">
        <ele>320.74000000000001</ele>
        <time>2017-06-20T11:36:24Z</time>
      </trkpt>
      <trkpt lat="62.092684982344508" lon="7.225195001810789">
        <ele>320.25999999999999</ele>
        <time>2017-06-20T11:36:25Z</time>
      </trkpt>
      <trkpt lat="62.092705015093088" lon="7.225349983200431">
        <ele>319.77999999999997</ele>
        <time>2017-06-20T11:36:26Z</time>
      </trkpt>
      <trkpt lat="62.092741979286075" lon="7.225492978468537">
        <ele>317.85000000000002</ele>
        <time>2017-06-20T11:36:27Z</time>
      </trkpt>
      <trkpt lat="62.092809034511447" lon="7.225610995665193">
        <ele>316.88999999999999</ele>
        <time>2017-06-20T11:36:28Z</time>
      </trkpt>
      <trkpt lat="62.092895032837987" lon="7.225714009255171">
        <ele>316.88999999999999</ele>
        <time>2017-06-20T11:36:29Z</time>
      </trkpt>
      <trkpt lat="62.092991005629301" lon="7.225812999531627">
        <ele>316.88999999999999</ele>
        <time>2017-06-20T11:36:30Z</time>
      </trkpt>
      <trkpt lat="62.09341999143362" lon="7.226200997829437">
        <ele>313.52999999999997</ele>
        <time>2017-06-20T11:36:34Z</time>
      </trkpt>
      <trkpt lat="62.094527995213866" lon="7.226699972525239">
        <ele>304.38999999999999</ele>
        <time>2017-06-20T11:36:43Z</time>
      </trkpt>
      <trkpt lat="62.094636959955096" lon="7.226706007495523">
        <ele>301.99000000000001</ele>
        <time>2017-06-20T11:36:44Z</time>
      </trkpt>
      <trkpt lat="62.095273984596133" lon="7.226520013064146">
        <ele>294.77999999999997</ele>
        <time>2017-06-20T11:36:50Z</time>
      </trkpt>
      <trkpt lat="62.095371969044209" lon="7.226438038051128">
        <ele>294.30000000000001</ele>
        <time>2017-06-20T11:36:51Z</time>
      </trkpt>
      <trkpt lat="62.095469031482935" lon="7.226336030289531">
        <ele>292.86000000000001</ele>
        <time>2017-06-20T11:36:52Z</time>
      </trkpt>
      <trkpt lat="62.095563998445868" lon="7.226207032799721">
        <ele>290.94</ele>
        <time>2017-06-20T11:36:53Z</time>
      </trkpt>
      <trkpt lat="62.095661982893944" lon="7.226062025874853">
        <ele>289.00999999999999</ele>
        <time>2017-06-20T11:36:54Z</time>
      </trkpt>
      <trkpt lat="62.096983976662159" lon="7.224471978843212">
        <ele>273.63</ele>
        <time>2017-06-20T11:37:07Z</time>
      </trkpt>
      <trkpt lat="62.097087996080518" lon="7.224344993010163">
        <ele>272.67000000000002</ele>
        <time>2017-06-20T11:37:08Z</time>
      </trkpt>
      <trkpt lat="62.097193021327257" lon="7.224191017448902">
        <ele>272.19</ele>
        <time>2017-06-20T11:37:09Z</time>
      </trkpt>
      <trkpt lat="62.097287988290191" lon="7.224017009139061">
        <ele>271.70999999999998</ele>
        <time>2017-06-20T11:37:10Z</time>
      </trkpt>
      <trkpt lat="62.097364012151957" lon="7.223792960867286">
        <ele>271.23000000000002</ele>
        <time>2017-06-20T11:37:11Z</time>
      </trkpt>
      <trkpt lat="62.097437018528581" lon="7.223567990586162">
        <ele>270.26999999999998</ele>
        <time>2017-06-20T11:37:12Z</time>
      </trkpt>
      <trkpt lat="62.09750097244978" lon="7.223346037790179">
        <ele>269.31</ele>
        <time>2017-06-20T11:37:13Z</time>
      </trkpt>
      <trkpt lat="62.097656037658453" lon="7.222814960405231">
        <ele>266.89999999999998</ele>
        <time>2017-06-20T11:37:16Z</time>
      </trkpt>
      <trkpt lat="62.097668023779988" lon="7.222685040906072">
        <ele>266.89999999999998</ele>
        <time>2017-06-20T11:37:17Z</time>
      </trkpt>
      <trkpt lat="62.097652014344931" lon="7.222582027316093">
        <ele>265.45999999999998</ele>
        <time>2017-06-20T11:37:18Z</time>
      </trkpt>
      <trkpt lat="62.097628964111209" lon="7.222522012889385">
        <ele>265.45999999999998</ele>
        <time>2017-06-20T11:37:19Z</time>
      </trkpt>
      <trkpt lat="62.097438024356961" lon="7.222566017881036">
        <ele>262.57999999999998</ele>
        <time>2017-06-20T11:37:22Z</time>
      </trkpt>
      <trkpt lat="62.09737298078835" lon="7.222701972350478">
        <ele>261.13999999999999</ele>
        <time>2017-06-20T11:37:23Z</time>
      </trkpt>
      <trkpt lat="62.097310032695532" lon="7.222852008417249">
        <ele>260.17000000000002</ele>
        <time>2017-06-20T11:37:24Z</time>
      </trkpt>
      <trkpt lat="62.097152033820748" lon="7.223135987296701">
        <ele>258.73000000000002</ele>
        <time>2017-06-20T11:37:26Z</time>
      </trkpt>
      <trkpt lat="62.097042985260487" lon="7.223240006715059">
        <ele>257.76999999999998</ele>
        <time>2017-06-20T11:37:27Z</time>
      </trkpt>
      <trkpt lat="62.096064984798431" lon="7.224096972495318">
        <ele>249.12</ele>
        <time>2017-06-20T11:37:37Z</time>
      </trkpt>
      <trkpt lat="62.095998013392091" lon="7.224095966666937">
        <ele>248.16</ele>
        <time>2017-06-20T11:37:38Z</time>
      </trkpt>
      <trkpt lat="62.095950990915298" lon="7.224034024402499">
        <ele>247.68000000000001</ele>
        <time>2017-06-20T11:37:39Z</time>
      </trkpt>
      <trkpt lat="62.09593397565186" lon="7.223934028297663">
        <ele>246.72</ele>
        <time>2017-06-20T11:37:40Z</time>
      </trkpt>
      <trkpt lat="62.096000025048852" lon="7.223724983632565">
        <ele>245.27000000000001</ele>
        <time>2017-06-20T11:37:42Z</time>
      </trkpt>
      <trkpt lat="62.096069008111954" lon="7.223623981699348">
        <ele>244.31</ele>
        <time>2017-06-20T11:37:43Z</time>
      </trkpt>
      <trkpt lat="62.096158023923635" lon="7.223520968109369">
        <ele>243.34999999999999</ele>
        <time>2017-06-20T11:37:44Z</time>
      </trkpt>
      <trkpt lat="62.096480978652835" lon="7.223086031153798">
        <ele>240.47</ele>
        <time>2017-06-20T11:37:47Z</time>
      </trkpt>
      <trkpt lat="62.09657896310091" lon="7.222886038944125">
        <ele>239.50999999999999</ele>
        <time>2017-06-20T11:37:48Z</time>
      </trkpt>
      <trkpt lat="62.09666496142745" lon="7.222656039521098">
        <ele>238.53999999999999</ele>
        <time>2017-06-20T11:37:49Z</time>
      </trkpt>
      <trkpt lat="62.096823966130614" lon="7.222239039838314">
        <ele>236.13999999999999</ele>
        <time>2017-06-20T11:37:51Z</time>
      </trkpt>
      <trkpt lat="62.096909964457154" lon="7.222087997943163">
        <ele>235.18000000000001</ele>
        <time>2017-06-20T11:37:52Z</time>
      </trkpt>
      <trkpt lat="62.09702798165381" lon="7.221982972696424">
        <ele>234.69999999999999</ele>
        <time>2017-06-20T11:37:53Z</time>
      </trkpt>
      <trkpt lat="62.097179023548961" lon="7.221747022122145">
        <ele>233.25999999999999</ele>
        <time>2017-06-20T11:37:55Z</time>
      </trkpt>
      <trkpt lat="62.097198972478509" lon="7.221627999097109">
        <ele>232.78</ele>
        <time>2017-06-20T11:37:56Z</time>
      </trkpt>
      <trkpt lat="62.097165025770664" lon="7.221515011042357">
        <ele>233.25999999999999</ele>
        <time>2017-06-20T11:37:57Z</time>
      </trkpt>
      <trkpt lat="62.096967967227101" lon="7.221518028527498">
        <ele>231.33000000000001</ele>
        <time>2017-06-20T11:38:00Z</time>
      </trkpt>
      <trkpt lat="62.096895966678858" lon="7.221621964126825">
        <ele>230.84999999999999</ele>
        <time>2017-06-20T11:38:01Z</time>
      </trkpt>
      <trkpt lat="62.09679102525115" lon="7.221731012687087">
        <ele>230.37</ele>
        <time>2017-06-20T11:38:02Z</time>
      </trkpt>
      <trkpt lat="62.096157018095255" lon="7.222518995404244">
        <ele>225.09</ele>
        <time>2017-06-20T11:38:09Z</time>
      </trkpt>
      <trkpt lat="62.096054004505277" lon="7.222570963203907">
        <ele>224.12</ele>
        <time>2017-06-20T11:38:10Z</time>
      </trkpt>
      <trkpt lat="62.09595300257206" lon="7.222584038972855">
        <ele>223.63999999999999</ele>
        <time>2017-06-20T11:38:11Z</time>
      </trkpt>
      <trkpt lat="62.095852000638843" lon="7.222549002617598">
        <ele>223.16</ele>
        <time>2017-06-20T11:38:12Z</time>
      </trkpt>
      <trkpt lat="62.095752004534006" lon="7.222479013726115">
        <ele>221.72</ele>
        <time>2017-06-20T11:38:13Z</time>
      </trkpt>
      <trkpt lat="62.095657959580421" lon="7.222392009571195">
        <ele>221.24000000000001</ele>
        <time>2017-06-20T11:38:14Z</time>
      </trkpt>
      <trkpt lat="62.095562992617488" lon="7.222303999587894">
        <ele>220.75999999999999</ele>
        <time>2017-06-20T11:38:15Z</time>
      </trkpt>
      <trkpt lat="62.095452016219497" lon="7.22223199903965">
        <ele>219.80000000000001</ele>
        <time>2017-06-20T11:38:16Z</time>
      </trkpt>
      <trkpt lat="62.095338022336364" lon="7.222191011533141">
        <ele>219.31999999999999</ele>
        <time>2017-06-20T11:38:17Z</time>
      </trkpt>
      <trkpt lat="62.094976007938385" lon="7.222115993499756">
        <ele>215.94999999999999</ele>
        <time>2017-06-20T11:38:20Z</time>
      </trkpt>
      <trkpt lat="62.094850027933717" lon="7.222022032365203">
        <ele>214.50999999999999</ele>
        <time>2017-06-20T11:38:21Z</time>
      </trkpt>
      <trkpt lat="62.094733016565442" lon="7.221891023218632">
        <ele>213.06999999999999</ele>
        <time>2017-06-20T11:38:22Z</time>
      </trkpt>
      <trkpt lat="62.093574972823262" lon="7.220316985622048">
        <ele>199.61000000000001</ele>
        <time>2017-06-20T11:38:33Z</time>
      </trkpt>
      <trkpt lat="62.09354898892343" lon="7.220202991738915">
        <ele>199.13</ele>
        <time>2017-06-20T11:38:34Z</time>
      </trkpt>
      <trkpt lat="62.09356902167201" lon="7.220120010897517">
        <ele>199.13</ele>
        <time>2017-06-20T11:38:35Z</time>
      </trkpt>
      <trkpt lat="62.093647979199886" lon="7.220067959278822">
        <ele>197.21000000000001</ele>
        <time>2017-06-20T11:38:37Z</time>
      </trkpt>
      <trkpt lat="62.093699024990201" lon="7.220139959827066">
        <ele>196.72999999999999</ele>
        <time>2017-06-20T11:38:38Z</time>
      </trkpt>
      <trkpt lat="62.093747975304723" lon="7.220246996730566">
        <ele>195.77000000000001</ele>
        <time>2017-06-20T11:38:39Z</time>
      </trkpt>
      <trkpt lat="62.093810001388192" lon="7.220377000048757">
        <ele>194.31999999999999</ele>
        <time>2017-06-20T11:38:40Z</time>
      </trkpt>
      <trkpt lat="62.0941929705441" lon="7.220988962799311">
        <ele>190</ele>
        <time>2017-06-20T11:38:46Z</time>
      </trkpt>
      <trkpt lat="62.09427997469902" lon="7.221120977774262">
        <ele>188.56</ele>
        <time>2017-06-20T11:38:50Z</time>
      </trkpt>
      <trkpt lat="62.09438600577414" lon="7.221195995807648">
        <ele>187.59</ele>
        <time>2017-06-20T11:38:52Z</time>
      </trkpt>
      <trkpt lat="62.094438979402184" lon="7.221162971109152">
        <ele>187.11000000000001</ele>
        <time>2017-06-20T11:38:53Z</time>
      </trkpt>
      <trkpt lat="62.094449959695339" lon="7.221068004146218">
        <ele>186.63</ele>
        <time>2017-06-20T11:38:54Z</time>
      </trkpt>
      <trkpt lat="62.09427704103291" lon="7.220766004174948">
        <ele>185.19</ele>
        <time>2017-06-20T11:38:57Z</time>
      </trkpt>
      <trkpt lat="62.094217026606202" lon="7.220712024718523">
        <ele>184.71000000000001</ele>
        <time>2017-06-20T11:38:58Z</time>
      </trkpt>
      <trkpt lat="62.093860963359475" lon="7.220151023939252">
        <ele>179.90000000000001</ele>
        <time>2017-06-20T11:39:03Z</time>
      </trkpt>
      <trkpt lat="62.093798015266657" lon="7.219995958730578">
        <ele>179.41999999999999</ele>
        <time>2017-06-20T11:39:04Z</time>
      </trkpt>
      <trkpt lat="62.093742024153471" lon="7.219809964299202">
        <ele>178.46000000000001</ele>
        <time>2017-06-20T11:39:05Z</time>
      </trkpt>
      <trkpt lat="62.093558963388205" lon="7.219089036807418">
        <ele>175.58000000000001</ele>
        <time>2017-06-20T11:39:09Z</time>
      </trkpt>
      <trkpt lat="62.093549994751811" lon="7.21894302405417">
        <ele>174.62</ele>
        <time>2017-06-20T11:39:10Z</time>
      </trkpt>
      <trkpt lat="62.093564998358488" lon="7.218834981322289">
        <ele>173.66</ele>
        <time>2017-06-20T11:39:11Z</time>
      </trkpt>
      <trkpt lat="62.093620989471674" lon="7.218798017129302">
        <ele>173.16999999999999</ele>
        <time>2017-06-20T11:39:12Z</time>
      </trkpt>
      <trkpt lat="62.093689972534776" lon="7.218818971887231">
        <ele>172.69</ele>
        <time>2017-06-20T11:39:13Z</time>
      </trkpt>
      <trkpt lat="62.09376398473978" lon="7.218874040991068">
        <ele>171.72999999999999</ele>
        <time>2017-06-20T11:39:14Z</time>
      </trkpt>
      <trkpt lat="62.093841014429927" lon="7.21892299130559">
        <ele>170.77000000000001</ele>
        <time>2017-06-20T11:39:15Z</time>
      </trkpt>
      <trkpt lat="62.09402097389102" lon="7.218921985477209">
        <ele>168.84999999999999</ele>
        <time>2017-06-20T11:39:17Z</time>
      </trkpt>
      <trkpt lat="62.094102026894689" lon="7.218845039606094">
        <ele>167.41</ele>
        <time>2017-06-20T11:39:18Z</time>
      </trkpt>
      <trkpt lat="62.094186013564467" lon="7.218736996874213">
        <ele>167.41</ele>
        <time>2017-06-20T11:39:19Z</time>
      </trkpt>
      <trkpt lat="62.094498993828893" lon="7.21832100301981">
        <ele>165</ele>
        <time>2017-06-20T11:39:23Z</time>
      </trkpt>
      <trkpt lat="62.094587003812194" lon="7.218270041048527">
        <ele>165</ele>
        <time>2017-06-20T11:39:24Z</time>
      </trkpt>
      <trkpt lat="62.094679037109017" lon="7.218260988593102">
        <ele>164.03999999999999</ele>
        <time>2017-06-20T11:39:25Z</time>
      </trkpt>
      <trkpt lat="62.094972990453243" lon="7.218249002471566">
        <ele>161.63999999999999</ele>
        <time>2017-06-20T11:39:28Z</time>
      </trkpt>
      <trkpt lat="62.095055971294641" lon="7.218186976388097">
        <ele>161.16</ele>
        <time>2017-06-20T11:39:29Z</time>
      </trkpt>
      <trkpt lat="62.095125960186124" lon="7.218088991940022">
        <ele>160.19999999999999</ele>
        <time>2017-06-20T11:39:30Z</time>
      </trkpt>
      <trkpt lat="62.0951790176332" lon="7.217951025813818">
        <ele>159.24000000000001</ele>
        <time>2017-06-20T11:39:31Z</time>
      </trkpt>
      <trkpt lat="62.09522201679647" lon="7.217797972261906">
        <ele>158.75</ele>
        <time>2017-06-20T11:39:32Z</time>
      </trkpt>
      <trkpt lat="62.095251018181443" lon="7.217636033892632">
        <ele>158.27000000000001</ele>
        <time>2017-06-20T11:39:33Z</time>
      </trkpt>
      <trkpt lat="62.095269039273262" lon="7.217463031411171">
        <ele>157.31</ele>
        <time>2017-06-20T11:39:34Z</time>
      </trkpt>
      <trkpt lat="62.095283959060907" lon="7.21729296259582">
        <ele>156.34999999999999</ele>
        <time>2017-06-20T11:39:35Z</time>
      </trkpt>
      <trkpt lat="62.095363000407815" lon="7.216771021485329">
        <ele>152.99000000000001</ele>
        <time>2017-06-20T11:39:38Z</time>
      </trkpt>
      <trkpt lat="62.0954380184412" lon="7.216605981811881">
        <ele>152.50999999999999</ele>
        <time>2017-06-20T11:39:39Z</time>
      </trkpt>
      <trkpt lat="62.095536002889276" lon="7.216460974887013">
        <ele>152.50999999999999</ele>
        <time>2017-06-20T11:39:40Z</time>
      </trkpt>
      <trkpt lat="62.095635998994112" lon="7.216348992660642">
        <ele>151.53999999999999</ele>
        <time>2017-06-20T11:39:41Z</time>
      </trkpt>
      <trkpt lat="62.095744041725993" lon="7.216258971020579">
        <ele>150.58000000000001</ele>
        <time>2017-06-20T11:39:42Z</time>
      </trkpt>
      <trkpt lat="62.095852000638843" lon="7.216182025149465">
        <ele>149.62</ele>
        <time>2017-06-20T11:39:43Z</time>
      </trkpt>
      <trkpt lat="62.09661802276969" lon="7.215655976906419">
        <ele>143.37</ele>
        <time>2017-06-20T11:39:52Z</time>
      </trkpt>
      <trkpt lat="62.096687005832791" lon="7.215577019378543">
        <ele>142.88999999999999</ele>
        <time>2017-06-20T11:39:53Z</time>
      </trkpt>
      <trkpt lat="62.096745008602738" lon="7.21546595916152">
        <ele>141.93000000000001</ele>
        <time>2017-06-20T11:39:54Z</time>
      </trkpt>
      <trkpt lat="62.09679102525115" lon="7.215328998863697">
        <ele>141.44999999999999</ele>
        <time>2017-06-20T11:39:55Z</time>
      </trkpt>
      <trkpt lat="62.096820026636124" lon="7.215175023302436">
        <ele>140.97</ele>
        <time>2017-06-20T11:39:56Z</time>
      </trkpt>
      <trkpt lat="62.096835030242801" lon="7.215006966143847">
        <ele>140.49000000000001</ele>
        <time>2017-06-20T11:39:57Z</time>
      </trkpt>
      <trkpt lat="62.096831006929278" lon="7.214844021946192">
        <ele>139.53</ele>
        <time>2017-06-20T11:39:58Z</time>
      </trkpt>
      <trkpt lat="62.096810974180698" lon="7.214672025293112">
        <ele>139.05000000000001</ele>
        <time>2017-06-20T11:39:59Z</time>
      </trkpt>
      <trkpt lat="62.096775015816092" lon="7.214503968134522">
        <ele>138.56999999999999</ele>
        <time>2017-06-20T11:40:00Z</time>
      </trkpt>
      <trkpt lat="62.096735034137964" lon="7.214327026158571">
        <ele>138.56999999999999</ele>
        <time>2017-06-20T11:40:01Z</time>
      </trkpt>
      <trkpt lat="62.096545016393065" lon="7.213323963806033">
        <ele>134.24000000000001</ele>
        <time>2017-06-20T11:40:06Z</time>
      </trkpt>
      <trkpt lat="62.096526995301247" lon="7.211616989225149">
        <ele>127.51000000000001</ele>
        <time>2017-06-20T11:40:16Z</time>
      </trkpt>
      <trkpt lat="62.096720030531287" lon="7.210171027109027">
        <ele>125.11</ele>
        <time>2017-06-20T11:40:25Z</time>
      </trkpt>
      <trkpt lat="62.096761018037796" lon="7.210033982992172">
        <ele>125.11</ele>
        <time>2017-06-20T11:40:26Z</time>
      </trkpt>
      <trkpt lat="62.096778033301234" lon="7.209903979673982">
        <ele>123.67</ele>
        <time>2017-06-20T11:40:27Z</time>
      </trkpt>
      <trkpt lat="62.096818014979362" lon="7.209815969690681">
        <ele>123.19</ele>
        <time>2017-06-20T11:40:28Z</time>
      </trkpt>
      <trkpt lat="62.096869982779026" lon="7.209765007719398">
        <ele>123.19</ele>
        <time>2017-06-20T11:40:29Z</time>
      </trkpt>
      <trkpt lat="62.096922034397721" lon="7.209739023819566">
        <ele>122.22</ele>
        <time>2017-06-20T11:40:30Z</time>
      </trkpt>
      <trkpt lat="62.096999986097217" lon="7.209767019376159">
        <ele>122.22</ele>
        <time>2017-06-20T11:40:31Z</time>
      </trkpt>
      <trkpt lat="62.097090007737279" lon="7.209875984117389">
        <ele>122.70999999999999</ele>
        <time>2017-06-20T11:40:32Z</time>
      </trkpt>
      <trkpt lat="62.097196038812399" lon="7.210000036284328">
        <ele>122.22</ele>
        <time>2017-06-20T11:40:33Z</time>
      </trkpt>
      <trkpt lat="62.097381027415395" lon="7.210159962996841">
        <ele>123.67</ele>
        <time>2017-06-20T11:40:34Z</time>
      </trkpt>
      <trkpt lat="62.098069014027715" lon="7.210638988763094">
        <ele>126.06999999999999</ele>
        <time>2017-06-20T11:40:39Z</time>
      </trkpt>
      <trkpt lat="62.098591038957238" lon="7.209793003275991">
        <ele>125.11</ele>
        <time>2017-06-20T11:40:45Z</time>
      </trkpt>
      <trkpt lat="62.098688017576933" lon="7.208059038966894">
        <ele>122.22</ele>
        <time>2017-06-20T11:40:48Z</time>
      </trkpt>
      <trkpt lat="62.098842998966575" lon="7.207733988761902">
        <ele>120.3</ele>
        <time>2017-06-20T11:40:51Z</time>
      </trkpt>
      <trkpt lat="62.098873006179929" lon="7.20762200653553">
        <ele>119.81999999999999</ele>
        <time>2017-06-20T11:40:52Z</time>
      </trkpt>
      <trkpt lat="62.098856996744871" lon="7.207507006824017">
        <ele>118.86</ele>
        <time>2017-06-20T11:40:53Z</time>
      </trkpt>
      <trkpt lat="62.098833024501801" lon="7.207432994619012">
        <ele>118.86</ele>
        <time>2017-06-20T11:40:54Z</time>
      </trkpt>
      <trkpt lat="62.098770998418331" lon="7.2074060048908">
        <ele>117.90000000000001</ele>
        <time>2017-06-20T11:40:55Z</time>
      </trkpt>
      <trkpt lat="62.098698997870088" lon="7.207440035417676">
        <ele>116.94</ele>
        <time>2017-06-20T11:40:56Z</time>
      </trkpt>
      <trkpt lat="62.098625991493464" lon="7.207508012652397">
        <ele>115.98</ele>
        <time>2017-06-20T11:40:57Z</time>
      </trkpt>
      <trkpt lat="62.098543010652065" lon="7.20760197378695">
        <ele>115.5</ele>
        <time>2017-06-20T11:40:58Z</time>
      </trkpt>
      <trkpt lat="62.098459023982286" lon="7.207702975720167">
        <ele>114.05</ele>
        <time>2017-06-20T11:40:59Z</time>
      </trkpt>
      <trkpt lat="62.098374031484127" lon="7.207800038158894">
        <ele>112.61</ele>
        <time>2017-06-20T11:41:00Z</time>
      </trkpt>
      <trkpt lat="62.098157024011016" lon="7.208107989281416">
        <ele>107.31999999999999</ele>
        <time>2017-06-20T11:41:07Z</time>
      </trkpt>
      <trkpt lat="62.098026014864445" lon="7.208238998427987">
        <ele>106.84</ele>
        <time>2017-06-20T11:41:11Z</time>
      </trkpt>
      <trkpt lat="62.0980179682374" lon="7.20815802924335">
        <ele>105.40000000000001</ele>
        <time>2017-06-20T11:41:12Z</time>
      </trkpt>
      <trkpt lat="62.098030960187316" lon="7.208055015653372">
        <ele>103.95999999999999</ele>
        <time>2017-06-20T11:41:13Z</time>
      </trkpt>
      <trkpt lat="62.098074965178967" lon="7.207990977913141">
        <ele>103.95999999999999</ele>
        <time>2017-06-20T11:41:14Z</time>
      </trkpt>
      <trkpt lat="62.098131962120533" lon="7.207930041477084">
        <ele>103</ele>
        <time>2017-06-20T11:41:15Z</time>
      </trkpt>
      <trkpt lat="62.098193988204002" lon="7.207875978201628">
        <ele>103</ele>
        <time>2017-06-20T11:41:16Z</time>
      </trkpt>
      <trkpt lat="62.098312005400658" lon="7.207704987376928">
        <ele>101.08</ele>
        <time>2017-06-20T11:41:18Z</time>
      </trkpt>
      <trkpt lat="62.098364979028702" lon="7.20760096795857">
        <ele>100.11</ele>
        <time>2017-06-20T11:41:19Z</time>
      </trkpt>
      <trkpt lat="62.098417030647397" lon="7.207482028752565">
        <ele>99.150000000000006</ele>
        <time>2017-06-20T11:41:20Z</time>
      </trkpt>
      <trkpt lat="62.098822966217995" lon="7.206738973036408">
        <ele>92.420000000000002</ele>
        <time>2017-06-20T11:41:27Z</time>
      </trkpt>
      <trkpt lat="62.099032010883093" lon="7.206386011093855">
        <ele>89.540000000000006</ele>
        <time>2017-06-20T11:41:31Z</time>
      </trkpt>
      <trkpt lat="62.099098982289433" lon="7.206336976960301">
        <ele>89.540000000000006</ele>
        <time>2017-06-20T11:41:32Z</time>
      </trkpt>
      <trkpt lat="62.099166959524155" lon="7.20631099306047">
        <ele>88.579999999999998</ele>
        <time>2017-06-20T11:41:33Z</time>
      </trkpt>
      <trkpt lat="62.099238038063049" lon="7.206315016373992">
        <ele>88.099999999999994</ele>
        <time>2017-06-20T11:41:34Z</time>
      </trkpt>
      <trkpt lat="62.099312972277403" lon="7.206339994445443">
        <ele>87.140000000000001</ele>
        <time>2017-06-20T11:41:35Z</time>
      </trkpt>
      <trkpt lat="62.099374998360872" lon="7.206379976123571">
        <ele>84.730000000000004</ele>
        <time>2017-06-20T11:41:36Z</time>
      </trkpt>
      <trkpt lat="62.099452028051019" lon="7.206422975286841">
        <ele>84.730000000000004</ele>
        <time>2017-06-20T11:41:37Z</time>
      </trkpt>
      <trkpt lat="62.100278986617923" lon="7.206885991618037">
        <ele>70.310000000000002</ele>
        <time>2017-06-20T11:41:48Z</time>
      </trkpt>
      <trkpt lat="62.101424960419536" lon="7.207539025694132">
        <ele>57.340000000000003</ele>
        <time>2017-06-20T11:42:04Z</time>
      </trkpt>
      <trkpt lat="62.10205796174705" lon="7.207345990464091">
        <ele>52.530000000000001</ele>
        <time>2017-06-20T11:42:13Z</time>
      </trkpt>
      <trkpt lat="62.102624997496605" lon="7.206212002784014">
        <ele>48.200000000000003</ele>
        <time>2017-06-20T11:42:25Z</time>
      </trkpt>
      <trkpt lat="62.102868994697928" lon="7.205153033137322">
        <ele>42.920000000000002</ele>
        <time>2017-06-20T11:42:35Z</time>
      </trkpt>
      <trkpt lat="62.103096982464194" lon="7.204684987664223">
        <ele>39.549999999999997</ele>
        <time>2017-06-20T11:42:41Z</time>
      </trkpt>
      <trkpt lat="62.103698970749974" lon="7.203556029126048">
        <ele>32.82</ele>
        <time>2017-06-20T11:42:53Z</time>
      </trkpt>
      <trkpt lat="62.103856969624758" lon="7.203087983652949">
        <ele>30.420000000000002</ele>
        <time>2017-06-20T11:42:57Z</time>
      </trkpt>
      <trkpt lat="62.104563983157277" lon="7.201559040695429">
        <ele>22.73</ele>
        <time>2017-06-20T11:43:09Z</time>
      </trkpt>
      <trkpt lat="62.105529997497797" lon="7.199957007542253">
        <ele>15.039999999999999</ele>
        <time>2017-06-20T11:43:22Z</time>
      </trkpt>
      <trkpt lat="62.106414958834648" lon="7.197558023035526">
        <ele>4.46</ele>
        <time>2017-06-20T11:43:35Z</time>
      </trkpt>
      <trkpt lat="62.10714703425765" lon="7.19563202932477">
        <ele>-5.63</ele>
        <time>2017-06-20T11:43:46Z</time>
      </trkpt>
      <trkpt lat="62.107333028689027" lon="7.195275966078043">
        <ele>-9</ele>
        <time>2017-06-20T11:43:50Z</time>
      </trkpt>
      <trkpt lat="62.107432018965483" lon="7.195231961086392">
        <ele>-9</ele>
        <time>2017-06-20T11:43:51Z</time>
      </trkpt>
      <trkpt lat="62.107753967866302" lon="7.194828959181905">
        <ele>-11.4</ele>
        <time>2017-06-20T11:43:59Z</time>
      </trkpt>
      <trkpt lat="62.108336007222533" lon="7.194980001077056">
        <ele>-5.15</ele>
        <time>2017-06-20T11:44:08Z</time>
      </trkpt>
      <trkpt lat="62.108554020524025" lon="7.194834994152188">
        <ele>-8.51</ele>
        <time>2017-06-20T11:44:20Z</time>
      </trkpt>
      <trkpt lat="62.109420960769057" lon="7.194209033623338">
        <ele>-7.55</ele>
        <time>2017-06-20T11:44:28Z</time>
      </trkpt>
      <trkpt lat="62.110115988180041" lon="7.193579971790314">
        <ele>-9</ele>
        <time>2017-06-20T11:44:36Z</time>
      </trkpt>
      <trkpt lat="62.110158987343311" lon="7.193520963191986">
        <ele>-9.48</ele>
        <time>2017-06-20T11:44:37Z</time>
      </trkpt>
      <trkpt lat="62.110182037577033" lon="7.193448040634394">
        <ele>-9.960000000000001</ele>
        <time>2017-06-20T11:44:38Z</time>
      </trkpt>
      <trkpt lat="62.110208021476865" lon="7.193364975973964">
        <ele>-10.44</ele>
        <time>2017-06-20T11:44:39Z</time>
      </trkpt>
      <trkpt lat="62.110229982063174" lon="7.193262968212366">
        <ele>-8.51</ele>
        <time>2017-06-20T11:44:40Z</time>
      </trkpt>
      <trkpt lat="62.110249008983374" lon="7.193164983764291">
        <ele>-7.07</ele>
        <time>2017-06-20T11:44:41Z</time>
      </trkpt>
      <trkpt lat="62.110258983448148" lon="7.192983012646437">
        <ele>-2.75</ele>
        <time>2017-06-20T11:44:43Z</time>
      </trkpt>
      <trkpt lat="62.110267030075192" lon="7.192783020436764">
        <ele>4.94</ele>
        <time>2017-06-20T11:44:53Z</time>
      </trkpt>
      <trkpt lat="62.110270969569683" lon="7.192752007395029">
        <ele>4.94</ele>
        <time>2017-06-20T11:45:23Z</time>
      </trkpt>
      <trkpt lat="62.110294019803405" lon="7.192759970203042">
        <ele>6.87</ele>
        <time>2017-06-20T11:46:02Z</time>
      </trkpt>
      <trkpt lat="62.110298965126276" lon="7.192766005173326">
        <ele>6.87</ele>
        <time>2017-06-20T11:46:42Z</time>
      </trkpt>
      <trkpt lat="62.110311035066843" lon="7.192786959931254">
        <ele>7.35</ele>
        <time>2017-06-20T11:47:25Z</time>
      </trkpt>
      <trkpt lat="62.110316986218095" lon="7.192798024043441">
        <ele>7.35</ele>
        <time>2017-06-20T11:47:33Z</time>
      </trkpt>
      <trkpt lat="62.11043399758637" lon="7.192858038470149">
        <ele>7.35</ele>
        <time>2017-06-20T11:47:36Z</time>
      </trkpt>
      <trkpt lat="62.110558971762657" lon="7.192911012098193">
        <ele>8.310000000000001</ele>
        <time>2017-06-20T11:47:38Z</time>
      </trkpt>
      <trkpt lat="62.110644970089197" lon="7.192889973521233">
        <ele>7.83</ele>
        <time>2017-06-20T11:47:39Z</time>
      </trkpt>
      <trkpt lat="62.110747983679175" lon="7.192815961316228">
        <ele>7.83</ele>
        <time>2017-06-20T11:47:40Z</time>
      </trkpt>
      <trkpt lat="62.111860010772943" lon="7.191770989447832">
        <ele>4.94</ele>
        <time>2017-06-20T11:47:49Z</time>
      </trkpt>
      <trkpt lat="62.113604033365846" lon="7.190425023436546">
        <ele>1.58</ele>
        <time>2017-06-20T11:48:02Z</time>
      </trkpt>
      <trkpt lat="62.113714003935456" lon="7.190278004854918">
        <ele>1.1</ele>
        <time>2017-06-20T11:48:03Z</time>
      </trkpt>
      <trkpt lat="62.113865967839956" lon="7.190131992101669">
        <ele>0.62</ele>
        <time>2017-06-20T11:48:04Z</time>
      </trkpt>
      <trkpt lat="62.113997982814908" lon="7.189933005720377">
        <ele>0.62</ele>
        <time>2017-06-20T11:48:05Z</time>
      </trkpt>
      <trkpt lat="62.114092027768493" lon="7.189665958285332">
        <ele>0.62</ele>
        <time>2017-06-20T11:48:06Z</time>
      </trkpt>
      <trkpt lat="62.114200992509723" lon="7.189379967749119">
        <ele>1.58</ele>
        <time>2017-06-20T11:48:07Z</time>
      </trkpt>
      <trkpt lat="62.114270981401205" lon="7.189105963334441">
        <ele>3.02</ele>
        <time>2017-06-20T11:48:08Z</time>
      </trkpt>
      <trkpt lat="62.114362008869648" lon="7.188846040517092">
        <ele>3.5</ele>
        <time>2017-06-20T11:48:09Z</time>
      </trkpt>
      <trkpt lat="62.114459993317723" lon="7.18858796171844">
        <ele>3.98</ele>
        <time>2017-06-20T11:48:10Z</time>
      </trkpt>
      <trkpt lat="62.114626038819551" lon="7.188041964545846">
        <ele>7.83</ele>
        <time>2017-06-20T11:48:12Z</time>
      </trkpt>
      <trkpt lat="62.114696027711034" lon="7.187744993716478">
        <ele>10.710000000000001</ele>
        <time>2017-06-20T11:48:13Z</time>
      </trkpt>
      <trkpt lat="62.114751012995839" lon="7.187441987916827">
        <ele>11.67</ele>
        <time>2017-06-20T11:48:14Z</time>
      </trkpt>
      <trkpt lat="62.114862995222211" lon="7.187173012644053">
        <ele>16</ele>
        <time>2017-06-20T11:48:15Z</time>
      </trkpt>
      <trkpt lat="62.114956034347415" lon="7.18691099435091">
        <ele>19.359999999999999</ele>
        <time>2017-06-20T11:48:16Z</time>
      </trkpt>
      <trkpt lat="62.115048989653587" lon="7.186666997149587">
        <ele>22.73</ele>
        <time>2017-06-20T11:48:17Z</time>
      </trkpt>
      <trkpt lat="62.115134987980127" lon="7.186490977182984">
        <ele>23.690000000000001</ele>
        <time>2017-06-20T11:48:18Z</time>
      </trkpt>
      <trkpt lat="62.115235989913344" lon="7.186311017721891">
        <ele>23.210000000000001</ele>
        <time>2017-06-20T11:48:19Z</time>
      </trkpt>
      <trkpt lat="62.115344032645226" lon="7.186157964169979">
        <ele>23.210000000000001</ele>
        <time>2017-06-20T11:48:20Z</time>
      </trkpt>
      <trkpt lat="62.115816017612815" lon="7.185332011431456">
        <ele>28.5</ele>
        <time>2017-06-20T11:48:24Z</time>
      </trkpt>
      <trkpt lat="62.115905033424497" lon="7.185036968439817">
        <ele>30.899999999999999</ele>
        <time>2017-06-20T11:48:25Z</time>
      </trkpt>
      <trkpt lat="62.116137966513634" lon="7.184196012094617">
        <ele>36.189999999999998</ele>
        <time>2017-06-20T11:48:28Z</time>
      </trkpt>
      <trkpt lat="62.116225976496935" lon="7.183953020721674">
        <ele>37.630000000000003</ele>
        <time>2017-06-20T11:48:29Z</time>
      </trkpt>
      <trkpt lat="62.117296010255814" lon="7.181380027905107">
        <ele>51.090000000000003</ele>
        <time>2017-06-20T11:48:39Z</time>
      </trkpt>
      <trkpt lat="62.117621982470155" lon="7.180322986096144">
        <ele>55.409999999999997</ele>
        <time>2017-06-20T11:48:43Z</time>
      </trkpt>
      <trkpt lat="62.117685014382005" lon="7.180123999714851">
        <ele>57.340000000000003</ele>
        <time>2017-06-20T11:48:44Z</time>
      </trkpt>
      <trkpt lat="62.117792973294854" lon="7.179703982546926">
        <ele>60.219999999999999</ele>
        <time>2017-06-20T11:48:48Z</time>
      </trkpt>
      <trkpt lat="62.117857011035085" lon="7.179833985865116">
        <ele>60.219999999999999</ele>
        <time>2017-06-20T11:48:51Z</time>
      </trkpt>
      <trkpt lat="62.117859022691846" lon="7.179964995011687">
        <ele>61.18</ele>
        <time>2017-06-20T11:48:52Z</time>
      </trkpt>
      <trkpt lat="62.117833038792014" lon="7.180116958916187">
        <ele>64.549999999999997</ele>
        <time>2017-06-20T11:48:53Z</time>
      </trkpt>
      <trkpt lat="62.117796996608377" lon="7.180291973054409">
        <ele>65.989999999999995</ele>
        <time>2017-06-20T11:48:54Z</time>
      </trkpt>
      <trkpt lat="62.117476975545287" lon="7.182254008948803">
        <ele>79.930000000000007</ele>
        <time>2017-06-20T11:49:02Z</time>
      </trkpt>
      <trkpt lat="62.117139017209411" lon="7.184244962409139">
        <ele>91.939999999999998</ele>
        <time>2017-06-20T11:49:10Z</time>
      </trkpt>
      <trkpt lat="62.117088977247477" lon="7.184514021500945">
        <ele>92.420000000000002</ele>
        <time>2017-06-20T11:49:12Z</time>
      </trkpt>
      <trkpt lat="62.117086965590715" lon="7.184621980413795">
        <ele>92.900000000000006</ele>
        <time>2017-06-20T11:49:13Z</time>
      </trkpt>
      <trkpt lat="62.117123007774353" lon="7.184694986790419">
        <ele>92.900000000000006</ele>
        <time>2017-06-20T11:49:14Z</time>
      </trkpt>
      <trkpt lat="62.117157960310578" lon="7.184715019538999">
        <ele>92.900000000000006</ele>
        <time>2017-06-20T11:49:15Z</time>
      </trkpt>
      <trkpt lat="62.117268014699221" lon="7.184663973748684">
        <ele>93.390000000000001</ele>
        <time>2017-06-20T11:49:16Z</time>
      </trkpt>
      <trkpt lat="62.117318976670504" lon="7.184490971267223">
        <ele>93.870000000000005</ele>
        <time>2017-06-20T11:49:17Z</time>
      </trkpt>
      <trkpt lat="62.117344038560987" lon="7.184288967400789">
        <ele>94.349999999999994</ele>
        <time>2017-06-20T11:49:18Z</time>
      </trkpt>
      <trkpt lat="62.11739600636065" lon="7.184071959927678">
        <ele>94.829999999999998</ele>
        <time>2017-06-20T11:49:19Z</time>
      </trkpt>
      <trkpt lat="62.117441017180681" lon="7.183828968554735">
        <ele>95.310000000000002</ele>
        <time>2017-06-20T11:49:20Z</time>
      </trkpt>
      <trkpt lat="62.117488961666822" lon="7.183578014373779">
        <ele>95.310000000000002</ele>
        <time>2017-06-20T11:49:21Z</time>
      </trkpt>
      <trkpt lat="62.117746034637094" lon="7.182515021413565">
        <ele>101.08</ele>
        <time>2017-06-20T11:49:25Z</time>
      </trkpt>
      <trkpt lat="62.118496969342232" lon="7.179596023634076">
        <ele>116.94</ele>
        <time>2017-06-20T11:49:36Z</time>
      </trkpt>
      <trkpt lat="62.118641976267099" lon="7.179269967600703">
        <ele>121.73999999999999</ele>
        <time>2017-06-20T11:49:40Z</time>
      </trkpt>
      <trkpt lat="62.118618004024029" lon="7.179500972852111">
        <ele>122.70999999999999</ele>
        <time>2017-06-20T11:49:44Z</time>
      </trkpt>
      <trkpt lat="62.118584979325533" lon="7.179646985605359">
        <ele>123.19</ele>
        <time>2017-06-20T11:49:45Z</time>
      </trkpt>
      <trkpt lat="62.118554972112179" lon="7.179824011400342">
        <ele>123.67</ele>
        <time>2017-06-20T11:49:46Z</time>
      </trkpt>
      <trkpt lat="62.118432009592652" lon="7.180694974958897">
        <ele>128.47</ele>
        <time>2017-06-20T11:49:50Z</time>
      </trkpt>
      <trkpt lat="62.118412982672453" lon="7.18093796633184">
        <ele>129.43000000000001</ele>
        <time>2017-06-20T11:49:51Z</time>
      </trkpt>
      <trkpt lat="62.118323966860771" lon="7.183697959408164">
        <ele>141.44999999999999</ele>
        <time>2017-06-20T11:50:02Z</time>
      </trkpt>
      <trkpt lat="62.118336958810687" lon="7.184187965467572">
        <ele>143.37</ele>
        <time>2017-06-20T11:50:05Z</time>
      </trkpt>
      <trkpt lat="62.118429997935891" lon="7.184387035667896">
        <ele>143.84999999999999</ele>
        <time>2017-06-20T11:50:07Z</time>
      </trkpt>
      <trkpt lat="62.118494035676122" lon="7.184407990425825">
        <ele>144.34</ele>
        <time>2017-06-20T11:50:08Z</time>
      </trkpt>
      <trkpt lat="62.118544997647405" lon="7.184358034282923">
        <ele>144.81999999999999</ele>
        <time>2017-06-20T11:50:09Z</time>
      </trkpt>
      <trkpt lat="62.118580034002662" lon="7.184197017922998">
        <ele>144.81999999999999</ele>
        <time>2017-06-20T11:50:10Z</time>
      </trkpt>
      <trkpt lat="62.118585985153913" lon="7.184005994349718">
        <ele>145.30000000000001</ele>
        <time>2017-06-20T11:50:11Z</time>
      </trkpt>
      <trkpt lat="62.118596965447068" lon="7.183788986876607">
        <ele>145.30000000000001</ele>
        <time>2017-06-20T11:50:12Z</time>
      </trkpt>
      <trkpt lat="62.118928972631693" lon="7.181674987077713">
        <ele>157.78999999999999</ele>
        <time>2017-06-20T11:50:20Z</time>
      </trkpt>
      <trkpt lat="62.119368016719818" lon="7.17904600314796">
        <ele>171.25</ele>
        <time>2017-06-20T11:50:29Z</time>
      </trkpt>
      <trkpt lat="62.119661970064044" lon="7.178149977698922">
        <ele>181.34999999999999</ele>
        <time>2017-06-20T11:50:35Z</time>
      </trkpt>
      <trkpt lat="62.119757020846009" lon="7.178161041811109">
        <ele>183.75</ele>
        <time>2017-06-20T11:50:36Z</time>
      </trkpt>
      <trkpt lat="62.119857016950846" lon="7.17816598713398">
        <ele>184.22999999999999</ele>
        <time>2017-06-20T11:50:37Z</time>
      </trkpt>
      <trkpt lat="62.119874032214284" lon="7.178150983527303">
        <ele>184.22999999999999</ele>
        <time>2017-06-20T11:50:38Z</time>
      </trkpt>
      <trkpt lat="62.119900016114116" lon="7.178185014054179">
        <ele>184.22999999999999</ele>
        <time>2017-06-20T11:50:39Z</time>
      </trkpt>
      <trkpt lat="62.119933040812612" lon="7.178246034309268">
        <ele>185.19</ele>
        <time>2017-06-20T11:50:40Z</time>
      </trkpt>
      <trkpt lat="62.119918037205935" lon="7.178336977958679">
        <ele>186.15000000000001</ele>
        <time>2017-06-20T11:50:41Z</time>
      </trkpt>
      <trkpt lat="62.1198870241642" lon="7.178456000983715">
        <ele>187.11000000000001</ele>
        <time>2017-06-20T11:50:42Z</time>
      </trkpt>
      <trkpt lat="62.119858022779226" lon="7.178606959059835">
        <ele>188.56</ele>
        <time>2017-06-20T11:50:43Z</time>
      </trkpt>
      <trkpt lat="62.119876965880394" lon="7.179267033934593">
        <ele>193.36000000000001</ele>
        <time>2017-06-20T11:50:46Z</time>
      </trkpt>
      <trkpt lat="62.120015015825629" lon="7.18192501924932">
        <ele>211.63</ele>
        <time>2017-06-20T11:50:56Z</time>
      </trkpt>
      <trkpt lat="62.120089028030634" lon="7.182671008631587">
        <ele>215.47</ele>
        <time>2017-06-20T11:50:59Z</time>
      </trkpt>
      <trkpt lat="62.120119035243988" lon="7.182918023318052">
        <ele>216.91</ele>
        <time>2017-06-20T11:51:00Z</time>
      </trkpt>
      <trkpt lat="62.120149964466691" lon="7.183184986934066">
        <ele>218.84</ele>
        <time>2017-06-20T11:51:01Z</time>
      </trkpt>
      <trkpt lat="62.120205033570528" lon="7.183409035205841">
        <ele>220.28</ele>
        <time>2017-06-20T11:51:02Z</time>
      </trkpt>
      <trkpt lat="62.120272004976869" lon="7.183613972738385">
        <ele>221.72</ele>
        <time>2017-06-20T11:51:03Z</time>
      </trkpt>
      <trkpt lat="62.120349034667015" lon="7.183804996311665">
        <ele>223.63999999999999</ele>
        <time>2017-06-20T11:51:04Z</time>
      </trkpt>
      <trkpt lat="62.120430003851652" lon="7.183977998793125">
        <ele>225.09</ele>
        <time>2017-06-20T11:51:05Z</time>
      </trkpt>
      <trkpt lat="62.120627984404564" lon="7.184315035119653">
        <ele>227.97</ele>
        <time>2017-06-20T11:51:08Z</time>
      </trkpt>
      <trkpt lat="62.120706019923091" lon="7.184342024847865">
        <ele>229.41</ele>
        <time>2017-06-20T11:51:09Z</time>
      </trkpt>
      <trkpt lat="62.120758993551135" lon="7.184287961572409">
        <ele>229.88999999999999</ele>
        <time>2017-06-20T11:51:10Z</time>
      </trkpt>
      <trkpt lat="62.120781037956476" lon="7.184174973517656">
        <ele>230.84999999999999</ele>
        <time>2017-06-20T11:51:11Z</time>
      </trkpt>
      <trkpt lat="62.12077097967267" lon="7.184043964371085">
        <ele>231.81</ele>
        <time>2017-06-20T11:51:12Z</time>
      </trkpt>
      <trkpt lat="62.120737032964826" lon="7.183899041265249">
        <ele>232.30000000000001</ele>
        <time>2017-06-20T11:51:13Z</time>
      </trkpt>
      <trkpt lat="62.120689004659653" lon="7.183744981884956">
        <ele>233.25999999999999</ele>
        <time>2017-06-20T11:51:14Z</time>
      </trkpt>
      <trkpt lat="62.120412988588214" lon="7.182659022510052">
        <ele>238.06</ele>
        <time>2017-06-20T11:51:19Z</time>
      </trkpt>
      <trkpt lat="62.120415000244975" lon="7.182413013651967">
        <ele>239.02000000000001</ele>
        <time>2017-06-20T11:51:20Z</time>
      </trkpt>
      <trkpt lat="62.120441989973187" lon="7.182157030329108">
        <ele>239.99000000000001</ele>
        <time>2017-06-20T11:51:21Z</time>
      </trkpt>
      <trkpt lat="62.12064097635448" lon="7.180001959204674">
        <ele>249.59999999999999</ele>
        <time>2017-06-20T11:51:29Z</time>
      </trkpt>
      <trkpt lat="62.120824037119746" lon="7.178678959608078">
        <ele>257.76999999999998</ele>
        <time>2017-06-20T11:51:34Z</time>
      </trkpt>
      <trkpt lat="62.120853960514069" lon="7.178203035145998">
        <ele>260.64999999999998</ele>
        <time>2017-06-20T11:51:37Z</time>
      </trkpt>
      <trkpt lat="62.120931996032596" lon="7.178160035982728">
        <ele>262.10000000000002</ele>
        <time>2017-06-20T11:51:38Z</time>
      </trkpt>
      <trkpt lat="62.12100500240922" lon="7.178161041811109">
        <ele>263.06</ele>
        <time>2017-06-20T11:51:39Z</time>
      </trkpt>
      <trkpt lat="62.121054958552122" lon="7.178219966590405">
        <ele>264.01999999999998</ele>
        <time>2017-06-20T11:51:40Z</time>
      </trkpt>
      <trkpt lat="62.121086977422237" lon="7.178344018757343">
        <ele>264.5</ele>
        <time>2017-06-20T11:51:41Z</time>
      </trkpt>
      <trkpt lat="62.121103992685676" lon="7.178511992096901">
        <ele>265.45999999999998</ele>
        <time>2017-06-20T11:51:42Z</time>
      </trkpt>
      <trkpt lat="62.121115978807211" lon="7.178710978478193">
        <ele>265.94</ele>
        <time>2017-06-20T11:51:43Z</time>
      </trkpt>
      <trkpt lat="62.121117990463972" lon="7.178926980122924">
        <ele>266.89999999999998</ele>
        <time>2017-06-20T11:51:44Z</time>
      </trkpt>
      <trkpt lat="62.121132994070649" lon="7.179744970053434">
        <ele>270.26999999999998</ele>
        <time>2017-06-20T11:51:47Z</time>
      </trkpt>
      <trkpt lat="62.121139029040933" lon="7.181062018498778">
        <ele>275.56</ele>
        <time>2017-06-20T11:51:52Z</time>
      </trkpt>
      <trkpt lat="62.121215974912047" lon="7.181782023981214">
        <ele>280.36000000000001</ele>
        <time>2017-06-20T11:51:56Z</time>
      </trkpt>
      <trkpt lat="62.121238019317389" lon="7.181876990944147">
        <ele>280.83999999999997</ele>
        <time>2017-06-20T11:51:57Z</time>
      </trkpt>
      <trkpt lat="62.121252017095685" lon="7.181943040341139">
        <ele>281.31999999999999</ele>
        <time>2017-06-20T11:51:58Z</time>
      </trkpt>
      <trkpt lat="62.121270038187504" lon="7.182068014517427">
        <ele>283.25</ele>
        <time>2017-06-20T11:52:06Z</time>
      </trkpt>
      <trkpt lat="62.121251011267304" lon="7.182161975651979">
        <ele>283.25</ele>
        <time>2017-06-20T11:52:16Z</time>
      </trkpt>
      <trkpt lat="62.121251011267304" lon="7.182174967601895">
        <ele>283.25</ele>
        <time>2017-06-20T11:52:17Z</time>
      </trkpt>
      <trkpt lat="62.121254028752446" lon="7.182197012007237">
        <ele>283.73000000000002</ele>
        <time>2017-06-20T11:52:18Z</time>
      </trkpt>
      <trkpt lat="62.12126400321722" lon="7.182219978421927">
        <ele>283.73000000000002</ele>
        <time>2017-06-20T11:52:19Z</time>
      </trkpt>
      <trkpt lat="62.121279006823897" lon="7.182237999513745">
        <ele>283.73000000000002</ele>
        <time>2017-06-20T11:52:20Z</time>
      </trkpt>
      <trkpt lat="62.121297027915716" lon="7.182255014777184">
        <ele>284.20999999999998</ele>
        <time>2017-06-20T11:52:34Z</time>
      </trkpt>
      <trkpt lat="62.121290992945433" lon="7.182255014777184">
        <ele>283.25</ele>
        <time>2017-06-20T11:53:59Z</time>
      </trkpt>
      <trkpt lat="62.121287975460291" lon="7.182251997292042">
        <ele>282.76999999999998</ele>
        <time>2017-06-20T11:55:41Z</time>
      </trkpt>
      <trkpt lat="62.121296022087336" lon="7.182246968150139">
        <ele>282.76999999999998</ele>
        <time>2017-06-20T11:56:47Z</time>
      </trkpt>
      <trkpt lat="62.121313959360123" lon="7.182234982028604">
        <ele>282.76999999999998</ele>
        <time>2017-06-20T11:56:48Z</time>
      </trkpt>
      <trkpt lat="62.121387971565127" lon="7.182171028107405">
        <ele>283.25</ele>
        <time>2017-06-20T11:56:51Z</time>
      </trkpt>
      <trkpt lat="62.121461983770132" lon="7.182186031714082">
        <ele>283.73000000000002</ele>
        <time>2017-06-20T11:56:52Z</time>
      </trkpt>
      <trkpt lat="62.12154496461153" lon="7.182253003120422">
        <ele>284.20999999999998</ele>
        <time>2017-06-20T11:56:53Z</time>
      </trkpt>
      <trkpt lat="62.122371001169086" lon="7.182710990309715">
        <ele>289.00999999999999</ele>
        <time>2017-06-20T11:57:00Z</time>
      </trkpt>
      <trkpt lat="62.123534996062517" lon="7.183249024674296">
        <ele>293.33999999999997</ele>
        <time>2017-06-20T11:57:08Z</time>
      </trkpt>
      <trkpt lat="62.12440000846982" lon="7.183509031310678">
        <ele>302.94999999999999</ele>
        <time>2017-06-20T11:57:14Z</time>
      </trkpt>
      <trkpt lat="62.124501010403037" lon="7.183570973575115">
        <ele>303.91000000000003</ele>
        <time>2017-06-20T11:57:15Z</time>
      </trkpt>
      <trkpt lat="62.124591032043099" lon="7.183636017143726">
        <ele>304.88</ele>
        <time>2017-06-20T11:57:16Z</time>
      </trkpt>
      <trkpt lat="62.124762022867799" lon="7.183812959119678">
        <ele>306.31999999999999</ele>
        <time>2017-06-20T11:57:19Z</time>
      </trkpt>
      <trkpt lat="62.124812984839082" lon="7.183841960504651">
        <ele>307.27999999999997</ele>
        <time>2017-06-20T11:57:20Z</time>
      </trkpt>
      <trkpt lat="62.124863024801016" lon="7.183846989646554">
        <ele>307.75999999999999</ele>
        <time>2017-06-20T11:57:21Z</time>
      </trkpt>
      <trkpt lat="62.124899988994002" lon="7.183767026290298">
        <ele>308.24000000000001</ele>
        <time>2017-06-20T11:57:22Z</time>
      </trkpt>
      <trkpt lat="62.124926978722215" lon="7.183695025742054">
        <ele>309.19999999999999</ele>
        <time>2017-06-20T11:57:23Z</time>
      </trkpt>
      <trkpt lat="62.124897977337241" lon="7.183646997436881">
        <ele>310.16000000000003</ele>
        <time>2017-06-20T11:57:24Z</time>
      </trkpt>
      <trkpt lat="62.124841986224055" lon="7.183621013537049">
        <ele>311.12</ele>
        <time>2017-06-20T11:57:25Z</time>
      </trkpt>
      <trkpt lat="62.124734027311206" lon="7.183539038524032">
        <ele>312.08999999999997</ele>
        <time>2017-06-20T11:57:26Z</time>
      </trkpt>
      <trkpt lat="62.12461500428617" lon="7.183438036590815">
        <ele>313.05000000000001</ele>
        <time>2017-06-20T11:57:27Z</time>
      </trkpt>
      <trkpt lat="62.124442001804709" lon="7.183275008574128">
        <ele>313.52999999999997</ele>
        <time>2017-06-20T11:57:28Z</time>
      </trkpt>
      <trkpt lat="62.124301018193364" lon="7.183083985000849">
        <ele>314.00999999999999</ele>
        <time>2017-06-20T11:57:29Z</time>
      </trkpt>
      <trkpt lat="62.124150982126594" lon="7.182857003062964">
        <ele>314.97000000000003</ele>
        <time>2017-06-20T11:57:30Z</time>
      </trkpt>
      <trkpt lat="62.123512029647827" lon="7.181943962350488">
        <ele>319.30000000000001</ele>
        <time>2017-06-20T11:57:35Z</time>
      </trkpt>
      <trkpt lat="62.123424019664526" lon="7.181726032868028">
        <ele>320.25999999999999</ele>
        <time>2017-06-20T11:57:36Z</time>
      </trkpt>
      <trkpt lat="62.123354030773044" lon="7.181477006524801">
        <ele>323.62</ele>
        <time>2017-06-20T11:57:37Z</time>
      </trkpt>
      <trkpt lat="62.122440990060568" lon="7.17896000482142">
        <ele>330.35000000000002</ele>
        <time>2017-06-20T11:57:47Z</time>
      </trkpt>
      <trkpt lat="62.122378963977098" lon="7.178696980699897">
        <ele>331.31</ele>
        <time>2017-06-20T11:57:48Z</time>
      </trkpt>
      <trkpt lat="62.122326996177435" lon="7.178457006812096">
        <ele>332.26999999999998</ele>
        <time>2017-06-20T11:57:49Z</time>
      </trkpt>
      <trkpt lat="62.122308975085616" lon="7.178210997954011">
        <ele>333.23000000000002</ele>
        <time>2017-06-20T11:57:50Z</time>
      </trkpt>
      <trkpt lat="62.122309980913997" lon="7.178013017401099">
        <ele>334.19999999999999</ele>
        <time>2017-06-20T11:57:51Z</time>
      </trkpt>
      <trkpt lat="62.122408971190453" lon="7.177781006321311">
        <ele>335.16000000000003</ele>
        <time>2017-06-20T11:57:52Z</time>
      </trkpt>
      <trkpt lat="62.122459011152387" lon="7.17758797109127">
        <ele>336.60000000000002</ele>
        <time>2017-06-20T11:57:53Z</time>
      </trkpt>
      <trkpt lat="62.122482983395457" lon="7.177355038002133">
        <ele>338.04000000000002</ele>
        <time>2017-06-20T11:57:54Z</time>
      </trkpt>
      <trkpt lat="62.122544003650546" lon="7.17706804163754">
        <ele>343.32999999999998</ele>
        <time>2017-06-20T11:57:55Z</time>
      </trkpt>
      <trkpt lat="62.122563030570745" lon="7.176774004474282">
        <ele>345.73000000000002</ele>
        <time>2017-06-20T11:57:56Z</time>
      </trkpt>
      <trkpt lat="62.122667971998453" lon="7.173665994778276">
        <ele>367.83999999999997</ele>
        <time>2017-06-20T11:58:05Z</time>
      </trkpt>
      <trkpt lat="62.123018000274897" lon="7.171903029084206">
        <ele>377.44999999999999</ele>
        <time>2017-06-20T11:58:11Z</time>
      </trkpt>
      <trkpt lat="62.123165018856525" lon="7.171494998037815">
        <ele>379.38</ele>
        <time>2017-06-20T11:58:13Z</time>
      </trkpt>
      <trkpt lat="62.123236013576388" lon="7.171367006376386">
        <ele>380.33999999999997</ele>
        <time>2017-06-20T11:58:14Z</time>
      </trkpt>
      <trkpt lat="62.123312037438154" lon="7.171282013878226">
        <ele>380.81999999999999</ele>
        <time>2017-06-20T11:58:15Z</time>
      </trkpt>
      <trkpt lat="62.123405998572707" lon="7.171264998614788">
        <ele>381.77999999999997</ele>
        <time>2017-06-20T11:58:16Z</time>
      </trkpt>
      <trkpt lat="62.123499037697911" lon="7.171276984736323">
        <ele>382.25999999999999</ele>
        <time>2017-06-20T11:58:17Z</time>
      </trkpt>
      <trkpt lat="62.123681008815765" lon="7.171405982226133">
        <ele>383.69999999999999</ele>
        <time>2017-06-20T11:58:18Z</time>
      </trkpt>
      <trkpt lat="62.123770024627447" lon="7.171511007472873">
        <ele>384.66000000000003</ele>
        <time>2017-06-20T11:58:19Z</time>
      </trkpt>
      <trkpt lat="62.12382098659873" lon="7.171663977205753">
        <ele>384.66000000000003</ele>
        <time>2017-06-20T11:58:20Z</time>
      </trkpt>
      <trkpt lat="62.123850993812084" lon="7.17184703797102">
        <ele>384.18000000000001</ele>
        <time>2017-06-20T11:58:21Z</time>
      </trkpt>
      <trkpt lat="62.123843031004071" lon="7.172049963846803">
        <ele>384.66000000000003</ele>
        <time>2017-06-20T11:58:22Z</time>
      </trkpt>
      <trkpt lat="62.123782010748982" lon="7.172272000461817">
        <ele>386.11000000000001</ele>
        <time>2017-06-20T11:58:23Z</time>
      </trkpt>
      <trkpt lat="62.123723002150655" lon="7.172475010156632">
        <ele>389.47000000000003</ele>
        <time>2017-06-20T11:58:24Z</time>
      </trkpt>
      <trkpt lat="62.123658964410424" lon="7.172683971002698">
        <ele>389.94999999999999</ele>
        <time>2017-06-20T11:58:25Z</time>
      </trkpt>
      <trkpt lat="62.123624011874199" lon="7.172910030931234">
        <ele>391.87</ele>
        <time>2017-06-20T11:58:26Z</time>
      </trkpt>
      <trkpt lat="62.123586963862181" lon="7.173152016475797">
        <ele>393.31999999999999</ele>
        <time>2017-06-20T11:58:27Z</time>
      </trkpt>
      <trkpt lat="62.123557962477207" lon="7.173409005627036">
        <ele>394.75999999999999</ele>
        <time>2017-06-20T11:58:28Z</time>
      </trkpt>
      <trkpt lat="62.123529966920614" lon="7.173688961192966">
        <ele>396.19999999999999</ele>
        <time>2017-06-20T11:58:29Z</time>
      </trkpt>
      <trkpt lat="62.123472969979048" lon="7.173979980871081">
        <ele>401.97000000000003</ele>
        <time>2017-06-20T11:58:30Z</time>
      </trkpt>
      <trkpt lat="62.12343298830092" lon="7.175387972965837">
        <ele>416.38999999999999</ele>
        <time>2017-06-20T11:58:35Z</time>
      </trkpt>
      <trkpt lat="62.123452015221119" lon="7.175650997087359">
        <ele>418.79000000000002</ele>
        <time>2017-06-20T11:58:36Z</time>
      </trkpt>
      <trkpt lat="62.123495014384389" lon="7.175903040915728">
        <ele>420.70999999999998</ele>
        <time>2017-06-20T11:58:37Z</time>
      </trkpt>
      <trkpt lat="62.123546982184052" lon="7.176151983439922">
        <ele>423.12</ele>
        <time>2017-06-20T11:58:38Z</time>
      </trkpt>
      <trkpt lat="62.123609008267522" lon="7.176391035318375">
        <ele>424.56</ele>
        <time>2017-06-20T11:58:39Z</time>
      </trkpt>
      <trkpt lat="62.123676985502243" lon="7.176622040569782">
        <ele>426.48000000000002</ele>
        <time>2017-06-20T11:58:40Z</time>
      </trkpt>
      <trkpt lat="62.123748986050487" lon="7.176856985315681">
        <ele>427.92000000000002</ele>
        <time>2017-06-20T11:58:41Z</time>
      </trkpt>
      <trkpt lat="62.124234968796372" lon="7.179073998704553">
        <ele>439.45999999999998</ele>
        <time>2017-06-20T11:58:49Z</time>
      </trkpt>
      <trkpt lat="62.124351980164647" lon="7.1798209939152">
        <ele>443.31</ele>
        <time>2017-06-20T11:58:52Z</time>
      </trkpt>
      <trkpt lat="62.124394979327917" lon="7.179958038032055">
        <ele>443.79000000000002</ele>
        <time>2017-06-20T11:58:53Z</time>
      </trkpt>
      <trkpt lat="62.124447030946612" lon="7.180024003610015">
        <ele>444.26999999999998</ele>
        <time>2017-06-20T11:58:54Z</time>
      </trkpt>
      <trkpt lat="62.124501010403037" lon="7.180015034973621">
        <ele>444.75</ele>
        <time>2017-06-20T11:58:55Z</time>
      </trkpt>
      <trkpt lat="62.124548032879829" lon="7.179903974756599">
        <ele>445.23000000000002</ele>
        <time>2017-06-20T11:58:56Z</time>
      </trkpt>
      <trkpt lat="62.124563036486506" lon="7.179710017517209">
        <ele>446.19</ele>
        <time>2017-06-20T11:58:57Z</time>
      </trkpt>
      <trkpt lat="62.124547027051449" lon="7.179490998387337">
        <ele>447.14999999999998</ele>
        <time>2017-06-20T11:58:58Z</time>
      </trkpt>
      <trkpt lat="62.12452900595963" lon="7.179250018671155">
        <ele>449.06999999999999</ele>
        <time>2017-06-20T11:58:59Z</time>
      </trkpt>
      <trkpt lat="62.124462034553289" lon="7.178679965436459">
        <ele>451.48000000000002</ele>
        <time>2017-06-20T11:59:01Z</time>
      </trkpt>
      <trkpt lat="62.124453987926245" lon="7.178373020142317">
        <ele>452.44</ele>
        <time>2017-06-20T11:59:02Z</time>
      </trkpt>
      <trkpt lat="62.124460022896528" lon="7.17806096188724">
        <ele>453.88</ele>
        <time>2017-06-20T11:59:03Z</time>
      </trkpt>
      <trkpt lat="62.124472009018064" lon="7.177744964137673">
        <ele>456.27999999999997</ele>
        <time>2017-06-20T11:59:04Z</time>
      </trkpt>
      <trkpt lat="62.124491035938263" lon="7.177411029115319">
        <ele>457.72000000000003</ele>
        <time>2017-06-20T11:59:05Z</time>
      </trkpt>
      <trkpt lat="62.124494975432754" lon="7.177072986960411">
        <ele>459.64999999999998</ele>
        <time>2017-06-20T11:59:06Z</time>
      </trkpt>
      <trkpt lat="62.124485000967979" lon="7.176737962290645">
        <ele>462.05000000000001</ele>
        <time>2017-06-20T11:59:07Z</time>
      </trkpt>
      <trkpt lat="62.124430015683174" lon="7.175489980727434">
        <ele>469.25999999999999</ele>
        <time>2017-06-20T11:59:11Z</time>
      </trkpt>
      <trkpt lat="62.124444013461471" lon="7.175227962434292">
        <ele>470.69999999999999</ele>
        <time>2017-06-20T11:59:12Z</time>
      </trkpt>
      <trkpt lat="62.124477960169315" lon="7.174977008253336">
        <ele>471.66000000000003</ele>
        <time>2017-06-20T11:59:13Z</time>
      </trkpt>
      <trkpt lat="62.124526994302869" lon="7.174742985516787">
        <ele>472.63</ele>
        <time>2017-06-20T11:59:14Z</time>
      </trkpt>
      <trkpt lat="62.124593965709209" lon="7.174520026892424">
        <ele>474.06999999999999</ele>
        <time>2017-06-20T11:59:15Z</time>
      </trkpt>
      <trkpt lat="62.124664038419724" lon="7.174320034682751">
        <ele>475.02999999999997</ele>
        <time>2017-06-20T11:59:16Z</time>
      </trkpt>
      <trkpt lat="62.124736038967967" lon="7.174142003059387">
        <ele>475.99000000000001</ele>
        <time>2017-06-20T11:59:17Z</time>
      </trkpt>
      <trkpt lat="62.124819019809365" lon="7.173976041376591">
        <ele>477.43000000000001</ele>
        <time>2017-06-20T11:59:18Z</time>
      </trkpt>
      <trkpt lat="62.124869981780648" lon="7.173784011974931">
        <ele>478.38999999999999</ele>
        <time>2017-06-20T11:59:19Z</time>
      </trkpt>
      <trkpt lat="62.124908035621047" lon="7.173569016158581">
        <ele>479.35000000000002</ele>
        <time>2017-06-20T11:59:20Z</time>
      </trkpt>
      <trkpt lat="62.124923961237073" lon="7.173312027007341">
        <ele>480.80000000000001</ele>
        <time>2017-06-20T11:59:21Z</time>
      </trkpt>
      <trkpt lat="62.124923961237073" lon="7.173054032027721">
        <ele>482.24000000000001</ele>
        <time>2017-06-20T11:59:22Z</time>
      </trkpt>
      <trkpt lat="62.124909041449428" lon="7.172788996249437">
        <ele>483.68000000000001</ele>
        <time>2017-06-20T11:59:23Z</time>
      </trkpt>
      <trkpt lat="62.124910969287157" lon="7.172276023775339">
        <ele>486.07999999999998</ele>
        <time>2017-06-20T11:59:25Z</time>
      </trkpt>
      <trkpt lat="62.124941982328892" lon="7.172034960240126">
        <ele>487.05000000000001</ele>
        <time>2017-06-20T11:59:26Z</time>
      </trkpt>
      <trkpt lat="62.125023035332561" lon="7.171841003000736">
        <ele>489.44999999999999</ele>
        <time>2017-06-20T11:59:27Z</time>
      </trkpt>
      <trkpt lat="62.125441962853074" lon="7.170108966529369">
        <ele>496.18000000000001</ele>
        <time>2017-06-20T11:59:35Z</time>
      </trkpt>
      <trkpt lat="62.125527961179614" lon="7.169930012896657">
        <ele>497.13999999999999</ele>
        <time>2017-06-20T11:59:36Z</time>
      </trkpt>
      <trkpt lat="62.126030959188938" lon="7.167749963700771">
        <ele>507.70999999999998</ele>
        <time>2017-06-20T11:59:46Z</time>
      </trkpt>
      <trkpt lat="62.126094996929169" lon="7.167307985946536">
        <ele>510.60000000000002</ele>
        <time>2017-06-20T11:59:49Z</time>
      </trkpt>
      <trkpt lat="62.12611997500062" lon="7.167241014540196">
        <ele>511.56</ele>
        <time>2017-06-20T11:59:50Z</time>
      </trkpt>
      <trkpt lat="62.126147970557213" lon="7.167188040912151">
        <ele>511.07999999999998</ele>
        <time>2017-06-20T11:59:51Z</time>
      </trkpt>
      <trkpt lat="62.126180995255709" lon="7.167159039527178">
        <ele>511.07999999999998</ele>
        <time>2017-06-20T11:59:52Z</time>
      </trkpt>
      <trkpt lat="62.126235980540514" lon="7.167231040075421">
        <ele>511.56</ele>
        <time>2017-06-20T11:59:53Z</time>
      </trkpt>
      <trkpt lat="62.126264981925488" lon="7.167334975674748">
        <ele>512.51999999999998</ele>
        <time>2017-06-20T11:59:54Z</time>
      </trkpt>
      <trkpt lat="62.12627001106739" lon="7.167471013963223">
        <ele>512.51999999999998</ele>
        <time>2017-06-20T11:59:55Z</time>
      </trkpt>
      <trkpt lat="62.126251989975572" lon="7.167601017281413">
        <ele>513.48000000000002</ele>
        <time>2017-06-20T11:59:56Z</time>
      </trkpt>
      <trkpt lat="62.126232041046023" lon="7.167751975357533">
        <ele>515.39999999999998</ele>
        <time>2017-06-20T11:59:57Z</time>
      </trkpt>
      <trkpt lat="62.126186024397612" lon="7.168270982801914">
        <ele>518.76999999999998</ele>
        <time>2017-06-20T12:00:00Z</time>
      </trkpt>
      <trkpt lat="62.126059960573912" lon="7.170125981792808">
        <ele>530.29999999999995</ele>
        <time>2017-06-20T12:00:07Z</time>
      </trkpt>
      <trkpt lat="62.126100026071072" lon="7.172411978244782">
        <ele>542.79999999999995</ele>
        <time>2017-06-20T12:00:14Z</time>
      </trkpt>
      <trkpt lat="62.126158028841019" lon="7.172740967944264">
        <ele>544.72000000000003</ele>
        <time>2017-06-20T12:00:15Z</time>
      </trkpt>
      <trkpt lat="62.12622600607574" lon="7.173059983178973">
        <ele>546.64999999999998</ele>
        <time>2017-06-20T12:00:16Z</time>
      </trkpt>
      <trkpt lat="62.126286020502448" lon="7.173363994807005">
        <ele>547.61000000000001</ele>
        <time>2017-06-20T12:00:17Z</time>
      </trkpt>
      <trkpt lat="62.126370007172227" lon="7.173646967858076">
        <ele>549.52999999999997</ele>
        <time>2017-06-20T12:00:18Z</time>
      </trkpt>
      <trkpt lat="62.126468997448683" lon="7.173923989757896">
        <ele>550.97000000000003</ele>
        <time>2017-06-20T12:00:19Z</time>
      </trkpt>
      <trkpt lat="62.12691399268806" lon="7.175331981852651">
        <ele>558.17999999999995</ele>
        <time>2017-06-20T12:00:24Z</time>
      </trkpt>
      <trkpt lat="62.126960009336472" lon="7.175642028450966">
        <ele>559.13999999999999</ele>
        <time>2017-06-20T12:00:25Z</time>
      </trkpt>
      <trkpt lat="62.126985993236303" lon="7.175959032028914">
        <ele>560.59000000000003</ele>
        <time>2017-06-20T12:00:26Z</time>
      </trkpt>
      <trkpt lat="62.126995967701077" lon="7.176275029778481">
        <ele>561.54999999999995</ele>
        <time>2017-06-20T12:00:27Z</time>
      </trkpt>
      <trkpt lat="62.12700099684298" lon="7.176587004214525">
        <ele>562.99000000000001</ele>
        <time>2017-06-20T12:00:28Z</time>
      </trkpt>
      <trkpt lat="62.127016000449657" lon="7.176891015842557">
        <ele>563.95000000000005</ele>
        <time>2017-06-20T12:00:29Z</time>
      </trkpt>
      <trkpt lat="62.127048019319773" lon="7.177183963358402">
        <ele>564.90999999999997</ele>
        <time>2017-06-20T12:00:30Z</time>
      </trkpt>
      <trkpt lat="62.127095963805914" lon="7.17745603993535">
        <ele>565.87</ele>
        <time>2017-06-20T12:00:31Z</time>
      </trkpt>
      <trkpt lat="62.127161007374525" lon="7.177717974409461">
        <ele>566.35000000000002</ele>
        <time>2017-06-20T12:00:32Z</time>
      </trkpt>
      <trkpt lat="62.127244994044304" lon="7.177970018237829">
        <ele>569.24000000000001</ele>
        <time>2017-06-20T12:00:33Z</time>
      </trkpt>
      <trkpt lat="62.127339961007237" lon="7.178203035145998">
        <ele>570.67999999999995</ele>
        <time>2017-06-20T12:00:34Z</time>
      </trkpt>
      <trkpt lat="62.127453032881021" lon="7.178417025133967">
        <ele>572.12</ele>
        <time>2017-06-20T12:00:35Z</time>
      </trkpt>
      <trkpt lat="62.127577001228929" lon="7.178609976544976">
        <ele>573.55999999999995</ele>
        <time>2017-06-20T12:00:36Z</time>
      </trkpt>
      <trkpt lat="62.127712033689022" lon="7.178775016218424">
        <ele>575.00999999999999</ele>
        <time>2017-06-20T12:00:37Z</time>
      </trkpt>
      <trkpt lat="62.127861985936761" lon="7.178902002051473">
        <ele>576.92999999999995</ele>
        <time>2017-06-20T12:00:38Z</time>
      </trkpt>
      <trkpt lat="62.128017973154783" lon="7.179010966792703">
        <ele>578.37</ele>
        <time>2017-06-20T12:00:39Z</time>
      </trkpt>
      <trkpt lat="62.128178989514709" lon="7.179120015352964">
        <ele>579.80999999999995</ele>
        <time>2017-06-20T12:00:40Z</time>
      </trkpt>
      <trkpt lat="62.12964397855103" lon="7.180101033300161">
        <ele>590.87</ele>
        <time>2017-06-20T12:00:49Z</time>
      </trkpt>
      <trkpt lat="62.131034033372998" lon="7.180312005802989">
        <ele>600</ele>
        <time>2017-06-20T12:00:58Z</time>
      </trkpt>
      <trkpt lat="62.132489969953895" lon="7.18136603012681">
        <ele>608.64999999999998</ele>
        <time>2017-06-20T12:01:06Z</time>
      </trkpt>
      <trkpt lat="62.134098038077354" lon="7.182912994176149">
        <ele>613.46000000000004</ele>
        <time>2017-06-20T12:01:15Z</time>
      </trkpt>
      <trkpt lat="62.135158013552427" lon="7.184262983500958">
        <ele>617.29999999999995</ele>
        <time>2017-06-20T12:01:22Z</time>
      </trkpt>
      <trkpt lat="62.13527100160718" lon="7.184431962668896">
        <ele>617.77999999999997</ele>
        <time>2017-06-20T12:01:23Z</time>
      </trkpt>
      <trkpt lat="62.13538097217679" lon="7.184566995128989">
        <ele>618.75</ele>
        <time>2017-06-20T12:01:24Z</time>
      </trkpt>
      <trkpt lat="62.135496977716684" lon="7.184659028425813">
        <ele>619.23000000000002</ele>
        <time>2017-06-20T12:01:25Z</time>
      </trkpt>
      <trkpt lat="62.135633016005158" lon="7.18469699844718">
        <ele>619.23000000000002</ele>
        <time>2017-06-20T12:01:26Z</time>
      </trkpt>
      <trkpt lat="62.135784979909658" lon="7.18471703119576">
        <ele>618.75</ele>
        <time>2017-06-20T12:01:27Z</time>
      </trkpt>
      <trkpt lat="62.135955970734358" lon="7.184722982347012">
        <ele>618.25999999999999</ele>
        <time>2017-06-20T12:01:28Z</time>
      </trkpt>
      <trkpt lat="62.137601003050804" lon="7.184646958485246">
        <ele>610.57000000000005</ele>
        <time>2017-06-20T12:01:36Z</time>
      </trkpt>
      <trkpt lat="62.139049982652068" lon="7.18394597992301">
        <ele>606.73000000000002</ele>
        <time>2017-06-20T12:01:43Z</time>
      </trkpt>
      <trkpt lat="62.13943999260664" lon="7.183682033792138">
        <ele>604.80999999999995</ele>
        <time>2017-06-20T12:01:45Z</time>
      </trkpt>
      <trkpt lat="62.139637973159552" lon="7.183623025193811">
        <ele>603.85000000000002</ele>
        <time>2017-06-20T12:01:46Z</time>
      </trkpt>
      <trkpt lat="62.139838971197605" lon="7.183611961081624">
        <ele>603.36000000000001</ele>
        <time>2017-06-20T12:01:47Z</time>
      </trkpt>
      <trkpt lat="62.140038041397929" lon="7.183645991608501">
        <ele>602.39999999999998</ele>
        <time>2017-06-20T12:01:48Z</time>
      </trkpt>
      <trkpt lat="62.140241973102093" lon="7.183711035177112">
        <ele>601.91999999999996</ele>
        <time>2017-06-20T12:01:49Z</time>
      </trkpt>
      <trkpt lat="62.140438025817275" lon="7.183787981048226">
        <ele>600.48000000000002</ele>
        <time>2017-06-20T12:01:50Z</time>
      </trkpt>
      <trkpt lat="62.14212597347796" lon="7.18411797657609">
        <ele>587.98000000000002</ele>
        <time>2017-06-20T12:01:58Z</time>
      </trkpt>
      <trkpt lat="62.142566023394465" lon="7.184110013768077">
        <ele>584.62</ele>
        <time>2017-06-20T12:02:00Z</time>
      </trkpt>
      <trkpt lat="62.144125979393721" lon="7.183337034657598">
        <ele>574.03999999999996</ele>
        <time>2017-06-20T12:02:07Z</time>
      </trkpt>
      <trkpt lat="62.146522030234337" lon="7.182211009785533">
        <ele>561.07000000000005</ele>
        <time>2017-06-20T12:02:17Z</time>
      </trkpt>
      <trkpt lat="62.14769097045064" lon="7.182168010622263">
        <ele>559.13999999999999</ele>
        <time>2017-06-20T12:02:22Z</time>
      </trkpt>
      <trkpt lat="62.147907977923751" lon="7.1822489798069">
        <ele>559.13999999999999</ele>
        <time>2017-06-20T12:02:23Z</time>
      </trkpt>
      <trkpt lat="62.148122973740101" lon="7.182369008660317">
        <ele>559.62</ele>
        <time>2017-06-20T12:02:24Z</time>
      </trkpt>
      <trkpt lat="62.149501964449883" lon="7.183366036042571">
        <ele>560.11000000000001</ele>
        <time>2017-06-20T12:02:31Z</time>
      </trkpt>
      <trkpt lat="62.154916003346443" lon="7.180661028251052">
        <ele>511.07999999999998</ele>
        <time>2017-06-20T12:03:03Z</time>
      </trkpt>
      <trkpt lat="62.155068973079324" lon="7.180552985519171">
        <ele>511.07999999999998</ele>
        <time>2017-06-20T12:03:04Z</time>
      </trkpt>
      <trkpt lat="62.155228983610868" lon="7.180476961657405">
        <ele>509.16000000000003</ele>
        <time>2017-06-20T12:03:05Z</time>
      </trkpt>
      <trkpt lat="62.155410032719374" lon="7.180381994694471">
        <ele>509.63999999999999</ele>
        <time>2017-06-20T12:03:06Z</time>
      </trkpt>
      <trkpt lat="62.157070990651846" lon="7.180386018007994">
        <ele>498.10000000000002</ele>
        <time>2017-06-20T12:03:14Z</time>
      </trkpt>
      <trkpt lat="62.158854994922876" lon="7.179932976141572">
        <ele>489.44999999999999</ele>
        <time>2017-06-20T12:03:22Z</time>
      </trkpt>
      <trkpt lat="62.162199961021543" lon="7.177610015496612">
        <ele>475.02999999999997</ele>
        <time>2017-06-20T12:03:37Z</time>
      </trkpt>
      <trkpt lat="62.16599503532052" lon="7.175042973831296">
        <ele>468.30000000000001</ele>
        <time>2017-06-20T12:03:55Z</time>
      </trkpt>
      <trkpt lat="62.1689179725945" lon="7.172592021524906">
        <ele>465.89999999999998</ele>
        <time>2017-06-20T12:04:09Z</time>
      </trkpt>
      <trkpt lat="62.170935999602079" lon="7.171393996104598">
        <ele>465.42000000000002</ele>
        <time>2017-06-20T12:04:18Z</time>
      </trkpt>
      <trkpt lat="62.173067014664412" lon="7.17096702195704">
        <ele>466.86000000000001</ele>
        <time>2017-06-20T12:04:27Z</time>
      </trkpt>
      <trkpt lat="62.175342030823231" lon="7.169774025678635">
        <ele>466.86000000000001</ele>
        <time>2017-06-20T12:04:37Z</time>
      </trkpt>
      <trkpt lat="62.177643030881882" lon="7.167648039758205">
        <ele>466.38</ele>
        <time>2017-06-20T12:04:48Z</time>
      </trkpt>
      <trkpt lat="62.180148968473077" lon="7.1653619594872">
        <ele>457.72000000000003</ele>
        <time>2017-06-20T12:05:02Z</time>
      </trkpt>
      <trkpt lat="62.181778997182846" lon="7.164887962862849">
        <ele>446.67000000000002</ele>
        <time>2017-06-20T12:05:10Z</time>
      </trkpt>
      <trkpt lat="62.182744005694985" lon="7.164461994543672">
        <ele>444.75</ele>
        <time>2017-06-20T12:05:16Z</time>
      </trkpt>
      <trkpt lat="62.183897020295262" lon="7.16400601901114">
        <ele>444.26999999999998</ele>
        <time>2017-06-20T12:05:26Z</time>
      </trkpt>
      <trkpt lat="62.1856340020895" lon="7.163465972989798">
        <ele>442.33999999999997</ele>
        <time>2017-06-20T12:05:37Z</time>
      </trkpt>
      <trkpt lat="62.187659991905093" lon="7.162578999996185">
        <ele>439.45999999999998</ele>
        <time>2017-06-20T12:05:48Z</time>
      </trkpt>
      <trkpt lat="62.190213035792112" lon="7.160837994888425">
        <ele>439.45999999999998</ele>
        <time>2017-06-20T12:06:02Z</time>
      </trkpt>
      <trkpt lat="62.192125031724572" lon="7.158404979854822">
        <ele>438.5</ele>
        <time>2017-06-20T12:06:14Z</time>
      </trkpt>
      <trkpt lat="62.193139996379614" lon="7.156157037243247">
        <ele>438.5</ele>
        <time>2017-06-20T12:06:22Z</time>
      </trkpt>
      <trkpt lat="62.193812979385257" lon="7.153066964820027">
        <ele>441.86000000000001</ele>
        <time>2017-06-20T12:06:31Z</time>
      </trkpt>
      <trkpt lat="62.194183962419629" lon="7.150048976764083">
        <ele>443.79000000000002</ele>
        <time>2017-06-20T12:06:40Z</time>
      </trkpt>
      <trkpt lat="62.194542959332466" lon="7.144381972029805">
        <ele>447.63</ele>
        <time>2017-06-20T12:06:55Z</time>
      </trkpt>
      <trkpt lat="62.194616971537471" lon="7.143978970125318">
        <ele>447.63</ele>
        <time>2017-06-20T12:06:56Z</time>
      </trkpt>
      <trkpt lat="62.194703975692391" lon="7.143576974049211">
        <ele>447.14999999999998</ele>
        <time>2017-06-20T12:06:57Z</time>
      </trkpt>
      <trkpt lat="62.194812018424273" lon="7.143204985186458">
        <ele>446.67000000000002</ele>
        <time>2017-06-20T12:06:58Z</time>
      </trkpt>
      <trkpt lat="62.194924000650644" lon="7.142843976616859">
        <ele>445.23000000000002</ele>
        <time>2017-06-20T12:06:59Z</time>
      </trkpt>
      <trkpt lat="62.195058027282357" lon="7.142515992745757">
        <ele>445.70999999999998</ele>
        <time>2017-06-20T12:07:00Z</time>
      </trkpt>
      <trkpt lat="62.195199010893703" lon="7.142216004431248">
        <ele>445.70999999999998</ele>
        <time>2017-06-20T12:07:01Z</time>
      </trkpt>
      <trkpt lat="62.195345023646951" lon="7.141931019723415">
        <ele>445.70999999999998</ele>
        <time>2017-06-20T12:07:02Z</time>
      </trkpt>
      <trkpt lat="62.195501010864973" lon="7.141671013087034">
        <ele>446.19</ele>
        <time>2017-06-20T12:07:03Z</time>
      </trkpt>
      <trkpt lat="62.195662027224898" lon="7.14142500422895">
        <ele>446.19</ele>
        <time>2017-06-20T12:07:04Z</time>
      </trkpt>
      <trkpt lat="62.198082972317934" lon="7.138158995658159">
        <ele>449.06999999999999</ele>
        <time>2017-06-20T12:07:18Z</time>
      </trkpt>
      <trkpt lat="62.200225973501801" lon="7.136301985010505">
        <ele>446.67000000000002</ele>
        <time>2017-06-20T12:07:29Z</time>
      </trkpt>
      <trkpt lat="62.201534975320101" lon="7.136559979990125">
        <ele>449.55000000000001</ele>
        <time>2017-06-20T12:07:35Z</time>
      </trkpt>
      <trkpt lat="62.203633971512318" lon="7.137735038995743">
        <ele>454.36000000000001</ele>
        <time>2017-06-20T12:07:45Z</time>
      </trkpt>
      <trkpt lat="62.205757023766637" lon="7.138931974768639">
        <ele>457.72000000000003</ele>
        <time>2017-06-20T12:07:56Z</time>
      </trkpt>
      <trkpt lat="62.20709603279829" lon="7.140413979068399">
        <ele>455.80000000000001</ele>
        <time>2017-06-20T12:08:05Z</time>
      </trkpt>
      <trkpt lat="62.208210993558168" lon="7.140742968767881">
        <ele>449.06999999999999</ele>
        <time>2017-06-20T12:08:14Z</time>
      </trkpt>
      <trkpt lat="62.209304999560118" lon="7.140810023993254">
        <ele>445.70999999999998</ele>
        <time>2017-06-20T12:08:21Z</time>
      </trkpt>
      <trkpt lat="62.210634034126997" lon="7.141322996467352">
        <ele>442.81999999999999</ele>
        <time>2017-06-20T12:08:28Z</time>
      </trkpt>
      <trkpt lat="62.212130958214402" lon="7.142216004431248">
        <ele>433.20999999999998</ele>
        <time>2017-06-20T12:08:36Z</time>
      </trkpt>
      <trkpt lat="62.213867017999291" lon="7.142377020791173">
        <ele>418.31</ele>
        <time>2017-06-20T12:08:45Z</time>
      </trkpt>
      <trkpt lat="62.214768994599581" lon="7.142739035189152">
        <ele>410.13999999999999</ele>
        <time>2017-06-20T12:08:50Z</time>
      </trkpt>
      <trkpt lat="62.214931016787887" lon="7.142880018800497">
        <ele>408.69999999999999</ele>
        <time>2017-06-20T12:08:51Z</time>
      </trkpt>
      <trkpt lat="62.215248020365834" lon="7.143143964931369">
        <ele>405.32999999999998</ele>
        <time>2017-06-20T12:08:53Z</time>
      </trkpt>
      <trkpt lat="62.215410964563489" lon="7.143220994621515">
        <ele>403.41000000000003</ele>
        <time>2017-06-20T12:08:54Z</time>
      </trkpt>
      <trkpt lat="62.215727968141437" lon="7.143385028466582">
        <ele>400.05000000000001</ele>
        <time>2017-06-20T12:08:56Z</time>
      </trkpt>
      <trkpt lat="62.215884039178491" lon="7.143513020128012">
        <ele>398.60000000000002</ele>
        <time>2017-06-20T12:08:57Z</time>
      </trkpt>
      <trkpt lat="62.216459037736058" lon="7.144034961238504">
        <ele>391.87</ele>
        <time>2017-06-20T12:09:01Z</time>
      </trkpt>
      <trkpt lat="62.216615024954081" lon="7.144080977886915">
        <ele>389.94999999999999</ele>
        <time>2017-06-20T12:09:02Z</time>
      </trkpt>
      <trkpt lat="62.216778974980116" lon="7.144091036170721">
        <ele>388.99000000000001</ele>
        <time>2017-06-20T12:09:03Z</time>
      </trkpt>
      <trkpt lat="62.218400035053492" lon="7.143829017877579">
        <ele>375.52999999999997</ele>
        <time>2017-06-20T12:09:12Z</time>
      </trkpt>
      <trkpt lat="62.219703001901507" lon="7.143112029880285">
        <ele>364.95999999999998</ele>
        <time>2017-06-20T12:09:20Z</time>
      </trkpt>
      <trkpt lat="62.219831999391317" lon="7.142941039055586">
        <ele>364</ele>
        <time>2017-06-20T12:09:21Z</time>
      </trkpt>
      <trkpt lat="62.219952028244734" lon="7.142743980512023">
        <ele>363.04000000000002</ele>
        <time>2017-06-20T12:09:22Z</time>
      </trkpt>
      <trkpt lat="62.220055963844061" lon="7.142532002180815">
        <ele>362.06999999999999</ele>
        <time>2017-06-20T12:09:23Z</time>
      </trkpt>
      <trkpt lat="62.220150008797646" lon="7.142324969172478">
        <ele>360.63</ele>
        <time>2017-06-20T12:09:24Z</time>
      </trkpt>
      <trkpt lat="62.220360981300473" lon="7.141874022781849">
        <ele>358.23000000000002</ele>
        <time>2017-06-20T12:09:27Z</time>
      </trkpt>
      <trkpt lat="62.220419989898801" lon="7.141793975606561">
        <ele>357.75</ele>
        <time>2017-06-20T12:09:28Z</time>
      </trkpt>
      <trkpt lat="62.220535995438695" lon="7.141784001141787">
        <ele>357.26999999999998</ele>
        <time>2017-06-20T12:09:30Z</time>
      </trkpt>
      <trkpt lat="62.220564996823668" lon="7.141851978376508">
        <ele>356.79000000000002</ele>
        <time>2017-06-20T12:09:31Z</time>
      </trkpt>
      <trkpt lat="62.22056801430881" lon="7.14196203276515">
        <ele>356.31</ele>
        <time>2017-06-20T12:09:32Z</time>
      </trkpt>
      <trkpt lat="62.220540018752217" lon="7.142079966142774">
        <ele>355.82999999999998</ele>
        <time>2017-06-20T12:09:33Z</time>
      </trkpt>
      <trkpt lat="62.220476986840367" lon="7.142221033573151">
        <ele>355.82999999999998</ele>
        <time>2017-06-20T12:09:34Z</time>
      </trkpt>
      <trkpt lat="62.220400962978601" lon="7.142379032447934">
        <ele>354.86000000000001</ele>
        <time>2017-06-20T12:09:35Z</time>
      </trkpt>
      <trkpt lat="62.219885978847742" lon="7.143559958785772">
        <ele>351.5</ele>
        <time>2017-06-20T12:09:42Z</time>
      </trkpt>
      <trkpt lat="62.219873992726207" lon="7.143676970154047">
        <ele>350.54000000000002</ele>
        <time>2017-06-20T12:09:43Z</time>
      </trkpt>
      <trkpt lat="62.219892013818026" lon="7.143775038421154">
        <ele>349.57999999999998</ele>
        <time>2017-06-20T12:09:44Z</time>
      </trkpt>
      <trkpt lat="62.219929983839393" lon="7.143815020099282">
        <ele>348.13</ele>
        <time>2017-06-20T12:09:45Z</time>
      </trkpt>
      <trkpt lat="62.21998798660934" lon="7.143813008442521">
        <ele>347.17000000000002</ele>
        <time>2017-06-20T12:09:46Z</time>
      </trkpt>
      <trkpt lat="62.220058981329203" lon="7.143741007894278">
        <ele>346.20999999999998</ele>
        <time>2017-06-20T12:09:47Z</time>
      </trkpt>
      <trkpt lat="62.220141040161252" lon="7.143622990697622">
        <ele>344.76999999999998</ele>
        <time>2017-06-20T12:09:48Z</time>
      </trkpt>
      <trkpt lat="62.220236007124186" lon="7.143479995429516">
        <ele>343.81</ele>
        <time>2017-06-20T12:09:49Z</time>
      </trkpt>
      <trkpt lat="62.220964981243014" lon="7.142605008557439">
        <ele>336.60000000000002</ele>
        <time>2017-06-20T12:09:55Z</time>
      </trkpt>
      <trkpt lat="62.221064977347851" lon="7.142417002469301">
        <ele>335.16000000000003</ele>
        <time>2017-06-20T12:09:56Z</time>
      </trkpt>
      <trkpt lat="62.22114603035152" lon="7.142194965854287">
        <ele>334.19999999999999</ele>
        <time>2017-06-20T12:09:57Z</time>
      </trkpt>
      <trkpt lat="62.221367983147502" lon="7.141474960371852">
        <ele>331.31</ele>
        <time>2017-06-20T12:10:00Z</time>
      </trkpt>
      <trkpt lat="62.221467979252338" lon="7.141262982040644">
        <ele>329.87</ele>
        <time>2017-06-20T12:10:01Z</time>
      </trkpt>
      <trkpt lat="62.221581973135471" lon="7.141088973730803">
        <ele>328.91000000000003</ele>
        <time>2017-06-20T12:10:02Z</time>
      </trkpt>
      <trkpt lat="62.221709964796901" lon="7.14095301926136">
        <ele>327.94999999999999</ele>
        <time>2017-06-20T12:10:03Z</time>
      </trkpt>
      <trkpt lat="62.221850026398897" lon="7.140842964872718">
        <ele>326.99000000000001</ele>
        <time>2017-06-20T12:10:04Z</time>
      </trkpt>
      <trkpt lat="62.222000984475017" lon="7.140753027051687">
        <ele>326.01999999999998</ele>
        <time>2017-06-20T12:10:05Z</time>
      </trkpt>
      <trkpt lat="62.222159989178181" lon="7.14069502428174">
        <ele>325.06</ele>
        <time>2017-06-20T12:10:06Z</time>
      </trkpt>
      <trkpt lat="62.2223299741745" lon="7.14065495878458">
        <ele>323.62</ele>
        <time>2017-06-20T12:10:07Z</time>
      </trkpt>
      <trkpt lat="62.222504988312721" lon="7.140629980713129">
        <ele>322.66000000000003</ele>
        <time>2017-06-20T12:10:08Z</time>
      </trkpt>
      <trkpt lat="62.224359987303615" lon="7.14043602347374">
        <ele>307.75999999999999</ele>
        <time>2017-06-20T12:10:19Z</time>
      </trkpt>
      <trkpt lat="62.225667983293533" lon="7.140683038160205">
        <ele>296.69999999999999</ele>
        <time>2017-06-20T12:10:26Z</time>
      </trkpt>
      <trkpt lat="62.226164024323225" lon="7.140764007344842">
        <ele>293.33999999999997</ele>
        <time>2017-06-20T12:10:29Z</time>
      </trkpt>
      <trkpt lat="62.226288998499513" lon="7.140734000131488">
        <ele>292.38</ele>
        <time>2017-06-20T12:10:30Z</time>
      </trkpt>
      <trkpt lat="62.226398969069123" lon="7.140679014846683">
        <ele>291.42000000000002</ele>
        <time>2017-06-20T12:10:31Z</time>
      </trkpt>
      <trkpt lat="62.226613964885473" lon="7.140606008470058">
        <ele>290.45999999999998</ele>
        <time>2017-06-20T12:10:33Z</time>
      </trkpt>
      <trkpt lat="62.226724019274116" lon="7.140636015683413">
        <ele>289.49000000000001</ele>
        <time>2017-06-20T12:10:34Z</time>
      </trkpt>
      <trkpt lat="62.226838013157248" lon="7.140712961554527">
        <ele>289.00999999999999</ele>
        <time>2017-06-20T12:10:35Z</time>
      </trkpt>
      <trkpt lat="62.226951001212001" lon="7.140832990407944">
        <ele>287.56999999999999</ele>
        <time>2017-06-20T12:10:36Z</time>
      </trkpt>
      <trkpt lat="62.227062983438373" lon="7.140994006767869">
        <ele>286.61000000000001</ele>
        <time>2017-06-20T12:10:37Z</time>
      </trkpt>
      <trkpt lat="62.22716398537159" lon="7.141164997592568">
        <ele>284.20999999999998</ele>
        <time>2017-06-20T12:10:38Z</time>
      </trkpt>
      <trkpt lat="62.227412005886436" lon="7.141520977020264">
        <ele>280.36000000000001</ele>
        <time>2017-06-20T12:10:40Z</time>
      </trkpt>
      <trkpt lat="62.227556006982923" lon="7.141678975895047">
        <ele>278.92000000000002</ele>
        <time>2017-06-20T12:10:41Z</time>
      </trkpt>
      <trkpt lat="62.227711994200945" lon="7.141814008355141">
        <ele>277.95999999999998</ele>
        <time>2017-06-20T12:10:42Z</time>
      </trkpt>
      <trkpt lat="62.229256024584174" lon="7.143074981868267">
        <ele>269.31</ele>
        <time>2017-06-20T12:10:51Z</time>
      </trkpt>
      <trkpt lat="62.230828972533345" lon="7.14467098005116">
        <ele>256.81</ele>
        <time>2017-06-20T12:11:01Z</time>
      </trkpt>
      <trkpt lat="62.232295973226428" lon="7.146577024832368">
        <ele>238.53999999999999</ele>
        <time>2017-06-20T12:11:11Z</time>
      </trkpt>
      <trkpt lat="62.233982998877764" lon="7.147937994450331">
        <ele>223.63999999999999</ele>
        <time>2017-06-20T12:11:21Z</time>
      </trkpt>
      <trkpt lat="62.235268028452992" lon="7.148682978004217">
        <ele>213.06999999999999</ele>
        <time>2017-06-20T12:11:30Z</time>
      </trkpt>
      <trkpt lat="62.235502973198891" lon="7.148747015744448">
        <ele>211.15000000000001</ele>
        <time>2017-06-20T12:11:35Z</time>
      </trkpt>
      <trkpt lat="62.235563993453979" lon="7.148789009079337">
        <ele>207.30000000000001</ele>
        <time>2017-06-20T12:11:38Z</time>
      </trkpt>
      <trkpt lat="62.235548989847302" lon="7.148824967443943">
        <ele>204.41999999999999</ele>
        <time>2017-06-20T12:11:39Z</time>
      </trkpt>
      <trkpt lat="62.235510013997555" lon="7.148870984092355">
        <ele>202.49000000000001</ele>
        <time>2017-06-20T12:11:40Z</time>
      </trkpt>
      <trkpt lat="62.235454022884369" lon="7.148884981870651">
        <ele>201.05000000000001</ele>
        <time>2017-06-20T12:11:41Z</time>
      </trkpt>
      <trkpt lat="62.235364001244307" lon="7.148871989920735">
        <ele>199.61000000000001</ele>
        <time>2017-06-20T12:11:42Z</time>
      </trkpt>
      <trkpt lat="62.235254030674696" lon="7.148856986314058">
        <ele>198.65000000000001</ele>
        <time>2017-06-20T12:11:43Z</time>
      </trkpt>
      <trkpt lat="62.234012000262737" lon="7.148676021024585">
        <ele>185.19</ele>
        <time>2017-06-20T12:11:53Z</time>
      </trkpt>
      <trkpt lat="62.233018996194005" lon="7.148575019091368">
        <ele>177.97999999999999</ele>
        <time>2017-06-20T12:12:03Z</time>
      </trkpt>
      <trkpt lat="62.232963005080819" lon="7.148652970790863">
        <ele>177.97999999999999</ele>
        <time>2017-06-20T12:12:04Z</time>
      </trkpt>
      <trkpt lat="62.232926962897182" lon="7.14875003322959">
        <ele>178.46000000000001</ele>
        <time>2017-06-20T12:12:05Z</time>
      </trkpt>
      <trkpt lat="62.232914976775646" lon="7.14890300296247">
        <ele>178.46000000000001</ele>
        <time>2017-06-20T12:12:06Z</time>
      </trkpt>
      <trkpt lat="62.232937021180987" lon="7.14903200045228">
        <ele>177.97999999999999</ele>
        <time>2017-06-20T12:12:07Z</time>
      </trkpt>
      <trkpt lat="62.232974991202354" lon="7.149197040125728">
        <ele>178.46000000000001</ele>
        <time>2017-06-20T12:12:08Z</time>
      </trkpt>
      <trkpt lat="62.233038023114204" lon="7.149358978495002">
        <ele>178.46000000000001</ele>
        <time>2017-06-20T12:12:09Z</time>
      </trkpt>
      <trkpt lat="62.233117986470461" lon="7.14950499124825">
        <ele>177.97999999999999</ele>
        <time>2017-06-20T12:12:10Z</time>
      </trkpt>
      <trkpt lat="62.233212031424046" lon="7.149649998173118">
        <ele>177.02000000000001</ele>
        <time>2017-06-20T12:12:11Z</time>
      </trkpt>
      <trkpt lat="62.233319990336895" lon="7.149776984006167">
        <ele>176.06</ele>
        <time>2017-06-20T12:12:12Z</time>
      </trkpt>
      <trkpt lat="62.233439013361931" lon="7.149890977889299">
        <ele>175.09999999999999</ele>
        <time>2017-06-20T12:12:13Z</time>
      </trkpt>
      <trkpt lat="62.233572034165263" lon="7.149986028671265">
        <ele>173.66</ele>
        <time>2017-06-20T12:12:14Z</time>
      </trkpt>
      <trkpt lat="62.233717041090131" lon="7.150065992027521">
        <ele>172.69</ele>
        <time>2017-06-20T12:12:15Z</time>
      </trkpt>
      <trkpt lat="62.233872022479773" lon="7.150133969262242">
        <ele>171.72999999999999</ele>
        <time>2017-06-20T12:12:16Z</time>
      </trkpt>
      <trkpt lat="62.234032033011317" lon="7.150190966203809">
        <ele>170.28999999999999</ele>
        <time>2017-06-20T12:12:17Z</time>
      </trkpt>
      <trkpt lat="62.235524011775851" lon="7.150258021429181">
        <ele>162.59999999999999</ele>
        <time>2017-06-20T12:12:25Z</time>
      </trkpt>
      <trkpt lat="62.237148005515337" lon="7.150486009195447">
        <ele>154.43000000000001</ele>
        <time>2017-06-20T12:12:34Z</time>
      </trkpt>
      <trkpt lat="62.23728496581316" lon="7.150635039433837">
        <ele>153.47</ele>
        <time>2017-06-20T12:12:35Z</time>
      </trkpt>
      <trkpt lat="62.237402983009815" lon="7.150833019986749">
        <ele>152.99000000000001</ele>
        <time>2017-06-20T12:12:36Z</time>
      </trkpt>
      <trkpt lat="62.237511025741696" lon="7.15107299387455">
        <ele>152.03</ele>
        <time>2017-06-20T12:12:37Z</time>
      </trkpt>
      <trkpt lat="62.237618984654546" lon="7.151301987469196">
        <ele>152.03</ele>
        <time>2017-06-20T12:12:38Z</time>
      </trkpt>
      <trkpt lat="62.237738007679582" lon="7.151490999385715">
        <ele>151.06</ele>
        <time>2017-06-20T12:12:39Z</time>
      </trkpt>
      <trkpt lat="62.237870022654533" lon="7.151630977168679">
        <ele>150.09999999999999</ele>
        <time>2017-06-20T12:12:40Z</time>
      </trkpt>
      <trkpt lat="62.238016035407782" lon="7.151746982708573">
        <ele>149.13999999999999</ele>
        <time>2017-06-20T12:12:41Z</time>
      </trkpt>
      <trkpt lat="62.238171016797423" lon="7.151839016005397">
        <ele>148.66</ele>
        <time>2017-06-20T12:12:42Z</time>
      </trkpt>
      <trkpt lat="62.238997975364327" lon="7.1524260006845">
        <ele>144.81999999999999</ele>
        <time>2017-06-20T12:12:47Z</time>
      </trkpt>
      <trkpt lat="62.240038001909852" lon="7.154200030490756">
        <ele>138.56999999999999</ele>
        <time>2017-06-20T12:12:54Z</time>
      </trkpt>
      <trkpt lat="62.240319969132543" lon="7.154697999358177">
        <ele>137.61000000000001</ele>
        <time>2017-06-20T12:12:56Z</time>
      </trkpt>
      <trkpt lat="62.240473022684455" lon="7.154869996011257">
        <ele>137.13</ele>
        <time>2017-06-20T12:12:57Z</time>
      </trkpt>
      <trkpt lat="62.240616017952561" lon="7.15502698905766">
        <ele>135.19999999999999</ele>
        <time>2017-06-20T12:12:58Z</time>
      </trkpt>
      <trkpt lat="62.240766976028681" lon="7.15515598654747">
        <ele>133.28</ele>
        <time>2017-06-20T12:12:59Z</time>
      </trkpt>
      <trkpt lat="62.240922041237354" lon="7.155255982652307">
        <ele>132.31999999999999</ele>
        <time>2017-06-20T12:13:00Z</time>
      </trkpt>
      <trkpt lat="62.241081967949867" lon="7.155338041484356">
        <ele>131.36000000000001</ele>
        <time>2017-06-20T12:13:01Z</time>
      </trkpt>
      <trkpt lat="62.243108963593841" lon="7.156010018661618">
        <ele>121.26000000000001</ele>
        <time>2017-06-20T12:13:13Z</time>
      </trkpt>
      <trkpt lat="62.245011990889907" lon="7.156378990039229">
        <ele>110.20999999999999</ele>
        <time>2017-06-20T12:13:24Z</time>
      </trkpt>
      <trkpt lat="62.246259972453117" lon="7.156834965571761">
        <ele>103.48</ele>
        <time>2017-06-20T12:13:32Z</time>
      </trkpt>
      <trkpt lat="62.247593030333519" lon="7.156480997800827">
        <ele>95.790000000000006</ele>
        <time>2017-06-20T12:13:40Z</time>
      </trkpt>
      <trkpt lat="62.248814022168517" lon="7.157005034387112">
        <ele>89.540000000000006</ele>
        <time>2017-06-20T12:13:47Z</time>
      </trkpt>
      <trkpt lat="62.250439021736383" lon="7.158846035599709">
        <ele>82.810000000000002</ele>
        <time>2017-06-20T12:13:57Z</time>
      </trkpt>
      <trkpt lat="62.251503020524979" lon="7.159835016354919">
        <ele>78.969999999999999</ele>
        <time>2017-06-20T12:14:05Z</time>
      </trkpt>
      <trkpt lat="62.251854976639152" lon="7.160098040476441">
        <ele>77.519999999999996</ele>
        <time>2017-06-20T12:14:08Z</time>
      </trkpt>
      <trkpt lat="62.252093022689223" lon="7.16033298522234">
        <ele>77.040000000000006</ele>
        <time>2017-06-20T12:14:10Z</time>
      </trkpt>
      <trkpt lat="62.252201987430453" lon="7.160503976047039">
        <ele>76.079999999999998</ele>
        <time>2017-06-20T12:14:11Z</time>
      </trkpt>
      <trkpt lat="62.252312041819096" lon="7.160694999620318">
        <ele>75.599999999999994</ele>
        <time>2017-06-20T12:14:12Z</time>
      </trkpt>
      <trkpt lat="62.252846974879503" lon="7.161532016471028">
        <ele>72.719999999999999</ele>
        <time>2017-06-20T12:14:17Z</time>
      </trkpt>
      <trkpt lat="62.252969015389681" lon="7.161645004525781">
        <ele>71.760000000000005</ele>
        <time>2017-06-20T12:14:18Z</time>
      </trkpt>
      <trkpt lat="62.253088960424066" lon="7.161733014509082">
        <ele>70.790000000000006</ele>
        <time>2017-06-20T12:14:19Z</time>
      </trkpt>
      <trkpt lat="62.253218041732907" lon="7.161785988137126">
        <ele>70.310000000000002</ele>
        <time>2017-06-20T12:14:20Z</time>
      </trkpt>
      <trkpt lat="62.253346033394337" lon="7.161818007007241">
        <ele>70.310000000000002</ele>
        <time>2017-06-20T12:14:21Z</time>
      </trkpt>
      <trkpt lat="62.253475030884147" lon="7.161827981472015">
        <ele>68.870000000000005</ele>
        <time>2017-06-20T12:14:22Z</time>
      </trkpt>
      <trkpt lat="62.253865040838718" lon="7.161902999505401">
        <ele>66.469999999999999</ele>
        <time>2017-06-20T12:14:25Z</time>
      </trkpt>
      <trkpt lat="62.253994038328528" lon="7.16196401976049">
        <ele>65.989999999999995</ele>
        <time>2017-06-20T12:14:26Z</time>
      </trkpt>
      <trkpt lat="62.254124041646719" lon="7.162058986723423">
        <ele>65.510000000000005</ele>
        <time>2017-06-20T12:14:27Z</time>
      </trkpt>
      <trkpt lat="62.255662037059665" lon="7.163712987676263">
        <ele>57.82</ele>
        <time>2017-06-20T12:14:40Z</time>
      </trkpt>
      <trkpt lat="62.256731986999512" lon="7.164276000112295">
        <ele>51.57</ele>
        <time>2017-06-20T12:14:48Z</time>
      </trkpt>
      <trkpt lat="62.256982019171119" lon="7.164498036727309">
        <ele>49.649999999999999</ele>
        <time>2017-06-20T12:14:50Z</time>
      </trkpt>
      <trkpt lat="62.257103975862265" lon="7.164654023945332">
        <ele>49.159999999999997</ele>
        <time>2017-06-20T12:14:51Z</time>
      </trkpt>
      <trkpt lat="62.257211012765765" lon="7.16484697535634">
        <ele>48.68</ele>
        <time>2017-06-20T12:14:52Z</time>
      </trkpt>
      <trkpt lat="62.257316038012505" lon="7.16506197117269">
        <ele>47.719999999999999</ele>
        <time>2017-06-20T12:14:53Z</time>
      </trkpt>
      <trkpt lat="62.25741796195507" lon="7.165287025272846">
        <ele>47.240000000000002</ele>
        <time>2017-06-20T12:14:54Z</time>
      </trkpt>
      <trkpt lat="62.257633963599801" lon="7.165686003863812">
        <ele>44.359999999999999</ele>
        <time>2017-06-20T12:14:56Z</time>
      </trkpt>
      <trkpt lat="62.257752986624837" lon="7.165839979425073">
        <ele>43.880000000000003</ele>
        <time>2017-06-20T12:14:57Z</time>
      </trkpt>
      <trkpt lat="62.257880978286266" lon="7.165951039642096">
        <ele>42.920000000000002</ele>
        <time>2017-06-20T12:14:58Z</time>
      </trkpt>
      <trkpt lat="62.258023973554373" lon="7.166012981906533">
        <ele>41.950000000000003</ele>
        <time>2017-06-20T12:14:59Z</time>
      </trkpt>
      <trkpt lat="62.258166968822479" lon="7.166049024090171">
        <ele>41.469999999999999</ele>
        <time>2017-06-20T12:15:00Z</time>
      </trkpt>
      <trkpt lat="62.258859984576702" lon="7.166320011019707">
        <ele>37.630000000000003</ele>
        <time>2017-06-20T12:15:05Z</time>
      </trkpt>
      <trkpt lat="62.258981019258499" lon="7.166443979367614">
        <ele>36.670000000000002</ele>
        <time>2017-06-20T12:15:06Z</time>
      </trkpt>
      <trkpt lat="62.259085960686207" lon="7.166611030697823">
        <ele>35.710000000000001</ele>
        <time>2017-06-20T12:15:07Z</time>
      </trkpt>
      <trkpt lat="62.259162990376353" lon="7.166828960180283">
        <ele>33.780000000000001</ele>
        <time>2017-06-20T12:15:08Z</time>
      </trkpt>
      <trkpt lat="62.259237002581358" lon="7.167073041200638">
        <ele>32.340000000000003</ele>
        <time>2017-06-20T12:15:09Z</time>
      </trkpt>
      <trkpt lat="62.259310008957982" lon="7.167341010645032">
        <ele>31.859999999999999</ele>
        <time>2017-06-20T12:15:10Z</time>
      </trkpt>
      <trkpt lat="62.259378992021084" lon="7.167614009231329">
        <ele>31.379999999999999</ele>
        <time>2017-06-20T12:15:11Z</time>
      </trkpt>
      <trkpt lat="62.259531039744616" lon="7.168133016675711">
        <ele>29.460000000000001</ele>
        <time>2017-06-20T12:15:13Z</time>
      </trkpt>
      <trkpt lat="62.259617960080504" lon="7.168359998613596">
        <ele>28.5</ele>
        <time>2017-06-20T12:15:14Z</time>
      </trkpt>
      <trkpt lat="62.259721979498863" lon="7.168553033843637">
        <ele>27.530000000000001</ele>
        <time>2017-06-20T12:15:15Z</time>
      </trkpt>
      <trkpt lat="62.259838990867138" lon="7.168725030496717">
        <ele>26.09</ele>
        <time>2017-06-20T12:15:16Z</time>
      </trkpt>
      <trkpt lat="62.259967988356948" lon="7.168895015493035">
        <ele>25.129999999999999</ele>
        <time>2017-06-20T12:15:17Z</time>
      </trkpt>
      <trkpt lat="62.261242037639022" lon="7.170126987621188">
        <ele>18.399999999999999</ele>
        <time>2017-06-20T12:15:26Z</time>
      </trkpt>
      <trkpt lat="62.262159017845988" lon="7.170826038345695">
        <ele>13.6</ele>
        <time>2017-06-20T12:15:33Z</time>
      </trkpt>
      <trkpt lat="62.262258008122444" lon="7.170980013906956">
        <ele>13.119999999999999</ele>
        <time>2017-06-20T12:15:34Z</time>
      </trkpt>
      <trkpt lat="62.262615999206901" lon="7.171710999682546">
        <ele>9.75</ele>
        <time>2017-06-20T12:15:40Z</time>
      </trkpt>
      <trkpt lat="62.262623962014914" lon="7.17180697247386">
        <ele>8.310000000000001</ele>
        <time>2017-06-20T12:15:41Z</time>
      </trkpt>
      <trkpt lat="62.262623962014914" lon="7.171900011599064">
        <ele>7.35</ele>
        <time>2017-06-20T12:15:42Z</time>
      </trkpt>
      <trkpt lat="62.262623040005565" lon="7.17197896912694">
        <ele>6.87</ele>
        <time>2017-06-20T12:15:43Z</time>
      </trkpt>
      <trkpt lat="62.262615999206901" lon="7.172051975503564">
        <ele>6.87</ele>
        <time>2017-06-20T12:15:44Z</time>
      </trkpt>
      <trkpt lat="62.262604013085365" lon="7.172116013243794">
        <ele>6.87</ele>
        <time>2017-06-20T12:15:45Z</time>
      </trkpt>
      <trkpt lat="62.262582974508405" lon="7.172188013792038">
        <ele>6.39</ele>
        <time>2017-06-20T12:15:46Z</time>
      </trkpt>
      <trkpt lat="62.262548021972179" lon="7.172264959663153">
        <ele>6.87</ele>
        <time>2017-06-20T12:15:47Z</time>
      </trkpt>
      <trkpt lat="62.262509968131781" lon="7.172355987131596">
        <ele>6.87</ele>
        <time>2017-06-20T12:15:48Z</time>
      </trkpt>
      <trkpt lat="62.262413995340466" lon="7.172663016244769">
        <ele>7.35</ele>
        <time>2017-06-20T12:15:51Z</time>
      </trkpt>
      <trkpt lat="62.262426987290382" lon="7.172733005136251">
        <ele>6.87</ele>
        <time>2017-06-20T12:15:52Z</time>
      </trkpt>
      <trkpt lat="62.262451965361834" lon="7.172781033441424">
        <ele>6.39</ele>
        <time>2017-06-20T12:15:53Z</time>
      </trkpt>
      <trkpt lat="62.262531006708741" lon="7.172747002914548">
        <ele>6.39</ele>
        <time>2017-06-20T12:15:55Z</time>
      </trkpt>
      <trkpt lat="62.262577023357153" lon="7.172673996537924">
        <ele>6.39</ele>
        <time>2017-06-20T12:15:56Z</time>
      </trkpt>
      <trkpt lat="62.262624967843294" lon="7.172563020139933">
        <ele>6.39</ele>
        <time>2017-06-20T12:15:57Z</time>
      </trkpt>
      <trkpt lat="62.262666961178184" lon="7.1724490262568">
        <ele>5.91</ele>
        <time>2017-06-20T12:15:58Z</time>
      </trkpt>
      <trkpt lat="62.262884974479675" lon="7.171824993565679">
        <ele>4.46</ele>
        <time>2017-06-20T12:16:07Z</time>
      </trkpt>
      <trkpt lat="62.263002991676331" lon="7.171531962230802">
        <ele>2.54</ele>
        <time>2017-06-20T12:16:19Z</time>
      </trkpt>
      <trkpt lat="62.263000980019569" lon="7.171501033008099">
        <ele>0.14</ele>
        <time>2017-06-20T12:16:33Z</time>
      </trkpt>
      <trkpt lat="62.262995028868318" lon="7.171491980552673">
        <ele>-0.82</ele>
        <time>2017-06-20T12:17:07Z</time>
      </trkpt>
      <trkpt lat="62.262992011383176" lon="7.171486029401422">
        <ele>-0.34</ele>
        <time>2017-06-20T12:19:04Z</time>
      </trkpt>
      <trkpt lat="62.283395994454622" lon="7.181727960705757">
        <ele>2.54</ele>
        <time>2017-06-20T12:29:11Z</time>
      </trkpt>
      <trkpt lat="62.283979039639235" lon="7.182606970891357">
        <ele>3.02</ele>
        <time>2017-06-20T12:29:37Z</time>
      </trkpt>
      <trkpt lat="62.284226976335049" lon="7.183212982490659">
        <ele>5.42</ele>
        <time>2017-06-20T12:29:53Z</time>
      </trkpt>
      <trkpt lat="62.284414982423186" lon="7.184389969334006">
        <ele>11.67</ele>
        <time>2017-06-20T12:30:21Z</time>
      </trkpt>
      <trkpt lat="62.284470973536372" lon="7.185037974268198">
        <ele>11.67</ele>
        <time>2017-06-20T12:30:37Z</time>
      </trkpt>
      <trkpt lat="62.284511961042881" lon="7.185552958399057">
        <ele>11.19</ele>
        <time>2017-06-20T12:30:57Z</time>
      </trkpt>
      <trkpt lat="62.284520007669926" lon="7.185581037774682">
        <ele>10.23</ele>
        <time>2017-06-20T12:30:59Z</time>
      </trkpt>
      <trkpt lat="62.284531993791461" lon="7.185681033879519">
        <ele>9.75</ele>
        <time>2017-06-20T12:31:03Z</time>
      </trkpt>
      <trkpt lat="62.28455102071166" lon="7.186131980270147">
        <ele>-4.67</ele>
        <time>2017-06-20T12:31:31Z</time>
      </trkpt>
      <trkpt lat="62.284578010439873" lon="7.186161987483501">
        <ele>-9.960000000000001</ele>
        <time>2017-06-20T12:31:59Z</time>
      </trkpt>
      <trkpt lat="62.284577004611492" lon="7.186174979433417">
        <ele>-9.960000000000001</ele>
        <time>2017-06-20T12:32:17Z</time>
      </trkpt>
      <trkpt lat="62.284577004611492" lon="7.186405984684825">
        <ele>-13.800000000000001</ele>
        <time>2017-06-20T12:32:25Z</time>
      </trkpt>
      <trkpt lat="62.284555966034532" lon="7.186528025195003">
        <ele>-14.76</ele>
        <time>2017-06-20T12:32:29Z</time>
      </trkpt>
      <trkpt lat="62.284471979364753" lon="7.187237972393632">
        <ele>-12.84</ele>
        <time>2017-06-20T12:32:40Z</time>
      </trkpt>
      <trkpt lat="62.284342981874943" lon="7.188161993399262">
        <ele>-9.48</ele>
        <time>2017-06-20T12:32:50Z</time>
      </trkpt>
      <trkpt lat="62.284350022673607" lon="7.188168028369546">
        <ele>-8.51</ele>
        <time>2017-06-20T12:34:38Z</time>
      </trkpt>
      <trkpt lat="62.284351028501987" lon="7.188161993399262">
        <ele>-8.029999999999999</ele>
        <time>2017-06-20T12:35:10Z</time>
      </trkpt>
      <trkpt lat="62.284352034330368" lon="7.188215972855687">
        <ele>-6.11</ele>
        <time>2017-06-20T12:35:17Z</time>
      </trkpt>
      <trkpt lat="62.284338036552072" lon="7.188560971990228">
        <ele>-2.75</ele>
        <time>2017-06-20T12:35:26Z</time>
      </trkpt>
      <trkpt lat="62.284313980489969" lon="7.188745960593224">
        <ele>-1.79</ele>
        <time>2017-06-20T12:35:27Z</time>
      </trkpt>
      <trkpt lat="62.28427299298346" lon="7.18929598107934">
        <ele>0.62</ele>
        <time>2017-06-20T12:35:30Z</time>
      </trkpt>
      <trkpt lat="62.284287996590137" lon="7.189437970519066">
        <ele>1.1</ele>
        <time>2017-06-20T12:35:31Z</time>
      </trkpt>
      <trkpt lat="62.284312974661589" lon="7.189541989937425">
        <ele>1.58</ele>
        <time>2017-06-20T12:35:32Z</time>
      </trkpt>
      <trkpt lat="62.284391010180116" lon="7.189837032929063">
        <ele>3.02</ele>
        <time>2017-06-20T12:35:35Z</time>
      </trkpt>
      <trkpt lat="62.284402996301651" lon="7.18998103402555">
        <ele>3.02</ele>
        <time>2017-06-20T12:35:36Z</time>
      </trkpt>
      <trkpt lat="62.284408025443554" lon="7.190332990139723">
        <ele>3.02</ele>
        <time>2017-06-20T12:35:38Z</time>
      </trkpt>
      <trkpt lat="62.284281961619854" lon="7.192929033190012">
        <ele>6.39</ele>
        <time>2017-06-20T12:35:49Z</time>
      </trkpt>
      <trkpt lat="62.284152964130044" lon="7.197260968387127">
        <ele>7.35</ele>
        <time>2017-06-20T12:36:02Z</time>
      </trkpt>
      <trkpt lat="62.284482037648559" lon="7.200126992538571">
        <ele>10.710000000000001</ele>
        <time>2017-06-20T12:36:10Z</time>
      </trkpt>
      <trkpt lat="62.284951005131006" lon="7.202013004571199">
        <ele>13.119999999999999</ele>
        <time>2017-06-20T12:36:17Z</time>
      </trkpt>
      <trkpt lat="62.285739993676543" lon="7.204539980739355">
        <ele>14.56</ele>
        <time>2017-06-20T12:36:27Z</time>
      </trkpt>
      <trkpt lat="62.286259001120925" lon="7.20615902915597">
        <ele>11.67</ele>
        <time>2017-06-20T12:36:33Z</time>
      </trkpt>
      <trkpt lat="62.286311974748969" lon="7.206468991935253">
        <ele>11.19</ele>
        <time>2017-06-20T12:36:34Z</time>
      </trkpt>
      <trkpt lat="62.286349022760987" lon="7.206787001341581">
        <ele>10.710000000000001</ele>
        <time>2017-06-20T12:36:35Z</time>
      </trkpt>
      <trkpt lat="62.286367965862155" lon="7.207120014354587">
        <ele>10.23</ele>
        <time>2017-06-20T12:36:36Z</time>
      </trkpt>
      <trkpt lat="62.286378024145961" lon="7.20744900405407">
        <ele>9.27</ele>
        <time>2017-06-20T12:36:37Z</time>
      </trkpt>
      <trkpt lat="62.286668960005045" lon="7.210427010431886">
        <ele>2.54</ele>
        <time>2017-06-20T12:36:46Z</time>
      </trkpt>
      <trkpt lat="62.287028962746263" lon="7.212088974192739">
        <ele>0.14</ele>
        <time>2017-06-20T12:36:51Z</time>
      </trkpt>
      <trkpt lat="62.287069028243423" lon="7.212431961670518">
        <ele>0.14</ele>
        <time>2017-06-20T12:36:52Z</time>
      </trkpt>
      <trkpt lat="62.287081014364958" lon="7.21277603879571">
        <ele>-0.34</ele>
        <time>2017-06-20T12:36:53Z</time>
      </trkpt>
      <trkpt lat="62.28706399910152" lon="7.213102011010051">
        <ele>-0.34</ele>
        <time>2017-06-20T12:36:54Z</time>
      </trkpt>
      <trkpt lat="62.287028040736914" lon="7.213429994881153">
        <ele>-0.82</ele>
        <time>2017-06-20T12:36:55Z</time>
      </trkpt>
      <trkpt lat="62.286976994946599" lon="7.213757978752255">
        <ele>-0.82</ele>
        <time>2017-06-20T12:36:56Z</time>
      </trkpt>
      <trkpt lat="62.28691496886313" lon="7.214077999815345">
        <ele>-0.34</ele>
        <time>2017-06-20T12:36:57Z</time>
      </trkpt>
      <trkpt lat="62.28685000911355" lon="7.214391985908151">
        <ele>0.14</ele>
        <time>2017-06-20T12:36:58Z</time>
      </trkpt>
      <trkpt lat="62.286624033004045" lon="7.215668968856335">
        <ele>1.58</ele>
        <time>2017-06-20T12:37:02Z</time>
      </trkpt>
      <trkpt lat="62.286597965285182" lon="7.215997036546469">
        <ele>1.58</ele>
        <time>2017-06-20T12:37:03Z</time>
      </trkpt>
      <trkpt lat="62.286587990820408" lon="7.216328037902713">
        <ele>2.06</ele>
        <time>2017-06-20T12:37:04Z</time>
      </trkpt>
      <trkpt lat="62.286593019962311" lon="7.21666700206697">
        <ele>2.54</ele>
        <time>2017-06-20T12:37:05Z</time>
      </trkpt>
      <trkpt lat="62.286619003862143" lon="7.216996997594833">
        <ele>2.54</ele>
        <time>2017-06-20T12:37:06Z</time>
      </trkpt>
      <trkpt lat="62.286664014682174" lon="7.2173129953444">
        <ele>2.54</ele>
        <time>2017-06-20T12:37:07Z</time>
      </trkpt>
      <trkpt lat="62.286726962774992" lon="7.217617006972432">
        <ele>2.06</ele>
        <time>2017-06-20T12:37:08Z</time>
      </trkpt>
      <trkpt lat="62.286801980808377" lon="7.217918001115322">
        <ele>1.58</ele>
        <time>2017-06-20T12:37:09Z</time>
      </trkpt>
      <trkpt lat="62.286887979134917" lon="7.21821497194469">
        <ele>1.1</ele>
        <time>2017-06-20T12:37:10Z</time>
      </trkpt>
      <trkpt lat="62.287660036236048" lon="7.221429012715817">
        <ele>1.58</ele>
        <time>2017-06-20T12:37:20Z</time>
      </trkpt>
      <trkpt lat="62.288208967074752" lon="7.223765971139073">
        <ele>5.91</ele>
        <time>2017-06-20T12:37:27Z</time>
      </trkpt>
      <trkpt lat="62.289720978587866" lon="7.226570975035429">
        <ele>14.56</ele>
        <time>2017-06-20T12:37:38Z</time>
      </trkpt>
      <trkpt lat="62.291400963440537" lon="7.229474969208241">
        <ele>25.129999999999999</ele>
        <time>2017-06-20T12:37:50Z</time>
      </trkpt>
      <trkpt lat="62.292161034420133" lon="7.231347989290953">
        <ele>22.73</ele>
        <time>2017-06-20T12:37:57Z</time>
      </trkpt>
      <trkpt lat="62.292232029139996" lon="7.2316840197891">
        <ele>22.25</ele>
        <time>2017-06-20T12:37:58Z</time>
      </trkpt>
      <trkpt lat="62.292835023254156" lon="7.234473014250398">
        <ele>19.84</ele>
        <time>2017-06-20T12:38:06Z</time>
      </trkpt>
      <trkpt lat="62.29370498098433" lon="7.23789501003921">
        <ele>18.399999999999999</ele>
        <time>2017-06-20T12:38:16Z</time>
      </trkpt>
      <trkpt lat="62.293867003172636" lon="7.238418040797114">
        <ele>17.920000000000002</ele>
        <time>2017-06-20T12:38:18Z</time>
      </trkpt>
      <trkpt lat="62.293970016762614" lon="7.23864896222949">
        <ele>17.920000000000002</ele>
        <time>2017-06-20T12:38:19Z</time>
      </trkpt>
      <trkpt lat="62.294085016474128" lon="7.238872004672885">
        <ele>16.960000000000001</ele>
        <time>2017-06-20T12:38:20Z</time>
      </trkpt>
      <trkpt lat="62.295213975012302" lon="7.241327986121178">
        <ele>14.08</ele>
        <time>2017-06-20T12:38:29Z</time>
      </trkpt>
      <trkpt lat="62.296569999307394" lon="7.245034966617823">
        <ele>6.87</ele>
        <time>2017-06-20T12:38:41Z</time>
      </trkpt>
      <trkpt lat="62.29746401309967" lon="7.247849022969604">
        <ele>0.14</ele>
        <time>2017-06-20T12:38:50Z</time>
      </trkpt>
      <trkpt lat="62.29761203750968" lon="7.249868977814913">
        <ele>-0.82</ele>
        <time>2017-06-20T12:38:57Z</time>
      </trkpt>
      <trkpt lat="62.297810018062592" lon="7.253547962754965">
        <ele>0.14</ele>
        <time>2017-06-20T12:39:12Z</time>
      </trkpt>
      <trkpt lat="62.297942033037543" lon="7.258120039477944">
        <ele>-1.3</ele>
        <time>2017-06-20T12:39:32Z</time>
      </trkpt>
      <trkpt lat="62.297988971695304" lon="7.262232033535838">
        <ele>-2.27</ele>
        <time>2017-06-20T12:39:52Z</time>
      </trkpt>
      <trkpt lat="62.297992995008826" lon="7.262448035180569">
        <ele>-2.27</ele>
        <time>2017-06-20T12:39:54Z</time>
      </trkpt>
      <trkpt lat="62.298012021929026" lon="7.262535961344838">
        <ele>-2.27</ele>
        <time>2017-06-20T12:39:55Z</time>
      </trkpt>
      <trkpt lat="62.298046974465251" lon="7.262621037662029">
        <ele>-2.27</ele>
        <time>2017-06-20T12:39:56Z</time>
      </trkpt>
      <trkpt lat="62.298100031912327" lon="7.262682979926467">
        <ele>-2.27</ele>
        <time>2017-06-20T12:39:57Z</time>
      </trkpt>
      <trkpt lat="62.298160968348384" lon="7.262721033766866">
        <ele>-2.27</ele>
        <time>2017-06-20T12:39:58Z</time>
      </trkpt>
      <trkpt lat="62.298233974725008" lon="7.262727990746498">
        <ele>-1.79</ele>
        <time>2017-06-20T12:39:59Z</time>
      </trkpt>
      <trkpt lat="62.298306981101632" lon="7.262727990746498">
        <ele>-1.3</ele>
        <time>2017-06-20T12:40:00Z</time>
      </trkpt>
      <trkpt lat="62.299307025969028" lon="7.262296993285418">
        <ele>3.02</ele>
        <time>2017-06-20T12:40:10Z</time>
      </trkpt>
      <trkpt lat="62.300390973687172" lon="7.261456958949566">
        <ele>7.35</ele>
        <time>2017-06-20T12:40:20Z</time>
      </trkpt>
      <trkpt lat="62.300465991720557" lon="7.261315975338221">
        <ele>7.35</ele>
        <time>2017-06-20T12:40:21Z</time>
      </trkpt>
      <trkpt lat="62.300532963126898" lon="7.261135010048747">
        <ele>7.35</ele>
        <time>2017-06-20T12:40:22Z</time>
      </trkpt>
      <trkpt lat="62.300581997260451" lon="7.260933006182313">
        <ele>6.87</ele>
        <time>2017-06-20T12:40:23Z</time>
      </trkpt>
      <trkpt lat="62.30062197893858" lon="7.26071298122406">
        <ele>6.87</ele>
        <time>2017-06-20T12:40:24Z</time>
      </trkpt>
      <trkpt lat="62.300653997808695" lon="7.260482981801033">
        <ele>6.87</ele>
        <time>2017-06-20T12:40:25Z</time>
      </trkpt>
      <trkpt lat="62.300921967253089" lon="7.258903998881578">
        <ele>6.39</ele>
        <time>2017-06-20T12:40:32Z</time>
      </trkpt>
      <trkpt lat="62.300993967801332" lon="7.258707024157047">
        <ele>6.39</ele>
        <time>2017-06-20T12:40:33Z</time>
      </trkpt>
      <trkpt lat="62.301076026633382" lon="7.25851901806891">
        <ele>6.87</ele>
        <time>2017-06-20T12:40:34Z</time>
      </trkpt>
      <trkpt lat="62.301163030788302" lon="7.258339980617166">
        <ele>6.87</ele>
        <time>2017-06-20T12:40:35Z</time>
      </trkpt>
      <trkpt lat="62.301257997751236" lon="7.258165972307324">
        <ele>6.87</ele>
        <time>2017-06-20T12:40:36Z</time>
      </trkpt>
      <trkpt lat="62.302555013448" lon="7.256322037428618">
        <ele>4.94</ele>
        <time>2017-06-20T12:40:47Z</time>
      </trkpt>
      <trkpt lat="62.303840965032578" lon="7.254679016768932">
        <ele>5.42</ele>
        <time>2017-06-20T12:40:57Z</time>
      </trkpt>
      <trkpt lat="62.303979014977813" lon="7.25456602871418">
        <ele>5.91</ele>
        <time>2017-06-20T12:40:58Z</time>
      </trkpt>
      <trkpt lat="62.304121004417539" lon="7.254487993195653">
        <ele>6.39</ele>
        <time>2017-06-20T12:40:59Z</time>
      </trkpt>
      <trkpt lat="62.304268022999167" lon="7.254426972940564">
        <ele>6.39</ele>
        <time>2017-06-20T12:41:00Z</time>
      </trkpt>
      <trkpt lat="62.304418981075287" lon="7.254382967948914">
        <ele>6.87</ele>
        <time>2017-06-20T12:41:01Z</time>
      </trkpt>
      <trkpt lat="62.305825967341661" lon="7.253866977989674">
        <ele>10.23</ele>
        <time>2017-06-20T12:41:11Z</time>
      </trkpt>
      <trkpt lat="62.306214971467853" lon="7.253543017432094">
        <ele>11.19</ele>
        <time>2017-06-20T12:41:14Z</time>
      </trkpt>
      <trkpt lat="62.30633701197803" lon="7.253491971641779">
        <ele>11.19</ele>
        <time>2017-06-20T12:41:15Z</time>
      </trkpt>
      <trkpt lat="62.306459974497557" lon="7.253495994955301">
        <ele>11.19</ele>
        <time>2017-06-20T12:41:16Z</time>
      </trkpt>
      <trkpt lat="62.306581009179354" lon="7.253575958311558">
        <ele>11.19</ele>
        <time>2017-06-20T12:41:17Z</time>
      </trkpt>
      <trkpt lat="62.306685028597713" lon="7.253737980499864">
        <ele>11.67</ele>
        <time>2017-06-20T12:41:18Z</time>
      </trkpt>
      <trkpt lat="62.306783013045788" lon="7.253970997408032">
        <ele>11.67</ele>
        <time>2017-06-20T12:41:19Z</time>
      </trkpt>
      <trkpt lat="62.306858031079173" lon="7.254254976287484">
        <ele>13.119999999999999</ele>
        <time>2017-06-20T12:41:20Z</time>
      </trkpt>
      <trkpt lat="62.306921985000372" lon="7.254570974037051">
        <ele>13.6</ele>
        <time>2017-06-20T12:41:21Z</time>
      </trkpt>
      <trkpt lat="62.306989962235093" lon="7.254903987050057">
        <ele>14.08</ele>
        <time>2017-06-20T12:41:22Z</time>
      </trkpt>
      <trkpt lat="62.307043019682169" lon="7.255281005054712">
        <ele>14.08</ele>
        <time>2017-06-20T12:41:23Z</time>
      </trkpt>
      <trkpt lat="62.307091969996691" lon="7.255650982260704">
        <ele>14.56</ele>
        <time>2017-06-20T12:41:24Z</time>
      </trkpt>
      <trkpt lat="62.307126000523567" lon="7.256036968901753">
        <ele>15.039999999999999</ele>
        <time>2017-06-20T12:41:25Z</time>
      </trkpt>
      <trkpt lat="62.307765958830714" lon="7.259923992678523">
        <ele>14.08</ele>
        <time>2017-06-20T12:41:35Z</time>
      </trkpt>
      <trkpt lat="62.308606998994946" lon="7.262745006009936">
        <ele>16</ele>
        <time>2017-06-20T12:41:43Z</time>
      </trkpt>
      <trkpt lat="62.308985022827983" lon="7.264160038903356">
        <ele>17.440000000000001</ele>
        <time>2017-06-20T12:41:47Z</time>
      </trkpt>
      <trkpt lat="62.309106979519129" lon="7.264466984197497">
        <ele>17.440000000000001</ele>
        <time>2017-06-20T12:41:48Z</time>
      </trkpt>
      <trkpt lat="62.309240000322461" lon="7.26474903523922">
        <ele>17.440000000000001</ele>
        <time>2017-06-20T12:41:49Z</time>
      </trkpt>
      <trkpt lat="62.310282038524747" lon="7.267273999750614">
        <ele>19.84</ele>
        <time>2017-06-20T12:41:57Z</time>
      </trkpt>
      <trkpt lat="62.310367031022906" lon="7.267659986391664">
        <ele>20.809999999999999</ele>
        <time>2017-06-20T12:41:58Z</time>
      </trkpt>
      <trkpt lat="62.310436014086008" lon="7.26806097663939">
        <ele>21.289999999999999</ele>
        <time>2017-06-20T12:41:59Z</time>
      </trkpt>
      <trkpt lat="62.310487981885672" lon="7.268472025170922">
        <ele>21.77</ele>
        <time>2017-06-20T12:42:00Z</time>
      </trkpt>
      <trkpt lat="62.31063399463892" lon="7.269981019198895">
        <ele>24.649999999999999</ele>
        <time>2017-06-20T12:42:04Z</time>
      </trkpt>
      <trkpt lat="62.310704989358783" lon="7.270292993634939">
        <ele>25.129999999999999</ele>
        <time>2017-06-20T12:42:05Z</time>
      </trkpt>
      <trkpt lat="62.310799034312367" lon="7.270588036626577">
        <ele>25.609999999999999</ele>
        <time>2017-06-20T12:42:06Z</time>
      </trkpt>
      <trkpt lat="62.310910010710359" lon="7.270879978314042">
        <ele>26.09</ele>
        <time>2017-06-20T12:42:07Z</time>
      </trkpt>
      <trkpt lat="62.311027022078633" lon="7.271166974678636">
        <ele>26.57</ele>
        <time>2017-06-20T12:42:08Z</time>
      </trkpt>
      <trkpt lat="62.311419965699315" lon="7.271887985989451">
        <ele>28.02</ele>
        <time>2017-06-20T12:42:11Z</time>
      </trkpt>
      <trkpt lat="62.311573019251227" lon="7.272050008177757">
        <ele>28.5</ele>
        <time>2017-06-20T12:42:12Z</time>
      </trkpt>
      <trkpt lat="62.31172900646925" lon="7.27218403480947">
        <ele>29.460000000000001</ele>
        <time>2017-06-20T12:42:13Z</time>
      </trkpt>
      <trkpt lat="62.31248396448791" lon="7.272884007543325">
        <ele>32.340000000000003</ele>
        <time>2017-06-20T12:42:18Z</time>
      </trkpt>
      <trkpt lat="62.312618996948004" lon="7.273093974217773">
        <ele>33.299999999999997</ele>
        <time>2017-06-20T12:42:19Z</time>
      </trkpt>
      <trkpt lat="62.312742965295911" lon="7.27334501221776">
        <ele>33.780000000000001</ele>
        <time>2017-06-20T12:42:20Z</time>
      </trkpt>
      <trkpt lat="62.312852013856173" lon="7.273629996925592">
        <ele>35.229999999999997</ele>
        <time>2017-06-20T12:42:21Z</time>
      </trkpt>
      <trkpt lat="62.312943041324615" lon="7.273955969139934">
        <ele>35.710000000000001</ele>
        <time>2017-06-20T12:42:22Z</time>
      </trkpt>
      <trkpt lat="62.31301998719573" lon="7.274305997416377">
        <ele>36.189999999999998</ele>
        <time>2017-06-20T12:42:23Z</time>
      </trkpt>
      <trkpt lat="62.313098022714257" lon="7.274669017642736">
        <ele>36.670000000000002</ele>
        <time>2017-06-20T12:42:24Z</time>
      </trkpt>
      <trkpt lat="62.31379296630621" lon="7.277382994070649">
        <ele>39.07</ele>
        <time>2017-06-20T12:42:32Z</time>
      </trkpt>
      <trkpt lat="62.31383596546948" lon="7.27768499404192">
        <ele>39.07</ele>
        <time>2017-06-20T12:42:33Z</time>
      </trkpt>
      <trkpt lat="62.313865972682834" lon="7.277993028983474">
        <ele>39.549999999999997</ele>
        <time>2017-06-20T12:42:34Z</time>
      </trkpt>
      <trkpt lat="62.313884999603033" lon="7.278311038389802">
        <ele>39.549999999999997</ele>
        <time>2017-06-20T12:42:35Z</time>
      </trkpt>
      <trkpt lat="62.313887011259794" lon="7.278627036139369">
        <ele>39.549999999999997</ele>
        <time>2017-06-20T12:42:36Z</time>
      </trkpt>
      <trkpt lat="62.313882987946272" lon="7.278954014182091">
        <ele>39.549999999999997</ele>
        <time>2017-06-20T12:42:37Z</time>
      </trkpt>
      <trkpt lat="62.313757007941604" lon="7.281334977596998">
        <ele>40.030000000000001</ele>
        <time>2017-06-20T12:42:44Z</time>
      </trkpt>
      <trkpt lat="62.313701016828418" lon="7.281653992831707">
        <ele>40.509999999999998</ele>
        <time>2017-06-20T12:42:45Z</time>
      </trkpt>
      <trkpt lat="62.313629016280174" lon="7.281962027773261">
        <ele>40.509999999999998</ele>
        <time>2017-06-20T12:42:46Z</time>
      </trkpt>
      <trkpt lat="62.312754029408097" lon="7.285896996036172">
        <ele>44.359999999999999</ele>
        <time>2017-06-20T12:42:58Z</time>
      </trkpt>
      <trkpt lat="62.312391009181738" lon="7.287104995921254">
        <ele>44.840000000000003</ele>
        <time>2017-06-20T12:43:02Z</time>
      </trkpt>
      <trkpt lat="62.312340969219804" lon="7.287432979792357">
        <ele>44.840000000000003</ele>
        <time>2017-06-20T12:43:03Z</time>
      </trkpt>
      <trkpt lat="62.31231196783483" lon="7.287764986976981">
        <ele>45.32</ele>
        <time>2017-06-20T12:43:04Z</time>
      </trkpt>
      <trkpt lat="62.312290007248521" lon="7.288096994161606">
        <ele>45.32</ele>
        <time>2017-06-20T12:43:05Z</time>
      </trkpt>
      <trkpt lat="62.31228900142014" lon="7.288423972204328">
        <ele>44.840000000000003</ele>
        <time>2017-06-20T12:43:06Z</time>
      </trkpt>
      <trkpt lat="62.312306016683578" lon="7.288738964125514">
        <ele>45.32</ele>
        <time>2017-06-20T12:43:07Z</time>
      </trkpt>
      <trkpt lat="62.312329988926649" lon="7.289043981581926">
        <ele>44.840000000000003</ele>
        <time>2017-06-20T12:43:08Z</time>
      </trkpt>
      <trkpt lat="62.312369970604777" lon="7.289341958239675">
        <ele>44.840000000000003</ele>
        <time>2017-06-20T12:43:09Z</time>
      </trkpt>
      <trkpt lat="62.312421016395092" lon="7.289614034816623">
        <ele>44.840000000000003</ele>
        <time>2017-06-20T12:43:10Z</time>
      </trkpt>
      <trkpt lat="62.31248396448791" lon="7.289833975955844">
        <ele>44.840000000000003</ele>
        <time>2017-06-20T12:43:11Z</time>
      </trkpt>
      <trkpt lat="62.312552025541663" lon="7.290041008964181">
        <ele>44.359999999999999</ele>
        <time>2017-06-20T12:43:12Z</time>
      </trkpt>
      <trkpt lat="62.312616985291243" lon="7.290222980082035">
        <ele>44.359999999999999</ele>
        <time>2017-06-20T12:43:13Z</time>
      </trkpt>
      <trkpt lat="62.312901969999075" lon="7.290785992518067">
        <ele>43.399999999999999</ele>
        <time>2017-06-20T12:43:19Z</time>
      </trkpt>
      <trkpt lat="62.312929965555668" lon="7.290826980024576">
        <ele>43.399999999999999</ele>
        <time>2017-06-20T12:43:30Z</time>
      </trkpt>
      <trkpt lat="62.312939018011093" lon="7.290858998894692">
        <ele>43.399999999999999</ele>
        <time>2017-06-20T12:44:00Z</time>
      </trkpt>
      <trkpt lat="62.313183015212417" lon="7.29029799811542">
        <ele>44.359999999999999</ele>
        <time>2017-06-20T12:44:07Z</time>
      </trkpt>
      <trkpt lat="62.313253004103899" lon="7.290181992575526">
        <ele>44.359999999999999</ele>
        <time>2017-06-20T12:44:08Z</time>
      </trkpt>
      <trkpt lat="62.313325004652143" lon="7.290073027834296">
        <ele>44.840000000000003</ele>
        <time>2017-06-20T12:44:09Z</time>
      </trkpt>
      <trkpt lat="62.31340597383678" lon="7.289986023679376">
        <ele>44.359999999999999</ele>
        <time>2017-06-20T12:44:10Z</time>
      </trkpt>
      <trkpt lat="62.313493983820081" lon="7.289917962625623">
        <ele>44.359999999999999</ele>
        <time>2017-06-20T12:44:11Z</time>
      </trkpt>
      <trkpt lat="62.313589034602046" lon="7.289857026189566">
        <ele>44.359999999999999</ele>
        <time>2017-06-20T12:44:12Z</time>
      </trkpt>
      <trkpt lat="62.313701016828418" lon="7.289799023419619">
        <ele>44.359999999999999</ele>
        <time>2017-06-20T12:44:13Z</time>
      </trkpt>
      <trkpt lat="62.314732996746898" lon="7.289755018427968">
        <ele>47.240000000000002</ele>
        <time>2017-06-20T12:44:21Z</time>
      </trkpt>
      <trkpt lat="62.315731029957533" lon="7.290333034470677">
        <ele>48.68</ele>
        <time>2017-06-20T12:44:30Z</time>
      </trkpt>
      <trkpt lat="62.316676005721092" lon="7.291620997712016">
        <ele>50.609999999999999</ele>
        <time>2017-06-20T12:44:38Z</time>
      </trkpt>
      <trkpt lat="62.31731696985662" lon="7.293610023334622">
        <ele>49.159999999999997</ele>
        <time>2017-06-20T12:44:46Z</time>
      </trkpt>
      <trkpt lat="62.3180259950459" lon="7.297107959166169">
        <ele>50.609999999999999</ele>
        <time>2017-06-20T12:44:57Z</time>
      </trkpt>
      <trkpt lat="62.319188984110951" lon="7.303281985223293">
        <ele>54.450000000000003</ele>
        <time>2017-06-20T12:45:14Z</time>
      </trkpt>
      <trkpt lat="62.320276033133268" lon="7.308214986696839">
        <ele>56.369999999999997</ele>
        <time>2017-06-20T12:45:30Z</time>
      </trkpt>
      <trkpt lat="62.32180698774755" lon="7.313977964222431">
        <ele>62.140000000000001</ele>
        <time>2017-06-20T12:45:49Z</time>
      </trkpt>
      <trkpt lat="62.322376035153866" lon="7.316354988142848">
        <ele>68.390000000000001</ele>
        <time>2017-06-20T12:45:57Z</time>
      </trkpt>
      <trkpt lat="62.322474019601941" lon="7.316585993394256">
        <ele>68.390000000000001</ele>
        <time>2017-06-20T12:45:58Z</time>
      </trkpt>
      <trkpt lat="62.322581978514791" lon="7.31678900308907">
        <ele>68.870000000000005</ele>
        <time>2017-06-20T12:45:59Z</time>
      </trkpt>
      <trkpt lat="62.322695972397923" lon="7.316976003348827">
        <ele>69.349999999999994</ele>
        <time>2017-06-20T12:46:00Z</time>
      </trkpt>
      <trkpt lat="62.322819018736482" lon="7.317139031365514">
        <ele>69.829999999999998</ele>
        <time>2017-06-20T12:46:01Z</time>
      </trkpt>
      <trkpt lat="62.322952961549163" lon="7.31728102080524">
        <ele>70.310000000000002</ele>
        <time>2017-06-20T12:46:02Z</time>
      </trkpt>
      <trkpt lat="62.323086988180876" lon="7.317398032173514">
        <ele>70.790000000000006</ele>
        <time>2017-06-20T12:46:03Z</time>
      </trkpt>
      <trkpt lat="62.323231995105743" lon="7.317503979429603">
        <ele>71.269999999999996</ele>
        <time>2017-06-20T12:46:04Z</time>
      </trkpt>
      <trkpt lat="62.324862023815513" lon="7.319008028134704">
        <ele>73.200000000000003</ele>
        <time>2017-06-20T12:46:15Z</time>
      </trkpt>
      <trkpt lat="62.327030003070831" lon="7.322923969477415">
        <ele>75.120000000000005</ele>
        <time>2017-06-20T12:46:31Z</time>
      </trkpt>
      <trkpt lat="62.329352041706443" lon="7.327222041785717">
        <ele>78</ele>
        <time>2017-06-20T12:46:47Z</time>
      </trkpt>
      <trkpt lat="62.329456983134151" lon="7.327538961544633">
        <ele>78</ele>
        <time>2017-06-20T12:46:48Z</time>
      </trkpt>
      <trkpt lat="62.329539963975549" lon="7.327885972335935">
        <ele>78</ele>
        <time>2017-06-20T12:46:49Z</time>
      </trkpt>
      <trkpt lat="62.329616993665695" lon="7.328241029754281">
        <ele>78.969999999999999</ele>
        <time>2017-06-20T12:46:50Z</time>
      </trkpt>
      <trkpt lat="62.329672984778881" lon="7.328612012788653">
        <ele>79.450000000000003</ele>
        <time>2017-06-20T12:46:51Z</time>
      </trkpt>
      <trkpt lat="62.329722018912435" lon="7.328989030793309">
        <ele>79.930000000000007</ele>
        <time>2017-06-20T12:46:52Z</time>
      </trkpt>
      <trkpt lat="62.330008009448647" lon="7.333012009039521">
        <ele>85.209999999999994</ele>
        <time>2017-06-20T12:47:02Z</time>
      </trkpt>
      <trkpt lat="62.330475971102715" lon="7.338505005463958">
        <ele>88.579999999999998</ele>
        <time>2017-06-20T12:47:16Z</time>
      </trkpt>
      <trkpt lat="62.33057102188468" lon="7.338835000991821">
        <ele>89.060000000000002</ele>
        <time>2017-06-20T12:47:17Z</time>
      </trkpt>
      <trkpt lat="62.33067998662591" lon="7.339145969599485">
        <ele>89.540000000000006</ele>
        <time>2017-06-20T12:47:18Z</time>
      </trkpt>
      <trkpt lat="62.331338971853256" lon="7.340732999145985">
        <ele>91.459999999999994</ele>
        <time>2017-06-20T12:47:24Z</time>
      </trkpt>
      <trkpt lat="62.331414995715022" lon="7.34100298024714">
        <ele>92.420000000000002</ele>
        <time>2017-06-20T12:47:25Z</time>
      </trkpt>
      <trkpt lat="62.331479033455253" lon="7.341292994096875">
        <ele>92.900000000000006</ele>
        <time>2017-06-20T12:47:26Z</time>
      </trkpt>
      <trkpt lat="62.331532007083297" lon="7.341605974361301">
        <ele>93.390000000000001</ele>
        <time>2017-06-20T12:47:27Z</time>
      </trkpt>
      <trkpt lat="62.331572994589806" lon="7.341933036223054">
        <ele>93.870000000000005</ele>
        <time>2017-06-20T12:47:28Z</time>
      </trkpt>
      <trkpt lat="62.33160300180316" lon="7.342275017872453">
        <ele>94.829999999999998</ele>
        <time>2017-06-20T12:47:29Z</time>
      </trkpt>
      <trkpt lat="62.331628985702991" lon="7.342616999521852">
        <ele>94.829999999999998</ele>
        <time>2017-06-20T12:47:30Z</time>
      </trkpt>
      <trkpt lat="62.331761000677943" lon="7.343641016632319">
        <ele>95.790000000000006</ele>
        <time>2017-06-20T12:47:33Z</time>
      </trkpt>
      <trkpt lat="62.331836018711329" lon="7.343978974968195">
        <ele>96.269999999999996</ele>
        <time>2017-06-20T12:47:34Z</time>
      </trkpt>
      <trkpt lat="62.332930024713278" lon="7.347807995975018">
        <ele>99.150000000000006</ele>
        <time>2017-06-20T12:47:45Z</time>
      </trkpt>
      <trkpt lat="62.333380971103907" lon="7.350717019289732">
        <ele>103</ele>
        <time>2017-06-20T12:47:53Z</time>
      </trkpt>
      <trkpt lat="62.333835018798709" lon="7.356683006510139">
        <ele>106.36</ele>
        <time>2017-06-20T12:48:09Z</time>
      </trkpt>
      <trkpt lat="62.3335350304842" lon="7.359223980456591">
        <ele>110.20999999999999</ele>
        <time>2017-06-20T12:48:16Z</time>
      </trkpt>
      <trkpt lat="62.33330000191927" lon="7.362457970157266">
        <ele>112.13</ele>
        <time>2017-06-20T12:48:25Z</time>
      </trkpt>
      <trkpt lat="62.332919966429472" lon="7.368902983143926">
        <ele>112.61</ele>
        <time>2017-06-20T12:48:42Z</time>
      </trkpt>
      <trkpt lat="62.332790968939662" lon="7.373453015461564">
        <ele>114.05</ele>
        <time>2017-06-20T12:48:54Z</time>
      </trkpt>
      <trkpt lat="62.333119036629796" lon="7.37649598158896">
        <ele>117.90000000000001</ele>
        <time>2017-06-20T12:49:02Z</time>
      </trkpt>
      <trkpt lat="62.333830995485187" lon="7.380734039470553">
        <ele>125.11</ele>
        <time>2017-06-20T12:49:15Z</time>
      </trkpt>
      <trkpt lat="62.334601040929556" lon="7.384472033008933">
        <ele>126.55</ele>
        <time>2017-06-20T12:49:25Z</time>
      </trkpt>
      <trkpt lat="62.335105966776609" lon="7.386007010936737">
        <ele>125.59</ele>
        <time>2017-06-20T12:49:30Z</time>
      </trkpt>
      <trkpt lat="62.335225995630026" lon="7.386215971782804">
        <ele>125.11</ele>
        <time>2017-06-20T12:49:31Z</time>
      </trkpt>
      <trkpt lat="62.335351975634694" lon="7.386397020891309">
        <ele>124.63</ele>
        <time>2017-06-20T12:49:32Z</time>
      </trkpt>
      <trkpt lat="62.335489019751549" lon="7.386544961482287">
        <ele>124.15000000000001</ele>
        <time>2017-06-20T12:49:33Z</time>
      </trkpt>
      <trkpt lat="62.335636960342526" lon="7.386672031134367">
        <ele>123.19</ele>
        <time>2017-06-20T12:49:34Z</time>
      </trkpt>
      <trkpt lat="62.33579495921731" lon="7.386783007532358">
        <ele>122.70999999999999</ele>
        <time>2017-06-20T12:49:35Z</time>
      </trkpt>
      <trkpt lat="62.336820987984538" lon="7.387598985806108">
        <ele>118.38</ele>
        <time>2017-06-20T12:49:42Z</time>
      </trkpt>
      <trkpt lat="62.336905980482697" lon="7.387768970802426">
        <ele>117.42</ele>
        <time>2017-06-20T12:49:43Z</time>
      </trkpt>
      <trkpt lat="62.336959037929773" lon="7.387963011860848">
        <ele>116.45999999999999</ele>
        <time>2017-06-20T12:49:44Z</time>
      </trkpt>
      <trkpt lat="62.337004970759153" lon="7.388179013505578">
        <ele>116.45999999999999</ele>
        <time>2017-06-20T12:49:45Z</time>
      </trkpt>
      <trkpt lat="62.337046964094043" lon="7.38842099905014">
        <ele>116.45999999999999</ele>
        <time>2017-06-20T12:49:46Z</time>
      </trkpt>
      <trkpt lat="62.337416019290686" lon="7.390068965032697">
        <ele>119.34</ele>
        <time>2017-06-20T12:49:52Z</time>
      </trkpt>
      <trkpt lat="62.337514003738761" lon="7.390298964455724">
        <ele>120.3</ele>
        <time>2017-06-20T12:49:53Z</time>
      </trkpt>
      <trkpt lat="62.337616011500359" lon="7.390513038262725">
        <ele>120.78</ele>
        <time>2017-06-20T12:49:54Z</time>
      </trkpt>
      <trkpt lat="62.337734028697014" lon="7.390716969966888">
        <ele>122.22</ele>
        <time>2017-06-20T12:49:55Z</time>
      </trkpt>
      <trkpt lat="62.337851962074637" lon="7.390907993540168">
        <ele>123.19</ele>
        <time>2017-06-20T12:49:56Z</time>
      </trkpt>
      <trkpt lat="62.339418036863208" lon="7.393338996917009">
        <ele>133.28</ele>
        <time>2017-06-20T12:50:08Z</time>
      </trkpt>
      <trkpt lat="62.339776027947664" lon="7.39404902793467">
        <ele>135.19999999999999</ele>
        <time>2017-06-20T12:50:11Z</time>
      </trkpt>
      <trkpt lat="62.339880969375372" lon="7.394327977672219">
        <ele>136.16</ele>
        <time>2017-06-20T12:50:12Z</time>
      </trkpt>
      <trkpt lat="62.339980965480208" lon="7.394637018442154">
        <ele>136.63999999999999</ele>
        <time>2017-06-20T12:50:13Z</time>
      </trkpt>
      <trkpt lat="62.340801972895861" lon="7.398203015327454">
        <ele>141.44999999999999</ele>
        <time>2017-06-20T12:50:23Z</time>
      </trkpt>
      <trkpt lat="62.341774022206664" lon="7.402994027361274">
        <ele>145.78</ele>
        <time>2017-06-20T12:50:36Z</time>
      </trkpt>
      <trkpt lat="62.34189597889781" lon="7.40369601175189">
        <ele>147.22</ele>
        <time>2017-06-20T12:50:38Z</time>
      </trkpt>
      <trkpt lat="62.341936966404319" lon="7.40406297147274">
        <ele>147.69999999999999</ele>
        <time>2017-06-20T12:50:39Z</time>
      </trkpt>
      <trkpt lat="62.342236032709479" lon="7.406616015359759">
        <ele>152.50999999999999</ele>
        <time>2017-06-20T12:50:46Z</time>
      </trkpt>
      <trkpt lat="62.34232597053051" lon="7.406926983967423">
        <ele>153.47</ele>
        <time>2017-06-20T12:50:47Z</time>
      </trkpt>
      <trkpt lat="62.34243200160563" lon="7.407222026959062">
        <ele>154.43000000000001</ele>
        <time>2017-06-20T12:50:48Z</time>
      </trkpt>
      <trkpt lat="62.342553036287427" lon="7.407503994181752">
        <ele>154.91</ele>
        <time>2017-06-20T12:50:49Z</time>
      </trkpt>
      <trkpt lat="62.342664012685418" lon="7.407780010253191">
        <ele>155.87</ele>
        <time>2017-06-20T12:50:50Z</time>
      </trkpt>
      <trkpt lat="62.342880014330149" lon="7.408260963857174">
        <ele>157.31</ele>
        <time>2017-06-20T12:50:52Z</time>
      </trkpt>
      <trkpt lat="62.343003982678056" lon="7.408434972167015">
        <ele>157.78999999999999</ele>
        <time>2017-06-20T12:50:53Z</time>
      </trkpt>
      <trkpt lat="62.343134991824627" lon="7.408545026555657">
        <ele>158.27000000000001</ele>
        <time>2017-06-20T12:50:54Z</time>
      </trkpt>
      <trkpt lat="62.343282010406256" lon="7.408590037375689">
        <ele>159.24000000000001</ele>
        <time>2017-06-20T12:50:55Z</time>
      </trkpt>
      <trkpt lat="62.343437997624278" lon="7.408609986305237">
        <ele>159.72</ele>
        <time>2017-06-20T12:50:56Z</time>
      </trkpt>
      <trkpt lat="62.343601025640965" lon="7.408591965213418">
        <ele>160.19999999999999</ele>
        <time>2017-06-20T12:50:57Z</time>
      </trkpt>
      <trkpt lat="62.343776961788535" lon="7.408548966050148">
        <ele>161.16</ele>
        <time>2017-06-20T12:50:58Z</time>
      </trkpt>
      <trkpt lat="62.343938983976841" lon="7.408501021564007">
        <ele>161.63999999999999</ele>
        <time>2017-06-20T12:50:59Z</time>
      </trkpt>
      <trkpt lat="62.344425972551107" lon="7.408424997702241">
        <ele>165</ele>
        <time>2017-06-20T12:51:02Z</time>
      </trkpt>
      <trkpt lat="62.344569973647594" lon="7.408464979380369">
        <ele>165.96000000000001</ele>
        <time>2017-06-20T12:51:03Z</time>
      </trkpt>
      <trkpt lat="62.344711041077971" lon="7.408550977706909">
        <ele>166.93000000000001</ele>
        <time>2017-06-20T12:51:04Z</time>
      </trkpt>
      <trkpt lat="62.344846995547414" lon="7.408692967146635">
        <ele>167.88999999999999</ele>
        <time>2017-06-20T12:51:05Z</time>
      </trkpt>
      <trkpt lat="62.344980016350746" lon="7.408876027911902">
        <ele>168.84999999999999</ele>
        <time>2017-06-20T12:51:06Z</time>
      </trkpt>
      <trkpt lat="62.345109013840556" lon="7.409085994586349">
        <ele>169.81</ele>
        <time>2017-06-20T12:51:07Z</time>
      </trkpt>
      <trkpt lat="62.345235999673605" lon="7.409311970695853">
        <ele>169.81</ele>
        <time>2017-06-20T12:51:08Z</time>
      </trkpt>
      <trkpt lat="62.34625699929893" lon="7.411868032068014">
        <ele>178.94</ele>
        <time>2017-06-20T12:51:17Z</time>
      </trkpt>
      <trkpt lat="62.346435030922294" lon="7.412447975948453">
        <ele>181.83000000000001</ele>
        <time>2017-06-20T12:51:19Z</time>
      </trkpt>
      <trkpt lat="62.346479035913944" lon="7.412770008668304">
        <ele>182.78999999999999</ele>
        <time>2017-06-20T12:51:20Z</time>
      </trkpt>
      <trkpt lat="62.346500996500254" lon="7.413098998367786">
        <ele>184.22999999999999</ele>
        <time>2017-06-20T12:51:21Z</time>
      </trkpt>
      <trkpt lat="62.346484987065196" lon="7.413450032472611">
        <ele>185.19</ele>
        <time>2017-06-20T12:51:22Z</time>
      </trkpt>
      <trkpt lat="62.346461014822125" lon="7.413802994415164">
        <ele>186.15000000000001</ele>
        <time>2017-06-20T12:51:23Z</time>
      </trkpt>
      <trkpt lat="62.346417009830475" lon="7.414168026298285">
        <ele>186.63</ele>
        <time>2017-06-20T12:51:24Z</time>
      </trkpt>
      <trkpt lat="62.346364036202431" lon="7.414538003504276">
        <ele>187.59</ele>
        <time>2017-06-20T12:51:25Z</time>
      </trkpt>
      <trkpt lat="62.34604200348258" lon="7.416014978662133">
        <ele>189.52000000000001</ele>
        <time>2017-06-20T12:51:29Z</time>
      </trkpt>
      <trkpt lat="62.345927003771067" lon="7.416336005553603">
        <ele>190</ele>
        <time>2017-06-20T12:51:30Z</time>
      </trkpt>
      <trkpt lat="62.345776967704296" lon="7.416617972776294">
        <ele>190.47999999999999</ele>
        <time>2017-06-20T12:51:31Z</time>
      </trkpt>
      <trkpt lat="62.344576008617878" lon="7.418872034177184">
        <ele>190</ele>
        <time>2017-06-20T12:51:39Z</time>
      </trkpt>
      <trkpt lat="62.342853024601936" lon="7.423469005152583">
        <ele>189.52000000000001</ele>
        <time>2017-06-20T12:51:53Z</time>
      </trkpt>
      <trkpt lat="62.341649970039725" lon="7.426100000739098">
        <ele>187.59</ele>
        <time>2017-06-20T12:52:02Z</time>
      </trkpt>
      <trkpt lat="62.340791998431087" lon="7.428284995257855">
        <ele>187.11000000000001</ele>
        <time>2017-06-20T12:52:09Z</time>
      </trkpt>
      <trkpt lat="62.339823972433805" lon="7.430226998403668">
        <ele>186.63</ele>
        <time>2017-06-20T12:52:16Z</time>
      </trkpt>
      <trkpt lat="62.339717019349337" lon="7.430521035566926">
        <ele>186.63</ele>
        <time>2017-06-20T12:52:17Z</time>
      </trkpt>
      <trkpt lat="62.339629009366035" lon="7.430827980861068">
        <ele>186.15000000000001</ele>
        <time>2017-06-20T12:52:18Z</time>
      </trkpt>
      <trkpt lat="62.339556002989411" lon="7.431149007752538">
        <ele>186.15000000000001</ele>
        <time>2017-06-20T12:52:19Z</time>
      </trkpt>
      <trkpt lat="62.339489031583071" lon="7.431482020765543">
        <ele>186.15000000000001</ele>
        <time>2017-06-20T12:52:20Z</time>
      </trkpt>
      <trkpt lat="62.339425999671221" lon="7.431822996586561">
        <ele>184.71000000000001</ele>
        <time>2017-06-20T12:52:21Z</time>
      </trkpt>
      <trkpt lat="62.339371014386415" lon="7.432179981842637">
        <ele>184.71000000000001</ele>
        <time>2017-06-20T12:52:22Z</time>
      </trkpt>
      <trkpt lat="62.338589988648891" lon="7.437128992751241">
        <ele>190</ele>
        <time>2017-06-20T12:52:35Z</time>
      </trkpt>
      <trkpt lat="62.337192976847291" lon="7.44376502931118">
        <ele>198.16999999999999</ele>
        <time>2017-06-20T12:52:52Z</time>
      </trkpt>
      <trkpt lat="62.335968967527151" lon="7.449457012116909">
        <ele>198.65000000000001</ele>
        <time>2017-06-20T12:53:06Z</time>
      </trkpt>
      <trkpt lat="62.334744036197662" lon="7.454069992527366">
        <ele>203.46000000000001</ele>
        <time>2017-06-20T12:53:18Z</time>
      </trkpt>
      <trkpt lat="62.332891970872879" lon="7.460794039070606">
        <ele>210.66999999999999</ele>
        <time>2017-06-20T12:53:36Z</time>
      </trkpt>
      <trkpt lat="62.331969039514661" lon="7.463501980528235">
        <ele>219.31999999999999</ele>
        <time>2017-06-20T12:53:45Z</time>
      </trkpt>
      <trkpt lat="62.331197988241911" lon="7.464979039505124">
        <ele>224.12</ele>
        <time>2017-06-20T12:53:51Z</time>
      </trkpt>
      <trkpt lat="62.331096986308694" lon="7.465269975364208">
        <ele>225.09</ele>
        <time>2017-06-20T12:53:52Z</time>
      </trkpt>
      <trkpt lat="62.331016017124057" lon="7.465587984770536">
        <ele>226.05000000000001</ele>
        <time>2017-06-20T12:53:53Z</time>
      </trkpt>
      <trkpt lat="62.330954996868968" lon="7.465928038582206">
        <ele>227.49000000000001</ele>
        <time>2017-06-20T12:53:54Z</time>
      </trkpt>
      <trkpt lat="62.330910991877317" lon="7.466285023838282">
        <ele>228.44999999999999</ele>
        <time>2017-06-20T12:53:55Z</time>
      </trkpt>
      <trkpt lat="62.330880984663963" lon="7.466649971902371">
        <ele>228.44999999999999</ele>
        <time>2017-06-20T12:53:56Z</time>
      </trkpt>
      <trkpt lat="62.330799009650946" lon="7.467385986819863">
        <ele>229.41</ele>
        <time>2017-06-20T12:53:58Z</time>
      </trkpt>
      <trkpt lat="62.330736983567476" lon="7.467716988176107">
        <ele>230.37</ele>
        <time>2017-06-20T12:53:59Z</time>
      </trkpt>
      <trkpt lat="62.3306580260396" lon="7.468018988147378">
        <ele>230.84999999999999</ele>
        <time>2017-06-20T12:54:00Z</time>
      </trkpt>
      <trkpt lat="62.330582002177835" lon="7.468325011432171">
        <ele>231.33000000000001</ele>
        <time>2017-06-20T12:54:01Z</time>
      </trkpt>
      <trkpt lat="62.330549983307719" lon="7.468606978654862">
        <ele>232.30000000000001</ele>
        <time>2017-06-20T12:54:02Z</time>
      </trkpt>
      <trkpt lat="62.330532968044281" lon="7.46881996281445">
        <ele>234.22</ele>
        <time>2017-06-20T12:54:03Z</time>
      </trkpt>
      <trkpt lat="62.330540008842945" lon="7.468987014144659">
        <ele>233.74000000000001</ele>
        <time>2017-06-20T12:54:04Z</time>
      </trkpt>
      <trkpt lat="62.330561969429255" lon="7.469133026897907">
        <ele>232.30000000000001</ele>
        <time>2017-06-20T12:54:05Z</time>
      </trkpt>
      <trkpt lat="62.330584013834596" lon="7.469259006902576">
        <ele>232.78</ele>
        <time>2017-06-20T12:54:06Z</time>
      </trkpt>
      <trkpt lat="62.330623995512724" lon="7.469378029927611">
        <ele>231.81</ele>
        <time>2017-06-20T12:54:07Z</time>
      </trkpt>
      <trkpt lat="62.330666994675994" lon="7.469507027417421">
        <ele>231.81</ele>
        <time>2017-06-20T12:54:08Z</time>
      </trkpt>
      <trkpt lat="62.330834968015552" lon="7.470144974067807">
        <ele>232.78</ele>
        <time>2017-06-20T12:54:12Z</time>
      </trkpt>
      <trkpt lat="62.330866986885667" lon="7.470357958227396">
        <ele>233.25999999999999</ele>
        <time>2017-06-20T12:54:13Z</time>
      </trkpt>
      <trkpt lat="62.330888025462627" lon="7.470588963478804">
        <ele>234.22</ele>
        <time>2017-06-20T12:54:14Z</time>
      </trkpt>
      <trkpt lat="62.330890959128737" lon="7.470838995650411">
        <ele>234.22</ele>
        <time>2017-06-20T12:54:15Z</time>
      </trkpt>
      <trkpt lat="62.330890959128737" lon="7.471105959266424">
        <ele>234.69999999999999</ele>
        <time>2017-06-20T12:54:16Z</time>
      </trkpt>
      <trkpt lat="62.330848965793848" lon="7.473229011520743">
        <ele>239.02000000000001</ele>
        <time>2017-06-20T12:54:23Z</time>
      </trkpt>
      <trkpt lat="62.330807978287339" lon="7.473531011492014">
        <ele>239.99000000000001</ele>
        <time>2017-06-20T12:54:24Z</time>
      </trkpt>
      <trkpt lat="62.330758022144437" lon="7.473813984543085">
        <ele>240.94999999999999</ele>
        <time>2017-06-20T12:54:25Z</time>
      </trkpt>
      <trkpt lat="62.330030975863338" lon="7.477034982293844">
        <ele>251.03999999999999</ele>
        <time>2017-06-20T12:54:36Z</time>
      </trkpt>
      <trkpt lat="62.329940032213926" lon="7.477319967001677">
        <ele>252</ele>
        <time>2017-06-20T12:54:37Z</time>
      </trkpt>
      <trkpt lat="62.329823020845652" lon="7.477577961981297">
        <ele>252.96000000000001</ele>
        <time>2017-06-20T12:54:38Z</time>
      </trkpt>
      <trkpt lat="62.329699974507093" lon="7.47782195918262">
        <ele>253.93000000000001</ele>
        <time>2017-06-20T12:54:39Z</time>
      </trkpt>
      <trkpt lat="62.328748963773251" lon="7.47962499037385">
        <ele>260.64999999999998</ele>
        <time>2017-06-20T12:54:47Z</time>
      </trkpt>
      <trkpt lat="62.328687021508813" lon="7.479863958433271">
        <ele>260.64999999999998</ele>
        <time>2017-06-20T12:54:48Z</time>
      </trkpt>
      <trkpt lat="62.32865902595222" lon="7.480122037231922">
        <ele>261.13999999999999</ele>
        <time>2017-06-20T12:54:49Z</time>
      </trkpt>
      <trkpt lat="62.328662965446711" lon="7.480372991412878">
        <ele>261.13999999999999</ele>
        <time>2017-06-20T12:54:50Z</time>
      </trkpt>
      <trkpt lat="62.328704036772251" lon="7.48061497695744">
        <ele>261.62</ele>
        <time>2017-06-20T12:54:51Z</time>
      </trkpt>
      <trkpt lat="62.328760027885437" lon="7.48084899969399">
        <ele>262.10000000000002</ele>
        <time>2017-06-20T12:54:52Z</time>
      </trkpt>
      <trkpt lat="62.3288310226053" lon="7.481077993288636">
        <ele>262.57999999999998</ele>
        <time>2017-06-20T12:54:53Z</time>
      </trkpt>
      <trkpt lat="62.328919032588601" lon="7.481306986883283">
        <ele>263.54000000000002</ele>
        <time>2017-06-20T12:54:54Z</time>
      </trkpt>
      <trkpt lat="62.329011987894773" lon="7.481531035155058">
        <ele>264.01999999999998</ele>
        <time>2017-06-20T12:54:55Z</time>
      </trkpt>
      <trkpt lat="62.329343995079398" lon="7.482421025633812">
        <ele>265.94</ele>
        <time>2017-06-20T12:54:59Z</time>
      </trkpt>
      <trkpt lat="62.329396968707442" lon="7.482656976208091">
        <ele>266.42000000000002</ele>
        <time>2017-06-20T12:55:00Z</time>
      </trkpt>
      <trkpt lat="62.32943401671946" lon="7.482915977016091">
        <ele>266.89999999999998</ele>
        <time>2017-06-20T12:55:01Z</time>
      </trkpt>
      <trkpt lat="62.32964901253581" lon="7.485848972573876">
        <ele>271.70999999999998</ele>
        <time>2017-06-20T12:55:10Z</time>
      </trkpt>
      <trkpt lat="62.329644989222288" lon="7.486549029126763">
        <ele>274.11000000000001</ele>
        <time>2017-06-20T12:55:12Z</time>
      </trkpt>
      <trkpt lat="62.329608025029302" lon="7.486876007169485">
        <ele>275.06999999999999</ele>
        <time>2017-06-20T12:55:13Z</time>
      </trkpt>
      <trkpt lat="62.329552033916116" lon="7.487195022404194">
        <ele>275.56</ele>
        <time>2017-06-20T12:55:14Z</time>
      </trkpt>
      <trkpt lat="62.32947701588273" lon="7.487504985183477">
        <ele>276.04000000000002</ele>
        <time>2017-06-20T12:55:15Z</time>
      </trkpt>
      <trkpt lat="62.329382970929146" lon="7.487797010689974">
        <ele>276.51999999999998</ele>
        <time>2017-06-20T12:55:16Z</time>
      </trkpt>
      <trkpt lat="62.329275012016296" lon="7.488065985962749">
        <ele>277</ele>
        <time>2017-06-20T12:55:17Z</time>
      </trkpt>
      <trkpt lat="62.329150959849358" lon="7.488310988992453">
        <ele>277.95999999999998</ele>
        <time>2017-06-20T12:55:18Z</time>
      </trkpt>
      <trkpt lat="62.329031014814973" lon="7.488534031435847">
        <ele>278.44</ele>
        <time>2017-06-20T12:55:19Z</time>
      </trkpt>
      <trkpt lat="62.328919032588601" lon="7.488726982846856">
        <ele>278.92000000000002</ele>
        <time>2017-06-20T12:55:20Z</time>
      </trkpt>
      <trkpt lat="62.328736977651715" lon="7.489085979759693">
        <ele>279.88</ele>
        <time>2017-06-20T12:55:22Z</time>
      </trkpt>
      <trkpt lat="62.328670006245375" lon="7.489265017211437">
        <ele>279.88</ele>
        <time>2017-06-20T12:55:23Z</time>
      </trkpt>
      <trkpt lat="62.328635975718498" lon="7.489455034956336">
        <ele>280.36000000000001</ele>
        <time>2017-06-20T12:55:24Z</time>
      </trkpt>
      <trkpt lat="62.328632958233356" lon="7.4896589666605">
        <ele>279.39999999999998</ele>
        <time>2017-06-20T12:55:25Z</time>
      </trkpt>
      <trkpt lat="62.328656008467078" lon="7.489862982183695">
        <ele>279.39999999999998</ele>
        <time>2017-06-20T12:55:26Z</time>
      </trkpt>
      <trkpt lat="62.328693978488445" lon="7.490077978000045">
        <ele>279.39999999999998</ele>
        <time>2017-06-20T12:55:27Z</time>
      </trkpt>
      <trkpt lat="62.328753992915154" lon="7.490293979644775">
        <ele>280.36000000000001</ele>
        <time>2017-06-20T12:55:28Z</time>
      </trkpt>
      <trkpt lat="62.328825993463397" lon="7.490503024309874">
        <ele>280.36000000000001</ele>
        <time>2017-06-20T12:55:29Z</time>
      </trkpt>
      <trkpt lat="62.328903023153543" lon="7.490707961842418">
        <ele>280.83999999999997</ele>
        <time>2017-06-20T12:55:30Z</time>
      </trkpt>
      <trkpt lat="62.329030008986592" lon="7.491148011758924">
        <ele>280.83999999999997</ele>
        <time>2017-06-20T12:55:32Z</time>
      </trkpt>
      <trkpt lat="62.329064039513469" lon="7.49139997176826">
        <ele>281.31999999999999</ele>
        <time>2017-06-20T12:55:33Z</time>
      </trkpt>
      <trkpt lat="62.329076025635004" lon="7.491669030860066">
        <ele>281.80000000000001</ele>
        <time>2017-06-20T12:55:34Z</time>
      </trkpt>
      <trkpt lat="62.329062027856708" lon="7.491952003911138">
        <ele>282.76999999999998</ele>
        <time>2017-06-20T12:55:35Z</time>
      </trkpt>
      <trkpt lat="62.329032020643353" lon="7.492241011932492">
        <ele>282.76999999999998</ele>
        <time>2017-06-20T12:55:36Z</time>
      </trkpt>
      <trkpt lat="62.328964965417981" lon="7.493166038766503">
        <ele>285.17000000000002</ele>
        <time>2017-06-20T12:55:39Z</time>
      </trkpt>
      <trkpt lat="62.328965971246362" lon="7.493492010980845">
        <ele>285.64999999999998</ele>
        <time>2017-06-20T12:55:40Z</time>
      </trkpt>
      <trkpt lat="62.3289829865098" lon="7.495155986398459">
        <ele>288.52999999999997</ele>
        <time>2017-06-20T12:55:45Z</time>
      </trkpt>
      <trkpt lat="62.328951973468065" lon="7.495488999411464">
        <ele>289.00999999999999</ele>
        <time>2017-06-20T12:55:46Z</time>
      </trkpt>
      <trkpt lat="62.328907968476415" lon="7.495827963575721">
        <ele>289.97000000000003</ele>
        <time>2017-06-20T12:55:47Z</time>
      </trkpt>
      <trkpt lat="62.328379992395639" lon="7.499527987092733">
        <ele>297.18000000000001</ele>
        <time>2017-06-20T12:55:58Z</time>
      </trkpt>
      <trkpt lat="62.328365994617343" lon="7.499811965972185">
        <ele>297.67000000000002</ele>
        <time>2017-06-20T12:55:59Z</time>
      </trkpt>
      <trkpt lat="62.328374041244388" lon="7.500094017013907">
        <ele>297.67000000000002</ele>
        <time>2017-06-20T12:56:00Z</time>
      </trkpt>
      <trkpt lat="62.328402036800981" lon="7.500369027256966">
        <ele>298.14999999999998</ele>
        <time>2017-06-20T12:56:01Z</time>
      </trkpt>
      <trkpt lat="62.328449981287122" lon="7.500653006136417">
        <ele>298.63</ele>
        <time>2017-06-20T12:56:02Z</time>
      </trkpt>
      <trkpt lat="62.328507984057069" lon="7.500930028036237">
        <ele>299.11000000000001</ele>
        <time>2017-06-20T12:56:03Z</time>
      </trkpt>
      <trkpt lat="62.328572021797299" lon="7.501209983602166">
        <ele>299.58999999999997</ele>
        <time>2017-06-20T12:56:04Z</time>
      </trkpt>
      <trkpt lat="62.328991033136845" lon="7.503875009715557">
        <ele>302.47000000000003</ele>
        <time>2017-06-20T12:56:12Z</time>
      </trkpt>
      <trkpt lat="62.329567037522793" lon="7.506598038598895">
        <ele>303.91000000000003</ele>
        <time>2017-06-20T12:56:20Z</time>
      </trkpt>
      <trkpt lat="62.32977700419724" lon="7.507988009601831">
        <ele>304.88</ele>
        <time>2017-06-20T12:56:24Z</time>
      </trkpt>
      <trkpt lat="62.329853028059006" lon="7.509195003658533">
        <ele>305.83999999999997</ele>
        <time>2017-06-20T12:56:28Z</time>
      </trkpt>
      <trkpt lat="62.329890998080373" lon="7.509446041658521">
        <ele>305.83999999999997</ele>
        <time>2017-06-20T12:56:29Z</time>
      </trkpt>
      <trkpt lat="62.32994900085032" lon="7.509677968919277">
        <ele>305.83999999999997</ele>
        <time>2017-06-20T12:56:30Z</time>
      </trkpt>
      <trkpt lat="62.330030975863338" lon="7.509891036897898">
        <ele>305.83999999999997</ele>
        <time>2017-06-20T12:56:31Z</time>
      </trkpt>
      <trkpt lat="62.330132983624935" lon="7.510094968602061">
        <ele>305.83999999999997</ele>
        <time>2017-06-20T12:56:32Z</time>
      </trkpt>
      <trkpt lat="62.33025100082159" lon="7.510279035195708">
        <ele>305.83999999999997</ele>
        <time>2017-06-20T12:56:33Z</time>
      </trkpt>
      <trkpt lat="62.330373041331768" lon="7.510466035455465">
        <ele>305.83999999999997</ele>
        <time>2017-06-20T12:56:34Z</time>
      </trkpt>
      <trkpt lat="62.330871010199189" lon="7.511371029540896">
        <ele>306.31999999999999</ele>
        <time>2017-06-20T12:56:39Z</time>
      </trkpt>
      <trkpt lat="62.331526977941394" lon="7.513690972700715">
        <ele>307.75999999999999</ele>
        <time>2017-06-20T12:56:48Z</time>
      </trkpt>
      <trkpt lat="62.331565031781793" lon="7.513996995985508">
        <ele>307.75999999999999</ele>
        <time>2017-06-20T12:56:49Z</time>
      </trkpt>
      <trkpt lat="62.331592021510005" lon="7.514308970421553">
        <ele>308.24000000000001</ele>
        <time>2017-06-20T12:56:50Z</time>
      </trkpt>
      <trkpt lat="62.33160400763154" lon="7.514633014798164">
        <ele>308.72000000000003</ele>
        <time>2017-06-20T12:56:51Z</time>
      </trkpt>
      <trkpt lat="62.33164700679481" lon="7.518648030236363">
        <ele>315.44999999999999</ele>
        <time>2017-06-20T12:57:02Z</time>
      </trkpt>
      <trkpt lat="62.331748008728027" lon="7.523375004529953">
        <ele>323.13999999999999</ele>
        <time>2017-06-20T12:57:15Z</time>
      </trkpt>
      <trkpt lat="62.332135001197457" lon="7.525871973484755">
        <ele>325.06</ele>
        <time>2017-06-20T12:57:22Z</time>
      </trkpt>
      <trkpt lat="62.332696001976728" lon="7.528385035693646">
        <ele>327.47000000000003</ele>
        <time>2017-06-20T12:57:29Z</time>
      </trkpt>
      <trkpt lat="62.33272198587656" lon="7.528749983757734">
        <ele>327.94999999999999</ele>
        <time>2017-06-20T12:57:30Z</time>
      </trkpt>
      <trkpt lat="62.332736989483237" lon="7.529118033125997">
        <ele>328.43000000000001</ele>
        <time>2017-06-20T12:57:31Z</time>
      </trkpt>
      <trkpt lat="62.33278401196003" lon="7.530144983902574">
        <ele>328.91000000000003</ele>
        <time>2017-06-20T12:57:34Z</time>
      </trkpt>
      <trkpt lat="62.332821981981397" lon="7.530430974438787">
        <ele>329.38999999999999</ele>
        <time>2017-06-20T12:57:35Z</time>
      </trkpt>
      <trkpt lat="62.332879984751344" lon="7.530688969418407">
        <ele>329.87</ele>
        <time>2017-06-20T12:57:36Z</time>
      </trkpt>
      <trkpt lat="62.33295600861311" lon="7.530929027125239">
        <ele>330.35000000000002</ele>
        <time>2017-06-20T12:57:37Z</time>
      </trkpt>
      <trkpt lat="62.333053993061185" lon="7.531136982142925">
        <ele>330.35000000000002</ele>
        <time>2017-06-20T12:57:38Z</time>
      </trkpt>
      <trkpt lat="62.333165975287557" lon="7.531325994059444">
        <ele>330.82999999999998</ele>
        <time>2017-06-20T12:57:39Z</time>
      </trkpt>
      <trkpt lat="62.333288015797734" lon="7.531504025682807">
        <ele>330.82999999999998</ele>
        <time>2017-06-20T12:57:40Z</time>
      </trkpt>
      <trkpt lat="62.333418019115925" lon="7.531673004850745">
        <ele>331.31</ele>
        <time>2017-06-20T12:57:41Z</time>
      </trkpt>
      <trkpt lat="62.333556991070509" lon="7.531828992068768">
        <ele>331.79000000000002</ele>
        <time>2017-06-20T12:57:42Z</time>
      </trkpt>
      <trkpt lat="62.333950018510222" lon="7.532182037830353">
        <ele>332.26999999999998</ele>
        <time>2017-06-20T12:57:45Z</time>
      </trkpt>
      <trkpt lat="62.334080021828413" lon="7.532227970659733">
        <ele>331.79000000000002</ele>
        <time>2017-06-20T12:57:46Z</time>
      </trkpt>
      <trkpt lat="62.334213964641094" lon="7.532226964831352">
        <ele>332.26999999999998</ele>
        <time>2017-06-20T12:57:47Z</time>
      </trkpt>
      <trkpt lat="62.334644962102175" lon="7.532201986759901">
        <ele>331.79000000000002</ele>
        <time>2017-06-20T12:57:50Z</time>
      </trkpt>
      <trkpt lat="62.334790974855423" lon="7.532256972044706">
        <ele>331.79000000000002</ele>
        <time>2017-06-20T12:57:51Z</time>
      </trkpt>
      <trkpt lat="62.334928018972278" lon="7.532366020604968">
        <ele>331.79000000000002</ele>
        <time>2017-06-20T12:57:52Z</time>
      </trkpt>
      <trkpt lat="62.335048969835043" lon="7.532525025308132">
        <ele>331.31</ele>
        <time>2017-06-20T12:57:53Z</time>
      </trkpt>
      <trkpt lat="62.335160030052066" lon="7.532730968669057">
        <ele>331.79000000000002</ele>
        <time>2017-06-20T12:57:54Z</time>
      </trkpt>
      <trkpt lat="62.335263965651393" lon="7.532973038032651">
        <ele>331.79000000000002</ele>
        <time>2017-06-20T12:57:55Z</time>
      </trkpt>
      <trkpt lat="62.335363039746881" lon="7.533236984163523">
        <ele>331.79000000000002</ele>
        <time>2017-06-20T12:57:56Z</time>
      </trkpt>
      <trkpt lat="62.336822999641299" lon="7.537075979635119">
        <ele>333.23000000000002</ele>
        <time>2017-06-20T12:58:10Z</time>
      </trkpt>
      <trkpt lat="62.338325036689639" lon="7.540442990139127">
        <ele>339.48000000000002</ele>
        <time>2017-06-20T12:58:23Z</time>
      </trkpt>
      <trkpt lat="62.340067969635129" lon="7.542522959411144">
        <ele>342.37</ele>
        <time>2017-06-20T12:58:33Z</time>
      </trkpt>
      <trkpt lat="62.342631993815303" lon="7.54554295912385">
        <ele>346.69</ele>
        <time>2017-06-20T12:58:46Z</time>
      </trkpt>
      <trkpt lat="62.346828980371356" lon="7.550530023872852">
        <ele>352.45999999999998</ele>
        <time>2017-06-20T12:59:06Z</time>
      </trkpt>
      <trkpt lat="62.350581977516413" lon="7.554991040378809">
        <ele>367.36000000000001</ele>
        <time>2017-06-20T12:59:24Z</time>
      </trkpt>
      <trkpt lat="62.353376001119614" lon="7.557862009853125">
        <ele>376.97000000000003</ele>
        <time>2017-06-20T12:59:37Z</time>
      </trkpt>
      <trkpt lat="62.356567997485399" lon="7.5598060246557">
        <ele>385.63</ele>
        <time>2017-06-20T12:59:51Z</time>
      </trkpt>
      <trkpt lat="62.359742978587747" lon="7.560201985761523">
        <ele>396.68000000000001</ele>
        <time>2017-06-20T13:00:05Z</time>
      </trkpt>
      <trkpt lat="62.360961958765984" lon="7.56008799187839">
        <ele>399.56999999999999</ele>
        <time>2017-06-20T13:00:12Z</time>
      </trkpt>
      <trkpt lat="62.362227961421013" lon="7.559825973585248">
        <ele>404.37</ele>
        <time>2017-06-20T13:00:22Z</time>
      </trkpt>
      <trkpt lat="62.363172015175223" lon="7.560127973556519">
        <ele>408.69999999999999</ele>
        <time>2017-06-20T13:00:30Z</time>
      </trkpt>
      <trkpt lat="62.363927979022264" lon="7.560414969921112">
        <ele>413.01999999999998</ele>
        <time>2017-06-20T13:00:36Z</time>
      </trkpt>
      <trkpt lat="62.364043984562159" lon="7.560395020991564">
        <ele>413.98000000000002</ele>
        <time>2017-06-20T13:00:37Z</time>
      </trkpt>
      <trkpt lat="62.36415596678853" lon="7.560342969372869">
        <ele>414.94999999999999</ele>
        <time>2017-06-20T13:00:38Z</time>
      </trkpt>
      <trkpt lat="62.364269960671663" lon="7.560274992138147">
        <ele>415.43000000000001</ele>
        <time>2017-06-20T13:00:39Z</time>
      </trkpt>
      <trkpt lat="62.364384960383177" lon="7.560206009075046">
        <ele>415.91000000000003</ele>
        <time>2017-06-20T13:00:40Z</time>
      </trkpt>
      <trkpt lat="62.364912014454603" lon="7.560039041563869">
        <ele>418.79000000000002</ele>
        <time>2017-06-20T13:00:44Z</time>
      </trkpt>
      <trkpt lat="62.365047968924046" lon="7.560070976614952">
        <ele>419.26999999999998</ele>
        <time>2017-06-20T13:00:45Z</time>
      </trkpt>
      <trkpt lat="62.365187024697661" lon="7.560135014355183">
        <ele>420.23000000000002</ele>
        <time>2017-06-20T13:00:46Z</time>
      </trkpt>
      <trkpt lat="62.366418996825814" lon="7.560662990435958">
        <ele>425.04000000000002</ele>
        <time>2017-06-20T13:00:54Z</time>
      </trkpt>
      <trkpt lat="62.366579007357359" lon="7.560629965737462">
        <ele>425.51999999999998</ele>
        <time>2017-06-20T13:00:55Z</time>
      </trkpt>
      <trkpt lat="62.367056021466851" lon="7.560465009883046">
        <ele>426.95999999999998</ele>
        <time>2017-06-20T13:00:58Z</time>
      </trkpt>
      <trkpt lat="62.367218965664506" lon="7.560460986569524">
        <ele>427.92000000000002</ele>
        <time>2017-06-20T13:00:59Z</time>
      </trkpt>
      <trkpt lat="62.367373025044799" lon="7.560484036803246">
        <ele>428.39999999999998</ele>
        <time>2017-06-20T13:01:00Z</time>
      </trkpt>
      <trkpt lat="62.367529012262821" lon="7.560539022088051">
        <ele>429.37</ele>
        <time>2017-06-20T13:01:01Z</time>
      </trkpt>
      <trkpt lat="62.36767896451056" lon="7.560631977394223">
        <ele>429.85000000000002</ele>
        <time>2017-06-20T13:01:02Z</time>
      </trkpt>
      <trkpt lat="62.367824977263808" lon="7.560754017904401">
        <ele>430.32999999999998</ele>
        <time>2017-06-20T13:01:03Z</time>
      </trkpt>
      <trkpt lat="62.367974007502198" lon="7.560897013172507">
        <ele>431.29000000000002</ele>
        <time>2017-06-20T13:01:04Z</time>
      </trkpt>
      <trkpt lat="62.369736973196268" lon="7.562056984752417">
        <ele>440.89999999999998</ele>
        <time>2017-06-20T13:01:15Z</time>
      </trkpt>
      <trkpt lat="62.371767992153764" lon="7.562754023820162">
        <ele>451.48000000000002</ele>
        <time>2017-06-20T13:01:27Z</time>
      </trkpt>
      <trkpt lat="62.374255992472172" lon="7.563788015395403">
        <ele>465.42000000000002</ele>
        <time>2017-06-20T13:01:41Z</time>
      </trkpt>
      <trkpt lat="62.375774038955569" lon="7.565492978319526">
        <ele>474.06999999999999</ele>
        <time>2017-06-20T13:01:50Z</time>
      </trkpt>
      <trkpt lat="62.377544967457652" lon="7.567301960662007">
        <ele>486.07999999999998</ele>
        <time>2017-06-20T13:02:01Z</time>
      </trkpt>
      <trkpt lat="62.380321975797415" lon="7.570290025323629">
        <ele>497.62</ele>
        <time>2017-06-20T13:02:18Z</time>
      </trkpt>
      <trkpt lat="62.380698993802071" lon="7.570992009714246">
        <ele>500.01999999999998</ele>
        <time>2017-06-20T13:02:21Z</time>
      </trkpt>
      <trkpt lat="62.380784992128611" lon="7.571266014128923">
        <ele>500.01999999999998</ele>
        <time>2017-06-20T13:02:22Z</time>
      </trkpt>
      <trkpt lat="62.380857998505235" lon="7.571557033807039">
        <ele>500.01999999999998</ele>
        <time>2017-06-20T13:02:23Z</time>
      </trkpt>
      <trkpt lat="62.380923964083195" lon="7.571846963837743">
        <ele>500.98000000000002</ele>
        <time>2017-06-20T13:02:24Z</time>
      </trkpt>
      <trkpt lat="62.380981966853142" lon="7.572129014879465">
        <ele>501.45999999999998</ele>
        <time>2017-06-20T13:02:25Z</time>
      </trkpt>
      <trkpt lat="62.381047010421753" lon="7.572357002645731">
        <ele>502.43000000000001</ele>
        <time>2017-06-20T13:02:26Z</time>
      </trkpt>
      <trkpt lat="62.381121022626758" lon="7.572523970156908">
        <ele>503.38999999999999</ele>
        <time>2017-06-20T13:02:27Z</time>
      </trkpt>
      <trkpt lat="62.381202997639775" lon="7.572611980140209">
        <ele>503.87</ele>
        <time>2017-06-20T13:02:28Z</time>
      </trkpt>
      <trkpt lat="62.381287990137935" lon="7.572631007060409">
        <ele>504.35000000000002</ele>
        <time>2017-06-20T13:02:29Z</time>
      </trkpt>
      <trkpt lat="62.38136300817132" lon="7.57263695821166">
        <ele>504.82999999999998</ele>
        <time>2017-06-20T13:02:30Z</time>
      </trkpt>
      <trkpt lat="62.381434002891183" lon="7.572624972090125">
        <ele>504.35000000000002</ele>
        <time>2017-06-20T13:02:31Z</time>
      </trkpt>
      <trkpt lat="62.381676994264126" lon="7.57263402454555">
        <ele>505.79000000000002</ele>
        <time>2017-06-20T13:02:34Z</time>
      </trkpt>
      <trkpt lat="62.381767015904188" lon="7.572682974860072">
        <ele>506.26999999999998</ele>
        <time>2017-06-20T13:02:35Z</time>
      </trkpt>
      <trkpt lat="62.381861982867122" lon="7.572764027863741">
        <ele>507.23000000000002</ele>
        <time>2017-06-20T13:02:36Z</time>
      </trkpt>
      <trkpt lat="62.382274037227035" lon="7.57332100532949">
        <ele>510.12</ele>
        <time>2017-06-20T13:02:40Z</time>
      </trkpt>
      <trkpt lat="62.382366992533207" lon="7.573511023074389">
        <ele>511.07999999999998</ele>
        <time>2017-06-20T13:02:41Z</time>
      </trkpt>
      <trkpt lat="62.382457014173269" lon="7.573735993355513">
        <ele>511.07999999999998</ele>
        <time>2017-06-20T13:02:42Z</time>
      </trkpt>
      <trkpt lat="62.383359996601939" lon="7.575738010928035">
        <ele>520.21000000000004</ele>
        <time>2017-06-20T13:02:51Z</time>
      </trkpt>
      <trkpt lat="62.384064998477697" lon="7.577074002474546">
        <ele>524.53999999999996</ele>
        <time>2017-06-20T13:03:00Z</time>
      </trkpt>
      <trkpt lat="62.384088970720768" lon="7.577090011909604">
        <ele>525.01999999999998</ele>
        <time>2017-06-20T13:03:01Z</time>
      </trkpt>
      <trkpt lat="62.384109003469348" lon="7.577093029394746">
        <ele>525.5</ele>
        <time>2017-06-20T13:03:02Z</time>
      </trkpt>
      <trkpt lat="62.384129036217928" lon="7.577080959454179">
        <ele>525.5</ele>
        <time>2017-06-20T13:03:03Z</time>
      </trkpt>
      <trkpt lat="62.384152002632618" lon="7.577062016353011">
        <ele>525.5</ele>
        <time>2017-06-20T13:03:04Z</time>
      </trkpt>
      <trkpt lat="62.384170023724437" lon="7.577040977776051">
        <ele>525.5</ele>
        <time>2017-06-20T13:03:05Z</time>
      </trkpt>
      <trkpt lat="62.384189972653985" lon="7.577020023018122">
        <ele>525.01999999999998</ele>
        <time>2017-06-20T13:03:06Z</time>
      </trkpt>
      <trkpt lat="62.384305978193879" lon="7.576844003051519">
        <ele>525.98000000000002</ele>
        <time>2017-06-20T13:03:13Z</time>
      </trkpt>
      <trkpt lat="62.384313018992543" lon="7.576661026105285">
        <ele>525.98000000000002</ele>
        <time>2017-06-20T13:03:18Z</time>
      </trkpt>
      <trkpt lat="62.384246969595551" lon="7.576647028326988">
        <ele>525.01999999999998</ele>
        <time>2017-06-20T13:03:37Z</time>
      </trkpt>
      <trkpt lat="62.384245041757822" lon="7.576651973649859">
        <ele>525.5</ele>
        <time>2017-06-20T13:05:06Z</time>
      </trkpt>
      <trkpt lat="62.384245041757822" lon="7.576650967821479">
        <ele>525.5</ele>
        <time>2017-06-20T13:07:05Z</time>
      </trkpt>
      <trkpt lat="62.384243030101061" lon="7.576649039983749">
        <ele>525.5</ele>
        <time>2017-06-20T13:09:01Z</time>
      </trkpt>
      <trkpt lat="62.384238000959158" lon="7.576645016670227">
        <ele>525.5</ele>
        <time>2017-06-20T13:10:44Z</time>
      </trkpt>
      <trkpt lat="62.384236995130777" lon="7.576647028326988">
        <ele>525.5</ele>
        <time>2017-06-20T13:12:35Z</time>
      </trkpt>
      <trkpt lat="62.384234983474016" lon="7.576644010841847">
        <ele>525.01999999999998</ele>
        <time>2017-06-20T13:14:30Z</time>
      </trkpt>
      <trkpt lat="62.384233977645636" lon="7.576641999185085">
        <ele>525.01999999999998</ele>
        <time>2017-06-20T13:16:14Z</time>
      </trkpt>
      <trkpt lat="62.384233977645636" lon="7.576640993356705">
        <ele>525.01999999999998</ele>
        <time>2017-06-20T13:16:19Z</time>
      </trkpt>
      <trkpt lat="62.384120989590883" lon="7.57697400636971">
        <ele>525.98000000000002</ele>
        <time>2017-06-20T13:16:25Z</time>
      </trkpt>
      <trkpt lat="62.384147979319096" lon="7.577111972495914">
        <ele>526.46000000000004</ele>
        <time>2017-06-20T13:16:27Z</time>
      </trkpt>
      <trkpt lat="62.38417899236083" lon="7.577193025499582">
        <ele>526.46000000000004</ele>
        <time>2017-06-20T13:16:28Z</time>
      </trkpt>
      <trkpt lat="62.384633040055633" lon="7.578073963522911">
        <ele>527.89999999999998</ele>
        <time>2017-06-20T13:16:37Z</time>
      </trkpt>
      <trkpt lat="62.385397972539067" lon="7.579050958156586">
        <ele>531.26999999999998</ele>
        <time>2017-06-20T13:16:45Z</time>
      </trkpt>
      <trkpt lat="62.386763971298933" lon="7.580081010237336">
        <ele>539.44000000000005</ele>
        <time>2017-06-20T13:16:55Z</time>
      </trkpt>
      <trkpt lat="62.387964008376002" lon="7.581132017076016">
        <ele>550.49000000000001</ele>
        <time>2017-06-20T13:17:04Z</time>
      </trkpt>
      <trkpt lat="62.388672027736902" lon="7.58298902772367">
        <ele>560.59000000000003</ele>
        <time>2017-06-20T13:17:11Z</time>
      </trkpt>
      <trkpt lat="62.38903496414423" lon="7.584372041746974">
        <ele>565.38999999999999</ele>
        <time>2017-06-20T13:17:15Z</time>
      </trkpt>
      <trkpt lat="62.38909799605608" lon="7.584745036438108">
        <ele>566.35000000000002</ele>
        <time>2017-06-20T13:17:16Z</time>
      </trkpt>
      <trkpt lat="62.389296982437372" lon="7.585829989984632">
        <ele>569.24000000000001</ele>
        <time>2017-06-20T13:17:19Z</time>
      </trkpt>
      <trkpt lat="62.389393039047718" lon="7.586154034361243">
        <ele>569.72000000000003</ele>
        <time>2017-06-20T13:17:20Z</time>
      </trkpt>
      <trkpt lat="62.389498986303806" lon="7.586466008797288">
        <ele>570.67999999999995</ele>
        <time>2017-06-20T13:17:21Z</time>
      </trkpt>
      <trkpt lat="62.390394005924463" lon="7.589881969615817">
        <ele>579.33000000000004</ele>
        <time>2017-06-20T13:17:31Z</time>
      </trkpt>
      <trkpt lat="62.391002029180527" lon="7.592827035114169">
        <ele>587.5</ele>
        <time>2017-06-20T13:17:39Z</time>
      </trkpt>
      <trkpt lat="62.391110993921757" lon="7.593076983466744">
        <ele>588.46000000000004</ele>
        <time>2017-06-20T13:17:40Z</time>
      </trkpt>
      <trkpt lat="62.391235968098044" lon="7.593316035345197">
        <ele>589.90999999999997</ele>
        <time>2017-06-20T13:17:41Z</time>
      </trkpt>
      <trkpt lat="62.39208597689867" lon="7.594727966934443">
        <ele>596.14999999999998</ele>
        <time>2017-06-20T13:17:47Z</time>
      </trkpt>
      <trkpt lat="62.392239030450583" lon="7.594909016042948">
        <ele>597.12</ele>
        <time>2017-06-20T13:17:48Z</time>
      </trkpt>
      <trkpt lat="62.393443007022142" lon="7.596623031422496">
        <ele>605.76999999999998</ele>
        <time>2017-06-20T13:17:56Z</time>
      </trkpt>
      <trkpt lat="62.394837001338601" lon="7.59921396151185">
        <ele>614.41999999999996</ele>
        <time>2017-06-20T13:18:05Z</time>
      </trkpt>
      <trkpt lat="62.395118968561292" lon="7.599737998098135">
        <ele>616.82000000000005</ele>
        <time>2017-06-20T13:18:07Z</time>
      </trkpt>
      <trkpt lat="62.39524302072823" lon="7.600032035261393">
        <ele>617.29999999999995</ele>
        <time>2017-06-20T13:18:08Z</time>
      </trkpt>
      <trkpt lat="62.395493974909186" lon="7.600620025768876">
        <ele>619.71000000000004</ele>
        <time>2017-06-20T13:18:10Z</time>
      </trkpt>
      <trkpt lat="62.395632024854422" lon="7.60086796246469">
        <ele>621.14999999999998</ele>
        <time>2017-06-20T13:18:11Z</time>
      </trkpt>
      <trkpt lat="62.395779965445399" lon="7.601088993251324">
        <ele>622.59000000000003</ele>
        <time>2017-06-20T13:18:12Z</time>
      </trkpt>
      <trkpt lat="62.39668202586472" lon="7.602966958656907">
        <ele>626.44000000000005</ele>
        <time>2017-06-20T13:18:19Z</time>
      </trkpt>
      <trkpt lat="62.396771041676402" lon="7.603299971669912">
        <ele>626.91999999999996</ele>
        <time>2017-06-20T13:18:20Z</time>
      </trkpt>
      <trkpt lat="62.397512001916766" lon="7.606082009151578">
        <ele>633.64999999999998</ele>
        <time>2017-06-20T13:18:28Z</time>
      </trkpt>
      <trkpt lat="62.3976069688797" lon="7.606335980817676">
        <ele>634.61000000000001</ele>
        <time>2017-06-20T13:18:29Z</time>
      </trkpt>
      <trkpt lat="62.397710988298059" lon="7.606565980240703">
        <ele>635.09000000000003</ele>
        <time>2017-06-20T13:18:30Z</time>
      </trkpt>
      <trkpt lat="62.397894971072674" lon="7.606965964660049">
        <ele>636.52999999999997</ele>
        <time>2017-06-20T13:18:32Z</time>
      </trkpt>
      <trkpt lat="62.397969989106059" lon="7.607188001275063">
        <ele>637.00999999999999</ele>
        <time>2017-06-20T13:18:33Z</time>
      </trkpt>
      <trkpt lat="62.39803796634078" lon="7.607442978769541">
        <ele>637.49000000000001</ele>
        <time>2017-06-20T13:18:34Z</time>
      </trkpt>
      <trkpt lat="62.398595027625561" lon="7.61010498739779">
        <ele>644.70000000000005</ele>
        <time>2017-06-20T13:18:42Z</time>
      </trkpt>
      <trkpt lat="62.399138007313013" lon="7.612563986331224">
        <ele>649.99000000000001</ele>
        <time>2017-06-20T13:18:49Z</time>
      </trkpt>
      <trkpt lat="62.39923900924623" lon="7.61281100101769">
        <ele>650.47000000000003</ele>
        <time>2017-06-20T13:18:50Z</time>
      </trkpt>
      <trkpt lat="62.399358032271266" lon="7.613020967692137">
        <ele>650.47000000000003</ele>
        <time>2017-06-20T13:18:51Z</time>
      </trkpt>
      <trkpt lat="62.399989021942019" lon="7.614007014781237">
        <ele>651.90999999999997</ele>
        <time>2017-06-20T13:18:56Z</time>
      </trkpt>
      <trkpt lat="62.400092035531998" lon="7.614267021417618">
        <ele>651.90999999999997</ele>
        <time>2017-06-20T13:18:57Z</time>
      </trkpt>
      <trkpt lat="62.400190019980073" lon="7.614559968933463">
        <ele>651.90999999999997</ele>
        <time>2017-06-20T13:18:58Z</time>
      </trkpt>
      <trkpt lat="62.401292994618416" lon="7.617063978686929">
        <ele>656.72000000000003</ele>
        <time>2017-06-20T13:19:07Z</time>
      </trkpt>
      <trkpt lat="62.402409967035055" lon="7.618841025978327">
        <ele>659.12</ele>
        <time>2017-06-20T13:19:15Z</time>
      </trkpt>
      <trkpt lat="62.402556985616684" lon="7.618986032903194">
        <ele>659.12</ele>
        <time>2017-06-20T13:19:16Z</time>
      </trkpt>
      <trkpt lat="62.402702998369932" lon="7.619100026786327">
        <ele>659.12</ele>
        <time>2017-06-20T13:19:17Z</time>
      </trkpt>
      <trkpt lat="62.40284901112318" lon="7.619183007627726">
        <ele>659.60000000000002</ele>
        <time>2017-06-20T13:19:18Z</time>
      </trkpt>
      <trkpt lat="62.402992006391287" lon="7.619241010397673">
        <ele>659.60000000000002</ele>
        <time>2017-06-20T13:19:19Z</time>
      </trkpt>
      <trkpt lat="62.403242038562894" lon="7.619400015100837">
        <ele>660.55999999999995</ele>
        <time>2017-06-20T13:19:21Z</time>
      </trkpt>
      <trkpt lat="62.403345974162221" lon="7.619516020640731">
        <ele>661.51999999999998</ele>
        <time>2017-06-20T13:19:22Z</time>
      </trkpt>
      <trkpt lat="62.403435995802283" lon="7.619658010080457">
        <ele>662.97000000000003</ele>
        <time>2017-06-20T13:19:23Z</time>
      </trkpt>
      <trkpt lat="62.403511013835669" lon="7.619846016168594">
        <ele>663.92999999999995</ele>
        <time>2017-06-20T13:19:24Z</time>
      </trkpt>
      <trkpt lat="62.403581002727151" lon="7.620061011984944">
        <ele>665.37</ele>
        <time>2017-06-20T13:19:25Z</time>
      </trkpt>
      <trkpt lat="62.403653003275394" lon="7.620281958952546">
        <ele>666.33000000000004</ele>
        <time>2017-06-20T13:19:26Z</time>
      </trkpt>
      <trkpt lat="62.404143009334803" lon="7.621748959645629">
        <ele>673.53999999999996</ele>
        <time>2017-06-20T13:19:32Z</time>
      </trkpt>
      <trkpt lat="62.404247028753161" lon="7.621978959068656">
        <ele>674.98000000000002</ele>
        <time>2017-06-20T13:19:33Z</time>
      </trkpt>
      <trkpt lat="62.405367018654943" lon="7.624378027394414">
        <ele>687.48000000000002</ele>
        <time>2017-06-20T13:19:43Z</time>
      </trkpt>
      <trkpt lat="62.406729999929667" lon="7.626679027453065">
        <ele>701.89999999999998</ele>
        <time>2017-06-20T13:19:54Z</time>
      </trkpt>
      <trkpt lat="62.406831001862884" lon="7.626956971362233">
        <ele>703.82000000000005</ele>
        <time>2017-06-20T13:19:55Z</time>
      </trkpt>
      <trkpt lat="62.406920017674565" lon="7.627255031839013">
        <ele>705.25999999999999</ele>
        <time>2017-06-20T13:19:56Z</time>
      </trkpt>
      <trkpt lat="62.407686961814761" lon="7.630464965477586">
        <ele>715.84000000000003</ele>
        <time>2017-06-20T13:20:07Z</time>
      </trkpt>
      <trkpt lat="62.407760974019766" lon="7.630732012912631">
        <ele>716.32000000000005</ele>
        <time>2017-06-20T13:20:08Z</time>
      </trkpt>
      <trkpt lat="62.407846972346306" lon="7.630976010113955">
        <ele>716.32000000000005</ele>
        <time>2017-06-20T13:20:09Z</time>
      </trkpt>
      <trkpt lat="62.407945040613413" lon="7.63120299205184">
        <ele>716.32000000000005</ele>
        <time>2017-06-20T13:20:10Z</time>
      </trkpt>
      <trkpt lat="62.408051993697882" lon="7.631412958726287">
        <ele>716.79999999999995</ele>
        <time>2017-06-20T13:20:11Z</time>
      </trkpt>
      <trkpt lat="62.408169005066156" lon="7.63161102309823">
        <ele>717.27999999999997</ele>
        <time>2017-06-20T13:20:12Z</time>
      </trkpt>
      <trkpt lat="62.408290039747953" lon="7.631791988387704">
        <ele>718.24000000000001</ele>
        <time>2017-06-20T13:20:13Z</time>
      </trkpt>
      <trkpt lat="62.40841400809586" lon="7.631973037496209">
        <ele>718.72000000000003</ele>
        <time>2017-06-20T13:20:14Z</time>
      </trkpt>
      <trkpt lat="62.410484002903104" lon="7.634716015309095">
        <ele>720.15999999999997</ele>
        <time>2017-06-20T13:20:29Z</time>
      </trkpt>
      <trkpt lat="62.41150701418519" lon="7.635786971077323">
        <ele>720.64999999999998</ele>
        <time>2017-06-20T13:20:36Z</time>
      </trkpt>
      <trkpt lat="62.411666018888354" lon="7.635850002989173">
        <ele>720.64999999999998</ele>
        <time>2017-06-20T13:20:37Z</time>
      </trkpt>
      <trkpt lat="62.413864005357027" lon="7.636461965739727">
        <ele>716.79999999999995</ele>
        <time>2017-06-20T13:20:50Z</time>
      </trkpt>
      <trkpt lat="62.414024015888572" lon="7.636596998199821">
        <ele>716.79999999999995</ele>
        <time>2017-06-20T13:20:51Z</time>
      </trkpt>
      <trkpt lat="62.414177991449833" lon="7.636763965710998">
        <ele>717.27999999999997</ele>
        <time>2017-06-20T13:20:52Z</time>
      </trkpt>
      <trkpt lat="62.41576200351119" lon="7.638982990756631">
        <ele>716.79999999999995</ele>
        <time>2017-06-20T13:21:02Z</time>
      </trkpt>
      <trkpt lat="62.417614990845323" lon="7.64173099771142">
        <ele>716.32000000000005</ele>
        <time>2017-06-20T13:21:14Z</time>
      </trkpt>
      <trkpt lat="62.419953038915992" lon="7.646204000338912">
        <ele>721.61000000000001</ele>
        <time>2017-06-20T13:21:29Z</time>
      </trkpt>
      <trkpt lat="62.421857994049788" lon="7.649961020797491">
        <ele>741.30999999999995</ele>
        <time>2017-06-20T13:21:43Z</time>
      </trkpt>
      <trkpt lat="62.421944998204708" lon="7.650262014940381">
        <ele>743.24000000000001</ele>
        <time>2017-06-20T13:21:44Z</time>
      </trkpt>
      <trkpt lat="62.422385970130563" lon="7.65219203196466">
        <ele>751.40999999999997</ele>
        <time>2017-06-20T13:21:50Z</time>
      </trkpt>
      <trkpt lat="62.42248697206378" lon="7.652471987530589">
        <ele>752.85000000000002</ele>
        <time>2017-06-20T13:21:51Z</time>
      </trkpt>
      <trkpt lat="62.422600965946913" lon="7.652738029137254">
        <ele>754.28999999999996</ele>
        <time>2017-06-20T13:21:52Z</time>
      </trkpt>
      <trkpt lat="62.423289036378264" lon="7.654291028156877">
        <ele>762.94000000000005</ele>
        <time>2017-06-20T13:21:58Z</time>
      </trkpt>
      <trkpt lat="62.423373023048043" lon="7.654584981501102">
        <ele>764.87</ele>
        <time>2017-06-20T13:21:59Z</time>
      </trkpt>
      <trkpt lat="62.423439994454384" lon="7.654893016442657">
        <ele>766.30999999999995</ele>
        <time>2017-06-20T13:22:00Z</time>
      </trkpt>
      <trkpt lat="62.423568991944194" lon="7.655467009171844">
        <ele>769.19000000000005</ele>
        <time>2017-06-20T13:22:02Z</time>
      </trkpt>
      <trkpt lat="62.423652978613973" lon="7.655719975009561">
        <ele>770.63</ele>
        <time>2017-06-20T13:22:03Z</time>
      </trkpt>
      <trkpt lat="62.423750963062048" lon="7.655949974432588">
        <ele>772.08000000000004</ele>
        <time>2017-06-20T13:22:04Z</time>
      </trkpt>
      <trkpt lat="62.42386001162231" lon="7.656158013269305">
        <ele>773.51999999999998</ele>
        <time>2017-06-20T13:22:05Z</time>
      </trkpt>
      <trkpt lat="62.423974005505443" lon="7.656349036842585">
        <ele>774.96000000000004</ele>
        <time>2017-06-20T13:22:06Z</time>
      </trkpt>
      <trkpt lat="62.425036998465657" lon="7.657411023974419">
        <ele>785.04999999999995</ele>
        <time>2017-06-20T13:22:14Z</time>
      </trkpt>
      <trkpt lat="62.425175970420241" lon="7.65745997428894">
        <ele>786.01999999999998</ele>
        <time>2017-06-20T13:22:15Z</time>
      </trkpt>
      <trkpt lat="62.425312008708715" lon="7.65748000703752">
        <ele>787.46000000000004</ele>
        <time>2017-06-20T13:22:16Z</time>
      </trkpt>
      <trkpt lat="62.425447963178158" lon="7.657455028966069">
        <ele>788.89999999999998</ele>
        <time>2017-06-20T13:22:17Z</time>
      </trkpt>
      <trkpt lat="62.425584001466632" lon="7.657386967912316">
        <ele>790.34000000000003</ele>
        <time>2017-06-20T13:22:18Z</time>
      </trkpt>
      <trkpt lat="62.425712998956442" lon="7.657283032312989">
        <ele>791.29999999999995</ele>
        <time>2017-06-20T13:22:19Z</time>
      </trkpt>
      <trkpt lat="62.425836967304349" lon="7.657151017338038">
        <ele>792.74000000000001</ele>
        <time>2017-06-20T13:22:20Z</time>
      </trkpt>
      <trkpt lat="62.425956996157765" lon="7.656986983492971">
        <ele>794.66999999999996</ele>
        <time>2017-06-20T13:22:21Z</time>
      </trkpt>
      <trkpt lat="62.426062021404505" lon="7.656812975183129">
        <ele>795.63</ele>
        <time>2017-06-20T13:22:22Z</time>
      </trkpt>
      <trkpt lat="62.426140978932381" lon="7.656618012115359">
        <ele>796.59000000000003</ele>
        <time>2017-06-20T13:22:23Z</time>
      </trkpt>
      <trkpt lat="62.426210967823863" lon="7.656424976885319">
        <ele>797.54999999999995</ele>
        <time>2017-06-20T13:22:24Z</time>
      </trkpt>
      <trkpt lat="62.426264025270939" lon="7.656216016039252">
        <ele>798.50999999999999</ele>
        <time>2017-06-20T13:22:25Z</time>
      </trkpt>
      <trkpt lat="62.426315993070602" lon="7.656002026051283">
        <ele>799.95000000000005</ele>
        <time>2017-06-20T13:22:26Z</time>
      </trkpt>
      <trkpt lat="62.426497964188457" lon="7.655324013903737">
        <ele>802.84000000000003</ele>
        <time>2017-06-20T13:22:30Z</time>
      </trkpt>
      <trkpt lat="62.426553033292294" lon="7.655214965343475">
        <ele>803.79999999999995</ele>
        <time>2017-06-20T13:22:31Z</time>
      </trkpt>
      <trkpt lat="62.426623022183776" lon="7.655141958966851">
        <ele>804.75999999999999</ele>
        <time>2017-06-20T13:22:32Z</time>
      </trkpt>
      <trkpt lat="62.42669896222651" lon="7.655129972845316">
        <ele>805.72000000000003</ele>
        <time>2017-06-20T13:22:33Z</time>
      </trkpt>
      <trkpt lat="62.426770962774754" lon="7.655193004757166">
        <ele>806.67999999999995</ele>
        <time>2017-06-20T13:22:34Z</time>
      </trkpt>
      <trkpt lat="62.426830977201462" lon="7.655316973105073">
        <ele>807.15999999999997</ele>
        <time>2017-06-20T13:22:35Z</time>
      </trkpt>
      <trkpt lat="62.426879005506635" lon="7.655495004728437">
        <ele>808.61000000000001</ele>
        <time>2017-06-20T13:22:36Z</time>
      </trkpt>
      <trkpt lat="62.426918987184763" lon="7.65569600276649">
        <ele>809.09000000000003</ele>
        <time>2017-06-20T13:22:37Z</time>
      </trkpt>
      <trkpt lat="62.426962992176414" lon="7.65589096583426">
        <ele>810.52999999999997</ele>
        <time>2017-06-20T13:22:38Z</time>
      </trkpt>
      <trkpt lat="62.427009008824825" lon="7.656071009114385">
        <ele>811.49000000000001</ele>
        <time>2017-06-20T13:22:39Z</time>
      </trkpt>
      <trkpt lat="62.427058964967728" lon="7.656226996332407">
        <ele>811.97000000000003</ele>
        <time>2017-06-20T13:22:40Z</time>
      </trkpt>
      <trkpt lat="62.427114034071565" lon="7.656369991600514">
        <ele>812.92999999999995</ele>
        <time>2017-06-20T13:22:41Z</time>
      </trkpt>
      <trkpt lat="62.427178993821144" lon="7.656505024060607">
        <ele>813.40999999999997</ele>
        <time>2017-06-20T13:22:42Z</time>
      </trkpt>
      <trkpt lat="62.427258035168052" lon="7.656622035428882">
        <ele>814.37</ele>
        <time>2017-06-20T13:22:43Z</time>
      </trkpt>
      <trkpt lat="62.427346967160702" lon="7.656720019876957">
        <ele>814.85000000000002</ele>
        <time>2017-06-20T13:22:44Z</time>
      </trkpt>
      <trkpt lat="62.427440006285906" lon="7.656799983233213">
        <ele>815.34000000000003</ele>
        <time>2017-06-20T13:22:45Z</time>
      </trkpt>
      <trkpt lat="62.42753597907722" lon="7.656859997659922">
        <ele>816.29999999999995</ele>
        <time>2017-06-20T13:22:46Z</time>
      </trkpt>
      <trkpt lat="62.427633963525295" lon="7.656912971287966">
        <ele>817.25999999999999</ele>
        <time>2017-06-20T13:22:47Z</time>
      </trkpt>
      <trkpt lat="62.428035959601402" lon="7.657040962949395">
        <ele>819.65999999999997</ele>
        <time>2017-06-20T13:22:51Z</time>
      </trkpt>
      <trkpt lat="62.428138973191381" lon="7.657008022069931">
        <ele>820.62</ele>
        <time>2017-06-20T13:22:52Z</time>
      </trkpt>
      <trkpt lat="62.4282450042665" lon="7.656936021521688">
        <ele>822.54999999999995</ele>
        <time>2017-06-20T13:22:53Z</time>
      </trkpt>
      <trkpt lat="62.428342988714576" lon="7.656836025416851">
        <ele>823.50999999999999</ele>
        <time>2017-06-20T13:22:54Z</time>
      </trkpt>
      <trkpt lat="62.428433010354638" lon="7.656725971028209">
        <ele>824.95000000000005</ele>
        <time>2017-06-20T13:22:55Z</time>
      </trkpt>
      <trkpt lat="62.428671978414059" lon="7.656475016847253">
        <ele>826.87</ele>
        <time>2017-06-20T13:22:58Z</time>
      </trkpt>
      <trkpt lat="62.428763005882502" lon="7.656429000198841">
        <ele>827.83000000000004</ele>
        <time>2017-06-20T13:22:59Z</time>
      </trkpt>
      <trkpt lat="62.428863001987338" lon="7.656424976885319">
        <ele>829.26999999999998</ele>
        <time>2017-06-20T13:23:00Z</time>
      </trkpt>
      <trkpt lat="62.428967021405697" lon="7.656456995755434">
        <ele>830.24000000000001</ele>
        <time>2017-06-20T13:23:01Z</time>
      </trkpt>
      <trkpt lat="62.429074980318546" lon="7.656523967161775">
        <ele>831.20000000000005</ele>
        <time>2017-06-20T13:23:02Z</time>
      </trkpt>
      <trkpt lat="62.429183023050427" lon="7.656618012115359">
        <ele>832.63999999999999</ele>
        <time>2017-06-20T13:23:03Z</time>
      </trkpt>
      <trkpt lat="62.430140990763903" lon="7.657384034246206">
        <ele>842.73000000000002</ele>
        <time>2017-06-20T13:23:11Z</time>
      </trkpt>
      <trkpt lat="62.430259007960558" lon="7.657397026196122">
        <ele>844.17999999999995</ele>
        <time>2017-06-20T13:23:12Z</time>
      </trkpt>
      <trkpt lat="62.430375013500452" lon="7.657365007326007">
        <ele>845.13999999999999</ele>
        <time>2017-06-20T13:23:13Z</time>
      </trkpt>
      <trkpt lat="62.430489007383585" lon="7.657281020656228">
        <ele>846.58000000000004</ele>
        <time>2017-06-20T13:23:14Z</time>
      </trkpt>
      <trkpt lat="62.430595038458705" lon="7.65715797431767">
        <ele>848.01999999999998</ele>
        <time>2017-06-20T13:23:15Z</time>
      </trkpt>
      <trkpt lat="62.430688999593258" lon="7.65700601041317">
        <ele>848.98000000000002</ele>
        <time>2017-06-20T13:23:16Z</time>
      </trkpt>
      <trkpt lat="62.430777009576559" lon="7.656832002103329">
        <ele>850.41999999999996</ele>
        <time>2017-06-20T13:23:17Z</time>
      </trkpt>
      <trkpt lat="62.430965015664697" lon="7.656507035717368">
        <ele>852.83000000000004</ele>
        <time>2017-06-20T13:23:19Z</time>
      </trkpt>
      <trkpt lat="62.431072974577546" lon="7.656390024349093">
        <ele>853.78999999999996</ele>
        <time>2017-06-20T13:23:20Z</time>
      </trkpt>
      <trkpt lat="62.431189985945821" lon="7.656316012144089">
        <ele>854.75</ele>
        <time>2017-06-20T13:23:21Z</time>
      </trkpt>
      <trkpt lat="62.431312026455998" lon="7.656291034072638">
        <ele>856.19000000000005</ele>
        <time>2017-06-20T13:23:22Z</time>
      </trkpt>
      <trkpt lat="62.431431971490383" lon="7.656307965517044">
        <ele>857.14999999999998</ele>
        <time>2017-06-20T13:23:23Z</time>
      </trkpt>
      <trkpt lat="62.431545965373516" lon="7.656378038227558">
        <ele>858.59000000000003</ele>
        <time>2017-06-20T13:23:24Z</time>
      </trkpt>
      <trkpt lat="62.43166096508503" lon="7.656483985483646">
        <ele>859.55999999999995</ele>
        <time>2017-06-20T13:23:25Z</time>
      </trkpt>
      <trkpt lat="62.431777976453304" lon="7.656621029600501">
        <ele>860.51999999999998</ele>
        <time>2017-06-20T13:23:26Z</time>
      </trkpt>
      <trkpt lat="62.431894987821579" lon="7.656765030696988">
        <ele>861.96000000000004</ele>
        <time>2017-06-20T13:23:27Z</time>
      </trkpt>
      <trkpt lat="62.432661009952426" lon="7.657612022012472">
        <ele>865.32000000000005</ele>
        <time>2017-06-20T13:23:35Z</time>
      </trkpt>
      <trkpt lat="62.433759961277246" lon="7.658109990879893">
        <ele>857.14999999999998</ele>
        <time>2017-06-20T13:23:46Z</time>
      </trkpt>
      <trkpt lat="62.434235969558358" lon="7.658693036064506">
        <ele>852.83000000000004</ele>
        <time>2017-06-20T13:23:51Z</time>
      </trkpt>
      <trkpt lat="62.434320962056518" lon="7.658865032717586">
        <ele>851.87</ele>
        <time>2017-06-20T13:23:52Z</time>
      </trkpt>
      <trkpt lat="62.434400003403425" lon="7.659041974693537">
        <ele>850.41999999999996</ele>
        <time>2017-06-20T13:23:53Z</time>
      </trkpt>
      <trkpt lat="62.434766041114926" lon="7.659914027899504">
        <ele>845.62</ele>
        <time>2017-06-20T13:23:58Z</time>
      </trkpt>
      <trkpt lat="62.434847010299563" lon="7.660045959055424">
        <ele>844.17999999999995</ele>
        <time>2017-06-20T13:23:59Z</time>
      </trkpt>
      <trkpt lat="62.434930996969342" lon="7.660152995958924">
        <ele>843.69000000000005</ele>
        <time>2017-06-20T13:24:00Z</time>
      </trkpt>
      <trkpt lat="62.435018001124263" lon="7.660232037305832">
        <ele>842.73000000000002</ele>
        <time>2017-06-20T13:24:01Z</time>
      </trkpt>
      <trkpt lat="62.435109028592706" lon="7.660282999277115">
        <ele>841.76999999999998</ele>
        <time>2017-06-20T13:24:02Z</time>
      </trkpt>
      <trkpt lat="62.435195026919246" lon="7.660320969298482">
        <ele>841.28999999999996</ele>
        <time>2017-06-20T13:24:03Z</time>
      </trkpt>
      <trkpt lat="62.435279013589025" lon="7.660341002047062">
        <ele>840.33000000000004</ele>
        <time>2017-06-20T13:24:04Z</time>
      </trkpt>
      <trkpt lat="62.435360988602042" lon="7.660353993996978">
        <ele>839.85000000000002</ele>
        <time>2017-06-20T13:24:05Z</time>
      </trkpt>
      <trkpt lat="62.435456039384007" lon="7.660334967076778">
        <ele>838.88999999999999</ele>
        <time>2017-06-20T13:24:06Z</time>
      </trkpt>
      <trkpt lat="62.435563998296857" lon="7.660298002883792">
        <ele>837.92999999999995</ele>
        <time>2017-06-20T13:24:07Z</time>
      </trkpt>
      <trkpt lat="62.435676986351609" lon="7.660234970971942">
        <ele>836.96000000000004</ele>
        <time>2017-06-20T13:24:08Z</time>
      </trkpt>
      <trkpt lat="62.436148971319199" lon="7.659977981820703">
        <ele>833.12</ele>
        <time>2017-06-20T13:24:12Z</time>
      </trkpt>
      <trkpt lat="62.436250979080796" lon="7.659969013184309">
        <ele>831.67999999999995</ele>
        <time>2017-06-20T13:24:13Z</time>
      </trkpt>
      <trkpt lat="62.436358015984297" lon="7.659994997084141">
        <ele>830.72000000000003</ele>
        <time>2017-06-20T13:24:14Z</time>
      </trkpt>
      <trkpt lat="62.436450971290469" lon="7.660063980147243">
        <ele>828.78999999999996</ele>
        <time>2017-06-20T13:24:15Z</time>
      </trkpt>
      <trkpt lat="62.436549039557576" lon="7.660151990130544">
        <ele>828.30999999999995</ele>
        <time>2017-06-20T13:24:16Z</time>
      </trkpt>
      <trkpt lat="62.436650041490793" lon="7.660258021205664">
        <ele>827.83000000000004</ele>
        <time>2017-06-20T13:24:17Z</time>
      </trkpt>
      <trkpt lat="62.437134012579918" lon="7.660776022821665">
        <ele>823.99000000000001</ele>
        <time>2017-06-20T13:24:22Z</time>
      </trkpt>
      <trkpt lat="62.437227973714471" lon="7.660806030035019">
        <ele>823.50999999999999</ele>
        <time>2017-06-20T13:24:23Z</time>
      </trkpt>
      <trkpt lat="62.437324030324817" lon="7.660770993679762">
        <ele>822.54999999999995</ele>
        <time>2017-06-20T13:24:24Z</time>
      </trkpt>
      <trkpt lat="62.437424026429653" lon="7.66072397120297">
        <ele>821.58000000000004</ele>
        <time>2017-06-20T13:24:25Z</time>
      </trkpt>
      <trkpt lat="62.437533996999264" lon="7.660645013675094">
        <ele>820.62</ele>
        <time>2017-06-20T13:24:26Z</time>
      </trkpt>
      <trkpt lat="62.438649041578174" lon="7.65986499376595">
        <ele>814.37</ele>
        <time>2017-06-20T13:24:34Z</time>
      </trkpt>
      <trkpt lat="62.438790025189519" lon="7.659823000431061">
        <ele>812.92999999999995</ele>
        <time>2017-06-20T13:24:35Z</time>
      </trkpt>
      <trkpt lat="62.438932014629245" lon="7.659812020137906">
        <ele>812.45000000000005</ele>
        <time>2017-06-20T13:24:36Z</time>
      </trkpt>
      <trkpt lat="62.439065035432577" lon="7.659818977117539">
        <ele>811.49000000000001</ele>
        <time>2017-06-20T13:24:37Z</time>
      </trkpt>
      <trkpt lat="62.44038300588727" lon="7.660120977088809">
        <ele>799.95000000000005</ele>
        <time>2017-06-20T13:24:46Z</time>
      </trkpt>
      <trkpt lat="62.441831985488534" lon="7.660712990909815">
        <ele>786.01999999999998</ele>
        <time>2017-06-20T13:24:55Z</time>
      </trkpt>
      <trkpt lat="62.44195201434195" lon="7.660771999508143">
        <ele>785.04999999999995</ele>
        <time>2017-06-20T13:24:56Z</time>
      </trkpt>
      <trkpt lat="62.442073971033096" lon="7.660791026428342">
        <ele>784.57000000000005</ele>
        <time>2017-06-20T13:24:57Z</time>
      </trkpt>
      <trkpt lat="62.442201962694526" lon="7.660777028650045">
        <ele>783.13</ele>
        <time>2017-06-20T13:24:58Z</time>
      </trkpt>
      <trkpt lat="62.443101005628705" lon="7.660525990650058">
        <ele>774.48000000000002</ele>
        <time>2017-06-20T13:25:05Z</time>
      </trkpt>
      <trkpt lat="62.443228997290134" lon="7.660553986206651">
        <ele>773.51999999999998</ele>
        <time>2017-06-20T13:25:06Z</time>
      </trkpt>
      <trkpt lat="62.443362018093467" lon="7.660622969269753">
        <ele>772.55999999999995</ele>
        <time>2017-06-20T13:25:07Z</time>
      </trkpt>
      <trkpt lat="62.443912960588932" lon="7.660856992006302">
        <ele>769.19000000000005</ele>
        <time>2017-06-20T13:25:11Z</time>
      </trkpt>
      <trkpt lat="62.444043969735503" lon="7.660836037248373">
        <ele>768.23000000000002</ele>
        <time>2017-06-20T13:25:12Z</time>
      </trkpt>
      <trkpt lat="62.444174978882074" lon="7.66078700311482">
        <ele>767.26999999999998</ele>
        <time>2017-06-20T13:25:13Z</time>
      </trkpt>
      <trkpt lat="62.445330005139112" lon="7.660248968750238">
        <ele>756.69000000000005</ele>
        <time>2017-06-20T13:25:21Z</time>
      </trkpt>
      <trkpt lat="62.445456990972161" lon="7.660273024812341">
        <ele>756.21000000000004</ele>
        <time>2017-06-20T13:25:22Z</time>
      </trkpt>
      <trkpt lat="62.445585988461971" lon="7.660342007875443">
        <ele>755.73000000000002</ele>
        <time>2017-06-20T13:25:23Z</time>
      </trkpt>
      <trkpt lat="62.445719009265304" lon="7.660451978445053">
        <ele>755.25</ele>
        <time>2017-06-20T13:25:24Z</time>
      </trkpt>
      <trkpt lat="62.445859992876649" lon="7.660568989813328">
        <ele>754.76999999999998</ele>
        <time>2017-06-20T13:25:25Z</time>
      </trkpt>
      <trkpt lat="62.446866994723678" lon="7.661421010270715">
        <ele>748.03999999999996</ele>
        <time>2017-06-20T13:25:33Z</time>
      </trkpt>
      <trkpt lat="62.44706598110497" lon="7.661537015810609">
        <ele>747.08000000000004</ele>
        <time>2017-06-20T13:25:38Z</time>
      </trkpt>
      <trkpt lat="62.447068998590112" lon="7.661559982225299">
        <ele>745.15999999999997</ele>
        <time>2017-06-20T13:25:54Z</time>
      </trkpt>
      <trkpt lat="62.447081990540028" lon="7.661574985831976">
        <ele>745.63999999999999</ele>
        <time>2017-06-20T13:26:01Z</time>
      </trkpt>
      <trkpt lat="62.447111997753382" lon="7.66153902746737">
        <ele>745.15999999999997</ele>
        <time>2017-06-20T13:26:02Z</time>
      </trkpt>
      <trkpt lat="62.447662018239498" lon="7.661385973915458">
        <ele>742.27999999999997</ele>
        <time>2017-06-20T13:26:09Z</time>
      </trkpt>
      <trkpt lat="62.448427034541965" lon="7.660578964278102">
        <ele>736.99000000000001</ele>
        <time>2017-06-20T13:26:19Z</time>
      </trkpt>
      <trkpt lat="62.449670992791653" lon="7.659068964421749">
        <ele>727.37</ele>
        <time>2017-06-20T13:26:33Z</time>
      </trkpt>
      <trkpt lat="62.449765959754586" lon="7.659033006057143">
        <ele>726.40999999999997</ele>
        <time>2017-06-20T13:26:34Z</time>
      </trkpt>
      <trkpt lat="62.449861010536551" lon="7.659032000228763">
        <ele>725.45000000000005</ele>
        <time>2017-06-20T13:26:35Z</time>
      </trkpt>
      <trkpt lat="62.449950026348233" lon="7.659066030755639">
        <ele>724.97000000000003</ele>
        <time>2017-06-20T13:26:36Z</time>
      </trkpt>
      <trkpt lat="62.450038958340883" lon="7.659096037968993">
        <ele>724.00999999999999</ele>
        <time>2017-06-20T13:26:37Z</time>
      </trkpt>
      <trkpt lat="62.450112970545888" lon="7.659182036295533">
        <ele>723.52999999999997</ele>
        <time>2017-06-20T13:26:38Z</time>
      </trkpt>
      <trkpt lat="62.450173990800977" lon="7.659296030178666">
        <ele>721.61000000000001</ele>
        <time>2017-06-20T13:26:39Z</time>
      </trkpt>
      <trkpt lat="62.450234005227685" lon="7.659426033496857">
        <ele>720.15999999999997</ele>
        <time>2017-06-20T13:26:40Z</time>
      </trkpt>
      <trkpt lat="62.450299970805645" lon="7.65958696603775">
        <ele>719.20000000000005</ele>
        <time>2017-06-20T13:26:41Z</time>
      </trkpt>
      <trkpt lat="62.450357973575592" lon="7.659760974347591">
        <ele>717.27999999999997</ele>
        <time>2017-06-20T13:26:42Z</time>
      </trkpt>
      <trkpt lat="62.450943030416965" lon="7.661470966413617">
        <ele>709.59000000000003</ele>
        <time>2017-06-20T13:26:50Z</time>
      </trkpt>
      <trkpt lat="62.451030034571886" lon="7.661617984995246">
        <ele>708.63</ele>
        <time>2017-06-20T13:26:51Z</time>
      </trkpt>
      <trkpt lat="62.451123995706439" lon="7.661746982485056">
        <ele>708.63</ele>
        <time>2017-06-20T13:26:52Z</time>
      </trkpt>
      <trkpt lat="62.451224997639656" lon="7.661859970539808">
        <ele>707.66999999999996</ele>
        <time>2017-06-20T13:26:53Z</time>
      </trkpt>
      <trkpt lat="62.451325999572873" lon="7.661959966644645">
        <ele>706.71000000000004</ele>
        <time>2017-06-20T13:26:54Z</time>
      </trkpt>
      <trkpt lat="62.45260801166296" lon="7.662925980985165">
        <ele>702.38</ele>
        <time>2017-06-20T13:27:07Z</time>
      </trkpt>
      <trkpt lat="62.452699961140752" lon="7.662928998470306">
        <ele>701.89999999999998</ele>
        <time>2017-06-20T13:27:08Z</time>
      </trkpt>
      <trkpt lat="62.453115032985806" lon="7.662945007905364">
        <ele>701.41999999999996</ele>
        <time>2017-06-20T13:27:12Z</time>
      </trkpt>
      <trkpt lat="62.453217962756753" lon="7.663016002625227">
        <ele>700.46000000000004</ele>
        <time>2017-06-20T13:27:13Z</time>
      </trkpt>
      <trkpt lat="62.454157993197441" lon="7.664107996970415">
        <ele>699.98000000000002</ele>
        <time>2017-06-20T13:27:24Z</time>
      </trkpt>
      <trkpt lat="62.454529982060194" lon="7.664745021611452">
        <ele>699.5</ele>
        <time>2017-06-20T13:27:32Z</time>
      </trkpt>
      <trkpt lat="62.454695021733642" lon="7.665101001039147">
        <ele>699.98000000000002</ele>
        <time>2017-06-20T13:27:35Z</time>
      </trkpt>
      <trkpt lat="62.454733997583389" lon="7.665232010185719">
        <ele>699.01999999999998</ele>
        <time>2017-06-20T13:27:36Z</time>
      </trkpt>
      <trkpt lat="62.455094000324607" lon="7.666388964280486">
        <ele>697.57000000000005</ele>
        <time>2017-06-20T13:27:47Z</time>
      </trkpt>
      <trkpt lat="62.455441011115909" lon="7.666979972273111">
        <ele>693.73000000000002</ele>
        <time>2017-06-20T13:27:57Z</time>
      </trkpt>
      <trkpt lat="62.455880977213383" lon="7.667391020804644">
        <ele>688.91999999999996</ele>
        <time>2017-06-20T13:28:06Z</time>
      </trkpt>
      <trkpt lat="62.455996982753277" lon="7.667480958625674">
        <ele>687</ele>
        <time>2017-06-20T13:28:16Z</time>
      </trkpt>
      <trkpt lat="62.456152969971299" lon="7.667466038838029">
        <ele>684.12</ele>
        <time>2017-06-20T13:28:24Z</time>
      </trkpt>
      <trkpt lat="62.456166967749596" lon="7.667449023574591">
        <ele>685.55999999999995</ele>
        <time>2017-06-20T13:28:44Z</time>
      </trkpt>
      <trkpt lat="62.456165039911866" lon="7.667446006089449">
        <ele>685.08000000000004</ele>
        <time>2017-06-20T13:30:56Z</time>
      </trkpt>
      <trkpt lat="62.456179959699512" lon="7.667437959462404">
        <ele>685.08000000000004</ele>
        <time>2017-06-20T13:32:21Z</time>
      </trkpt>
      <trkpt lat="62.456272998824716" lon="7.667369982227683">
        <ele>684.12</ele>
        <time>2017-06-20T13:32:24Z</time>
      </trkpt>
      <trkpt lat="62.456323960795999" lon="7.667348021641374">
        <ele>683.63</ele>
        <time>2017-06-20T13:32:25Z</time>
      </trkpt>
      <trkpt lat="62.457038015127182" lon="7.667187005281448">
        <ele>676.90999999999997</ele>
        <time>2017-06-20T13:32:34Z</time>
      </trkpt>
      <trkpt lat="62.458244003355503" lon="7.666882993653417">
        <ele>665.37</ele>
        <time>2017-06-20T13:32:45Z</time>
      </trkpt>
      <trkpt lat="62.459103986620903" lon="7.666314030066133">
        <ele>659.12</ele>
        <time>2017-06-20T13:32:52Z</time>
      </trkpt>
      <trkpt lat="62.459227032959461" lon="7.666293997317553">
        <ele>658.15999999999997</ele>
        <time>2017-06-20T13:32:53Z</time>
      </trkpt>
      <trkpt lat="62.46019103564322" lon="7.666355017572641">
        <ele>649.50999999999999</ele>
        <time>2017-06-20T13:33:01Z</time>
      </trkpt>
      <trkpt lat="62.460319027304649" lon="7.666319981217384">
        <ele>648.07000000000005</ele>
        <time>2017-06-20T13:33:02Z</time>
      </trkpt>
      <trkpt lat="62.461587963625789" lon="7.665961990132928">
        <ele>636.04999999999995</ele>
        <time>2017-06-20T13:33:11Z</time>
      </trkpt>
      <trkpt lat="62.46223596855998" lon="7.665491010993719">
        <ele>630.75999999999999</ele>
        <time>2017-06-20T13:33:18Z</time>
      </trkpt>
      <trkpt lat="62.462422968819737" lon="7.665233016014099">
        <ele>628.84000000000003</ele>
        <time>2017-06-20T13:33:22Z</time>
      </trkpt>
      <trkpt lat="62.462468985468149" lon="7.665202002972364">
        <ele>628.84000000000003</ele>
        <time>2017-06-20T13:33:23Z</time>
      </trkpt>
      <trkpt lat="62.462507961317897" lon="7.665222035720944">
        <ele>627.39999999999998</ele>
        <time>2017-06-20T13:33:24Z</time>
      </trkpt>
      <trkpt lat="62.462536040693521" lon="7.665281966328621">
        <ele>626.91999999999996</ele>
        <time>2017-06-20T13:33:25Z</time>
      </trkpt>
      <trkpt lat="62.462542997673154" lon="7.66536402516067">
        <ele>626.44000000000005</ele>
        <time>2017-06-20T13:33:26Z</time>
      </trkpt>
      <trkpt lat="62.462526988238096" lon="7.665456980466843">
        <ele>625.96000000000004</ele>
        <time>2017-06-20T13:33:27Z</time>
      </trkpt>
      <trkpt lat="62.46249102987349" lon="7.665537027642131">
        <ele>625.47000000000003</ele>
        <time>2017-06-20T13:33:28Z</time>
      </trkpt>
      <trkpt lat="62.462435038760304" lon="7.665617996826768">
        <ele>624.99000000000001</ele>
        <time>2017-06-20T13:33:29Z</time>
      </trkpt>
      <trkpt lat="62.462367983534932" lon="7.66570801846683">
        <ele>624.50999999999999</ele>
        <time>2017-06-20T13:33:30Z</time>
      </trkpt>
      <trkpt lat="62.461563991382718" lon="7.666819039732218">
        <ele>614.41999999999996</ele>
        <time>2017-06-20T13:33:38Z</time>
      </trkpt>
      <trkpt lat="62.460459005087614" lon="7.668118989095092">
        <ele>602.39999999999998</ele>
        <time>2017-06-20T13:33:47Z</time>
      </trkpt>
      <trkpt lat="62.459987020120025" lon="7.668573036789894">
        <ele>598.55999999999995</ele>
        <time>2017-06-20T13:33:51Z</time>
      </trkpt>
      <trkpt lat="62.459649983793497" lon="7.668736986815929">
        <ele>595.66999999999996</ele>
        <time>2017-06-20T13:33:54Z</time>
      </trkpt>
      <trkpt lat="62.459564991295338" lon="7.668750984594226">
        <ele>595.19000000000005</ele>
        <time>2017-06-20T13:33:55Z</time>
      </trkpt>
      <trkpt lat="62.458738032728434" lon="7.669160021468997">
        <ele>586.53999999999996</ele>
        <time>2017-06-20T13:34:04Z</time>
      </trkpt>
      <trkpt lat="62.458045016974211" lon="7.669454980641604">
        <ele>580.28999999999996</ele>
        <time>2017-06-20T13:34:12Z</time>
      </trkpt>
      <trkpt lat="62.457966981455684" lon="7.669514995068312">
        <ele>579.80999999999995</ele>
        <time>2017-06-20T13:34:13Z</time>
      </trkpt>
      <trkpt lat="62.457885006442666" lon="7.669578026980162">
        <ele>579.33000000000004</ele>
        <time>2017-06-20T13:34:14Z</time>
      </trkpt>
      <trkpt lat="62.457810994237661" lon="7.669658996164799">
        <ele>578.85000000000002</ele>
        <time>2017-06-20T13:34:15Z</time>
      </trkpt>
      <trkpt lat="62.457734970375896" lon="7.669736025854945">
        <ele>578.85000000000002</ele>
        <time>2017-06-20T13:34:16Z</time>
      </trkpt>
      <trkpt lat="62.457511005923152" lon="7.669940963387489">
        <ele>577.40999999999997</ele>
        <time>2017-06-20T13:34:19Z</time>
      </trkpt>
      <trkpt lat="62.457436993718147" lon="7.669989997521043">
        <ele>575.49000000000001</ele>
        <time>2017-06-20T13:34:20Z</time>
      </trkpt>
      <trkpt lat="62.45673299767077" lon="7.670318987220526">
        <ele>568.27999999999997</ele>
        <time>2017-06-20T13:34:30Z</time>
      </trkpt>
      <trkpt lat="62.456302000209689" lon="7.670250004157424">
        <ele>564.90999999999997</ele>
        <time>2017-06-20T13:34:37Z</time>
      </trkpt>
      <trkpt lat="62.456259001046419" lon="7.67026299610734">
        <ele>564.90999999999997</ele>
        <time>2017-06-20T13:34:38Z</time>
      </trkpt>
      <trkpt lat="62.456223964691162" lon="7.670319993048906">
        <ele>564.42999999999995</ele>
        <time>2017-06-20T13:34:39Z</time>
      </trkpt>
      <trkpt lat="62.456211978569627" lon="7.67041202634573">
        <ele>564.42999999999995</ele>
        <time>2017-06-20T13:34:40Z</time>
      </trkpt>
      <trkpt lat="62.456210972741246" lon="7.670494001358748">
        <ele>563.95000000000005</ele>
        <time>2017-06-20T13:34:41Z</time>
      </trkpt>
      <trkpt lat="62.456235028803349" lon="7.670568013563752">
        <ele>563.95000000000005</ele>
        <time>2017-06-20T13:34:42Z</time>
      </trkpt>
      <trkpt lat="62.456279033794999" lon="7.670615036040545">
        <ele>562.99000000000001</ele>
        <time>2017-06-20T13:34:43Z</time>
      </trkpt>
      <trkpt lat="62.45634600520134" lon="7.670633979141712">
        <ele>562.50999999999999</ele>
        <time>2017-06-20T13:34:44Z</time>
      </trkpt>
      <trkpt lat="62.456435021013021" lon="7.670642025768757">
        <ele>562.02999999999997</ele>
        <time>2017-06-20T13:34:45Z</time>
      </trkpt>
      <trkpt lat="62.457370022311807" lon="7.670659041032195">
        <ele>553.38</ele>
        <time>2017-06-20T13:34:52Z</time>
      </trkpt>
      <trkpt lat="62.458570981398225" lon="7.670494001358748">
        <ele>545.69000000000005</ele>
        <time>2017-06-20T13:35:02Z</time>
      </trkpt>
      <trkpt lat="62.459636991843581" lon="7.670538006350398">
        <ele>535.11000000000001</ele>
        <time>2017-06-20T13:35:14Z</time>
      </trkpt>
      <trkpt lat="62.459973022341728" lon="7.670400962233543">
        <ele>532.23000000000002</ele>
        <time>2017-06-20T13:35:23Z</time>
      </trkpt>
      <trkpt lat="62.459992971271276" lon="7.670429963618517">
        <ele>531.75</ele>
        <time>2017-06-20T13:35:24Z</time>
      </trkpt>
      <trkpt lat="62.460009986534715" lon="7.670462988317013">
        <ele>531.26999999999998</ele>
        <time>2017-06-20T13:35:25Z</time>
      </trkpt>
      <trkpt lat="62.460023984313011" lon="7.670511016622186">
        <ele>531.26999999999998</ele>
        <time>2017-06-20T13:35:26Z</time>
      </trkpt>
      <trkpt lat="62.460028007626534" lon="7.670566001906991">
        <ele>530.78999999999996</ele>
        <time>2017-06-20T13:35:27Z</time>
      </trkpt>
      <trkpt lat="62.46001903899014" lon="7.670629033818841">
        <ele>530.29999999999995</ele>
        <time>2017-06-20T13:35:28Z</time>
      </trkpt>
      <trkpt lat="62.459994982928038" lon="7.670678989961743">
        <ele>528.86000000000001</ele>
        <time>2017-06-20T13:35:29Z</time>
      </trkpt>
      <trkpt lat="62.459953995421529" lon="7.670728024095297">
        <ele>528.38</ele>
        <time>2017-06-20T13:35:30Z</time>
      </trkpt>
      <trkpt lat="62.459906972944736" lon="7.670764988288283">
        <ele>527.89999999999998</ele>
        <time>2017-06-20T13:35:31Z</time>
      </trkpt>
      <trkpt lat="62.459859028458595" lon="7.670788038522005">
        <ele>527.41999999999996</ele>
        <time>2017-06-20T13:35:32Z</time>
      </trkpt>
      <trkpt lat="62.459812005981803" lon="7.670807987451553">
        <ele>527.41999999999996</ele>
        <time>2017-06-20T13:35:33Z</time>
      </trkpt>
      <trkpt lat="62.459180010482669" lon="7.671149969100952">
        <ele>521.16999999999996</ele>
        <time>2017-06-20T13:35:42Z</time>
      </trkpt>
      <trkpt lat="62.45834399946034" lon="7.67187399789691">
        <ele>513.48000000000002</ele>
        <time>2017-06-20T13:35:53Z</time>
      </trkpt>
      <trkpt lat="62.457772018387914" lon="7.672236012294889">
        <ele>508.19</ele>
        <time>2017-06-20T13:36:00Z</time>
      </trkpt>
      <trkpt lat="62.457112027332187" lon="7.672404991462827">
        <ele>502.91000000000003</ele>
        <time>2017-06-20T13:36:08Z</time>
      </trkpt>
      <trkpt lat="62.456975989043713" lon="7.672366015613079">
        <ele>501.45999999999998</ele>
        <time>2017-06-20T13:36:10Z</time>
      </trkpt>
      <trkpt lat="62.456789994612336" lon="7.672393005341291">
        <ele>499.06</ele>
        <time>2017-06-20T13:36:14Z</time>
      </trkpt>
      <trkpt lat="62.456786977127194" lon="7.672485038638115">
        <ele>498.57999999999998</ele>
        <time>2017-06-20T13:36:15Z</time>
      </trkpt>
      <trkpt lat="62.456813966855407" lon="7.672555027529597">
        <ele>498.57999999999998</ele>
        <time>2017-06-20T13:36:16Z</time>
      </trkpt>
      <trkpt lat="62.456857971847057" lon="7.672599032521248">
        <ele>498.10000000000002</ele>
        <time>2017-06-20T13:36:17Z</time>
      </trkpt>
      <trkpt lat="62.456916980445385" lon="7.672611018642783">
        <ele>497.62</ele>
        <time>2017-06-20T13:36:18Z</time>
      </trkpt>
      <trkpt lat="62.456997027620673" lon="7.672594003379345">
        <ele>497.13999999999999</ele>
        <time>2017-06-20T13:36:19Z</time>
      </trkpt>
      <trkpt lat="62.457093000411987" lon="7.672586962580681">
        <ele>496.66000000000003</ele>
        <time>2017-06-20T13:36:20Z</time>
      </trkpt>
      <trkpt lat="62.457896992564201" lon="7.672638008370996">
        <ele>489.44999999999999</ele>
        <time>2017-06-20T13:36:28Z</time>
      </trkpt>
      <trkpt lat="62.458114000037313" lon="7.672617975622416">
        <ele>486.56</ele>
        <time>2017-06-20T13:36:31Z</time>
      </trkpt>
      <trkpt lat="62.458199998363853" lon="7.672701040282846">
        <ele>482.24000000000001</ele>
        <time>2017-06-20T13:36:33Z</time>
      </trkpt>
      <trkpt lat="62.458078041672707" lon="7.672931039705873">
        <ele>482.24000000000001</ele>
        <time>2017-06-20T13:36:38Z</time>
      </trkpt>
      <trkpt lat="62.45800101198256" lon="7.672908995300531">
        <ele>481.27999999999997</ele>
        <time>2017-06-20T13:36:39Z</time>
      </trkpt>
      <trkpt lat="62.457910990342498" lon="7.672879993915558">
        <ele>480.31999999999999</ele>
        <time>2017-06-20T13:36:40Z</time>
      </trkpt>
      <trkpt lat="62.457822980359197" lon="7.672848980873823">
        <ele>479.83999999999997</ele>
        <time>2017-06-20T13:36:41Z</time>
      </trkpt>
      <trkpt lat="62.4573789909482" lon="7.672861972823739">
        <ele>475.50999999999999</ele>
        <time>2017-06-20T13:36:46Z</time>
      </trkpt>
      <trkpt lat="62.457306990399957" lon="7.672930033877492">
        <ele>475.02999999999997</ele>
        <time>2017-06-20T13:36:47Z</time>
      </trkpt>
      <trkpt lat="62.457246975973248" lon="7.673026006668806">
        <ele>474.06999999999999</ele>
        <time>2017-06-20T13:36:48Z</time>
      </trkpt>
      <trkpt lat="62.456975989043713" lon="7.673330018296838">
        <ele>470.22000000000003</ele>
        <time>2017-06-20T13:36:53Z</time>
      </trkpt>
      <trkpt lat="62.456927038729191" lon="7.673451974987984">
        <ele>469.25999999999999</ele>
        <time>2017-06-20T13:36:54Z</time>
      </trkpt>
      <trkpt lat="62.45688202790916" lon="7.673794962465763">
        <ele>467.81999999999999</ele>
        <time>2017-06-20T13:36:56Z</time>
      </trkpt>
      <trkpt lat="62.45688303373754" lon="7.674023034051061">
        <ele>466.38</ele>
        <time>2017-06-20T13:36:57Z</time>
      </trkpt>
      <trkpt lat="62.45688596740365" lon="7.674233000725508">
        <ele>465.89999999999998</ele>
        <time>2017-06-20T13:36:58Z</time>
      </trkpt>
      <trkpt lat="62.45690499432385" lon="7.674457971006632">
        <ele>464.93000000000001</ele>
        <time>2017-06-20T13:36:59Z</time>
      </trkpt>
      <trkpt lat="62.45692502707243" lon="7.674694005399942">
        <ele>463.97000000000003</ele>
        <time>2017-06-20T13:37:00Z</time>
      </trkpt>
      <trkpt lat="62.45729198679328" lon="7.676887968555093">
        <ele>455.31999999999999</ele>
        <time>2017-06-20T13:37:09Z</time>
      </trkpt>
      <trkpt lat="62.45789104141295" lon="7.678774986416102">
        <ele>443.79000000000002</ele>
        <time>2017-06-20T13:37:19Z</time>
      </trkpt>
      <trkpt lat="62.458059014752507" lon="7.679416034370661">
        <ele>440.42000000000002</ele>
        <time>2017-06-20T13:37:23Z</time>
      </trkpt>
      <trkpt lat="62.458093967288733" lon="7.679512007161975">
        <ele>439.94</ele>
        <time>2017-06-20T13:37:24Z</time>
      </trkpt>
      <trkpt lat="62.458115005865693" lon="7.679514018818736">
        <ele>439.45999999999998</ele>
        <time>2017-06-20T13:37:25Z</time>
      </trkpt>
      <trkpt lat="62.45819304138422" lon="7.679269015789032">
        <ele>438.5</ele>
        <time>2017-06-20T13:37:28Z</time>
      </trkpt>
      <trkpt lat="62.458189018070698" lon="7.679192991927266">
        <ele>437.54000000000002</ele>
        <time>2017-06-20T13:37:29Z</time>
      </trkpt>
      <trkpt lat="62.458165967836976" lon="7.679100958630443">
        <ele>437.06</ele>
        <time>2017-06-20T13:37:30Z</time>
      </trkpt>
      <trkpt lat="62.458135038614273" lon="7.679024012759328">
        <ele>436.57999999999998</ele>
        <time>2017-06-20T13:37:31Z</time>
      </trkpt>
      <trkpt lat="62.458100002259016" lon="7.678915970027447">
        <ele>436.57999999999998</ele>
        <time>2017-06-20T13:37:32Z</time>
      </trkpt>
      <trkpt lat="62.457713009789586" lon="7.677413010969758">
        <ele>430.32999999999998</ele>
        <time>2017-06-20T13:37:42Z</time>
      </trkpt>
      <trkpt lat="62.457557022571564" lon="7.675488023087382">
        <ele>423.12</ele>
        <time>2017-06-20T13:37:52Z</time>
      </trkpt>
      <trkpt lat="62.457501031458378" lon="7.675084015354514">
        <ele>420.70999999999998</ele>
        <time>2017-06-20T13:37:55Z</time>
      </trkpt>
      <trkpt lat="62.457500025629997" lon="7.674963986501098">
        <ele>420.23000000000002</ele>
        <time>2017-06-20T13:37:56Z</time>
      </trkpt>
      <trkpt lat="62.457510000094771" lon="7.674874970689416">
        <ele>418.31</ele>
        <time>2017-06-20T13:37:57Z</time>
      </trkpt>
      <trkpt lat="62.457540007308125" lon="7.674833983182907">
        <ele>417.35000000000002</ele>
        <time>2017-06-20T13:37:58Z</time>
      </trkpt>
      <trkpt lat="62.457576971501112" lon="7.674844041466713">
        <ele>416.87</ele>
        <time>2017-06-20T13:37:59Z</time>
      </trkpt>
      <trkpt lat="62.457603039219975" lon="7.67490397207439">
        <ele>415.91000000000003</ele>
        <time>2017-06-20T13:38:00Z</time>
      </trkpt>
      <trkpt lat="62.457619970664382" lon="7.674973038956523">
        <ele>415.43000000000001</ele>
        <time>2017-06-20T13:38:01Z</time>
      </trkpt>
      <trkpt lat="62.457632040604949" lon="7.675059959292412">
        <ele>414.47000000000003</ele>
        <time>2017-06-20T13:38:02Z</time>
      </trkpt>
      <trkpt lat="62.457790039479733" lon="7.676134016364813">
        <ele>410.62</ele>
        <time>2017-06-20T13:38:08Z</time>
      </trkpt>
      <trkpt lat="62.457952983677387" lon="7.67707304097712">
        <ele>406.29000000000002</ele>
        <time>2017-06-20T13:38:12Z</time>
      </trkpt>
      <trkpt lat="62.458010986447334" lon="7.677286025136709">
        <ele>404.85000000000002</ele>
        <time>2017-06-20T13:38:13Z</time>
      </trkpt>
      <trkpt lat="62.458077035844326" lon="7.677490040659905">
        <ele>403.88999999999999</ele>
        <time>2017-06-20T13:38:14Z</time>
      </trkpt>
      <trkpt lat="62.458504009991884" lon="7.678625034168363">
        <ele>397.16000000000003</ele>
        <time>2017-06-20T13:38:21Z</time>
      </trkpt>
      <trkpt lat="62.45868899859488" lon="7.679174970835447">
        <ele>394.75999999999999</ele>
        <time>2017-06-20T13:38:25Z</time>
      </trkpt>
      <trkpt lat="62.458764016628265" lon="7.679301034659147">
        <ele>394.27999999999997</ele>
        <time>2017-06-20T13:38:26Z</time>
      </trkpt>
      <trkpt lat="62.458843979984522" lon="7.679369011893868">
        <ele>393.80000000000001</ele>
        <time>2017-06-20T13:38:27Z</time>
      </trkpt>
      <trkpt lat="62.458936013281345" lon="7.679389966651797">
        <ele>392.83999999999997</ele>
        <time>2017-06-20T13:38:28Z</time>
      </trkpt>
      <trkpt lat="62.459035003557801" lon="7.679377980530262">
        <ele>392.36000000000001</ele>
        <time>2017-06-20T13:38:29Z</time>
      </trkpt>
      <trkpt lat="62.459142040461302" lon="7.679325006902218">
        <ele>391.38999999999999</ele>
        <time>2017-06-20T13:38:30Z</time>
      </trkpt>
      <trkpt lat="62.45924798771739" lon="7.67924495972693">
        <ele>390.91000000000003</ele>
        <time>2017-06-20T13:38:31Z</time>
      </trkpt>
      <trkpt lat="62.459342032670975" lon="7.679144963622093">
        <ele>390.43000000000001</ele>
        <time>2017-06-20T13:38:32Z</time>
      </trkpt>
      <trkpt lat="62.459727013483644" lon="7.678851010277867">
        <ele>387.55000000000001</ele>
        <time>2017-06-20T13:38:36Z</time>
      </trkpt>
      <trkpt lat="62.460559001192451" lon="7.678717989474535">
        <ele>378.42000000000002</ele>
        <time>2017-06-20T13:38:45Z</time>
      </trkpt>
      <trkpt lat="62.460682969540358" lon="7.67872997559607">
        <ele>375.52999999999997</ele>
        <time>2017-06-20T13:38:47Z</time>
      </trkpt>
      <trkpt lat="62.460810961201787" lon="7.678648000583053">
        <ele>370.24000000000001</ele>
        <time>2017-06-20T13:38:50Z</time>
      </trkpt>
      <trkpt lat="62.460839040577412" lon="7.678595026955009">
        <ele>369.27999999999997</ele>
        <time>2017-06-20T13:38:51Z</time>
      </trkpt>
      <trkpt lat="62.460911041125655" lon="7.678668033331633">
        <ele>375.52999999999997</ele>
        <time>2017-06-20T13:38:52Z</time>
      </trkpt>
      <trkpt lat="62.460919003933668" lon="7.678611958399415">
        <ele>375.52999999999997</ele>
        <time>2017-06-20T13:38:53Z</time>
      </trkpt>
      <trkpt lat="62.460907017812133" lon="7.678521014750004">
        <ele>374.56999999999999</ele>
        <time>2017-06-20T13:38:54Z</time>
      </trkpt>
      <trkpt lat="62.460892014205456" lon="7.67844901420176">
        <ele>374.08999999999997</ele>
        <time>2017-06-20T13:38:55Z</time>
      </trkpt>
      <trkpt lat="62.460876004770398" lon="7.678399980068207">
        <ele>373.61000000000001</ele>
        <time>2017-06-20T13:38:56Z</time>
      </trkpt>
      <trkpt lat="62.460847003385425" lon="7.678348012268543">
        <ele>373.61000000000001</ele>
        <time>2017-06-20T13:38:57Z</time>
      </trkpt>
      <trkpt lat="62.460785983130336" lon="7.678252961486578">
        <ele>372.17000000000002</ele>
        <time>2017-06-20T13:38:58Z</time>
      </trkpt>
      <trkpt lat="62.460730997845531" lon="7.678238041698933">
        <ele>371.69</ele>
        <time>2017-06-20T13:38:59Z</time>
      </trkpt>
      <trkpt lat="62.460674000903964" lon="7.678232006728649">
        <ele>372.17000000000002</ele>
        <time>2017-06-20T13:39:00Z</time>
      </trkpt>
      <trkpt lat="62.460629995912313" lon="7.678294032812119">
        <ele>371.20999999999998</ele>
        <time>2017-06-20T13:39:01Z</time>
      </trkpt>
      <trkpt lat="62.460539974272251" lon="7.678291015326977">
        <ele>369.75999999999999</ele>
        <time>2017-06-20T13:39:03Z</time>
      </trkpt>
      <trkpt lat="62.460077041760087" lon="7.677876027300954">
        <ele>362.06999999999999</ele>
        <time>2017-06-20T13:39:09Z</time>
      </trkpt>
      <trkpt lat="62.459196019917727" lon="7.677582995966077">
        <ele>350.06</ele>
        <time>2017-06-20T13:39:18Z</time>
      </trkpt>
      <trkpt lat="62.459073979407549" lon="7.67743899486959">
        <ele>346.69</ele>
        <time>2017-06-20T13:39:20Z</time>
      </trkpt>
      <trkpt lat="62.459027040749788" lon="7.677335981279612">
        <ele>345.25</ele>
        <time>2017-06-20T13:39:21Z</time>
      </trkpt>
      <trkpt lat="62.458992004394531" lon="7.677214024588466">
        <ele>344.76999999999998</ele>
        <time>2017-06-20T13:39:22Z</time>
      </trkpt>
      <trkpt lat="62.458954034373164" lon="7.677050996571779">
        <ele>343.81</ele>
        <time>2017-06-20T13:39:23Z</time>
      </trkpt>
      <trkpt lat="62.458926038816571" lon="7.676892997696996">
        <ele>342.85000000000002</ele>
        <time>2017-06-20T13:39:24Z</time>
      </trkpt>
      <trkpt lat="62.458799974992871" lon="7.676424030214548">
        <ele>339</ele>
        <time>2017-06-20T13:39:27Z</time>
      </trkpt>
      <trkpt lat="62.4586689658463" lon="7.676033014431596">
        <ele>336.12</ele>
        <time>2017-06-20T13:39:30Z</time>
      </trkpt>
      <trkpt lat="62.458655973896384" lon="7.675918014720082">
        <ele>335.16000000000003</ele>
        <time>2017-06-20T13:39:31Z</time>
      </trkpt>
      <trkpt lat="62.458661003038287" lon="7.675819024443626">
        <ele>334.19999999999999</ele>
        <time>2017-06-20T13:39:32Z</time>
      </trkpt>
      <trkpt lat="62.458680029958487" lon="7.675746018067002">
        <ele>333.23000000000002</ele>
        <time>2017-06-20T13:39:33Z</time>
      </trkpt>
      <trkpt lat="62.458707019686699" lon="7.67567602917552">
        <ele>332.26999999999998</ele>
        <time>2017-06-20T13:39:34Z</time>
      </trkpt>
      <trkpt lat="62.458745995536447" lon="7.675673011690378">
        <ele>331.79000000000002</ele>
        <time>2017-06-20T13:39:35Z</time>
      </trkpt>
      <trkpt lat="62.458782037720084" lon="7.675688015297055">
        <ele>330.82999999999998</ele>
        <time>2017-06-20T13:39:36Z</time>
      </trkpt>
      <trkpt lat="62.458840040490031" lon="7.675868980586529">
        <ele>330.35000000000002</ele>
        <time>2017-06-20T13:39:37Z</time>
      </trkpt>
      <trkpt lat="62.458901982754469" lon="7.676026979461312">
        <ele>329.87</ele>
        <time>2017-06-20T13:39:38Z</time>
      </trkpt>
      <trkpt lat="62.459050007164478" lon="7.676347000524402">
        <ele>328.43000000000001</ele>
        <time>2017-06-20T13:39:40Z</time>
      </trkpt>
      <trkpt lat="62.459126031026244" lon="7.676483960822225">
        <ele>327.94999999999999</ele>
        <time>2017-06-20T13:39:41Z</time>
      </trkpt>
      <trkpt lat="62.459202976897359" lon="7.676598038524389">
        <ele>326.99000000000001</ele>
        <time>2017-06-20T13:39:42Z</time>
      </trkpt>
      <trkpt lat="62.459345972165465" lon="7.676758971065283">
        <ele>326.01999999999998</ele>
        <time>2017-06-20T13:39:44Z</time>
      </trkpt>
      <trkpt lat="62.459464995190501" lon="7.676818985491991">
        <ele>324.57999999999998</ele>
        <time>2017-06-20T13:39:46Z</time>
      </trkpt>
      <trkpt lat="62.459512017667294" lon="7.676799036562443">
        <ele>324.10000000000002</ele>
        <time>2017-06-20T13:39:47Z</time>
      </trkpt>
      <trkpt lat="62.45954898186028" lon="7.676756037399173">
        <ele>322.66000000000003</ele>
        <time>2017-06-20T13:39:48Z</time>
      </trkpt>
      <trkpt lat="62.459585024043918" lon="7.676734998822212">
        <ele>322.18000000000001</ele>
        <time>2017-06-20T13:39:49Z</time>
      </trkpt>
      <trkpt lat="62.459614025428891" lon="7.676710020750761">
        <ele>321.22000000000003</ele>
        <time>2017-06-20T13:39:50Z</time>
      </trkpt>
      <trkpt lat="62.459643026813865" lon="7.676672972738743">
        <ele>320.74000000000001</ele>
        <time>2017-06-20T13:39:51Z</time>
      </trkpt>
      <trkpt lat="62.459680996835232" lon="7.676661992445588">
        <ele>320.74000000000001</ele>
        <time>2017-06-20T13:39:52Z</time>
      </trkpt>
      <trkpt lat="62.459756014868617" lon="7.676413971930742">
        <ele>315.44999999999999</ele>
        <time>2017-06-20T13:40:01Z</time>
      </trkpt>
      <trkpt lat="62.459760960191488" lon="7.676426041871309">
        <ele>315.44999999999999</ele>
        <time>2017-06-20T13:41:03Z</time>
      </trkpt>
      <trkpt lat="62.459760038182139" lon="7.676448002457619">
        <ele>315.44999999999999</ele>
        <time>2017-06-20T13:42:01Z</time>
      </trkpt>
      <trkpt lat="62.459760960191488" lon="7.676470968872309">
        <ele>315.44999999999999</ele>
        <time>2017-06-20T13:42:35Z</time>
      </trkpt>
      <trkpt lat="62.459769006818533" lon="7.67647298052907">
        <ele>314.97000000000003</ele>
        <time>2017-06-20T13:43:12Z</time>
      </trkpt>
      <trkpt lat="62.459783004596829" lon="7.676468035206199">
        <ele>314.97000000000003</ele>
        <time>2017-06-20T13:43:13Z</time>
      </trkpt>
      <trkpt lat="62.459808988496661" lon="7.676462000235915">
        <ele>314.97000000000003</ele>
        <time>2017-06-20T13:43:14Z</time>
      </trkpt>
      <trkpt lat="62.459968999028206" lon="7.67645001411438">
        <ele>314.49000000000001</ele>
        <time>2017-06-20T13:43:17Z</time>
      </trkpt>
      <trkpt lat="62.460045022889972" lon="7.676408020779491">
        <ele>314.49000000000001</ele>
        <time>2017-06-20T13:43:18Z</time>
      </trkpt>
      <trkpt lat="62.460942976176739" lon="7.676089005544782">
        <ele>311.60000000000002</ele>
        <time>2017-06-20T13:43:27Z</time>
      </trkpt>
      <trkpt lat="62.462059026584029" lon="7.675994038581848">
        <ele>301.99000000000001</ele>
        <time>2017-06-20T13:43:36Z</time>
      </trkpt>
      <trkpt lat="62.462459011003375" lon="7.675992026925087">
        <ele>298.63</ele>
        <time>2017-06-20T13:43:39Z</time>
      </trkpt>
      <trkpt lat="62.462588008493185" lon="7.675896976143122">
        <ele>297.67000000000002</ele>
        <time>2017-06-20T13:43:40Z</time>
      </trkpt>
      <trkpt lat="62.462725974619389" lon="7.675782982259989">
        <ele>296.69999999999999</ele>
        <time>2017-06-20T13:43:41Z</time>
      </trkpt>
      <trkpt lat="62.462866958230734" lon="7.675647027790546">
        <ele>295.25999999999999</ele>
        <time>2017-06-20T13:43:42Z</time>
      </trkpt>
      <trkpt lat="62.463020011782646" lon="7.675548959523439">
        <ele>293.81999999999999</ele>
        <time>2017-06-20T13:43:43Z</time>
      </trkpt>
      <trkpt lat="62.463170969858766" lon="7.675445023924112">
        <ele>292.38</ele>
        <time>2017-06-20T13:43:44Z</time>
      </trkpt>
      <trkpt lat="62.46459698304534" lon="7.674384964630008">
        <ele>279.39999999999998</ele>
        <time>2017-06-20T13:43:53Z</time>
      </trkpt>
      <trkpt lat="62.465110961347818" lon="7.674324028193951">
        <ele>274.11000000000001</ele>
        <time>2017-06-20T13:43:56Z</time>
      </trkpt>
      <trkpt lat="62.467081965878606" lon="7.674912018701434">
        <ele>251.52000000000001</ele>
        <time>2017-06-20T13:44:07Z</time>
      </trkpt>
      <trkpt lat="62.467608014121652" lon="7.674986030906439">
        <ele>248.16</ele>
        <time>2017-06-20T13:44:10Z</time>
      </trkpt>
      <trkpt lat="62.467783028259873" lon="7.674919981509447">
        <ele>248.16</ele>
        <time>2017-06-20T13:44:11Z</time>
      </trkpt>
      <trkpt lat="62.467953013256192" lon="7.674786960706115">
        <ele>247.68000000000001</ele>
        <time>2017-06-20T13:44:12Z</time>
      </trkpt>
      <trkpt lat="62.469352958723903" lon="7.674460988491774">
        <ele>247.68000000000001</ele>
        <time>2017-06-20T13:44:20Z</time>
      </trkpt>
      <trkpt lat="62.470219982787967" lon="7.674641031771898">
        <ele>245.75</ele>
        <time>2017-06-20T13:44:26Z</time>
      </trkpt>
      <trkpt lat="62.470423998311162" lon="7.674608007073402">
        <ele>245.75</ele>
        <time>2017-06-20T13:44:29Z</time>
      </trkpt>
      <trkpt lat="62.470456017181277" lon="7.674548998475075">
        <ele>245.75</ele>
        <time>2017-06-20T13:44:30Z</time>
      </trkpt>
      <trkpt lat="62.470450988039374" lon="7.674369961023331">
        <ele>245.75</ele>
        <time>2017-06-20T13:44:31Z</time>
      </trkpt>
      <trkpt lat="62.470392985269427" lon="7.674201987683773">
        <ele>245.75</ele>
        <time>2017-06-20T13:44:34Z</time>
      </trkpt>
      <trkpt lat="62.470284020528197" lon="7.674233000725508">
        <ele>244.31</ele>
        <time>2017-06-20T13:44:37Z</time>
      </trkpt>
      <trkpt lat="62.46964699588716" lon="7.674288991838694">
        <ele>242.38999999999999</ele>
        <time>2017-06-20T13:44:45Z</time>
      </trkpt>
      <trkpt lat="62.468777038156986" lon="7.674120012670755">
        <ele>241.91</ele>
        <time>2017-06-20T13:44:56Z</time>
      </trkpt>
      <trkpt lat="62.468734961003065" lon="7.674085982143879">
        <ele>242.38999999999999</ele>
        <time>2017-06-20T13:44:57Z</time>
      </trkpt>
      <trkpt lat="62.468703025951982" lon="7.674028985202313">
        <ele>241.91</ele>
        <time>2017-06-20T13:44:58Z</time>
      </trkpt>
      <trkpt lat="62.468676958233118" lon="7.67395799048245">
        <ele>241.91</ele>
        <time>2017-06-20T13:44:59Z</time>
      </trkpt>
      <trkpt lat="62.468695985153317" lon="7.673750035464764">
        <ele>242.38999999999999</ele>
        <time>2017-06-20T13:45:01Z</time>
      </trkpt>
      <trkpt lat="62.46874401345849" lon="7.67363503575325">
        <ele>242.38999999999999</ele>
        <time>2017-06-20T13:45:02Z</time>
      </trkpt>
      <trkpt lat="62.468810984864831" lon="7.673503020778298">
        <ele>242.38999999999999</ele>
        <time>2017-06-20T13:45:03Z</time>
      </trkpt>
      <trkpt lat="62.468881979584694" lon="7.673371005803347">
        <ele>242.38999999999999</ele>
        <time>2017-06-20T13:45:04Z</time>
      </trkpt>
      <trkpt lat="62.469807006418705" lon="7.672581011429429">
        <ele>242.38999999999999</ele>
        <time>2017-06-20T13:45:12Z</time>
      </trkpt>
      <trkpt lat="62.470520976930857" lon="7.672595009207726">
        <ele>242.38999999999999</ele>
        <time>2017-06-20T13:45:17Z</time>
      </trkpt>
      <trkpt lat="62.480172989889979" lon="7.675251988694072">
        <ele>239.99000000000001</ele>
        <time>2017-06-20T13:46:14Z</time>
      </trkpt>
      <trkpt lat="62.480257982388139" lon="7.670817039906979">
        <ele>224.61000000000001</ele>
        <time>2017-06-20T13:46:28Z</time>
      </trkpt>
      <trkpt lat="62.480529975146055" lon="7.670851992443204">
        <ele>224.12</ele>
        <time>2017-06-20T13:46:30Z</time>
      </trkpt>
      <trkpt lat="62.481567990034819" lon="7.670770017430186">
        <ele>220.28</ele>
        <time>2017-06-20T13:46:37Z</time>
      </trkpt>
      <trkpt lat="62.483307989314198" lon="7.669466966763139">
        <ele>208.74000000000001</ele>
        <time>2017-06-20T13:46:49Z</time>
      </trkpt>
      <trkpt lat="62.483658017590642" lon="7.669394966214895">
        <ele>190.96000000000001</ele>
        <time>2017-06-20T13:46:51Z</time>
      </trkpt>
      <trkpt lat="62.483751978725195" lon="7.669260017573834">
        <ele>190.47999999999999</ele>
        <time>2017-06-20T13:46:52Z</time>
      </trkpt>
      <trkpt lat="62.484006034210324" lon="7.669311985373497">
        <ele>179.41999999999999</ele>
        <time>2017-06-20T13:46:53Z</time>
      </trkpt>
      <trkpt lat="62.484334018081427" lon="7.66948901116848">
        <ele>176.53999999999999</ele>
        <time>2017-06-20T13:46:55Z</time>
      </trkpt>
      <trkpt lat="62.484479025006294" lon="7.669627983123064">
        <ele>171.72999999999999</ele>
        <time>2017-06-20T13:46:56Z</time>
      </trkpt>
      <trkpt lat="62.484611039981246" lon="7.669766033068299">
        <ele>168.37</ele>
        <time>2017-06-20T13:46:57Z</time>
      </trkpt>
      <trkpt lat="62.484714975580573" lon="7.669955966994166">
        <ele>164.03999999999999</ele>
        <time>2017-06-20T13:46:58Z</time>
      </trkpt>
      <trkpt lat="62.484787981957197" lon="7.670168029144406">
        <ele>159.72</ele>
        <time>2017-06-20T13:46:59Z</time>
      </trkpt>
      <trkpt lat="62.484872974455357" lon="7.670346982777119">
        <ele>155.38999999999999</ele>
        <time>2017-06-20T13:47:00Z</time>
      </trkpt>
      <trkpt lat="62.484988979995251" lon="7.670470029115677">
        <ele>152.99000000000001</ele>
        <time>2017-06-20T13:47:01Z</time>
      </trkpt>
      <trkpt lat="62.485127029940486" lon="7.670543035492301">
        <ele>151.06</ele>
        <time>2017-06-20T13:47:02Z</time>
      </trkpt>
      <trkpt lat="62.485267007723451" lon="7.670577988028526">
        <ele>149.62</ele>
        <time>2017-06-20T13:47:03Z</time>
      </trkpt>
      <trkpt lat="62.485392987728119" lon="7.670601960271597">
        <ele>145.78</ele>
        <time>2017-06-20T13:47:04Z</time>
      </trkpt>
      <trkpt lat="62.485550986602902" lon="7.670602966099978">
        <ele>143.37</ele>
        <time>2017-06-20T13:47:05Z</time>
      </trkpt>
      <trkpt lat="62.487024022266269" lon="7.671233033761382">
        <ele>134.24000000000001</ele>
        <time>2017-06-20T13:47:14Z</time>
      </trkpt>
      <trkpt lat="62.489243969321251" lon="7.672528037801385">
        <ele>144.34</ele>
        <time>2017-06-20T13:47:26Z</time>
      </trkpt>
      <trkpt lat="62.491616969928145" lon="7.67393502406776">
        <ele>152.99000000000001</ele>
        <time>2017-06-20T13:47:38Z</time>
      </trkpt>
      <trkpt lat="62.493915036320686" lon="7.675868980586529">
        <ele>161.63999999999999</ele>
        <time>2017-06-20T13:47:47Z</time>
      </trkpt>
      <trkpt lat="62.494488023221493" lon="7.676224960014224">
        <ele>163.56</ele>
        <time>2017-06-20T13:47:49Z</time>
      </trkpt>
      <trkpt lat="62.494016038253903" lon="7.674310030415654">
        <ele>163.56</ele>
        <time>2017-06-20T13:47:51Z</time>
      </trkpt>
      <trkpt lat="62.496214024722576" lon="7.672845041379333">
        <ele>156.34999999999999</ele>
        <time>2017-06-20T13:48:04Z</time>
      </trkpt>
      <trkpt lat="62.497971961274743" lon="7.672247998416424">
        <ele>145.30000000000001</ele>
        <time>2017-06-20T13:48:15Z</time>
      </trkpt>
      <trkpt lat="62.498908974230289" lon="7.672029985114932">
        <ele>146.74000000000001</ele>
        <time>2017-06-20T13:48:24Z</time>
      </trkpt>
      <trkpt lat="62.499122964218259" lon="7.671984974294901">
        <ele>149.13999999999999</ele>
        <time>2017-06-20T13:48:28Z</time>
      </trkpt>
      <trkpt lat="62.499155988916755" lon="7.671956978738308">
        <ele>149.13999999999999</ele>
        <time>2017-06-20T13:48:29Z</time>
      </trkpt>
      <trkpt lat="62.499366961419582" lon="7.671927977353334">
        <ele>152.03</ele>
        <time>2017-06-20T13:48:36Z</time>
      </trkpt>
      <trkpt lat="62.500009015202522" lon="7.672234000638127">
        <ele>156.34999999999999</ele>
        <time>2017-06-20T13:48:43Z</time>
      </trkpt>
      <trkpt lat="62.500203978270292" lon="7.672344977036119">
        <ele>156.34999999999999</ele>
        <time>2017-06-20T13:48:45Z</time>
      </trkpt>
      <trkpt lat="62.500622989609838" lon="7.672600038349628">
        <ele>157.31</ele>
        <time>2017-06-20T13:48:51Z</time>
      </trkpt>
      <trkpt lat="62.500655008479953" lon="7.672585034742951">
        <ele>158.27000000000001</ele>
        <time>2017-06-20T13:48:52Z</time>
      </trkpt>
      <trkpt lat="62.500680992379785" lon="7.672576988115907">
        <ele>159.24000000000001</ele>
        <time>2017-06-20T13:48:53Z</time>
      </trkpt>
      <trkpt lat="62.50060798600316" lon="7.672429969534278">
        <ele>160.68000000000001</ele>
        <time>2017-06-20T13:48:59Z</time>
      </trkpt>
      <trkpt lat="62.500558029860258" lon="7.672384036704898">
        <ele>159.72</ele>
        <time>2017-06-20T13:49:00Z</time>
      </trkpt>
      <trkpt lat="62.499914970248938" lon="7.672042977064848">
        <ele>140.00999999999999</ele>
        <time>2017-06-20T13:49:12Z</time>
      </trkpt>
      <trkpt lat="62.499515991657972" lon="7.671688003465533">
        <ele>120.3</ele>
        <time>2017-06-20T13:49:24Z</time>
      </trkpt>
      <trkpt lat="62.499493025243282" lon="7.671665037050843">
        <ele>115.98</ele>
        <time>2017-06-20T13:49:43Z</time>
      </trkpt>
      <trkpt lat="62.499080970883369" lon="7.671125996857882">
        <ele>-17.649999999999999</ele>
        <time>2017-06-20T13:56:29Z</time>
      </trkpt>
      <trkpt lat="62.499066973105073" lon="7.671192968264222">
        <ele>-9.960000000000001</ele>
        <time>2017-06-20T13:57:41Z</time>
      </trkpt>
      <trkpt lat="62.499078037217259" lon="7.67120897769928">
        <ele>-9.48</ele>
        <time>2017-06-20T13:58:07Z</time>
      </trkpt>
      <trkpt lat="62.499062027782202" lon="7.671204032376409">
        <ele>-17.170000000000002</ele>
        <time>2017-06-20T13:58:51Z</time>
      </trkpt>
      <trkpt lat="62.499056998640299" lon="7.671196991577745">
        <ele>-21.010000000000002</ele>
        <time>2017-06-20T13:59:50Z</time>
      </trkpt>
      <trkpt lat="62.499061021953821" lon="7.67120897769928">
        <ele>-22.449999999999999</ele>
        <time>2017-06-20T14:00:46Z</time>
      </trkpt>
      <trkpt lat="62.499063033610582" lon="7.671210989356041">
        <ele>-22.449999999999999</ele>
        <time>2017-06-20T14:01:04Z</time>
      </trkpt>
      <trkpt lat="62.499050963670015" lon="7.671296987682581">
        <ele>-22.449999999999999</ele>
        <time>2017-06-20T14:01:08Z</time>
      </trkpt>
      <trkpt lat="62.499123970046639" lon="7.671394972130656">
        <ele>-24.379999999999999</ele>
        <time>2017-06-20T14:01:11Z</time>
      </trkpt>
      <trkpt lat="62.499716989696026" lon="7.671779030933976">
        <ele>-27.260000000000002</ele>
        <time>2017-06-20T14:01:20Z</time>
      </trkpt>
      <trkpt lat="62.499847998842597" lon="7.671855976805091">
        <ele>-28.699999999999999</ele>
        <time>2017-06-20T14:01:22Z</time>
      </trkpt>
      <trkpt lat="62.500038016587496" lon="7.672000983729959">
        <ele>-30.140000000000001</ele>
        <time>2017-06-20T14:01:26Z</time>
      </trkpt>
      <trkpt lat="62.500074980780482" lon="7.67206703312695">
        <ele>-28.699999999999999</ele>
        <time>2017-06-20T14:01:27Z</time>
      </trkpt>
      <trkpt lat="62.50011102296412" lon="7.672126963734627">
        <ele>-28.219999999999999</ele>
        <time>2017-06-20T14:01:28Z</time>
      </trkpt>
      <trkpt lat="62.500255024060607" lon="7.672307007014751">
        <ele>-28.699999999999999</ele>
        <time>2017-06-20T14:01:31Z</time>
      </trkpt>
      <trkpt lat="62.500401958823204" lon="7.672469029203057">
        <ele>-27.260000000000002</ele>
        <time>2017-06-20T14:01:33Z</time>
      </trkpt>
      <trkpt lat="62.50116404145956" lon="7.672917963936925">
        <ele>-28.699999999999999</ele>
        <time>2017-06-20T14:01:39Z</time>
      </trkpt>
      <trkpt lat="62.502727014943957" lon="7.673778031021357">
        <ele>-31.109999999999999</ele>
        <time>2017-06-20T14:01:48Z</time>
      </trkpt>
      <trkpt lat="62.504461985081434" lon="7.674723006784916">
        <ele>-33.509999999999998</ele>
        <time>2017-06-20T14:01:57Z</time>
      </trkpt>
      <trkpt lat="62.505971984937787" lon="7.675890019163489">
        <ele>-35.43</ele>
        <time>2017-06-20T14:02:07Z</time>
      </trkpt>
      <trkpt lat="62.506105005741119" lon="7.676051035523415">
        <ele>-35.43</ele>
        <time>2017-06-20T14:02:08Z</time>
      </trkpt>
      <trkpt lat="62.506353026255965" lon="7.676403997465968">
        <ele>-35.909999999999997</ele>
        <time>2017-06-20T14:02:10Z</time>
      </trkpt>
      <trkpt lat="62.507665967568755" lon="7.678895015269518">
        <ele>-38.32</ele>
        <time>2017-06-20T14:02:22Z</time>
      </trkpt>
      <trkpt lat="62.508720997720957" lon="7.681100964546204">
        <ele>-42.640000000000001</ele>
        <time>2017-06-20T14:02:32Z</time>
      </trkpt>
      <trkpt lat="62.509710984304547" lon="7.68272596411407">
        <ele>-45.530000000000001</ele>
        <time>2017-06-20T14:02:40Z</time>
      </trkpt>
      <trkpt lat="62.51089702360332" lon="7.683760039508343">
        <ele>-50.810000000000002</ele>
        <time>2017-06-20T14:02:48Z</time>
      </trkpt>
      <trkpt lat="62.51102602109313" lon="7.683934969827533">
        <ele>-50.810000000000002</ele>
        <time>2017-06-20T14:02:49Z</time>
      </trkpt>
      <trkpt lat="62.511140014976263" lon="7.68416203558445">
        <ele>-51.289999999999999</ele>
        <time>2017-06-20T14:02:50Z</time>
      </trkpt>
      <trkpt lat="62.511248979717493" lon="7.684409972280264">
        <ele>-51.770000000000003</ele>
        <time>2017-06-20T14:02:51Z</time>
      </trkpt>
      <trkpt lat="62.511358028277755" lon="7.684676013886929">
        <ele>-52.25</ele>
        <time>2017-06-20T14:02:52Z</time>
      </trkpt>
      <trkpt lat="62.511448971927166" lon="7.68502201884985">
        <ele>-51.289999999999999</ele>
        <time>2017-06-20T14:02:53Z</time>
      </trkpt>
      <trkpt lat="62.512065963819623" lon="7.68676201812923">
        <ele>-52.740000000000002</ele>
        <time>2017-06-20T14:02:59Z</time>
      </trkpt>
      <trkpt lat="62.512197978794575" lon="7.686979025602341">
        <ele>-52.740000000000002</ele>
        <time>2017-06-20T14:03:00Z</time>
      </trkpt>
      <trkpt lat="62.512341979891062" lon="7.687168037518859">
        <ele>-52.740000000000002</ele>
        <time>2017-06-20T14:03:01Z</time>
      </trkpt>
      <trkpt lat="62.512497967109084" lon="7.687346991151571">
        <ele>-52.740000000000002</ele>
        <time>2017-06-20T14:03:02Z</time>
      </trkpt>
      <trkpt lat="62.512669963762164" lon="7.687486968934536">
        <ele>-52.740000000000002</ele>
        <time>2017-06-20T14:03:03Z</time>
      </trkpt>
      <trkpt lat="62.512847995385528" lon="7.687614038586617">
        <ele>-52.740000000000002</ele>
        <time>2017-06-20T14:03:04Z</time>
      </trkpt>
      <trkpt lat="62.514848001301289" lon="7.688835030421615">
        <ele>-57.539999999999999</ele>
        <time>2017-06-20T14:03:15Z</time>
      </trkpt>
      <trkpt lat="62.517102984711528" lon="7.690336983650923">
        <ele>-54.659999999999997</ele>
        <time>2017-06-20T14:03:28Z</time>
      </trkpt>
      <trkpt lat="62.517226031050086" lon="7.690487019717693">
        <ele>-54.659999999999997</ele>
        <time>2017-06-20T14:03:29Z</time>
      </trkpt>
      <trkpt lat="62.517333989962935" lon="7.690672008320689">
        <ele>-54.18</ele>
        <time>2017-06-20T14:03:30Z</time>
      </trkpt>
      <trkpt lat="62.517418982461095" lon="7.690880969166756">
        <ele>-54.659999999999997</ele>
        <time>2017-06-20T14:03:31Z</time>
      </trkpt>
      <trkpt lat="62.517489977180958" lon="7.691121026873589">
        <ele>-56.100000000000001</ele>
        <time>2017-06-20T14:03:32Z</time>
      </trkpt>
      <trkpt lat="62.517543034628034" lon="7.691409029066563">
        <ele>-56.579999999999998</ele>
        <time>2017-06-20T14:03:33Z</time>
      </trkpt>
      <trkpt lat="62.517574969679117" lon="7.691724020987749">
        <ele>-56.100000000000001</ele>
        <time>2017-06-20T14:03:34Z</time>
      </trkpt>
      <trkpt lat="62.517603971064091" lon="7.692033983767033">
        <ele>-57.060000000000002</ele>
        <time>2017-06-20T14:03:35Z</time>
      </trkpt>
      <trkpt lat="62.517678989097476" lon="7.692636977881193">
        <ele>-57.060000000000002</ele>
        <time>2017-06-20T14:03:37Z</time>
      </trkpt>
      <trkpt lat="62.517746966332197" lon="7.692901007831097">
        <ele>-57.539999999999999</ele>
        <time>2017-06-20T14:03:38Z</time>
      </trkpt>
      <trkpt lat="62.517833970487118" lon="7.69316403195262">
        <ele>-58.020000000000003</ele>
        <time>2017-06-20T14:03:39Z</time>
      </trkpt>
      <trkpt lat="62.517936984077096" lon="7.693416997790337">
        <ele>-58.5</ele>
        <time>2017-06-20T14:03:40Z</time>
      </trkpt>
      <trkpt lat="62.518057012930512" lon="7.693651020526886">
        <ele>-58.020000000000003</ele>
        <time>2017-06-20T14:03:41Z</time>
      </trkpt>
      <trkpt lat="62.519608000293374" lon="7.696591978892684">
        <ele>-44.560000000000002</ele>
        <time>2017-06-20T14:03:53Z</time>
      </trkpt>
      <trkpt lat="62.522120978683233" lon="7.701379973441362">
        <ele>-0.82</ele>
        <time>2017-06-20T14:04:11Z</time>
      </trkpt>
      <trkpt lat="62.524467995390296" lon="7.705802014097571">
        <ele>22.25</ele>
        <time>2017-06-20T14:04:28Z</time>
      </trkpt>
      <trkpt lat="62.525506010279059" lon="7.707532960921526">
        <ele>30.420000000000002</ele>
        <time>2017-06-20T14:04:38Z</time>
      </trkpt>
      <trkpt lat="62.52572201192379" lon="7.707857005298138">
        <ele>32.82</ele>
        <time>2017-06-20T14:04:41Z</time>
      </trkpt>
      <trkpt lat="62.525773979723454" lon="7.70790402777493">
        <ele>32.82</ele>
        <time>2017-06-20T14:04:42Z</time>
      </trkpt>
      <trkpt lat="62.525834999978542" lon="7.70790402777493">
        <ele>32.82</ele>
        <time>2017-06-20T14:04:43Z</time>
      </trkpt>
      <trkpt lat="62.525902977213264" lon="7.707862034440041">
        <ele>32.82</ele>
        <time>2017-06-20T14:04:44Z</time>
      </trkpt>
      <trkpt lat="62.525977995246649" lon="7.707776036113501">
        <ele>33.299999999999997</ele>
        <time>2017-06-20T14:04:45Z</time>
      </trkpt>
      <trkpt lat="62.526049995794892" lon="7.707657013088465">
        <ele>33.299999999999997</ele>
        <time>2017-06-20T14:04:46Z</time>
      </trkpt>
      <trkpt lat="62.526126019656658" lon="7.70751996897161">
        <ele>33.299999999999997</ele>
        <time>2017-06-20T14:04:47Z</time>
      </trkpt>
      <trkpt lat="62.526359958574176" lon="7.706992998719215">
        <ele>33.780000000000001</ele>
        <time>2017-06-20T14:04:50Z</time>
      </trkpt>
      <trkpt lat="62.526417039334774" lon="7.706772973760963">
        <ele>33.780000000000001</ele>
        <time>2017-06-20T14:04:51Z</time>
      </trkpt>
      <trkpt lat="62.526462972164154" lon="7.706527970731258">
        <ele>33.780000000000001</ele>
        <time>2017-06-20T14:04:52Z</time>
      </trkpt>
      <trkpt lat="62.526501026004553" lon="7.706257989630103">
        <ele>33.780000000000001</ele>
        <time>2017-06-20T14:04:53Z</time>
      </trkpt>
      <trkpt lat="62.526533966884017" lon="7.705966969951987">
        <ele>33.780000000000001</ele>
        <time>2017-06-20T14:04:54Z</time>
      </trkpt>
      <trkpt lat="62.526561040431261" lon="7.705658013001084">
        <ele>33.780000000000001</ele>
        <time>2017-06-20T14:04:55Z</time>
      </trkpt>
      <trkpt lat="62.526973010972142" lon="7.703008996322751">
        <ele>40.509999999999998</ele>
        <time>2017-06-20T14:05:04Z</time>
      </trkpt>
      <trkpt lat="62.528046984225512" lon="7.70036299712956">
        <ele>40.030000000000001</ele>
        <time>2017-06-20T14:05:14Z</time>
      </trkpt>
      <trkpt lat="62.529469979926944" lon="7.697287006303668">
        <ele>41.469999999999999</ele>
        <time>2017-06-20T14:05:26Z</time>
      </trkpt>
      <trkpt lat="62.529595959931612" lon="7.697153985500336">
        <ele>41.950000000000003</ele>
        <time>2017-06-20T14:05:27Z</time>
      </trkpt>
      <trkpt lat="62.529720012098551" lon="7.697079973295331">
        <ele>41.950000000000003</ele>
        <time>2017-06-20T14:05:28Z</time>
      </trkpt>
      <trkpt lat="62.529843980446458" lon="7.697047032415867">
        <ele>42.439999999999998</ele>
        <time>2017-06-20T14:05:29Z</time>
      </trkpt>
      <trkpt lat="62.529972977936268" lon="7.697048038244247">
        <ele>42.920000000000002</ele>
        <time>2017-06-20T14:05:30Z</time>
      </trkpt>
      <trkpt lat="62.530096024274826" lon="7.697107968851924">
        <ele>43.399999999999999</ele>
        <time>2017-06-20T14:05:31Z</time>
      </trkpt>
      <trkpt lat="62.530222004279494" lon="7.69720503129065">
        <ele>43.399999999999999</ele>
        <time>2017-06-20T14:05:32Z</time>
      </trkpt>
      <trkpt lat="62.530345972627401" lon="7.697335034608841">
        <ele>43.399999999999999</ele>
        <time>2017-06-20T14:05:33Z</time>
      </trkpt>
      <trkpt lat="62.530468013137579" lon="7.697473000735045">
        <ele>43.880000000000003</ele>
        <time>2017-06-20T14:05:34Z</time>
      </trkpt>
      <trkpt lat="62.530830027535558" lon="7.697826968505979">
        <ele>45.32</ele>
        <time>2017-06-20T14:05:37Z</time>
      </trkpt>
      <trkpt lat="62.530951984226704" lon="7.697907015681267">
        <ele>45.32</ele>
        <time>2017-06-20T14:05:38Z</time>
      </trkpt>
      <trkpt lat="62.531082993373275" lon="7.697960995137692">
        <ele>45.799999999999997</ele>
        <time>2017-06-20T14:05:39Z</time>
      </trkpt>
      <trkpt lat="62.531216014176607" lon="7.697993014007807">
        <ele>45.799999999999997</ele>
        <time>2017-06-20T14:05:40Z</time>
      </trkpt>
      <trkpt lat="62.53135297447443" lon="7.698006005957723">
        <ele>45.799999999999997</ele>
        <time>2017-06-20T14:05:41Z</time>
      </trkpt>
      <trkpt lat="62.531493036076427" lon="7.697997959330678">
        <ele>45.799999999999997</ele>
        <time>2017-06-20T14:05:42Z</time>
      </trkpt>
      <trkpt lat="62.531637959182262" lon="7.697972981259227">
        <ele>45.799999999999997</ele>
        <time>2017-06-20T14:05:43Z</time>
      </trkpt>
      <trkpt lat="62.533318027853966" lon="7.697641979902983">
        <ele>53.490000000000002</ele>
        <time>2017-06-20T14:05:54Z</time>
      </trkpt>
      <trkpt lat="62.535055009648204" lon="7.697823029011488">
        <ele>45.32</ele>
        <time>2017-06-20T14:06:06Z</time>
      </trkpt>
      <trkpt lat="62.536287987604737" lon="7.698380006477237">
        <ele>35.710000000000001</ele>
        <time>2017-06-20T14:06:15Z</time>
      </trkpt>
      <trkpt lat="62.536397958174348" lon="7.698503974825144">
        <ele>35.229999999999997</ele>
        <time>2017-06-20T14:06:16Z</time>
      </trkpt>
      <trkpt lat="62.536498038098216" lon="7.698642024770379">
        <ele>33.780000000000001</ele>
        <time>2017-06-20T14:06:17Z</time>
      </trkpt>
      <trkpt lat="62.536675985902548" lon="7.698892978951335">
        <ele>31.379999999999999</ele>
        <time>2017-06-20T14:06:19Z</time>
      </trkpt>
      <trkpt lat="62.536763995885849" lon="7.698953999206424">
        <ele>28.98</ele>
        <time>2017-06-20T14:06:20Z</time>
      </trkpt>
      <trkpt lat="62.536859968677163" lon="7.698978977277875">
        <ele>28.02</ele>
        <time>2017-06-20T14:06:21Z</time>
      </trkpt>
      <trkpt lat="62.536958958953619" lon="7.698969002813101">
        <ele>26.57</ele>
        <time>2017-06-20T14:06:22Z</time>
      </trkpt>
      <trkpt lat="62.537059038877487" lon="7.698908988386393">
        <ele>25.609999999999999</ele>
        <time>2017-06-20T14:06:23Z</time>
      </trkpt>
      <trkpt lat="62.537142019718885" lon="7.69877202808857">
        <ele>24.170000000000002</ele>
        <time>2017-06-20T14:06:24Z</time>
      </trkpt>
      <trkpt lat="62.537214020267129" lon="7.698585027828813">
        <ele>23.690000000000001</ele>
        <time>2017-06-20T14:06:25Z</time>
      </trkpt>
      <trkpt lat="62.537285014986992" lon="7.698363997042179">
        <ele>23.210000000000001</ele>
        <time>2017-06-20T14:06:26Z</time>
      </trkpt>
      <trkpt lat="62.537353998050094" lon="7.698112959042192">
        <ele>22.25</ele>
        <time>2017-06-20T14:06:27Z</time>
      </trkpt>
      <trkpt lat="62.537552984431386" lon="7.697310978546739">
        <ele>20.32</ele>
        <time>2017-06-20T14:06:30Z</time>
      </trkpt>
      <trkpt lat="62.537626996636391" lon="7.697086008265615">
        <ele>19.359999999999999</ele>
        <time>2017-06-20T14:06:31Z</time>
      </trkpt>
      <trkpt lat="62.537716012448072" lon="7.696915017440915">
        <ele>18.879999999999999</ele>
        <time>2017-06-20T14:06:32Z</time>
      </trkpt>
      <trkpt lat="62.537809973582625" lon="7.696783002465963">
        <ele>17.440000000000001</ele>
        <time>2017-06-20T14:06:33Z</time>
      </trkpt>
      <trkpt lat="62.537928996607661" lon="7.696700021624565">
        <ele>16.48</ele>
        <time>2017-06-20T14:06:34Z</time>
      </trkpt>
      <trkpt lat="62.538060005754232" lon="7.696656016632915">
        <ele>15.039999999999999</ele>
        <time>2017-06-20T14:06:35Z</time>
      </trkpt>
      <trkpt lat="62.5382050126791" lon="7.696658028289676">
        <ele>14.56</ele>
        <time>2017-06-20T14:06:36Z</time>
      </trkpt>
      <trkpt lat="62.538359994068742" lon="7.696703039109707">
        <ele>13.6</ele>
        <time>2017-06-20T14:06:37Z</time>
      </trkpt>
      <trkpt lat="62.538523022085428" lon="7.696759030222893">
        <ele>12.630000000000001</ele>
        <time>2017-06-20T14:06:38Z</time>
      </trkpt>
      <trkpt lat="62.539916010573506" lon="7.69711802713573">
        <ele>10.23</ele>
        <time>2017-06-20T14:06:46Z</time>
      </trkpt>
      <trkpt lat="62.540077026933432" lon="7.697063041850925">
        <ele>9.75</ele>
        <time>2017-06-20T14:06:47Z</time>
      </trkpt>
      <trkpt lat="62.540237037464976" lon="7.69696899689734">
        <ele>9.75</ele>
        <time>2017-06-20T14:06:48Z</time>
      </trkpt>
      <trkpt lat="62.541304975748062" lon="7.696191994473338">
        <ele>7.35</ele>
        <time>2017-06-20T14:06:55Z</time>
      </trkpt>
      <trkpt lat="62.541464986279607" lon="7.696155030280352">
        <ele>7.35</ele>
        <time>2017-06-20T14:06:56Z</time>
      </trkpt>
      <trkpt lat="62.541629020124674" lon="7.696156958118081">
        <ele>7.35</ele>
        <time>2017-06-20T14:06:57Z</time>
      </trkpt>
      <trkpt lat="62.54179498180747" lon="7.696205992251635">
        <ele>7.35</ele>
        <time>2017-06-20T14:06:58Z</time>
      </trkpt>
      <trkpt lat="62.54196303896606" lon="7.696280004456639">
        <ele>7.35</ele>
        <time>2017-06-20T14:06:59Z</time>
      </trkpt>
      <trkpt lat="62.542134029790759" lon="7.696382012218237">
        <ele>8.310000000000001</ele>
        <time>2017-06-20T14:07:00Z</time>
      </trkpt>
      <trkpt lat="62.544442992657423" lon="7.698113964870572">
        <ele>6.39</ele>
        <time>2017-06-20T14:07:13Z</time>
      </trkpt>
      <trkpt lat="62.545264000073075" lon="7.698808992281556">
        <ele>3.98</ele>
        <time>2017-06-20T14:07:18Z</time>
      </trkpt>
      <trkpt lat="62.545395009219646" lon="7.698984006419778">
        <ele>3.98</ele>
        <time>2017-06-20T14:07:19Z</time>
      </trkpt>
      <trkpt lat="62.545505985617638" lon="7.699196990579367">
        <ele>3.98</ele>
        <time>2017-06-20T14:07:20Z</time>
      </trkpt>
      <trkpt lat="62.545606987550855" lon="7.699437970295548">
        <ele>4.46</ele>
        <time>2017-06-20T14:07:21Z</time>
      </trkpt>
      <trkpt lat="62.545701032504439" lon="7.699695965275168">
        <ele>5.42</ele>
        <time>2017-06-20T14:07:22Z</time>
      </trkpt>
      <trkpt lat="62.546014012768865" lon="7.700440026819706">
        <ele>4.94</ele>
        <time>2017-06-20T14:07:25Z</time>
      </trkpt>
      <trkpt lat="62.546138986945152" lon="7.700647981837392">
        <ele>4.46</ele>
        <time>2017-06-20T14:07:26Z</time>
      </trkpt>
      <trkpt lat="62.546276031062007" lon="7.700840011239052">
        <ele>4.46</ele>
        <time>2017-06-20T14:07:27Z</time>
      </trkpt>
      <trkpt lat="62.547995997592807" lon="7.702846974134445">
        <ele>2.54</ele>
        <time>2017-06-20T14:07:38Z</time>
      </trkpt>
      <trkpt lat="62.549501974135637" lon="7.704124040901661">
        <ele>-4.67</ele>
        <time>2017-06-20T14:07:48Z</time>
      </trkpt>
      <trkpt lat="62.550729000940919" lon="7.704440960660577">
        <ele>-4.67</ele>
        <time>2017-06-20T14:07:56Z</time>
      </trkpt>
      <trkpt lat="62.551780007779598" lon="7.704451018944383">
        <ele>-5.63</ele>
        <time>2017-06-20T14:08:06Z</time>
      </trkpt>
      <trkpt lat="62.551863994449377" lon="7.704422017559409">
        <ele>-5.63</ele>
        <time>2017-06-20T14:08:07Z</time>
      </trkpt>
      <trkpt lat="62.551941024139524" lon="7.704368960112333">
        <ele>-5.63</ele>
        <time>2017-06-20T14:08:08Z</time>
      </trkpt>
      <trkpt lat="62.552016964182258" lon="7.704291008412838">
        <ele>-5.63</ele>
        <time>2017-06-20T14:08:09Z</time>
      </trkpt>
      <trkpt lat="62.552085025236011" lon="7.70418799482286">
        <ele>-5.63</ele>
        <time>2017-06-20T14:08:10Z</time>
      </trkpt>
      <trkpt lat="62.552131963893771" lon="7.704040976241231">
        <ele>-6.11</ele>
        <time>2017-06-20T14:08:11Z</time>
      </trkpt>
      <trkpt lat="62.552175968885422" lon="7.703881971538067">
        <ele>-5.63</ele>
        <time>2017-06-20T14:08:12Z</time>
      </trkpt>
      <trkpt lat="62.552217040210962" lon="7.703710980713368">
        <ele>-5.15</ele>
        <time>2017-06-20T14:08:13Z</time>
      </trkpt>
      <trkpt lat="62.552844006568193" lon="7.700984012335539">
        <ele>-0.34</ele>
        <time>2017-06-20T14:08:26Z</time>
      </trkpt>
      <trkpt lat="62.55393398925662" lon="7.696087975054979">
        <ele>-2.27</ele>
        <time>2017-06-20T14:08:45Z</time>
      </trkpt>
      <trkpt lat="62.55416901782155" lon="7.695384984835982">
        <ele>-3.23</ele>
        <time>2017-06-20T14:08:48Z</time>
      </trkpt>
      <trkpt lat="62.554260967299342" lon="7.695190021768212">
        <ele>-3.71</ele>
        <time>2017-06-20T14:08:49Z</time>
      </trkpt>
      <trkpt lat="62.554355012252927" lon="7.69501400180161">
        <ele>-3.71</ele>
        <time>2017-06-20T14:08:50Z</time>
      </trkpt>
      <trkpt lat="62.55490000359714" lon="7.694184025749564">
        <ele>-3.23</ele>
        <time>2017-06-20T14:08:56Z</time>
      </trkpt>
      <trkpt lat="62.554969992488623" lon="7.693999959155917">
        <ele>-2.27</ele>
        <time>2017-06-20T14:08:57Z</time>
      </trkpt>
      <trkpt lat="62.555026989430189" lon="7.693784963339567">
        <ele>-0.82</ele>
        <time>2017-06-20T14:08:58Z</time>
      </trkpt>
      <trkpt lat="62.555076023563743" lon="7.693553036078811">
        <ele>-0.82</ele>
        <time>2017-06-20T14:08:59Z</time>
      </trkpt>
      <trkpt lat="62.555117011070251" lon="7.693300992250443">
        <ele>-0.82</ele>
        <time>2017-06-20T14:09:00Z</time>
      </trkpt>
      <trkpt lat="62.555151041597128" lon="7.693028999492526">
        <ele>-0.82</ele>
        <time>2017-06-20T14:09:01Z</time>
      </trkpt>
      <trkpt lat="62.555298982188106" lon="7.689754022285342">
        <ele>0.14</ele>
        <time>2017-06-20T14:09:12Z</time>
      </trkpt>
      <trkpt lat="62.555649010464549" lon="7.68620596267283">
        <ele>0.62</ele>
        <time>2017-06-20T14:09:24Z</time>
      </trkpt>
      <trkpt lat="62.556039020419121" lon="7.682839035987854">
        <ele>3.02</ele>
        <time>2017-06-20T14:09:35Z</time>
      </trkpt>
      <trkpt lat="62.5561039801687" lon="7.681375974789262">
        <ele>4.46</ele>
        <time>2017-06-20T14:09:42Z</time>
      </trkpt>
      <trkpt lat="62.556161982938647" lon="7.681127032265067">
        <ele>4.46</ele>
        <time>2017-06-20T14:09:49Z</time>
      </trkpt>
      <trkpt lat="62.556190984323621" lon="7.681094007566571">
        <ele>4.46</ele>
        <time>2017-06-20T14:09:57Z</time>
      </trkpt>
      <trkpt lat="62.556228032335639" lon="7.681104987859726">
        <ele>4.94</ele>
        <time>2017-06-20T14:09:58Z</time>
      </trkpt>
      <trkpt lat="62.556284023448825" lon="7.681128960102797">
        <ele>4.46</ele>
        <time>2017-06-20T14:09:59Z</time>
      </trkpt>
      <trkpt lat="62.556353006511927" lon="7.681174976751208">
        <ele>4.46</ele>
        <time>2017-06-20T14:10:00Z</time>
      </trkpt>
      <trkpt lat="62.556430958211422" lon="7.681247983127832">
        <ele>4.46</ele>
        <time>2017-06-20T14:10:01Z</time>
      </trkpt>
      <trkpt lat="62.557590007781982" lon="7.68214400857687">
        <ele>3.5</ele>
        <time>2017-06-20T14:10:12Z</time>
      </trkpt>
      <trkpt lat="62.559677017852664" lon="7.683784011751413">
        <ele>0.62</ele>
        <time>2017-06-20T14:10:30Z</time>
      </trkpt>
      <trkpt lat="62.561249965801835" lon="7.685120003297925">
        <ele>5.42</ele>
        <time>2017-06-20T14:10:43Z</time>
      </trkpt>
      <trkpt lat="62.561351973563433" lon="7.685296023264527">
        <ele>6.39</ele>
        <time>2017-06-20T14:10:44Z</time>
      </trkpt>
      <trkpt lat="62.561446018517017" lon="7.685500960797072">
        <ele>6.87</ele>
        <time>2017-06-20T14:10:45Z</time>
      </trkpt>
      <trkpt lat="62.561532016843557" lon="7.685716962441802">
        <ele>7.35</ele>
        <time>2017-06-20T14:10:46Z</time>
      </trkpt>
      <trkpt lat="62.561607034876943" lon="7.685959031805396">
        <ele>8.310000000000001</ele>
        <time>2017-06-20T14:10:47Z</time>
      </trkpt>
      <trkpt lat="62.561669982969761" lon="7.686208980157971">
        <ele>9.27</ele>
        <time>2017-06-20T14:10:48Z</time>
      </trkpt>
      <trkpt lat="62.561718011274934" lon="7.686466975137591">
        <ele>9.75</ele>
        <time>2017-06-20T14:10:49Z</time>
      </trkpt>
      <trkpt lat="62.561755981296301" lon="7.686731005087495">
        <ele>10.710000000000001</ele>
        <time>2017-06-20T14:10:50Z</time>
      </trkpt>
      <trkpt lat="62.561786994338036" lon="7.686992017552257">
        <ele>11.19</ele>
        <time>2017-06-20T14:10:51Z</time>
      </trkpt>
      <trkpt lat="62.562168035656214" lon="7.689150022342801">
        <ele>15.52</ele>
        <time>2017-06-20T14:11:00Z</time>
      </trkpt>
      <trkpt lat="62.56246299482882" lon="7.689925013110042">
        <ele>16</ele>
        <time>2017-06-20T14:11:06Z</time>
      </trkpt>
      <trkpt lat="62.562491996213794" lon="7.690055016428232">
        <ele>16</ele>
        <time>2017-06-20T14:11:07Z</time>
      </trkpt>
      <trkpt lat="62.562629040330648" lon="7.690730011090636">
        <ele>16.48</ele>
        <time>2017-06-20T14:11:11Z</time>
      </trkpt>
      <trkpt lat="62.562649995088577" lon="7.690944001078606">
        <ele>16.48</ele>
        <time>2017-06-20T14:11:12Z</time>
      </trkpt>
      <trkpt lat="62.562738005071878" lon="7.691655037924647">
        <ele>17.920000000000002</ele>
        <time>2017-06-20T14:11:15Z</time>
      </trkpt>
      <trkpt lat="62.562786033377051" lon="7.691906997933984">
        <ele>18.399999999999999</ele>
        <time>2017-06-20T14:11:16Z</time>
      </trkpt>
      <trkpt lat="62.566387988626957" lon="7.701035980135202">
        <ele>47.240000000000002</ele>
        <time>2017-06-20T14:11:46Z</time>
      </trkpt>
      <trkpt lat="62.566728964447975" lon="7.704872963950038">
        <ele>45.799999999999997</ele>
        <time>2017-06-20T14:11:55Z</time>
      </trkpt>
      <trkpt lat="62.567221987992525" lon="7.710824031382799">
        <ele>41.469999999999999</ele>
        <time>2017-06-20T14:12:07Z</time>
      </trkpt>
      <trkpt lat="62.567827999591827" lon="7.718739984557033">
        <ele>35.229999999999997</ele>
        <time>2017-06-20T14:12:22Z</time>
      </trkpt>
      <trkpt lat="62.568083982914686" lon="7.72803601808846">
        <ele>30.899999999999999</ele>
        <time>2017-06-20T14:12:40Z</time>
      </trkpt>
      <trkpt lat="62.567783994600177" lon="7.733679972589016">
        <ele>27.050000000000001</ele>
        <time>2017-06-20T14:12:51Z</time>
      </trkpt>
      <trkpt lat="62.566929962486029" lon="7.741328962147236">
        <ele>13.119999999999999</ele>
        <time>2017-06-20T14:13:06Z</time>
      </trkpt>
      <trkpt lat="62.566937003284693" lon="7.745459983125329">
        <ele>6.87</ele>
        <time>2017-06-20T14:13:14Z</time>
      </trkpt>
      <trkpt lat="62.5674460362643" lon="7.749416995793581">
        <ele>5.91</ele>
        <time>2017-06-20T14:13:22Z</time>
      </trkpt>
      <trkpt lat="62.568252962082624" lon="7.755074026063085">
        <ele>5.91</ele>
        <time>2017-06-20T14:13:34Z</time>
      </trkpt>
      <trkpt lat="62.568580023944378" lon="7.761600008234382">
        <ele>5.91</ele>
        <time>2017-06-20T14:13:47Z</time>
      </trkpt>
      <trkpt lat="62.569154016673565" lon="7.768824035301805">
        <ele>5.91</ele>
        <time>2017-06-20T14:14:01Z</time>
      </trkpt>
      <trkpt lat="62.569992961362004" lon="7.775728963315487">
        <ele>4.94</ele>
        <time>2017-06-20T14:14:15Z</time>
      </trkpt>
      <trkpt lat="62.570601990446448" lon="7.780226022005081">
        <ele>3.98</ele>
        <time>2017-06-20T14:14:26Z</time>
      </trkpt>
      <trkpt lat="62.571432972326875" lon="7.784069962799549">
        <ele>3.5</ele>
        <time>2017-06-20T14:14:38Z</time>
      </trkpt>
      <trkpt lat="62.572548016905785" lon="7.787296995520592">
        <ele>3.02</ele>
        <time>2017-06-20T14:14:49Z</time>
      </trkpt>
      <trkpt lat="62.573739001527429" lon="7.788884025067091">
        <ele>2.54</ele>
        <time>2017-06-20T14:14:57Z</time>
      </trkpt>
      <trkpt lat="62.574951024726033" lon="7.789122993126512">
        <ele>2.06</ele>
        <time>2017-06-20T14:15:04Z</time>
      </trkpt>
      <trkpt lat="62.576096998527646" lon="7.788258986547589">
        <ele>1.58</ele>
        <time>2017-06-20T14:15:11Z</time>
      </trkpt>
      <trkpt lat="62.576968967914581" lon="7.786381021142006">
        <ele>0.62</ele>
        <time>2017-06-20T14:15:18Z</time>
      </trkpt>
      <trkpt lat="62.577359983697534" lon="7.783844992518425">
        <ele>1.58</ele>
        <time>2017-06-20T14:15:25Z</time>
      </trkpt>
      <trkpt lat="62.577302986755967" lon="7.780693983659148">
        <ele>1.58</ele>
        <time>2017-06-20T14:15:33Z</time>
      </trkpt>
      <trkpt lat="62.57711498066783" lon="7.776539996266365">
        <ele>1.58</ele>
        <time>2017-06-20T14:15:42Z</time>
      </trkpt>
      <trkpt lat="62.576665040105581" lon="7.767270030453801">
        <ele>3.02</ele>
        <time>2017-06-20T14:16:02Z</time>
      </trkpt>
      <trkpt lat="62.576441997662187" lon="7.760889977216721">
        <ele>4.46</ele>
        <time>2017-06-20T14:16:16Z</time>
      </trkpt>
      <trkpt lat="62.576674008741975" lon="7.756644962355495">
        <ele>5.91</ele>
        <time>2017-06-20T14:16:25Z</time>
      </trkpt>
      <trkpt lat="62.577296029776335" lon="7.753536030650139">
        <ele>6.87</ele>
        <time>2017-06-20T14:16:32Z</time>
      </trkpt>
      <trkpt lat="62.578333960846066" lon="7.751128999516368">
        <ele>5.91</ele>
        <time>2017-06-20T14:16:39Z</time>
      </trkpt>
      <trkpt lat="62.580045964568853" lon="7.748299017548561">
        <ele>5.42</ele>
        <time>2017-06-20T14:16:49Z</time>
      </trkpt>
      <trkpt lat="62.581018013879657" lon="7.745387982577086">
        <ele>5.42</ele>
        <time>2017-06-20T14:16:57Z</time>
      </trkpt>
      <trkpt lat="62.58214202709496" lon="7.741087982431054">
        <ele>6.39</ele>
        <time>2017-06-20T14:17:08Z</time>
      </trkpt>
      <trkpt lat="62.583507020026445" lon="7.738121040165424">
        <ele>5.91</ele>
        <time>2017-06-20T14:17:17Z</time>
      </trkpt>
      <trkpt lat="62.584303971379995" lon="7.735409997403622">
        <ele>6.39</ele>
        <time>2017-06-20T14:17:24Z</time>
      </trkpt>
      <trkpt lat="62.584705967456102" lon="7.731978027150035">
        <ele>7.35</ele>
        <time>2017-06-20T14:17:32Z</time>
      </trkpt>
      <trkpt lat="62.584757013246417" lon="7.727589011192322">
        <ele>9.27</ele>
        <time>2017-06-20T14:17:42Z</time>
      </trkpt>
      <trkpt lat="62.584343031048775" lon="7.723155990242958">
        <ele>10.23</ele>
        <time>2017-06-20T14:17:52Z</time>
      </trkpt>
      <trkpt lat="62.583453040570021" lon="7.716104965656996">
        <ele>12.15</ele>
        <time>2017-06-20T14:18:07Z</time>
      </trkpt>
      <trkpt lat="62.582584004849195" lon="7.709786016494036">
        <ele>9.75</ele>
        <time>2017-06-20T14:18:20Z</time>
      </trkpt>
      <trkpt lat="62.581923007965088" lon="7.704500975087285">
        <ele>9.75</ele>
        <time>2017-06-20T14:18:31Z</time>
      </trkpt>
      <trkpt lat="62.581364018842578" lon="7.697115009650588">
        <ele>13.6</ele>
        <time>2017-06-20T14:18:46Z</time>
      </trkpt>
      <trkpt lat="62.58048802614212" lon="7.688679965212941">
        <ele>12.15</ele>
        <time>2017-06-20T14:19:03Z</time>
      </trkpt>
      <trkpt lat="62.579089002683759" lon="7.680957969278097">
        <ele>10.710000000000001</ele>
        <time>2017-06-20T14:19:19Z</time>
      </trkpt>
      <trkpt lat="62.577600963413715" lon="7.674460988491774">
        <ele>7.35</ele>
        <time>2017-06-20T14:19:33Z</time>
      </trkpt>
      <trkpt lat="62.576926974579692" lon="7.670797007158399">
        <ele>7.83</ele>
        <time>2017-06-20T14:19:41Z</time>
      </trkpt>
      <trkpt lat="62.576640984043479" lon="7.667477019131184">
        <ele>7.35</ele>
        <time>2017-06-20T14:19:48Z</time>
      </trkpt>
      <trkpt lat="62.575787035748363" lon="7.662388030439615">
        <ele>6.87</ele>
        <time>2017-06-20T14:20:00Z</time>
      </trkpt>
      <trkpt lat="62.575270039960742" lon="7.659384962171316">
        <ele>4.94</ele>
        <time>2017-06-20T14:20:07Z</time>
      </trkpt>
      <trkpt lat="62.575171971693635" lon="7.658994030207396">
        <ele>4.46</ele>
        <time>2017-06-20T14:20:08Z</time>
      </trkpt>
      <trkpt lat="62.57505496032536" lon="7.658613994717598">
        <ele>4.46</ele>
        <time>2017-06-20T14:20:09Z</time>
      </trkpt>
      <trkpt lat="62.574930991977453" lon="7.658260026946664">
        <ele>3.98</ele>
        <time>2017-06-20T14:20:10Z</time>
      </trkpt>
      <trkpt lat="62.574792020022869" lon="7.657922990620136">
        <ele>3.98</ele>
        <time>2017-06-20T14:20:11Z</time>
      </trkpt>
      <trkpt lat="62.574639972299337" lon="7.657621996477246">
        <ele>3.98</ele>
        <time>2017-06-20T14:20:12Z</time>
      </trkpt>
      <trkpt lat="62.574478033930063" lon="7.657339023426175">
        <ele>4.46</ele>
        <time>2017-06-20T14:20:13Z</time>
      </trkpt>
      <trkpt lat="62.574309976771474" lon="7.657091002911329">
        <ele>4.46</ele>
        <time>2017-06-20T14:20:14Z</time>
      </trkpt>
      <trkpt lat="62.574135968461633" lon="7.656875001266599">
        <ele>4.46</ele>
        <time>2017-06-20T14:20:15Z</time>
      </trkpt>
      <trkpt lat="62.573951985687017" lon="7.656685989350081">
        <ele>4.46</ele>
        <time>2017-06-20T14:20:16Z</time>
      </trkpt>
      <trkpt lat="62.572438968345523" lon="7.654776005074382">
        <ele>4.94</ele>
        <time>2017-06-20T14:20:25Z</time>
      </trkpt>
      <trkpt lat="62.571651991456747" lon="7.652304014191032">
        <ele>3.02</ele>
        <time>2017-06-20T14:20:32Z</time>
      </trkpt>
      <trkpt lat="62.57038900628686" lon="7.648230995982885">
        <ele>-1.79</ele>
        <time>2017-06-20T14:20:43Z</time>
      </trkpt>
      <trkpt lat="62.569408994168043" lon="7.645359020680189">
        <ele>-2.75</ele>
        <time>2017-06-20T14:20:51Z</time>
      </trkpt>
      <trkpt lat="62.569326013326645" lon="7.644979991018772">
        <ele>-2.27</ele>
        <time>2017-06-20T14:20:52Z</time>
      </trkpt>
      <trkpt lat="62.569278990849853" lon="7.64458897523582">
        <ele>-1.79</ele>
        <time>2017-06-20T14:20:53Z</time>
      </trkpt>
      <trkpt lat="62.569171031937003" lon="7.643347028642893">
        <ele>-0.82</ele>
        <time>2017-06-20T14:20:56Z</time>
      </trkpt>
      <trkpt lat="62.5691850297153" lon="7.642918964847922">
        <ele>-0.34</ele>
        <time>2017-06-20T14:20:57Z</time>
      </trkpt>
      <trkpt lat="62.569206990301609" lon="7.642496014013887">
        <ele>0.14</ele>
        <time>2017-06-20T14:20:58Z</time>
      </trkpt>
      <trkpt lat="62.569246971979737" lon="7.642077002674341">
        <ele>0.62</ele>
        <time>2017-06-20T14:20:59Z</time>
      </trkpt>
      <trkpt lat="62.569302041083574" lon="7.64166402630508">
        <ele>1.58</ele>
        <time>2017-06-20T14:21:00Z</time>
      </trkpt>
      <trkpt lat="62.569362977519631" lon="7.641252977773547">
        <ele>1.58</ele>
        <time>2017-06-20T14:21:01Z</time>
      </trkpt>
      <trkpt lat="62.569672018289566" lon="7.638773024082184">
        <ele>3.98</ele>
        <time>2017-06-20T14:21:07Z</time>
      </trkpt>
      <trkpt lat="62.569673024117947" lon="7.6383369974792">
        <ele>4.46</ele>
        <time>2017-06-20T14:21:08Z</time>
      </trkpt>
      <trkpt lat="62.569647040218115" lon="7.637898037210107">
        <ele>4.94</ele>
        <time>2017-06-20T14:21:09Z</time>
      </trkpt>
      <trkpt lat="62.569601023569703" lon="7.637464022263885">
        <ele>5.42</ele>
        <time>2017-06-20T14:21:10Z</time>
      </trkpt>
      <trkpt lat="62.569534974172711" lon="7.637060014531016">
        <ele>6.39</ele>
        <time>2017-06-20T14:21:11Z</time>
      </trkpt>
      <trkpt lat="62.569455010816455" lon="7.636666987091303">
        <ele>6.87</ele>
        <time>2017-06-20T14:21:12Z</time>
      </trkpt>
      <trkpt lat="62.569355014711618" lon="7.636288963258266">
        <ele>8.310000000000001</ele>
        <time>2017-06-20T14:21:13Z</time>
      </trkpt>
      <trkpt lat="62.56925200112164" lon="7.635927032679319">
        <ele>9.27</ele>
        <time>2017-06-20T14:21:14Z</time>
      </trkpt>
      <trkpt lat="62.568557979539037" lon="7.633616980165243">
        <ele>14.56</ele>
        <time>2017-06-20T14:21:21Z</time>
      </trkpt>
      <trkpt lat="62.568386988714337" lon="7.632664041593671">
        <ele>16.48</ele>
        <time>2017-06-20T14:21:24Z</time>
      </trkpt>
      <trkpt lat="62.568343989551067" lon="7.631999021396041">
        <ele>18.399999999999999</ele>
        <time>2017-06-20T14:21:26Z</time>
      </trkpt>
      <trkpt lat="62.568344995379448" lon="7.631663996726275">
        <ele>19.359999999999999</ele>
        <time>2017-06-20T14:21:27Z</time>
      </trkpt>
      <trkpt lat="62.568357987329364" lon="7.631337018683553">
        <ele>20.32</ele>
        <time>2017-06-20T14:21:28Z</time>
      </trkpt>
      <trkpt lat="62.568389000371099" lon="7.631019009277225">
        <ele>20.809999999999999</ele>
        <time>2017-06-20T14:21:29Z</time>
      </trkpt>
      <trkpt lat="62.568426970392466" lon="7.630705023184419">
        <ele>20.809999999999999</ele>
        <time>2017-06-20T14:21:30Z</time>
      </trkpt>
      <trkpt lat="62.568746991455555" lon="7.629157975316048">
        <ele>20.32</ele>
        <time>2017-06-20T14:21:35Z</time>
      </trkpt>
      <trkpt lat="62.568814968690276" lon="7.628910960629582">
        <ele>20.32</ele>
        <time>2017-06-20T14:21:36Z</time>
      </trkpt>
      <trkpt lat="62.568858973681927" lon="7.628640979528427">
        <ele>19.84</ele>
        <time>2017-06-20T14:21:37Z</time>
      </trkpt>
      <trkpt lat="62.568885963410139" lon="7.628370998427272">
        <ele>19.84</ele>
        <time>2017-06-20T14:21:38Z</time>
      </trkpt>
      <trkpt lat="62.568897027522326" lon="7.628088025376201">
        <ele>19.359999999999999</ele>
        <time>2017-06-20T14:21:39Z</time>
      </trkpt>
      <trkpt lat="62.568859979510307" lon="7.627813015133143">
        <ele>19.359999999999999</ele>
        <time>2017-06-20T14:21:40Z</time>
      </trkpt>
      <trkpt lat="62.56880197674036" lon="7.627558959648013">
        <ele>18.879999999999999</ele>
        <time>2017-06-20T14:21:41Z</time>
      </trkpt>
      <trkpt lat="62.568732993677258" lon="7.627314040437341">
        <ele>18.399999999999999</ele>
        <time>2017-06-20T14:21:42Z</time>
      </trkpt>
      <trkpt lat="62.568635009229183" lon="7.627063002437353">
        <ele>18.879999999999999</ele>
        <time>2017-06-20T14:21:43Z</time>
      </trkpt>
      <trkpt lat="62.568544987589121" lon="7.626801989972591">
        <ele>18.399999999999999</ele>
        <time>2017-06-20T14:21:44Z</time>
      </trkpt>
      <trkpt lat="62.568459995090961" lon="7.626499990001321">
        <ele>18.399999999999999</ele>
        <time>2017-06-20T14:21:45Z</time>
      </trkpt>
      <trkpt lat="62.56839101202786" lon="7.626180974766612">
        <ele>18.399999999999999</ele>
        <time>2017-06-20T14:21:46Z</time>
      </trkpt>
      <trkpt lat="62.568336026743054" lon="7.62583396397531">
        <ele>18.879999999999999</ele>
        <time>2017-06-20T14:21:47Z</time>
      </trkpt>
      <trkpt lat="62.568318005651236" lon="7.625462980940938">
        <ele>19.359999999999999</ele>
        <time>2017-06-20T14:21:48Z</time>
      </trkpt>
      <trkpt lat="62.568311970680952" lon="7.625072970986366">
        <ele>19.359999999999999</ele>
        <time>2017-06-20T14:21:49Z</time>
      </trkpt>
      <trkpt lat="62.568320017307997" lon="7.624664017930627">
        <ele>19.84</ele>
        <time>2017-06-20T14:21:50Z</time>
      </trkpt>
      <trkpt lat="62.568337032571435" lon="7.624268978834152">
        <ele>20.32</ele>
        <time>2017-06-20T14:21:51Z</time>
      </trkpt>
      <trkpt lat="62.568335020914674" lon="7.623891960829496">
        <ele>20.32</ele>
        <time>2017-06-20T14:21:52Z</time>
      </trkpt>
      <trkpt lat="62.568329991772771" lon="7.623532041907311">
        <ele>21.289999999999999</ele>
        <time>2017-06-20T14:21:53Z</time>
      </trkpt>
      <trkpt lat="62.568296967074275" lon="7.623212020844221">
        <ele>21.77</ele>
        <time>2017-06-20T14:21:54Z</time>
      </trkpt>
      <trkpt lat="62.568226978182793" lon="7.622907003387809">
        <ele>22.25</ele>
        <time>2017-06-20T14:21:55Z</time>
      </trkpt>
      <trkpt lat="62.568147014826536" lon="7.622610032558441">
        <ele>22.73</ele>
        <time>2017-06-20T14:21:56Z</time>
      </trkpt>
      <trkpt lat="62.567993961274624" lon="7.621656004339457">
        <ele>25.129999999999999</ele>
        <time>2017-06-20T14:21:59Z</time>
      </trkpt>
      <trkpt lat="62.567969989031553" lon="7.621314022690058">
        <ele>26.09</ele>
        <time>2017-06-20T14:22:00Z</time>
      </trkpt>
      <trkpt lat="62.567987004294991" lon="7.620957037433982">
        <ele>27.050000000000001</ele>
        <time>2017-06-20T14:22:01Z</time>
      </trkpt>
      <trkpt lat="62.568075014278293" lon="7.619205974042416">
        <ele>31.859999999999999</ele>
        <time>2017-06-20T14:22:06Z</time>
      </trkpt>
      <trkpt lat="62.568061016499996" lon="7.618927024304867">
        <ele>32.340000000000003</ele>
        <time>2017-06-20T14:22:07Z</time>
      </trkpt>
      <trkpt lat="62.568031009286642" lon="7.61865695938468">
        <ele>33.299999999999997</ele>
        <time>2017-06-20T14:22:08Z</time>
      </trkpt>
      <trkpt lat="62.567988010123372" lon="7.618393013253808">
        <ele>33.780000000000001</ele>
        <time>2017-06-20T14:22:09Z</time>
      </trkpt>
      <trkpt lat="62.56794098764658" lon="7.61811900883913">
        <ele>34.259999999999998</ele>
        <time>2017-06-20T14:22:10Z</time>
      </trkpt>
      <trkpt lat="62.567415023222566" lon="7.615702003240585">
        <ele>39.549999999999997</ele>
        <time>2017-06-20T14:22:18Z</time>
      </trkpt>
      <trkpt lat="62.566407015547156" lon="7.61188899166882">
        <ele>49.159999999999997</ele>
        <time>2017-06-20T14:22:30Z</time>
      </trkpt>
      <trkpt lat="62.566230995580554" lon="7.61117996647954">
        <ele>53.009999999999998</ele>
        <time>2017-06-20T14:22:32Z</time>
      </trkpt>
      <trkpt lat="62.566173998638988" lon="7.610796997323632">
        <ele>53.490000000000002</ele>
        <time>2017-06-20T14:22:33Z</time>
      </trkpt>
      <trkpt lat="62.566058998927474" lon="7.610047990456224">
        <ele>55.409999999999997</ele>
        <time>2017-06-20T14:22:35Z</time>
      </trkpt>
      <trkpt lat="62.565981969237328" lon="7.609682958573103">
        <ele>56.859999999999999</ele>
        <time>2017-06-20T14:22:36Z</time>
      </trkpt>
      <trkpt lat="62.565413005650043" lon="7.607207028195262">
        <ele>66.469999999999999</ele>
        <time>2017-06-20T14:22:44Z</time>
      </trkpt>
      <trkpt lat="62.565329018980265" lon="7.606357019394636">
        <ele>70.310000000000002</ele>
        <time>2017-06-20T14:22:47Z</time>
      </trkpt>
      <trkpt lat="62.565339999273419" lon="7.606076980009675">
        <ele>71.269999999999996</ele>
        <time>2017-06-20T14:22:48Z</time>
      </trkpt>
      <trkpt lat="62.565376963466406" lon="7.605805993080139">
        <ele>72.239999999999995</ele>
        <time>2017-06-20T14:22:49Z</time>
      </trkpt>
      <trkpt lat="62.565444018691778" lon="7.605546992272139">
        <ele>72.719999999999999</ele>
        <time>2017-06-20T14:22:50Z</time>
      </trkpt>
      <trkpt lat="62.565517025068402" lon="7.60531498119235">
        <ele>73.200000000000003</ele>
        <time>2017-06-20T14:22:51Z</time>
      </trkpt>
      <trkpt lat="62.565617021173239" lon="7.605112977325916">
        <ele>73.680000000000007</ele>
        <time>2017-06-20T14:22:52Z</time>
      </trkpt>
      <trkpt lat="62.565717017278075" lon="7.604922037571669">
        <ele>74.159999999999997</ele>
        <time>2017-06-20T14:22:53Z</time>
      </trkpt>
      <trkpt lat="62.567643010988832" lon="7.601974038407207">
        <ele>78</ele>
        <time>2017-06-20T14:23:06Z</time>
      </trkpt>
      <trkpt lat="62.568492013961077" lon="7.599979983642697">
        <ele>71.269999999999996</ele>
        <time>2017-06-20T14:23:13Z</time>
      </trkpt>
      <trkpt lat="62.568581029772758" lon="7.599675972014666">
        <ele>71.269999999999996</ele>
        <time>2017-06-20T14:23:14Z</time>
      </trkpt>
      <trkpt lat="62.568640960380435" lon="7.59938595816493">
        <ele>70.790000000000006</ele>
        <time>2017-06-20T14:23:15Z</time>
      </trkpt>
      <trkpt lat="62.568611036986113" lon="7.599097033962607">
        <ele>69.349999999999994</ele>
        <time>2017-06-20T14:23:16Z</time>
      </trkpt>
      <trkpt lat="62.568597961217165" lon="7.598750023171306">
        <ele>68.870000000000005</ele>
        <time>2017-06-20T14:23:17Z</time>
      </trkpt>
      <trkpt lat="62.568554962053895" lon="7.598410975188017">
        <ele>68.390000000000001</ele>
        <time>2017-06-20T14:23:18Z</time>
      </trkpt>
      <trkpt lat="62.568514980375767" lon="7.598075028508902">
        <ele>68.390000000000001</ele>
        <time>2017-06-20T14:23:19Z</time>
      </trkpt>
      <trkpt lat="62.568453038111329" lon="7.597735980525613">
        <ele>67.909999999999997</ele>
        <time>2017-06-20T14:23:20Z</time>
      </trkpt>
      <trkpt lat="62.568368967622519" lon="7.597403973340988">
        <ele>67.909999999999997</ele>
        <time>2017-06-20T14:23:21Z</time>
      </trkpt>
      <trkpt lat="62.567566987127066" lon="7.593040019273758">
        <ele>76.079999999999998</ele>
        <time>2017-06-20T14:23:33Z</time>
      </trkpt>
      <trkpt lat="62.566971033811569" lon="7.589512998238206">
        <ele>79.450000000000003</ele>
        <time>2017-06-20T14:23:44Z</time>
      </trkpt>
      <trkpt lat="62.566923005506396" lon="7.588874967768788">
        <ele>80.409999999999997</ele>
        <time>2017-06-20T14:23:46Z</time>
      </trkpt>
      <trkpt lat="62.566913031041622" lon="7.588536003604531">
        <ele>81.370000000000005</ele>
        <time>2017-06-20T14:23:47Z</time>
      </trkpt>
      <trkpt lat="62.566923005506396" lon="7.588198967278004">
        <ele>82.810000000000002</ele>
        <time>2017-06-20T14:23:48Z</time>
      </trkpt>
      <trkpt lat="62.567034987732768" lon="7.587190959602594">
        <ele>85.689999999999998</ele>
        <time>2017-06-20T14:23:51Z</time>
      </trkpt>
      <trkpt lat="62.56712400354445" lon="7.586866999045014">
        <ele>86.180000000000007</ele>
        <time>2017-06-20T14:23:52Z</time>
      </trkpt>
      <trkpt lat="62.567214025184512" lon="7.586551001295447">
        <ele>86.659999999999997</ele>
        <time>2017-06-20T14:23:53Z</time>
      </trkpt>
      <trkpt lat="62.567302035167813" lon="7.586246989667416">
        <ele>87.620000000000005</ele>
        <time>2017-06-20T14:23:54Z</time>
      </trkpt>
      <trkpt lat="62.567419968545437" lon="7.585954964160919">
        <ele>88.099999999999994</ele>
        <time>2017-06-20T14:23:55Z</time>
      </trkpt>
      <trkpt lat="62.567537985742092" lon="7.585658999159932">
        <ele>89.540000000000006</ele>
        <time>2017-06-20T14:23:56Z</time>
      </trkpt>
      <trkpt lat="62.568740034475923" lon="7.582206996157765">
        <ele>103.48</ele>
        <time>2017-06-20T14:24:07Z</time>
      </trkpt>
      <trkpt lat="62.569178994745016" lon="7.578959008678794">
        <ele>97.709999999999994</ele>
        <time>2017-06-20T14:24:15Z</time>
      </trkpt>
      <trkpt lat="62.569239009171724" lon="7.575882012024522">
        <ele>90.980000000000004</ele>
        <time>2017-06-20T14:24:22Z</time>
      </trkpt>
      <trkpt lat="62.569577973335981" lon="7.573399040848017">
        <ele>85.209999999999994</ele>
        <time>2017-06-20T14:24:28Z</time>
      </trkpt>
      <trkpt lat="62.5704750046134" lon="7.570071006193757">
        <ele>78.480000000000004</ele>
        <time>2017-06-20T14:24:36Z</time>
      </trkpt>
      <trkpt lat="62.570611964911222" lon="7.569756014272571">
        <ele>78.480000000000004</ele>
        <time>2017-06-20T14:24:37Z</time>
      </trkpt>
      <trkpt lat="62.570763006806374" lon="7.569482009857893">
        <ele>78</ele>
        <time>2017-06-20T14:24:38Z</time>
      </trkpt>
      <trkpt lat="62.570929974317551" lon="7.56923801265657">
        <ele>77.519999999999996</ele>
        <time>2017-06-20T14:24:39Z</time>
      </trkpt>
      <trkpt lat="62.571102976799011" lon="7.569012036547065">
        <ele>77.040000000000006</ele>
        <time>2017-06-20T14:24:40Z</time>
      </trkpt>
      <trkpt lat="62.571777971461415" lon="7.568293958902359">
        <ele>75.120000000000005</ele>
        <time>2017-06-20T14:24:44Z</time>
      </trkpt>
      <trkpt lat="62.571949968114495" lon="7.568202009424567">
        <ele>74.640000000000001</ele>
        <time>2017-06-20T14:24:45Z</time>
      </trkpt>
      <trkpt lat="62.572135962545872" lon="7.568151969462633">
        <ele>74.640000000000001</ele>
        <time>2017-06-20T14:24:46Z</time>
      </trkpt>
      <trkpt lat="62.572323968634009" lon="7.568137971684337">
        <ele>73.680000000000007</ele>
        <time>2017-06-20T14:24:47Z</time>
      </trkpt>
      <trkpt lat="62.572509963065386" lon="7.568175019696355">
        <ele>73.680000000000007</ele>
        <time>2017-06-20T14:24:48Z</time>
      </trkpt>
      <trkpt lat="62.572702998295426" lon="7.568223970010877">
        <ele>73.680000000000007</ele>
        <time>2017-06-20T14:24:49Z</time>
      </trkpt>
      <trkpt lat="62.574448026716709" lon="7.569191996008158">
        <ele>73.200000000000003</ele>
        <time>2017-06-20T14:24:58Z</time>
      </trkpt>
      <trkpt lat="62.575952997431159" lon="7.569590974599123">
        <ele>74.159999999999997</ele>
        <time>2017-06-20T14:25:06Z</time>
      </trkpt>
      <trkpt lat="62.576131029054523" lon="7.569559961557388">
        <ele>74.640000000000001</ele>
        <time>2017-06-20T14:25:07Z</time>
      </trkpt>
      <trkpt lat="62.576306965202093" lon="7.56949600763619">
        <ele>74.640000000000001</ele>
        <time>2017-06-20T14:25:08Z</time>
      </trkpt>
      <trkpt lat="62.576479967683554" lon="7.569414032623172">
        <ele>74.159999999999997</ele>
        <time>2017-06-20T14:25:09Z</time>
      </trkpt>
      <trkpt lat="62.57664299570024" lon="7.569289980456233">
        <ele>74.640000000000001</ele>
        <time>2017-06-20T14:25:10Z</time>
      </trkpt>
      <trkpt lat="62.576806023716927" lon="7.569139022380114">
        <ele>74.640000000000001</ele>
        <time>2017-06-20T14:25:11Z</time>
      </trkpt>
      <trkpt lat="62.576958993449807" lon="7.568967025727034">
        <ele>75.120000000000005</ele>
        <time>2017-06-20T14:25:12Z</time>
      </trkpt>
      <trkpt lat="62.577109029516578" lon="7.56876896135509">
        <ele>75.120000000000005</ele>
        <time>2017-06-20T14:25:13Z</time>
      </trkpt>
      <trkpt lat="62.578475028276443" lon="7.566269980743527">
        <ele>75.599999999999994</ele>
        <time>2017-06-20T14:25:23Z</time>
      </trkpt>
      <trkpt lat="62.579545984044671" lon="7.563293986022472">
        <ele>70.310000000000002</ele>
        <time>2017-06-20T14:25:32Z</time>
      </trkpt>
      <trkpt lat="62.580317035317421" lon="7.561373021453619">
        <ele>67.909999999999997</ele>
        <time>2017-06-20T14:25:38Z</time>
      </trkpt>
      <trkpt lat="62.580404039472342" lon="7.560986028984189">
        <ele>67.430000000000007</ele>
        <time>2017-06-20T14:25:39Z</time>
      </trkpt>
      <trkpt lat="62.580465981736779" lon="7.560589984059334">
        <ele>65.989999999999995</ele>
        <time>2017-06-20T14:25:40Z</time>
      </trkpt>
      <trkpt lat="62.580516021698713" lon="7.560179019346833">
        <ele>65.030000000000001</ele>
        <time>2017-06-20T14:25:41Z</time>
      </trkpt>
      <trkpt lat="62.580533036962152" lon="7.559780962765217">
        <ele>60.700000000000003</ele>
        <time>2017-06-20T14:25:42Z</time>
      </trkpt>
      <trkpt lat="62.580653987824917" lon="7.556296018883586">
        <ele>57.82</ele>
        <time>2017-06-20T14:25:50Z</time>
      </trkpt>
      <trkpt lat="62.580386018380523" lon="7.553351037204266">
        <ele>54.93</ele>
        <time>2017-06-20T14:25:57Z</time>
      </trkpt>
      <trkpt lat="62.579820994287729" lon="7.550670001655817">
        <ele>50.609999999999999</ele>
        <time>2017-06-20T14:26:04Z</time>
      </trkpt>
      <trkpt lat="62.57971404120326" lon="7.550362972542644">
        <ele>50.130000000000003</ele>
        <time>2017-06-20T14:26:05Z</time>
      </trkpt>
      <trkpt lat="62.579590994864702" lon="7.550077987834811">
        <ele>49.159999999999997</ele>
        <time>2017-06-20T14:26:06Z</time>
      </trkpt>
      <trkpt lat="62.579455962404609" lon="7.549819992855191">
        <ele>48.68</ele>
        <time>2017-06-20T14:26:07Z</time>
      </trkpt>
      <trkpt lat="62.579308021813631" lon="7.549583958461881">
        <ele>48.200000000000003</ele>
        <time>2017-06-20T14:26:08Z</time>
      </trkpt>
      <trkpt lat="62.579153040423989" lon="7.549368040636182">
        <ele>47.240000000000002</ele>
        <time>2017-06-20T14:26:09Z</time>
      </trkpt>
      <trkpt lat="62.578994035720825" lon="7.549164025112987">
        <ele>47.240000000000002</ele>
        <time>2017-06-20T14:26:10Z</time>
      </trkpt>
      <trkpt lat="62.577653015032411" lon="7.546822959557176">
        <ele>42.920000000000002</ele>
        <time>2017-06-20T14:26:19Z</time>
      </trkpt>
      <trkpt lat="62.576419031247497" lon="7.543955007568002">
        <ele>37.630000000000003</ele>
        <time>2017-06-20T14:26:28Z</time>
      </trkpt>
      <trkpt lat="62.576339989900589" lon="7.543591987341642">
        <ele>37.149999999999999</ele>
        <time>2017-06-20T14:26:29Z</time>
      </trkpt>
      <trkpt lat="62.576277041807771" lon="7.543217986822128">
        <ele>36.670000000000002</ele>
        <time>2017-06-20T14:26:30Z</time>
      </trkpt>
      <trkpt lat="62.576249968260527" lon="7.54283300600946">
        <ele>36.189999999999998</ele>
        <time>2017-06-20T14:26:31Z</time>
      </trkpt>
      <trkpt lat="62.576244017109275" lon="7.542435033246875">
        <ele>35.710000000000001</ele>
        <time>2017-06-20T14:26:32Z</time>
      </trkpt>
      <trkpt lat="62.576251979917288" lon="7.542024990543723">
        <ele>35.229999999999997</ele>
        <time>2017-06-20T14:26:33Z</time>
      </trkpt>
      <trkpt lat="62.576261032372713" lon="7.541616959497333">
        <ele>34.259999999999998</ele>
        <time>2017-06-20T14:26:34Z</time>
      </trkpt>
      <trkpt lat="62.576323980465531" lon="7.539373962208629">
        <ele>30.420000000000002</ele>
        <time>2017-06-20T14:26:40Z</time>
      </trkpt>
      <trkpt lat="62.576357005164027" lon="7.539060981944203">
        <ele>29.940000000000001</ele>
        <time>2017-06-20T14:26:41Z</time>
      </trkpt>
      <trkpt lat="62.57640696130693" lon="7.538775997236371">
        <ele>29.460000000000001</ele>
        <time>2017-06-20T14:26:42Z</time>
      </trkpt>
      <trkpt lat="62.576488014310598" lon="7.538519008085132">
        <ele>28.5</ele>
        <time>2017-06-20T14:26:43Z</time>
      </trkpt>
      <trkpt lat="62.576582981273532" lon="7.538281967863441">
        <ele>28.02</ele>
        <time>2017-06-20T14:26:44Z</time>
      </trkpt>
      <trkpt lat="62.576703010126948" lon="7.538070995360613">
        <ele>27.530000000000001</ele>
        <time>2017-06-20T14:26:45Z</time>
      </trkpt>
      <trkpt lat="62.576829995959997" lon="7.537876032292843">
        <ele>27.050000000000001</ele>
        <time>2017-06-20T14:26:46Z</time>
      </trkpt>
      <trkpt lat="62.577085979282856" lon="7.537575038149953">
        <ele>26.09</ele>
        <time>2017-06-20T14:26:48Z</time>
      </trkpt>
      <trkpt lat="62.577211037278175" lon="7.5375069770962">
        <ele>25.609999999999999</ele>
        <time>2017-06-20T14:26:49Z</time>
      </trkpt>
      <trkpt lat="62.577323019504547" lon="7.537498008459806">
        <ele>24.649999999999999</ele>
        <time>2017-06-20T14:26:50Z</time>
      </trkpt>
      <trkpt lat="62.577431984245777" lon="7.537569003179669">
        <ele>24.170000000000002</ele>
        <time>2017-06-20T14:26:51Z</time>
      </trkpt>
      <trkpt lat="62.577542038634419" lon="7.537714010104537">
        <ele>23.690000000000001</ele>
        <time>2017-06-20T14:26:52Z</time>
      </trkpt>
      <trkpt lat="62.577648991718888" lon="7.537883995100856">
        <ele>23.210000000000001</ele>
        <time>2017-06-20T14:26:53Z</time>
      </trkpt>
      <trkpt lat="62.577758962288499" lon="7.53808599896729">
        <ele>23.690000000000001</ele>
        <time>2017-06-20T14:26:54Z</time>
      </trkpt>
      <trkpt lat="62.578734029084444" lon="7.540549021214247">
        <ele>19.359999999999999</ele>
        <time>2017-06-20T14:27:03Z</time>
      </trkpt>
      <trkpt lat="62.578990012407303" lon="7.541488967835903">
        <ele>17.440000000000001</ele>
        <time>2017-06-20T14:27:06Z</time>
      </trkpt>
      <trkpt lat="62.579101994633675" lon="7.541762972250581">
        <ele>16.960000000000001</ele>
        <time>2017-06-20T14:27:07Z</time>
      </trkpt>
      <trkpt lat="62.579229986295104" lon="7.542010992765427">
        <ele>16.48</ele>
        <time>2017-06-20T14:27:08Z</time>
      </trkpt>
      <trkpt lat="62.580511998385191" lon="7.544137984514237">
        <ele>14.56</ele>
        <time>2017-06-20T14:27:17Z</time>
      </trkpt>
      <trkpt lat="62.580675026401877" lon="7.544294977560639">
        <ele>14.56</ele>
        <time>2017-06-20T14:27:18Z</time>
      </trkpt>
      <trkpt lat="62.580838976427913" lon="7.544410983100534">
        <ele>14.56</ele>
        <time>2017-06-20T14:27:19Z</time>
      </trkpt>
      <trkpt lat="62.581006027758121" lon="7.544480971992016">
        <ele>14.56</ele>
        <time>2017-06-20T14:27:20Z</time>
      </trkpt>
      <trkpt lat="62.581180036067963" lon="7.544512990862131">
        <ele>14.56</ele>
        <time>2017-06-20T14:27:21Z</time>
      </trkpt>
      <trkpt lat="62.581355972215533" lon="7.544501004740596">
        <ele>14.08</ele>
        <time>2017-06-20T14:27:22Z</time>
      </trkpt>
      <trkpt lat="62.581528974696994" lon="7.544436967000365">
        <ele>14.08</ele>
        <time>2017-06-20T14:27:23Z</time>
      </trkpt>
      <trkpt lat="62.581686973571777" lon="7.544328002259135">
        <ele>14.08</ele>
        <time>2017-06-20T14:27:24Z</time>
      </trkpt>
      <trkpt lat="62.581839021295309" lon="7.544174026697874">
        <ele>14.56</ele>
        <time>2017-06-20T14:27:25Z</time>
      </trkpt>
      <trkpt lat="62.58197003044188" lon="7.543926006183028">
        <ele>14.56</ele>
        <time>2017-06-20T14:27:26Z</time>
      </trkpt>
      <trkpt lat="62.582082012668252" lon="7.543664993718267">
        <ele>14.08</ele>
        <time>2017-06-20T14:27:27Z</time>
      </trkpt>
      <trkpt lat="62.582173962146044" lon="7.543382020667195">
        <ele>14.08</ele>
        <time>2017-06-20T14:27:28Z</time>
      </trkpt>
      <trkpt lat="62.582255015149713" lon="7.543077003210783">
        <ele>14.08</ele>
        <time>2017-06-20T14:27:29Z</time>
      </trkpt>
      <trkpt lat="62.583185993134975" lon="7.539690965786576">
        <ele>10.23</ele>
        <time>2017-06-20T14:27:40Z</time>
      </trkpt>
      <trkpt lat="62.583295041695237" lon="7.539464989677072">
        <ele>9.75</ele>
        <time>2017-06-20T14:27:41Z</time>
      </trkpt>
      <trkpt lat="62.58341196924448" lon="7.539255023002625">
        <ele>9.27</ele>
        <time>2017-06-20T14:27:42Z</time>
      </trkpt>
      <trkpt lat="62.583541972562671" lon="7.539062993600965">
        <ele>8.310000000000001</ele>
        <time>2017-06-20T14:27:43Z</time>
      </trkpt>
      <trkpt lat="62.583683962002397" lon="7.538894014433026">
        <ele>7.35</ele>
        <time>2017-06-20T14:27:44Z</time>
      </trkpt>
      <trkpt lat="62.583836009725928" lon="7.538756970316172">
        <ele>6.87</ele>
        <time>2017-06-20T14:27:45Z</time>
      </trkpt>
      <trkpt lat="62.583995014429092" lon="7.538659991696477">
        <ele>6.39</ele>
        <time>2017-06-20T14:27:46Z</time>
      </trkpt>
      <trkpt lat="62.584157036617398" lon="7.538614980876446">
        <ele>5.42</ele>
        <time>2017-06-20T14:27:47Z</time>
      </trkpt>
      <trkpt lat="62.584313023835421" lon="7.538625961169601">
        <ele>4.94</ele>
        <time>2017-06-20T14:27:48Z</time>
      </trkpt>
      <trkpt lat="62.584459036588669" lon="7.53868798725307">
        <ele>4.46</ele>
        <time>2017-06-20T14:27:49Z</time>
      </trkpt>
      <trkpt lat="62.584588034078479" lon="7.538803992792964">
        <ele>3.5</ele>
        <time>2017-06-20T14:27:50Z</time>
      </trkpt>
      <trkpt lat="62.584700016304851" lon="7.538976995274425">
        <ele>3.5</ele>
        <time>2017-06-20T14:27:51Z</time>
      </trkpt>
      <trkpt lat="62.584803029894829" lon="7.539254017174244">
        <ele>3.5</ele>
        <time>2017-06-20T14:27:52Z</time>
      </trkpt>
      <trkpt lat="62.58489103987813" lon="7.539532966911793">
        <ele>3.5</ele>
        <time>2017-06-20T14:27:53Z</time>
      </trkpt>
      <trkpt lat="62.584974020719528" lon="7.539814012125135">
        <ele>3.98</ele>
        <time>2017-06-20T14:27:54Z</time>
      </trkpt>
      <trkpt lat="62.585160015150905" lon="7.540345005691052">
        <ele>3.98</ele>
        <time>2017-06-20T14:27:56Z</time>
      </trkpt>
      <trkpt lat="62.585274009034038" lon="7.540555978193879">
        <ele>3.98</ele>
        <time>2017-06-20T14:27:57Z</time>
      </trkpt>
      <trkpt lat="62.585399989038706" lon="7.540700985118747">
        <ele>3.5</ele>
        <time>2017-06-20T14:27:58Z</time>
      </trkpt>
      <trkpt lat="62.58553602732718" lon="7.540776003152132">
        <ele>3.5</ele>
        <time>2017-06-20T14:27:59Z</time>
      </trkpt>
      <trkpt lat="62.585677010938525" lon="7.540782038122416">
        <ele>3.02</ele>
        <time>2017-06-20T14:28:00Z</time>
      </trkpt>
      <trkpt lat="62.585811959579587" lon="7.540714982897043">
        <ele>3.5</ele>
        <time>2017-06-20T14:28:01Z</time>
      </trkpt>
      <trkpt lat="62.585934000089765" lon="7.540582967922092">
        <ele>3.5</ele>
        <time>2017-06-20T14:28:02Z</time>
      </trkpt>
      <trkpt lat="62.586038019508123" lon="7.540390016511083">
        <ele>3.98</ele>
        <time>2017-06-20T14:28:03Z</time>
      </trkpt>
      <trkpt lat="62.586121000349522" lon="7.540151970461011">
        <ele>3.98</ele>
        <time>2017-06-20T14:28:04Z</time>
      </trkpt>
      <trkpt lat="62.58618202060461" lon="7.539880983531475">
        <ele>4.46</ele>
        <time>2017-06-20T14:28:05Z</time>
      </trkpt>
      <trkpt lat="62.586222002282739" lon="7.539584012702107">
        <ele>4.46</ele>
        <time>2017-06-20T14:28:06Z</time>
      </trkpt>
      <trkpt lat="62.586254021152854" lon="7.539278995245695">
        <ele>4.94</ele>
        <time>2017-06-20T14:28:07Z</time>
      </trkpt>
      <trkpt lat="62.586404979228973" lon="7.538012992590666">
        <ele>4.94</ele>
        <time>2017-06-20T14:28:11Z</time>
      </trkpt>
      <trkpt lat="62.586463987827301" lon="7.537739994004369">
        <ele>4.46</ele>
        <time>2017-06-20T14:28:12Z</time>
      </trkpt>
      <trkpt lat="62.586538000032306" lon="7.537508988752961">
        <ele>3.98</ele>
        <time>2017-06-20T14:28:13Z</time>
      </trkpt>
      <trkpt lat="62.586627015843987" lon="7.537315031513572">
        <ele>3.5</ele>
        <time>2017-06-20T14:28:14Z</time>
      </trkpt>
      <trkpt lat="62.586731035262346" lon="7.537159966304898">
        <ele>3.5</ele>
        <time>2017-06-20T14:28:15Z</time>
      </trkpt>
      <trkpt lat="62.58684704080224" lon="7.537046978250146">
        <ele>3.02</ele>
        <time>2017-06-20T14:28:16Z</time>
      </trkpt>
      <trkpt lat="62.58697603829205" lon="7.536979001015425">
        <ele>2.54</ele>
        <time>2017-06-20T14:28:17Z</time>
      </trkpt>
      <trkpt lat="62.587109981104732" lon="7.536972966045141">
        <ele>2.06</ele>
        <time>2017-06-20T14:28:18Z</time>
      </trkpt>
      <trkpt lat="62.587250964716077" lon="7.537028035148978">
        <ele>3.5</ele>
        <time>2017-06-20T14:28:19Z</time>
      </trkpt>
      <trkpt lat="62.587387003004551" lon="7.537145968526602">
        <ele>3.5</ele>
        <time>2017-06-20T14:28:20Z</time>
      </trkpt>
      <trkpt lat="62.587504014372826" lon="7.537320982664824">
        <ele>3.98</ele>
        <time>2017-06-20T14:28:21Z</time>
      </trkpt>
      <trkpt lat="62.587613984942436" lon="7.537542013451457">
        <ele>3.98</ele>
        <time>2017-06-20T14:28:22Z</time>
      </trkpt>
      <trkpt lat="62.587720016017556" lon="7.537790033966303">
        <ele>3.5</ele>
        <time>2017-06-20T14:28:23Z</time>
      </trkpt>
      <trkpt lat="62.587828980758786" lon="7.538064960390329">
        <ele>3.5</ele>
        <time>2017-06-20T14:28:24Z</time>
      </trkpt>
      <trkpt lat="62.588924998417497" lon="7.541038021445274">
        <ele>3.98</ele>
        <time>2017-06-20T14:28:34Z</time>
      </trkpt>
      <trkpt lat="62.588998004794121" lon="7.541358964517713">
        <ele>3.98</ele>
        <time>2017-06-20T14:28:35Z</time>
      </trkpt>
      <trkpt lat="62.589056007564068" lon="7.54169600084424">
        <ele>3.98</ele>
        <time>2017-06-20T14:28:36Z</time>
      </trkpt>
      <trkpt lat="62.589100012555718" lon="7.542044017463923">
        <ele>3.98</ele>
        <time>2017-06-20T14:28:37Z</time>
      </trkpt>
      <trkpt lat="62.589138988405466" lon="7.542397985234857">
        <ele>3.98</ele>
        <time>2017-06-20T14:28:38Z</time>
      </trkpt>
      <trkpt lat="62.589559005573392" lon="7.544388016685844">
        <ele>4.46</ele>
        <time>2017-06-20T14:28:44Z</time>
      </trkpt>
      <trkpt lat="62.589672999456525" lon="7.544663026928902">
        <ele>4.46</ele>
        <time>2017-06-20T14:28:45Z</time>
      </trkpt>
      <trkpt lat="62.589799985289574" lon="7.544907024130225">
        <ele>4.46</ele>
        <time>2017-06-20T14:28:46Z</time>
      </trkpt>
      <trkpt lat="62.589943986386061" lon="7.545119002461433">
        <ele>4.46</ele>
        <time>2017-06-20T14:28:47Z</time>
      </trkpt>
      <trkpt lat="62.590093016624451" lon="7.54530499689281">
        <ele>4.46</ele>
        <time>2017-06-20T14:28:48Z</time>
      </trkpt>
      <trkpt lat="62.590246992185712" lon="7.54545696079731">
        <ele>4.46</ele>
        <time>2017-06-20T14:28:49Z</time>
      </trkpt>
      <trkpt lat="62.590407002717257" lon="7.545585036277771">
        <ele>4.94</ele>
        <time>2017-06-20T14:28:50Z</time>
      </trkpt>
      <trkpt lat="62.590572964400053" lon="7.545689977705479">
        <ele>4.94</ele>
        <time>2017-06-20T14:28:51Z</time>
      </trkpt>
      <trkpt lat="62.591104041785002" lon="7.545875972136855">
        <ele>5.42</ele>
        <time>2017-06-20T14:28:54Z</time>
      </trkpt>
      <trkpt lat="62.591291964054108" lon="7.545872032642365">
        <ele>5.42</ele>
        <time>2017-06-20T14:28:55Z</time>
      </trkpt>
      <trkpt lat="62.593439994379878" lon="7.54569198936224">
        <ele>2.54</ele>
        <time>2017-06-20T14:29:06Z</time>
      </trkpt>
      <trkpt lat="62.596164029091597" lon="7.546370001509786">
        <ele>3.02</ele>
        <time>2017-06-20T14:29:20Z</time>
      </trkpt>
      <trkpt lat="62.597653996199369" lon="7.546034976840019">
        <ele>1.1</ele>
        <time>2017-06-20T14:29:28Z</time>
      </trkpt>
      <trkpt lat="62.599424002692103" lon="7.544585997238755">
        <ele>3.98</ele>
        <time>2017-06-20T14:29:38Z</time>
      </trkpt>
      <trkpt lat="62.600734010338783" lon="7.544650034978986">
        <ele>2.54</ele>
        <time>2017-06-20T14:29:45Z</time>
      </trkpt>
      <trkpt lat="62.603721991181374" lon="7.545453021302819">
        <ele>0.14</ele>
        <time>2017-06-20T14:30:00Z</time>
      </trkpt>
      <trkpt lat="62.605838002637029" lon="7.54536903463304">
        <ele>4.94</ele>
        <time>2017-06-20T14:30:11Z</time>
      </trkpt>
      <trkpt lat="62.608303958550096" lon="7.544721029698849">
        <ele>11.67</ele>
        <time>2017-06-20T14:30:23Z</time>
      </trkpt>
      <trkpt lat="62.611309038475156" lon="7.543947966769338">
        <ele>17.920000000000002</ele>
        <time>2017-06-20T14:30:37Z</time>
      </trkpt>
      <trkpt lat="62.613629987463355" lon="7.543573966249824">
        <ele>19.84</ele>
        <time>2017-06-20T14:30:49Z</time>
      </trkpt>
      <trkpt lat="62.61662601493299" lon="7.543767001479864">
        <ele>12.630000000000001</ele>
        <time>2017-06-20T14:31:04Z</time>
      </trkpt>
      <trkpt lat="62.617969969287515" lon="7.543201977387071">
        <ele>13.119999999999999</ele>
        <time>2017-06-20T14:31:11Z</time>
      </trkpt>
      <trkpt lat="62.620143983513117" lon="7.54111597314477">
        <ele>10.23</ele>
        <time>2017-06-20T14:31:23Z</time>
      </trkpt>
      <trkpt lat="62.622443977743387" lon="7.538289008662105">
        <ele>9.27</ele>
        <time>2017-06-20T14:31:37Z</time>
      </trkpt>
      <trkpt lat="62.624009968712926" lon="7.535656001418829">
        <ele>12.630000000000001</ele>
        <time>2017-06-20T14:31:47Z</time>
      </trkpt>
      <trkpt lat="62.625837977975607" lon="7.5321139767766">
        <ele>16</ele>
        <time>2017-06-20T14:31:59Z</time>
      </trkpt>
      <trkpt lat="62.628217013552785" lon="7.527638962492347">
        <ele>16.960000000000001</ele>
        <time>2017-06-20T14:32:14Z</time>
      </trkpt>
      <trkpt lat="62.629811000078917" lon="7.523861993104219">
        <ele>13.119999999999999</ele>
        <time>2017-06-20T14:32:26Z</time>
      </trkpt>
      <trkpt lat="62.630939036607742" lon="7.521239966154099">
        <ele>7.35</ele>
        <time>2017-06-20T14:32:36Z</time>
      </trkpt>
      <trkpt lat="62.632346022874117" lon="7.519122026860714">
        <ele>4.94</ele>
        <time>2017-06-20T14:32:46Z</time>
      </trkpt>
      <trkpt lat="62.633888041600585" lon="7.516722036525607">
        <ele>7.83</ele>
        <time>2017-06-20T14:32:57Z</time>
      </trkpt>
      <trkpt lat="62.63544799759984" lon="7.51344496384263">
        <ele>10.710000000000001</ele>
        <time>2017-06-20T14:33:09Z</time>
      </trkpt>
      <trkpt lat="62.637115996330976" lon="7.510514985769987">
        <ele>12.15</ele>
        <time>2017-06-20T14:33:20Z</time>
      </trkpt>
      <trkpt lat="62.637286987155676" lon="7.510351035743952">
        <ele>12.15</ele>
        <time>2017-06-20T14:33:21Z</time>
      </trkpt>
      <trkpt lat="62.637463007122278" lon="7.510235030204058">
        <ele>12.15</ele>
        <time>2017-06-20T14:33:22Z</time>
      </trkpt>
      <trkpt lat="62.637642966583371" lon="7.510169986635447">
        <ele>12.15</ele>
        <time>2017-06-20T14:33:23Z</time>
      </trkpt>
      <trkpt lat="62.637828961014748" lon="7.510163029655814">
        <ele>12.15</ele>
        <time>2017-06-20T14:33:24Z</time>
      </trkpt>
      <trkpt lat="62.638020990416408" lon="7.510169986635447">
        <ele>12.15</ele>
        <time>2017-06-20T14:33:25Z</time>
      </trkpt>
      <trkpt lat="62.638211008161306" lon="7.510196976363659">
        <ele>11.67</ele>
        <time>2017-06-20T14:33:26Z</time>
      </trkpt>
      <trkpt lat="62.640644023194909" lon="7.51067097298801">
        <ele>9.75</ele>
        <time>2017-06-20T14:33:38Z</time>
      </trkpt>
      <trkpt lat="62.643065974116325" lon="7.510859984904528">
        <ele>4.94</ele>
        <time>2017-06-20T14:33:49Z</time>
      </trkpt>
      <trkpt lat="62.644758028909564" lon="7.509864969179034">
        <ele>-0.82</ele>
        <time>2017-06-20T14:33:57Z</time>
      </trkpt>
      <trkpt lat="62.64640498906374" lon="7.507832022383809">
        <ele>-6.59</ele>
        <time>2017-06-20T14:34:06Z</time>
      </trkpt>
      <trkpt lat="62.648370964452624" lon="7.505346033722162">
        <ele>-7.55</ele>
        <time>2017-06-20T14:34:17Z</time>
      </trkpt>
      <trkpt lat="62.651330027729273" lon="7.502171974629164">
        <ele>-7.55</ele>
        <time>2017-06-20T14:34:32Z</time>
      </trkpt>
      <trkpt lat="62.653498006984591" lon="7.500468017533422">
        <ele>-6.11</ele>
        <time>2017-06-20T14:34:43Z</time>
      </trkpt>
      <trkpt lat="62.655160976573825" lon="7.500429963693023">
        <ele>-6.59</ele>
        <time>2017-06-20T14:34:51Z</time>
      </trkpt>
      <trkpt lat="62.656381968408823" lon="7.500684019178152">
        <ele>-10.44</ele>
        <time>2017-06-20T14:34:57Z</time>
      </trkpt>
      <trkpt lat="62.656585983932018" lon="7.500644037500024">
        <ele>-10.92</ele>
        <time>2017-06-20T14:34:58Z</time>
      </trkpt>
      <trkpt lat="62.656785976141691" lon="7.500575976446271">
        <ele>-10.92</ele>
        <time>2017-06-20T14:34:59Z</time>
      </trkpt>
      <trkpt lat="62.656985968351364" lon="7.500477991998196">
        <ele>-10.92</ele>
        <time>2017-06-20T14:35:00Z</time>
      </trkpt>
      <trkpt lat="62.657176991924644" lon="7.500338014215231">
        <ele>-11.4</ele>
        <time>2017-06-20T14:35:01Z</time>
      </trkpt>
      <trkpt lat="62.657360974699259" lon="7.500161994248629">
        <ele>-11.880000000000001</ele>
        <time>2017-06-20T14:35:02Z</time>
      </trkpt>
      <trkpt lat="62.657541017979383" lon="7.499974993988872">
        <ele>-10.92</ele>
        <time>2017-06-20T14:35:03Z</time>
      </trkpt>
      <trkpt lat="62.657718965783715" lon="7.499775001779199">
        <ele>-10.44</ele>
        <time>2017-06-20T14:35:04Z</time>
      </trkpt>
      <trkpt lat="62.658751029521227" lon="7.498970003798604">
        <ele>-6.59</ele>
        <time>2017-06-20T14:35:10Z</time>
      </trkpt>
      <trkpt lat="62.658938029780984" lon="7.498923987150192">
        <ele>-5.63</ele>
        <time>2017-06-20T14:35:11Z</time>
      </trkpt>
      <trkpt lat="62.659127963706851" lon="7.498918035998941">
        <ele>-5.63</ele>
        <time>2017-06-20T14:35:12Z</time>
      </trkpt>
      <trkpt lat="62.659319993108511" lon="7.498977966606617">
        <ele>-5.15</ele>
        <time>2017-06-20T14:35:13Z</time>
      </trkpt>
      <trkpt lat="62.65951001085341" lon="7.499067988246679">
        <ele>-5.15</ele>
        <time>2017-06-20T14:35:14Z</time>
      </trkpt>
      <trkpt lat="62.659691981971264" lon="7.499189022928476">
        <ele>-6.11</ele>
        <time>2017-06-20T14:35:15Z</time>
      </trkpt>
      <trkpt lat="62.65987403690815" lon="7.499349033460021">
        <ele>-6.59</ele>
        <time>2017-06-20T14:35:16Z</time>
      </trkpt>
      <trkpt lat="62.66004896722734" lon="7.499555982649326">
        <ele>-7.07</ele>
        <time>2017-06-20T14:35:17Z</time>
      </trkpt>
      <trkpt lat="62.660220041871071" lon="7.49975698068738">
        <ele>-7.55</ele>
        <time>2017-06-20T14:35:18Z</time>
      </trkpt>
      <trkpt lat="62.661016993224621" lon="7.500768005847931">
        <ele>-8.029999999999999</ele>
        <time>2017-06-20T14:35:24Z</time>
      </trkpt>
      <trkpt lat="62.661411026492715" lon="7.501261029392481">
        <ele>-9.48</ele>
        <time>2017-06-20T14:35:28Z</time>
      </trkpt>
      <trkpt lat="62.661498030647635" lon="7.501310985535383">
        <ele>-9</ele>
        <time>2017-06-20T14:35:29Z</time>
      </trkpt>
      <trkpt lat="62.661580005660653" lon="7.501316014677286">
        <ele>-9</ele>
        <time>2017-06-20T14:35:30Z</time>
      </trkpt>
      <trkpt lat="62.661656029522419" lon="7.501295981928706">
        <ele>-8.51</ele>
        <time>2017-06-20T14:35:31Z</time>
      </trkpt>
      <trkpt lat="62.661730041727424" lon="7.501276032999158">
        <ele>-8.029999999999999</ele>
        <time>2017-06-20T14:35:32Z</time>
      </trkpt>
      <trkpt lat="62.661814028397202" lon="7.501274021342397">
        <ele>-7.07</ele>
        <time>2017-06-20T14:35:33Z</time>
      </trkpt>
      <trkpt lat="62.661900026723742" lon="7.501328000798821">
        <ele>-7.55</ele>
        <time>2017-06-20T14:35:34Z</time>
      </trkpt>
      <trkpt lat="62.661986025050282" lon="7.501434031873941">
        <ele>-9.48</ele>
        <time>2017-06-20T14:35:35Z</time>
      </trkpt>
      <trkpt lat="62.662074035033584" lon="7.5015829782933">
        <ele>-11.880000000000001</ele>
        <time>2017-06-20T14:35:36Z</time>
      </trkpt>
      <trkpt lat="62.662177970632911" lon="7.501752963289619">
        <ele>-11.880000000000001</ele>
        <time>2017-06-20T14:35:37Z</time>
      </trkpt>
      <trkpt lat="62.663280023261905" lon="7.503588013350964">
        <ele>-13.32</ele>
        <time>2017-06-20T14:35:48Z</time>
      </trkpt>
      <trkpt lat="62.663436010479927" lon="7.504079025238752">
        <ele>-13.800000000000001</ele>
        <time>2017-06-20T14:35:54Z</time>
      </trkpt>
      <trkpt lat="62.663505999371409" lon="7.504336014389992">
        <ele>-12.359999999999999</ele>
        <time>2017-06-20T14:36:08Z</time>
      </trkpt>
      <trkpt lat="62.663508011028171" lon="7.50435302965343">
        <ele>-11.880000000000001</ele>
        <time>2017-06-20T14:37:54Z</time>
      </trkpt>
      <trkpt lat="62.66350700519979" lon="7.50435596331954">
        <ele>-11.4</ele>
        <time>2017-06-20T14:39:28Z</time>
      </trkpt>
      <trkpt lat="62.663503987714648" lon="7.50435302965343">
        <ele>-10.92</ele>
        <time>2017-06-20T14:41:14Z</time>
      </trkpt>
      <trkpt lat="62.663502981886268" lon="7.504349006339908">
        <ele>-9.960000000000001</ele>
        <time>2017-06-20T14:43:38Z</time>
      </trkpt>
      <trkpt lat="62.663501976057887" lon="7.504355041310191">
        <ele>-9.48</ele>
        <time>2017-06-20T14:44:47Z</time>
      </trkpt>
      <trkpt lat="62.663605995476246" lon="7.504659974947572">
        <ele>-9.960000000000001</ele>
        <time>2017-06-20T14:45:09Z</time>
      </trkpt>
      <trkpt lat="62.663915958255529" lon="7.505099019035697">
        <ele>-10.92</ele>
        <time>2017-06-20T14:45:21Z</time>
      </trkpt>
      <trkpt lat="62.66408896073699" lon="7.505343016237021">
        <ele>-11.4</ele>
        <time>2017-06-20T14:45:25Z</time>
      </trkpt>
      <trkpt lat="62.664365982636809" lon="7.505859006196261">
        <ele>-11.4</ele>
        <time>2017-06-20T14:45:33Z</time>
      </trkpt>
      <trkpt lat="62.664493974298239" lon="7.505936035886407">
        <ele>-8.51</ele>
        <time>2017-06-20T14:45:44Z</time>
      </trkpt>
      <trkpt lat="62.664496991783381" lon="7.505927989259362">
        <ele>-8.029999999999999</ele>
        <time>2017-06-20T14:47:09Z</time>
      </trkpt>
      <trkpt lat="62.664496991783381" lon="7.50592396594584">
        <ele>-8.029999999999999</ele>
        <time>2017-06-20T14:48:24Z</time>
      </trkpt>
      <trkpt lat="62.664501015096903" lon="7.505922960117459">
        <ele>-7.55</ele>
        <time>2017-06-20T14:49:57Z</time>
      </trkpt>
      <trkpt lat="62.664605034515262" lon="7.505580978468061">
        <ele>-4.19</ele>
        <time>2017-06-20T14:50:36Z</time>
      </trkpt>
      <trkpt lat="62.664704024791718" lon="7.505408981814981">
        <ele>-3.23</ele>
        <time>2017-06-20T14:50:52Z</time>
      </trkpt>
      <trkpt lat="62.665151031687856" lon="7.505295993760228">
        <ele>-3.23</ele>
        <time>2017-06-20T14:51:17Z</time>
      </trkpt>
      <trkpt lat="62.665877994149923" lon="7.504588980227709">
        <ele>-0.82</ele>
        <time>2017-06-20T14:51:47Z</time>
      </trkpt>
      <trkpt lat="62.666927995160222" lon="7.50323697924614">
        <ele>1.1</ele>
        <time>2017-06-20T14:52:18Z</time>
      </trkpt>
      <trkpt lat="62.668757010251284" lon="7.500825002789497">
        <ele>3.02</ele>
        <time>2017-06-20T14:53:01Z</time>
      </trkpt>
      <trkpt lat="62.671793019399047" lon="7.496786015108228">
        <ele>4.46</ele>
        <time>2017-06-20T14:54:06Z</time>
      </trkpt>
      <trkpt lat="62.674457961693406" lon="7.49333300627768">
        <ele>0.62</ele>
        <time>2017-06-20T14:55:03Z</time>
      </trkpt>
      <trkpt lat="62.676183963194489" lon="7.490284005180001">
        <ele>0.62</ele>
        <time>2017-06-20T14:55:45Z</time>
      </trkpt>
      <trkpt lat="62.678282037377357" lon="7.486093975603581">
        <ele>-1.79</ele>
        <time>2017-06-20T14:56:38Z</time>
      </trkpt>
      <trkpt lat="62.6801379583776" lon="7.481790035963059">
        <ele>0.62</ele>
        <time>2017-06-20T14:57:28Z</time>
      </trkpt>
      <trkpt lat="62.682436024770141" lon="7.476150020956993">
        <ele>3.02</ele>
        <time>2017-06-20T14:58:33Z</time>
      </trkpt>
      <trkpt lat="62.683334983885288" lon="7.473402014002204">
        <ele>2.54</ele>
        <time>2017-06-20T14:59:03Z</time>
      </trkpt>
      <trkpt lat="62.683976031839848" lon="7.470774035900831">
        <ele>3.02</ele>
        <time>2017-06-20T14:59:34Z</time>
      </trkpt>
      <trkpt lat="62.684380961582065" lon="7.468664981424809">
        <ele>2.54</ele>
        <time>2017-06-20T15:00:10Z</time>
      </trkpt>
      <trkpt lat="62.684687990695238" lon="7.466641003265977">
        <ele>1.58</ele>
        <time>2017-06-20T15:00:56Z</time>
      </trkpt>
      <trkpt lat="62.684812964871526" lon="7.465455969795585">
        <ele>-1.3</ele>
        <time>2017-06-20T15:01:35Z</time>
      </trkpt>
      <trkpt lat="62.684823023155332" lon="7.464956995099783">
        <ele>-3.71</ele>
        <time>2017-06-20T15:02:18Z</time>
      </trkpt>
      <trkpt lat="62.684814976528287" lon="7.464917013421655">
        <ele>-5.15</ele>
        <time>2017-06-20T15:02:57Z</time>
      </trkpt>
      <trkpt lat="62.684815982356668" lon="7.464907038956881">
        <ele>-5.15</ele>
        <time>2017-06-20T15:03:44Z</time>
      </trkpt>
      <trkpt lat="62.684855964034796" lon="7.464074967429042">
        <ele>-3.23</ele>
        <time>2017-06-20T15:03:50Z</time>
      </trkpt>
      <trkpt lat="62.684824028983712" lon="7.461630972102284">
        <ele>5.42</ele>
        <time>2017-06-20T15:04:00Z</time>
      </trkpt>
      <trkpt lat="62.684871973469853" lon="7.45792399160564">
        <ele>17.440000000000001</ele>
        <time>2017-06-20T15:04:12Z</time>
      </trkpt>
      <trkpt lat="62.68527003005147" lon="7.455572029575706">
        <ele>25.609999999999999</ele>
        <time>2017-06-20T15:04:19Z</time>
      </trkpt>
      <trkpt lat="62.685424005612731" lon="7.455138014629483">
        <ele>27.050000000000001</ele>
        <time>2017-06-20T15:04:21Z</time>
      </trkpt>
      <trkpt lat="62.685513021424413" lon="7.454988984391093">
        <ele>27.530000000000001</ele>
        <time>2017-06-20T15:04:22Z</time>
      </trkpt>
      <trkpt lat="62.68561502918601" lon="7.454877002164722">
        <ele>27.530000000000001</ele>
        <time>2017-06-20T15:04:23Z</time>
      </trkpt>
      <trkpt lat="62.685727011412382" lon="7.454801984131336">
        <ele>27.530000000000001</ele>
        <time>2017-06-20T15:04:24Z</time>
      </trkpt>
      <trkpt lat="62.685847040265799" lon="7.454760996624827">
        <ele>27.530000000000001</ele>
        <time>2017-06-20T15:04:25Z</time>
      </trkpt>
      <trkpt lat="62.685972014442086" lon="7.454769965261221">
        <ele>27.050000000000001</ele>
        <time>2017-06-20T15:04:26Z</time>
      </trkpt>
      <trkpt lat="62.686092965304852" lon="7.454841965809465">
        <ele>26.57</ele>
        <time>2017-06-20T15:04:27Z</time>
      </trkpt>
      <trkpt lat="62.68621701747179" lon="7.454957971349359">
        <ele>25.609999999999999</ele>
        <time>2017-06-20T15:04:28Z</time>
      </trkpt>
      <trkpt lat="62.687681000679731" lon="7.456750022247434">
        <ele>16.960000000000001</ele>
        <time>2017-06-20T15:04:40Z</time>
      </trkpt>
      <trkpt lat="62.688404023647308" lon="7.457492994144559">
        <ele>13.6</ele>
        <time>2017-06-20T15:04:46Z</time>
      </trkpt>
      <trkpt lat="62.688546013087034" lon="7.45755703188479">
        <ele>13.119999999999999</ele>
        <time>2017-06-20T15:04:47Z</time>
      </trkpt>
      <trkpt lat="62.688700994476676" lon="7.457589972764254">
        <ele>11.67</ele>
        <time>2017-06-20T15:04:48Z</time>
      </trkpt>
      <trkpt lat="62.688868967816234" lon="7.457585027441382">
        <ele>11.19</ele>
        <time>2017-06-20T15:04:49Z</time>
      </trkpt>
      <trkpt lat="62.689036019146442" lon="7.45755703188479">
        <ele>10.710000000000001</ele>
        <time>2017-06-20T15:04:50Z</time>
      </trkpt>
      <trkpt lat="62.689208015799522" lon="7.457492994144559">
        <ele>9.27</ele>
        <time>2017-06-20T15:04:51Z</time>
      </trkpt>
      <trkpt lat="62.689387975260615" lon="7.45738503523171">
        <ele>7.83</ele>
        <time>2017-06-20T15:04:52Z</time>
      </trkpt>
      <trkpt lat="62.689566006883979" lon="7.457240028306842">
        <ele>6.87</ele>
        <time>2017-06-20T15:04:53Z</time>
      </trkpt>
      <trkpt lat="62.689734986051917" lon="7.457053028047085">
        <ele>6.39</ele>
        <time>2017-06-20T15:04:54Z</time>
      </trkpt>
      <trkpt lat="62.689897008240223" lon="7.456843983381987">
        <ele>6.39</ele>
        <time>2017-06-20T15:04:55Z</time>
      </trkpt>
      <trkpt lat="62.690045032650232" lon="7.456595040857792">
        <ele>5.91</ele>
        <time>2017-06-20T15:04:56Z</time>
      </trkpt>
      <trkpt lat="62.690176963806152" lon="7.456322964280844">
        <ele>5.91</ele>
        <time>2017-06-20T15:04:57Z</time>
      </trkpt>
      <trkpt lat="62.690300010144711" lon="7.456025993451476">
        <ele>6.39</ele>
        <time>2017-06-20T15:04:58Z</time>
      </trkpt>
      <trkpt lat="62.690404029563069" lon="7.45571200735867">
        <ele>6.87</ele>
        <time>2017-06-20T15:04:59Z</time>
      </trkpt>
      <trkpt lat="62.690495979040861" lon="7.455378994345665">
        <ele>7.83</ele>
        <time>2017-06-20T15:05:00Z</time>
      </trkpt>
      <trkpt lat="62.690574014559388" lon="7.45504698716104">
        <ele>8.789999999999999</ele>
        <time>2017-06-20T15:05:01Z</time>
      </trkpt>
      <trkpt lat="62.692779041826725" lon="7.448864998295903">
        <ele>22.25</ele>
        <time>2017-06-20T15:05:23Z</time>
      </trkpt>
      <trkpt lat="62.692954977974296" lon="7.448808001354337">
        <ele>22.73</ele>
        <time>2017-06-20T15:05:24Z</time>
      </trkpt>
      <trkpt lat="62.693125968798995" lon="7.448790986090899">
        <ele>24.170000000000002</ele>
        <time>2017-06-20T15:05:25Z</time>
      </trkpt>
      <trkpt lat="62.693300982937217" lon="7.448790986090899">
        <ele>23.690000000000001</ele>
        <time>2017-06-20T15:05:26Z</time>
      </trkpt>
      <trkpt lat="62.693489994853735" lon="7.448883019387722">
        <ele>24.170000000000002</ele>
        <time>2017-06-20T15:05:27Z</time>
      </trkpt>
      <trkpt lat="62.693685963749886" lon="7.449024002999067">
        <ele>24.649999999999999</ele>
        <time>2017-06-20T15:05:28Z</time>
      </trkpt>
      <trkpt lat="62.693877993151546" lon="7.449134979397059">
        <ele>25.609999999999999</ele>
        <time>2017-06-20T15:05:29Z</time>
      </trkpt>
      <trkpt lat="62.696181004866958" lon="7.450155979022384">
        <ele>32.340000000000003</ele>
        <time>2017-06-20T15:05:41Z</time>
      </trkpt>
      <trkpt lat="62.696363981813192" lon="7.45012597180903">
        <ele>33.299999999999997</ele>
        <time>2017-06-20T15:05:42Z</time>
      </trkpt>
      <trkpt lat="62.696541007608175" lon="7.450049025937915">
        <ele>33.780000000000001</ele>
        <time>2017-06-20T15:05:43Z</time>
      </trkpt>
      <trkpt lat="62.696705963462591" lon="7.449914999306202">
        <ele>34.259999999999998</ele>
        <time>2017-06-20T15:05:44Z</time>
      </trkpt>
      <trkpt lat="62.696864968165755" lon="7.449745014309883">
        <ele>34.259999999999998</ele>
        <time>2017-06-20T15:05:45Z</time>
      </trkpt>
      <trkpt lat="62.697018021717668" lon="7.44954401627183">
        <ele>34.259999999999998</ele>
        <time>2017-06-20T15:05:46Z</time>
      </trkpt>
      <trkpt lat="62.697166968137026" lon="7.44930999353528">
        <ele>34.740000000000002</ele>
        <time>2017-06-20T15:05:47Z</time>
      </trkpt>
      <trkpt lat="62.697307029739022" lon="7.449042024090886">
        <ele>34.259999999999998</ele>
        <time>2017-06-20T15:05:48Z</time>
      </trkpt>
      <trkpt lat="62.697436027228832" lon="7.448746981099248">
        <ele>34.740000000000002</ele>
        <time>2017-06-20T15:05:49Z</time>
      </trkpt>
      <trkpt lat="62.697550021111965" lon="7.448420003056526">
        <ele>35.229999999999997</ele>
        <time>2017-06-20T15:05:50Z</time>
      </trkpt>
      <trkpt lat="62.697649011388421" lon="7.448060000315309">
        <ele>36.189999999999998</ele>
        <time>2017-06-20T15:05:51Z</time>
      </trkpt>
      <trkpt lat="62.697727968916297" lon="7.447682982310653">
        <ele>36.670000000000002</ele>
        <time>2017-06-20T15:05:52Z</time>
      </trkpt>
      <trkpt lat="62.697793012484908" lon="7.447293978184462">
        <ele>36.670000000000002</ele>
        <time>2017-06-20T15:05:53Z</time>
      </trkpt>
      <trkpt lat="62.6978400349617" lon="7.446885025128722">
        <ele>37.149999999999999</ele>
        <time>2017-06-20T15:05:54Z</time>
      </trkpt>
      <trkpt lat="62.697871970012784" lon="7.446470959112048">
        <ele>37.149999999999999</ele>
        <time>2017-06-20T15:05:55Z</time>
      </trkpt>
      <trkpt lat="62.697896026074886" lon="7.446047002449632">
        <ele>37.630000000000003</ele>
        <time>2017-06-20T15:05:56Z</time>
      </trkpt>
      <trkpt lat="62.698142034932971" lon="7.439435021951795">
        <ele>45.32</ele>
        <time>2017-06-20T15:06:11Z</time>
      </trkpt>
      <trkpt lat="62.698439005762339" lon="7.433470962569118">
        <ele>51.090000000000003</ele>
        <time>2017-06-20T15:06:24Z</time>
      </trkpt>
      <trkpt lat="62.698956001549959" lon="7.428924031555653">
        <ele>42.439999999999998</ele>
        <time>2017-06-20T15:06:34Z</time>
      </trkpt>
      <trkpt lat="62.699699979275465" lon="7.426797039806843">
        <ele>44.359999999999999</ele>
        <time>2017-06-20T15:06:40Z</time>
      </trkpt>
      <trkpt lat="62.700747968629003" lon="7.425644025206566">
        <ele>47.240000000000002</ele>
        <time>2017-06-20T15:06:46Z</time>
      </trkpt>
      <trkpt lat="62.702240031212568" lon="7.425170028582215">
        <ele>50.130000000000003</ele>
        <time>2017-06-20T15:06:54Z</time>
      </trkpt>
      <trkpt lat="62.705027014017105" lon="7.424486987292767">
        <ele>62.140000000000001</ele>
        <time>2017-06-20T15:07:08Z</time>
      </trkpt>
      <trkpt lat="62.706171981990337" lon="7.425103979185224">
        <ele>58.299999999999997</ele>
        <time>2017-06-20T15:07:14Z</time>
      </trkpt>
      <trkpt lat="62.707283003255725" lon="7.426230004057288">
        <ele>55.409999999999997</ele>
        <time>2017-06-20T15:07:20Z</time>
      </trkpt>
      <trkpt lat="62.707437984645367" lon="7.426509959623218">
        <ele>54.93</ele>
        <time>2017-06-20T15:07:21Z</time>
      </trkpt>
      <trkpt lat="62.707575028762221" lon="7.426823023706675">
        <ele>54.450000000000003</ele>
        <time>2017-06-20T15:07:22Z</time>
      </trkpt>
      <trkpt lat="62.708262009546161" lon="7.428178964182735">
        <ele>52.049999999999997</ele>
        <time>2017-06-20T15:07:27Z</time>
      </trkpt>
      <trkpt lat="62.708425037562847" lon="7.428377028554678">
        <ele>52.049999999999997</ele>
        <time>2017-06-20T15:07:28Z</time>
      </trkpt>
      <trkpt lat="62.708598040044308" lon="7.428545001894236">
        <ele>51.57</ele>
        <time>2017-06-20T15:07:29Z</time>
      </trkpt>
      <trkpt lat="62.710593016818166" lon="7.430087020620704">
        <ele>45.32</ele>
        <time>2017-06-20T15:07:40Z</time>
      </trkpt>
      <trkpt lat="62.7115030400455" lon="7.431732974946499">
        <ele>37.630000000000003</ele>
        <time>2017-06-20T15:07:47Z</time>
      </trkpt>
      <trkpt lat="62.711622985079885" lon="7.431934978812933">
        <ele>36.670000000000002</ele>
        <time>2017-06-20T15:07:48Z</time>
      </trkpt>
      <trkpt lat="62.711755000054836" lon="7.432100018486381">
        <ele>35.710000000000001</ele>
        <time>2017-06-20T15:07:49Z</time>
      </trkpt>
      <trkpt lat="62.711895983666182" lon="7.432225998491049">
        <ele>34.740000000000002</ele>
        <time>2017-06-20T15:07:50Z</time>
      </trkpt>
      <trkpt lat="62.712047025561333" lon="7.432307973504067">
        <ele>33.780000000000001</ele>
        <time>2017-06-20T15:07:51Z</time>
      </trkpt>
      <trkpt lat="62.712197983637452" lon="7.432342004030943">
        <ele>32.340000000000003</ele>
        <time>2017-06-20T15:07:52Z</time>
      </trkpt>
      <trkpt lat="62.712354976683855" lon="7.432324988767505">
        <ele>31.379999999999999</ele>
        <time>2017-06-20T15:07:53Z</time>
      </trkpt>
      <trkpt lat="62.712512975558639" lon="7.432262040674686">
        <ele>30.420000000000002</ele>
        <time>2017-06-20T15:07:54Z</time>
      </trkpt>
      <trkpt lat="62.712671980261803" lon="7.432155003771186">
        <ele>29.460000000000001</ele>
        <time>2017-06-20T15:07:55Z</time>
      </trkpt>
      <trkpt lat="62.712828973308206" lon="7.432009996846318">
        <ele>28.5</ele>
        <time>2017-06-20T15:07:56Z</time>
      </trkpt>
      <trkpt lat="62.712983032688498" lon="7.431825008243322">
        <ele>28.02</ele>
        <time>2017-06-20T15:07:57Z</time>
      </trkpt>
      <trkpt lat="62.713129967451096" lon="7.431602971628308">
        <ele>27.050000000000001</ele>
        <time>2017-06-20T15:07:58Z</time>
      </trkpt>
      <trkpt lat="62.713274974375963" lon="7.431360986083746">
        <ele>26.09</ele>
        <time>2017-06-20T15:07:59Z</time>
      </trkpt>
      <trkpt lat="62.713412018492818" lon="7.431099973618984">
        <ele>24.649999999999999</ele>
        <time>2017-06-20T15:08:00Z</time>
      </trkpt>
      <trkpt lat="62.715058978646994" lon="7.428393037989736">
        <ele>20.809999999999999</ele>
        <time>2017-06-20T15:08:11Z</time>
      </trkpt>
      <trkpt lat="62.716196989640594" lon="7.427922980859876">
        <ele>12.630000000000001</ele>
        <time>2017-06-20T15:08:17Z</time>
      </trkpt>
      <trkpt lat="62.718518022447824" lon="7.428044015541673">
        <ele>12.15</ele>
        <time>2017-06-20T15:08:29Z</time>
      </trkpt>
      <trkpt lat="62.720021987333894" lon="7.429072977975011">
        <ele>17.440000000000001</ele>
        <time>2017-06-20T15:08:37Z</time>
      </trkpt>
      <trkpt lat="62.722261967137456" lon="7.430647015571594">
        <ele>13.119999999999999</ele>
        <time>2017-06-20T15:08:49Z</time>
      </trkpt>
      <trkpt lat="62.722435975447297" lon="7.43063603527844">
        <ele>12.630000000000001</ele>
        <time>2017-06-20T15:08:50Z</time>
      </trkpt>
      <trkpt lat="62.722610989585519" lon="7.430587001144886">
        <ele>11.67</ele>
        <time>2017-06-20T15:08:51Z</time>
      </trkpt>
      <trkpt lat="62.722792960703373" lon="7.430493962019682">
        <ele>11.19</ele>
        <time>2017-06-20T15:08:52Z</time>
      </trkpt>
      <trkpt lat="62.722970992326736" lon="7.430366976186633">
        <ele>11.19</ele>
        <time>2017-06-20T15:08:53Z</time>
      </trkpt>
      <trkpt lat="62.723146006464958" lon="7.430210988968611">
        <ele>11.19</ele>
        <time>2017-06-20T15:08:54Z</time>
      </trkpt>
      <trkpt lat="62.726018987596035" lon="7.427425011992455">
        <ele>22.25</ele>
        <time>2017-06-20T15:09:11Z</time>
      </trkpt>
      <trkpt lat="62.728885011747479" lon="7.424792004749179">
        <ele>16.48</ele>
        <time>2017-06-20T15:09:27Z</time>
      </trkpt>
      <trkpt lat="62.730636997148395" lon="7.423320980742574">
        <ele>19.359999999999999</ele>
        <time>2017-06-20T15:09:37Z</time>
      </trkpt>
      <trkpt lat="62.731902999803424" lon="7.422262011095882">
        <ele>22.25</ele>
        <time>2017-06-20T15:09:46Z</time>
      </trkpt>
      <trkpt lat="62.732695005834103" lon="7.421489031985402">
        <ele>21.289999999999999</ele>
        <time>2017-06-20T15:09:51Z</time>
      </trkpt>
      <trkpt lat="62.732835989445448" lon="7.421286022290587">
        <ele>21.289999999999999</ele>
        <time>2017-06-20T15:09:52Z</time>
      </trkpt>
      <trkpt lat="62.732960963621736" lon="7.421053005382419">
        <ele>21.289999999999999</ele>
        <time>2017-06-20T15:09:53Z</time>
      </trkpt>
      <trkpt lat="62.733085015788674" lon="7.420802973210812">
        <ele>21.77</ele>
        <time>2017-06-20T15:09:54Z</time>
      </trkpt>
      <trkpt lat="62.733196998015046" lon="7.420527962967753">
        <ele>21.289999999999999</ele>
        <time>2017-06-20T15:09:55Z</time>
      </trkpt>
      <trkpt lat="62.733302023261786" lon="7.420229986310005">
        <ele>21.77</ele>
        <time>2017-06-20T15:09:56Z</time>
      </trkpt>
      <trkpt lat="62.733394978567958" lon="7.419910971075296">
        <ele>21.77</ele>
        <time>2017-06-20T15:09:57Z</time>
      </trkpt>
      <trkpt lat="62.733475025743246" lon="7.419565971940756">
        <ele>22.25</ele>
        <time>2017-06-20T15:09:58Z</time>
      </trkpt>
      <trkpt lat="62.733543002977967" lon="7.419215021654964">
        <ele>23.210000000000001</ele>
        <time>2017-06-20T15:09:59Z</time>
      </trkpt>
      <trkpt lat="62.733594970777631" lon="7.41886499337852">
        <ele>23.690000000000001</ele>
        <time>2017-06-20T15:10:00Z</time>
      </trkpt>
      <trkpt lat="62.733638975769281" lon="7.418510019779205">
        <ele>24.170000000000002</ele>
        <time>2017-06-20T15:10:01Z</time>
      </trkpt>
      <trkpt lat="62.733666971325874" lon="7.41815303452313">
        <ele>24.649999999999999</ele>
        <time>2017-06-20T15:10:02Z</time>
      </trkpt>
      <trkpt lat="62.733675017952919" lon="7.417794037610292">
        <ele>25.129999999999999</ele>
        <time>2017-06-20T15:10:03Z</time>
      </trkpt>
      <trkpt lat="62.733673006296158" lon="7.417436968535185">
        <ele>25.609999999999999</ele>
        <time>2017-06-20T15:10:04Z</time>
      </trkpt>
      <trkpt lat="62.73365599103272" lon="7.41708199493587">
        <ele>26.09</ele>
        <time>2017-06-20T15:10:05Z</time>
      </trkpt>
      <trkpt lat="62.733632018789649" lon="7.416722998023033">
        <ele>26.57</ele>
        <time>2017-06-20T15:10:06Z</time>
      </trkpt>
      <trkpt lat="62.733177971094847" lon="7.41102296859026">
        <ele>34.740000000000002</ele>
        <time>2017-06-20T15:10:22Z</time>
      </trkpt>
      <trkpt lat="62.73307696916163" lon="7.406002962961793">
        <ele>35.229999999999997</ele>
        <time>2017-06-20T15:10:34Z</time>
      </trkpt>
      <trkpt lat="62.73357099853456" lon="7.401615036651492">
        <ele>40.030000000000001</ele>
        <time>2017-06-20T15:10:44Z</time>
      </trkpt>
      <trkpt lat="62.734460989013314" lon="7.39522903226316">
        <ele>49.649999999999999</ele>
        <time>2017-06-20T15:11:00Z</time>
      </trkpt>
      <trkpt lat="62.734953006729484" lon="7.389841983094811">
        <ele>46.280000000000001</ele>
        <time>2017-06-20T15:11:14Z</time>
      </trkpt>
      <trkpt lat="62.734876982867718" lon="7.385074021294713">
        <ele>37.149999999999999</ele>
        <time>2017-06-20T15:11:25Z</time>
      </trkpt>
      <trkpt lat="62.734377002343535" lon="7.380649968981743">
        <ele>28.5</ele>
        <time>2017-06-20T15:11:35Z</time>
      </trkpt>
      <trkpt lat="62.733064983040094" lon="7.372781960293651">
        <ele>13.119999999999999</ele>
        <time>2017-06-20T15:11:54Z</time>
      </trkpt>
      <trkpt lat="62.732504988089204" lon="7.370006963610649">
        <ele>8.310000000000001</ele>
        <time>2017-06-20T15:12:02Z</time>
      </trkpt>
      <trkpt lat="62.73198296315968" lon="7.367334980517626">
        <ele>5.91</ele>
        <time>2017-06-20T15:12:13Z</time>
      </trkpt>
      <trkpt lat="62.731331018730998" lon="7.363923965021968">
        <ele>5.91</ele>
        <time>2017-06-20T15:12:30Z</time>
      </trkpt>
      <trkpt lat="62.731154998764396" lon="7.362954011186957">
        <ele>6.87</ele>
        <time>2017-06-20T15:12:42Z</time>
      </trkpt>
      <trkpt lat="62.730918964371085" lon="7.361771995201707">
        <ele>7.35</ele>
        <time>2017-06-20T15:12:51Z</time>
      </trkpt>
      <trkpt lat="62.730685025453568" lon="7.36025202088058">
        <ele>12.15</ele>
        <time>2017-06-20T15:13:01Z</time>
      </trkpt>
      <trkpt lat="62.730543036013842" lon="7.358025033026934">
        <ele>18.399999999999999</ele>
        <time>2017-06-20T15:13:13Z</time>
      </trkpt>
      <trkpt lat="62.730652000755072" lon="7.355058006942272">
        <ele>24.649999999999999</ele>
        <time>2017-06-20T15:13:26Z</time>
      </trkpt>
      <trkpt lat="62.731032036244869" lon="7.351876990869641">
        <ele>16</ele>
        <time>2017-06-20T15:13:39Z</time>
      </trkpt>
      <trkpt lat="62.731252983212471" lon="7.350011011585593">
        <ele>9.75</ele>
        <time>2017-06-20T15:13:50Z</time>
      </trkpt>
      <trkpt lat="62.731459010392427" lon="7.348549040034413">
        <ele>6.39</ele>
        <time>2017-06-20T15:13:57Z</time>
      </trkpt>
      <trkpt lat="62.731856983155012" lon="7.34525403007865">
        <ele>5.42</ele>
        <time>2017-06-20T15:14:08Z</time>
      </trkpt>
      <trkpt lat="62.731991009786725" lon="7.341938987374306">
        <ele>5.42</ele>
        <time>2017-06-20T15:14:19Z</time>
      </trkpt>
      <trkpt lat="62.732054041698575" lon="7.33784300275147">
        <ele>5.42</ele>
        <time>2017-06-20T15:14:31Z</time>
      </trkpt>
      <trkpt lat="62.732446985319257" lon="7.332446984946728">
        <ele>4.94</ele>
        <time>2017-06-20T15:14:44Z</time>
      </trkpt>
      <trkpt lat="62.733071018010378" lon="7.330221002921462">
        <ele>6.39</ele>
        <time>2017-06-20T15:14:50Z</time>
      </trkpt>
      <trkpt lat="62.734486972913146" lon="7.327103018760681">
        <ele>12.15</ele>
        <time>2017-06-20T15:15:00Z</time>
      </trkpt>
      <trkpt lat="62.735121985897422" lon="7.324621975421906">
        <ele>10.23</ele>
        <time>2017-06-20T15:15:08Z</time>
      </trkpt>
      <trkpt lat="62.735406970605254" lon="7.321490999311209">
        <ele>9.27</ele>
        <time>2017-06-20T15:15:17Z</time>
      </trkpt>
      <trkpt lat="62.735238997265697" lon="7.31837603263557">
        <ele>7.83</ele>
        <time>2017-06-20T15:15:25Z</time>
      </trkpt>
      <trkpt lat="62.735012015327811" lon="7.314268983900547">
        <ele>7.83</ele>
        <time>2017-06-20T15:15:35Z</time>
      </trkpt>
      <trkpt lat="62.735170014202595" lon="7.310338038951159">
        <ele>10.710000000000001</ele>
        <time>2017-06-20T15:15:45Z</time>
      </trkpt>
      <trkpt lat="62.734916964545846" lon="7.30512298643589">
        <ele>10.710000000000001</ele>
        <time>2017-06-20T15:15:58Z</time>
      </trkpt>
      <trkpt lat="62.735150987282395" lon="7.302339021116495">
        <ele>11.19</ele>
        <time>2017-06-20T15:16:05Z</time>
      </trkpt>
      <trkpt lat="62.735659014433622" lon="7.299215001985431">
        <ele>12.630000000000001</ele>
        <time>2017-06-20T15:16:14Z</time>
      </trkpt>
      <trkpt lat="62.735600005835295" lon="7.296833032742143">
        <ele>11.19</ele>
        <time>2017-06-20T15:16:22Z</time>
      </trkpt>
      <trkpt lat="62.735283002257347" lon="7.294436981901527">
        <ele>8.310000000000001</ele>
        <time>2017-06-20T15:16:30Z</time>
      </trkpt>
      <trkpt lat="62.734804982319474" lon="7.290716003626585">
        <ele>10.23</ele>
        <time>2017-06-20T15:16:42Z</time>
      </trkpt>
      <trkpt lat="62.734234007075429" lon="7.287923991680145">
        <ele>1.1</ele>
        <time>2017-06-20T15:16:52Z</time>
      </trkpt>
      <trkpt lat="62.733739977702498" lon="7.286066981032491">
        <ele>-6.59</ele>
        <time>2017-06-20T15:16:59Z</time>
      </trkpt>
      <trkpt lat="62.744343001395464" lon="7.245320035144687">
        <ele>13.6</ele>
        <time>2017-06-20T15:19:44Z</time>
      </trkpt>
      <trkpt lat="62.744048964232206" lon="7.243942972272635">
        <ele>7.83</ele>
        <time>2017-06-20T15:19:52Z</time>
      </trkpt>
      <trkpt lat="62.74403597228229" lon="7.243794025853276">
        <ele>6.87</ele>
        <time>2017-06-20T15:19:53Z</time>
      </trkpt>
      <trkpt lat="62.74403303861618" lon="7.24365497007966">
        <ele>6.87</ele>
        <time>2017-06-20T15:19:54Z</time>
      </trkpt>
      <trkpt lat="62.74403496645391" lon="7.243515998125076">
        <ele>5.91</ele>
        <time>2017-06-20T15:19:55Z</time>
      </trkpt>
      <trkpt lat="62.744047036394477" lon="7.24339404143393">
        <ele>5.91</ele>
        <time>2017-06-20T15:19:56Z</time>
      </trkpt>
      <trkpt lat="62.744062040001154" lon="7.243283987045288">
        <ele>5.91</ele>
        <time>2017-06-20T15:19:57Z</time>
      </trkpt>
      <trkpt lat="62.744084000587463" lon="7.243189020082355">
        <ele>5.91</ele>
        <time>2017-06-20T15:19:58Z</time>
      </trkpt>
      <trkpt lat="62.744114007800817" lon="7.243108972907066">
        <ele>6.39</ele>
        <time>2017-06-20T15:19:59Z</time>
      </trkpt>
      <trkpt lat="62.744143009185791" lon="7.243050970137119">
        <ele>6.39</ele>
        <time>2017-06-20T15:20:00Z</time>
      </trkpt>
      <trkpt lat="62.744166981428862" lon="7.243005959317088">
        <ele>6.39</ele>
        <time>2017-06-20T15:20:01Z</time>
      </trkpt>
      <trkpt lat="62.744234036654234" lon="7.242928007617593">
        <ele>6.39</ele>
        <time>2017-06-20T15:20:03Z</time>
      </trkpt>
      <trkpt lat="62.744281981140375" lon="7.242916021496058">
        <ele>6.87</ele>
        <time>2017-06-20T15:20:04Z</time>
      </trkpt>
      <trkpt lat="62.744339983910322" lon="7.242929013445973">
        <ele>6.87</ele>
        <time>2017-06-20T15:20:05Z</time>
      </trkpt>
      <trkpt lat="62.744466969743371" lon="7.242948962375522">
        <ele>6.39</ele>
        <time>2017-06-20T15:20:07Z</time>
      </trkpt>
      <trkpt lat="62.74452899582684" lon="7.242908980697393">
        <ele>6.39</ele>
        <time>2017-06-20T15:20:08Z</time>
      </trkpt>
      <trkpt lat="62.744580963626504" lon="7.242831028997898">
        <ele>6.39</ele>
        <time>2017-06-20T15:20:09Z</time>
      </trkpt>
      <trkpt lat="62.744615999981761" lon="7.242711000144482">
        <ele>6.39</ele>
        <time>2017-06-20T15:20:10Z</time>
      </trkpt>
      <trkpt lat="62.744631003588438" lon="7.24257898516953">
        <ele>6.39</ele>
        <time>2017-06-20T15:20:11Z</time>
      </trkpt>
      <trkpt lat="62.744619017466903" lon="7.24244998767972">
        <ele>5.91</ele>
        <time>2017-06-20T15:20:12Z</time>
      </trkpt>
      <trkpt lat="62.744582975283265" lon="7.242324007675052">
        <ele>5.91</ele>
        <time>2017-06-20T15:20:13Z</time>
      </trkpt>
      <trkpt lat="62.744530001655221" lon="7.242194004356861">
        <ele>5.91</ele>
        <time>2017-06-20T15:20:14Z</time>
      </trkpt>
      <trkpt lat="62.744470993056893" lon="7.242052014917135">
        <ele>5.91</ele>
        <time>2017-06-20T15:20:15Z</time>
      </trkpt>
      <trkpt lat="62.744349036365747" lon="7.241722019389272">
        <ele>5.91</ele>
        <time>2017-06-20T15:20:17Z</time>
      </trkpt>
      <trkpt lat="62.74429296143353" lon="7.241519009694457">
        <ele>5.91</ele>
        <time>2017-06-20T15:20:18Z</time>
      </trkpt>
      <trkpt lat="62.744240993633866" lon="7.241290016099811">
        <ele>5.91</ele>
        <time>2017-06-20T15:20:19Z</time>
      </trkpt>
      <trkpt lat="62.743893982842565" lon="7.23927098326385">
        <ele>9.27</ele>
        <time>2017-06-20T15:20:27Z</time>
      </trkpt>
      <trkpt lat="62.743370030075312" lon="7.235910007730126">
        <ele>9.75</ele>
        <time>2017-06-20T15:20:41Z</time>
      </trkpt>
      <trkpt lat="62.742898967117071" lon="7.232940969988704">
        <ele>9.75</ele>
        <time>2017-06-20T15:20:55Z</time>
      </trkpt>
      <trkpt lat="62.742834007367492" lon="7.232496980577707">
        <ele>9.27</ele>
        <time>2017-06-20T15:21:03Z</time>
      </trkpt>
      <trkpt lat="62.742667961865664" lon="7.231346983462572">
        <ele>8.789999999999999</ele>
        <time>2017-06-20T15:21:10Z</time>
      </trkpt>
      <trkpt lat="62.742282981052995" lon="7.228882033377886">
        <ele>6.87</ele>
        <time>2017-06-20T15:21:22Z</time>
      </trkpt>
      <trkpt lat="62.741857012733817" lon="7.226173002272844">
        <ele>4.46</ele>
        <time>2017-06-20T15:21:33Z</time>
      </trkpt>
      <trkpt lat="62.741431966423988" lon="7.22369497641921">
        <ele>5.42</ele>
        <time>2017-06-20T15:21:44Z</time>
      </trkpt>
      <trkpt lat="62.74093802087009" lon="7.219908032566309">
        <ele>8.789999999999999</ele>
        <time>2017-06-20T15:21:59Z</time>
      </trkpt>
      <trkpt lat="62.740728976204991" lon="7.216948969289661">
        <ele>7.83</ele>
        <time>2017-06-20T15:22:10Z</time>
      </trkpt>
      <trkpt lat="62.74055396206677" lon="7.214459963142872">
        <ele>6.87</ele>
        <time>2017-06-20T15:22:21Z</time>
      </trkpt>
      <trkpt lat="62.740438040345907" lon="7.210858007892966">
        <ele>5.91</ele>
        <time>2017-06-20T15:22:37Z</time>
      </trkpt>
      <trkpt lat="62.740305019542575" lon="7.206994034349918">
        <ele>5.91</ele>
        <time>2017-06-20T15:22:55Z</time>
      </trkpt>
      <trkpt lat="62.739901011809707" lon="7.202407037839294">
        <ele>5.91</ele>
        <time>2017-06-20T15:23:15Z</time>
      </trkpt>
      <trkpt lat="62.739805039018393" lon="7.200391022488475">
        <ele>6.87</ele>
        <time>2017-06-20T15:23:26Z</time>
      </trkpt>
      <trkpt lat="62.739795986562967" lon="7.199616031721234">
        <ele>8.310000000000001</ele>
        <time>2017-06-20T15:23:36Z</time>
      </trkpt>
      <trkpt lat="62.739856000989676" lon="7.19937396235764">
        <ele>11.67</ele>
        <time>2017-06-20T15:23:54Z</time>
      </trkpt>
      <trkpt lat="62.73984401486814" lon="7.198643982410431">
        <ele>14.56</ele>
        <time>2017-06-20T15:24:00Z</time>
      </trkpt>
      <trkpt lat="62.739820964634418" lon="7.198428986594081">
        <ele>15.52</ele>
        <time>2017-06-20T15:24:08Z</time>
      </trkpt>
      <trkpt lat="62.739820964634418" lon="7.198435021564364">
        <ele>15.52</ele>
        <time>2017-06-20T15:25:35Z</time>
      </trkpt>
      <trkpt lat="62.739793974906206" lon="7.198164034634829">
        <ele>15.52</ele>
        <time>2017-06-20T15:26:22Z</time>
      </trkpt>
      <trkpt lat="62.739767991006374" lon="7.198089016601443">
        <ele>15.039999999999999</ele>
        <time>2017-06-20T15:26:23Z</time>
      </trkpt>
      <trkpt lat="62.739734966307878" lon="7.198041994124651">
        <ele>14.56</ele>
        <time>2017-06-20T15:26:24Z</time>
      </trkpt>
      <trkpt lat="62.739698002114892" lon="7.198006035760045">
        <ele>14.56</ele>
        <time>2017-06-20T15:26:25Z</time>
      </trkpt>
      <trkpt lat="62.73965198546648" lon="7.197998994961381">
        <ele>14.08</ele>
        <time>2017-06-20T15:26:26Z</time>
      </trkpt>
      <trkpt lat="62.73960798047483" lon="7.1980170160532">
        <ele>14.08</ele>
        <time>2017-06-20T15:26:27Z</time>
      </trkpt>
      <trkpt lat="62.739570010453463" lon="7.198053980246186">
        <ele>13.6</ele>
        <time>2017-06-20T15:26:28Z</time>
      </trkpt>
      <trkpt lat="62.739533968269825" lon="7.198096979409456">
        <ele>13.6</ele>
        <time>2017-06-20T15:26:29Z</time>
      </trkpt>
      <trkpt lat="62.739508990198374" lon="7.198149031028152">
        <ele>13.6</ele>
        <time>2017-06-20T15:26:30Z</time>
      </trkpt>
      <trkpt lat="62.739488035440445" lon="7.198210973292589">
        <ele>13.119999999999999</ele>
        <time>2017-06-20T15:26:31Z</time>
      </trkpt>
      <trkpt lat="62.739472026005387" lon="7.198285991325975">
        <ele>13.119999999999999</ele>
        <time>2017-06-20T15:26:32Z</time>
      </trkpt>
      <trkpt lat="62.739459034055471" lon="7.198366960510612">
        <ele>13.119999999999999</ele>
        <time>2017-06-20T15:26:33Z</time>
      </trkpt>
      <trkpt lat="62.739446964114904" lon="7.198443990200758">
        <ele>13.119999999999999</ele>
        <time>2017-06-20T15:26:34Z</time>
      </trkpt>
      <trkpt lat="62.739402037113905" lon="7.198974983766675">
        <ele>12.15</ele>
        <time>2017-06-20T15:26:46Z</time>
      </trkpt>
      <trkpt lat="62.739372029900551" lon="7.198892002925277">
        <ele>11.19</ele>
        <time>2017-06-20T15:27:34Z</time>
      </trkpt>
      <trkpt lat="62.739383010193706" lon="7.198766022920609">
        <ele>12.15</ele>
        <time>2017-06-20T15:28:08Z</time>
      </trkpt>
    </trkseg>
  </trk>

  <trk>
    <name>Track vom: 20 JUN 2017 18:00</name>
    <extensions>
      <gpxx:TrackExtension>
        <gpxx:DisplayColor>DarkGray</gpxx:DisplayColor>
      </gpxx:TrackExtension>
    </extensions>
    <trkseg>
      <trkpt lat="62.739430032670498" lon="7.198830982670188">
        <ele>26.09</ele>
        <time>2017-06-20T16:00:51Z</time>
      </trkpt>
      <trkpt lat="62.739425003528595" lon="7.19887800514698">
        <ele>32.82</ele>
        <time>2017-06-20T16:01:58Z</time>
      </trkpt>
      <trkpt lat="62.739439001306891" lon="7.198914969339967">
        <ele>30.420000000000002</ele>
        <time>2017-06-20T16:02:16Z</time>
      </trkpt>
      <trkpt lat="62.739476971328259" lon="7.19859603792429">
        <ele>28.02</ele>
        <time>2017-06-20T16:02:21Z</time>
      </trkpt>
      <trkpt lat="62.739485017955303" lon="7.198516996577382">
        <ele>27.050000000000001</ele>
        <time>2017-06-20T16:02:22Z</time>
      </trkpt>
      <trkpt lat="62.73950002156198" lon="7.198434015735984">
        <ele>26.57</ele>
        <time>2017-06-20T16:02:23Z</time>
      </trkpt>
      <trkpt lat="62.73952298797667" lon="7.19834198243916">
        <ele>26.57</ele>
        <time>2017-06-20T16:02:24Z</time>
      </trkpt>
      <trkpt lat="62.739548971876502" lon="7.19825497828424">
        <ele>26.57</ele>
        <time>2017-06-20T16:02:25Z</time>
      </trkpt>
      <trkpt lat="62.739583002403378" lon="7.198203010484576">
        <ele>26.57</ele>
        <time>2017-06-20T16:02:26Z</time>
      </trkpt>
      <trkpt lat="62.739618038758636" lon="7.198164034634829">
        <ele>26.57</ele>
        <time>2017-06-20T16:02:27Z</time>
      </trkpt>
      <trkpt lat="62.7396509796381" lon="7.198139978572726">
        <ele>26.57</ele>
        <time>2017-06-20T16:02:28Z</time>
      </trkpt>
      <trkpt lat="62.739711999893188" lon="7.198098991066217">
        <ele>26.09</ele>
        <time>2017-06-20T16:02:38Z</time>
      </trkpt>
      <trkpt lat="62.739732032641768" lon="7.198076024651527">
        <ele>25.609999999999999</ele>
        <time>2017-06-20T16:02:39Z</time>
      </trkpt>
      <trkpt lat="62.739756004884839" lon="7.198021961376071">
        <ele>25.609999999999999</ele>
        <time>2017-06-20T16:02:40Z</time>
      </trkpt>
      <trkpt lat="62.739786012098193" lon="7.197921965271235">
        <ele>25.609999999999999</ele>
        <time>2017-06-20T16:02:41Z</time>
      </trkpt>
      <trkpt lat="62.739809984341264" lon="7.197790034115315">
        <ele>24.649999999999999</ele>
        <time>2017-06-20T16:02:42Z</time>
      </trkpt>
      <trkpt lat="62.739821970462799" lon="7.197618959471583">
        <ele>24.649999999999999</ele>
        <time>2017-06-20T16:02:43Z</time>
      </trkpt>
      <trkpt lat="62.739824987947941" lon="7.197414021939039">
        <ele>24.649999999999999</ele>
        <time>2017-06-20T16:02:44Z</time>
      </trkpt>
      <trkpt lat="62.739824987947941" lon="7.197193996980786">
        <ele>24.170000000000002</ele>
        <time>2017-06-20T16:02:45Z</time>
      </trkpt>
      <trkpt lat="62.739814007654786" lon="7.194038964807987">
        <ele>20.809999999999999</ele>
        <time>2017-06-20T16:02:58Z</time>
      </trkpt>
      <trkpt lat="62.739805961027741" lon="7.191180987283588">
        <ele>17.920000000000002</ele>
        <time>2017-06-20T16:03:11Z</time>
      </trkpt>
      <trkpt lat="62.739747036248446" lon="7.187505019828677">
        <ele>12.630000000000001</ele>
        <time>2017-06-20T16:03:26Z</time>
      </trkpt>
      <trkpt lat="62.739345962181687" lon="7.184835970401764">
        <ele>13.119999999999999</ele>
        <time>2017-06-20T16:03:37Z</time>
      </trkpt>
      <trkpt lat="62.738895015791059" lon="7.181896017864347">
        <ele>16</ele>
        <time>2017-06-20T16:03:51Z</time>
      </trkpt>
      <trkpt lat="62.738888980820775" lon="7.181743970140815">
        <ele>15.52</ele>
        <time>2017-06-20T16:03:52Z</time>
      </trkpt>
      <trkpt lat="62.738895015791059" lon="7.181604998186231">
        <ele>15.52</ele>
        <time>2017-06-20T16:03:53Z</time>
      </trkpt>
      <trkpt lat="62.73891999386251" lon="7.181491004303098">
        <ele>16</ele>
        <time>2017-06-20T16:03:54Z</time>
      </trkpt>
      <trkpt lat="62.738957041874528" lon="7.181399976834655">
        <ele>15.52</ele>
        <time>2017-06-20T16:03:55Z</time>
      </trkpt>
      <trkpt lat="62.739008003845811" lon="7.181334011256695">
        <ele>14.56</ele>
        <time>2017-06-20T16:03:56Z</time>
      </trkpt>
      <trkpt lat="62.73907296359539" lon="7.181277014315128">
        <ele>14.08</ele>
        <time>2017-06-20T16:03:57Z</time>
      </trkpt>
      <trkpt lat="62.739143958315253" lon="7.181228986009955">
        <ele>14.08</ele>
        <time>2017-06-20T16:03:58Z</time>
      </trkpt>
      <trkpt lat="62.739215036854148" lon="7.18119302764535">
        <ele>14.08</ele>
        <time>2017-06-20T16:03:59Z</time>
      </trkpt>
      <trkpt lat="62.739389967173338" lon="7.181125972419977">
        <ele>13.6</ele>
        <time>2017-06-20T16:04:02Z</time>
      </trkpt>
      <trkpt lat="62.73943698965013" lon="7.181089008226991">
        <ele>13.6</ele>
        <time>2017-06-20T16:04:03Z</time>
      </trkpt>
      <trkpt lat="62.739472026005387" lon="7.181037962436676">
        <ele>13.6</ele>
        <time>2017-06-20T16:04:04Z</time>
      </trkpt>
      <trkpt lat="62.739491974934936" lon="7.180955987423658">
        <ele>13.119999999999999</ele>
        <time>2017-06-20T16:04:05Z</time>
      </trkpt>
      <trkpt lat="62.739489041268826" lon="7.180845011025667">
        <ele>13.119999999999999</ele>
        <time>2017-06-20T16:04:06Z</time>
      </trkpt>
      <trkpt lat="62.739477977156639" lon="7.180704027414322">
        <ele>13.119999999999999</ele>
        <time>2017-06-20T16:04:07Z</time>
      </trkpt>
      <trkpt lat="62.739503039047122" lon="7.179051032289863">
        <ele>11.67</ele>
        <time>2017-06-20T16:04:18Z</time>
      </trkpt>
      <trkpt lat="62.739653997123241" lon="7.177279014140368">
        <ele>9.75</ele>
        <time>2017-06-20T16:04:31Z</time>
      </trkpt>
      <trkpt lat="62.739781988784671" lon="7.175599029287696">
        <ele>12.15</ele>
        <time>2017-06-20T16:04:42Z</time>
      </trkpt>
      <trkpt lat="62.739776037633419" lon="7.175455028191209">
        <ele>12.630000000000001</ele>
        <time>2017-06-20T16:04:43Z</time>
      </trkpt>
      <trkpt lat="62.7397580165416" lon="7.175316978245974">
        <ele>13.119999999999999</ele>
        <time>2017-06-20T16:04:44Z</time>
      </trkpt>
      <trkpt lat="62.739732032641768" lon="7.175185969099402">
        <ele>13.6</ele>
        <time>2017-06-20T16:04:45Z</time>
      </trkpt>
      <trkpt lat="62.739704037085176" lon="7.175070969387889">
        <ele>14.08</ele>
        <time>2017-06-20T16:04:46Z</time>
      </trkpt>
      <trkpt lat="62.739656008780003" lon="7.174866031855345">
        <ele>14.56</ele>
        <time>2017-06-20T16:04:48Z</time>
      </trkpt>
      <trkpt lat="62.739647962152958" lon="7.174772992730141">
        <ele>15.039999999999999</ele>
        <time>2017-06-20T16:04:49Z</time>
      </trkpt>
      <trkpt lat="62.7396509796381" lon="7.174695041030645">
        <ele>15.039999999999999</ele>
        <time>2017-06-20T16:04:50Z</time>
      </trkpt>
      <trkpt lat="62.739699007943273" lon="7.174540981650353">
        <ele>14.56</ele>
        <time>2017-06-20T16:04:53Z</time>
      </trkpt>
      <trkpt lat="62.739752987399697" lon="7.174431011080742">
        <ele>14.08</ele>
        <time>2017-06-20T16:04:55Z</time>
      </trkpt>
      <trkpt lat="62.739778971299529" lon="7.174296984449029">
        <ele>14.56</ele>
        <time>2017-06-20T16:04:57Z</time>
      </trkpt>
      <trkpt lat="62.739777965471148" lon="7.174220038577914">
        <ele>16.48</ele>
        <time>2017-06-20T16:05:00Z</time>
      </trkpt>
      <trkpt lat="62.739613009616733" lon="7.174092968925834">
        <ele>12.630000000000001</ele>
        <time>2017-06-20T16:05:13Z</time>
      </trkpt>
      <trkpt lat="62.739604962989688" lon="7.174135968089104">
        <ele>16.48</ele>
        <time>2017-06-20T16:05:29Z</time>
      </trkpt>
      <trkpt lat="62.739647962152958" lon="7.174062039703131">
        <ele>16.48</ele>
        <time>2017-06-20T16:05:33Z</time>
      </trkpt>
      <trkpt lat="62.739675035700202" lon="7.173981992527843">
        <ele>16.48</ele>
        <time>2017-06-20T16:05:47Z</time>
      </trkpt>
      <trkpt lat="62.739676041528583" lon="7.17397796921432">
        <ele>16.48</ele>
        <time>2017-06-20T16:06:35Z</time>
      </trkpt>
      <trkpt lat="62.739674029871821" lon="7.173959026113153">
        <ele>16</ele>
        <time>2017-06-20T16:07:26Z</time>
      </trkpt>
      <trkpt lat="62.739867987111211" lon="7.174350963905454">
        <ele>35.229999999999997</ele>
        <time>2017-06-20T16:16:55Z</time>
      </trkpt>
      <trkpt lat="62.739805039018393" lon="7.174311988055706">
        <ele>18.399999999999999</ele>
        <time>2017-06-20T16:17:31Z</time>
      </trkpt>
      <trkpt lat="62.73975701071322" lon="7.17423303052783">
        <ele>13.6</ele>
        <time>2017-06-20T16:17:58Z</time>
      </trkpt>
      <trkpt lat="62.739763967692852" lon="7.174508962780237">
        <ele>15.52</ele>
        <time>2017-06-20T16:18:18Z</time>
      </trkpt>
      <trkpt lat="62.739747958257794" lon="7.174392035230994">
        <ele>13.6</ele>
        <time>2017-06-20T16:18:37Z</time>
      </trkpt>
      <trkpt lat="62.739751981571317" lon="7.174356998875737">
        <ele>10.710000000000001</ele>
        <time>2017-06-20T16:18:46Z</time>
      </trkpt>
      <trkpt lat="62.739720968529582" lon="7.174164969474077">
        <ele>8.310000000000001</ele>
        <time>2017-06-20T16:18:54Z</time>
      </trkpt>
      <trkpt lat="62.739717029035091" lon="7.17397402971983">
        <ele>0.62</ele>
        <time>2017-06-20T16:19:10Z</time>
      </trkpt>
      <trkpt lat="62.739727003499866" lon="7.173884008079767">
        <ele>4.94</ele>
        <time>2017-06-20T16:19:29Z</time>
      </trkpt>
      <trkpt lat="62.739773020148277" lon="7.174089029431343">
        <ele>5.91</ele>
        <time>2017-06-20T16:19:37Z</time>
      </trkpt>
      <trkpt lat="62.739753993228078" lon="7.174440985545516">
        <ele>8.789999999999999</ele>
        <time>2017-06-20T16:19:42Z</time>
      </trkpt>
      <trkpt lat="62.739593982696533" lon="7.174901990219951">
        <ele>15.039999999999999</ele>
        <time>2017-06-20T16:19:53Z</time>
      </trkpt>
      <trkpt lat="62.739615021273494" lon="7.175062000751495">
        <ele>14.08</ele>
        <time>2017-06-20T16:19:57Z</time>
      </trkpt>
      <trkpt lat="62.739645028486848" lon="7.175166020169854">
        <ele>13.6</ele>
        <time>2017-06-20T16:19:58Z</time>
      </trkpt>
      <trkpt lat="62.73973697796464" lon="7.175543960183859">
        <ele>11.67</ele>
        <time>2017-06-20T16:20:01Z</time>
      </trkpt>
      <trkpt lat="62.739750975742936" lon="7.175700031220913">
        <ele>11.19</ele>
        <time>2017-06-20T16:20:02Z</time>
      </trkpt>
      <trkpt lat="62.739753993228078" lon="7.175859035924077">
        <ele>10.23</ele>
        <time>2017-06-20T16:20:03Z</time>
      </trkpt>
      <trkpt lat="62.739746030420065" lon="7.176008988171816">
        <ele>9.75</ele>
        <time>2017-06-20T16:20:04Z</time>
      </trkpt>
      <trkpt lat="62.739732032641768" lon="7.176173022016883">
        <ele>9.27</ele>
        <time>2017-06-20T16:20:05Z</time>
      </trkpt>
      <trkpt lat="62.739536985754967" lon="7.178417025133967">
        <ele>7.83</ele>
        <time>2017-06-20T16:20:16Z</time>
      </trkpt>
      <trkpt lat="62.739362977445126" lon="7.180225001648068">
        <ele>7.83</ele>
        <time>2017-06-20T16:20:26Z</time>
      </trkpt>
      <trkpt lat="62.739348979666829" lon="7.180733028799295">
        <ele>8.310000000000001</ele>
        <time>2017-06-20T16:20:29Z</time>
      </trkpt>
      <trkpt lat="62.739332970231771" lon="7.180874012410641">
        <ele>8.310000000000001</ele>
        <time>2017-06-20T16:20:30Z</time>
      </trkpt>
      <trkpt lat="62.739303968846798" lon="7.180985994637013">
        <ele>8.310000000000001</ele>
        <time>2017-06-20T16:20:31Z</time>
      </trkpt>
      <trkpt lat="62.739258036017418" lon="7.181081967428327">
        <ele>7.83</ele>
        <time>2017-06-20T16:20:32Z</time>
      </trkpt>
      <trkpt lat="62.73919802159071" lon="7.181164026260376">
        <ele>7.83</ele>
        <time>2017-06-20T16:20:33Z</time>
      </trkpt>
      <trkpt lat="62.739125015214086" lon="7.181227980181575">
        <ele>8.310000000000001</ele>
        <time>2017-06-20T16:20:34Z</time>
      </trkpt>
      <trkpt lat="62.739045973867178" lon="7.18127902597189">
        <ele>8.789999999999999</ele>
        <time>2017-06-20T16:20:35Z</time>
      </trkpt>
      <trkpt lat="62.738970033824444" lon="7.181314984336495">
        <ele>9.27</ele>
        <time>2017-06-20T16:20:36Z</time>
      </trkpt>
      <trkpt lat="62.738712960854173" lon="7.181367035955191">
        <ele>10.710000000000001</ele>
        <time>2017-06-20T16:20:40Z</time>
      </trkpt>
      <trkpt lat="62.73866199888289" lon="7.181406011804938">
        <ele>10.710000000000001</ele>
        <time>2017-06-20T16:20:41Z</time>
      </trkpt>
      <trkpt lat="62.738625034689903" lon="7.181468959897757">
        <ele>10.23</ele>
        <time>2017-06-20T16:20:42Z</time>
      </trkpt>
      <trkpt lat="62.738615982234478" lon="7.181567028164864">
        <ele>9.75</ele>
        <time>2017-06-20T16:20:43Z</time>
      </trkpt>
      <trkpt lat="62.738631991669536" lon="7.181668030098081">
        <ele>9.27</ele>
        <time>2017-06-20T16:20:44Z</time>
      </trkpt>
      <trkpt lat="62.738666022196412" lon="7.181781018152833">
        <ele>8.789999999999999</ele>
        <time>2017-06-20T16:20:45Z</time>
      </trkpt>
      <trkpt lat="62.738709021359682" lon="7.181918984279037">
        <ele>8.789999999999999</ele>
        <time>2017-06-20T16:20:46Z</time>
      </trkpt>
      <trkpt lat="62.738795019686222" lon="7.182288961485028">
        <ele>7.35</ele>
        <time>2017-06-20T16:20:48Z</time>
      </trkpt>
      <trkpt lat="62.739235991612077" lon="7.184877041727305">
        <ele>2.54</ele>
        <time>2017-06-20T16:20:58Z</time>
      </trkpt>
      <trkpt lat="62.739681992679834" lon="7.187977004796267">
        <ele>-0.34</ele>
        <time>2017-06-20T16:21:10Z</time>
      </trkpt>
      <trkpt lat="62.739695990458131" lon="7.191204037517309">
        <ele>0.62</ele>
        <time>2017-06-20T16:21:22Z</time>
      </trkpt>
      <trkpt lat="62.73965198546648" lon="7.1920679602772">
        <ele>0.62</ele>
        <time>2017-06-20T16:21:27Z</time>
      </trkpt>
      <trkpt lat="62.739632036536932" lon="7.192162005230784">
        <ele>1.1</ele>
        <time>2017-06-20T16:21:28Z</time>
      </trkpt>
      <trkpt lat="62.739601023495197" lon="7.19224096275866">
        <ele>1.1</ele>
        <time>2017-06-20T16:21:29Z</time>
      </trkpt>
      <trkpt lat="62.739556012675166" lon="7.192295026034117">
        <ele>0.62</ele>
        <time>2017-06-20T16:21:30Z</time>
      </trkpt>
      <trkpt lat="62.7394990157336" lon="7.192327966913581">
        <ele>0.62</ele>
        <time>2017-06-20T16:21:31Z</time>
      </trkpt>
      <trkpt lat="62.739434977993369" lon="7.192350011318922">
        <ele>0.62</ele>
        <time>2017-06-20T16:21:32Z</time>
      </trkpt>
      <trkpt lat="62.739368006587029" lon="7.192356968298554">
        <ele>0.62</ele>
        <time>2017-06-20T16:21:33Z</time>
      </trkpt>
    </trkseg>
  </trk>

  <trk>
    <name>Track vom: 20 JUN 2017 18:26</name>
    <extensions>
      <gpxx:TrackExtension>
        <gpxx:DisplayColor>DarkGray</gpxx:DisplayColor>
      </gpxx:TrackExtension>
    </extensions>
    <trkseg>
      <trkpt lat="62.737891031429172" lon="7.191823963075876">
        <ele>-28.699999999999999</ele>
        <time>2017-06-20T16:26:06Z</time>
      </trkpt>
      <trkpt lat="62.737849960103631" lon="7.191828992217779">
        <ele>-32.549999999999997</ele>
        <time>2017-06-20T16:27:01Z</time>
      </trkpt>
      <trkpt lat="62.737847026437521" lon="7.191832009702921">
        <ele>-33.030000000000001</ele>
        <time>2017-06-20T16:27:30Z</time>
      </trkpt>
      <trkpt lat="62.737866975367069" lon="7.191891018301249">
        <ele>-31.109999999999999</ele>
        <time>2017-06-20T16:27:33Z</time>
      </trkpt>
      <trkpt lat="62.738181967288256" lon="7.191713992506266">
        <ele>-24.859999999999999</ele>
        <time>2017-06-20T16:27:43Z</time>
      </trkpt>
      <trkpt lat="62.738223960623145" lon="7.191765960305929">
        <ele>-24.379999999999999</ele>
        <time>2017-06-20T16:27:44Z</time>
      </trkpt>
      <trkpt lat="62.738264026120305" lon="7.191856987774372">
        <ele>-23.899999999999999</ele>
        <time>2017-06-20T16:27:45Z</time>
      </trkpt>
      <trkpt lat="62.73842403665185" lon="7.192149013280869">
        <ele>-22.93</ele>
        <time>2017-06-20T16:27:48Z</time>
      </trkpt>
      <trkpt lat="62.738488996401429" lon="7.192222019657493">
        <ele>-22.449999999999999</ele>
        <time>2017-06-20T16:27:49Z</time>
      </trkpt>
      <trkpt lat="62.738560996949673" lon="7.192277004942298">
        <ele>-22.449999999999999</ele>
        <time>2017-06-20T16:27:50Z</time>
      </trkpt>
      <trkpt lat="62.73864196613431" lon="7.192309023812413">
        <ele>-21.969999999999999</ele>
        <time>2017-06-20T16:27:51Z</time>
      </trkpt>
      <trkpt lat="62.738717989996076" lon="7.192339031025767">
        <ele>-21.489999999999998</ele>
        <time>2017-06-20T16:27:52Z</time>
      </trkpt>
      <trkpt lat="62.739292988553643" lon="7.192398961633444">
        <ele>-19.57</ele>
        <time>2017-06-20T16:28:00Z</time>
      </trkpt>
      <trkpt lat="62.739572022110224" lon="7.192540029063821">
        <ele>-17.170000000000002</ele>
        <time>2017-06-20T16:28:07Z</time>
      </trkpt>
      <trkpt lat="62.739575961604714" lon="7.192541034892201">
        <ele>-16.690000000000001</ele>
        <time>2017-06-20T16:28:23Z</time>
      </trkpt>
      <trkpt lat="62.739610997959971" lon="7.192640025168657">
        <ele>-16.210000000000001</ele>
        <time>2017-06-20T16:28:52Z</time>
      </trkpt>
      <trkpt lat="62.739632036536932" lon="7.192743038758636">
        <ele>-16.210000000000001</ele>
        <time>2017-06-20T16:28:53Z</time>
      </trkpt>
      <trkpt lat="62.739648967981339" lon="7.192884022369981">
        <ele>-15.720000000000001</ele>
        <time>2017-06-20T16:28:54Z</time>
      </trkpt>
      <trkpt lat="62.739658020436764" lon="7.193032968789339">
        <ele>-15.720000000000001</ele>
        <time>2017-06-20T16:28:55Z</time>
      </trkpt>
      <trkpt lat="62.739667994901538" lon="7.193189961835742">
        <ele>-15.24</ele>
        <time>2017-06-20T16:28:56Z</time>
      </trkpt>
      <trkpt lat="62.739688027650118" lon="7.19479501247406">
        <ele>-13.800000000000001</ele>
        <time>2017-06-20T16:29:05Z</time>
      </trkpt>
      <trkpt lat="62.739684004336596" lon="7.197891036048532">
        <ele>-12.359999999999999</ele>
        <time>2017-06-20T16:29:17Z</time>
      </trkpt>
      <trkpt lat="62.739760028198361" lon="7.201962964609265">
        <ele>-13.32</ele>
        <time>2017-06-20T16:29:32Z</time>
      </trkpt>
      <trkpt lat="62.740246010944247" lon="7.207596022635698">
        <ele>-13.800000000000001</ele>
        <time>2017-06-20T16:29:52Z</time>
      </trkpt>
      <trkpt lat="62.740408033132553" lon="7.213066974654794">
        <ele>-11.4</ele>
        <time>2017-06-20T16:30:10Z</time>
      </trkpt>
      <trkpt lat="62.740762000903487" lon="7.218522001057863">
        <ele>-9.960000000000001</ele>
        <time>2017-06-20T16:30:28Z</time>
      </trkpt>
      <trkpt lat="62.740936009213328" lon="7.221025004982948">
        <ele>-8.51</ele>
        <time>2017-06-20T16:30:38Z</time>
      </trkpt>
      <trkpt lat="62.741561969742179" lon="7.224941030144692">
        <ele>-9</ele>
        <time>2017-06-20T16:30:54Z</time>
      </trkpt>
      <trkpt lat="62.742061028257012" lon="7.2280109860003">
        <ele>-8.029999999999999</ele>
        <time>2017-06-20T16:31:05Z</time>
      </trkpt>
      <trkpt lat="62.742782039567828" lon="7.232766961678863">
        <ele>-3.23</ele>
        <time>2017-06-20T16:31:23Z</time>
      </trkpt>
      <trkpt lat="62.743459967896342" lon="7.23694802261889">
        <ele>-1.79</ele>
        <time>2017-06-20T16:31:38Z</time>
      </trkpt>
      <trkpt lat="62.744186008349061" lon="7.241481961682439">
        <ele>-2.75</ele>
        <time>2017-06-20T16:31:54Z</time>
      </trkpt>
      <trkpt lat="62.744252979755402" lon="7.242111023515463">
        <ele>-3.71</ele>
        <time>2017-06-20T16:31:57Z</time>
      </trkpt>
      <trkpt lat="62.744253985583782" lon="7.242300035431981">
        <ele>-3.71</ele>
        <time>2017-06-20T16:31:58Z</time>
      </trkpt>
      <trkpt lat="62.744281981140375" lon="7.242844020947814">
        <ele>-3.23</ele>
        <time>2017-06-20T16:32:01Z</time>
      </trkpt>
      <trkpt lat="62.744329003617167" lon="7.243007970973849">
        <ele>-3.71</ele>
        <time>2017-06-20T16:32:02Z</time>
      </trkpt>
      <trkpt lat="62.744387006387115" lon="7.243170998990536">
        <ele>-3.71</ele>
        <time>2017-06-20T16:32:03Z</time>
      </trkpt>
      <trkpt lat="62.744648018851876" lon="7.243924029171467">
        <ele>-2.75</ele>
        <time>2017-06-20T16:32:07Z</time>
      </trkpt>
      <trkpt lat="62.745438013225794" lon="7.24722096696496">
        <ele>-1.79</ele>
        <time>2017-06-20T16:32:20Z</time>
      </trkpt>
      <trkpt lat="62.74646395817399" lon="7.251692041754723">
        <ele>6.87</ele>
        <time>2017-06-20T16:32:34Z</time>
      </trkpt>
      <trkpt lat="62.747499961405993" lon="7.256625965237618">
        <ele>11.19</ele>
        <time>2017-06-20T16:32:50Z</time>
      </trkpt>
      <trkpt lat="62.747758040204644" lon="7.258239984512329">
        <ele>12.15</ele>
        <time>2017-06-20T16:32:56Z</time>
      </trkpt>
      <trkpt lat="62.747759968042374" lon="7.258408963680267">
        <ele>12.15</ele>
        <time>2017-06-20T16:32:57Z</time>
      </trkpt>
      <trkpt lat="62.7477499935776" lon="7.258560005575419">
        <ele>12.15</ele>
        <time>2017-06-20T16:32:58Z</time>
      </trkpt>
      <trkpt lat="62.7477309666574" lon="7.258830992504954">
        <ele>12.15</ele>
        <time>2017-06-20T16:33:00Z</time>
      </trkpt>
      <trkpt lat="62.747737001627684" lon="7.258968958631158">
        <ele>12.15</ele>
        <time>2017-06-20T16:33:01Z</time>
      </trkpt>
      <trkpt lat="62.747758962213993" lon="7.259104996919632">
        <ele>12.630000000000001</ele>
        <time>2017-06-20T16:33:02Z</time>
      </trkpt>
      <trkpt lat="62.74779299274087" lon="7.25920801050961">
        <ele>12.15</ele>
        <time>2017-06-20T16:33:03Z</time>
      </trkpt>
      <trkpt lat="62.747840015217662" lon="7.259267019107938">
        <ele>12.630000000000001</ele>
        <time>2017-06-20T16:33:04Z</time>
      </trkpt>
      <trkpt lat="62.747890977188945" lon="7.259285040199757">
        <ele>12.630000000000001</ele>
        <time>2017-06-20T16:33:05Z</time>
      </trkpt>
      <trkpt lat="62.747949985787272" lon="7.259264001622796">
        <ele>12.630000000000001</ele>
        <time>2017-06-20T16:33:06Z</time>
      </trkpt>
      <trkpt lat="62.7480089943856" lon="7.259202981367707">
        <ele>12.630000000000001</ele>
        <time>2017-06-20T16:33:07Z</time>
      </trkpt>
      <trkpt lat="62.748063979670405" lon="7.259095022454858">
        <ele>12.630000000000001</ele>
        <time>2017-06-20T16:33:08Z</time>
      </trkpt>
      <trkpt lat="62.748127011582255" lon="7.258987985551357">
        <ele>12.630000000000001</ele>
        <time>2017-06-20T16:33:09Z</time>
      </trkpt>
      <trkpt lat="62.748271012678742" lon="7.258809031918645">
        <ele>12.630000000000001</ele>
        <time>2017-06-20T16:33:11Z</time>
      </trkpt>
      <trkpt lat="62.748351981863379" lon="7.258772989735007">
        <ele>12.630000000000001</ele>
        <time>2017-06-20T16:33:12Z</time>
      </trkpt>
      <trkpt lat="62.748440997675061" lon="7.258788999170065">
        <ele>13.119999999999999</ele>
        <time>2017-06-20T16:33:13Z</time>
      </trkpt>
      <trkpt lat="62.748532025143504" lon="7.25886301137507">
        <ele>13.6</ele>
        <time>2017-06-20T16:33:14Z</time>
      </trkpt>
      <trkpt lat="62.74863101541996" lon="7.258962001651526">
        <ele>13.6</ele>
        <time>2017-06-20T16:33:15Z</time>
      </trkpt>
      <trkpt lat="62.749971030279994" lon="7.260651038959622">
        <ele>19.359999999999999</ele>
        <time>2017-06-20T16:33:27Z</time>
      </trkpt>
      <trkpt lat="62.751943962648511" lon="7.26283703930676">
        <ele>28.98</ele>
        <time>2017-06-20T16:33:42Z</time>
      </trkpt>
      <trkpt lat="62.754049999639392" lon="7.264184011146426">
        <ele>40.509999999999998</ele>
        <time>2017-06-20T16:33:54Z</time>
      </trkpt>
      <trkpt lat="62.755695031955838" lon="7.266365988180041">
        <ele>49.649999999999999</ele>
        <time>2017-06-20T16:34:04Z</time>
      </trkpt>
      <trkpt lat="62.757639968767762" lon="7.268623989075422">
        <ele>57.82</ele>
        <time>2017-06-20T16:34:15Z</time>
      </trkpt>
      <trkpt lat="62.759323976933956" lon="7.271254984661937">
        <ele>65.989999999999995</ele>
        <time>2017-06-20T16:34:25Z</time>
      </trkpt>
      <trkpt lat="62.761127008125186" lon="7.274352014064789">
        <ele>73.680000000000007</ele>
        <time>2017-06-20T16:34:36Z</time>
      </trkpt>
      <trkpt lat="62.762325033545494" lon="7.275239992886782">
        <ele>78.969999999999999</ele>
        <time>2017-06-20T16:34:43Z</time>
      </trkpt>
      <trkpt lat="62.76448898948729" lon="7.276340033859015">
        <ele>93.390000000000001</ele>
        <time>2017-06-20T16:34:57Z</time>
      </trkpt>
      <trkpt lat="62.765760021284223" lon="7.276131995022297">
        <ele>101.56</ele>
        <time>2017-06-20T16:35:05Z</time>
      </trkpt>
      <trkpt lat="62.766867019236088" lon="7.274842020124197">
        <ele>109.25</ele>
        <time>2017-06-20T16:35:13Z</time>
      </trkpt>
      <trkpt lat="62.768711037933826" lon="7.271826965734363">
        <ele>114.05</ele>
        <time>2017-06-20T16:35:27Z</time>
      </trkpt>
      <trkpt lat="62.789320964366198" lon="7.235083971172571">
        <ele>118.38</ele>
        <time>2017-06-20T16:37:39Z</time>
      </trkpt>
      <trkpt lat="62.790834987536073" lon="7.232873998582363">
        <ele>112.61</ele>
        <time>2017-06-20T16:37:49Z</time>
      </trkpt>
      <trkpt lat="62.792457975447178" lon="7.232150975614786">
        <ele>114.53</ele>
        <time>2017-06-20T16:37:58Z</time>
      </trkpt>
      <trkpt lat="62.793827997520566" lon="7.231431975960732">
        <ele>116.94</ele>
        <time>2017-06-20T16:38:07Z</time>
      </trkpt>
      <trkpt lat="62.794883027672768" lon="7.230126997455955">
        <ele>106.84</ele>
        <time>2017-06-20T16:38:15Z</time>
      </trkpt>
      <trkpt lat="62.795028034597635" lon="7.230043010786176">
        <ele>105.88</ele>
        <time>2017-06-20T16:38:16Z</time>
      </trkpt>
      <trkpt lat="62.795175975188613" lon="7.230001017451286">
        <ele>105.40000000000001</ele>
        <time>2017-06-20T16:38:17Z</time>
      </trkpt>
      <trkpt lat="62.795322993770242" lon="7.230002023279667">
        <ele>104.44</ele>
        <time>2017-06-20T16:38:18Z</time>
      </trkpt>
      <trkpt lat="62.795474035665393" lon="7.230048961937428">
        <ele>104.44</ele>
        <time>2017-06-20T16:38:19Z</time>
      </trkpt>
      <trkpt lat="62.795623987913132" lon="7.230124985799193">
        <ele>103.95999999999999</ele>
        <time>2017-06-20T16:38:20Z</time>
      </trkpt>
      <trkpt lat="62.795768994837999" lon="7.230231016874313">
        <ele>103.95999999999999</ele>
        <time>2017-06-20T16:38:21Z</time>
      </trkpt>
      <trkpt lat="62.795907966792583" lon="7.230366971343756">
        <ele>103.48</ele>
        <time>2017-06-20T16:38:22Z</time>
      </trkpt>
      <trkpt lat="62.796041993424296" lon="7.230539973825216">
        <ele>103.48</ele>
        <time>2017-06-20T16:38:23Z</time>
      </trkpt>
      <trkpt lat="62.796166967600584" lon="7.230749018490315">
        <ele>102.52</ele>
        <time>2017-06-20T16:38:24Z</time>
      </trkpt>
      <trkpt lat="62.79628599062562" lon="7.230995027348399">
        <ele>101.56</ele>
        <time>2017-06-20T16:38:25Z</time>
      </trkpt>
      <trkpt lat="62.796395039185882" lon="7.23125796765089">
        <ele>100.59999999999999</ele>
        <time>2017-06-20T16:38:26Z</time>
      </trkpt>
      <trkpt lat="62.796496963128448" lon="7.231552004814148">
        <ele>99.150000000000006</ele>
        <time>2017-06-20T16:38:27Z</time>
      </trkpt>
      <trkpt lat="62.796594025567174" lon="7.231860039755702">
        <ele>98.670000000000002</ele>
        <time>2017-06-20T16:38:28Z</time>
      </trkpt>
      <trkpt lat="62.796676000580192" lon="7.232186011970043">
        <ele>97.230000000000004</ele>
        <time>2017-06-20T16:38:29Z</time>
      </trkpt>
      <trkpt lat="62.796746995300055" lon="7.232516007497907">
        <ele>96.269999999999996</ele>
        <time>2017-06-20T16:38:30Z</time>
      </trkpt>
      <trkpt lat="62.796812960878015" lon="7.232851032167673">
        <ele>95.310000000000002</ele>
        <time>2017-06-20T16:38:31Z</time>
      </trkpt>
      <trkpt lat="62.796870963647962" lon="7.233196031302214">
        <ele>94.349999999999994</ele>
        <time>2017-06-20T16:38:32Z</time>
      </trkpt>
      <trkpt lat="62.796921003609896" lon="7.233549999073148">
        <ele>93.870000000000005</ele>
        <time>2017-06-20T16:38:33Z</time>
      </trkpt>
      <trkpt lat="62.797182016074657" lon="7.235688976943493">
        <ele>89.060000000000002</ele>
        <time>2017-06-20T16:38:39Z</time>
      </trkpt>
      <trkpt lat="62.797259967774153" lon="7.236002963036299">
        <ele>87.620000000000005</ele>
        <time>2017-06-20T16:38:40Z</time>
      </trkpt>
      <trkpt lat="62.797353006899357" lon="7.236297000199556">
        <ele>87.140000000000001</ele>
        <time>2017-06-20T16:38:41Z</time>
      </trkpt>
      <trkpt lat="62.797455014660954" lon="7.236575027927756">
        <ele>86.180000000000007</ele>
        <time>2017-06-20T16:38:42Z</time>
      </trkpt>
      <trkpt lat="62.797560961917043" lon="7.236851966008544">
        <ele>85.209999999999994</ele>
        <time>2017-06-20T16:38:43Z</time>
      </trkpt>
      <trkpt lat="62.79888697899878" lon="7.239381037652493">
        <ele>74.159999999999997</ele>
        <time>2017-06-20T16:38:54Z</time>
      </trkpt>
      <trkpt lat="62.801066022366285" lon="7.242401037365198">
        <ele>60.219999999999999</ele>
        <time>2017-06-20T16:39:10Z</time>
      </trkpt>
      <trkpt lat="62.802336970344186" lon="7.244913009926677">
        <ele>50.130000000000003</ele>
        <time>2017-06-20T16:39:21Z</time>
      </trkpt>
      <trkpt lat="62.804016033187509" lon="7.246375987306237">
        <ele>40.030000000000001</ele>
        <time>2017-06-20T16:39:32Z</time>
      </trkpt>
      <trkpt lat="62.80554598197341" lon="7.246849983930588">
        <ele>33.299999999999997</ele>
        <time>2017-06-20T16:39:42Z</time>
      </trkpt>
      <trkpt lat="62.807736005634069" lon="7.246551001444459">
        <ele>26.57</ele>
        <time>2017-06-20T16:39:56Z</time>
      </trkpt>
      <trkpt lat="62.810457022860646" lon="7.245767964050174">
        <ele>27.050000000000001</ele>
        <time>2017-06-20T16:40:13Z</time>
      </trkpt>
      <trkpt lat="62.813071003183722" lon="7.244636993855238">
        <ele>30.899999999999999</ele>
        <time>2017-06-20T16:40:29Z</time>
      </trkpt>
      <trkpt lat="62.814670018851757" lon="7.242542020976543">
        <ele>35.229999999999997</ele>
        <time>2017-06-20T16:40:40Z</time>
      </trkpt>
      <trkpt lat="62.816674970090389" lon="7.239303002133966">
        <ele>41.950000000000003</ele>
        <time>2017-06-20T16:40:54Z</time>
      </trkpt>
      <trkpt lat="62.818450005725026" lon="7.237603990361095">
        <ele>40.509999999999998</ele>
        <time>2017-06-20T16:41:05Z</time>
      </trkpt>
      <trkpt lat="62.820228980854154" lon="7.237068973481655">
        <ele>42.920000000000002</ele>
        <time>2017-06-20T16:41:15Z</time>
      </trkpt>
      <trkpt lat="62.821673015132546" lon="7.237734999507666">
        <ele>44.359999999999999</ele>
        <time>2017-06-20T16:41:23Z</time>
      </trkpt>
      <trkpt lat="62.82284002751112" lon="7.237750003114343">
        <ele>47.719999999999999</ele>
        <time>2017-06-20T16:41:30Z</time>
      </trkpt>
      <trkpt lat="62.825004989281297" lon="7.23697199486196">
        <ele>40.030000000000001</ele>
        <time>2017-06-20T16:41:42Z</time>
      </trkpt>
      <trkpt lat="62.827061992138624" lon="7.236256012693048">
        <ele>31.379999999999999</ele>
        <time>2017-06-20T16:41:53Z</time>
      </trkpt>
      <trkpt lat="62.829257966950536" lon="7.235538018867374">
        <ele>24.649999999999999</ele>
        <time>2017-06-20T16:42:07Z</time>
      </trkpt>
      <trkpt lat="62.831347994506359" lon="7.234853971749544">
        <ele>19.84</ele>
        <time>2017-06-20T16:42:21Z</time>
      </trkpt>
      <trkpt lat="62.833418995141983" lon="7.234770990908146">
        <ele>16.48</ele>
        <time>2017-06-20T16:42:34Z</time>
      </trkpt>
      <trkpt lat="62.834738977253437" lon="7.235193019732833">
        <ele>24.649999999999999</ele>
        <time>2017-06-20T16:42:43Z</time>
      </trkpt>
      <trkpt lat="62.836469002068043" lon="7.236748030409217">
        <ele>26.09</ele>
        <time>2017-06-20T16:42:55Z</time>
      </trkpt>
      <trkpt lat="62.83727902919054" lon="7.237353036180139">
        <ele>28.98</ele>
        <time>2017-06-20T16:43:03Z</time>
      </trkpt>
      <trkpt lat="62.837341977283359" lon="7.237363010644913">
        <ele>28.98</ele>
        <time>2017-06-20T16:43:04Z</time>
      </trkpt>
      <trkpt lat="62.837399980053306" lon="7.237355969846249">
        <ele>29.460000000000001</ele>
        <time>2017-06-20T16:43:05Z</time>
      </trkpt>
      <trkpt lat="62.837597960606217" lon="7.237325040623546">
        <ele>29.940000000000001</ele>
        <time>2017-06-20T16:43:09Z</time>
      </trkpt>
      <trkpt lat="62.837646994739771" lon="7.23729201592505">
        <ele>29.460000000000001</ele>
        <time>2017-06-20T16:43:10Z</time>
      </trkpt>
      <trkpt lat="62.837685970589519" lon="7.237230995669961">
        <ele>29.460000000000001</ele>
        <time>2017-06-20T16:43:11Z</time>
      </trkpt>
      <trkpt lat="62.837715977802873" lon="7.237135022878647">
        <ele>29.460000000000001</ele>
        <time>2017-06-20T16:43:12Z</time>
      </trkpt>
      <trkpt lat="62.837746990844607" lon="7.237017005681992">
        <ele>28.98</ele>
        <time>2017-06-20T16:43:13Z</time>
      </trkpt>
      <trkpt lat="62.837919993326068" lon="7.236624984070659">
        <ele>28.02</ele>
        <time>2017-06-20T16:43:16Z</time>
      </trkpt>
      <trkpt lat="62.838749969378114" lon="7.235163012519479">
        <ele>24.170000000000002</ele>
        <time>2017-06-20T16:43:25Z</time>
      </trkpt>
      <trkpt lat="62.839800976216793" lon="7.233125036582351">
        <ele>18.879999999999999</ele>
        <time>2017-06-20T16:43:36Z</time>
      </trkpt>
      <trkpt lat="62.841048035770655" lon="7.23157899454236">
        <ele>12.630000000000001</ele>
        <time>2017-06-20T16:43:47Z</time>
      </trkpt>
      <trkpt lat="62.841831995174289" lon="7.229874031618238">
        <ele>14.56</ele>
        <time>2017-06-20T16:43:55Z</time>
      </trkpt>
      <trkpt lat="62.84280102699995" lon="7.228893013671041">
        <ele>20.32</ele>
        <time>2017-06-20T16:44:02Z</time>
      </trkpt>
      <trkpt lat="62.844616966322064" lon="7.227011024951935">
        <ele>22.73</ele>
        <time>2017-06-20T16:44:14Z</time>
      </trkpt>
      <trkpt lat="62.846407005563378" lon="7.224184982478619">
        <ele>23.690000000000001</ele>
        <time>2017-06-20T16:44:27Z</time>
      </trkpt>
      <trkpt lat="62.847734028473496" lon="7.222116999328136">
        <ele>24.170000000000002</ele>
        <time>2017-06-20T16:44:36Z</time>
      </trkpt>
      <trkpt lat="62.84980502910912" lon="7.218995997682214">
        <ele>28.98</ele>
        <time>2017-06-20T16:44:49Z</time>
      </trkpt>
      <trkpt lat="62.850747993215919" lon="7.215993013232946">
        <ele>33.299999999999997</ele>
        <time>2017-06-20T16:44:58Z</time>
      </trkpt>
      <trkpt lat="62.851836970075965" lon="7.212818032130599">
        <ele>28.98</ele>
        <time>2017-06-20T16:45:08Z</time>
      </trkpt>
      <trkpt lat="62.852737018838525" lon="7.209127983078361">
        <ele>27.050000000000001</ele>
        <time>2017-06-20T16:45:19Z</time>
      </trkpt>
      <trkpt lat="62.853636983782053" lon="7.204671995714307">
        <ele>16</ele>
        <time>2017-06-20T16:45:31Z</time>
      </trkpt>
      <trkpt lat="62.854754962027073" lon="7.199270026758313">
        <ele>16.48</ele>
        <time>2017-06-20T16:45:46Z</time>
      </trkpt>
      <trkpt lat="62.855398021638393" lon="7.195970993489027">
        <ele>17.440000000000001</ele>
        <time>2017-06-20T16:45:56Z</time>
      </trkpt>
      <trkpt lat="62.855686023831367" lon="7.192527959123254">
        <ele>17.920000000000002</ele>
        <time>2017-06-20T16:46:07Z</time>
      </trkpt>
      <trkpt lat="62.855601031333208" lon="7.188832964748144">
        <ele>19.84</ele>
        <time>2017-06-20T16:46:18Z</time>
      </trkpt>
      <trkpt lat="62.855280004441738" lon="7.184282010421157">
        <ele>21.289999999999999</ele>
        <time>2017-06-20T16:46:31Z</time>
      </trkpt>
      <trkpt lat="62.854860993102193" lon="7.179052038118243">
        <ele>27.050000000000001</ele>
        <time>2017-06-20T16:46:46Z</time>
      </trkpt>
      <trkpt lat="62.854392025619745" lon="7.17541596852243">
        <ele>29.940000000000001</ele>
        <time>2017-06-20T16:46:58Z</time>
      </trkpt>
      <trkpt lat="62.85390998236835" lon="7.17051699757576">
        <ele>31.379999999999999</ele>
        <time>2017-06-20T16:47:17Z</time>
      </trkpt>
      <trkpt lat="62.853959016501904" lon="7.167965965345502">
        <ele>30.899999999999999</ele>
        <time>2017-06-20T16:47:27Z</time>
      </trkpt>
      <trkpt lat="62.853955999016762" lon="7.167247971519828">
        <ele>30.899999999999999</ele>
        <time>2017-06-20T16:47:32Z</time>
      </trkpt>
      <trkpt lat="62.853978965431452" lon="7.167154010385275">
        <ele>30.420000000000002</ele>
        <time>2017-06-20T16:47:33Z</time>
      </trkpt>
      <trkpt lat="62.854017019271851" lon="7.16707999818027">
        <ele>30.420000000000002</ele>
        <time>2017-06-20T16:47:34Z</time>
      </trkpt>
      <trkpt lat="62.854067981243134" lon="7.167020989581943">
        <ele>30.420000000000002</ele>
        <time>2017-06-20T16:47:35Z</time>
      </trkpt>
      <trkpt lat="62.854130007326603" lon="7.166997017338872">
        <ele>31.379999999999999</ele>
        <time>2017-06-20T16:47:36Z</time>
      </trkpt>
      <trkpt lat="62.854195972904563" lon="7.16701403260231">
        <ele>31.379999999999999</ele>
        <time>2017-06-20T16:47:37Z</time>
      </trkpt>
      <trkpt lat="62.854266967624426" lon="7.167058037593961">
        <ele>31.379999999999999</ele>
        <time>2017-06-20T16:47:38Z</time>
      </trkpt>
      <trkpt lat="62.854338968172669" lon="7.167104976251721">
        <ele>31.859999999999999</ele>
        <time>2017-06-20T16:47:39Z</time>
      </trkpt>
      <trkpt lat="62.855611005797982" lon="7.167989015579224">
        <ele>46.759999999999998</ele>
        <time>2017-06-20T16:47:54Z</time>
      </trkpt>
      <trkpt lat="62.857116982340813" lon="7.169073969125748">
        <ele>61.659999999999997</ele>
        <time>2017-06-20T16:48:08Z</time>
      </trkpt>
      <trkpt lat="62.857213038951159" lon="7.169188968837261">
        <ele>62.619999999999997</ele>
        <time>2017-06-20T16:48:09Z</time>
      </trkpt>
      <trkpt lat="62.857301970943809" lon="7.169320983812213">
        <ele>64.069999999999993</ele>
        <time>2017-06-20T16:48:10Z</time>
      </trkpt>
      <trkpt lat="62.857383023947477" lon="7.169475965201855">
        <ele>65.030000000000001</ele>
        <time>2017-06-20T16:48:11Z</time>
      </trkpt>
      <trkpt lat="62.857452007010579" lon="7.169647961854935">
        <ele>65.989999999999995</ele>
        <time>2017-06-20T16:48:12Z</time>
      </trkpt>
      <trkpt lat="62.857512021437287" lon="7.169840997084975">
        <ele>66.950000000000003</ele>
        <time>2017-06-20T16:48:13Z</time>
      </trkpt>
      <trkpt lat="62.857569018378854" lon="7.170037971809506">
        <ele>67.909999999999997</ele>
        <time>2017-06-20T16:48:14Z</time>
      </trkpt>
      <trkpt lat="62.857619980350137" lon="7.170221032574773">
        <ele>68.870000000000005</ele>
        <time>2017-06-20T16:48:15Z</time>
      </trkpt>
      <trkpt lat="62.857986018061638" lon="7.171532968059182">
        <ele>69.829999999999998</ele>
        <time>2017-06-20T16:48:24Z</time>
      </trkpt>
      <trkpt lat="62.858347026631236" lon="7.172908019274473">
        <ele>71.760000000000005</ele>
        <time>2017-06-20T16:48:34Z</time>
      </trkpt>
      <trkpt lat="62.858922025188804" lon="7.174267983064055">
        <ele>73.680000000000007</ele>
        <time>2017-06-20T16:48:45Z</time>
      </trkpt>
      <trkpt lat="62.85971000790596" lon="7.174884974956513">
        <ele>80.409999999999997</ele>
        <time>2017-06-20T16:48:56Z</time>
      </trkpt>
      <trkpt lat="62.860670993104577" lon="7.175624007359147">
        <ele>90.980000000000004</ele>
        <time>2017-06-20T16:49:10Z</time>
      </trkpt>
      <trkpt lat="62.860889006406069" lon="7.175831962376833">
        <ele>93.870000000000005</ele>
        <time>2017-06-20T16:49:14Z</time>
      </trkpt>
      <trkpt lat="62.860930999740958" lon="7.175835985690355">
        <ele>94.349999999999994</ele>
        <time>2017-06-20T16:49:15Z</time>
      </trkpt>
      <trkpt lat="62.860966958105564" lon="7.175821987912059">
        <ele>94.829999999999998</ele>
        <time>2017-06-20T16:49:16Z</time>
      </trkpt>
      <trkpt lat="62.860995959490538" lon="7.175774965435267">
        <ele>95.310000000000002</ele>
        <time>2017-06-20T16:49:17Z</time>
      </trkpt>
      <trkpt lat="62.861033007502556" lon="7.17569500207901">
        <ele>96.75</ele>
        <time>2017-06-20T16:49:18Z</time>
      </trkpt>
      <trkpt lat="62.861053040251136" lon="7.175578996539116">
        <ele>97.230000000000004</ele>
        <time>2017-06-20T16:49:19Z</time>
      </trkpt>
      <trkpt lat="62.861066032201052" lon="7.175451004877687">
        <ele>97.230000000000004</ele>
        <time>2017-06-20T16:49:20Z</time>
      </trkpt>
      <trkpt lat="62.861077012494206" lon="7.175332987681031">
        <ele>97.709999999999994</ele>
        <time>2017-06-20T16:49:21Z</time>
      </trkpt>
      <trkpt lat="62.861137026920915" lon="7.173647973686457">
        <ele>104.92</ele>
        <time>2017-06-20T16:49:32Z</time>
      </trkpt>
      <trkpt lat="62.861050022765994" lon="7.171444036066532">
        <ele>112.13</ele>
        <time>2017-06-20T16:49:44Z</time>
      </trkpt>
      <trkpt lat="62.860966958105564" lon="7.170452959835529">
        <ele>115.5</ele>
        <time>2017-06-20T16:49:54Z</time>
      </trkpt>
      <trkpt lat="62.860971987247467" lon="7.170463018119335">
        <ele>114.53</ele>
        <time>2017-06-20T16:50:08Z</time>
      </trkpt>
      <trkpt lat="62.860978022217751" lon="7.170533007010818">
        <ele>114.53</ele>
        <time>2017-06-20T16:50:27Z</time>
      </trkpt>
      <trkpt lat="62.860969975590706" lon="7.170564020052552">
        <ele>114.53</ele>
        <time>2017-06-20T16:50:28Z</time>
      </trkpt>
      <trkpt lat="62.860970981419086" lon="7.17062403447926">
        <ele>115.01000000000001</ele>
        <time>2017-06-20T16:50:29Z</time>
      </trkpt>
      <trkpt lat="62.860981039702892" lon="7.170683965086937">
        <ele>114.53</ele>
        <time>2017-06-20T16:50:30Z</time>
      </trkpt>
      <trkpt lat="62.860986990854144" lon="7.170734005048871">
        <ele>114.53</ele>
        <time>2017-06-20T16:50:31Z</time>
      </trkpt>
      <trkpt lat="62.861023033037782" lon="7.170826960355043">
        <ele>115.01000000000001</ele>
        <time>2017-06-20T16:50:40Z</time>
      </trkpt>
      <trkpt lat="62.861015992239118" lon="7.170596960932016">
        <ele>115.01000000000001</ele>
        <time>2017-06-20T16:50:45Z</time>
      </trkpt>
      <trkpt lat="62.860971987247467" lon="7.170139979571104">
        <ele>116.94</ele>
        <time>2017-06-20T16:50:51Z</time>
      </trkpt>
      <trkpt lat="62.861110037192702" lon="7.170041995123029">
        <ele>118.38</ele>
        <time>2017-06-20T16:50:56Z</time>
      </trkpt>
      <trkpt lat="62.861346993595362" lon="7.17023896984756">
        <ele>123.19</ele>
        <time>2017-06-20T16:51:07Z</time>
      </trkpt>
      <trkpt lat="62.861347999423742" lon="7.170230001211166">
        <ele>123.67</ele>
        <time>2017-06-20T16:52:21Z</time>
      </trkpt>
    </trkseg>
  </trk>

</gpx>